<?xml version="1.0" encoding="UTF-8" standalone="no" ?>
<gpx xmlns="http://www.topografix.com/GPX/1/1" xmlns:xsi="http://www.w3.org/2001/XMLSchema-instance" xsi:schemaLocation="http://www.topografix.com/GPX/1/1 http://www.topografix.com/GPX/1/1/gpx.xsd" version="1.1" creator="VisuGPX - https://www.visugpx.com">
  <metadata>
    <name>Montée Descente du Mas de la Barque en VTT</name>
    <desc><![CDATA[montée par la route
Descente par une trace trouvée sur le net]]></desc>
  </metadata>
  <trk>
    <name><![CDATA[Montée Descente du Mas de la Barque en VTT_1]]></name>
    <trkseg>
      <trkpt lat="44.35329" lon="3.94544">
        <ele>546</ele>
        <time>2012-01-03T09:34:13Z</time>
      </trkpt>
      <trkpt lat="44.35339" lon="3.9448">
        <ele>554</ele>
        <time>2012-01-03T09:36:41Z</time>
      </trkpt>
      <trkpt lat="44.35339" lon="3.94478">
        <ele>553</ele>
        <time>2012-01-03T09:36:42Z</time>
      </trkpt>
      <trkpt lat="44.35341" lon="3.94477">
        <ele>552</ele>
        <time>2012-01-03T09:36:43Z</time>
      </trkpt>
      <trkpt lat="44.35342" lon="3.94475">
        <ele>551</ele>
        <time>2012-01-03T09:36:44Z</time>
      </trkpt>
      <trkpt lat="44.35343" lon="3.94473">
        <ele>550</ele>
        <time>2012-01-03T09:36:45Z</time>
      </trkpt>
      <trkpt lat="44.35344" lon="3.9447">
        <ele>549</ele>
        <time>2012-01-03T09:36:46Z</time>
      </trkpt>
      <trkpt lat="44.35345" lon="3.94467">
        <ele>548</ele>
        <time>2012-01-03T09:36:47Z</time>
      </trkpt>
      <trkpt lat="44.35345" lon="3.94465">
        <ele>547</ele>
        <time>2012-01-03T09:36:48Z</time>
      </trkpt>
      <trkpt lat="44.35344" lon="3.94463">
        <ele>546</ele>
        <time>2012-01-03T09:36:49Z</time>
      </trkpt>
      <trkpt lat="44.35344" lon="3.94462">
        <ele>545</ele>
        <time>2012-01-03T09:36:50Z</time>
      </trkpt>
      <trkpt lat="44.35344" lon="3.9446">
        <ele>545</ele>
        <time>2012-01-03T09:36:51Z</time>
      </trkpt>
      <trkpt lat="44.35344" lon="3.94456">
        <ele>544</ele>
        <time>2012-01-03T09:36:54Z</time>
      </trkpt>
      <trkpt lat="44.35344" lon="3.9445">
        <ele>544</ele>
        <time>2012-01-03T09:36:55Z</time>
      </trkpt>
      <trkpt lat="44.35344" lon="3.94448">
        <ele>544</ele>
        <time>2012-01-03T09:36:56Z</time>
      </trkpt>
      <trkpt lat="44.35344" lon="3.9444">
        <ele>543</ele>
        <time>2012-01-03T09:36:59Z</time>
      </trkpt>
      <trkpt lat="44.35344" lon="3.94438">
        <ele>543</ele>
        <time>2012-01-03T09:37:00Z</time>
      </trkpt>
      <trkpt lat="44.35343" lon="3.94435">
        <ele>543</ele>
        <time>2012-01-03T09:37:01Z</time>
      </trkpt>
      <trkpt lat="44.35343" lon="3.94432">
        <ele>543</ele>
        <time>2012-01-03T09:37:04Z</time>
      </trkpt>
      <trkpt lat="44.3534" lon="3.94427">
        <ele>543</ele>
        <time>2012-01-03T09:37:05Z</time>
      </trkpt>
      <trkpt lat="44.35341" lon="3.94425">
        <ele>543</ele>
        <time>2012-01-03T09:37:06Z</time>
      </trkpt>
      <trkpt lat="44.35339" lon="3.94419">
        <ele>543</ele>
        <time>2012-01-03T09:37:09Z</time>
      </trkpt>
      <trkpt lat="44.35337" lon="3.94413">
        <ele>543</ele>
        <time>2012-01-03T09:37:10Z</time>
      </trkpt>
      <trkpt lat="44.35337" lon="3.94411">
        <ele>543</ele>
        <time>2012-01-03T09:37:11Z</time>
      </trkpt>
      <trkpt lat="44.35335" lon="3.94406">
        <ele>543</ele>
        <time>2012-01-03T09:37:14Z</time>
      </trkpt>
      <trkpt lat="44.35333" lon="3.94402">
        <ele>543</ele>
        <time>2012-01-03T09:37:15Z</time>
      </trkpt>
      <trkpt lat="44.35332" lon="3.944">
        <ele>543</ele>
        <time>2012-01-03T09:37:16Z</time>
      </trkpt>
      <trkpt lat="44.35331" lon="3.94395">
        <ele>543</ele>
        <time>2012-01-03T09:37:19Z</time>
      </trkpt>
      <trkpt lat="44.35329" lon="3.94391">
        <ele>544</ele>
        <time>2012-01-03T09:37:20Z</time>
      </trkpt>
      <trkpt lat="44.35328" lon="3.94388">
        <ele>545</ele>
        <time>2012-01-03T09:37:21Z</time>
      </trkpt>
      <trkpt lat="44.35326" lon="3.94384">
        <ele>546</ele>
        <time>2012-01-03T09:37:24Z</time>
      </trkpt>
      <trkpt lat="44.35325" lon="3.94381">
        <ele>547</ele>
        <time>2012-01-03T09:37:25Z</time>
      </trkpt>
      <trkpt lat="44.35324" lon="3.94379">
        <ele>548</ele>
        <time>2012-01-03T09:37:26Z</time>
      </trkpt>
      <trkpt lat="44.35322" lon="3.94374">
        <ele>549</ele>
        <time>2012-01-03T09:37:29Z</time>
      </trkpt>
      <trkpt lat="44.35318" lon="3.9437">
        <ele>550</ele>
        <time>2012-01-03T09:37:30Z</time>
      </trkpt>
      <trkpt lat="44.35317" lon="3.94367">
        <ele>551</ele>
        <time>2012-01-03T09:37:31Z</time>
      </trkpt>
      <trkpt lat="44.35315" lon="3.94365">
        <ele>551</ele>
        <time>2012-01-03T09:37:32Z</time>
      </trkpt>
      <trkpt lat="44.35314" lon="3.9436">
        <ele>551</ele>
        <time>2012-01-03T09:37:36Z</time>
      </trkpt>
      <trkpt lat="44.35311" lon="3.94349">
        <ele>551</ele>
        <time>2012-01-03T09:37:37Z</time>
      </trkpt>
      <trkpt lat="44.3531" lon="3.94346">
        <ele>552</ele>
        <time>2012-01-03T09:37:38Z</time>
      </trkpt>
      <trkpt lat="44.35308" lon="3.94342">
        <ele>553</ele>
        <time>2012-01-03T09:37:41Z</time>
      </trkpt>
      <trkpt lat="44.35305" lon="3.94336">
        <ele>554</ele>
        <time>2012-01-03T09:37:42Z</time>
      </trkpt>
      <trkpt lat="44.35302" lon="3.94332">
        <ele>555</ele>
        <time>2012-01-03T09:37:43Z</time>
      </trkpt>
      <trkpt lat="44.353" lon="3.94327">
        <ele>556</ele>
        <time>2012-01-03T09:37:47Z</time>
      </trkpt>
      <trkpt lat="44.35297" lon="3.94321">
        <ele>557</ele>
        <time>2012-01-03T09:37:48Z</time>
      </trkpt>
      <trkpt lat="44.35297" lon="3.94318">
        <ele>558</ele>
        <time>2012-01-03T09:37:49Z</time>
      </trkpt>
      <trkpt lat="44.35295" lon="3.94315">
        <ele>559</ele>
        <time>2012-01-03T09:37:52Z</time>
      </trkpt>
      <trkpt lat="44.35292" lon="3.9431">
        <ele>560</ele>
        <time>2012-01-03T09:37:53Z</time>
      </trkpt>
      <trkpt lat="44.35291" lon="3.94308">
        <ele>561</ele>
        <time>2012-01-03T09:37:54Z</time>
      </trkpt>
      <trkpt lat="44.35289" lon="3.94306">
        <ele>562</ele>
        <time>2012-01-03T09:37:55Z</time>
      </trkpt>
      <trkpt lat="44.35287" lon="3.94303">
        <ele>563</ele>
        <time>2012-01-03T09:37:59Z</time>
      </trkpt>
      <trkpt lat="44.35284" lon="3.94297">
        <ele>564</ele>
        <time>2012-01-03T09:38:00Z</time>
      </trkpt>
      <trkpt lat="44.35282" lon="3.94293">
        <ele>565</ele>
        <time>2012-01-03T09:38:01Z</time>
      </trkpt>
      <trkpt lat="44.35279" lon="3.94288">
        <ele>566</ele>
        <time>2012-01-03T09:38:05Z</time>
      </trkpt>
      <trkpt lat="44.35277" lon="3.94283">
        <ele>566</ele>
        <time>2012-01-03T09:38:06Z</time>
      </trkpt>
      <trkpt lat="44.35276" lon="3.94281">
        <ele>566</ele>
        <time>2012-01-03T09:38:07Z</time>
      </trkpt>
      <trkpt lat="44.35275" lon="3.94278">
        <ele>566</ele>
        <time>2012-01-03T09:38:08Z</time>
      </trkpt>
      <trkpt lat="44.35274" lon="3.94275">
        <ele>566</ele>
        <time>2012-01-03T09:38:09Z</time>
      </trkpt>
      <trkpt lat="44.35272" lon="3.9427">
        <ele>566</ele>
        <time>2012-01-03T09:38:13Z</time>
      </trkpt>
      <trkpt lat="44.35269" lon="3.94262">
        <ele>566</ele>
        <time>2012-01-03T09:38:14Z</time>
      </trkpt>
      <trkpt lat="44.35267" lon="3.94259">
        <ele>566</ele>
        <time>2012-01-03T09:38:15Z</time>
      </trkpt>
      <trkpt lat="44.35264" lon="3.94253">
        <ele>566</ele>
        <time>2012-01-03T09:38:19Z</time>
      </trkpt>
      <trkpt lat="44.35258" lon="3.94245">
        <ele>566</ele>
        <time>2012-01-03T09:38:20Z</time>
      </trkpt>
      <trkpt lat="44.35257" lon="3.94243">
        <ele>566</ele>
        <time>2012-01-03T09:38:21Z</time>
      </trkpt>
      <trkpt lat="44.35255" lon="3.94235">
        <ele>566</ele>
        <time>2012-01-03T09:38:25Z</time>
      </trkpt>
      <trkpt lat="44.35252" lon="3.94226">
        <ele>566</ele>
        <time>2012-01-03T09:38:26Z</time>
      </trkpt>
      <trkpt lat="44.35252" lon="3.94219">
        <ele>566</ele>
        <time>2012-01-03T09:38:31Z</time>
      </trkpt>
      <trkpt lat="44.35254" lon="3.94211">
        <ele>566</ele>
        <time>2012-01-03T09:38:32Z</time>
      </trkpt>
      <trkpt lat="44.35254" lon="3.94207">
        <ele>566</ele>
        <time>2012-01-03T09:38:33Z</time>
      </trkpt>
      <trkpt lat="44.35255" lon="3.94199">
        <ele>566</ele>
        <time>2012-01-03T09:38:37Z</time>
      </trkpt>
      <trkpt lat="44.35255" lon="3.9419">
        <ele>566</ele>
        <time>2012-01-03T09:38:38Z</time>
      </trkpt>
      <trkpt lat="44.35256" lon="3.94186">
        <ele>566</ele>
        <time>2012-01-03T09:38:39Z</time>
      </trkpt>
      <trkpt lat="44.35257" lon="3.9418">
        <ele>566</ele>
        <time>2012-01-03T09:38:43Z</time>
      </trkpt>
      <trkpt lat="44.35258" lon="3.94171">
        <ele>566</ele>
        <time>2012-01-03T09:38:44Z</time>
      </trkpt>
      <trkpt lat="44.35259" lon="3.94168">
        <ele>566</ele>
        <time>2012-01-03T09:38:45Z</time>
      </trkpt>
      <trkpt lat="44.3526" lon="3.94162">
        <ele>566</ele>
        <time>2012-01-03T09:38:49Z</time>
      </trkpt>
      <trkpt lat="44.35263" lon="3.94153">
        <ele>566</ele>
        <time>2012-01-03T09:38:50Z</time>
      </trkpt>
      <trkpt lat="44.35263" lon="3.9415">
        <ele>566</ele>
        <time>2012-01-03T09:38:51Z</time>
      </trkpt>
      <trkpt lat="44.35265" lon="3.94144">
        <ele>566</ele>
        <time>2012-01-03T09:38:56Z</time>
      </trkpt>
      <trkpt lat="44.35267" lon="3.94133">
        <ele>566</ele>
        <time>2012-01-03T09:38:57Z</time>
      </trkpt>
      <trkpt lat="44.35268" lon="3.9413">
        <ele>566</ele>
        <time>2012-01-03T09:38:58Z</time>
      </trkpt>
      <trkpt lat="44.35269" lon="3.94125">
        <ele>566</ele>
        <time>2012-01-03T09:39:02Z</time>
      </trkpt>
      <trkpt lat="44.35271" lon="3.94118">
        <ele>566</ele>
        <time>2012-01-03T09:39:03Z</time>
      </trkpt>
      <trkpt lat="44.35271" lon="3.94116">
        <ele>566</ele>
        <time>2012-01-03T09:39:04Z</time>
      </trkpt>
      <trkpt lat="44.35273" lon="3.94112">
        <ele>566</ele>
        <time>2012-01-03T09:39:09Z</time>
      </trkpt>
      <trkpt lat="44.35276" lon="3.94103">
        <ele>566</ele>
        <time>2012-01-03T09:39:10Z</time>
      </trkpt>
      <trkpt lat="44.35277" lon="3.941">
        <ele>566</ele>
        <time>2012-01-03T09:39:11Z</time>
      </trkpt>
      <trkpt lat="44.35278" lon="3.94095">
        <ele>566</ele>
        <time>2012-01-03T09:39:15Z</time>
      </trkpt>
      <trkpt lat="44.3528" lon="3.94088">
        <ele>566</ele>
        <time>2012-01-03T09:39:16Z</time>
      </trkpt>
      <trkpt lat="44.35281" lon="3.94086">
        <ele>566</ele>
        <time>2012-01-03T09:39:17Z</time>
      </trkpt>
      <trkpt lat="44.35282" lon="3.94081">
        <ele>566</ele>
        <time>2012-01-03T09:39:22Z</time>
      </trkpt>
      <trkpt lat="44.35284" lon="3.94071">
        <ele>566</ele>
        <time>2012-01-03T09:39:23Z</time>
      </trkpt>
      <trkpt lat="44.35285" lon="3.94069">
        <ele>566</ele>
        <time>2012-01-03T09:39:24Z</time>
      </trkpt>
      <trkpt lat="44.35286" lon="3.94064">
        <ele>566</ele>
        <time>2012-01-03T09:39:29Z</time>
      </trkpt>
      <trkpt lat="44.35288" lon="3.94054">
        <ele>566</ele>
        <time>2012-01-03T09:39:30Z</time>
      </trkpt>
      <trkpt lat="44.35289" lon="3.94052">
        <ele>567</ele>
        <time>2012-01-03T09:39:31Z</time>
      </trkpt>
      <trkpt lat="44.35289" lon="3.94049">
        <ele>567</ele>
        <time>2012-01-03T09:39:32Z</time>
      </trkpt>
      <trkpt lat="44.35293" lon="3.94038">
        <ele>567</ele>
        <time>2012-01-03T09:39:37Z</time>
      </trkpt>
      <trkpt lat="44.35294" lon="3.94036">
        <ele>567</ele>
        <time>2012-01-03T09:39:38Z</time>
      </trkpt>
      <trkpt lat="44.35296" lon="3.94032">
        <ele>568</ele>
        <time>2012-01-03T09:39:44Z</time>
      </trkpt>
      <trkpt lat="44.35301" lon="3.94024">
        <ele>568</ele>
        <time>2012-01-03T09:39:44Z</time>
      </trkpt>
      <trkpt lat="44.35302" lon="3.94022">
        <ele>569</ele>
        <time>2012-01-03T09:39:45Z</time>
      </trkpt>
      <trkpt lat="44.35304" lon="3.94021">
        <ele>569</ele>
        <time>2012-01-03T09:39:46Z</time>
      </trkpt>
      <trkpt lat="44.35306" lon="3.94018">
        <ele>570</ele>
        <time>2012-01-03T09:39:51Z</time>
      </trkpt>
      <trkpt lat="44.35311" lon="3.94011">
        <ele>570</ele>
        <time>2012-01-03T09:39:52Z</time>
      </trkpt>
      <trkpt lat="44.35312" lon="3.94009">
        <ele>570</ele>
        <time>2012-01-03T09:39:53Z</time>
      </trkpt>
      <trkpt lat="44.35315" lon="3.94006">
        <ele>570</ele>
        <time>2012-01-03T09:39:58Z</time>
      </trkpt>
      <trkpt lat="44.3532" lon="3.94">
        <ele>570</ele>
        <time>2012-01-03T09:39:59Z</time>
      </trkpt>
      <trkpt lat="44.35321" lon="3.93998">
        <ele>570</ele>
        <time>2012-01-03T09:40:00Z</time>
      </trkpt>
      <trkpt lat="44.35324" lon="3.93996">
        <ele>571</ele>
        <time>2012-01-03T09:40:04Z</time>
      </trkpt>
      <trkpt lat="44.35328" lon="3.93993">
        <ele>571</ele>
        <time>2012-01-03T09:40:05Z</time>
      </trkpt>
      <trkpt lat="44.35329" lon="3.93992">
        <ele>572</ele>
        <time>2012-01-03T09:40:06Z</time>
      </trkpt>
      <trkpt lat="44.3533" lon="3.9399">
        <ele>572</ele>
        <time>2012-01-03T09:40:07Z</time>
      </trkpt>
      <trkpt lat="44.35333" lon="3.93988">
        <ele>573</ele>
        <time>2012-01-03T09:40:11Z</time>
      </trkpt>
      <trkpt lat="44.35337" lon="3.93984">
        <ele>573</ele>
        <time>2012-01-03T09:40:12Z</time>
      </trkpt>
      <trkpt lat="44.35338" lon="3.93983">
        <ele>574</ele>
        <time>2012-01-03T09:40:13Z</time>
      </trkpt>
      <trkpt lat="44.35341" lon="3.9398">
        <ele>574</ele>
        <time>2012-01-03T09:40:17Z</time>
      </trkpt>
      <trkpt lat="44.35344" lon="3.93974">
        <ele>574</ele>
        <time>2012-01-03T09:40:18Z</time>
      </trkpt>
      <trkpt lat="44.35345" lon="3.93972">
        <ele>574</ele>
        <time>2012-01-03T09:40:19Z</time>
      </trkpt>
      <trkpt lat="44.35348" lon="3.93969">
        <ele>574</ele>
        <time>2012-01-03T09:40:23Z</time>
      </trkpt>
      <trkpt lat="44.35354" lon="3.93965">
        <ele>575</ele>
        <time>2012-01-03T09:40:24Z</time>
      </trkpt>
      <trkpt lat="44.35355" lon="3.93964">
        <ele>576</ele>
        <time>2012-01-03T09:40:25Z</time>
      </trkpt>
      <trkpt lat="44.35358" lon="3.93961">
        <ele>576</ele>
        <time>2012-01-03T09:40:29Z</time>
      </trkpt>
      <trkpt lat="44.35362" lon="3.93956">
        <ele>577</ele>
        <time>2012-01-03T09:40:30Z</time>
      </trkpt>
      <trkpt lat="44.35363" lon="3.93954">
        <ele>578</ele>
        <time>2012-01-03T09:40:31Z</time>
      </trkpt>
      <trkpt lat="44.35368" lon="3.93944">
        <ele>579</ele>
        <time>2012-01-03T09:40:36Z</time>
      </trkpt>
      <trkpt lat="44.35371" lon="3.93939">
        <ele>579</ele>
        <time>2012-01-03T09:40:42Z</time>
      </trkpt>
      <trkpt lat="44.35374" lon="3.93933">
        <ele>579</ele>
        <time>2012-01-03T09:40:43Z</time>
      </trkpt>
      <trkpt lat="44.35374" lon="3.93932">
        <ele>579</ele>
        <time>2012-01-03T09:40:44Z</time>
      </trkpt>
      <trkpt lat="44.35379" lon="3.93922">
        <ele>579</ele>
        <time>2012-01-03T09:40:50Z</time>
      </trkpt>
      <trkpt lat="44.35381" lon="3.9392">
        <ele>579</ele>
        <time>2012-01-03T09:40:51Z</time>
      </trkpt>
      <trkpt lat="44.35383" lon="3.93916">
        <ele>579</ele>
        <time>2012-01-03T09:40:55Z</time>
      </trkpt>
      <trkpt lat="44.35385" lon="3.9391">
        <ele>579</ele>
        <time>2012-01-03T09:40:56Z</time>
      </trkpt>
      <trkpt lat="44.35386" lon="3.93909">
        <ele>580</ele>
        <time>2012-01-03T09:40:57Z</time>
      </trkpt>
      <trkpt lat="44.35387" lon="3.93907">
        <ele>580</ele>
        <time>2012-01-03T09:40:58Z</time>
      </trkpt>
      <trkpt lat="44.35389" lon="3.93903">
        <ele>581</ele>
        <time>2012-01-03T09:41:03Z</time>
      </trkpt>
      <trkpt lat="44.35391" lon="3.93898">
        <ele>582</ele>
        <time>2012-01-03T09:41:03Z</time>
      </trkpt>
      <trkpt lat="44.35392" lon="3.93897">
        <ele>583</ele>
        <time>2012-01-03T09:41:04Z</time>
      </trkpt>
      <trkpt lat="44.35394" lon="3.93896">
        <ele>584</ele>
        <time>2012-01-03T09:41:05Z</time>
      </trkpt>
      <trkpt lat="44.35395" lon="3.93894">
        <ele>585</ele>
        <time>2012-01-03T09:41:06Z</time>
      </trkpt>
      <trkpt lat="44.35397" lon="3.93894">
        <ele>586</ele>
        <time>2012-01-03T09:41:07Z</time>
      </trkpt>
      <trkpt lat="44.354" lon="3.93892">
        <ele>587</ele>
        <time>2012-01-03T09:41:12Z</time>
      </trkpt>
      <trkpt lat="44.35405" lon="3.93886">
        <ele>588</ele>
        <time>2012-01-03T09:41:13Z</time>
      </trkpt>
      <trkpt lat="44.3541" lon="3.93884">
        <ele>590</ele>
        <time>2012-01-03T09:41:19Z</time>
      </trkpt>
      <trkpt lat="44.35412" lon="3.93878">
        <ele>591</ele>
        <time>2012-01-03T09:41:20Z</time>
      </trkpt>
      <trkpt lat="44.35413" lon="3.93877">
        <ele>592</ele>
        <time>2012-01-03T09:41:21Z</time>
      </trkpt>
      <trkpt lat="44.35413" lon="3.93874">
        <ele>593</ele>
        <time>2012-01-03T09:41:22Z</time>
      </trkpt>
      <trkpt lat="44.35414" lon="3.93873">
        <ele>594</ele>
        <time>2012-01-03T09:41:23Z</time>
      </trkpt>
      <trkpt lat="44.35415" lon="3.9387">
        <ele>595</ele>
        <time>2012-01-03T09:41:28Z</time>
      </trkpt>
      <trkpt lat="44.35416" lon="3.9386">
        <ele>595</ele>
        <time>2012-01-03T09:41:29Z</time>
      </trkpt>
      <trkpt lat="44.35416" lon="3.93858">
        <ele>595</ele>
        <time>2012-01-03T09:41:30Z</time>
      </trkpt>
      <trkpt lat="44.35415" lon="3.93855">
        <ele>595</ele>
        <time>2012-01-03T09:41:36Z</time>
      </trkpt>
      <trkpt lat="44.35411" lon="3.93851">
        <ele>595</ele>
        <time>2012-01-03T09:41:37Z</time>
      </trkpt>
      <trkpt lat="44.35409" lon="3.93852">
        <ele>595</ele>
        <time>2012-01-03T09:41:38Z</time>
      </trkpt>
      <trkpt lat="44.35408" lon="3.93853">
        <ele>595</ele>
        <time>2012-01-03T09:41:39Z</time>
      </trkpt>
      <trkpt lat="44.35405" lon="3.93853">
        <ele>596</ele>
        <time>2012-01-03T09:41:44Z</time>
      </trkpt>
      <trkpt lat="44.354" lon="3.93861">
        <ele>597</ele>
        <time>2012-01-03T09:41:45Z</time>
      </trkpt>
      <trkpt lat="44.35398" lon="3.93864">
        <ele>598</ele>
        <time>2012-01-03T09:41:46Z</time>
      </trkpt>
      <trkpt lat="44.35397" lon="3.93865">
        <ele>599</ele>
        <time>2012-01-03T09:41:47Z</time>
      </trkpt>
      <trkpt lat="44.35391" lon="3.93874">
        <ele>600</ele>
        <time>2012-01-03T09:41:52Z</time>
      </trkpt>
      <trkpt lat="44.35389" lon="3.93875">
        <ele>602</ele>
        <time>2012-01-03T09:41:53Z</time>
      </trkpt>
      <trkpt lat="44.35386" lon="3.93878">
        <ele>603</ele>
        <time>2012-01-03T09:41:58Z</time>
      </trkpt>
      <trkpt lat="44.3538" lon="3.93882">
        <ele>604</ele>
        <time>2012-01-03T09:41:59Z</time>
      </trkpt>
      <trkpt lat="44.35379" lon="3.93884">
        <ele>605</ele>
        <time>2012-01-03T09:42:00Z</time>
      </trkpt>
      <trkpt lat="44.35376" lon="3.93887">
        <ele>606</ele>
        <time>2012-01-03T09:42:05Z</time>
      </trkpt>
      <trkpt lat="44.35369" lon="3.93892">
        <ele>607</ele>
        <time>2012-01-03T09:42:06Z</time>
      </trkpt>
      <trkpt lat="44.35368" lon="3.93893">
        <ele>608</ele>
        <time>2012-01-03T09:42:07Z</time>
      </trkpt>
      <trkpt lat="44.35364" lon="3.93895">
        <ele>609</ele>
        <time>2012-01-03T09:42:12Z</time>
      </trkpt>
      <trkpt lat="44.35357" lon="3.939">
        <ele>611</ele>
        <time>2012-01-03T09:42:13Z</time>
      </trkpt>
      <trkpt lat="44.35355" lon="3.93901">
        <ele>613</ele>
        <time>2012-01-03T09:42:14Z</time>
      </trkpt>
      <trkpt lat="44.3535" lon="3.93902">
        <ele>615</ele>
        <time>2012-01-03T09:42:20Z</time>
      </trkpt>
      <trkpt lat="44.3534" lon="3.93909">
        <ele>617</ele>
        <time>2012-01-03T09:42:21Z</time>
      </trkpt>
      <trkpt lat="44.35336" lon="3.93912">
        <ele>619</ele>
        <time>2012-01-03T09:42:26Z</time>
      </trkpt>
      <trkpt lat="44.35329" lon="3.93917">
        <ele>621</ele>
        <time>2012-01-03T09:42:27Z</time>
      </trkpt>
      <trkpt lat="44.35327" lon="3.93917">
        <ele>622</ele>
        <time>2012-01-03T09:42:28Z</time>
      </trkpt>
      <trkpt lat="44.35314" lon="3.93915">
        <ele>623</ele>
        <time>2012-01-03T09:42:33Z</time>
      </trkpt>
      <trkpt lat="44.3531" lon="3.93914">
        <ele>624</ele>
        <time>2012-01-03T09:42:34Z</time>
      </trkpt>
      <trkpt lat="44.35307" lon="3.93913">
        <ele>624</ele>
        <time>2012-01-03T09:42:35Z</time>
      </trkpt>
      <trkpt lat="44.35302" lon="3.93913">
        <ele>624</ele>
        <time>2012-01-03T09:42:40Z</time>
      </trkpt>
      <trkpt lat="44.35293" lon="3.93913">
        <ele>624</ele>
        <time>2012-01-03T09:42:41Z</time>
      </trkpt>
      <trkpt lat="44.35291" lon="3.93912">
        <ele>623</ele>
        <time>2012-01-03T09:42:42Z</time>
      </trkpt>
      <trkpt lat="44.35287" lon="3.93912">
        <ele>622</ele>
        <time>2012-01-03T09:42:47Z</time>
      </trkpt>
      <trkpt lat="44.3528" lon="3.93911">
        <ele>621</ele>
        <time>2012-01-03T09:42:48Z</time>
      </trkpt>
      <trkpt lat="44.35278" lon="3.93911">
        <ele>620</ele>
        <time>2012-01-03T09:42:49Z</time>
      </trkpt>
      <trkpt lat="44.35273" lon="3.9391">
        <ele>619</ele>
        <time>2012-01-03T09:42:54Z</time>
      </trkpt>
      <trkpt lat="44.35264" lon="3.93912">
        <ele>618</ele>
        <time>2012-01-03T09:42:55Z</time>
      </trkpt>
      <trkpt lat="44.35262" lon="3.93911">
        <ele>617</ele>
        <time>2012-01-03T09:42:56Z</time>
      </trkpt>
      <trkpt lat="44.35257" lon="3.93912">
        <ele>616</ele>
        <time>2012-01-03T09:43:01Z</time>
      </trkpt>
      <trkpt lat="44.35247" lon="3.93913">
        <ele>615</ele>
        <time>2012-01-03T09:43:02Z</time>
      </trkpt>
      <trkpt lat="44.35245" lon="3.93913">
        <ele>614</ele>
        <time>2012-01-03T09:43:03Z</time>
      </trkpt>
      <trkpt lat="44.35241" lon="3.93914">
        <ele>613</ele>
        <time>2012-01-03T09:43:08Z</time>
      </trkpt>
      <trkpt lat="44.35231" lon="3.93913">
        <ele>612</ele>
        <time>2012-01-03T09:43:09Z</time>
      </trkpt>
      <trkpt lat="44.35229" lon="3.93912">
        <ele>612</ele>
        <time>2012-01-03T09:43:10Z</time>
      </trkpt>
      <trkpt lat="44.35227" lon="3.93912">
        <ele>612</ele>
        <time>2012-01-03T09:43:11Z</time>
      </trkpt>
      <trkpt lat="44.35223" lon="3.93909">
        <ele>612</ele>
        <time>2012-01-03T09:43:15Z</time>
      </trkpt>
      <trkpt lat="44.35218" lon="3.93906">
        <ele>612</ele>
        <time>2012-01-03T09:43:16Z</time>
      </trkpt>
      <trkpt lat="44.35216" lon="3.93905">
        <ele>612</ele>
        <time>2012-01-03T09:43:17Z</time>
      </trkpt>
      <trkpt lat="44.35215" lon="3.93903">
        <ele>612</ele>
        <time>2012-01-03T09:43:18Z</time>
      </trkpt>
      <trkpt lat="44.35212" lon="3.93901">
        <ele>613</ele>
        <time>2012-01-03T09:43:22Z</time>
      </trkpt>
      <trkpt lat="44.35207" lon="3.93899">
        <ele>614</ele>
        <time>2012-01-03T09:43:23Z</time>
      </trkpt>
      <trkpt lat="44.35203" lon="3.93897">
        <ele>615</ele>
        <time>2012-01-03T09:43:24Z</time>
      </trkpt>
      <trkpt lat="44.35198" lon="3.93895">
        <ele>616</ele>
        <time>2012-01-03T09:43:28Z</time>
      </trkpt>
      <trkpt lat="44.35196" lon="3.93893">
        <ele>617</ele>
        <time>2012-01-03T09:43:29Z</time>
      </trkpt>
      <trkpt lat="44.35192" lon="3.93892">
        <ele>618</ele>
        <time>2012-01-03T09:43:30Z</time>
      </trkpt>
      <trkpt lat="44.35189" lon="3.93891">
        <ele>619</ele>
        <time>2012-01-03T09:43:34Z</time>
      </trkpt>
      <trkpt lat="44.35182" lon="3.93889">
        <ele>619</ele>
        <time>2012-01-03T09:43:35Z</time>
      </trkpt>
      <trkpt lat="44.3518" lon="3.93888">
        <ele>619</ele>
        <time>2012-01-03T09:43:36Z</time>
      </trkpt>
      <trkpt lat="44.35176" lon="3.93886">
        <ele>619</ele>
        <time>2012-01-03T09:43:40Z</time>
      </trkpt>
      <trkpt lat="44.3517" lon="3.93885">
        <ele>619</ele>
        <time>2012-01-03T09:43:41Z</time>
      </trkpt>
      <trkpt lat="44.35168" lon="3.93883">
        <ele>619</ele>
        <time>2012-01-03T09:43:42Z</time>
      </trkpt>
      <trkpt lat="44.35163" lon="3.9388">
        <ele>619</ele>
        <time>2012-01-03T09:43:46Z</time>
      </trkpt>
      <trkpt lat="44.35157" lon="3.93877">
        <ele>619</ele>
        <time>2012-01-03T09:43:47Z</time>
      </trkpt>
      <trkpt lat="44.35155" lon="3.93876">
        <ele>620</ele>
        <time>2012-01-03T09:43:48Z</time>
      </trkpt>
      <trkpt lat="44.35151" lon="3.93871">
        <ele>621</ele>
        <time>2012-01-03T09:43:52Z</time>
      </trkpt>
      <trkpt lat="44.35146" lon="3.93866">
        <ele>622</ele>
        <time>2012-01-03T09:43:53Z</time>
      </trkpt>
      <trkpt lat="44.35143" lon="3.93865">
        <ele>623</ele>
        <time>2012-01-03T09:43:54Z</time>
      </trkpt>
      <trkpt lat="44.35142" lon="3.93863">
        <ele>624</ele>
        <time>2012-01-03T09:43:58Z</time>
      </trkpt>
      <trkpt lat="44.35139" lon="3.9386">
        <ele>625</ele>
        <time>2012-01-03T09:43:59Z</time>
      </trkpt>
      <trkpt lat="44.35137" lon="3.93859">
        <ele>626</ele>
        <time>2012-01-03T09:44:00Z</time>
      </trkpt>
      <trkpt lat="44.35135" lon="3.93858">
        <ele>627</ele>
        <time>2012-01-03T09:44:01Z</time>
      </trkpt>
      <trkpt lat="44.35132" lon="3.93855">
        <ele>628</ele>
        <time>2012-01-03T09:44:05Z</time>
      </trkpt>
      <trkpt lat="44.35125" lon="3.93851">
        <ele>628</ele>
        <time>2012-01-03T09:44:06Z</time>
      </trkpt>
      <trkpt lat="44.35123" lon="3.93849">
        <ele>628</ele>
        <time>2012-01-03T09:44:07Z</time>
      </trkpt>
      <trkpt lat="44.35118" lon="3.93846">
        <ele>628</ele>
        <time>2012-01-03T09:44:11Z</time>
      </trkpt>
      <trkpt lat="44.35112" lon="3.93844">
        <ele>628</ele>
        <time>2012-01-03T09:44:12Z</time>
      </trkpt>
      <trkpt lat="44.3511" lon="3.93843">
        <ele>628</ele>
        <time>2012-01-03T09:44:13Z</time>
      </trkpt>
      <trkpt lat="44.35108" lon="3.93843">
        <ele>628</ele>
        <time>2012-01-03T09:44:17Z</time>
      </trkpt>
      <trkpt lat="44.35103" lon="3.93846">
        <ele>628</ele>
        <time>2012-01-03T09:44:18Z</time>
      </trkpt>
      <trkpt lat="44.35102" lon="3.93848">
        <ele>629</ele>
        <time>2012-01-03T09:44:19Z</time>
      </trkpt>
      <trkpt lat="44.35101" lon="3.9385">
        <ele>630</ele>
        <time>2012-01-03T09:44:20Z</time>
      </trkpt>
      <trkpt lat="44.351" lon="3.93853">
        <ele>631</ele>
        <time>2012-01-03T09:44:21Z</time>
      </trkpt>
      <trkpt lat="44.351" lon="3.93856">
        <ele>632</ele>
        <time>2012-01-03T09:44:22Z</time>
      </trkpt>
      <trkpt lat="44.35099" lon="3.93861">
        <ele>633</ele>
        <time>2012-01-03T09:44:27Z</time>
      </trkpt>
      <trkpt lat="44.35102" lon="3.9387">
        <ele>634</ele>
        <time>2012-01-03T09:44:28Z</time>
      </trkpt>
      <trkpt lat="44.35103" lon="3.93874">
        <ele>634</ele>
        <time>2012-01-03T09:44:29Z</time>
      </trkpt>
      <trkpt lat="44.35104" lon="3.93877">
        <ele>634</ele>
        <time>2012-01-03T09:44:30Z</time>
      </trkpt>
      <trkpt lat="44.35108" lon="3.93889">
        <ele>634</ele>
        <time>2012-01-03T09:44:35Z</time>
      </trkpt>
      <trkpt lat="44.35108" lon="3.93893">
        <ele>634</ele>
        <time>2012-01-03T09:44:36Z</time>
      </trkpt>
      <trkpt lat="44.35108" lon="3.93896">
        <ele>634</ele>
        <time>2012-01-03T09:44:37Z</time>
      </trkpt>
      <trkpt lat="44.35107" lon="3.93901">
        <ele>634</ele>
        <time>2012-01-03T09:44:41Z</time>
      </trkpt>
      <trkpt lat="44.35104" lon="3.93912">
        <ele>634</ele>
        <time>2012-01-03T09:44:43Z</time>
      </trkpt>
      <trkpt lat="44.35103" lon="3.93914">
        <ele>634</ele>
        <time>2012-01-03T09:44:44Z</time>
      </trkpt>
      <trkpt lat="44.35099" lon="3.93919">
        <ele>634</ele>
        <time>2012-01-03T09:44:49Z</time>
      </trkpt>
      <trkpt lat="44.35093" lon="3.93924">
        <ele>634</ele>
        <time>2012-01-03T09:44:50Z</time>
      </trkpt>
      <trkpt lat="44.35091" lon="3.93925">
        <ele>634</ele>
        <time>2012-01-03T09:44:51Z</time>
      </trkpt>
      <trkpt lat="44.35087" lon="3.93927">
        <ele>634</ele>
        <time>2012-01-03T09:44:56Z</time>
      </trkpt>
      <trkpt lat="44.35078" lon="3.9393">
        <ele>634</ele>
        <time>2012-01-03T09:44:57Z</time>
      </trkpt>
      <trkpt lat="44.35076" lon="3.9393">
        <ele>634</ele>
        <time>2012-01-03T09:44:58Z</time>
      </trkpt>
      <trkpt lat="44.35072" lon="3.9393">
        <ele>634</ele>
        <time>2012-01-03T09:45:03Z</time>
      </trkpt>
      <trkpt lat="44.35064" lon="3.93929">
        <ele>634</ele>
        <time>2012-01-03T09:45:04Z</time>
      </trkpt>
      <trkpt lat="44.3506" lon="3.93929">
        <ele>633</ele>
        <time>2012-01-03T09:45:09Z</time>
      </trkpt>
      <trkpt lat="44.35051" lon="3.93927">
        <ele>633</ele>
        <time>2012-01-03T09:45:10Z</time>
      </trkpt>
      <trkpt lat="44.35049" lon="3.93926">
        <ele>632</ele>
        <time>2012-01-03T09:45:11Z</time>
      </trkpt>
      <trkpt lat="44.35048" lon="3.93924">
        <ele>632</ele>
        <time>2012-01-03T09:45:12Z</time>
      </trkpt>
      <trkpt lat="44.35046" lon="3.9392">
        <ele>631</ele>
        <time>2012-01-03T09:45:17Z</time>
      </trkpt>
      <trkpt lat="44.35048" lon="3.93911">
        <ele>631</ele>
        <time>2012-01-03T09:45:18Z</time>
      </trkpt>
      <trkpt lat="44.35049" lon="3.93909">
        <ele>631</ele>
        <time>2012-01-03T09:45:19Z</time>
      </trkpt>
      <trkpt lat="44.35049" lon="3.93906">
        <ele>631</ele>
        <time>2012-01-03T09:45:20Z</time>
      </trkpt>
      <trkpt lat="44.35052" lon="3.93902">
        <ele>631</ele>
        <time>2012-01-03T09:45:25Z</time>
      </trkpt>
      <trkpt lat="44.35058" lon="3.93895">
        <ele>631</ele>
        <time>2012-01-03T09:45:26Z</time>
      </trkpt>
      <trkpt lat="44.35059" lon="3.93893">
        <ele>631</ele>
        <time>2012-01-03T09:45:27Z</time>
      </trkpt>
      <trkpt lat="44.3506" lon="3.93891">
        <ele>631</ele>
        <time>2012-01-03T09:45:28Z</time>
      </trkpt>
      <trkpt lat="44.35063" lon="3.93888">
        <ele>631</ele>
        <time>2012-01-03T09:45:33Z</time>
      </trkpt>
      <trkpt lat="44.35071" lon="3.93878">
        <ele>631</ele>
        <time>2012-01-03T09:45:34Z</time>
      </trkpt>
      <trkpt lat="44.35072" lon="3.93876">
        <ele>631</ele>
        <time>2012-01-03T09:45:35Z</time>
      </trkpt>
      <trkpt lat="44.35073" lon="3.93872">
        <ele>631</ele>
        <time>2012-01-03T09:45:36Z</time>
      </trkpt>
      <trkpt lat="44.35075" lon="3.93866">
        <ele>631</ele>
        <time>2012-01-03T09:45:41Z</time>
      </trkpt>
      <trkpt lat="44.35078" lon="3.93854">
        <ele>630</ele>
        <time>2012-01-03T09:45:42Z</time>
      </trkpt>
      <trkpt lat="44.35078" lon="3.93852">
        <ele>629</ele>
        <time>2012-01-03T09:45:43Z</time>
      </trkpt>
      <trkpt lat="44.35078" lon="3.93847">
        <ele>629</ele>
        <time>2012-01-03T09:45:49Z</time>
      </trkpt>
      <trkpt lat="44.35074" lon="3.93834">
        <ele>629</ele>
        <time>2012-01-03T09:45:50Z</time>
      </trkpt>
      <trkpt lat="44.35074" lon="3.93832">
        <ele>629</ele>
        <time>2012-01-03T09:45:51Z</time>
      </trkpt>
      <trkpt lat="44.35073" lon="3.93829">
        <ele>629</ele>
        <time>2012-01-03T09:45:55Z</time>
      </trkpt>
      <trkpt lat="44.35072" lon="3.93821">
        <ele>629</ele>
        <time>2012-01-03T09:45:56Z</time>
      </trkpt>
      <trkpt lat="44.3507" lon="3.93819">
        <ele>629</ele>
        <time>2012-01-03T09:45:57Z</time>
      </trkpt>
      <trkpt lat="44.35069" lon="3.93817">
        <ele>629</ele>
        <time>2012-01-03T09:45:58Z</time>
      </trkpt>
      <trkpt lat="44.35067" lon="3.93816">
        <ele>629</ele>
        <time>2012-01-03T09:45:59Z</time>
      </trkpt>
      <trkpt lat="44.35064" lon="3.9381">
        <ele>629</ele>
        <time>2012-01-03T09:46:03Z</time>
      </trkpt>
      <trkpt lat="44.35059" lon="3.93804">
        <ele>630</ele>
        <time>2012-01-03T09:46:04Z</time>
      </trkpt>
      <trkpt lat="44.35058" lon="3.93802">
        <ele>630</ele>
        <time>2012-01-03T09:46:05Z</time>
      </trkpt>
      <trkpt lat="44.35056" lon="3.93798">
        <ele>631</ele>
        <time>2012-01-03T09:46:10Z</time>
      </trkpt>
      <trkpt lat="44.35053" lon="3.93791">
        <ele>632</ele>
        <time>2012-01-03T09:46:11Z</time>
      </trkpt>
      <trkpt lat="44.35052" lon="3.93789">
        <ele>633</ele>
        <time>2012-01-03T09:46:12Z</time>
      </trkpt>
      <trkpt lat="44.35052" lon="3.93787">
        <ele>634</ele>
        <time>2012-01-03T09:46:13Z</time>
      </trkpt>
      <trkpt lat="44.35054" lon="3.93782">
        <ele>636</ele>
        <time>2012-01-03T09:46:19Z</time>
      </trkpt>
      <trkpt lat="44.35058" lon="3.93774">
        <ele>637</ele>
        <time>2012-01-03T09:46:20Z</time>
      </trkpt>
      <trkpt lat="44.35059" lon="3.93774">
        <ele>638</ele>
        <time>2012-01-03T09:46:21Z</time>
      </trkpt>
      <trkpt lat="44.35061" lon="3.93773">
        <ele>639</ele>
        <time>2012-01-03T09:46:22Z</time>
      </trkpt>
      <trkpt lat="44.35064" lon="3.93772">
        <ele>640</ele>
        <time>2012-01-03T09:46:27Z</time>
      </trkpt>
      <trkpt lat="44.3507" lon="3.93771">
        <ele>640</ele>
        <time>2012-01-03T09:46:28Z</time>
      </trkpt>
      <trkpt lat="44.35072" lon="3.93771">
        <ele>640</ele>
        <time>2012-01-03T09:46:29Z</time>
      </trkpt>
      <trkpt lat="44.35075" lon="3.93771">
        <ele>641</ele>
        <time>2012-01-03T09:46:34Z</time>
      </trkpt>
      <trkpt lat="44.3508" lon="3.93772">
        <ele>641</ele>
        <time>2012-01-03T09:46:35Z</time>
      </trkpt>
      <trkpt lat="44.35082" lon="3.93772">
        <ele>642</ele>
        <time>2012-01-03T09:46:36Z</time>
      </trkpt>
      <trkpt lat="44.35092" lon="3.93777">
        <ele>643</ele>
        <time>2012-01-03T09:46:41Z</time>
      </trkpt>
      <trkpt lat="44.35094" lon="3.93778">
        <ele>644</ele>
        <time>2012-01-03T09:46:42Z</time>
      </trkpt>
      <trkpt lat="44.35096" lon="3.93778">
        <ele>644</ele>
        <time>2012-01-03T09:46:43Z</time>
      </trkpt>
      <trkpt lat="44.35099" lon="3.93779">
        <ele>644</ele>
        <time>2012-01-03T09:46:48Z</time>
      </trkpt>
      <trkpt lat="44.35106" lon="3.93781">
        <ele>644</ele>
        <time>2012-01-03T09:46:49Z</time>
      </trkpt>
      <trkpt lat="44.35109" lon="3.93782">
        <ele>644</ele>
        <time>2012-01-03T09:46:50Z</time>
      </trkpt>
      <trkpt lat="44.35112" lon="3.93782">
        <ele>644</ele>
        <time>2012-01-03T09:46:55Z</time>
      </trkpt>
      <trkpt lat="44.35119" lon="3.93785">
        <ele>644</ele>
        <time>2012-01-03T09:46:56Z</time>
      </trkpt>
      <trkpt lat="44.3512" lon="3.93785">
        <ele>644</ele>
        <time>2012-01-03T09:46:57Z</time>
      </trkpt>
      <trkpt lat="44.35123" lon="3.93786">
        <ele>644</ele>
        <time>2012-01-03T09:47:02Z</time>
      </trkpt>
      <trkpt lat="44.35129" lon="3.93789">
        <ele>644</ele>
        <time>2012-01-03T09:47:03Z</time>
      </trkpt>
      <trkpt lat="44.35131" lon="3.9379">
        <ele>644</ele>
        <time>2012-01-03T09:47:04Z</time>
      </trkpt>
      <trkpt lat="44.35136" lon="3.93793">
        <ele>644</ele>
        <time>2012-01-03T09:47:09Z</time>
      </trkpt>
      <trkpt lat="44.35144" lon="3.93797">
        <ele>644</ele>
        <time>2012-01-03T09:47:10Z</time>
      </trkpt>
      <trkpt lat="44.35146" lon="3.93798">
        <ele>645</ele>
        <time>2012-01-03T09:47:11Z</time>
      </trkpt>
      <trkpt lat="44.3515" lon="3.938">
        <ele>646</ele>
        <time>2012-01-03T09:47:16Z</time>
      </trkpt>
      <trkpt lat="44.3516" lon="3.93804">
        <ele>647</ele>
        <time>2012-01-03T09:47:17Z</time>
      </trkpt>
      <trkpt lat="44.35163" lon="3.93805">
        <ele>647</ele>
        <time>2012-01-03T09:47:18Z</time>
      </trkpt>
      <trkpt lat="44.35167" lon="3.93806">
        <ele>648</ele>
        <time>2012-01-03T09:47:23Z</time>
      </trkpt>
      <trkpt lat="44.35176" lon="3.93805">
        <ele>648</ele>
        <time>2012-01-03T09:47:24Z</time>
      </trkpt>
      <trkpt lat="44.3518" lon="3.93804">
        <ele>648</ele>
        <time>2012-01-03T09:47:27Z</time>
      </trkpt>
      <trkpt lat="44.35186" lon="3.93805">
        <ele>648</ele>
        <time>2012-01-03T09:47:30Z</time>
      </trkpt>
      <trkpt lat="44.35191" lon="3.93805">
        <ele>648</ele>
        <time>2012-01-03T09:47:36Z</time>
      </trkpt>
      <trkpt lat="44.35199" lon="3.93801">
        <ele>648</ele>
        <time>2012-01-03T09:47:36Z</time>
      </trkpt>
      <trkpt lat="44.35202" lon="3.93801">
        <ele>648</ele>
        <time>2012-01-03T09:47:37Z</time>
      </trkpt>
      <trkpt lat="44.35207" lon="3.938">
        <ele>648</ele>
        <time>2012-01-03T09:47:42Z</time>
      </trkpt>
      <trkpt lat="44.35214" lon="3.938">
        <ele>648</ele>
        <time>2012-01-03T09:47:43Z</time>
      </trkpt>
      <trkpt lat="44.35217" lon="3.938">
        <ele>648</ele>
        <time>2012-01-03T09:47:44Z</time>
      </trkpt>
      <trkpt lat="44.35222" lon="3.938">
        <ele>648</ele>
        <time>2012-01-03T09:47:49Z</time>
      </trkpt>
      <trkpt lat="44.35231" lon="3.93797">
        <ele>648</ele>
        <time>2012-01-03T09:47:50Z</time>
      </trkpt>
      <trkpt lat="44.35233" lon="3.93796">
        <ele>648</ele>
        <time>2012-01-03T09:47:51Z</time>
      </trkpt>
      <trkpt lat="44.35237" lon="3.93793">
        <ele>648</ele>
        <time>2012-01-03T09:47:56Z</time>
      </trkpt>
      <trkpt lat="44.35246" lon="3.93787">
        <ele>648</ele>
        <time>2012-01-03T09:47:57Z</time>
      </trkpt>
      <trkpt lat="44.35248" lon="3.93785">
        <ele>648</ele>
        <time>2012-01-03T09:47:58Z</time>
      </trkpt>
      <trkpt lat="44.35249" lon="3.93784">
        <ele>647</ele>
        <time>2012-01-03T09:47:59Z</time>
      </trkpt>
      <trkpt lat="44.35253" lon="3.93782">
        <ele>647</ele>
        <time>2012-01-03T09:48:04Z</time>
      </trkpt>
      <trkpt lat="44.35262" lon="3.93777">
        <ele>647</ele>
        <time>2012-01-03T09:48:05Z</time>
      </trkpt>
      <trkpt lat="44.35264" lon="3.93776">
        <ele>646</ele>
        <time>2012-01-03T09:48:06Z</time>
      </trkpt>
      <trkpt lat="44.35266" lon="3.93775">
        <ele>646</ele>
        <time>2012-01-03T09:48:07Z</time>
      </trkpt>
      <trkpt lat="44.3527" lon="3.93774">
        <ele>646</ele>
        <time>2012-01-03T09:48:12Z</time>
      </trkpt>
      <trkpt lat="44.35278" lon="3.93772">
        <ele>646</ele>
        <time>2012-01-03T09:48:13Z</time>
      </trkpt>
      <trkpt lat="44.35281" lon="3.93771">
        <ele>646</ele>
        <time>2012-01-03T09:48:14Z</time>
      </trkpt>
      <trkpt lat="44.35286" lon="3.93769">
        <ele>646</ele>
        <time>2012-01-03T09:48:18Z</time>
      </trkpt>
      <trkpt lat="44.35292" lon="3.93767">
        <ele>646</ele>
        <time>2012-01-03T09:48:19Z</time>
      </trkpt>
      <trkpt lat="44.35294" lon="3.93766">
        <ele>646</ele>
        <time>2012-01-03T09:48:20Z</time>
      </trkpt>
      <trkpt lat="44.353" lon="3.93765">
        <ele>646</ele>
        <time>2012-01-03T09:48:24Z</time>
      </trkpt>
      <trkpt lat="44.35306" lon="3.93762">
        <ele>646</ele>
        <time>2012-01-03T09:48:25Z</time>
      </trkpt>
      <trkpt lat="44.35307" lon="3.93762">
        <ele>647</ele>
        <time>2012-01-03T09:48:30Z</time>
      </trkpt>
      <trkpt lat="44.35308" lon="3.93761">
        <ele>648</ele>
        <time>2012-01-03T09:48:31Z</time>
      </trkpt>
      <trkpt lat="44.35309" lon="3.93765">
        <ele>649</ele>
        <time>2012-01-03T09:48:33Z</time>
      </trkpt>
      <trkpt lat="44.35307" lon="3.93766">
        <ele>650</ele>
        <time>2012-01-03T09:48:38Z</time>
      </trkpt>
      <trkpt lat="44.35307" lon="3.93768">
        <ele>651</ele>
        <time>2012-01-03T09:48:38Z</time>
      </trkpt>
      <trkpt lat="44.35309" lon="3.93767">
        <ele>654</ele>
        <time>2012-01-03T09:48:44Z</time>
      </trkpt>
      <trkpt lat="44.3531" lon="3.93768">
        <ele>657</ele>
        <time>2012-01-03T09:48:59Z</time>
      </trkpt>
      <trkpt lat="44.35311" lon="3.93768">
        <ele>657</ele>
        <time>2012-01-03T09:49:07Z</time>
      </trkpt>
      <trkpt lat="44.35313" lon="3.93768">
        <ele>654</ele>
        <time>2012-01-03T09:49:14Z</time>
      </trkpt>
      <trkpt lat="44.35312" lon="3.93766">
        <ele>652</ele>
        <time>2012-01-03T09:49:21Z</time>
      </trkpt>
      <trkpt lat="44.35312" lon="3.93765">
        <ele>651</ele>
        <time>2012-01-03T09:49:30Z</time>
      </trkpt>
      <trkpt lat="44.3531" lon="3.93764">
        <ele>651</ele>
        <time>2012-01-03T09:49:52Z</time>
      </trkpt>
      <trkpt lat="44.35312" lon="3.93766">
        <ele>655</ele>
        <time>2012-01-03T09:50:25Z</time>
      </trkpt>
      <trkpt lat="44.35313" lon="3.93768">
        <ele>658</ele>
        <time>2012-01-03T09:50:32Z</time>
      </trkpt>
      <trkpt lat="44.35313" lon="3.9377">
        <ele>664</ele>
        <time>2012-01-03T09:50:45Z</time>
      </trkpt>
      <trkpt lat="44.35315" lon="3.93769">
        <ele>664</ele>
        <time>2012-01-03T09:50:48Z</time>
      </trkpt>
      <trkpt lat="44.35319" lon="3.93767">
        <ele>664</ele>
        <time>2012-01-03T09:50:54Z</time>
      </trkpt>
      <trkpt lat="44.3532" lon="3.93766">
        <ele>664</ele>
        <time>2012-01-03T09:50:55Z</time>
      </trkpt>
      <trkpt lat="44.35322" lon="3.93764">
        <ele>664</ele>
        <time>2012-01-03T09:50:56Z</time>
      </trkpt>
      <trkpt lat="44.35323" lon="3.93763">
        <ele>664</ele>
        <time>2012-01-03T09:50:57Z</time>
      </trkpt>
      <trkpt lat="44.35325" lon="3.93761">
        <ele>664</ele>
        <time>2012-01-03T09:50:58Z</time>
      </trkpt>
      <trkpt lat="44.35327" lon="3.9376">
        <ele>664</ele>
        <time>2012-01-03T09:50:59Z</time>
      </trkpt>
      <trkpt lat="44.35329" lon="3.93758">
        <ele>664</ele>
        <time>2012-01-03T09:51:00Z</time>
      </trkpt>
      <trkpt lat="44.3533" lon="3.93757">
        <ele>664</ele>
        <time>2012-01-03T09:51:01Z</time>
      </trkpt>
      <trkpt lat="44.35332" lon="3.93756">
        <ele>664</ele>
        <time>2012-01-03T09:51:02Z</time>
      </trkpt>
      <trkpt lat="44.35334" lon="3.93754">
        <ele>664</ele>
        <time>2012-01-03T09:51:03Z</time>
      </trkpt>
      <trkpt lat="44.35336" lon="3.93752">
        <ele>664</ele>
        <time>2012-01-03T09:51:04Z</time>
      </trkpt>
      <trkpt lat="44.35337" lon="3.93751">
        <ele>664</ele>
        <time>2012-01-03T09:51:05Z</time>
      </trkpt>
      <trkpt lat="44.35339" lon="3.93749">
        <ele>664</ele>
        <time>2012-01-03T09:51:06Z</time>
      </trkpt>
      <trkpt lat="44.35341" lon="3.93748">
        <ele>664</ele>
        <time>2012-01-03T09:51:07Z</time>
      </trkpt>
      <trkpt lat="44.35344" lon="3.93746">
        <ele>664</ele>
        <time>2012-01-03T09:51:08Z</time>
      </trkpt>
      <trkpt lat="44.35346" lon="3.93744">
        <ele>664</ele>
        <time>2012-01-03T09:51:09Z</time>
      </trkpt>
      <trkpt lat="44.35348" lon="3.93743">
        <ele>664</ele>
        <time>2012-01-03T09:51:10Z</time>
      </trkpt>
      <trkpt lat="44.3535" lon="3.93741">
        <ele>664</ele>
        <time>2012-01-03T09:51:11Z</time>
      </trkpt>
      <trkpt lat="44.35352" lon="3.93739">
        <ele>663</ele>
        <time>2012-01-03T09:51:12Z</time>
      </trkpt>
      <trkpt lat="44.35354" lon="3.93737">
        <ele>663</ele>
        <time>2012-01-03T09:51:13Z</time>
      </trkpt>
      <trkpt lat="44.35356" lon="3.93735">
        <ele>662</ele>
        <time>2012-01-03T09:51:14Z</time>
      </trkpt>
      <trkpt lat="44.35358" lon="3.93733">
        <ele>662</ele>
        <time>2012-01-03T09:51:15Z</time>
      </trkpt>
      <trkpt lat="44.35361" lon="3.93731">
        <ele>661</ele>
        <time>2012-01-03T09:51:16Z</time>
      </trkpt>
      <trkpt lat="44.35363" lon="3.9373">
        <ele>661</ele>
        <time>2012-01-03T09:51:17Z</time>
      </trkpt>
      <trkpt lat="44.35365" lon="3.93728">
        <ele>661</ele>
        <time>2012-01-03T09:51:18Z</time>
      </trkpt>
      <trkpt lat="44.35367" lon="3.93726">
        <ele>661</ele>
        <time>2012-01-03T09:51:19Z</time>
      </trkpt>
      <trkpt lat="44.35369" lon="3.93723">
        <ele>660</ele>
        <time>2012-01-03T09:51:20Z</time>
      </trkpt>
      <trkpt lat="44.35371" lon="3.93721">
        <ele>660</ele>
        <time>2012-01-03T09:51:21Z</time>
      </trkpt>
      <trkpt lat="44.35373" lon="3.93719">
        <ele>660</ele>
        <time>2012-01-03T09:51:22Z</time>
      </trkpt>
      <trkpt lat="44.35375" lon="3.93714">
        <ele>659</ele>
        <time>2012-01-03T09:51:23Z</time>
      </trkpt>
      <trkpt lat="44.35377" lon="3.93712">
        <ele>659</ele>
        <time>2012-01-03T09:51:24Z</time>
      </trkpt>
      <trkpt lat="44.35378" lon="3.9371">
        <ele>658</ele>
        <time>2012-01-03T09:51:25Z</time>
      </trkpt>
      <trkpt lat="44.35379" lon="3.93707">
        <ele>658</ele>
        <time>2012-01-03T09:51:26Z</time>
      </trkpt>
      <trkpt lat="44.35381" lon="3.93705">
        <ele>658</ele>
        <time>2012-01-03T09:51:27Z</time>
      </trkpt>
      <trkpt lat="44.35383" lon="3.93702">
        <ele>658</ele>
        <time>2012-01-03T09:51:28Z</time>
      </trkpt>
      <trkpt lat="44.35385" lon="3.93701">
        <ele>658</ele>
        <time>2012-01-03T09:51:29Z</time>
      </trkpt>
      <trkpt lat="44.35387" lon="3.93698">
        <ele>658</ele>
        <time>2012-01-03T09:51:30Z</time>
      </trkpt>
      <trkpt lat="44.35388" lon="3.93695">
        <ele>658</ele>
        <time>2012-01-03T09:51:31Z</time>
      </trkpt>
      <trkpt lat="44.35389" lon="3.93693">
        <ele>658</ele>
        <time>2012-01-03T09:51:32Z</time>
      </trkpt>
      <trkpt lat="44.35391" lon="3.93689">
        <ele>658</ele>
        <time>2012-01-03T09:51:33Z</time>
      </trkpt>
      <trkpt lat="44.35393" lon="3.93686">
        <ele>658</ele>
        <time>2012-01-03T09:51:34Z</time>
      </trkpt>
      <trkpt lat="44.35394" lon="3.93683">
        <ele>658</ele>
        <time>2012-01-03T09:51:35Z</time>
      </trkpt>
      <trkpt lat="44.35395" lon="3.9368">
        <ele>658</ele>
        <time>2012-01-03T09:51:36Z</time>
      </trkpt>
      <trkpt lat="44.35397" lon="3.93677">
        <ele>658</ele>
        <time>2012-01-03T09:51:37Z</time>
      </trkpt>
      <trkpt lat="44.35399" lon="3.93674">
        <ele>658</ele>
        <time>2012-01-03T09:51:38Z</time>
      </trkpt>
      <trkpt lat="44.35401" lon="3.93671">
        <ele>658</ele>
        <time>2012-01-03T09:51:39Z</time>
      </trkpt>
      <trkpt lat="44.35403" lon="3.93668">
        <ele>658</ele>
        <time>2012-01-03T09:51:40Z</time>
      </trkpt>
      <trkpt lat="44.35405" lon="3.93666">
        <ele>658</ele>
        <time>2012-01-03T09:51:41Z</time>
      </trkpt>
      <trkpt lat="44.35407" lon="3.93664">
        <ele>658</ele>
        <time>2012-01-03T09:51:42Z</time>
      </trkpt>
      <trkpt lat="44.35409" lon="3.93661">
        <ele>658</ele>
        <time>2012-01-03T09:51:43Z</time>
      </trkpt>
      <trkpt lat="44.35411" lon="3.93659">
        <ele>658</ele>
        <time>2012-01-03T09:51:44Z</time>
      </trkpt>
      <trkpt lat="44.35413" lon="3.93656">
        <ele>658</ele>
        <time>2012-01-03T09:51:45Z</time>
      </trkpt>
      <trkpt lat="44.35414" lon="3.93651">
        <ele>658</ele>
        <time>2012-01-03T09:51:46Z</time>
      </trkpt>
      <trkpt lat="44.35415" lon="3.93647">
        <ele>658</ele>
        <time>2012-01-03T09:51:47Z</time>
      </trkpt>
      <trkpt lat="44.35417" lon="3.93642">
        <ele>658</ele>
        <time>2012-01-03T09:51:48Z</time>
      </trkpt>
      <trkpt lat="44.35418" lon="3.93637">
        <ele>658</ele>
        <time>2012-01-03T09:51:49Z</time>
      </trkpt>
      <trkpt lat="44.35419" lon="3.93633">
        <ele>657</ele>
        <time>2012-01-03T09:51:50Z</time>
      </trkpt>
      <trkpt lat="44.3542" lon="3.93629">
        <ele>656</ele>
        <time>2012-01-03T09:51:51Z</time>
      </trkpt>
      <trkpt lat="44.35421" lon="3.93625">
        <ele>656</ele>
        <time>2012-01-03T09:51:52Z</time>
      </trkpt>
      <trkpt lat="44.35421" lon="3.93621">
        <ele>655</ele>
        <time>2012-01-03T09:51:53Z</time>
      </trkpt>
      <trkpt lat="44.35421" lon="3.93617">
        <ele>655</ele>
        <time>2012-01-03T09:51:54Z</time>
      </trkpt>
      <trkpt lat="44.35421" lon="3.93613">
        <ele>655</ele>
        <time>2012-01-03T09:51:55Z</time>
      </trkpt>
      <trkpt lat="44.35421" lon="3.93609">
        <ele>655</ele>
        <time>2012-01-03T09:51:56Z</time>
      </trkpt>
      <trkpt lat="44.35421" lon="3.93604">
        <ele>655</ele>
        <time>2012-01-03T09:51:57Z</time>
      </trkpt>
      <trkpt lat="44.3542" lon="3.93601">
        <ele>655</ele>
        <time>2012-01-03T09:51:58Z</time>
      </trkpt>
      <trkpt lat="44.35419" lon="3.93597">
        <ele>654</ele>
        <time>2012-01-03T09:51:59Z</time>
      </trkpt>
      <trkpt lat="44.35418" lon="3.93595">
        <ele>654</ele>
        <time>2012-01-03T09:52:00Z</time>
      </trkpt>
      <trkpt lat="44.35418" lon="3.93592">
        <ele>654</ele>
        <time>2012-01-03T09:52:01Z</time>
      </trkpt>
      <trkpt lat="44.35417" lon="3.93589">
        <ele>654</ele>
        <time>2012-01-03T09:52:02Z</time>
      </trkpt>
      <trkpt lat="44.35414" lon="3.93581">
        <ele>654</ele>
        <time>2012-01-03T09:52:04Z</time>
      </trkpt>
      <trkpt lat="44.35413" lon="3.93578">
        <ele>654</ele>
        <time>2012-01-03T09:52:05Z</time>
      </trkpt>
      <trkpt lat="44.35411" lon="3.93574">
        <ele>654</ele>
        <time>2012-01-03T09:52:06Z</time>
      </trkpt>
      <trkpt lat="44.3541" lon="3.93571">
        <ele>654</ele>
        <time>2012-01-03T09:52:07Z</time>
      </trkpt>
      <trkpt lat="44.35409" lon="3.93567">
        <ele>654</ele>
        <time>2012-01-03T09:52:08Z</time>
      </trkpt>
      <trkpt lat="44.35408" lon="3.93564">
        <ele>654</ele>
        <time>2012-01-03T09:52:09Z</time>
      </trkpt>
      <trkpt lat="44.35406" lon="3.93561">
        <ele>654</ele>
        <time>2012-01-03T09:52:10Z</time>
      </trkpt>
      <trkpt lat="44.35403" lon="3.93557">
        <ele>654</ele>
        <time>2012-01-03T09:52:11Z</time>
      </trkpt>
      <trkpt lat="44.35401" lon="3.93553">
        <ele>654</ele>
        <time>2012-01-03T09:52:12Z</time>
      </trkpt>
      <trkpt lat="44.35399" lon="3.9355">
        <ele>654</ele>
        <time>2012-01-03T09:52:13Z</time>
      </trkpt>
      <trkpt lat="44.35398" lon="3.93547">
        <ele>653</ele>
        <time>2012-01-03T09:52:14Z</time>
      </trkpt>
      <trkpt lat="44.35396" lon="3.93543">
        <ele>652</ele>
        <time>2012-01-03T09:52:15Z</time>
      </trkpt>
      <trkpt lat="44.35396" lon="3.9354">
        <ele>652</ele>
        <time>2012-01-03T09:52:16Z</time>
      </trkpt>
      <trkpt lat="44.35395" lon="3.93536">
        <ele>652</ele>
        <time>2012-01-03T09:52:17Z</time>
      </trkpt>
      <trkpt lat="44.35394" lon="3.93531">
        <ele>652</ele>
        <time>2012-01-03T09:52:18Z</time>
      </trkpt>
      <trkpt lat="44.35392" lon="3.93527">
        <ele>652</ele>
        <time>2012-01-03T09:52:19Z</time>
      </trkpt>
      <trkpt lat="44.35391" lon="3.93522">
        <ele>652</ele>
        <time>2012-01-03T09:52:20Z</time>
      </trkpt>
      <trkpt lat="44.35391" lon="3.93517">
        <ele>652</ele>
        <time>2012-01-03T09:52:21Z</time>
      </trkpt>
      <trkpt lat="44.35391" lon="3.93512">
        <ele>652</ele>
        <time>2012-01-03T09:52:22Z</time>
      </trkpt>
      <trkpt lat="44.3539" lon="3.93508">
        <ele>652</ele>
        <time>2012-01-03T09:52:23Z</time>
      </trkpt>
      <trkpt lat="44.3539" lon="3.93505">
        <ele>653</ele>
        <time>2012-01-03T09:52:24Z</time>
      </trkpt>
      <trkpt lat="44.35389" lon="3.93501">
        <ele>654</ele>
        <time>2012-01-03T09:52:25Z</time>
      </trkpt>
      <trkpt lat="44.35389" lon="3.93497">
        <ele>655</ele>
        <time>2012-01-03T09:52:26Z</time>
      </trkpt>
      <trkpt lat="44.3539" lon="3.93492">
        <ele>656</ele>
        <time>2012-01-03T09:52:27Z</time>
      </trkpt>
      <trkpt lat="44.35389" lon="3.93487">
        <ele>657</ele>
        <time>2012-01-03T09:52:28Z</time>
      </trkpt>
      <trkpt lat="44.35388" lon="3.93483">
        <ele>658</ele>
        <time>2012-01-03T09:52:29Z</time>
      </trkpt>
      <trkpt lat="44.35387" lon="3.93479">
        <ele>659</ele>
        <time>2012-01-03T09:52:30Z</time>
      </trkpt>
      <trkpt lat="44.35386" lon="3.93475">
        <ele>660</ele>
        <time>2012-01-03T09:52:31Z</time>
      </trkpt>
      <trkpt lat="44.35386" lon="3.93471">
        <ele>661</ele>
        <time>2012-01-03T09:52:32Z</time>
      </trkpt>
      <trkpt lat="44.35385" lon="3.93466">
        <ele>662</ele>
        <time>2012-01-03T09:52:33Z</time>
      </trkpt>
      <trkpt lat="44.35385" lon="3.93462">
        <ele>663</ele>
        <time>2012-01-03T09:52:34Z</time>
      </trkpt>
      <trkpt lat="44.35385" lon="3.93459">
        <ele>664</ele>
        <time>2012-01-03T09:52:35Z</time>
      </trkpt>
      <trkpt lat="44.35385" lon="3.93455">
        <ele>665</ele>
        <time>2012-01-03T09:52:36Z</time>
      </trkpt>
      <trkpt lat="44.35385" lon="3.9345">
        <ele>666</ele>
        <time>2012-01-03T09:52:37Z</time>
      </trkpt>
      <trkpt lat="44.35385" lon="3.93447">
        <ele>667</ele>
        <time>2012-01-03T09:52:38Z</time>
      </trkpt>
      <trkpt lat="44.35385" lon="3.93442">
        <ele>668</ele>
        <time>2012-01-03T09:52:39Z</time>
      </trkpt>
      <trkpt lat="44.35384" lon="3.93438">
        <ele>669</ele>
        <time>2012-01-03T09:52:40Z</time>
      </trkpt>
      <trkpt lat="44.35384" lon="3.93434">
        <ele>669</ele>
        <time>2012-01-03T09:52:41Z</time>
      </trkpt>
      <trkpt lat="44.35383" lon="3.9343">
        <ele>669</ele>
        <time>2012-01-03T09:52:42Z</time>
      </trkpt>
      <trkpt lat="44.35383" lon="3.93426">
        <ele>669</ele>
        <time>2012-01-03T09:52:43Z</time>
      </trkpt>
      <trkpt lat="44.35383" lon="3.93418">
        <ele>669</ele>
        <time>2012-01-03T09:52:45Z</time>
      </trkpt>
      <trkpt lat="44.35384" lon="3.93414">
        <ele>669</ele>
        <time>2012-01-03T09:52:46Z</time>
      </trkpt>
      <trkpt lat="44.35385" lon="3.9341">
        <ele>669</ele>
        <time>2012-01-03T09:52:47Z</time>
      </trkpt>
      <trkpt lat="44.35385" lon="3.93407">
        <ele>670</ele>
        <time>2012-01-03T09:52:48Z</time>
      </trkpt>
      <trkpt lat="44.35386" lon="3.93403">
        <ele>671</ele>
        <time>2012-01-03T09:52:49Z</time>
      </trkpt>
      <trkpt lat="44.35385" lon="3.93399">
        <ele>671</ele>
        <time>2012-01-03T09:52:50Z</time>
      </trkpt>
      <trkpt lat="44.35385" lon="3.93395">
        <ele>672</ele>
        <time>2012-01-03T09:52:51Z</time>
      </trkpt>
      <trkpt lat="44.35385" lon="3.93391">
        <ele>672</ele>
        <time>2012-01-03T09:52:52Z</time>
      </trkpt>
      <trkpt lat="44.35386" lon="3.93388">
        <ele>673</ele>
        <time>2012-01-03T09:52:53Z</time>
      </trkpt>
      <trkpt lat="44.35386" lon="3.93384">
        <ele>673</ele>
        <time>2012-01-03T09:52:54Z</time>
      </trkpt>
      <trkpt lat="44.35386" lon="3.93381">
        <ele>673</ele>
        <time>2012-01-03T09:52:55Z</time>
      </trkpt>
      <trkpt lat="44.35386" lon="3.93377">
        <ele>673</ele>
        <time>2012-01-03T09:52:56Z</time>
      </trkpt>
      <trkpt lat="44.35385" lon="3.93373">
        <ele>673</ele>
        <time>2012-01-03T09:52:57Z</time>
      </trkpt>
      <trkpt lat="44.35383" lon="3.9337">
        <ele>673</ele>
        <time>2012-01-03T09:52:58Z</time>
      </trkpt>
      <trkpt lat="44.35382" lon="3.93366">
        <ele>673</ele>
        <time>2012-01-03T09:52:59Z</time>
      </trkpt>
      <trkpt lat="44.3538" lon="3.93363">
        <ele>673</ele>
        <time>2012-01-03T09:53:00Z</time>
      </trkpt>
      <trkpt lat="44.35375" lon="3.93361">
        <ele>673</ele>
        <time>2012-01-03T09:53:02Z</time>
      </trkpt>
      <trkpt lat="44.35373" lon="3.93362">
        <ele>673</ele>
        <time>2012-01-03T09:53:03Z</time>
      </trkpt>
      <trkpt lat="44.3537" lon="3.93369">
        <ele>673</ele>
        <time>2012-01-03T09:53:05Z</time>
      </trkpt>
      <trkpt lat="44.35369" lon="3.93372">
        <ele>673</ele>
        <time>2012-01-03T09:53:06Z</time>
      </trkpt>
      <trkpt lat="44.35368" lon="3.93375">
        <ele>673</ele>
        <time>2012-01-03T09:53:07Z</time>
      </trkpt>
      <trkpt lat="44.35368" lon="3.93378">
        <ele>673</ele>
        <time>2012-01-03T09:53:08Z</time>
      </trkpt>
      <trkpt lat="44.35367" lon="3.93381">
        <ele>673</ele>
        <time>2012-01-03T09:53:09Z</time>
      </trkpt>
      <trkpt lat="44.35368" lon="3.93384">
        <ele>673</ele>
        <time>2012-01-03T09:53:10Z</time>
      </trkpt>
      <trkpt lat="44.35368" lon="3.93387">
        <ele>673</ele>
        <time>2012-01-03T09:53:11Z</time>
      </trkpt>
      <trkpt lat="44.35368" lon="3.93391">
        <ele>673</ele>
        <time>2012-01-03T09:53:12Z</time>
      </trkpt>
      <trkpt lat="44.35368" lon="3.93395">
        <ele>674</ele>
        <time>2012-01-03T09:53:13Z</time>
      </trkpt>
      <trkpt lat="44.35367" lon="3.93399">
        <ele>674</ele>
        <time>2012-01-03T09:53:14Z</time>
      </trkpt>
      <trkpt lat="44.35367" lon="3.93403">
        <ele>674</ele>
        <time>2012-01-03T09:53:15Z</time>
      </trkpt>
      <trkpt lat="44.35368" lon="3.93407">
        <ele>674</ele>
        <time>2012-01-03T09:53:16Z</time>
      </trkpt>
      <trkpt lat="44.35368" lon="3.9341">
        <ele>674</ele>
        <time>2012-01-03T09:53:17Z</time>
      </trkpt>
      <trkpt lat="44.35368" lon="3.93414">
        <ele>674</ele>
        <time>2012-01-03T09:53:18Z</time>
      </trkpt>
      <trkpt lat="44.35368" lon="3.93417">
        <ele>674</ele>
        <time>2012-01-03T09:53:19Z</time>
      </trkpt>
      <trkpt lat="44.35368" lon="3.93421">
        <ele>674</ele>
        <time>2012-01-03T09:53:20Z</time>
      </trkpt>
      <trkpt lat="44.35367" lon="3.93425">
        <ele>674</ele>
        <time>2012-01-03T09:53:21Z</time>
      </trkpt>
      <trkpt lat="44.35367" lon="3.93428">
        <ele>674</ele>
        <time>2012-01-03T09:53:22Z</time>
      </trkpt>
      <trkpt lat="44.35367" lon="3.93431">
        <ele>674</ele>
        <time>2012-01-03T09:53:23Z</time>
      </trkpt>
      <trkpt lat="44.35366" lon="3.93435">
        <ele>674</ele>
        <time>2012-01-03T09:53:24Z</time>
      </trkpt>
      <trkpt lat="44.35366" lon="3.93438">
        <ele>674</ele>
        <time>2012-01-03T09:53:25Z</time>
      </trkpt>
      <trkpt lat="44.35366" lon="3.93441">
        <ele>674</ele>
        <time>2012-01-03T09:53:26Z</time>
      </trkpt>
      <trkpt lat="44.35366" lon="3.93444">
        <ele>675</ele>
        <time>2012-01-03T09:53:27Z</time>
      </trkpt>
      <trkpt lat="44.35366" lon="3.93448">
        <ele>675</ele>
        <time>2012-01-03T09:53:28Z</time>
      </trkpt>
      <trkpt lat="44.35366" lon="3.93451">
        <ele>675</ele>
        <time>2012-01-03T09:53:29Z</time>
      </trkpt>
      <trkpt lat="44.35366" lon="3.93455">
        <ele>676</ele>
        <time>2012-01-03T09:53:30Z</time>
      </trkpt>
      <trkpt lat="44.35366" lon="3.93458">
        <ele>676</ele>
        <time>2012-01-03T09:53:31Z</time>
      </trkpt>
      <trkpt lat="44.35367" lon="3.93462">
        <ele>677</ele>
        <time>2012-01-03T09:53:32Z</time>
      </trkpt>
      <trkpt lat="44.35367" lon="3.93465">
        <ele>677</ele>
        <time>2012-01-03T09:53:33Z</time>
      </trkpt>
      <trkpt lat="44.35368" lon="3.93468">
        <ele>677</ele>
        <time>2012-01-03T09:53:34Z</time>
      </trkpt>
      <trkpt lat="44.35368" lon="3.93472">
        <ele>678</ele>
        <time>2012-01-03T09:53:35Z</time>
      </trkpt>
      <trkpt lat="44.35369" lon="3.93475">
        <ele>678</ele>
        <time>2012-01-03T09:53:36Z</time>
      </trkpt>
      <trkpt lat="44.35369" lon="3.93478">
        <ele>678</ele>
        <time>2012-01-03T09:53:37Z</time>
      </trkpt>
      <trkpt lat="44.3537" lon="3.93481">
        <ele>678</ele>
        <time>2012-01-03T09:53:38Z</time>
      </trkpt>
      <trkpt lat="44.3537" lon="3.93484">
        <ele>678</ele>
        <time>2012-01-03T09:53:39Z</time>
      </trkpt>
      <trkpt lat="44.3537" lon="3.93488">
        <ele>679</ele>
        <time>2012-01-03T09:53:40Z</time>
      </trkpt>
      <trkpt lat="44.3537" lon="3.93491">
        <ele>679</ele>
        <time>2012-01-03T09:53:41Z</time>
      </trkpt>
      <trkpt lat="44.3537" lon="3.93495">
        <ele>679</ele>
        <time>2012-01-03T09:53:42Z</time>
      </trkpt>
      <trkpt lat="44.3537" lon="3.93498">
        <ele>680</ele>
        <time>2012-01-03T09:53:43Z</time>
      </trkpt>
      <trkpt lat="44.3537" lon="3.93502">
        <ele>680</ele>
        <time>2012-01-03T09:53:44Z</time>
      </trkpt>
      <trkpt lat="44.3537" lon="3.93506">
        <ele>680</ele>
        <time>2012-01-03T09:53:45Z</time>
      </trkpt>
      <trkpt lat="44.3537" lon="3.93509">
        <ele>681</ele>
        <time>2012-01-03T09:53:46Z</time>
      </trkpt>
      <trkpt lat="44.3537" lon="3.93513">
        <ele>681</ele>
        <time>2012-01-03T09:53:47Z</time>
      </trkpt>
      <trkpt lat="44.35372" lon="3.93516">
        <ele>682</ele>
        <time>2012-01-03T09:53:48Z</time>
      </trkpt>
      <trkpt lat="44.35372" lon="3.9352">
        <ele>682</ele>
        <time>2012-01-03T09:53:49Z</time>
      </trkpt>
      <trkpt lat="44.35372" lon="3.93524">
        <ele>683</ele>
        <time>2012-01-03T09:53:50Z</time>
      </trkpt>
      <trkpt lat="44.35372" lon="3.93528">
        <ele>684</ele>
        <time>2012-01-03T09:53:51Z</time>
      </trkpt>
      <trkpt lat="44.35373" lon="3.93532">
        <ele>684</ele>
        <time>2012-01-03T09:53:52Z</time>
      </trkpt>
      <trkpt lat="44.35373" lon="3.93534">
        <ele>685</ele>
        <time>2012-01-03T09:53:53Z</time>
      </trkpt>
      <trkpt lat="44.35374" lon="3.93538">
        <ele>685</ele>
        <time>2012-01-03T09:53:54Z</time>
      </trkpt>
      <trkpt lat="44.35375" lon="3.93542">
        <ele>685</ele>
        <time>2012-01-03T09:53:55Z</time>
      </trkpt>
      <trkpt lat="44.35375" lon="3.93546">
        <ele>685</ele>
        <time>2012-01-03T09:53:56Z</time>
      </trkpt>
      <trkpt lat="44.35376" lon="3.9355">
        <ele>685</ele>
        <time>2012-01-03T09:53:57Z</time>
      </trkpt>
      <trkpt lat="44.35377" lon="3.93554">
        <ele>685</ele>
        <time>2012-01-03T09:53:58Z</time>
      </trkpt>
      <trkpt lat="44.35378" lon="3.93558">
        <ele>685</ele>
        <time>2012-01-03T09:53:59Z</time>
      </trkpt>
      <trkpt lat="44.35379" lon="3.93563">
        <ele>685</ele>
        <time>2012-01-03T09:54:00Z</time>
      </trkpt>
      <trkpt lat="44.3538" lon="3.93567">
        <ele>685</ele>
        <time>2012-01-03T09:54:01Z</time>
      </trkpt>
      <trkpt lat="44.3538" lon="3.93571">
        <ele>685</ele>
        <time>2012-01-03T09:54:02Z</time>
      </trkpt>
      <trkpt lat="44.35381" lon="3.93575">
        <ele>685</ele>
        <time>2012-01-03T09:54:03Z</time>
      </trkpt>
      <trkpt lat="44.35381" lon="3.93579">
        <ele>685</ele>
        <time>2012-01-03T09:54:04Z</time>
      </trkpt>
      <trkpt lat="44.35382" lon="3.93584">
        <ele>686</ele>
        <time>2012-01-03T09:54:05Z</time>
      </trkpt>
      <trkpt lat="44.35381" lon="3.93588">
        <ele>686</ele>
        <time>2012-01-03T09:54:06Z</time>
      </trkpt>
      <trkpt lat="44.35381" lon="3.93592">
        <ele>686</ele>
        <time>2012-01-03T09:54:07Z</time>
      </trkpt>
      <trkpt lat="44.35381" lon="3.93596">
        <ele>686</ele>
        <time>2012-01-03T09:54:08Z</time>
      </trkpt>
      <trkpt lat="44.3538" lon="3.936">
        <ele>687</ele>
        <time>2012-01-03T09:54:09Z</time>
      </trkpt>
      <trkpt lat="44.35379" lon="3.93603">
        <ele>687</ele>
        <time>2012-01-03T09:54:10Z</time>
      </trkpt>
      <trkpt lat="44.35378" lon="3.93607">
        <ele>688</ele>
        <time>2012-01-03T09:54:11Z</time>
      </trkpt>
      <trkpt lat="44.35377" lon="3.93611">
        <ele>688</ele>
        <time>2012-01-03T09:54:12Z</time>
      </trkpt>
      <trkpt lat="44.35376" lon="3.93615">
        <ele>689</ele>
        <time>2012-01-03T09:54:13Z</time>
      </trkpt>
      <trkpt lat="44.35375" lon="3.93619">
        <ele>690</ele>
        <time>2012-01-03T09:54:14Z</time>
      </trkpt>
      <trkpt lat="44.35374" lon="3.93624">
        <ele>691</ele>
        <time>2012-01-03T09:54:15Z</time>
      </trkpt>
      <trkpt lat="44.35372" lon="3.93629">
        <ele>691</ele>
        <time>2012-01-03T09:54:16Z</time>
      </trkpt>
      <trkpt lat="44.35371" lon="3.93633">
        <ele>692</ele>
        <time>2012-01-03T09:54:17Z</time>
      </trkpt>
      <trkpt lat="44.35368" lon="3.93636">
        <ele>693</ele>
        <time>2012-01-03T09:54:18Z</time>
      </trkpt>
      <trkpt lat="44.35366" lon="3.93639">
        <ele>693</ele>
        <time>2012-01-03T09:54:19Z</time>
      </trkpt>
      <trkpt lat="44.35365" lon="3.93642">
        <ele>694</ele>
        <time>2012-01-03T09:54:20Z</time>
      </trkpt>
      <trkpt lat="44.35362" lon="3.93644">
        <ele>694</ele>
        <time>2012-01-03T09:54:21Z</time>
      </trkpt>
      <trkpt lat="44.3536" lon="3.93647">
        <ele>694</ele>
        <time>2012-01-03T09:54:22Z</time>
      </trkpt>
      <trkpt lat="44.35357" lon="3.93649">
        <ele>694</ele>
        <time>2012-01-03T09:54:23Z</time>
      </trkpt>
      <trkpt lat="44.35354" lon="3.9365">
        <ele>695</ele>
        <time>2012-01-03T09:54:24Z</time>
      </trkpt>
      <trkpt lat="44.35351" lon="3.93651">
        <ele>695</ele>
        <time>2012-01-03T09:54:25Z</time>
      </trkpt>
      <trkpt lat="44.35349" lon="3.93653">
        <ele>695</ele>
        <time>2012-01-03T09:54:26Z</time>
      </trkpt>
      <trkpt lat="44.35347" lon="3.93655">
        <ele>695</ele>
        <time>2012-01-03T09:54:27Z</time>
      </trkpt>
      <trkpt lat="44.35344" lon="3.93656">
        <ele>695</ele>
        <time>2012-01-03T09:54:28Z</time>
      </trkpt>
      <trkpt lat="44.35342" lon="3.93657">
        <ele>695</ele>
        <time>2012-01-03T09:54:29Z</time>
      </trkpt>
      <trkpt lat="44.3534" lon="3.93658">
        <ele>695</ele>
        <time>2012-01-03T09:54:30Z</time>
      </trkpt>
      <trkpt lat="44.35337" lon="3.93659">
        <ele>695</ele>
        <time>2012-01-03T09:54:31Z</time>
      </trkpt>
      <trkpt lat="44.35335" lon="3.93658">
        <ele>695</ele>
        <time>2012-01-03T09:54:32Z</time>
      </trkpt>
      <trkpt lat="44.35333" lon="3.93658">
        <ele>695</ele>
        <time>2012-01-03T09:54:33Z</time>
      </trkpt>
      <trkpt lat="44.35331" lon="3.93659">
        <ele>695</ele>
        <time>2012-01-03T09:54:34Z</time>
      </trkpt>
      <trkpt lat="44.35329" lon="3.9366">
        <ele>695</ele>
        <time>2012-01-03T09:54:35Z</time>
      </trkpt>
      <trkpt lat="44.35328" lon="3.93661">
        <ele>695</ele>
        <time>2012-01-03T09:54:36Z</time>
      </trkpt>
      <trkpt lat="44.35326" lon="3.93663">
        <ele>695</ele>
        <time>2012-01-03T09:54:37Z</time>
      </trkpt>
      <trkpt lat="44.35324" lon="3.93663">
        <ele>695</ele>
        <time>2012-01-03T09:54:38Z</time>
      </trkpt>
      <trkpt lat="44.35323" lon="3.93665">
        <ele>695</ele>
        <time>2012-01-03T09:54:39Z</time>
      </trkpt>
      <trkpt lat="44.35321" lon="3.93666">
        <ele>695</ele>
        <time>2012-01-03T09:54:40Z</time>
      </trkpt>
      <trkpt lat="44.35319" lon="3.93667">
        <ele>695</ele>
        <time>2012-01-03T09:54:41Z</time>
      </trkpt>
      <trkpt lat="44.35317" lon="3.93667">
        <ele>695</ele>
        <time>2012-01-03T09:54:42Z</time>
      </trkpt>
      <trkpt lat="44.35315" lon="3.93668">
        <ele>695</ele>
        <time>2012-01-03T09:54:43Z</time>
      </trkpt>
      <trkpt lat="44.35313" lon="3.93669">
        <ele>695</ele>
        <time>2012-01-03T09:54:44Z</time>
      </trkpt>
      <trkpt lat="44.35311" lon="3.93669">
        <ele>695</ele>
        <time>2012-01-03T09:54:45Z</time>
      </trkpt>
      <trkpt lat="44.35308" lon="3.93669">
        <ele>695</ele>
        <time>2012-01-03T09:54:46Z</time>
      </trkpt>
      <trkpt lat="44.35306" lon="3.9367">
        <ele>695</ele>
        <time>2012-01-03T09:54:47Z</time>
      </trkpt>
      <trkpt lat="44.35303" lon="3.9367">
        <ele>695</ele>
        <time>2012-01-03T09:54:48Z</time>
      </trkpt>
      <trkpt lat="44.353" lon="3.93669">
        <ele>695</ele>
        <time>2012-01-03T09:54:49Z</time>
      </trkpt>
      <trkpt lat="44.35297" lon="3.93669">
        <ele>695</ele>
        <time>2012-01-03T09:54:50Z</time>
      </trkpt>
      <trkpt lat="44.35294" lon="3.9367">
        <ele>695</ele>
        <time>2012-01-03T09:54:51Z</time>
      </trkpt>
      <trkpt lat="44.35292" lon="3.9367">
        <ele>694</ele>
        <time>2012-01-03T09:54:52Z</time>
      </trkpt>
      <trkpt lat="44.35289" lon="3.9367">
        <ele>693</ele>
        <time>2012-01-03T09:54:53Z</time>
      </trkpt>
      <trkpt lat="44.35287" lon="3.9367">
        <ele>692</ele>
        <time>2012-01-03T09:54:54Z</time>
      </trkpt>
      <trkpt lat="44.35284" lon="3.93671">
        <ele>692</ele>
        <time>2012-01-03T09:54:55Z</time>
      </trkpt>
      <trkpt lat="44.35282" lon="3.93671">
        <ele>692</ele>
        <time>2012-01-03T09:54:56Z</time>
      </trkpt>
      <trkpt lat="44.3528" lon="3.93672">
        <ele>692</ele>
        <time>2012-01-03T09:54:57Z</time>
      </trkpt>
      <trkpt lat="44.35278" lon="3.93672">
        <ele>692</ele>
        <time>2012-01-03T09:54:58Z</time>
      </trkpt>
      <trkpt lat="44.35275" lon="3.93672">
        <ele>692</ele>
        <time>2012-01-03T09:54:59Z</time>
      </trkpt>
      <trkpt lat="44.35273" lon="3.93671">
        <ele>692</ele>
        <time>2012-01-03T09:55:00Z</time>
      </trkpt>
      <trkpt lat="44.3527" lon="3.93672">
        <ele>692</ele>
        <time>2012-01-03T09:55:01Z</time>
      </trkpt>
      <trkpt lat="44.35268" lon="3.93672">
        <ele>692</ele>
        <time>2012-01-03T09:55:02Z</time>
      </trkpt>
      <trkpt lat="44.35265" lon="3.93673">
        <ele>692</ele>
        <time>2012-01-03T09:55:03Z</time>
      </trkpt>
      <trkpt lat="44.35263" lon="3.93674">
        <ele>692</ele>
        <time>2012-01-03T09:55:04Z</time>
      </trkpt>
      <trkpt lat="44.35262" lon="3.93675">
        <ele>692</ele>
        <time>2012-01-03T09:55:05Z</time>
      </trkpt>
      <trkpt lat="44.35261" lon="3.93676">
        <ele>692</ele>
        <time>2012-01-03T09:55:06Z</time>
      </trkpt>
      <trkpt lat="44.3526" lon="3.93676">
        <ele>692</ele>
        <time>2012-01-03T09:55:07Z</time>
      </trkpt>
      <trkpt lat="44.35258" lon="3.93676">
        <ele>692</ele>
        <time>2012-01-03T09:55:08Z</time>
      </trkpt>
      <trkpt lat="44.35256" lon="3.93676">
        <ele>692</ele>
        <time>2012-01-03T09:55:09Z</time>
      </trkpt>
      <trkpt lat="44.35254" lon="3.93676">
        <ele>692</ele>
        <time>2012-01-03T09:55:10Z</time>
      </trkpt>
      <trkpt lat="44.35252" lon="3.93675">
        <ele>692</ele>
        <time>2012-01-03T09:55:11Z</time>
      </trkpt>
      <trkpt lat="44.3525" lon="3.93676">
        <ele>692</ele>
        <time>2012-01-03T09:55:12Z</time>
      </trkpt>
      <trkpt lat="44.35248" lon="3.93676">
        <ele>692</ele>
        <time>2012-01-03T09:55:13Z</time>
      </trkpt>
      <trkpt lat="44.35246" lon="3.93676">
        <ele>692</ele>
        <time>2012-01-03T09:55:14Z</time>
      </trkpt>
      <trkpt lat="44.35244" lon="3.93676">
        <ele>692</ele>
        <time>2012-01-03T09:55:15Z</time>
      </trkpt>
      <trkpt lat="44.35241" lon="3.93675">
        <ele>692</ele>
        <time>2012-01-03T09:55:16Z</time>
      </trkpt>
      <trkpt lat="44.35239" lon="3.93674">
        <ele>692</ele>
        <time>2012-01-03T09:55:17Z</time>
      </trkpt>
      <trkpt lat="44.35237" lon="3.93673">
        <ele>692</ele>
        <time>2012-01-03T09:55:18Z</time>
      </trkpt>
      <trkpt lat="44.35234" lon="3.93673">
        <ele>692</ele>
        <time>2012-01-03T09:55:19Z</time>
      </trkpt>
      <trkpt lat="44.35233" lon="3.93673">
        <ele>692</ele>
        <time>2012-01-03T09:55:20Z</time>
      </trkpt>
      <trkpt lat="44.3523" lon="3.93672">
        <ele>692</ele>
        <time>2012-01-03T09:55:21Z</time>
      </trkpt>
      <trkpt lat="44.35228" lon="3.93672">
        <ele>692</ele>
        <time>2012-01-03T09:55:22Z</time>
      </trkpt>
      <trkpt lat="44.35226" lon="3.93672">
        <ele>692</ele>
        <time>2012-01-03T09:55:23Z</time>
      </trkpt>
      <trkpt lat="44.35223" lon="3.93672">
        <ele>692</ele>
        <time>2012-01-03T09:55:24Z</time>
      </trkpt>
      <trkpt lat="44.3522" lon="3.93672">
        <ele>692</ele>
        <time>2012-01-03T09:55:25Z</time>
      </trkpt>
      <trkpt lat="44.35218" lon="3.93672">
        <ele>692</ele>
        <time>2012-01-03T09:55:26Z</time>
      </trkpt>
      <trkpt lat="44.35215" lon="3.93672">
        <ele>692</ele>
        <time>2012-01-03T09:55:27Z</time>
      </trkpt>
      <trkpt lat="44.35213" lon="3.93672">
        <ele>692</ele>
        <time>2012-01-03T09:55:28Z</time>
      </trkpt>
      <trkpt lat="44.3521" lon="3.93671">
        <ele>692</ele>
        <time>2012-01-03T09:55:29Z</time>
      </trkpt>
      <trkpt lat="44.35208" lon="3.93671">
        <ele>692</ele>
        <time>2012-01-03T09:55:30Z</time>
      </trkpt>
      <trkpt lat="44.35206" lon="3.9367">
        <ele>692</ele>
        <time>2012-01-03T09:55:31Z</time>
      </trkpt>
      <trkpt lat="44.35204" lon="3.9367">
        <ele>692</ele>
        <time>2012-01-03T09:55:32Z</time>
      </trkpt>
      <trkpt lat="44.35201" lon="3.93669">
        <ele>692</ele>
        <time>2012-01-03T09:55:33Z</time>
      </trkpt>
      <trkpt lat="44.35199" lon="3.93668">
        <ele>692</ele>
        <time>2012-01-03T09:55:34Z</time>
      </trkpt>
      <trkpt lat="44.35196" lon="3.93667">
        <ele>692</ele>
        <time>2012-01-03T09:55:35Z</time>
      </trkpt>
      <trkpt lat="44.35194" lon="3.93665">
        <ele>692</ele>
        <time>2012-01-03T09:55:36Z</time>
      </trkpt>
      <trkpt lat="44.35191" lon="3.93665">
        <ele>692</ele>
        <time>2012-01-03T09:55:37Z</time>
      </trkpt>
      <trkpt lat="44.3519" lon="3.93663">
        <ele>692</ele>
        <time>2012-01-03T09:55:38Z</time>
      </trkpt>
      <trkpt lat="44.35188" lon="3.93662">
        <ele>692</ele>
        <time>2012-01-03T09:55:39Z</time>
      </trkpt>
      <trkpt lat="44.35186" lon="3.9366">
        <ele>692</ele>
        <time>2012-01-03T09:55:40Z</time>
      </trkpt>
      <trkpt lat="44.35183" lon="3.93659">
        <ele>692</ele>
        <time>2012-01-03T09:55:41Z</time>
      </trkpt>
      <trkpt lat="44.35181" lon="3.93658">
        <ele>692</ele>
        <time>2012-01-03T09:55:42Z</time>
      </trkpt>
      <trkpt lat="44.35179" lon="3.93657">
        <ele>692</ele>
        <time>2012-01-03T09:55:43Z</time>
      </trkpt>
      <trkpt lat="44.35176" lon="3.93656">
        <ele>692</ele>
        <time>2012-01-03T09:55:44Z</time>
      </trkpt>
      <trkpt lat="44.35175" lon="3.93655">
        <ele>692</ele>
        <time>2012-01-03T09:55:45Z</time>
      </trkpt>
      <trkpt lat="44.35173" lon="3.93654">
        <ele>692</ele>
        <time>2012-01-03T09:55:46Z</time>
      </trkpt>
      <trkpt lat="44.3517" lon="3.93654">
        <ele>692</ele>
        <time>2012-01-03T09:55:47Z</time>
      </trkpt>
      <trkpt lat="44.35168" lon="3.93653">
        <ele>692</ele>
        <time>2012-01-03T09:55:48Z</time>
      </trkpt>
      <trkpt lat="44.35167" lon="3.93653">
        <ele>692</ele>
        <time>2012-01-03T09:55:49Z</time>
      </trkpt>
      <trkpt lat="44.35166" lon="3.93651">
        <ele>692</ele>
        <time>2012-01-03T09:55:50Z</time>
      </trkpt>
      <trkpt lat="44.35164" lon="3.9365">
        <ele>693</ele>
        <time>2012-01-03T09:55:51Z</time>
      </trkpt>
      <trkpt lat="44.35163" lon="3.93649">
        <ele>693</ele>
        <time>2012-01-03T09:55:52Z</time>
      </trkpt>
      <trkpt lat="44.35161" lon="3.93649">
        <ele>693</ele>
        <time>2012-01-03T09:55:53Z</time>
      </trkpt>
      <trkpt lat="44.3516" lon="3.93649">
        <ele>693</ele>
        <time>2012-01-03T09:55:54Z</time>
      </trkpt>
      <trkpt lat="44.35158" lon="3.9365">
        <ele>694</ele>
        <time>2012-01-03T09:55:55Z</time>
      </trkpt>
      <trkpt lat="44.35156" lon="3.93649">
        <ele>695</ele>
        <time>2012-01-03T09:55:56Z</time>
      </trkpt>
      <trkpt lat="44.35154" lon="3.93648">
        <ele>696</ele>
        <time>2012-01-03T09:55:57Z</time>
      </trkpt>
      <trkpt lat="44.35153" lon="3.93647">
        <ele>697</ele>
        <time>2012-01-03T09:55:58Z</time>
      </trkpt>
      <trkpt lat="44.35151" lon="3.93645">
        <ele>697</ele>
        <time>2012-01-03T09:55:59Z</time>
      </trkpt>
      <trkpt lat="44.35149" lon="3.93644">
        <ele>698</ele>
        <time>2012-01-03T09:56:00Z</time>
      </trkpt>
      <trkpt lat="44.35148" lon="3.93643">
        <ele>699</ele>
        <time>2012-01-03T09:56:01Z</time>
      </trkpt>
      <trkpt lat="44.35146" lon="3.93641">
        <ele>699</ele>
        <time>2012-01-03T09:56:02Z</time>
      </trkpt>
      <trkpt lat="44.35144" lon="3.93638">
        <ele>700</ele>
        <time>2012-01-03T09:56:04Z</time>
      </trkpt>
      <trkpt lat="44.35143" lon="3.93636">
        <ele>700</ele>
        <time>2012-01-03T09:56:05Z</time>
      </trkpt>
      <trkpt lat="44.35141" lon="3.93634">
        <ele>700</ele>
        <time>2012-01-03T09:56:06Z</time>
      </trkpt>
      <trkpt lat="44.35139" lon="3.93632">
        <ele>700</ele>
        <time>2012-01-03T09:56:07Z</time>
      </trkpt>
      <trkpt lat="44.35137" lon="3.93631">
        <ele>700</ele>
        <time>2012-01-03T09:56:08Z</time>
      </trkpt>
      <trkpt lat="44.35135" lon="3.93631">
        <ele>700</ele>
        <time>2012-01-03T09:56:09Z</time>
      </trkpt>
      <trkpt lat="44.35133" lon="3.9363">
        <ele>700</ele>
        <time>2012-01-03T09:56:10Z</time>
      </trkpt>
      <trkpt lat="44.35131" lon="3.93629">
        <ele>700</ele>
        <time>2012-01-03T09:56:11Z</time>
      </trkpt>
      <trkpt lat="44.35129" lon="3.93628">
        <ele>700</ele>
        <time>2012-01-03T09:56:12Z</time>
      </trkpt>
      <trkpt lat="44.35127" lon="3.93627">
        <ele>700</ele>
        <time>2012-01-03T09:56:13Z</time>
      </trkpt>
      <trkpt lat="44.35125" lon="3.93626">
        <ele>701</ele>
        <time>2012-01-03T09:56:14Z</time>
      </trkpt>
      <trkpt lat="44.35122" lon="3.93624">
        <ele>701</ele>
        <time>2012-01-03T09:56:15Z</time>
      </trkpt>
      <trkpt lat="44.3512" lon="3.93623">
        <ele>701</ele>
        <time>2012-01-03T09:56:16Z</time>
      </trkpt>
      <trkpt lat="44.35118" lon="3.93623">
        <ele>701</ele>
        <time>2012-01-03T09:56:17Z</time>
      </trkpt>
      <trkpt lat="44.35117" lon="3.93622">
        <ele>701</ele>
        <time>2012-01-03T09:56:18Z</time>
      </trkpt>
      <trkpt lat="44.35116" lon="3.93621">
        <ele>701</ele>
        <time>2012-01-03T09:56:19Z</time>
      </trkpt>
      <trkpt lat="44.35114" lon="3.9362">
        <ele>701</ele>
        <time>2012-01-03T09:56:20Z</time>
      </trkpt>
      <trkpt lat="44.35113" lon="3.93618">
        <ele>701</ele>
        <time>2012-01-03T09:56:21Z</time>
      </trkpt>
      <trkpt lat="44.3511" lon="3.93617">
        <ele>701</ele>
        <time>2012-01-03T09:56:22Z</time>
      </trkpt>
      <trkpt lat="44.35108" lon="3.93615">
        <ele>701</ele>
        <time>2012-01-03T09:56:23Z</time>
      </trkpt>
      <trkpt lat="44.35106" lon="3.93614">
        <ele>701</ele>
        <time>2012-01-03T09:56:24Z</time>
      </trkpt>
      <trkpt lat="44.35104" lon="3.93612">
        <ele>702</ele>
        <time>2012-01-03T09:56:25Z</time>
      </trkpt>
      <trkpt lat="44.35102" lon="3.93611">
        <ele>702</ele>
        <time>2012-01-03T09:56:26Z</time>
      </trkpt>
      <trkpt lat="44.35099" lon="3.93609">
        <ele>703</ele>
        <time>2012-01-03T09:56:27Z</time>
      </trkpt>
      <trkpt lat="44.35098" lon="3.93608">
        <ele>703</ele>
        <time>2012-01-03T09:56:28Z</time>
      </trkpt>
      <trkpt lat="44.35096" lon="3.93606">
        <ele>703</ele>
        <time>2012-01-03T09:56:29Z</time>
      </trkpt>
      <trkpt lat="44.35094" lon="3.93605">
        <ele>703</ele>
        <time>2012-01-03T09:56:30Z</time>
      </trkpt>
      <trkpt lat="44.35093" lon="3.93604">
        <ele>703</ele>
        <time>2012-01-03T09:56:31Z</time>
      </trkpt>
      <trkpt lat="44.35091" lon="3.93603">
        <ele>703</ele>
        <time>2012-01-03T09:56:32Z</time>
      </trkpt>
      <trkpt lat="44.3509" lon="3.93602">
        <ele>703</ele>
        <time>2012-01-03T09:56:33Z</time>
      </trkpt>
      <trkpt lat="44.35088" lon="3.93601">
        <ele>703</ele>
        <time>2012-01-03T09:56:34Z</time>
      </trkpt>
      <trkpt lat="44.35086" lon="3.93598">
        <ele>703</ele>
        <time>2012-01-03T09:56:36Z</time>
      </trkpt>
      <trkpt lat="44.35083" lon="3.93596">
        <ele>703</ele>
        <time>2012-01-03T09:56:37Z</time>
      </trkpt>
      <trkpt lat="44.35082" lon="3.93595">
        <ele>703</ele>
        <time>2012-01-03T09:56:38Z</time>
      </trkpt>
      <trkpt lat="44.35081" lon="3.93593">
        <ele>703</ele>
        <time>2012-01-03T09:56:39Z</time>
      </trkpt>
      <trkpt lat="44.35079" lon="3.9359">
        <ele>703</ele>
        <time>2012-01-03T09:56:40Z</time>
      </trkpt>
      <trkpt lat="44.35078" lon="3.93589">
        <ele>703</ele>
        <time>2012-01-03T09:56:41Z</time>
      </trkpt>
      <trkpt lat="44.35076" lon="3.93586">
        <ele>703</ele>
        <time>2012-01-03T09:56:42Z</time>
      </trkpt>
      <trkpt lat="44.35075" lon="3.93584">
        <ele>703</ele>
        <time>2012-01-03T09:56:43Z</time>
      </trkpt>
      <trkpt lat="44.35074" lon="3.93582">
        <ele>703</ele>
        <time>2012-01-03T09:56:44Z</time>
      </trkpt>
      <trkpt lat="44.35072" lon="3.9358">
        <ele>703</ele>
        <time>2012-01-03T09:56:45Z</time>
      </trkpt>
      <trkpt lat="44.35071" lon="3.93578">
        <ele>703</ele>
        <time>2012-01-03T09:56:46Z</time>
      </trkpt>
      <trkpt lat="44.35069" lon="3.93576">
        <ele>703</ele>
        <time>2012-01-03T09:56:47Z</time>
      </trkpt>
      <trkpt lat="44.35067" lon="3.93574">
        <ele>703</ele>
        <time>2012-01-03T09:56:48Z</time>
      </trkpt>
      <trkpt lat="44.35066" lon="3.93571">
        <ele>703</ele>
        <time>2012-01-03T09:56:49Z</time>
      </trkpt>
      <trkpt lat="44.35064" lon="3.93568">
        <ele>703</ele>
        <time>2012-01-03T09:56:50Z</time>
      </trkpt>
      <trkpt lat="44.35062" lon="3.93566">
        <ele>703</ele>
        <time>2012-01-03T09:56:51Z</time>
      </trkpt>
      <trkpt lat="44.3506" lon="3.93564">
        <ele>703</ele>
        <time>2012-01-03T09:56:52Z</time>
      </trkpt>
      <trkpt lat="44.35059" lon="3.93562">
        <ele>703</ele>
        <time>2012-01-03T09:56:53Z</time>
      </trkpt>
      <trkpt lat="44.35057" lon="3.9356">
        <ele>703</ele>
        <time>2012-01-03T09:56:54Z</time>
      </trkpt>
      <trkpt lat="44.35057" lon="3.93558">
        <ele>703</ele>
        <time>2012-01-03T09:56:55Z</time>
      </trkpt>
      <trkpt lat="44.35056" lon="3.93556">
        <ele>703</ele>
        <time>2012-01-03T09:56:56Z</time>
      </trkpt>
      <trkpt lat="44.35055" lon="3.93554">
        <ele>703</ele>
        <time>2012-01-03T09:56:57Z</time>
      </trkpt>
      <trkpt lat="44.35054" lon="3.93552">
        <ele>703</ele>
        <time>2012-01-03T09:56:58Z</time>
      </trkpt>
      <trkpt lat="44.35051" lon="3.93549">
        <ele>703</ele>
        <time>2012-01-03T09:56:59Z</time>
      </trkpt>
      <trkpt lat="44.3505" lon="3.93546">
        <ele>703</ele>
        <time>2012-01-03T09:57:00Z</time>
      </trkpt>
      <trkpt lat="44.35048" lon="3.93544">
        <ele>703</ele>
        <time>2012-01-03T09:57:01Z</time>
      </trkpt>
      <trkpt lat="44.35046" lon="3.93541">
        <ele>703</ele>
        <time>2012-01-03T09:57:02Z</time>
      </trkpt>
      <trkpt lat="44.35044" lon="3.93539">
        <ele>703</ele>
        <time>2012-01-03T09:57:03Z</time>
      </trkpt>
      <trkpt lat="44.35042" lon="3.93537">
        <ele>703</ele>
        <time>2012-01-03T09:57:04Z</time>
      </trkpt>
      <trkpt lat="44.3504" lon="3.93536">
        <ele>703</ele>
        <time>2012-01-03T09:57:05Z</time>
      </trkpt>
      <trkpt lat="44.35038" lon="3.93534">
        <ele>703</ele>
        <time>2012-01-03T09:57:07Z</time>
      </trkpt>
      <trkpt lat="44.35038" lon="3.93532">
        <ele>703</ele>
        <time>2012-01-03T09:57:08Z</time>
      </trkpt>
      <trkpt lat="44.35036" lon="3.93531">
        <ele>704</ele>
        <time>2012-01-03T09:57:09Z</time>
      </trkpt>
      <trkpt lat="44.35034" lon="3.9353">
        <ele>704</ele>
        <time>2012-01-03T09:57:10Z</time>
      </trkpt>
      <trkpt lat="44.35032" lon="3.93529">
        <ele>705</ele>
        <time>2012-01-03T09:57:11Z</time>
      </trkpt>
      <trkpt lat="44.3503" lon="3.93528">
        <ele>705</ele>
        <time>2012-01-03T09:57:12Z</time>
      </trkpt>
      <trkpt lat="44.35028" lon="3.93527">
        <ele>706</ele>
        <time>2012-01-03T09:57:13Z</time>
      </trkpt>
      <trkpt lat="44.35027" lon="3.93526">
        <ele>706</ele>
        <time>2012-01-03T09:57:14Z</time>
      </trkpt>
      <trkpt lat="44.35025" lon="3.93525">
        <ele>707</ele>
        <time>2012-01-03T09:57:15Z</time>
      </trkpt>
      <trkpt lat="44.35022" lon="3.93525">
        <ele>707</ele>
        <time>2012-01-03T09:57:16Z</time>
      </trkpt>
      <trkpt lat="44.3502" lon="3.93524">
        <ele>707</ele>
        <time>2012-01-03T09:57:17Z</time>
      </trkpt>
      <trkpt lat="44.35018" lon="3.93524">
        <ele>707</ele>
        <time>2012-01-03T09:57:18Z</time>
      </trkpt>
      <trkpt lat="44.35016" lon="3.93525">
        <ele>708</ele>
        <time>2012-01-03T09:57:19Z</time>
      </trkpt>
      <trkpt lat="44.35013" lon="3.93524">
        <ele>708</ele>
        <time>2012-01-03T09:57:20Z</time>
      </trkpt>
      <trkpt lat="44.35011" lon="3.93524">
        <ele>708</ele>
        <time>2012-01-03T09:57:21Z</time>
      </trkpt>
      <trkpt lat="44.35009" lon="3.93523">
        <ele>708</ele>
        <time>2012-01-03T09:57:22Z</time>
      </trkpt>
      <trkpt lat="44.35007" lon="3.93523">
        <ele>709</ele>
        <time>2012-01-03T09:57:23Z</time>
      </trkpt>
      <trkpt lat="44.35006" lon="3.93523">
        <ele>709</ele>
        <time>2012-01-03T09:57:24Z</time>
      </trkpt>
      <trkpt lat="44.35004" lon="3.93523">
        <ele>710</ele>
        <time>2012-01-03T09:57:26Z</time>
      </trkpt>
      <trkpt lat="44.35002" lon="3.9352">
        <ele>710</ele>
        <time>2012-01-03T09:57:31Z</time>
      </trkpt>
      <trkpt lat="44.34996" lon="3.93514">
        <ele>710</ele>
        <time>2012-01-03T09:57:32Z</time>
      </trkpt>
      <trkpt lat="44.34994" lon="3.93513">
        <ele>710</ele>
        <time>2012-01-03T09:57:33Z</time>
      </trkpt>
      <trkpt lat="44.34991" lon="3.93509">
        <ele>710</ele>
        <time>2012-01-03T09:57:37Z</time>
      </trkpt>
      <trkpt lat="44.34985" lon="3.93506">
        <ele>710</ele>
        <time>2012-01-03T09:57:38Z</time>
      </trkpt>
      <trkpt lat="44.34983" lon="3.93505">
        <ele>710</ele>
        <time>2012-01-03T09:57:39Z</time>
      </trkpt>
      <trkpt lat="44.3498" lon="3.93503">
        <ele>711</ele>
        <time>2012-01-03T09:57:43Z</time>
      </trkpt>
      <trkpt lat="44.34975" lon="3.935">
        <ele>712</ele>
        <time>2012-01-03T09:57:44Z</time>
      </trkpt>
      <trkpt lat="44.34974" lon="3.93499">
        <ele>713</ele>
        <time>2012-01-03T09:57:45Z</time>
      </trkpt>
      <trkpt lat="44.34971" lon="3.93495">
        <ele>714</ele>
        <time>2012-01-03T09:57:49Z</time>
      </trkpt>
      <trkpt lat="44.34966" lon="3.9349">
        <ele>715</ele>
        <time>2012-01-03T09:57:50Z</time>
      </trkpt>
      <trkpt lat="44.34963" lon="3.93488">
        <ele>716</ele>
        <time>2012-01-03T09:57:51Z</time>
      </trkpt>
      <trkpt lat="44.34962" lon="3.93485">
        <ele>717</ele>
        <time>2012-01-03T09:57:52Z</time>
      </trkpt>
      <trkpt lat="44.3496" lon="3.93481">
        <ele>718</ele>
        <time>2012-01-03T09:57:56Z</time>
      </trkpt>
      <trkpt lat="44.34954" lon="3.93477">
        <ele>718</ele>
        <time>2012-01-03T09:57:57Z</time>
      </trkpt>
      <trkpt lat="44.34953" lon="3.93475">
        <ele>718</ele>
        <time>2012-01-03T09:57:58Z</time>
      </trkpt>
      <trkpt lat="44.34952" lon="3.93473">
        <ele>718</ele>
        <time>2012-01-03T09:58:02Z</time>
      </trkpt>
      <trkpt lat="44.34949" lon="3.93469">
        <ele>718</ele>
        <time>2012-01-03T09:58:03Z</time>
      </trkpt>
      <trkpt lat="44.34948" lon="3.93468">
        <ele>718</ele>
        <time>2012-01-03T09:58:04Z</time>
      </trkpt>
      <trkpt lat="44.34948" lon="3.93466">
        <ele>718</ele>
        <time>2012-01-03T09:58:05Z</time>
      </trkpt>
      <trkpt lat="44.34946" lon="3.93462">
        <ele>718</ele>
        <time>2012-01-03T09:58:09Z</time>
      </trkpt>
      <trkpt lat="44.34943" lon="3.93458">
        <ele>718</ele>
        <time>2012-01-03T09:58:10Z</time>
      </trkpt>
      <trkpt lat="44.34943" lon="3.93456">
        <ele>718</ele>
        <time>2012-01-03T09:58:11Z</time>
      </trkpt>
      <trkpt lat="44.34941" lon="3.93453">
        <ele>718</ele>
        <time>2012-01-03T09:58:15Z</time>
      </trkpt>
      <trkpt lat="44.34935" lon="3.93447">
        <ele>718</ele>
        <time>2012-01-03T09:58:16Z</time>
      </trkpt>
      <trkpt lat="44.34933" lon="3.93444">
        <ele>718</ele>
        <time>2012-01-03T09:58:17Z</time>
      </trkpt>
      <trkpt lat="44.3493" lon="3.9344">
        <ele>718</ele>
        <time>2012-01-03T09:58:21Z</time>
      </trkpt>
      <trkpt lat="44.34925" lon="3.93435">
        <ele>718</ele>
        <time>2012-01-03T09:58:22Z</time>
      </trkpt>
      <trkpt lat="44.34923" lon="3.93433">
        <ele>718</ele>
        <time>2012-01-03T09:58:23Z</time>
      </trkpt>
      <trkpt lat="44.34922" lon="3.9343">
        <ele>718</ele>
        <time>2012-01-03T09:58:27Z</time>
      </trkpt>
      <trkpt lat="44.34918" lon="3.93427">
        <ele>718</ele>
        <time>2012-01-03T09:58:28Z</time>
      </trkpt>
      <trkpt lat="44.34917" lon="3.93426">
        <ele>718</ele>
        <time>2012-01-03T09:58:29Z</time>
      </trkpt>
      <trkpt lat="44.34916" lon="3.93424">
        <ele>718</ele>
        <time>2012-01-03T09:58:30Z</time>
      </trkpt>
      <trkpt lat="44.34913" lon="3.93422">
        <ele>718</ele>
        <time>2012-01-03T09:58:34Z</time>
      </trkpt>
      <trkpt lat="44.34907" lon="3.93419">
        <ele>719</ele>
        <time>2012-01-03T09:58:35Z</time>
      </trkpt>
      <trkpt lat="44.34905" lon="3.93418">
        <ele>720</ele>
        <time>2012-01-03T09:58:36Z</time>
      </trkpt>
      <trkpt lat="44.34902" lon="3.93415">
        <ele>721</ele>
        <time>2012-01-03T09:58:40Z</time>
      </trkpt>
      <trkpt lat="44.34895" lon="3.9341">
        <ele>722</ele>
        <time>2012-01-03T09:58:41Z</time>
      </trkpt>
      <trkpt lat="44.34893" lon="3.93409">
        <ele>723</ele>
        <time>2012-01-03T09:58:42Z</time>
      </trkpt>
      <trkpt lat="44.3489" lon="3.93402">
        <ele>724</ele>
        <time>2012-01-03T09:58:46Z</time>
      </trkpt>
      <trkpt lat="44.34885" lon="3.93397">
        <ele>725</ele>
        <time>2012-01-03T09:58:47Z</time>
      </trkpt>
      <trkpt lat="44.34883" lon="3.93395">
        <ele>726</ele>
        <time>2012-01-03T09:58:48Z</time>
      </trkpt>
      <trkpt lat="44.34878" lon="3.93391">
        <ele>726</ele>
        <time>2012-01-03T09:58:52Z</time>
      </trkpt>
      <trkpt lat="44.34871" lon="3.9339">
        <ele>726</ele>
        <time>2012-01-03T09:58:53Z</time>
      </trkpt>
      <trkpt lat="44.34868" lon="3.93388">
        <ele>727</ele>
        <time>2012-01-03T09:58:54Z</time>
      </trkpt>
      <trkpt lat="44.34863" lon="3.93385">
        <ele>727</ele>
        <time>2012-01-03T09:58:58Z</time>
      </trkpt>
      <trkpt lat="44.34858" lon="3.9338">
        <ele>727</ele>
        <time>2012-01-03T09:58:59Z</time>
      </trkpt>
      <trkpt lat="44.34856" lon="3.93378">
        <ele>727</ele>
        <time>2012-01-03T09:59:00Z</time>
      </trkpt>
      <trkpt lat="44.34854" lon="3.93376">
        <ele>727</ele>
        <time>2012-01-03T09:59:01Z</time>
      </trkpt>
      <trkpt lat="44.34852" lon="3.93374">
        <ele>727</ele>
        <time>2012-01-03T09:59:02Z</time>
      </trkpt>
      <trkpt lat="44.34848" lon="3.93371">
        <ele>727</ele>
        <time>2012-01-03T09:59:06Z</time>
      </trkpt>
      <trkpt lat="44.34844" lon="3.93366">
        <ele>727</ele>
        <time>2012-01-03T09:59:07Z</time>
      </trkpt>
      <trkpt lat="44.34842" lon="3.93364">
        <ele>727</ele>
        <time>2012-01-03T09:59:08Z</time>
      </trkpt>
      <trkpt lat="44.34838" lon="3.93361">
        <ele>727</ele>
        <time>2012-01-03T09:59:12Z</time>
      </trkpt>
      <trkpt lat="44.34835" lon="3.93356">
        <ele>727</ele>
        <time>2012-01-03T09:59:13Z</time>
      </trkpt>
      <trkpt lat="44.34834" lon="3.93354">
        <ele>727</ele>
        <time>2012-01-03T09:59:14Z</time>
      </trkpt>
      <trkpt lat="44.34833" lon="3.93353">
        <ele>727</ele>
        <time>2012-01-03T09:59:15Z</time>
      </trkpt>
      <trkpt lat="44.34831" lon="3.93351">
        <ele>727</ele>
        <time>2012-01-03T09:59:16Z</time>
      </trkpt>
      <trkpt lat="44.34827" lon="3.93347">
        <ele>726</ele>
        <time>2012-01-03T09:59:20Z</time>
      </trkpt>
      <trkpt lat="44.34822" lon="3.93341">
        <ele>725</ele>
        <time>2012-01-03T09:59:21Z</time>
      </trkpt>
      <trkpt lat="44.3482" lon="3.93338">
        <ele>725</ele>
        <time>2012-01-03T09:59:22Z</time>
      </trkpt>
      <trkpt lat="44.34818" lon="3.93336">
        <ele>724</ele>
        <time>2012-01-03T09:59:23Z</time>
      </trkpt>
      <trkpt lat="44.34816" lon="3.93334">
        <ele>724</ele>
        <time>2012-01-03T09:59:24Z</time>
      </trkpt>
      <trkpt lat="44.34813" lon="3.9333">
        <ele>724</ele>
        <time>2012-01-03T09:59:28Z</time>
      </trkpt>
      <trkpt lat="44.34809" lon="3.93324">
        <ele>724</ele>
        <time>2012-01-03T09:59:29Z</time>
      </trkpt>
      <trkpt lat="44.34808" lon="3.93321">
        <ele>724</ele>
        <time>2012-01-03T09:59:30Z</time>
      </trkpt>
      <trkpt lat="44.34804" lon="3.93318">
        <ele>724</ele>
        <time>2012-01-03T09:59:34Z</time>
      </trkpt>
      <trkpt lat="44.348" lon="3.93313">
        <ele>724</ele>
        <time>2012-01-03T09:59:35Z</time>
      </trkpt>
      <trkpt lat="44.34799" lon="3.9331">
        <ele>723</ele>
        <time>2012-01-03T09:59:36Z</time>
      </trkpt>
      <trkpt lat="44.34795" lon="3.93305">
        <ele>723</ele>
        <time>2012-01-03T09:59:40Z</time>
      </trkpt>
      <trkpt lat="44.3479" lon="3.93299">
        <ele>723</ele>
        <time>2012-01-03T09:59:41Z</time>
      </trkpt>
      <trkpt lat="44.34789" lon="3.93296">
        <ele>723</ele>
        <time>2012-01-03T09:59:42Z</time>
      </trkpt>
      <trkpt lat="44.34785" lon="3.93292">
        <ele>723</ele>
        <time>2012-01-03T09:59:46Z</time>
      </trkpt>
      <trkpt lat="44.3478" lon="3.93285">
        <ele>723</ele>
        <time>2012-01-03T09:59:47Z</time>
      </trkpt>
      <trkpt lat="44.34779" lon="3.93283">
        <ele>723</ele>
        <time>2012-01-03T09:59:48Z</time>
      </trkpt>
      <trkpt lat="44.34776" lon="3.93279">
        <ele>723</ele>
        <time>2012-01-03T09:59:52Z</time>
      </trkpt>
      <trkpt lat="44.34771" lon="3.9327">
        <ele>724</ele>
        <time>2012-01-03T09:59:53Z</time>
      </trkpt>
      <trkpt lat="44.34771" lon="3.93266">
        <ele>724</ele>
        <time>2012-01-03T09:59:54Z</time>
      </trkpt>
      <trkpt lat="44.34768" lon="3.93257">
        <ele>724</ele>
        <time>2012-01-03T09:59:58Z</time>
      </trkpt>
      <trkpt lat="44.34764" lon="3.93248">
        <ele>724</ele>
        <time>2012-01-03T09:59:59Z</time>
      </trkpt>
      <trkpt lat="44.34763" lon="3.93244">
        <ele>724</ele>
        <time>2012-01-03T10:00:00Z</time>
      </trkpt>
      <trkpt lat="44.34761" lon="3.93241">
        <ele>724</ele>
        <time>2012-01-03T10:00:01Z</time>
      </trkpt>
      <trkpt lat="44.34759" lon="3.93236">
        <ele>724</ele>
        <time>2012-01-03T10:00:05Z</time>
      </trkpt>
      <trkpt lat="44.34754" lon="3.9323">
        <ele>724</ele>
        <time>2012-01-03T10:00:06Z</time>
      </trkpt>
      <trkpt lat="44.34753" lon="3.93229">
        <ele>725</ele>
        <time>2012-01-03T10:00:07Z</time>
      </trkpt>
      <trkpt lat="44.3475" lon="3.93224">
        <ele>726</ele>
        <time>2012-01-03T10:00:10Z</time>
      </trkpt>
      <trkpt lat="44.34748" lon="3.93221">
        <ele>728</ele>
        <time>2012-01-03T10:00:13Z</time>
      </trkpt>
      <trkpt lat="44.34747" lon="3.93219">
        <ele>729</ele>
        <time>2012-01-03T10:00:14Z</time>
      </trkpt>
      <trkpt lat="44.34746" lon="3.93218">
        <ele>729</ele>
        <time>2012-01-03T10:00:15Z</time>
      </trkpt>
      <trkpt lat="44.34744" lon="3.93215">
        <ele>730</ele>
        <time>2012-01-03T10:00:17Z</time>
      </trkpt>
      <trkpt lat="44.34743" lon="3.93212">
        <ele>731</ele>
        <time>2012-01-03T10:00:19Z</time>
      </trkpt>
      <trkpt lat="44.34742" lon="3.9321">
        <ele>732</ele>
        <time>2012-01-03T10:00:20Z</time>
      </trkpt>
      <trkpt lat="44.34741" lon="3.93208">
        <ele>732</ele>
        <time>2012-01-03T10:00:21Z</time>
      </trkpt>
      <trkpt lat="44.3474" lon="3.93206">
        <ele>733</ele>
        <time>2012-01-03T10:00:22Z</time>
      </trkpt>
      <trkpt lat="44.3474" lon="3.93204">
        <ele>733</ele>
        <time>2012-01-03T10:00:23Z</time>
      </trkpt>
      <trkpt lat="44.3474" lon="3.93202">
        <ele>733</ele>
        <time>2012-01-03T10:00:24Z</time>
      </trkpt>
      <trkpt lat="44.34739" lon="3.932">
        <ele>733</ele>
        <time>2012-01-03T10:00:25Z</time>
      </trkpt>
      <trkpt lat="44.34737" lon="3.93198">
        <ele>733</ele>
        <time>2012-01-03T10:00:27Z</time>
      </trkpt>
      <trkpt lat="44.34737" lon="3.93196">
        <ele>733</ele>
        <time>2012-01-03T10:00:28Z</time>
      </trkpt>
      <trkpt lat="44.34735" lon="3.93194">
        <ele>734</ele>
        <time>2012-01-03T10:00:30Z</time>
      </trkpt>
      <trkpt lat="44.34734" lon="3.93192">
        <ele>734</ele>
        <time>2012-01-03T10:00:32Z</time>
      </trkpt>
      <trkpt lat="44.34733" lon="3.93189">
        <ele>735</ele>
        <time>2012-01-03T10:00:33Z</time>
      </trkpt>
      <trkpt lat="44.34732" lon="3.93187">
        <ele>735</ele>
        <time>2012-01-03T10:00:34Z</time>
      </trkpt>
      <trkpt lat="44.34732" lon="3.93186">
        <ele>735</ele>
        <time>2012-01-03T10:00:35Z</time>
      </trkpt>
      <trkpt lat="44.34731" lon="3.93183">
        <ele>735</ele>
        <time>2012-01-03T10:00:36Z</time>
      </trkpt>
      <trkpt lat="44.3473" lon="3.93182">
        <ele>735</ele>
        <time>2012-01-03T10:00:37Z</time>
      </trkpt>
      <trkpt lat="44.34729" lon="3.93179">
        <ele>735</ele>
        <time>2012-01-03T10:00:38Z</time>
      </trkpt>
      <trkpt lat="44.34729" lon="3.93176">
        <ele>735</ele>
        <time>2012-01-03T10:00:40Z</time>
      </trkpt>
      <trkpt lat="44.34727" lon="3.93174">
        <ele>735</ele>
        <time>2012-01-03T10:00:42Z</time>
      </trkpt>
      <trkpt lat="44.34726" lon="3.93173">
        <ele>735</ele>
        <time>2012-01-03T10:00:45Z</time>
      </trkpt>
      <trkpt lat="44.34726" lon="3.93171">
        <ele>735</ele>
        <time>2012-01-03T10:00:46Z</time>
      </trkpt>
      <trkpt lat="44.34724" lon="3.93169">
        <ele>735</ele>
        <time>2012-01-03T10:00:48Z</time>
      </trkpt>
      <trkpt lat="44.34722" lon="3.93168">
        <ele>735</ele>
        <time>2012-01-03T10:00:50Z</time>
      </trkpt>
      <trkpt lat="44.3472" lon="3.93166">
        <ele>735</ele>
        <time>2012-01-03T10:00:51Z</time>
      </trkpt>
      <trkpt lat="44.34719" lon="3.93164">
        <ele>735</ele>
        <time>2012-01-03T10:00:52Z</time>
      </trkpt>
      <trkpt lat="44.34718" lon="3.93162">
        <ele>735</ele>
        <time>2012-01-03T10:00:53Z</time>
      </trkpt>
      <trkpt lat="44.34717" lon="3.9316">
        <ele>735</ele>
        <time>2012-01-03T10:00:54Z</time>
      </trkpt>
      <trkpt lat="44.34716" lon="3.93159">
        <ele>735</ele>
        <time>2012-01-03T10:00:55Z</time>
      </trkpt>
      <trkpt lat="44.34715" lon="3.93157">
        <ele>735</ele>
        <time>2012-01-03T10:00:56Z</time>
      </trkpt>
      <trkpt lat="44.34714" lon="3.93155">
        <ele>736</ele>
        <time>2012-01-03T10:00:57Z</time>
      </trkpt>
      <trkpt lat="44.34713" lon="3.93154">
        <ele>737</ele>
        <time>2012-01-03T10:00:58Z</time>
      </trkpt>
      <trkpt lat="44.34713" lon="3.93152">
        <ele>737</ele>
        <time>2012-01-03T10:00:59Z</time>
      </trkpt>
      <trkpt lat="44.34713" lon="3.9315">
        <ele>737</ele>
        <time>2012-01-03T10:01:00Z</time>
      </trkpt>
      <trkpt lat="44.34712" lon="3.93147">
        <ele>737</ele>
        <time>2012-01-03T10:01:01Z</time>
      </trkpt>
      <trkpt lat="44.34711" lon="3.93144">
        <ele>737</ele>
        <time>2012-01-03T10:01:02Z</time>
      </trkpt>
      <trkpt lat="44.34712" lon="3.93129">
        <ele>737</ele>
        <time>2012-01-03T10:01:07Z</time>
      </trkpt>
      <trkpt lat="44.34712" lon="3.93127">
        <ele>737</ele>
        <time>2012-01-03T10:01:08Z</time>
      </trkpt>
      <trkpt lat="44.34711" lon="3.93123">
        <ele>737</ele>
        <time>2012-01-03T10:01:09Z</time>
      </trkpt>
      <trkpt lat="44.34711" lon="3.93115">
        <ele>737</ele>
        <time>2012-01-03T10:01:13Z</time>
      </trkpt>
      <trkpt lat="44.34711" lon="3.93106">
        <ele>737</ele>
        <time>2012-01-03T10:01:14Z</time>
      </trkpt>
      <trkpt lat="44.3471" lon="3.93104">
        <ele>737</ele>
        <time>2012-01-03T10:01:15Z</time>
      </trkpt>
      <trkpt lat="44.3471" lon="3.93102">
        <ele>736</ele>
        <time>2012-01-03T10:01:16Z</time>
      </trkpt>
      <trkpt lat="44.3471" lon="3.931">
        <ele>735</ele>
        <time>2012-01-03T10:01:17Z</time>
      </trkpt>
      <trkpt lat="44.3471" lon="3.93096">
        <ele>735</ele>
        <time>2012-01-03T10:01:22Z</time>
      </trkpt>
      <trkpt lat="44.34711" lon="3.93087">
        <ele>735</ele>
        <time>2012-01-03T10:01:23Z</time>
      </trkpt>
      <trkpt lat="44.34711" lon="3.9308">
        <ele>735</ele>
        <time>2012-01-03T10:01:27Z</time>
      </trkpt>
      <trkpt lat="44.3471" lon="3.93073">
        <ele>735</ele>
        <time>2012-01-03T10:01:28Z</time>
      </trkpt>
      <trkpt lat="44.3471" lon="3.93069">
        <ele>735</ele>
        <time>2012-01-03T10:01:29Z</time>
      </trkpt>
      <trkpt lat="44.3471" lon="3.93066">
        <ele>735</ele>
        <time>2012-01-03T10:01:30Z</time>
      </trkpt>
      <trkpt lat="44.34711" lon="3.9306">
        <ele>735</ele>
        <time>2012-01-03T10:01:34Z</time>
      </trkpt>
      <trkpt lat="44.34711" lon="3.93051">
        <ele>734</ele>
        <time>2012-01-03T10:01:35Z</time>
      </trkpt>
      <trkpt lat="44.34711" lon="3.93047">
        <ele>733</ele>
        <time>2012-01-03T10:01:36Z</time>
      </trkpt>
      <trkpt lat="44.34716" lon="3.93042">
        <ele>733</ele>
        <time>2012-01-03T10:01:41Z</time>
      </trkpt>
      <trkpt lat="44.34717" lon="3.93045">
        <ele>733</ele>
        <time>2012-01-03T10:01:42Z</time>
      </trkpt>
      <trkpt lat="44.34718" lon="3.93047">
        <ele>733</ele>
        <time>2012-01-03T10:01:43Z</time>
      </trkpt>
      <trkpt lat="44.34718" lon="3.9305">
        <ele>733</ele>
        <time>2012-01-03T10:01:44Z</time>
      </trkpt>
      <trkpt lat="44.3472" lon="3.93055">
        <ele>733</ele>
        <time>2012-01-03T10:01:49Z</time>
      </trkpt>
      <trkpt lat="44.34721" lon="3.93066">
        <ele>733</ele>
        <time>2012-01-03T10:01:50Z</time>
      </trkpt>
      <trkpt lat="44.34721" lon="3.93069">
        <ele>733</ele>
        <time>2012-01-03T10:01:51Z</time>
      </trkpt>
      <trkpt lat="44.34721" lon="3.93076">
        <ele>733</ele>
        <time>2012-01-03T10:01:55Z</time>
      </trkpt>
      <trkpt lat="44.34723" lon="3.93084">
        <ele>733</ele>
        <time>2012-01-03T10:01:56Z</time>
      </trkpt>
      <trkpt lat="44.34723" lon="3.93086">
        <ele>733</ele>
        <time>2012-01-03T10:01:57Z</time>
      </trkpt>
      <trkpt lat="44.34724" lon="3.93092">
        <ele>733</ele>
        <time>2012-01-03T10:02:01Z</time>
      </trkpt>
      <trkpt lat="44.34726" lon="3.93101">
        <ele>733</ele>
        <time>2012-01-03T10:02:02Z</time>
      </trkpt>
      <trkpt lat="44.34727" lon="3.93105">
        <ele>733</ele>
        <time>2012-01-03T10:02:03Z</time>
      </trkpt>
      <trkpt lat="44.34727" lon="3.93108">
        <ele>733</ele>
        <time>2012-01-03T10:02:04Z</time>
      </trkpt>
      <trkpt lat="44.34729" lon="3.93115">
        <ele>734</ele>
        <time>2012-01-03T10:02:08Z</time>
      </trkpt>
      <trkpt lat="44.34731" lon="3.93124">
        <ele>735</ele>
        <time>2012-01-03T10:02:09Z</time>
      </trkpt>
      <trkpt lat="44.34732" lon="3.93127">
        <ele>736</ele>
        <time>2012-01-03T10:02:10Z</time>
      </trkpt>
      <trkpt lat="44.34737" lon="3.93138">
        <ele>737</ele>
        <time>2012-01-03T10:02:15Z</time>
      </trkpt>
      <trkpt lat="44.34738" lon="3.9314">
        <ele>739</ele>
        <time>2012-01-03T10:02:17Z</time>
      </trkpt>
      <trkpt lat="44.34739" lon="3.93142">
        <ele>740</ele>
        <time>2012-01-03T10:02:18Z</time>
      </trkpt>
      <trkpt lat="44.3474" lon="3.93143">
        <ele>741</ele>
        <time>2012-01-03T10:02:22Z</time>
      </trkpt>
      <trkpt lat="44.34743" lon="3.93145">
        <ele>742</ele>
        <time>2012-01-03T10:02:23Z</time>
      </trkpt>
      <trkpt lat="44.34745" lon="3.93146">
        <ele>743</ele>
        <time>2012-01-03T10:02:24Z</time>
      </trkpt>
      <trkpt lat="44.34746" lon="3.93146">
        <ele>744</ele>
        <time>2012-01-03T10:02:25Z</time>
      </trkpt>
      <trkpt lat="44.34748" lon="3.93147">
        <ele>745</ele>
        <time>2012-01-03T10:02:29Z</time>
      </trkpt>
      <trkpt lat="44.34753" lon="3.93151">
        <ele>746</ele>
        <time>2012-01-03T10:02:30Z</time>
      </trkpt>
      <trkpt lat="44.34762" lon="3.93159">
        <ele>748</ele>
        <time>2012-01-03T10:02:36Z</time>
      </trkpt>
      <trkpt lat="44.34763" lon="3.9316">
        <ele>749</ele>
        <time>2012-01-03T10:02:37Z</time>
      </trkpt>
      <trkpt lat="44.34766" lon="3.93162">
        <ele>750</ele>
        <time>2012-01-03T10:02:42Z</time>
      </trkpt>
      <trkpt lat="44.34774" lon="3.93168">
        <ele>750</ele>
        <time>2012-01-03T10:02:43Z</time>
      </trkpt>
      <trkpt lat="44.34776" lon="3.9317">
        <ele>751</ele>
        <time>2012-01-03T10:02:44Z</time>
      </trkpt>
      <trkpt lat="44.34779" lon="3.93173">
        <ele>752</ele>
        <time>2012-01-03T10:02:48Z</time>
      </trkpt>
      <trkpt lat="44.34784" lon="3.93178">
        <ele>752</ele>
        <time>2012-01-03T10:02:49Z</time>
      </trkpt>
      <trkpt lat="44.34785" lon="3.9318">
        <ele>752</ele>
        <time>2012-01-03T10:02:50Z</time>
      </trkpt>
      <trkpt lat="44.34787" lon="3.93183">
        <ele>752</ele>
        <time>2012-01-03T10:02:51Z</time>
      </trkpt>
      <trkpt lat="44.34791" lon="3.93188">
        <ele>752</ele>
        <time>2012-01-03T10:02:55Z</time>
      </trkpt>
      <trkpt lat="44.34795" lon="3.93195">
        <ele>752</ele>
        <time>2012-01-03T10:02:56Z</time>
      </trkpt>
      <trkpt lat="44.34796" lon="3.93197">
        <ele>752</ele>
        <time>2012-01-03T10:02:57Z</time>
      </trkpt>
      <trkpt lat="44.34803" lon="3.93211">
        <ele>753</ele>
        <time>2012-01-03T10:03:02Z</time>
      </trkpt>
      <trkpt lat="44.34804" lon="3.93214">
        <ele>753</ele>
        <time>2012-01-03T10:03:03Z</time>
      </trkpt>
      <trkpt lat="44.34807" lon="3.9322">
        <ele>754</ele>
        <time>2012-01-03T10:03:08Z</time>
      </trkpt>
      <trkpt lat="44.34811" lon="3.93232">
        <ele>755</ele>
        <time>2012-01-03T10:03:09Z</time>
      </trkpt>
      <trkpt lat="44.34813" lon="3.93235">
        <ele>755</ele>
        <time>2012-01-03T10:03:10Z</time>
      </trkpt>
      <trkpt lat="44.34816" lon="3.9324">
        <ele>756</ele>
        <time>2012-01-03T10:03:14Z</time>
      </trkpt>
      <trkpt lat="44.34817" lon="3.93245">
        <ele>757</ele>
        <time>2012-01-03T10:03:15Z</time>
      </trkpt>
      <trkpt lat="44.34818" lon="3.93247">
        <ele>757</ele>
        <time>2012-01-03T10:03:16Z</time>
      </trkpt>
      <trkpt lat="44.34822" lon="3.93253">
        <ele>758</ele>
        <time>2012-01-03T10:03:21Z</time>
      </trkpt>
      <trkpt lat="44.3482" lon="3.93255">
        <ele>758</ele>
        <time>2012-01-03T10:03:40Z</time>
      </trkpt>
      <trkpt lat="44.34822" lon="3.93253">
        <ele>758</ele>
        <time>2012-01-03T10:03:50Z</time>
      </trkpt>
      <trkpt lat="44.34821" lon="3.93253">
        <ele>758</ele>
        <time>2012-01-03T10:04:02Z</time>
      </trkpt>
      <trkpt lat="44.34822" lon="3.93253">
        <ele>758</ele>
        <time>2012-01-03T10:04:11Z</time>
      </trkpt>
      <trkpt lat="44.34823" lon="3.93256">
        <ele>758</ele>
        <time>2012-01-03T10:04:16Z</time>
      </trkpt>
      <trkpt lat="44.34824" lon="3.93258">
        <ele>759</ele>
        <time>2012-01-03T10:04:23Z</time>
      </trkpt>
      <trkpt lat="44.34823" lon="3.93257">
        <ele>762</ele>
        <time>2012-01-03T10:04:27Z</time>
      </trkpt>
      <trkpt lat="44.34823" lon="3.93261">
        <ele>763</ele>
        <time>2012-01-03T10:04:31Z</time>
      </trkpt>
      <trkpt lat="44.34824" lon="3.93263">
        <ele>764</ele>
        <time>2012-01-03T10:04:33Z</time>
      </trkpt>
      <trkpt lat="44.34823" lon="3.93262">
        <ele>768</ele>
        <time>2012-01-03T10:04:39Z</time>
      </trkpt>
      <trkpt lat="44.34825" lon="3.93263">
        <ele>769</ele>
        <time>2012-01-03T10:04:42Z</time>
      </trkpt>
      <trkpt lat="44.34826" lon="3.93264">
        <ele>769</ele>
        <time>2012-01-03T10:04:46Z</time>
      </trkpt>
      <trkpt lat="44.34827" lon="3.93265">
        <ele>769</ele>
        <time>2012-01-03T10:04:48Z</time>
      </trkpt>
      <trkpt lat="44.34828" lon="3.93263">
        <ele>767</ele>
        <time>2012-01-03T10:04:51Z</time>
      </trkpt>
      <trkpt lat="44.34827" lon="3.93261">
        <ele>766</ele>
        <time>2012-01-03T10:04:53Z</time>
      </trkpt>
      <trkpt lat="44.34826" lon="3.9326">
        <ele>766</ele>
        <time>2012-01-03T10:04:55Z</time>
      </trkpt>
      <trkpt lat="44.34827" lon="3.93258">
        <ele>766</ele>
        <time>2012-01-03T10:04:59Z</time>
      </trkpt>
      <trkpt lat="44.3483" lon="3.93258">
        <ele>766</ele>
        <time>2012-01-03T10:05:01Z</time>
      </trkpt>
      <trkpt lat="44.34832" lon="3.93259">
        <ele>766</ele>
        <time>2012-01-03T10:05:02Z</time>
      </trkpt>
      <trkpt lat="44.34833" lon="3.9326">
        <ele>766</ele>
        <time>2012-01-03T10:05:03Z</time>
      </trkpt>
      <trkpt lat="44.34835" lon="3.93261">
        <ele>766</ele>
        <time>2012-01-03T10:05:04Z</time>
      </trkpt>
      <trkpt lat="44.34836" lon="3.93262">
        <ele>766</ele>
        <time>2012-01-03T10:05:05Z</time>
      </trkpt>
      <trkpt lat="44.34838" lon="3.93264">
        <ele>766</ele>
        <time>2012-01-03T10:05:07Z</time>
      </trkpt>
      <trkpt lat="44.3484" lon="3.93265">
        <ele>766</ele>
        <time>2012-01-03T10:05:08Z</time>
      </trkpt>
      <trkpt lat="44.34841" lon="3.93267">
        <ele>766</ele>
        <time>2012-01-03T10:05:09Z</time>
      </trkpt>
      <trkpt lat="44.34844" lon="3.9327">
        <ele>766</ele>
        <time>2012-01-03T10:05:13Z</time>
      </trkpt>
      <trkpt lat="44.3485" lon="3.93277">
        <ele>766</ele>
        <time>2012-01-03T10:05:17Z</time>
      </trkpt>
      <trkpt lat="44.34855" lon="3.93279">
        <ele>766</ele>
        <time>2012-01-03T10:05:18Z</time>
      </trkpt>
      <trkpt lat="44.34857" lon="3.9328">
        <ele>766</ele>
        <time>2012-01-03T10:05:19Z</time>
      </trkpt>
      <trkpt lat="44.34865" lon="3.93283">
        <ele>766</ele>
        <time>2012-01-03T10:05:24Z</time>
      </trkpt>
      <trkpt lat="44.34867" lon="3.93283">
        <ele>766</ele>
        <time>2012-01-03T10:05:25Z</time>
      </trkpt>
      <trkpt lat="44.34869" lon="3.93284">
        <ele>766</ele>
        <time>2012-01-03T10:05:26Z</time>
      </trkpt>
      <trkpt lat="44.34874" lon="3.93286">
        <ele>767</ele>
        <time>2012-01-03T10:05:30Z</time>
      </trkpt>
      <trkpt lat="44.3488" lon="3.93289">
        <ele>768</ele>
        <time>2012-01-03T10:05:31Z</time>
      </trkpt>
      <trkpt lat="44.34882" lon="3.9329">
        <ele>769</ele>
        <time>2012-01-03T10:05:32Z</time>
      </trkpt>
      <trkpt lat="44.34893" lon="3.93293">
        <ele>770</ele>
        <time>2012-01-03T10:05:37Z</time>
      </trkpt>
      <trkpt lat="44.34895" lon="3.93293">
        <ele>770</ele>
        <time>2012-01-03T10:05:38Z</time>
      </trkpt>
      <trkpt lat="44.34898" lon="3.93294">
        <ele>771</ele>
        <time>2012-01-03T10:05:39Z</time>
      </trkpt>
      <trkpt lat="44.34903" lon="3.93296">
        <ele>772</ele>
        <time>2012-01-03T10:05:43Z</time>
      </trkpt>
      <trkpt lat="44.3491" lon="3.93299">
        <ele>772</ele>
        <time>2012-01-03T10:05:44Z</time>
      </trkpt>
      <trkpt lat="44.34912" lon="3.933">
        <ele>772</ele>
        <time>2012-01-03T10:05:45Z</time>
      </trkpt>
      <trkpt lat="44.34917" lon="3.93301">
        <ele>772</ele>
        <time>2012-01-03T10:05:50Z</time>
      </trkpt>
      <trkpt lat="44.34927" lon="3.93305">
        <ele>773</ele>
        <time>2012-01-03T10:05:51Z</time>
      </trkpt>
      <trkpt lat="44.34929" lon="3.93306">
        <ele>773</ele>
        <time>2012-01-03T10:05:52Z</time>
      </trkpt>
      <trkpt lat="44.34934" lon="3.93308">
        <ele>774</ele>
        <time>2012-01-03T10:05:56Z</time>
      </trkpt>
      <trkpt lat="44.34943" lon="3.93311">
        <ele>775</ele>
        <time>2012-01-03T10:05:57Z</time>
      </trkpt>
      <trkpt lat="44.34945" lon="3.93312">
        <ele>776</ele>
        <time>2012-01-03T10:05:58Z</time>
      </trkpt>
      <trkpt lat="44.3495" lon="3.93314">
        <ele>777</ele>
        <time>2012-01-03T10:06:03Z</time>
      </trkpt>
      <trkpt lat="44.34959" lon="3.93317">
        <ele>778</ele>
        <time>2012-01-03T10:06:04Z</time>
      </trkpt>
      <trkpt lat="44.34962" lon="3.93318">
        <ele>779</ele>
        <time>2012-01-03T10:06:05Z</time>
      </trkpt>
      <trkpt lat="44.34967" lon="3.9332">
        <ele>780</ele>
        <time>2012-01-03T10:06:09Z</time>
      </trkpt>
      <trkpt lat="44.34972" lon="3.93322">
        <ele>780</ele>
        <time>2012-01-03T10:06:10Z</time>
      </trkpt>
      <trkpt lat="44.34974" lon="3.93321">
        <ele>781</ele>
        <time>2012-01-03T10:06:11Z</time>
      </trkpt>
      <trkpt lat="44.34976" lon="3.93322">
        <ele>781</ele>
        <time>2012-01-03T10:06:12Z</time>
      </trkpt>
      <trkpt lat="44.3498" lon="3.93322">
        <ele>781</ele>
        <time>2012-01-03T10:06:16Z</time>
      </trkpt>
      <trkpt lat="44.34986" lon="3.93323">
        <ele>781</ele>
        <time>2012-01-03T10:06:17Z</time>
      </trkpt>
      <trkpt lat="44.34989" lon="3.93324">
        <ele>781</ele>
        <time>2012-01-03T10:06:18Z</time>
      </trkpt>
      <trkpt lat="44.34994" lon="3.93325">
        <ele>781</ele>
        <time>2012-01-03T10:06:23Z</time>
      </trkpt>
      <trkpt lat="44.35004" lon="3.93327">
        <ele>781</ele>
        <time>2012-01-03T10:06:24Z</time>
      </trkpt>
      <trkpt lat="44.35007" lon="3.93327">
        <ele>781</ele>
        <time>2012-01-03T10:06:25Z</time>
      </trkpt>
      <trkpt lat="44.35012" lon="3.93329">
        <ele>781</ele>
        <time>2012-01-03T10:06:29Z</time>
      </trkpt>
      <trkpt lat="44.35019" lon="3.93332">
        <ele>781</ele>
        <time>2012-01-03T10:06:30Z</time>
      </trkpt>
      <trkpt lat="44.35021" lon="3.93332">
        <ele>781</ele>
        <time>2012-01-03T10:06:31Z</time>
      </trkpt>
      <trkpt lat="44.35025" lon="3.93335">
        <ele>781</ele>
        <time>2012-01-03T10:06:36Z</time>
      </trkpt>
      <trkpt lat="44.35034" lon="3.93338">
        <ele>781</ele>
        <time>2012-01-03T10:06:37Z</time>
      </trkpt>
      <trkpt lat="44.35036" lon="3.93338">
        <ele>781</ele>
        <time>2012-01-03T10:06:38Z</time>
      </trkpt>
      <trkpt lat="44.35042" lon="3.9334">
        <ele>782</ele>
        <time>2012-01-03T10:06:42Z</time>
      </trkpt>
      <trkpt lat="44.35051" lon="3.93338">
        <ele>782</ele>
        <time>2012-01-03T10:06:43Z</time>
      </trkpt>
      <trkpt lat="44.35053" lon="3.93338">
        <ele>782</ele>
        <time>2012-01-03T10:06:44Z</time>
      </trkpt>
      <trkpt lat="44.35056" lon="3.93338">
        <ele>782</ele>
        <time>2012-01-03T10:06:45Z</time>
      </trkpt>
      <trkpt lat="44.35069" lon="3.93335">
        <ele>782</ele>
        <time>2012-01-03T10:06:50Z</time>
      </trkpt>
      <trkpt lat="44.35072" lon="3.93334">
        <ele>782</ele>
        <time>2012-01-03T10:06:51Z</time>
      </trkpt>
      <trkpt lat="44.35074" lon="3.93334">
        <ele>782</ele>
        <time>2012-01-03T10:06:52Z</time>
      </trkpt>
      <trkpt lat="44.35087" lon="3.93332">
        <ele>782</ele>
        <time>2012-01-03T10:06:57Z</time>
      </trkpt>
      <trkpt lat="44.3509" lon="3.93333">
        <ele>782</ele>
        <time>2012-01-03T10:06:58Z</time>
      </trkpt>
      <trkpt lat="44.35095" lon="3.93333">
        <ele>782</ele>
        <time>2012-01-03T10:07:03Z</time>
      </trkpt>
      <trkpt lat="44.35106" lon="3.93331">
        <ele>782</ele>
        <time>2012-01-03T10:07:04Z</time>
      </trkpt>
      <trkpt lat="44.35109" lon="3.93329">
        <ele>782</ele>
        <time>2012-01-03T10:07:05Z</time>
      </trkpt>
      <trkpt lat="44.35121" lon="3.9332">
        <ele>782</ele>
        <time>2012-01-03T10:07:10Z</time>
      </trkpt>
      <trkpt lat="44.35123" lon="3.93319">
        <ele>782</ele>
        <time>2012-01-03T10:07:11Z</time>
      </trkpt>
      <trkpt lat="44.35125" lon="3.93316">
        <ele>782</ele>
        <time>2012-01-03T10:07:12Z</time>
      </trkpt>
      <trkpt lat="44.3513" lon="3.93311">
        <ele>782</ele>
        <time>2012-01-03T10:07:16Z</time>
      </trkpt>
      <trkpt lat="44.35137" lon="3.93304">
        <ele>782</ele>
        <time>2012-01-03T10:07:17Z</time>
      </trkpt>
      <trkpt lat="44.35138" lon="3.93302">
        <ele>782</ele>
        <time>2012-01-03T10:07:18Z</time>
      </trkpt>
      <trkpt lat="44.3514" lon="3.93299">
        <ele>782</ele>
        <time>2012-01-03T10:07:19Z</time>
      </trkpt>
      <trkpt lat="44.35144" lon="3.93294">
        <ele>781</ele>
        <time>2012-01-03T10:07:23Z</time>
      </trkpt>
      <trkpt lat="44.3515" lon="3.93286">
        <ele>781</ele>
        <time>2012-01-03T10:07:24Z</time>
      </trkpt>
      <trkpt lat="44.35152" lon="3.93284">
        <ele>781</ele>
        <time>2012-01-03T10:07:25Z</time>
      </trkpt>
      <trkpt lat="44.35154" lon="3.9328">
        <ele>781</ele>
        <time>2012-01-03T10:07:30Z</time>
      </trkpt>
      <trkpt lat="44.35159" lon="3.93272">
        <ele>781</ele>
        <time>2012-01-03T10:07:31Z</time>
      </trkpt>
      <trkpt lat="44.3516" lon="3.93269">
        <ele>781</ele>
        <time>2012-01-03T10:07:32Z</time>
      </trkpt>
      <trkpt lat="44.35162" lon="3.93264">
        <ele>781</ele>
        <time>2012-01-03T10:07:37Z</time>
      </trkpt>
      <trkpt lat="44.35163" lon="3.93249">
        <ele>781</ele>
        <time>2012-01-03T10:07:38Z</time>
      </trkpt>
      <trkpt lat="44.35162" lon="3.93247">
        <ele>781</ele>
        <time>2012-01-03T10:07:39Z</time>
      </trkpt>
      <trkpt lat="44.35161" lon="3.93243">
        <ele>781</ele>
        <time>2012-01-03T10:07:40Z</time>
      </trkpt>
      <trkpt lat="44.3516" lon="3.93241">
        <ele>781</ele>
        <time>2012-01-03T10:07:41Z</time>
      </trkpt>
      <trkpt lat="44.35156" lon="3.93235">
        <ele>781</ele>
        <time>2012-01-03T10:07:46Z</time>
      </trkpt>
      <trkpt lat="44.35148" lon="3.93231">
        <ele>781</ele>
        <time>2012-01-03T10:07:47Z</time>
      </trkpt>
      <trkpt lat="44.35146" lon="3.9323">
        <ele>781</ele>
        <time>2012-01-03T10:07:48Z</time>
      </trkpt>
      <trkpt lat="44.35144" lon="3.93229">
        <ele>781</ele>
        <time>2012-01-03T10:07:49Z</time>
      </trkpt>
      <trkpt lat="44.35138" lon="3.93227">
        <ele>781</ele>
        <time>2012-01-03T10:07:54Z</time>
      </trkpt>
      <trkpt lat="44.35128" lon="3.93227">
        <ele>781</ele>
        <time>2012-01-03T10:07:55Z</time>
      </trkpt>
      <trkpt lat="44.35125" lon="3.93226">
        <ele>781</ele>
        <time>2012-01-03T10:07:56Z</time>
      </trkpt>
      <trkpt lat="44.3512" lon="3.93225">
        <ele>781</ele>
        <time>2012-01-03T10:08:00Z</time>
      </trkpt>
      <trkpt lat="44.35114" lon="3.93222">
        <ele>781</ele>
        <time>2012-01-03T10:08:01Z</time>
      </trkpt>
      <trkpt lat="44.35111" lon="3.93221">
        <ele>781</ele>
        <time>2012-01-03T10:08:02Z</time>
      </trkpt>
      <trkpt lat="44.35107" lon="3.93219">
        <ele>781</ele>
        <time>2012-01-03T10:08:07Z</time>
      </trkpt>
      <trkpt lat="44.35095" lon="3.93215">
        <ele>781</ele>
        <time>2012-01-03T10:08:08Z</time>
      </trkpt>
      <trkpt lat="44.35093" lon="3.93214">
        <ele>782</ele>
        <time>2012-01-03T10:08:09Z</time>
      </trkpt>
      <trkpt lat="44.35087" lon="3.93212">
        <ele>782</ele>
        <time>2012-01-03T10:08:14Z</time>
      </trkpt>
      <trkpt lat="44.35076" lon="3.93209">
        <ele>782</ele>
        <time>2012-01-03T10:08:15Z</time>
      </trkpt>
      <trkpt lat="44.35073" lon="3.93208">
        <ele>782</ele>
        <time>2012-01-03T10:08:16Z</time>
      </trkpt>
      <trkpt lat="44.35069" lon="3.93207">
        <ele>783</ele>
        <time>2012-01-03T10:08:20Z</time>
      </trkpt>
      <trkpt lat="44.35064" lon="3.93205">
        <ele>783</ele>
        <time>2012-01-03T10:08:21Z</time>
      </trkpt>
      <trkpt lat="44.35062" lon="3.93204">
        <ele>784</ele>
        <time>2012-01-03T10:08:22Z</time>
      </trkpt>
      <trkpt lat="44.35061" lon="3.93203">
        <ele>785</ele>
        <time>2012-01-03T10:08:23Z</time>
      </trkpt>
      <trkpt lat="44.35053" lon="3.93193">
        <ele>785</ele>
        <time>2012-01-03T10:08:28Z</time>
      </trkpt>
      <trkpt lat="44.35051" lon="3.9319">
        <ele>786</ele>
        <time>2012-01-03T10:08:29Z</time>
      </trkpt>
      <trkpt lat="44.35049" lon="3.93188">
        <ele>787</ele>
        <time>2012-01-03T10:08:30Z</time>
      </trkpt>
      <trkpt lat="44.35047" lon="3.93184">
        <ele>788</ele>
        <time>2012-01-03T10:08:35Z</time>
      </trkpt>
      <trkpt lat="44.35041" lon="3.93174">
        <ele>789</ele>
        <time>2012-01-03T10:08:36Z</time>
      </trkpt>
      <trkpt lat="44.3504" lon="3.93171">
        <ele>790</ele>
        <time>2012-01-03T10:08:37Z</time>
      </trkpt>
      <trkpt lat="44.35033" lon="3.93157">
        <ele>791</ele>
        <time>2012-01-03T10:08:42Z</time>
      </trkpt>
      <trkpt lat="44.35032" lon="3.93154">
        <ele>792</ele>
        <time>2012-01-03T10:08:43Z</time>
      </trkpt>
      <trkpt lat="44.3503" lon="3.93148">
        <ele>793</ele>
        <time>2012-01-03T10:08:48Z</time>
      </trkpt>
      <trkpt lat="44.35028" lon="3.93137">
        <ele>794</ele>
        <time>2012-01-03T10:08:49Z</time>
      </trkpt>
      <trkpt lat="44.35026" lon="3.93135">
        <ele>795</ele>
        <time>2012-01-03T10:08:50Z</time>
      </trkpt>
      <trkpt lat="44.35025" lon="3.93133">
        <ele>795</ele>
        <time>2012-01-03T10:08:51Z</time>
      </trkpt>
      <trkpt lat="44.35016" lon="3.93122">
        <ele>795</ele>
        <time>2012-01-03T10:08:56Z</time>
      </trkpt>
      <trkpt lat="44.35014" lon="3.9312">
        <ele>795</ele>
        <time>2012-01-03T10:08:57Z</time>
      </trkpt>
      <trkpt lat="44.35012" lon="3.93119">
        <ele>795</ele>
        <time>2012-01-03T10:08:58Z</time>
      </trkpt>
      <trkpt lat="44.35009" lon="3.93116">
        <ele>795</ele>
        <time>2012-01-03T10:09:04Z</time>
      </trkpt>
      <trkpt lat="44.35002" lon="3.93107">
        <ele>795</ele>
        <time>2012-01-03T10:09:05Z</time>
      </trkpt>
      <trkpt lat="44.35001" lon="3.93104">
        <ele>795</ele>
        <time>2012-01-03T10:09:06Z</time>
      </trkpt>
      <trkpt lat="44.34998" lon="3.93101">
        <ele>795</ele>
        <time>2012-01-03T10:09:11Z</time>
      </trkpt>
      <trkpt lat="44.3499" lon="3.93095">
        <ele>795</ele>
        <time>2012-01-03T10:09:12Z</time>
      </trkpt>
      <trkpt lat="44.34988" lon="3.93094">
        <ele>795</ele>
        <time>2012-01-03T10:09:13Z</time>
      </trkpt>
      <trkpt lat="44.34979" lon="3.93087">
        <ele>795</ele>
        <time>2012-01-03T10:09:18Z</time>
      </trkpt>
      <trkpt lat="44.34978" lon="3.93085">
        <ele>795</ele>
        <time>2012-01-03T10:09:19Z</time>
      </trkpt>
      <trkpt lat="44.34977" lon="3.93084">
        <ele>795</ele>
        <time>2012-01-03T10:09:20Z</time>
      </trkpt>
      <trkpt lat="44.34969" lon="3.93078">
        <ele>795</ele>
        <time>2012-01-03T10:09:25Z</time>
      </trkpt>
      <trkpt lat="44.34967" lon="3.93077">
        <ele>795</ele>
        <time>2012-01-03T10:09:26Z</time>
      </trkpt>
      <trkpt lat="44.34965" lon="3.93075">
        <ele>795</ele>
        <time>2012-01-03T10:09:27Z</time>
      </trkpt>
      <trkpt lat="44.34963" lon="3.93074">
        <ele>795</ele>
        <time>2012-01-03T10:09:28Z</time>
      </trkpt>
      <trkpt lat="44.34959" lon="3.93071">
        <ele>795</ele>
        <time>2012-01-03T10:09:33Z</time>
      </trkpt>
      <trkpt lat="44.34954" lon="3.93066">
        <ele>795</ele>
        <time>2012-01-03T10:09:34Z</time>
      </trkpt>
      <trkpt lat="44.34952" lon="3.93064">
        <ele>795</ele>
        <time>2012-01-03T10:09:35Z</time>
      </trkpt>
      <trkpt lat="44.34943" lon="3.93054">
        <ele>795</ele>
        <time>2012-01-03T10:09:40Z</time>
      </trkpt>
      <trkpt lat="44.34942" lon="3.93052">
        <ele>795</ele>
        <time>2012-01-03T10:09:41Z</time>
      </trkpt>
      <trkpt lat="44.3494" lon="3.9305">
        <ele>796</ele>
        <time>2012-01-03T10:09:42Z</time>
      </trkpt>
      <trkpt lat="44.34933" lon="3.93039">
        <ele>797</ele>
        <time>2012-01-03T10:09:47Z</time>
      </trkpt>
      <trkpt lat="44.34932" lon="3.93037">
        <ele>797</ele>
        <time>2012-01-03T10:09:48Z</time>
      </trkpt>
      <trkpt lat="44.34931" lon="3.93035">
        <ele>798</ele>
        <time>2012-01-03T10:09:49Z</time>
      </trkpt>
      <trkpt lat="44.3493" lon="3.93033">
        <ele>798</ele>
        <time>2012-01-03T10:09:50Z</time>
      </trkpt>
      <trkpt lat="44.34923" lon="3.93023">
        <ele>799</ele>
        <time>2012-01-03T10:09:55Z</time>
      </trkpt>
      <trkpt lat="44.34922" lon="3.93021">
        <ele>800</ele>
        <time>2012-01-03T10:09:56Z</time>
      </trkpt>
      <trkpt lat="44.3492" lon="3.93019">
        <ele>801</ele>
        <time>2012-01-03T10:09:57Z</time>
      </trkpt>
      <trkpt lat="44.34917" lon="3.93016">
        <ele>802</ele>
        <time>2012-01-03T10:10:02Z</time>
      </trkpt>
      <trkpt lat="44.3491" lon="3.93008">
        <ele>803</ele>
        <time>2012-01-03T10:10:03Z</time>
      </trkpt>
      <trkpt lat="44.34908" lon="3.93006">
        <ele>804</ele>
        <time>2012-01-03T10:10:04Z</time>
      </trkpt>
      <trkpt lat="44.34904" lon="3.93003">
        <ele>804</ele>
        <time>2012-01-03T10:10:09Z</time>
      </trkpt>
      <trkpt lat="44.34899" lon="3.92997">
        <ele>805</ele>
        <time>2012-01-03T10:10:10Z</time>
      </trkpt>
      <trkpt lat="44.34897" lon="3.92995">
        <ele>806</ele>
        <time>2012-01-03T10:10:11Z</time>
      </trkpt>
      <trkpt lat="44.34888" lon="3.92985">
        <ele>806</ele>
        <time>2012-01-03T10:10:16Z</time>
      </trkpt>
      <trkpt lat="44.34885" lon="3.92983">
        <ele>807</ele>
        <time>2012-01-03T10:10:17Z</time>
      </trkpt>
      <trkpt lat="44.34884" lon="3.92981">
        <ele>808</ele>
        <time>2012-01-03T10:10:18Z</time>
      </trkpt>
      <trkpt lat="44.3488" lon="3.92979">
        <ele>809</ele>
        <time>2012-01-03T10:10:23Z</time>
      </trkpt>
      <trkpt lat="44.34874" lon="3.92972">
        <ele>810</ele>
        <time>2012-01-03T10:10:24Z</time>
      </trkpt>
      <trkpt lat="44.34872" lon="3.9297">
        <ele>811</ele>
        <time>2012-01-03T10:10:25Z</time>
      </trkpt>
      <trkpt lat="44.3487" lon="3.92967">
        <ele>812</ele>
        <time>2012-01-03T10:10:26Z</time>
      </trkpt>
      <trkpt lat="44.34868" lon="3.92961">
        <ele>813</ele>
        <time>2012-01-03T10:10:31Z</time>
      </trkpt>
      <trkpt lat="44.34866" lon="3.9295">
        <ele>813</ele>
        <time>2012-01-03T10:10:32Z</time>
      </trkpt>
      <trkpt lat="44.34866" lon="3.92947">
        <ele>813</ele>
        <time>2012-01-03T10:10:33Z</time>
      </trkpt>
      <trkpt lat="44.34866" lon="3.92943">
        <ele>813</ele>
        <time>2012-01-03T10:10:39Z</time>
      </trkpt>
      <trkpt lat="44.34863" lon="3.92933">
        <ele>813</ele>
        <time>2012-01-03T10:10:40Z</time>
      </trkpt>
      <trkpt lat="44.34863" lon="3.9293">
        <ele>813</ele>
        <time>2012-01-03T10:10:41Z</time>
      </trkpt>
      <trkpt lat="44.34861" lon="3.92927">
        <ele>813</ele>
        <time>2012-01-03T10:10:42Z</time>
      </trkpt>
      <trkpt lat="44.34861" lon="3.9292">
        <ele>813</ele>
        <time>2012-01-03T10:10:47Z</time>
      </trkpt>
      <trkpt lat="44.34858" lon="3.92907">
        <ele>813</ele>
        <time>2012-01-03T10:10:48Z</time>
      </trkpt>
      <trkpt lat="44.34857" lon="3.92902">
        <ele>813</ele>
        <time>2012-01-03T10:10:49Z</time>
      </trkpt>
      <trkpt lat="44.34855" lon="3.92896">
        <ele>813</ele>
        <time>2012-01-03T10:10:54Z</time>
      </trkpt>
      <trkpt lat="44.34849" lon="3.92884">
        <ele>813</ele>
        <time>2012-01-03T10:10:55Z</time>
      </trkpt>
      <trkpt lat="44.34847" lon="3.92881">
        <ele>813</ele>
        <time>2012-01-03T10:10:56Z</time>
      </trkpt>
      <trkpt lat="44.34844" lon="3.92875">
        <ele>813</ele>
        <time>2012-01-03T10:11:01Z</time>
      </trkpt>
      <trkpt lat="44.34838" lon="3.92867">
        <ele>813</ele>
        <time>2012-01-03T10:11:02Z</time>
      </trkpt>
      <trkpt lat="44.34835" lon="3.92864">
        <ele>813</ele>
        <time>2012-01-03T10:11:03Z</time>
      </trkpt>
      <trkpt lat="44.34833" lon="3.92862">
        <ele>813</ele>
        <time>2012-01-03T10:11:04Z</time>
      </trkpt>
      <trkpt lat="44.34821" lon="3.92851">
        <ele>813</ele>
        <time>2012-01-03T10:11:10Z</time>
      </trkpt>
      <trkpt lat="44.3482" lon="3.92849">
        <ele>814</ele>
        <time>2012-01-03T10:11:12Z</time>
      </trkpt>
      <trkpt lat="44.34819" lon="3.92847">
        <ele>814</ele>
        <time>2012-01-03T10:11:17Z</time>
      </trkpt>
      <trkpt lat="44.3482" lon="3.92846">
        <ele>814</ele>
        <time>2012-01-03T10:11:20Z</time>
      </trkpt>
      <trkpt lat="44.34818" lon="3.92844">
        <ele>814</ele>
        <time>2012-01-03T10:11:22Z</time>
      </trkpt>
      <trkpt lat="44.34816" lon="3.92842">
        <ele>814</ele>
        <time>2012-01-03T10:11:25Z</time>
      </trkpt>
      <trkpt lat="44.34818" lon="3.92844">
        <ele>814</ele>
        <time>2012-01-03T10:11:29Z</time>
      </trkpt>
      <trkpt lat="44.34819" lon="3.92846">
        <ele>814</ele>
        <time>2012-01-03T10:11:35Z</time>
      </trkpt>
      <trkpt lat="44.34817" lon="3.92845">
        <ele>814</ele>
        <time>2012-01-03T10:11:45Z</time>
      </trkpt>
      <trkpt lat="44.34816" lon="3.92844">
        <ele>814</ele>
        <time>2012-01-03T10:11:47Z</time>
      </trkpt>
      <trkpt lat="44.34815" lon="3.92845">
        <ele>814</ele>
        <time>2012-01-03T10:11:50Z</time>
      </trkpt>
      <trkpt lat="44.34815" lon="3.92846">
        <ele>816</ele>
        <time>2012-01-03T10:11:53Z</time>
      </trkpt>
      <trkpt lat="44.34816" lon="3.92848">
        <ele>818</ele>
        <time>2012-01-03T10:12:03Z</time>
      </trkpt>
      <trkpt lat="44.34817" lon="3.92849">
        <ele>819</ele>
        <time>2012-01-03T10:12:08Z</time>
      </trkpt>
      <trkpt lat="44.34818" lon="3.9285">
        <ele>820</ele>
        <time>2012-01-03T10:12:14Z</time>
      </trkpt>
      <trkpt lat="44.34819" lon="3.92845">
        <ele>821</ele>
        <time>2012-01-03T10:12:22Z</time>
      </trkpt>
      <trkpt lat="44.3482" lon="3.92843">
        <ele>821</ele>
        <time>2012-01-03T10:12:23Z</time>
      </trkpt>
      <trkpt lat="44.34822" lon="3.9284">
        <ele>821</ele>
        <time>2012-01-03T10:12:24Z</time>
      </trkpt>
      <trkpt lat="44.34836" lon="3.92845">
        <ele>821</ele>
        <time>2012-01-03T10:12:30Z</time>
      </trkpt>
      <trkpt lat="44.34837" lon="3.92848">
        <ele>821</ele>
        <time>2012-01-03T10:12:31Z</time>
      </trkpt>
      <trkpt lat="44.34839" lon="3.92851">
        <ele>821</ele>
        <time>2012-01-03T10:12:32Z</time>
      </trkpt>
      <trkpt lat="44.34842" lon="3.92857">
        <ele>821</ele>
        <time>2012-01-03T10:12:37Z</time>
      </trkpt>
      <trkpt lat="44.34847" lon="3.92868">
        <ele>821</ele>
        <time>2012-01-03T10:12:38Z</time>
      </trkpt>
      <trkpt lat="44.34849" lon="3.92871">
        <ele>821</ele>
        <time>2012-01-03T10:12:39Z</time>
      </trkpt>
      <trkpt lat="44.34854" lon="3.92887">
        <ele>821</ele>
        <time>2012-01-03T10:12:44Z</time>
      </trkpt>
      <trkpt lat="44.34856" lon="3.9289">
        <ele>821</ele>
        <time>2012-01-03T10:12:45Z</time>
      </trkpt>
      <trkpt lat="44.34856" lon="3.92892">
        <ele>821</ele>
        <time>2012-01-03T10:12:46Z</time>
      </trkpt>
      <trkpt lat="44.34858" lon="3.92895">
        <ele>821</ele>
        <time>2012-01-03T10:12:51Z</time>
      </trkpt>
      <trkpt lat="44.34864" lon="3.92905">
        <ele>821</ele>
        <time>2012-01-03T10:12:52Z</time>
      </trkpt>
      <trkpt lat="44.34865" lon="3.92909">
        <ele>821</ele>
        <time>2012-01-03T10:12:53Z</time>
      </trkpt>
      <trkpt lat="44.34868" lon="3.92916">
        <ele>821</ele>
        <time>2012-01-03T10:12:58Z</time>
      </trkpt>
      <trkpt lat="44.34876" lon="3.92928">
        <ele>821</ele>
        <time>2012-01-03T10:12:59Z</time>
      </trkpt>
      <trkpt lat="44.34878" lon="3.92931">
        <ele>821</ele>
        <time>2012-01-03T10:13:00Z</time>
      </trkpt>
      <trkpt lat="44.34889" lon="3.92942">
        <ele>821</ele>
        <time>2012-01-03T10:13:05Z</time>
      </trkpt>
      <trkpt lat="44.34891" lon="3.92943">
        <ele>821</ele>
        <time>2012-01-03T10:13:06Z</time>
      </trkpt>
      <trkpt lat="44.34893" lon="3.92944">
        <ele>821</ele>
        <time>2012-01-03T10:13:07Z</time>
      </trkpt>
      <trkpt lat="44.34899" lon="3.92945">
        <ele>822</ele>
        <time>2012-01-03T10:13:12Z</time>
      </trkpt>
      <trkpt lat="44.34908" lon="3.92945">
        <ele>823</ele>
        <time>2012-01-03T10:13:13Z</time>
      </trkpt>
      <trkpt lat="44.3491" lon="3.92945">
        <ele>824</ele>
        <time>2012-01-03T10:13:14Z</time>
      </trkpt>
      <trkpt lat="44.34916" lon="3.92946">
        <ele>825</ele>
        <time>2012-01-03T10:13:19Z</time>
      </trkpt>
      <trkpt lat="44.34924" lon="3.92946">
        <ele>826</ele>
        <time>2012-01-03T10:13:20Z</time>
      </trkpt>
      <trkpt lat="44.34927" lon="3.92947">
        <ele>826</ele>
        <time>2012-01-03T10:13:21Z</time>
      </trkpt>
      <trkpt lat="44.34931" lon="3.92947">
        <ele>827</ele>
        <time>2012-01-03T10:13:24Z</time>
      </trkpt>
      <trkpt lat="44.34934" lon="3.9295">
        <ele>828</ele>
        <time>2012-01-03T10:13:28Z</time>
      </trkpt>
      <trkpt lat="44.3494" lon="3.92951">
        <ele>829</ele>
        <time>2012-01-03T10:13:34Z</time>
      </trkpt>
      <trkpt lat="44.34948" lon="3.92954">
        <ele>830</ele>
        <time>2012-01-03T10:13:35Z</time>
      </trkpt>
      <trkpt lat="44.34952" lon="3.92955">
        <ele>831</ele>
        <time>2012-01-03T10:13:40Z</time>
      </trkpt>
      <trkpt lat="44.3496" lon="3.92957">
        <ele>832</ele>
        <time>2012-01-03T10:13:41Z</time>
      </trkpt>
      <trkpt lat="44.34961" lon="3.92958">
        <ele>832</ele>
        <time>2012-01-03T10:13:42Z</time>
      </trkpt>
      <trkpt lat="44.34965" lon="3.92959">
        <ele>833</ele>
        <time>2012-01-03T10:13:47Z</time>
      </trkpt>
      <trkpt lat="44.34974" lon="3.92964">
        <ele>833</ele>
        <time>2012-01-03T10:13:48Z</time>
      </trkpt>
      <trkpt lat="44.34976" lon="3.92965">
        <ele>834</ele>
        <time>2012-01-03T10:13:49Z</time>
      </trkpt>
      <trkpt lat="44.3498" lon="3.92967">
        <ele>835</ele>
        <time>2012-01-03T10:13:54Z</time>
      </trkpt>
      <trkpt lat="44.34988" lon="3.92972">
        <ele>836</ele>
        <time>2012-01-03T10:13:55Z</time>
      </trkpt>
      <trkpt lat="44.3499" lon="3.92973">
        <ele>837</ele>
        <time>2012-01-03T10:13:56Z</time>
      </trkpt>
      <trkpt lat="44.34996" lon="3.92976">
        <ele>838</ele>
        <time>2012-01-03T10:14:01Z</time>
      </trkpt>
      <trkpt lat="44.35004" lon="3.9298">
        <ele>839</ele>
        <time>2012-01-03T10:14:02Z</time>
      </trkpt>
      <trkpt lat="44.35007" lon="3.9298">
        <ele>839</ele>
        <time>2012-01-03T10:14:03Z</time>
      </trkpt>
      <trkpt lat="44.35012" lon="3.92981">
        <ele>839</ele>
        <time>2012-01-03T10:14:08Z</time>
      </trkpt>
      <trkpt lat="44.35019" lon="3.92981">
        <ele>839</ele>
        <time>2012-01-03T10:14:09Z</time>
      </trkpt>
      <trkpt lat="44.35021" lon="3.92981">
        <ele>839</ele>
        <time>2012-01-03T10:14:10Z</time>
      </trkpt>
      <trkpt lat="44.35024" lon="3.92981">
        <ele>840</ele>
        <time>2012-01-03T10:14:15Z</time>
      </trkpt>
      <trkpt lat="44.35032" lon="3.9298">
        <ele>840</ele>
        <time>2012-01-03T10:14:16Z</time>
      </trkpt>
      <trkpt lat="44.35034" lon="3.9298">
        <ele>840</ele>
        <time>2012-01-03T10:14:17Z</time>
      </trkpt>
      <trkpt lat="44.35036" lon="3.92979">
        <ele>840</ele>
        <time>2012-01-03T10:14:18Z</time>
      </trkpt>
      <trkpt lat="44.35041" lon="3.92978">
        <ele>840</ele>
        <time>2012-01-03T10:14:23Z</time>
      </trkpt>
      <trkpt lat="44.35049" lon="3.92976">
        <ele>840</ele>
        <time>2012-01-03T10:14:24Z</time>
      </trkpt>
      <trkpt lat="44.35051" lon="3.92975">
        <ele>840</ele>
        <time>2012-01-03T10:14:25Z</time>
      </trkpt>
      <trkpt lat="44.35055" lon="3.92975">
        <ele>840</ele>
        <time>2012-01-03T10:14:30Z</time>
      </trkpt>
      <trkpt lat="44.35064" lon="3.92972">
        <ele>840</ele>
        <time>2012-01-03T10:14:31Z</time>
      </trkpt>
      <trkpt lat="44.35066" lon="3.92971">
        <ele>840</ele>
        <time>2012-01-03T10:14:32Z</time>
      </trkpt>
      <trkpt lat="44.3507" lon="3.9297">
        <ele>840</ele>
        <time>2012-01-03T10:14:37Z</time>
      </trkpt>
      <trkpt lat="44.35078" lon="3.92964">
        <ele>840</ele>
        <time>2012-01-03T10:14:38Z</time>
      </trkpt>
      <trkpt lat="44.35081" lon="3.92962">
        <ele>840</ele>
        <time>2012-01-03T10:14:39Z</time>
      </trkpt>
      <trkpt lat="44.35085" lon="3.92959">
        <ele>840</ele>
        <time>2012-01-03T10:14:44Z</time>
      </trkpt>
      <trkpt lat="44.35093" lon="3.92953">
        <ele>840</ele>
        <time>2012-01-03T10:14:45Z</time>
      </trkpt>
      <trkpt lat="44.35095" lon="3.92951">
        <ele>840</ele>
        <time>2012-01-03T10:14:46Z</time>
      </trkpt>
      <trkpt lat="44.35105" lon="3.9294">
        <ele>840</ele>
        <time>2012-01-03T10:14:52Z</time>
      </trkpt>
      <trkpt lat="44.35107" lon="3.92937">
        <ele>840</ele>
        <time>2012-01-03T10:14:53Z</time>
      </trkpt>
      <trkpt lat="44.35108" lon="3.92935">
        <ele>840</ele>
        <time>2012-01-03T10:14:54Z</time>
      </trkpt>
      <trkpt lat="44.3511" lon="3.92931">
        <ele>840</ele>
        <time>2012-01-03T10:14:58Z</time>
      </trkpt>
      <trkpt lat="44.35112" lon="3.92924">
        <ele>840</ele>
        <time>2012-01-03T10:14:59Z</time>
      </trkpt>
      <trkpt lat="44.35113" lon="3.92921">
        <ele>840</ele>
        <time>2012-01-03T10:15:00Z</time>
      </trkpt>
      <trkpt lat="44.35114" lon="3.92919">
        <ele>840</ele>
        <time>2012-01-03T10:15:01Z</time>
      </trkpt>
      <trkpt lat="44.35115" lon="3.92913">
        <ele>840</ele>
        <time>2012-01-03T10:15:05Z</time>
      </trkpt>
      <trkpt lat="44.35118" lon="3.92905">
        <ele>840</ele>
        <time>2012-01-03T10:15:06Z</time>
      </trkpt>
      <trkpt lat="44.35119" lon="3.92902">
        <ele>840</ele>
        <time>2012-01-03T10:15:07Z</time>
      </trkpt>
      <trkpt lat="44.35121" lon="3.92896">
        <ele>840</ele>
        <time>2012-01-03T10:15:11Z</time>
      </trkpt>
      <trkpt lat="44.35124" lon="3.92887">
        <ele>840</ele>
        <time>2012-01-03T10:15:12Z</time>
      </trkpt>
      <trkpt lat="44.35125" lon="3.92884">
        <ele>840</ele>
        <time>2012-01-03T10:15:13Z</time>
      </trkpt>
      <trkpt lat="44.35127" lon="3.92879">
        <ele>840</ele>
        <time>2012-01-03T10:15:17Z</time>
      </trkpt>
      <trkpt lat="44.35131" lon="3.92871">
        <ele>840</ele>
        <time>2012-01-03T10:15:18Z</time>
      </trkpt>
      <trkpt lat="44.35133" lon="3.92869">
        <ele>840</ele>
        <time>2012-01-03T10:15:19Z</time>
      </trkpt>
      <trkpt lat="44.35135" lon="3.92863">
        <ele>841</ele>
        <time>2012-01-03T10:15:23Z</time>
      </trkpt>
      <trkpt lat="44.35138" lon="3.92856">
        <ele>841</ele>
        <time>2012-01-03T10:15:24Z</time>
      </trkpt>
      <trkpt lat="44.35139" lon="3.92853">
        <ele>842</ele>
        <time>2012-01-03T10:15:25Z</time>
      </trkpt>
      <trkpt lat="44.35141" lon="3.9285">
        <ele>842</ele>
        <time>2012-01-03T10:15:29Z</time>
      </trkpt>
      <trkpt lat="44.35142" lon="3.92846">
        <ele>843</ele>
        <time>2012-01-03T10:15:30Z</time>
      </trkpt>
      <trkpt lat="44.35143" lon="3.92844">
        <ele>843</ele>
        <time>2012-01-03T10:15:31Z</time>
      </trkpt>
      <trkpt lat="44.35145" lon="3.92839">
        <ele>843</ele>
        <time>2012-01-03T10:15:35Z</time>
      </trkpt>
      <trkpt lat="44.35147" lon="3.92829">
        <ele>843</ele>
        <time>2012-01-03T10:15:36Z</time>
      </trkpt>
      <trkpt lat="44.35148" lon="3.92826">
        <ele>843</ele>
        <time>2012-01-03T10:15:37Z</time>
      </trkpt>
      <trkpt lat="44.35151" lon="3.92821">
        <ele>843</ele>
        <time>2012-01-03T10:15:41Z</time>
      </trkpt>
      <trkpt lat="44.35153" lon="3.92815">
        <ele>843</ele>
        <time>2012-01-03T10:15:42Z</time>
      </trkpt>
      <trkpt lat="44.35153" lon="3.92813">
        <ele>843</ele>
        <time>2012-01-03T10:15:43Z</time>
      </trkpt>
      <trkpt lat="44.35156" lon="3.92809">
        <ele>843</ele>
        <time>2012-01-03T10:15:48Z</time>
      </trkpt>
      <trkpt lat="44.35163" lon="3.92804">
        <ele>844</ele>
        <time>2012-01-03T10:15:49Z</time>
      </trkpt>
      <trkpt lat="44.35165" lon="3.92804">
        <ele>844</ele>
        <time>2012-01-03T10:15:50Z</time>
      </trkpt>
      <trkpt lat="44.35166" lon="3.92805">
        <ele>844</ele>
        <time>2012-01-03T10:15:51Z</time>
      </trkpt>
      <trkpt lat="44.3517" lon="3.92805">
        <ele>845</ele>
        <time>2012-01-03T10:15:55Z</time>
      </trkpt>
      <trkpt lat="44.35176" lon="3.92804">
        <ele>846</ele>
        <time>2012-01-03T10:15:56Z</time>
      </trkpt>
      <trkpt lat="44.35178" lon="3.92805">
        <ele>847</ele>
        <time>2012-01-03T10:15:57Z</time>
      </trkpt>
      <trkpt lat="44.35182" lon="3.92803">
        <ele>848</ele>
        <time>2012-01-03T10:16:01Z</time>
      </trkpt>
      <trkpt lat="44.35187" lon="3.92802">
        <ele>849</ele>
        <time>2012-01-03T10:16:02Z</time>
      </trkpt>
      <trkpt lat="44.35189" lon="3.92801">
        <ele>849</ele>
        <time>2012-01-03T10:16:03Z</time>
      </trkpt>
      <trkpt lat="44.35193" lon="3.92799">
        <ele>849</ele>
        <time>2012-01-03T10:16:08Z</time>
      </trkpt>
      <trkpt lat="44.35202" lon="3.92793">
        <ele>849</ele>
        <time>2012-01-03T10:16:09Z</time>
      </trkpt>
      <trkpt lat="44.35204" lon="3.92792">
        <ele>849</ele>
        <time>2012-01-03T10:16:10Z</time>
      </trkpt>
      <trkpt lat="44.35206" lon="3.9279">
        <ele>849</ele>
        <time>2012-01-03T10:16:11Z</time>
      </trkpt>
      <trkpt lat="44.35208" lon="3.9279">
        <ele>849</ele>
        <time>2012-01-03T10:16:15Z</time>
      </trkpt>
      <trkpt lat="44.35212" lon="3.92788">
        <ele>849</ele>
        <time>2012-01-03T10:16:16Z</time>
      </trkpt>
      <trkpt lat="44.35213" lon="3.92787">
        <ele>849</ele>
        <time>2012-01-03T10:16:17Z</time>
      </trkpt>
      <trkpt lat="44.35216" lon="3.92784">
        <ele>849</ele>
        <time>2012-01-03T10:16:21Z</time>
      </trkpt>
      <trkpt lat="44.3522" lon="3.9278">
        <ele>849</ele>
        <time>2012-01-03T10:16:22Z</time>
      </trkpt>
      <trkpt lat="44.35222" lon="3.92777">
        <ele>849</ele>
        <time>2012-01-03T10:16:23Z</time>
      </trkpt>
      <trkpt lat="44.35225" lon="3.92775">
        <ele>849</ele>
        <time>2012-01-03T10:16:27Z</time>
      </trkpt>
      <trkpt lat="44.3523" lon="3.92773">
        <ele>849</ele>
        <time>2012-01-03T10:16:28Z</time>
      </trkpt>
      <trkpt lat="44.35231" lon="3.92772">
        <ele>849</ele>
        <time>2012-01-03T10:16:29Z</time>
      </trkpt>
      <trkpt lat="44.35235" lon="3.9277">
        <ele>849</ele>
        <time>2012-01-03T10:16:33Z</time>
      </trkpt>
      <trkpt lat="44.3524" lon="3.92767">
        <ele>849</ele>
        <time>2012-01-03T10:16:34Z</time>
      </trkpt>
      <trkpt lat="44.35241" lon="3.92766">
        <ele>849</ele>
        <time>2012-01-03T10:16:35Z</time>
      </trkpt>
      <trkpt lat="44.35244" lon="3.92765">
        <ele>850</ele>
        <time>2012-01-03T10:16:39Z</time>
      </trkpt>
      <trkpt lat="44.35249" lon="3.92763">
        <ele>850</ele>
        <time>2012-01-03T10:16:40Z</time>
      </trkpt>
      <trkpt lat="44.3525" lon="3.92762">
        <ele>851</ele>
        <time>2012-01-03T10:16:41Z</time>
      </trkpt>
      <trkpt lat="44.35253" lon="3.92759">
        <ele>851</ele>
        <time>2012-01-03T10:16:45Z</time>
      </trkpt>
      <trkpt lat="44.35257" lon="3.92755">
        <ele>851</ele>
        <time>2012-01-03T10:16:46Z</time>
      </trkpt>
      <trkpt lat="44.35258" lon="3.92754">
        <ele>851</ele>
        <time>2012-01-03T10:16:47Z</time>
      </trkpt>
      <trkpt lat="44.35261" lon="3.92752">
        <ele>851</ele>
        <time>2012-01-03T10:16:51Z</time>
      </trkpt>
      <trkpt lat="44.35266" lon="3.92747">
        <ele>852</ele>
        <time>2012-01-03T10:16:52Z</time>
      </trkpt>
      <trkpt lat="44.35267" lon="3.92746">
        <ele>852</ele>
        <time>2012-01-03T10:16:53Z</time>
      </trkpt>
      <trkpt lat="44.3527" lon="3.92742">
        <ele>853</ele>
        <time>2012-01-03T10:16:57Z</time>
      </trkpt>
      <trkpt lat="44.35275" lon="3.92736">
        <ele>853</ele>
        <time>2012-01-03T10:16:58Z</time>
      </trkpt>
      <trkpt lat="44.35276" lon="3.92734">
        <ele>853</ele>
        <time>2012-01-03T10:16:59Z</time>
      </trkpt>
      <trkpt lat="44.35279" lon="3.92731">
        <ele>853</ele>
        <time>2012-01-03T10:17:03Z</time>
      </trkpt>
      <trkpt lat="44.35283" lon="3.92726">
        <ele>853</ele>
        <time>2012-01-03T10:17:04Z</time>
      </trkpt>
      <trkpt lat="44.35284" lon="3.92725">
        <ele>853</ele>
        <time>2012-01-03T10:17:05Z</time>
      </trkpt>
      <trkpt lat="44.35285" lon="3.92723">
        <ele>853</ele>
        <time>2012-01-03T10:17:06Z</time>
      </trkpt>
      <trkpt lat="44.35287" lon="3.92719">
        <ele>853</ele>
        <time>2012-01-03T10:17:10Z</time>
      </trkpt>
      <trkpt lat="44.35291" lon="3.92713">
        <ele>854</ele>
        <time>2012-01-03T10:17:11Z</time>
      </trkpt>
      <trkpt lat="44.35292" lon="3.9271">
        <ele>854</ele>
        <time>2012-01-03T10:17:12Z</time>
      </trkpt>
      <trkpt lat="44.35294" lon="3.92705">
        <ele>854</ele>
        <time>2012-01-03T10:17:16Z</time>
      </trkpt>
      <trkpt lat="44.35297" lon="3.92698">
        <ele>855</ele>
        <time>2012-01-03T10:17:17Z</time>
      </trkpt>
      <trkpt lat="44.35297" lon="3.92695">
        <ele>855</ele>
        <time>2012-01-03T10:17:18Z</time>
      </trkpt>
      <trkpt lat="44.35301" lon="3.92682">
        <ele>855</ele>
        <time>2012-01-03T10:17:23Z</time>
      </trkpt>
      <trkpt lat="44.35301" lon="3.9268">
        <ele>856</ele>
        <time>2012-01-03T10:17:24Z</time>
      </trkpt>
      <trkpt lat="44.35301" lon="3.92678">
        <ele>856</ele>
        <time>2012-01-03T10:17:25Z</time>
      </trkpt>
      <trkpt lat="44.35301" lon="3.92676">
        <ele>857</ele>
        <time>2012-01-03T10:17:26Z</time>
      </trkpt>
      <trkpt lat="44.35303" lon="3.92665">
        <ele>857</ele>
        <time>2012-01-03T10:17:31Z</time>
      </trkpt>
      <trkpt lat="44.35304" lon="3.92663">
        <ele>858</ele>
        <time>2012-01-03T10:17:32Z</time>
      </trkpt>
      <trkpt lat="44.35305" lon="3.92658">
        <ele>859</ele>
        <time>2012-01-03T10:17:36Z</time>
      </trkpt>
      <trkpt lat="44.35307" lon="3.92652">
        <ele>859</ele>
        <time>2012-01-03T10:17:37Z</time>
      </trkpt>
      <trkpt lat="44.35309" lon="3.9265">
        <ele>860</ele>
        <time>2012-01-03T10:17:38Z</time>
      </trkpt>
      <trkpt lat="44.35311" lon="3.92648">
        <ele>860</ele>
        <time>2012-01-03T10:17:42Z</time>
      </trkpt>
      <trkpt lat="44.35315" lon="3.92645">
        <ele>860</ele>
        <time>2012-01-03T10:17:43Z</time>
      </trkpt>
      <trkpt lat="44.35317" lon="3.92645">
        <ele>860</ele>
        <time>2012-01-03T10:17:44Z</time>
      </trkpt>
      <trkpt lat="44.35319" lon="3.92645">
        <ele>861</ele>
        <time>2012-01-03T10:17:45Z</time>
      </trkpt>
      <trkpt lat="44.35323" lon="3.92644">
        <ele>861</ele>
        <time>2012-01-03T10:17:49Z</time>
      </trkpt>
      <trkpt lat="44.35329" lon="3.92643">
        <ele>862</ele>
        <time>2012-01-03T10:17:50Z</time>
      </trkpt>
      <trkpt lat="44.35331" lon="3.92643">
        <ele>862</ele>
        <time>2012-01-03T10:17:51Z</time>
      </trkpt>
      <trkpt lat="44.35335" lon="3.92643">
        <ele>863</ele>
        <time>2012-01-03T10:17:55Z</time>
      </trkpt>
      <trkpt lat="44.3534" lon="3.92648">
        <ele>864</ele>
        <time>2012-01-03T10:17:56Z</time>
      </trkpt>
      <trkpt lat="44.35341" lon="3.92649">
        <ele>865</ele>
        <time>2012-01-03T10:17:58Z</time>
      </trkpt>
      <trkpt lat="44.35343" lon="3.9265">
        <ele>865</ele>
        <time>2012-01-03T10:17:59Z</time>
      </trkpt>
      <trkpt lat="44.35346" lon="3.92655">
        <ele>866</ele>
        <time>2012-01-03T10:18:04Z</time>
      </trkpt>
      <trkpt lat="44.35352" lon="3.9266">
        <ele>866</ele>
        <time>2012-01-03T10:18:05Z</time>
      </trkpt>
      <trkpt lat="44.35353" lon="3.92661">
        <ele>866</ele>
        <time>2012-01-03T10:18:06Z</time>
      </trkpt>
      <trkpt lat="44.35365" lon="3.92668">
        <ele>866</ele>
        <time>2012-01-03T10:18:11Z</time>
      </trkpt>
      <trkpt lat="44.35368" lon="3.9267">
        <ele>866</ele>
        <time>2012-01-03T10:18:12Z</time>
      </trkpt>
      <trkpt lat="44.35372" lon="3.92672">
        <ele>866</ele>
        <time>2012-01-03T10:18:16Z</time>
      </trkpt>
      <trkpt lat="44.35379" lon="3.92674">
        <ele>867</ele>
        <time>2012-01-03T10:18:17Z</time>
      </trkpt>
      <trkpt lat="44.35381" lon="3.92674">
        <ele>867</ele>
        <time>2012-01-03T10:18:18Z</time>
      </trkpt>
      <trkpt lat="44.35384" lon="3.92675">
        <ele>868</ele>
        <time>2012-01-03T10:18:19Z</time>
      </trkpt>
      <trkpt lat="44.35389" lon="3.92675">
        <ele>868</ele>
        <time>2012-01-03T10:18:23Z</time>
      </trkpt>
      <trkpt lat="44.35396" lon="3.92675">
        <ele>868</ele>
        <time>2012-01-03T10:18:24Z</time>
      </trkpt>
      <trkpt lat="44.35398" lon="3.92675">
        <ele>869</ele>
        <time>2012-01-03T10:18:25Z</time>
      </trkpt>
      <trkpt lat="44.35403" lon="3.92675">
        <ele>869</ele>
        <time>2012-01-03T10:18:29Z</time>
      </trkpt>
      <trkpt lat="44.35409" lon="3.92675">
        <ele>870</ele>
        <time>2012-01-03T10:18:30Z</time>
      </trkpt>
      <trkpt lat="44.35411" lon="3.92675">
        <ele>871</ele>
        <time>2012-01-03T10:18:31Z</time>
      </trkpt>
      <trkpt lat="44.35413" lon="3.92676">
        <ele>871</ele>
        <time>2012-01-03T10:18:32Z</time>
      </trkpt>
      <trkpt lat="44.35418" lon="3.92677">
        <ele>872</ele>
        <time>2012-01-03T10:18:36Z</time>
      </trkpt>
      <trkpt lat="44.35426" lon="3.92678">
        <ele>872</ele>
        <time>2012-01-03T10:18:37Z</time>
      </trkpt>
      <trkpt lat="44.35428" lon="3.92679">
        <ele>873</ele>
        <time>2012-01-03T10:18:38Z</time>
      </trkpt>
      <trkpt lat="44.35433" lon="3.92682">
        <ele>873</ele>
        <time>2012-01-03T10:18:42Z</time>
      </trkpt>
      <trkpt lat="44.35437" lon="3.92684">
        <ele>873</ele>
        <time>2012-01-03T10:18:43Z</time>
      </trkpt>
      <trkpt lat="44.35439" lon="3.92685">
        <ele>874</ele>
        <time>2012-01-03T10:18:44Z</time>
      </trkpt>
      <trkpt lat="44.3544" lon="3.92687">
        <ele>875</ele>
        <time>2012-01-03T10:18:48Z</time>
      </trkpt>
      <trkpt lat="44.35444" lon="3.92687">
        <ele>876</ele>
        <time>2012-01-03T10:18:49Z</time>
      </trkpt>
      <trkpt lat="44.35446" lon="3.92688">
        <ele>877</ele>
        <time>2012-01-03T10:18:50Z</time>
      </trkpt>
      <trkpt lat="44.35449" lon="3.92689">
        <ele>878</ele>
        <time>2012-01-03T10:18:54Z</time>
      </trkpt>
      <trkpt lat="44.35456" lon="3.92694">
        <ele>878</ele>
        <time>2012-01-03T10:18:55Z</time>
      </trkpt>
      <trkpt lat="44.35458" lon="3.92695">
        <ele>879</ele>
        <time>2012-01-03T10:18:56Z</time>
      </trkpt>
      <trkpt lat="44.35463" lon="3.92696">
        <ele>879</ele>
        <time>2012-01-03T10:19:00Z</time>
      </trkpt>
      <trkpt lat="44.35471" lon="3.92699">
        <ele>879</ele>
        <time>2012-01-03T10:19:01Z</time>
      </trkpt>
      <trkpt lat="44.35474" lon="3.92699">
        <ele>879</ele>
        <time>2012-01-03T10:19:02Z</time>
      </trkpt>
      <trkpt lat="44.3548" lon="3.92699">
        <ele>879</ele>
        <time>2012-01-03T10:19:06Z</time>
      </trkpt>
      <trkpt lat="44.35487" lon="3.92701">
        <ele>879</ele>
        <time>2012-01-03T10:19:07Z</time>
      </trkpt>
      <trkpt lat="44.35489" lon="3.927">
        <ele>879</ele>
        <time>2012-01-03T10:19:08Z</time>
      </trkpt>
      <trkpt lat="44.3549" lon="3.927">
        <ele>879</ele>
        <time>2012-01-03T10:19:09Z</time>
      </trkpt>
      <trkpt lat="44.355" lon="3.92699">
        <ele>879</ele>
        <time>2012-01-03T10:19:14Z</time>
      </trkpt>
      <trkpt lat="44.35502" lon="3.92699">
        <ele>879</ele>
        <time>2012-01-03T10:19:15Z</time>
      </trkpt>
      <trkpt lat="44.35504" lon="3.92699">
        <ele>879</ele>
        <time>2012-01-03T10:19:16Z</time>
      </trkpt>
      <trkpt lat="44.35509" lon="3.92699">
        <ele>879</ele>
        <time>2012-01-03T10:19:20Z</time>
      </trkpt>
      <trkpt lat="44.35516" lon="3.92701">
        <ele>879</ele>
        <time>2012-01-03T10:19:21Z</time>
      </trkpt>
      <trkpt lat="44.35519" lon="3.92702">
        <ele>879</ele>
        <time>2012-01-03T10:19:22Z</time>
      </trkpt>
      <trkpt lat="44.35524" lon="3.92701">
        <ele>879</ele>
        <time>2012-01-03T10:19:26Z</time>
      </trkpt>
      <trkpt lat="44.35531" lon="3.92702">
        <ele>879</ele>
        <time>2012-01-03T10:19:27Z</time>
      </trkpt>
      <trkpt lat="44.35534" lon="3.92702">
        <ele>879</ele>
        <time>2012-01-03T10:19:28Z</time>
      </trkpt>
      <trkpt lat="44.35538" lon="3.92703">
        <ele>879</ele>
        <time>2012-01-03T10:19:32Z</time>
      </trkpt>
      <trkpt lat="44.35543" lon="3.92704">
        <ele>879</ele>
        <time>2012-01-03T10:19:33Z</time>
      </trkpt>
      <trkpt lat="44.35545" lon="3.92704">
        <ele>879</ele>
        <time>2012-01-03T10:19:35Z</time>
      </trkpt>
      <trkpt lat="44.35548" lon="3.92704">
        <ele>879</ele>
        <time>2012-01-03T10:19:39Z</time>
      </trkpt>
      <trkpt lat="44.35553" lon="3.92704">
        <ele>879</ele>
        <time>2012-01-03T10:19:40Z</time>
      </trkpt>
      <trkpt lat="44.35555" lon="3.92705">
        <ele>879</ele>
        <time>2012-01-03T10:19:41Z</time>
      </trkpt>
      <trkpt lat="44.35559" lon="3.92705">
        <ele>879</ele>
        <time>2012-01-03T10:19:45Z</time>
      </trkpt>
      <trkpt lat="44.35566" lon="3.92707">
        <ele>880</ele>
        <time>2012-01-03T10:19:46Z</time>
      </trkpt>
      <trkpt lat="44.35568" lon="3.92708">
        <ele>881</ele>
        <time>2012-01-03T10:19:47Z</time>
      </trkpt>
      <trkpt lat="44.35571" lon="3.92708">
        <ele>882</ele>
        <time>2012-01-03T10:19:51Z</time>
      </trkpt>
      <trkpt lat="44.35577" lon="3.92708">
        <ele>883</ele>
        <time>2012-01-03T10:19:52Z</time>
      </trkpt>
      <trkpt lat="44.35579" lon="3.92709">
        <ele>884</ele>
        <time>2012-01-03T10:19:53Z</time>
      </trkpt>
      <trkpt lat="44.35583" lon="3.9271">
        <ele>884</ele>
        <time>2012-01-03T10:19:57Z</time>
      </trkpt>
      <trkpt lat="44.3559" lon="3.92711">
        <ele>885</ele>
        <time>2012-01-03T10:19:58Z</time>
      </trkpt>
      <trkpt lat="44.35592" lon="3.92712">
        <ele>885</ele>
        <time>2012-01-03T10:19:59Z</time>
      </trkpt>
      <trkpt lat="44.35598" lon="3.92713">
        <ele>886</ele>
        <time>2012-01-03T10:20:03Z</time>
      </trkpt>
      <trkpt lat="44.35606" lon="3.92714">
        <ele>886</ele>
        <time>2012-01-03T10:20:04Z</time>
      </trkpt>
      <trkpt lat="44.35608" lon="3.92714">
        <ele>886</ele>
        <time>2012-01-03T10:20:05Z</time>
      </trkpt>
      <trkpt lat="44.3561" lon="3.92715">
        <ele>886</ele>
        <time>2012-01-03T10:20:09Z</time>
      </trkpt>
      <trkpt lat="44.35611" lon="3.92721">
        <ele>886</ele>
        <time>2012-01-03T10:20:16Z</time>
      </trkpt>
      <trkpt lat="44.35612" lon="3.9272">
        <ele>886</ele>
        <time>2012-01-03T10:20:18Z</time>
      </trkpt>
      <trkpt lat="44.35613" lon="3.9272">
        <ele>886</ele>
        <time>2012-01-03T10:20:20Z</time>
      </trkpt>
      <trkpt lat="44.35615" lon="3.92723">
        <ele>886</ele>
        <time>2012-01-03T10:20:22Z</time>
      </trkpt>
      <trkpt lat="44.35616" lon="3.92725">
        <ele>887</ele>
        <time>2012-01-03T10:20:24Z</time>
      </trkpt>
      <trkpt lat="44.35617" lon="3.92727">
        <ele>888</ele>
        <time>2012-01-03T10:20:26Z</time>
      </trkpt>
      <trkpt lat="44.35617" lon="3.92729">
        <ele>890</ele>
        <time>2012-01-03T10:20:28Z</time>
      </trkpt>
      <trkpt lat="44.35617" lon="3.92731">
        <ele>891</ele>
        <time>2012-01-03T10:20:31Z</time>
      </trkpt>
      <trkpt lat="44.35617" lon="3.92729">
        <ele>891</ele>
        <time>2012-01-03T10:20:35Z</time>
      </trkpt>
      <trkpt lat="44.35618" lon="3.92727">
        <ele>891</ele>
        <time>2012-01-03T10:20:38Z</time>
      </trkpt>
      <trkpt lat="44.35619" lon="3.92727">
        <ele>891</ele>
        <time>2012-01-03T10:20:41Z</time>
      </trkpt>
      <trkpt lat="44.35618" lon="3.92726">
        <ele>890</ele>
        <time>2012-01-03T10:20:46Z</time>
      </trkpt>
      <trkpt lat="44.35618" lon="3.92725">
        <ele>888</ele>
        <time>2012-01-03T10:20:48Z</time>
      </trkpt>
      <trkpt lat="44.35618" lon="3.92723">
        <ele>886</ele>
        <time>2012-01-03T10:20:50Z</time>
      </trkpt>
      <trkpt lat="44.35618" lon="3.92721">
        <ele>884</ele>
        <time>2012-01-03T10:20:53Z</time>
      </trkpt>
      <trkpt lat="44.35618" lon="3.9272">
        <ele>884</ele>
        <time>2012-01-03T10:20:56Z</time>
      </trkpt>
      <trkpt lat="44.35618" lon="3.92718">
        <ele>883</ele>
        <time>2012-01-03T10:20:59Z</time>
      </trkpt>
      <trkpt lat="44.35619" lon="3.92717">
        <ele>881</ele>
        <time>2012-01-03T10:21:02Z</time>
      </trkpt>
      <trkpt lat="44.3562" lon="3.92715">
        <ele>878</ele>
        <time>2012-01-03T10:21:05Z</time>
      </trkpt>
      <trkpt lat="44.35622" lon="3.92713">
        <ele>876</ele>
        <time>2012-01-03T10:21:07Z</time>
      </trkpt>
      <trkpt lat="44.35623" lon="3.92712">
        <ele>875</ele>
        <time>2012-01-03T10:21:08Z</time>
      </trkpt>
      <trkpt lat="44.35624" lon="3.92711">
        <ele>872</ele>
        <time>2012-01-03T10:21:11Z</time>
      </trkpt>
      <trkpt lat="44.35626" lon="3.92709">
        <ele>868</ele>
        <time>2012-01-03T10:21:15Z</time>
      </trkpt>
      <trkpt lat="44.35627" lon="3.92708">
        <ele>865</ele>
        <time>2012-01-03T10:21:18Z</time>
      </trkpt>
      <trkpt lat="44.35628" lon="3.92706">
        <ele>864</ele>
        <time>2012-01-03T10:21:21Z</time>
      </trkpt>
      <trkpt lat="44.35629" lon="3.92705">
        <ele>863</ele>
        <time>2012-01-03T10:21:25Z</time>
      </trkpt>
      <trkpt lat="44.35628" lon="3.92706">
        <ele>862</ele>
        <time>2012-01-03T10:21:31Z</time>
      </trkpt>
      <trkpt lat="44.35626" lon="3.92706">
        <ele>862</ele>
        <time>2012-01-03T10:21:34Z</time>
      </trkpt>
      <trkpt lat="44.35624" lon="3.92707">
        <ele>862</ele>
        <time>2012-01-03T10:21:36Z</time>
      </trkpt>
      <trkpt lat="44.35622" lon="3.92708">
        <ele>863</ele>
        <time>2012-01-03T10:21:38Z</time>
      </trkpt>
      <trkpt lat="44.35621" lon="3.92709">
        <ele>863</ele>
        <time>2012-01-03T10:21:40Z</time>
      </trkpt>
      <trkpt lat="44.35619" lon="3.9271">
        <ele>863</ele>
        <time>2012-01-03T10:21:42Z</time>
      </trkpt>
      <trkpt lat="44.35618" lon="3.92711">
        <ele>863</ele>
        <time>2012-01-03T10:21:44Z</time>
      </trkpt>
      <trkpt lat="44.35619" lon="3.92711">
        <ele>863</ele>
        <time>2012-01-03T10:21:47Z</time>
      </trkpt>
      <trkpt lat="44.35621" lon="3.92711">
        <ele>864</ele>
        <time>2012-01-03T10:21:51Z</time>
      </trkpt>
      <trkpt lat="44.35622" lon="3.9271">
        <ele>865</ele>
        <time>2012-01-03T10:21:55Z</time>
      </trkpt>
      <trkpt lat="44.35623" lon="3.92709">
        <ele>865</ele>
        <time>2012-01-03T10:22:02Z</time>
      </trkpt>
      <trkpt lat="44.35622" lon="3.9271">
        <ele>867</ele>
        <time>2012-01-03T10:22:08Z</time>
      </trkpt>
      <trkpt lat="44.3562" lon="3.92711">
        <ele>869</ele>
        <time>2012-01-03T10:22:10Z</time>
      </trkpt>
      <trkpt lat="44.35619" lon="3.92712">
        <ele>872</ele>
        <time>2012-01-03T10:22:13Z</time>
      </trkpt>
      <trkpt lat="44.35617" lon="3.92712">
        <ele>875</ele>
        <time>2012-01-03T10:22:16Z</time>
      </trkpt>
      <trkpt lat="44.35616" lon="3.92713">
        <ele>880</ele>
        <time>2012-01-03T10:22:19Z</time>
      </trkpt>
      <trkpt lat="44.35615" lon="3.92714">
        <ele>893</ele>
        <time>2012-01-03T10:22:32Z</time>
      </trkpt>
      <trkpt lat="44.35614" lon="3.92715">
        <ele>896</ele>
        <time>2012-01-03T10:22:36Z</time>
      </trkpt>
      <trkpt lat="44.35612" lon="3.92716">
        <ele>900</ele>
        <time>2012-01-03T10:22:41Z</time>
      </trkpt>
      <trkpt lat="44.35613" lon="3.92718">
        <ele>900</ele>
        <time>2012-01-03T10:22:47Z</time>
      </trkpt>
      <trkpt lat="44.35612" lon="3.92719">
        <ele>899</ele>
        <time>2012-01-03T10:22:49Z</time>
      </trkpt>
      <trkpt lat="44.35611" lon="3.9272">
        <ele>896</ele>
        <time>2012-01-03T10:22:52Z</time>
      </trkpt>
      <trkpt lat="44.3561" lon="3.92721">
        <ele>892</ele>
        <time>2012-01-03T10:22:56Z</time>
      </trkpt>
      <trkpt lat="44.35609" lon="3.92722">
        <ele>890</ele>
        <time>2012-01-03T10:23:04Z</time>
      </trkpt>
      <trkpt lat="44.3561" lon="3.92724">
        <ele>890</ele>
        <time>2012-01-03T10:23:20Z</time>
      </trkpt>
      <trkpt lat="44.35611" lon="3.92725">
        <ele>890</ele>
        <time>2012-01-03T10:23:23Z</time>
      </trkpt>
      <trkpt lat="44.35613" lon="3.92725">
        <ele>890</ele>
        <time>2012-01-03T10:23:26Z</time>
      </trkpt>
      <trkpt lat="44.35614" lon="3.92726">
        <ele>890</ele>
        <time>2012-01-03T10:23:30Z</time>
      </trkpt>
      <trkpt lat="44.35616" lon="3.92727">
        <ele>890</ele>
        <time>2012-01-03T10:23:33Z</time>
      </trkpt>
      <trkpt lat="44.35617" lon="3.92726">
        <ele>890</ele>
        <time>2012-01-03T10:23:35Z</time>
      </trkpt>
      <trkpt lat="44.35617" lon="3.92728">
        <ele>889</ele>
        <time>2012-01-03T10:23:41Z</time>
      </trkpt>
      <trkpt lat="44.35618" lon="3.9273">
        <ele>889</ele>
        <time>2012-01-03T10:23:44Z</time>
      </trkpt>
      <trkpt lat="44.35617" lon="3.92729">
        <ele>889</ele>
        <time>2012-01-03T10:23:56Z</time>
      </trkpt>
      <trkpt lat="44.35616" lon="3.92727">
        <ele>889</ele>
        <time>2012-01-03T10:23:58Z</time>
      </trkpt>
      <trkpt lat="44.35615" lon="3.92725">
        <ele>889</ele>
        <time>2012-01-03T10:24:01Z</time>
      </trkpt>
      <trkpt lat="44.35614" lon="3.92725">
        <ele>889</ele>
        <time>2012-01-03T10:24:06Z</time>
      </trkpt>
      <trkpt lat="44.35614" lon="3.92723">
        <ele>889</ele>
        <time>2012-01-03T10:24:10Z</time>
      </trkpt>
      <trkpt lat="44.35614" lon="3.92721">
        <ele>889</ele>
        <time>2012-01-03T10:24:12Z</time>
      </trkpt>
      <trkpt lat="44.35615" lon="3.92719">
        <ele>888</ele>
        <time>2012-01-03T10:24:15Z</time>
      </trkpt>
      <trkpt lat="44.35616" lon="3.92718">
        <ele>888</ele>
        <time>2012-01-03T10:24:19Z</time>
      </trkpt>
      <trkpt lat="44.35617" lon="3.92717">
        <ele>884</ele>
        <time>2012-01-03T10:24:32Z</time>
      </trkpt>
      <trkpt lat="44.35618" lon="3.92716">
        <ele>880</ele>
        <time>2012-01-03T10:24:38Z</time>
      </trkpt>
      <trkpt lat="44.3562" lon="3.92715">
        <ele>876</ele>
        <time>2012-01-03T10:24:42Z</time>
      </trkpt>
      <trkpt lat="44.35621" lon="3.92714">
        <ele>873</ele>
        <time>2012-01-03T10:24:47Z</time>
      </trkpt>
      <trkpt lat="44.35622" lon="3.92712">
        <ele>870</ele>
        <time>2012-01-03T10:24:53Z</time>
      </trkpt>
      <trkpt lat="44.35624" lon="3.9271">
        <ele>864</ele>
        <time>2012-01-03T10:25:19Z</time>
      </trkpt>
      <trkpt lat="44.35625" lon="3.92709">
        <ele>862</ele>
        <time>2012-01-03T10:25:22Z</time>
      </trkpt>
      <trkpt lat="44.35626" lon="3.92709">
        <ele>861</ele>
        <time>2012-01-03T10:25:25Z</time>
      </trkpt>
      <trkpt lat="44.35626" lon="3.92708">
        <ele>860</ele>
        <time>2012-01-03T10:25:29Z</time>
      </trkpt>
      <trkpt lat="44.35626" lon="3.92706">
        <ele>860</ele>
        <time>2012-01-03T10:25:37Z</time>
      </trkpt>
      <trkpt lat="44.35627" lon="3.92705">
        <ele>860</ele>
        <time>2012-01-03T10:25:41Z</time>
      </trkpt>
      <trkpt lat="44.35628" lon="3.92704">
        <ele>858</ele>
        <time>2012-01-03T10:25:44Z</time>
      </trkpt>
      <trkpt lat="44.35629" lon="3.92702">
        <ele>853</ele>
        <time>2012-01-03T10:25:49Z</time>
      </trkpt>
      <trkpt lat="44.3563" lon="3.92701">
        <ele>851</ele>
        <time>2012-01-03T10:25:51Z</time>
      </trkpt>
      <trkpt lat="44.35632" lon="3.927">
        <ele>848</ele>
        <time>2012-01-03T10:25:54Z</time>
      </trkpt>
      <trkpt lat="44.3563" lon="3.92702">
        <ele>847</ele>
        <time>2012-01-03T10:25:58Z</time>
      </trkpt>
      <trkpt lat="44.3563" lon="3.92703">
        <ele>847</ele>
        <time>2012-01-03T10:26:01Z</time>
      </trkpt>
      <trkpt lat="44.35629" lon="3.92705">
        <ele>847</ele>
        <time>2012-01-03T10:26:04Z</time>
      </trkpt>
      <trkpt lat="44.35628" lon="3.92706">
        <ele>847</ele>
        <time>2012-01-03T10:26:09Z</time>
      </trkpt>
      <trkpt lat="44.35627" lon="3.92707">
        <ele>847</ele>
        <time>2012-01-03T10:26:12Z</time>
      </trkpt>
      <trkpt lat="44.35625" lon="3.92708">
        <ele>847</ele>
        <time>2012-01-03T10:26:15Z</time>
      </trkpt>
      <trkpt lat="44.35624" lon="3.92709">
        <ele>850</ele>
        <time>2012-01-03T10:26:18Z</time>
      </trkpt>
      <trkpt lat="44.35624" lon="3.92711">
        <ele>853</ele>
        <time>2012-01-03T10:26:21Z</time>
      </trkpt>
      <trkpt lat="44.35622" lon="3.92712">
        <ele>857</ele>
        <time>2012-01-03T10:26:24Z</time>
      </trkpt>
      <trkpt lat="44.35623" lon="3.92713">
        <ele>860</ele>
        <time>2012-01-03T10:26:26Z</time>
      </trkpt>
      <trkpt lat="44.35626" lon="3.92713">
        <ele>862</ele>
        <time>2012-01-03T10:26:28Z</time>
      </trkpt>
      <trkpt lat="44.35628" lon="3.92713">
        <ele>863</ele>
        <time>2012-01-03T10:26:29Z</time>
      </trkpt>
      <trkpt lat="44.35629" lon="3.92714">
        <ele>864</ele>
        <time>2012-01-03T10:26:30Z</time>
      </trkpt>
      <trkpt lat="44.35632" lon="3.92713">
        <ele>865</ele>
        <time>2012-01-03T10:26:31Z</time>
      </trkpt>
      <trkpt lat="44.35633" lon="3.92713">
        <ele>866</ele>
        <time>2012-01-03T10:26:32Z</time>
      </trkpt>
      <trkpt lat="44.35635" lon="3.92712">
        <ele>867</ele>
        <time>2012-01-03T10:26:33Z</time>
      </trkpt>
      <trkpt lat="44.35637" lon="3.92711">
        <ele>868</ele>
        <time>2012-01-03T10:26:34Z</time>
      </trkpt>
      <trkpt lat="44.35639" lon="3.92711">
        <ele>869</ele>
        <time>2012-01-03T10:26:35Z</time>
      </trkpt>
      <trkpt lat="44.35641" lon="3.92712">
        <ele>870</ele>
        <time>2012-01-03T10:26:36Z</time>
      </trkpt>
      <trkpt lat="44.35643" lon="3.92711">
        <ele>871</ele>
        <time>2012-01-03T10:26:37Z</time>
      </trkpt>
      <trkpt lat="44.35645" lon="3.92709">
        <ele>872</ele>
        <time>2012-01-03T10:26:38Z</time>
      </trkpt>
      <trkpt lat="44.35647" lon="3.92709">
        <ele>873</ele>
        <time>2012-01-03T10:26:39Z</time>
      </trkpt>
      <trkpt lat="44.3565" lon="3.92707">
        <ele>874</ele>
        <time>2012-01-03T10:26:40Z</time>
      </trkpt>
      <trkpt lat="44.35652" lon="3.92705">
        <ele>875</ele>
        <time>2012-01-03T10:26:41Z</time>
      </trkpt>
      <trkpt lat="44.35654" lon="3.92704">
        <ele>876</ele>
        <time>2012-01-03T10:26:42Z</time>
      </trkpt>
      <trkpt lat="44.35656" lon="3.92703">
        <ele>877</ele>
        <time>2012-01-03T10:26:43Z</time>
      </trkpt>
      <trkpt lat="44.35659" lon="3.92701">
        <ele>878</ele>
        <time>2012-01-03T10:26:44Z</time>
      </trkpt>
      <trkpt lat="44.3566" lon="3.92699">
        <ele>879</ele>
        <time>2012-01-03T10:26:45Z</time>
      </trkpt>
      <trkpt lat="44.35662" lon="3.92698">
        <ele>880</ele>
        <time>2012-01-03T10:26:46Z</time>
      </trkpt>
      <trkpt lat="44.35665" lon="3.92696">
        <ele>881</ele>
        <time>2012-01-03T10:26:50Z</time>
      </trkpt>
      <trkpt lat="44.3567" lon="3.92694">
        <ele>882</ele>
        <time>2012-01-03T10:26:51Z</time>
      </trkpt>
      <trkpt lat="44.35672" lon="3.92693">
        <ele>882</ele>
        <time>2012-01-03T10:26:52Z</time>
      </trkpt>
      <trkpt lat="44.35678" lon="3.92685">
        <ele>883</ele>
        <time>2012-01-03T10:26:57Z</time>
      </trkpt>
      <trkpt lat="44.3568" lon="3.92683">
        <ele>884</ele>
        <time>2012-01-03T10:26:58Z</time>
      </trkpt>
      <trkpt lat="44.35682" lon="3.92681">
        <ele>885</ele>
        <time>2012-01-03T10:26:59Z</time>
      </trkpt>
      <trkpt lat="44.35685" lon="3.92676">
        <ele>885</ele>
        <time>2012-01-03T10:27:03Z</time>
      </trkpt>
      <trkpt lat="44.35691" lon="3.92669">
        <ele>885</ele>
        <time>2012-01-03T10:27:04Z</time>
      </trkpt>
      <trkpt lat="44.35693" lon="3.92667">
        <ele>885</ele>
        <time>2012-01-03T10:27:04Z</time>
      </trkpt>
      <trkpt lat="44.35697" lon="3.92662">
        <ele>885</ele>
        <time>2012-01-03T10:27:09Z</time>
      </trkpt>
      <trkpt lat="44.35703" lon="3.92654">
        <ele>885</ele>
        <time>2012-01-03T10:27:09Z</time>
      </trkpt>
      <trkpt lat="44.35705" lon="3.92652">
        <ele>885</ele>
        <time>2012-01-03T10:27:10Z</time>
      </trkpt>
      <trkpt lat="44.35711" lon="3.92648">
        <ele>885</ele>
        <time>2012-01-03T10:27:15Z</time>
      </trkpt>
      <trkpt lat="44.35717" lon="3.92642">
        <ele>886</ele>
        <time>2012-01-03T10:27:16Z</time>
      </trkpt>
      <trkpt lat="44.3572" lon="3.9264">
        <ele>886</ele>
        <time>2012-01-03T10:27:16Z</time>
      </trkpt>
      <trkpt lat="44.35724" lon="3.92638">
        <ele>887</ele>
        <time>2012-01-03T10:27:21Z</time>
      </trkpt>
      <trkpt lat="44.35727" lon="3.92636">
        <ele>888</ele>
        <time>2012-01-03T10:27:21Z</time>
      </trkpt>
      <trkpt lat="44.35736" lon="3.92629">
        <ele>890</ele>
        <time>2012-01-03T10:27:28Z</time>
      </trkpt>
      <trkpt lat="44.35738" lon="3.92629">
        <ele>890</ele>
        <time>2012-01-03T10:27:29Z</time>
      </trkpt>
      <trkpt lat="44.35739" lon="3.92629">
        <ele>891</ele>
        <time>2012-01-03T10:27:30Z</time>
      </trkpt>
      <trkpt lat="44.35743" lon="3.92626">
        <ele>891</ele>
        <time>2012-01-03T10:27:34Z</time>
      </trkpt>
      <trkpt lat="44.35748" lon="3.92625">
        <ele>892</ele>
        <time>2012-01-03T10:27:35Z</time>
      </trkpt>
      <trkpt lat="44.3575" lon="3.92624">
        <ele>893</ele>
        <time>2012-01-03T10:27:36Z</time>
      </trkpt>
      <trkpt lat="44.35758" lon="3.92622">
        <ele>894</ele>
        <time>2012-01-03T10:27:41Z</time>
      </trkpt>
      <trkpt lat="44.3576" lon="3.92621">
        <ele>895</ele>
        <time>2012-01-03T10:27:42Z</time>
      </trkpt>
      <trkpt lat="44.35768" lon="3.92617">
        <ele>896</ele>
        <time>2012-01-03T10:27:47Z</time>
      </trkpt>
      <trkpt lat="44.3577" lon="3.92616">
        <ele>897</ele>
        <time>2012-01-03T10:27:47Z</time>
      </trkpt>
      <trkpt lat="44.35772" lon="3.92615">
        <ele>898</ele>
        <time>2012-01-03T10:27:48Z</time>
      </trkpt>
      <trkpt lat="44.35774" lon="3.92613">
        <ele>899</ele>
        <time>2012-01-03T10:27:53Z</time>
      </trkpt>
      <trkpt lat="44.3578" lon="3.92611">
        <ele>900</ele>
        <time>2012-01-03T10:27:53Z</time>
      </trkpt>
      <trkpt lat="44.35782" lon="3.9261">
        <ele>901</ele>
        <time>2012-01-03T10:27:54Z</time>
      </trkpt>
      <trkpt lat="44.35786" lon="3.92608">
        <ele>901</ele>
        <time>2012-01-03T10:27:59Z</time>
      </trkpt>
      <trkpt lat="44.35792" lon="3.92604">
        <ele>902</ele>
        <time>2012-01-03T10:27:59Z</time>
      </trkpt>
      <trkpt lat="44.35794" lon="3.92601">
        <ele>902</ele>
        <time>2012-01-03T10:28:01Z</time>
      </trkpt>
      <trkpt lat="44.35798" lon="3.92598">
        <ele>903</ele>
        <time>2012-01-03T10:28:05Z</time>
      </trkpt>
      <trkpt lat="44.35803" lon="3.92592">
        <ele>903</ele>
        <time>2012-01-03T10:28:05Z</time>
      </trkpt>
      <trkpt lat="44.35804" lon="3.92589">
        <ele>904</ele>
        <time>2012-01-03T10:28:06Z</time>
      </trkpt>
      <trkpt lat="44.35813" lon="3.9258">
        <ele>904</ele>
        <time>2012-01-03T10:28:12Z</time>
      </trkpt>
      <trkpt lat="44.35815" lon="3.92579">
        <ele>904</ele>
        <time>2012-01-03T10:28:13Z</time>
      </trkpt>
      <trkpt lat="44.35817" lon="3.92576">
        <ele>905</ele>
        <time>2012-01-03T10:28:18Z</time>
      </trkpt>
      <trkpt lat="44.35823" lon="3.92566">
        <ele>905</ele>
        <time>2012-01-03T10:28:18Z</time>
      </trkpt>
      <trkpt lat="44.35824" lon="3.92564">
        <ele>905</ele>
        <time>2012-01-03T10:28:20Z</time>
      </trkpt>
      <trkpt lat="44.35825" lon="3.92561">
        <ele>905</ele>
        <time>2012-01-03T10:28:21Z</time>
      </trkpt>
      <trkpt lat="44.35829" lon="3.92557">
        <ele>905</ele>
        <time>2012-01-03T10:28:26Z</time>
      </trkpt>
      <trkpt lat="44.35833" lon="3.92546">
        <ele>905</ele>
        <time>2012-01-03T10:28:26Z</time>
      </trkpt>
      <trkpt lat="44.35835" lon="3.92544">
        <ele>905</ele>
        <time>2012-01-03T10:28:27Z</time>
      </trkpt>
      <trkpt lat="44.35837" lon="3.92538">
        <ele>905</ele>
        <time>2012-01-03T10:28:32Z</time>
      </trkpt>
      <trkpt lat="44.35839" lon="3.92531">
        <ele>905</ele>
        <time>2012-01-03T10:28:33Z</time>
      </trkpt>
      <trkpt lat="44.3584" lon="3.92528">
        <ele>905</ele>
        <time>2012-01-03T10:28:33Z</time>
      </trkpt>
      <trkpt lat="44.35843" lon="3.92524">
        <ele>905</ele>
        <time>2012-01-03T10:28:38Z</time>
      </trkpt>
      <trkpt lat="44.35846" lon="3.9252">
        <ele>905</ele>
        <time>2012-01-03T10:28:39Z</time>
      </trkpt>
      <trkpt lat="44.35848" lon="3.92519">
        <ele>905</ele>
        <time>2012-01-03T10:28:41Z</time>
      </trkpt>
      <trkpt lat="44.3585" lon="3.92519">
        <ele>905</ele>
        <time>2012-01-03T10:28:42Z</time>
      </trkpt>
      <trkpt lat="44.35857" lon="3.92518">
        <ele>905</ele>
        <time>2012-01-03T10:28:47Z</time>
      </trkpt>
      <trkpt lat="44.35859" lon="3.92519">
        <ele>905</ele>
        <time>2012-01-03T10:28:48Z</time>
      </trkpt>
      <trkpt lat="44.35861" lon="3.92521">
        <ele>906</ele>
        <time>2012-01-03T10:28:49Z</time>
      </trkpt>
      <trkpt lat="44.35864" lon="3.92525">
        <ele>907</ele>
        <time>2012-01-03T10:28:53Z</time>
      </trkpt>
      <trkpt lat="44.35869" lon="3.92531">
        <ele>908</ele>
        <time>2012-01-03T10:28:53Z</time>
      </trkpt>
      <trkpt lat="44.3587" lon="3.92533">
        <ele>909</ele>
        <time>2012-01-03T10:28:54Z</time>
      </trkpt>
      <trkpt lat="44.35873" lon="3.92536">
        <ele>910</ele>
        <time>2012-01-03T10:28:59Z</time>
      </trkpt>
      <trkpt lat="44.35877" lon="3.9254">
        <ele>911</ele>
        <time>2012-01-03T10:29:00Z</time>
      </trkpt>
      <trkpt lat="44.35878" lon="3.92539">
        <ele>913</ele>
        <time>2012-01-03T10:29:00Z</time>
      </trkpt>
      <trkpt lat="44.35879" lon="3.9254">
        <ele>914</ele>
        <time>2012-01-03T10:29:02Z</time>
      </trkpt>
      <trkpt lat="44.35881" lon="3.92541">
        <ele>915</ele>
        <time>2012-01-03T10:29:03Z</time>
      </trkpt>
      <trkpt lat="44.35885" lon="3.92543">
        <ele>916</ele>
        <time>2012-01-03T10:29:07Z</time>
      </trkpt>
      <trkpt lat="44.35889" lon="3.92547">
        <ele>917</ele>
        <time>2012-01-03T10:29:07Z</time>
      </trkpt>
      <trkpt lat="44.35891" lon="3.92548">
        <ele>918</ele>
        <time>2012-01-03T10:29:09Z</time>
      </trkpt>
      <trkpt lat="44.35893" lon="3.92549">
        <ele>919</ele>
        <time>2012-01-03T10:29:10Z</time>
      </trkpt>
      <trkpt lat="44.35898" lon="3.92551">
        <ele>920</ele>
        <time>2012-01-03T10:29:14Z</time>
      </trkpt>
      <trkpt lat="44.35903" lon="3.92553">
        <ele>921</ele>
        <time>2012-01-03T10:29:14Z</time>
      </trkpt>
      <trkpt lat="44.35905" lon="3.92553">
        <ele>922</ele>
        <time>2012-01-03T10:29:15Z</time>
      </trkpt>
      <trkpt lat="44.35908" lon="3.92555">
        <ele>923</ele>
        <time>2012-01-03T10:29:20Z</time>
      </trkpt>
      <trkpt lat="44.35915" lon="3.9256">
        <ele>923</ele>
        <time>2012-01-03T10:29:22Z</time>
      </trkpt>
      <trkpt lat="44.35917" lon="3.92562">
        <ele>923</ele>
        <time>2012-01-03T10:29:23Z</time>
      </trkpt>
      <trkpt lat="44.3592" lon="3.92565">
        <ele>923</ele>
        <time>2012-01-03T10:29:27Z</time>
      </trkpt>
      <trkpt lat="44.35925" lon="3.92569">
        <ele>923</ele>
        <time>2012-01-03T10:29:27Z</time>
      </trkpt>
      <trkpt lat="44.35927" lon="3.9257">
        <ele>923</ele>
        <time>2012-01-03T10:29:29Z</time>
      </trkpt>
      <trkpt lat="44.35928" lon="3.9257">
        <ele>923</ele>
        <time>2012-01-03T10:29:30Z</time>
      </trkpt>
      <trkpt lat="44.3593" lon="3.9257">
        <ele>923</ele>
        <time>2012-01-03T10:29:31Z</time>
      </trkpt>
      <trkpt lat="44.35933" lon="3.92572">
        <ele>922</ele>
        <time>2012-01-03T10:29:35Z</time>
      </trkpt>
      <trkpt lat="44.35938" lon="3.92576">
        <ele>922</ele>
        <time>2012-01-03T10:29:35Z</time>
      </trkpt>
      <trkpt lat="44.3594" lon="3.92577">
        <ele>922</ele>
        <time>2012-01-03T10:29:36Z</time>
      </trkpt>
      <trkpt lat="44.35944" lon="3.9258">
        <ele>922</ele>
        <time>2012-01-03T10:29:41Z</time>
      </trkpt>
      <trkpt lat="44.35948" lon="3.92581">
        <ele>922</ele>
        <time>2012-01-03T10:29:41Z</time>
      </trkpt>
      <trkpt lat="44.3595" lon="3.92582">
        <ele>922</ele>
        <time>2012-01-03T10:29:42Z</time>
      </trkpt>
      <trkpt lat="44.35959" lon="3.92584">
        <ele>922</ele>
        <time>2012-01-03T10:29:48Z</time>
      </trkpt>
      <trkpt lat="44.3596" lon="3.92584">
        <ele>923</ele>
        <time>2012-01-03T10:29:49Z</time>
      </trkpt>
      <trkpt lat="44.35963" lon="3.92584">
        <ele>924</ele>
        <time>2012-01-03T10:29:50Z</time>
      </trkpt>
      <trkpt lat="44.35967" lon="3.92585">
        <ele>924</ele>
        <time>2012-01-03T10:29:54Z</time>
      </trkpt>
      <trkpt lat="44.35973" lon="3.92586">
        <ele>925</ele>
        <time>2012-01-03T10:29:54Z</time>
      </trkpt>
      <trkpt lat="44.35975" lon="3.92586">
        <ele>925</ele>
        <time>2012-01-03T10:29:55Z</time>
      </trkpt>
      <trkpt lat="44.35977" lon="3.92586">
        <ele>925</ele>
        <time>2012-01-03T10:29:57Z</time>
      </trkpt>
      <trkpt lat="44.35981" lon="3.92587">
        <ele>926</ele>
        <time>2012-01-03T10:30:02Z</time>
      </trkpt>
      <trkpt lat="44.35989" lon="3.92585">
        <ele>926</ele>
        <time>2012-01-03T10:30:02Z</time>
      </trkpt>
      <trkpt lat="44.35991" lon="3.92585">
        <ele>926</ele>
        <time>2012-01-03T10:30:04Z</time>
      </trkpt>
      <trkpt lat="44.36003" lon="3.92583">
        <ele>926</ele>
        <time>2012-01-03T10:30:10Z</time>
      </trkpt>
      <trkpt lat="44.36005" lon="3.92583">
        <ele>926</ele>
        <time>2012-01-03T10:30:11Z</time>
      </trkpt>
      <trkpt lat="44.36009" lon="3.92583">
        <ele>926</ele>
        <time>2012-01-03T10:30:15Z</time>
      </trkpt>
      <trkpt lat="44.36013" lon="3.92583">
        <ele>926</ele>
        <time>2012-01-03T10:30:15Z</time>
      </trkpt>
      <trkpt lat="44.36015" lon="3.92583">
        <ele>926</ele>
        <time>2012-01-03T10:30:16Z</time>
      </trkpt>
      <trkpt lat="44.36017" lon="3.92582">
        <ele>926</ele>
        <time>2012-01-03T10:30:18Z</time>
      </trkpt>
      <trkpt lat="44.36026" lon="3.92584">
        <ele>926</ele>
        <time>2012-01-03T10:30:23Z</time>
      </trkpt>
      <trkpt lat="44.36029" lon="3.92584">
        <ele>926</ele>
        <time>2012-01-03T10:30:23Z</time>
      </trkpt>
      <trkpt lat="44.36031" lon="3.92583">
        <ele>926</ele>
        <time>2012-01-03T10:30:24Z</time>
      </trkpt>
      <trkpt lat="44.36035" lon="3.92582">
        <ele>926</ele>
        <time>2012-01-03T10:30:29Z</time>
      </trkpt>
      <trkpt lat="44.3604" lon="3.92581">
        <ele>927</ele>
        <time>2012-01-03T10:30:29Z</time>
      </trkpt>
      <trkpt lat="44.36042" lon="3.9258">
        <ele>927</ele>
        <time>2012-01-03T10:30:30Z</time>
      </trkpt>
      <trkpt lat="44.36047" lon="3.92578">
        <ele>927</ele>
        <time>2012-01-03T10:30:35Z</time>
      </trkpt>
      <trkpt lat="44.36053" lon="3.92574">
        <ele>927</ele>
        <time>2012-01-03T10:30:35Z</time>
      </trkpt>
      <trkpt lat="44.36055" lon="3.92573">
        <ele>927</ele>
        <time>2012-01-03T10:30:36Z</time>
      </trkpt>
      <trkpt lat="44.36063" lon="3.92568">
        <ele>927</ele>
        <time>2012-01-03T10:30:42Z</time>
      </trkpt>
      <trkpt lat="44.36065" lon="3.92568">
        <ele>927</ele>
        <time>2012-01-03T10:30:43Z</time>
      </trkpt>
      <trkpt lat="44.36066" lon="3.92567">
        <ele>927</ele>
        <time>2012-01-03T10:30:43Z</time>
      </trkpt>
      <trkpt lat="44.36069" lon="3.92566">
        <ele>928</ele>
        <time>2012-01-03T10:30:48Z</time>
      </trkpt>
      <trkpt lat="44.36074" lon="3.92565">
        <ele>929</ele>
        <time>2012-01-03T10:30:49Z</time>
      </trkpt>
      <trkpt lat="44.36076" lon="3.92564">
        <ele>930</ele>
        <time>2012-01-03T10:30:49Z</time>
      </trkpt>
      <trkpt lat="44.3608" lon="3.92562">
        <ele>931</ele>
        <time>2012-01-03T10:30:54Z</time>
      </trkpt>
      <trkpt lat="44.36085" lon="3.92555">
        <ele>932</ele>
        <time>2012-01-03T10:30:54Z</time>
      </trkpt>
      <trkpt lat="44.36086" lon="3.92554">
        <ele>932</ele>
        <time>2012-01-03T10:30:55Z</time>
      </trkpt>
      <trkpt lat="44.36094" lon="3.92544">
        <ele>932</ele>
        <time>2012-01-03T10:31:01Z</time>
      </trkpt>
      <trkpt lat="44.36096" lon="3.92542">
        <ele>932</ele>
        <time>2012-01-03T10:31:02Z</time>
      </trkpt>
      <trkpt lat="44.36097" lon="3.9254">
        <ele>932</ele>
        <time>2012-01-03T10:31:03Z</time>
      </trkpt>
      <trkpt lat="44.36104" lon="3.92534">
        <ele>932</ele>
        <time>2012-01-03T10:31:08Z</time>
      </trkpt>
      <trkpt lat="44.36105" lon="3.92533">
        <ele>932</ele>
        <time>2012-01-03T10:31:08Z</time>
      </trkpt>
      <trkpt lat="44.36108" lon="3.92528">
        <ele>932</ele>
        <time>2012-01-03T10:31:14Z</time>
      </trkpt>
      <trkpt lat="44.36113" lon="3.92519">
        <ele>932</ele>
        <time>2012-01-03T10:31:14Z</time>
      </trkpt>
      <trkpt lat="44.36115" lon="3.92517">
        <ele>932</ele>
        <time>2012-01-03T10:31:15Z</time>
      </trkpt>
      <trkpt lat="44.36116" lon="3.92515">
        <ele>932</ele>
        <time>2012-01-03T10:31:17Z</time>
      </trkpt>
      <trkpt lat="44.36117" lon="3.92513">
        <ele>932</ele>
        <time>2012-01-03T10:31:18Z</time>
      </trkpt>
      <trkpt lat="44.36119" lon="3.92508">
        <ele>932</ele>
        <time>2012-01-03T10:31:22Z</time>
      </trkpt>
      <trkpt lat="44.36123" lon="3.92502">
        <ele>932</ele>
        <time>2012-01-03T10:31:22Z</time>
      </trkpt>
      <trkpt lat="44.36124" lon="3.925">
        <ele>932</ele>
        <time>2012-01-03T10:31:23Z</time>
      </trkpt>
      <trkpt lat="44.3613" lon="3.9249">
        <ele>932</ele>
        <time>2012-01-03T10:31:29Z</time>
      </trkpt>
      <trkpt lat="44.36132" lon="3.92488">
        <ele>932</ele>
        <time>2012-01-03T10:31:30Z</time>
      </trkpt>
      <trkpt lat="44.36134" lon="3.92487">
        <ele>932</ele>
        <time>2012-01-03T10:31:32Z</time>
      </trkpt>
      <trkpt lat="44.36135" lon="3.92484">
        <ele>932</ele>
        <time>2012-01-03T10:31:36Z</time>
      </trkpt>
      <trkpt lat="44.36138" lon="3.92479">
        <ele>932</ele>
        <time>2012-01-03T10:31:37Z</time>
      </trkpt>
      <trkpt lat="44.36139" lon="3.92478">
        <ele>932</ele>
        <time>2012-01-03T10:31:38Z</time>
      </trkpt>
      <trkpt lat="44.3614" lon="3.92477">
        <ele>932</ele>
        <time>2012-01-03T10:31:38Z</time>
      </trkpt>
      <trkpt lat="44.36141" lon="3.92475">
        <ele>932</ele>
        <time>2012-01-03T10:31:40Z</time>
      </trkpt>
      <trkpt lat="44.36144" lon="3.9247">
        <ele>932</ele>
        <time>2012-01-03T10:31:45Z</time>
      </trkpt>
      <trkpt lat="44.36146" lon="3.92465">
        <ele>932</ele>
        <time>2012-01-03T10:31:46Z</time>
      </trkpt>
      <trkpt lat="44.36148" lon="3.92463">
        <ele>932</ele>
        <time>2012-01-03T10:31:46Z</time>
      </trkpt>
      <trkpt lat="44.36153" lon="3.92456">
        <ele>932</ele>
        <time>2012-01-03T10:31:52Z</time>
      </trkpt>
      <trkpt lat="44.36155" lon="3.92455">
        <ele>932</ele>
        <time>2012-01-03T10:31:53Z</time>
      </trkpt>
      <trkpt lat="44.36156" lon="3.92454">
        <ele>932</ele>
        <time>2012-01-03T10:31:54Z</time>
      </trkpt>
      <trkpt lat="44.3616" lon="3.92452">
        <ele>932</ele>
        <time>2012-01-03T10:31:59Z</time>
      </trkpt>
      <trkpt lat="44.36166" lon="3.92449">
        <ele>933</ele>
        <time>2012-01-03T10:31:59Z</time>
      </trkpt>
      <trkpt lat="44.36167" lon="3.92448">
        <ele>934</ele>
        <time>2012-01-03T10:32:01Z</time>
      </trkpt>
      <trkpt lat="44.36169" lon="3.9245">
        <ele>935</ele>
        <time>2012-01-03T10:32:06Z</time>
      </trkpt>
      <trkpt lat="44.36173" lon="3.92455">
        <ele>936</ele>
        <time>2012-01-03T10:32:07Z</time>
      </trkpt>
      <trkpt lat="44.36176" lon="3.92458">
        <ele>938</ele>
        <time>2012-01-03T10:32:09Z</time>
      </trkpt>
      <trkpt lat="44.36178" lon="3.9246">
        <ele>939</ele>
        <time>2012-01-03T10:32:15Z</time>
      </trkpt>
      <trkpt lat="44.36186" lon="3.92466">
        <ele>940</ele>
        <time>2012-01-03T10:32:16Z</time>
      </trkpt>
      <trkpt lat="44.36187" lon="3.92468">
        <ele>941</ele>
        <time>2012-01-03T10:32:17Z</time>
      </trkpt>
      <trkpt lat="44.36189" lon="3.9247">
        <ele>942</ele>
        <time>2012-01-03T10:32:18Z</time>
      </trkpt>
      <trkpt lat="44.36192" lon="3.92471">
        <ele>943</ele>
        <time>2012-01-03T10:32:22Z</time>
      </trkpt>
      <trkpt lat="44.36196" lon="3.92474">
        <ele>944</ele>
        <time>2012-01-03T10:32:22Z</time>
      </trkpt>
      <trkpt lat="44.36198" lon="3.92476">
        <ele>946</ele>
        <time>2012-01-03T10:32:24Z</time>
      </trkpt>
      <trkpt lat="44.362" lon="3.92476">
        <ele>947</ele>
        <time>2012-01-03T10:32:26Z</time>
      </trkpt>
      <trkpt lat="44.36203" lon="3.92478">
        <ele>948</ele>
        <time>2012-01-03T10:32:30Z</time>
      </trkpt>
      <trkpt lat="44.36206" lon="3.9248">
        <ele>949</ele>
        <time>2012-01-03T10:32:30Z</time>
      </trkpt>
      <trkpt lat="44.36208" lon="3.92481">
        <ele>949</ele>
        <time>2012-01-03T10:32:31Z</time>
      </trkpt>
      <trkpt lat="44.36216" lon="3.92487">
        <ele>950</ele>
        <time>2012-01-03T10:32:37Z</time>
      </trkpt>
      <trkpt lat="44.36217" lon="3.92489">
        <ele>951</ele>
        <time>2012-01-03T10:32:37Z</time>
      </trkpt>
      <trkpt lat="44.36222" lon="3.9249">
        <ele>952</ele>
        <time>2012-01-03T10:32:43Z</time>
      </trkpt>
      <trkpt lat="44.36228" lon="3.92487">
        <ele>953</ele>
        <time>2012-01-03T10:32:43Z</time>
      </trkpt>
      <trkpt lat="44.3623" lon="3.92486">
        <ele>954</ele>
        <time>2012-01-03T10:32:45Z</time>
      </trkpt>
      <trkpt lat="44.36233" lon="3.92486">
        <ele>954</ele>
        <time>2012-01-03T10:32:45Z</time>
      </trkpt>
      <trkpt lat="44.36235" lon="3.92485">
        <ele>954</ele>
        <time>2012-01-03T10:32:47Z</time>
      </trkpt>
      <trkpt lat="44.36244" lon="3.92483">
        <ele>954</ele>
        <time>2012-01-03T10:32:52Z</time>
      </trkpt>
      <trkpt lat="44.36246" lon="3.92483">
        <ele>954</ele>
        <time>2012-01-03T10:32:52Z</time>
      </trkpt>
      <trkpt lat="44.36249" lon="3.92482">
        <ele>954</ele>
        <time>2012-01-03T10:32:58Z</time>
      </trkpt>
      <trkpt lat="44.36253" lon="3.92483">
        <ele>954</ele>
        <time>2012-01-03T10:32:58Z</time>
      </trkpt>
      <trkpt lat="44.36254" lon="3.92483">
        <ele>954</ele>
        <time>2012-01-03T10:33:01Z</time>
      </trkpt>
      <trkpt lat="44.36256" lon="3.92483">
        <ele>954</ele>
        <time>2012-01-03T10:33:05Z</time>
      </trkpt>
      <trkpt lat="44.36261" lon="3.92483">
        <ele>954</ele>
        <time>2012-01-03T10:33:05Z</time>
      </trkpt>
      <trkpt lat="44.36262" lon="3.92483">
        <ele>954</ele>
        <time>2012-01-03T10:33:06Z</time>
      </trkpt>
      <trkpt lat="44.36271" lon="3.92483">
        <ele>954</ele>
        <time>2012-01-03T10:33:12Z</time>
      </trkpt>
      <trkpt lat="44.36272" lon="3.92484">
        <ele>954</ele>
        <time>2012-01-03T10:33:13Z</time>
      </trkpt>
      <trkpt lat="44.36274" lon="3.92484">
        <ele>954</ele>
        <time>2012-01-03T10:33:14Z</time>
      </trkpt>
      <trkpt lat="44.36277" lon="3.92484">
        <ele>954</ele>
        <time>2012-01-03T10:33:19Z</time>
      </trkpt>
      <trkpt lat="44.36285" lon="3.92483">
        <ele>954</ele>
        <time>2012-01-03T10:33:19Z</time>
      </trkpt>
      <trkpt lat="44.36287" lon="3.92483">
        <ele>954</ele>
        <time>2012-01-03T10:33:20Z</time>
      </trkpt>
      <trkpt lat="44.36291" lon="3.92482">
        <ele>954</ele>
        <time>2012-01-03T10:33:25Z</time>
      </trkpt>
      <trkpt lat="44.36296" lon="3.92478">
        <ele>954</ele>
        <time>2012-01-03T10:33:25Z</time>
      </trkpt>
      <trkpt lat="44.36298" lon="3.92476">
        <ele>954</ele>
        <time>2012-01-03T10:33:27Z</time>
      </trkpt>
      <trkpt lat="44.36299" lon="3.92474">
        <ele>954</ele>
        <time>2012-01-03T10:33:27Z</time>
      </trkpt>
      <trkpt lat="44.36298" lon="3.92471">
        <ele>954</ele>
        <time>2012-01-03T10:33:29Z</time>
      </trkpt>
      <trkpt lat="44.36298" lon="3.92469">
        <ele>954</ele>
        <time>2012-01-03T10:33:30Z</time>
      </trkpt>
      <trkpt lat="44.36295" lon="3.92468">
        <ele>954</ele>
        <time>2012-01-03T10:33:35Z</time>
      </trkpt>
      <trkpt lat="44.36288" lon="3.92468">
        <ele>954</ele>
        <time>2012-01-03T10:33:37Z</time>
      </trkpt>
      <trkpt lat="44.36286" lon="3.92468">
        <ele>954</ele>
        <time>2012-01-03T10:33:38Z</time>
      </trkpt>
      <trkpt lat="44.36282" lon="3.92469">
        <ele>955</ele>
        <time>2012-01-03T10:33:43Z</time>
      </trkpt>
      <trkpt lat="44.36276" lon="3.92472">
        <ele>956</ele>
        <time>2012-01-03T10:33:43Z</time>
      </trkpt>
      <trkpt lat="44.36274" lon="3.92472">
        <ele>957</ele>
        <time>2012-01-03T10:33:44Z</time>
      </trkpt>
      <trkpt lat="44.36272" lon="3.92471">
        <ele>958</ele>
        <time>2012-01-03T10:33:45Z</time>
      </trkpt>
      <trkpt lat="44.36268" lon="3.92471">
        <ele>959</ele>
        <time>2012-01-03T10:33:50Z</time>
      </trkpt>
      <trkpt lat="44.36263" lon="3.92468">
        <ele>960</ele>
        <time>2012-01-03T10:33:50Z</time>
      </trkpt>
      <trkpt lat="44.36261" lon="3.92467">
        <ele>961</ele>
        <time>2012-01-03T10:33:51Z</time>
      </trkpt>
      <trkpt lat="44.36251" lon="3.92464">
        <ele>962</ele>
        <time>2012-01-03T10:33:57Z</time>
      </trkpt>
      <trkpt lat="44.3625" lon="3.92463">
        <ele>962</ele>
        <time>2012-01-03T10:33:57Z</time>
      </trkpt>
      <trkpt lat="44.36246" lon="3.92464">
        <ele>962</ele>
        <time>2012-01-03T10:34:03Z</time>
      </trkpt>
      <trkpt lat="44.36238" lon="3.9246">
        <ele>962</ele>
        <time>2012-01-03T10:34:04Z</time>
      </trkpt>
      <trkpt lat="44.36235" lon="3.92457">
        <ele>962</ele>
        <time>2012-01-03T10:34:06Z</time>
      </trkpt>
      <trkpt lat="44.36231" lon="3.92453">
        <ele>962</ele>
        <time>2012-01-03T10:34:11Z</time>
      </trkpt>
      <trkpt lat="44.36227" lon="3.92447">
        <ele>962</ele>
        <time>2012-01-03T10:34:11Z</time>
      </trkpt>
      <trkpt lat="44.36225" lon="3.92446">
        <ele>962</ele>
        <time>2012-01-03T10:34:12Z</time>
      </trkpt>
      <trkpt lat="44.36224" lon="3.92445">
        <ele>962</ele>
        <time>2012-01-03T10:34:13Z</time>
      </trkpt>
      <trkpt lat="44.36222" lon="3.92443">
        <ele>962</ele>
        <time>2012-01-03T10:34:18Z</time>
      </trkpt>
      <trkpt lat="44.3622" lon="3.92439">
        <ele>962</ele>
        <time>2012-01-03T10:34:19Z</time>
      </trkpt>
      <trkpt lat="44.36218" lon="3.92438">
        <ele>962</ele>
        <time>2012-01-03T10:34:19Z</time>
      </trkpt>
      <trkpt lat="44.36215" lon="3.92436">
        <ele>962</ele>
        <time>2012-01-03T10:34:25Z</time>
      </trkpt>
      <trkpt lat="44.36209" lon="3.92432">
        <ele>962</ele>
        <time>2012-01-03T10:34:25Z</time>
      </trkpt>
      <trkpt lat="44.36208" lon="3.9243">
        <ele>963</ele>
        <time>2012-01-03T10:34:26Z</time>
      </trkpt>
      <trkpt lat="44.36205" lon="3.92426">
        <ele>963</ele>
        <time>2012-01-03T10:34:31Z</time>
      </trkpt>
      <trkpt lat="44.36203" lon="3.92423">
        <ele>963</ele>
        <time>2012-01-03T10:34:31Z</time>
      </trkpt>
      <trkpt lat="44.36195" lon="3.92416">
        <ele>963</ele>
        <time>2012-01-03T10:34:38Z</time>
      </trkpt>
      <trkpt lat="44.36193" lon="3.92415">
        <ele>963</ele>
        <time>2012-01-03T10:34:39Z</time>
      </trkpt>
      <trkpt lat="44.36192" lon="3.92414">
        <ele>963</ele>
        <time>2012-01-03T10:34:39Z</time>
      </trkpt>
      <trkpt lat="44.36189" lon="3.92412">
        <ele>963</ele>
        <time>2012-01-03T10:34:44Z</time>
      </trkpt>
      <trkpt lat="44.36185" lon="3.92409">
        <ele>963</ele>
        <time>2012-01-03T10:34:44Z</time>
      </trkpt>
      <trkpt lat="44.36183" lon="3.92408">
        <ele>963</ele>
        <time>2012-01-03T10:34:45Z</time>
      </trkpt>
      <trkpt lat="44.36181" lon="3.92406">
        <ele>963</ele>
        <time>2012-01-03T10:34:51Z</time>
      </trkpt>
      <trkpt lat="44.36178" lon="3.92402">
        <ele>963</ele>
        <time>2012-01-03T10:34:51Z</time>
      </trkpt>
      <trkpt lat="44.36177" lon="3.924">
        <ele>963</ele>
        <time>2012-01-03T10:34:54Z</time>
      </trkpt>
      <trkpt lat="44.36163" lon="3.92392">
        <ele>963</ele>
        <time>2012-01-03T10:35:00Z</time>
      </trkpt>
      <trkpt lat="44.36161" lon="3.9239">
        <ele>964</ele>
        <time>2012-01-03T10:35:01Z</time>
      </trkpt>
      <trkpt lat="44.36158" lon="3.92389">
        <ele>965</ele>
        <time>2012-01-03T10:35:01Z</time>
      </trkpt>
      <trkpt lat="44.36154" lon="3.92387">
        <ele>966</ele>
        <time>2012-01-03T10:35:06Z</time>
      </trkpt>
      <trkpt lat="44.3615" lon="3.92388">
        <ele>967</ele>
        <time>2012-01-03T10:35:07Z</time>
      </trkpt>
      <trkpt lat="44.36148" lon="3.92389">
        <ele>968</ele>
        <time>2012-01-03T10:35:08Z</time>
      </trkpt>
      <trkpt lat="44.36144" lon="3.92388">
        <ele>970</ele>
        <time>2012-01-03T10:35:13Z</time>
      </trkpt>
      <trkpt lat="44.36139" lon="3.92391">
        <ele>971</ele>
        <time>2012-01-03T10:35:13Z</time>
      </trkpt>
      <trkpt lat="44.36137" lon="3.92392">
        <ele>972</ele>
        <time>2012-01-03T10:35:14Z</time>
      </trkpt>
      <trkpt lat="44.36135" lon="3.92393">
        <ele>972</ele>
        <time>2012-01-03T10:35:16Z</time>
      </trkpt>
      <trkpt lat="44.36132" lon="3.92394">
        <ele>972</ele>
        <time>2012-01-03T10:35:20Z</time>
      </trkpt>
      <trkpt lat="44.36127" lon="3.92394">
        <ele>972</ele>
        <time>2012-01-03T10:35:20Z</time>
      </trkpt>
      <trkpt lat="44.36125" lon="3.92393">
        <ele>972</ele>
        <time>2012-01-03T10:35:21Z</time>
      </trkpt>
      <trkpt lat="44.36125" lon="3.92391">
        <ele>972</ele>
        <time>2012-01-03T10:35:23Z</time>
      </trkpt>
      <trkpt lat="44.36125" lon="3.92389">
        <ele>972</ele>
        <time>2012-01-03T10:35:23Z</time>
      </trkpt>
      <trkpt lat="44.36132" lon="3.92386">
        <ele>972</ele>
        <time>2012-01-03T10:35:30Z</time>
      </trkpt>
      <trkpt lat="44.36132" lon="3.92388">
        <ele>972</ele>
        <time>2012-01-03T10:35:32Z</time>
      </trkpt>
      <trkpt lat="44.36131" lon="3.92388">
        <ele>972</ele>
        <time>2012-01-03T10:35:38Z</time>
      </trkpt>
      <trkpt lat="44.36132" lon="3.92386">
        <ele>972</ele>
        <time>2012-01-03T10:35:42Z</time>
      </trkpt>
      <trkpt lat="44.36134" lon="3.92387">
        <ele>972</ele>
        <time>2012-01-03T10:35:44Z</time>
      </trkpt>
      <trkpt lat="44.36136" lon="3.92386">
        <ele>971</ele>
        <time>2012-01-03T10:35:46Z</time>
      </trkpt>
      <trkpt lat="44.36138" lon="3.92384">
        <ele>969</ele>
        <time>2012-01-03T10:35:48Z</time>
      </trkpt>
      <trkpt lat="44.36138" lon="3.92385">
        <ele>967</ele>
        <time>2012-01-03T10:35:51Z</time>
      </trkpt>
      <trkpt lat="44.36137" lon="3.92387">
        <ele>967</ele>
        <time>2012-01-03T10:35:53Z</time>
      </trkpt>
      <trkpt lat="44.36136" lon="3.92389">
        <ele>967</ele>
        <time>2012-01-03T10:35:55Z</time>
      </trkpt>
      <trkpt lat="44.36136" lon="3.92391">
        <ele>967</ele>
        <time>2012-01-03T10:35:57Z</time>
      </trkpt>
      <trkpt lat="44.36135" lon="3.92393">
        <ele>970</ele>
        <time>2012-01-03T10:36:00Z</time>
      </trkpt>
      <trkpt lat="44.36134" lon="3.92394">
        <ele>974</ele>
        <time>2012-01-03T10:36:04Z</time>
      </trkpt>
      <trkpt lat="44.36134" lon="3.92396">
        <ele>976</ele>
        <time>2012-01-03T10:36:07Z</time>
      </trkpt>
      <trkpt lat="44.36134" lon="3.92398">
        <ele>978</ele>
        <time>2012-01-03T10:36:11Z</time>
      </trkpt>
      <trkpt lat="44.36134" lon="3.92399">
        <ele>980</ele>
        <time>2012-01-03T10:36:16Z</time>
      </trkpt>
      <trkpt lat="44.36136" lon="3.92401">
        <ele>982</ele>
        <time>2012-01-03T10:36:23Z</time>
      </trkpt>
      <trkpt lat="44.36137" lon="3.92401">
        <ele>982</ele>
        <time>2012-01-03T10:36:33Z</time>
      </trkpt>
      <trkpt lat="44.36138" lon="3.92402">
        <ele>982</ele>
        <time>2012-01-03T10:36:37Z</time>
      </trkpt>
      <trkpt lat="44.3614" lon="3.92401">
        <ele>982</ele>
        <time>2012-01-03T10:36:40Z</time>
      </trkpt>
      <trkpt lat="44.36141" lon="3.924">
        <ele>973</ele>
        <time>2012-01-03T10:36:50Z</time>
      </trkpt>
      <trkpt lat="44.36141" lon="3.92398">
        <ele>972</ele>
        <time>2012-01-03T10:36:52Z</time>
      </trkpt>
      <trkpt lat="44.36142" lon="3.92396">
        <ele>971</ele>
        <time>2012-01-03T10:36:57Z</time>
      </trkpt>
      <trkpt lat="44.36144" lon="3.92394">
        <ele>970</ele>
        <time>2012-01-03T10:37:00Z</time>
      </trkpt>
      <trkpt lat="44.36145" lon="3.92394">
        <ele>966</ele>
        <time>2012-01-03T10:37:04Z</time>
      </trkpt>
      <trkpt lat="44.36145" lon="3.92392">
        <ele>966</ele>
        <time>2012-01-03T10:37:15Z</time>
      </trkpt>
      <trkpt lat="44.36144" lon="3.92391">
        <ele>966</ele>
        <time>2012-01-03T10:37:17Z</time>
      </trkpt>
      <trkpt lat="44.36143" lon="3.92389">
        <ele>965</ele>
        <time>2012-01-03T10:37:19Z</time>
      </trkpt>
      <trkpt lat="44.36145" lon="3.92388">
        <ele>965</ele>
        <time>2012-01-03T10:37:23Z</time>
      </trkpt>
      <trkpt lat="44.36144" lon="3.92386">
        <ele>964</ele>
        <time>2012-01-03T10:37:26Z</time>
      </trkpt>
      <trkpt lat="44.36145" lon="3.92384">
        <ele>963</ele>
        <time>2012-01-03T10:37:28Z</time>
      </trkpt>
      <trkpt lat="44.36147" lon="3.92384">
        <ele>963</ele>
        <time>2012-01-03T10:37:30Z</time>
      </trkpt>
      <trkpt lat="44.36148" lon="3.92383">
        <ele>963</ele>
        <time>2012-01-03T10:37:31Z</time>
      </trkpt>
      <trkpt lat="44.3615" lon="3.92382">
        <ele>963</ele>
        <time>2012-01-03T10:37:32Z</time>
      </trkpt>
      <trkpt lat="44.36152" lon="3.9238">
        <ele>963</ele>
        <time>2012-01-03T10:37:33Z</time>
      </trkpt>
      <trkpt lat="44.36154" lon="3.92378">
        <ele>963</ele>
        <time>2012-01-03T10:37:35Z</time>
      </trkpt>
      <trkpt lat="44.36156" lon="3.92377">
        <ele>963</ele>
        <time>2012-01-03T10:37:37Z</time>
      </trkpt>
      <trkpt lat="44.36158" lon="3.92375">
        <ele>963</ele>
        <time>2012-01-03T10:37:38Z</time>
      </trkpt>
      <trkpt lat="44.3616" lon="3.92376">
        <ele>963</ele>
        <time>2012-01-03T10:37:39Z</time>
      </trkpt>
      <trkpt lat="44.36163" lon="3.92377">
        <ele>963</ele>
        <time>2012-01-03T10:37:41Z</time>
      </trkpt>
      <trkpt lat="44.36164" lon="3.92378">
        <ele>963</ele>
        <time>2012-01-03T10:37:42Z</time>
      </trkpt>
      <trkpt lat="44.36166" lon="3.92378">
        <ele>964</ele>
        <time>2012-01-03T10:37:44Z</time>
      </trkpt>
      <trkpt lat="44.36167" lon="3.9238">
        <ele>965</ele>
        <time>2012-01-03T10:37:45Z</time>
      </trkpt>
      <trkpt lat="44.36169" lon="3.92382">
        <ele>965</ele>
        <time>2012-01-03T10:37:46Z</time>
      </trkpt>
      <trkpt lat="44.3617" lon="3.92383">
        <ele>965</ele>
        <time>2012-01-03T10:37:47Z</time>
      </trkpt>
      <trkpt lat="44.36171" lon="3.92383">
        <ele>965</ele>
        <time>2012-01-03T10:37:48Z</time>
      </trkpt>
      <trkpt lat="44.36173" lon="3.92385">
        <ele>965</ele>
        <time>2012-01-03T10:37:49Z</time>
      </trkpt>
      <trkpt lat="44.36174" lon="3.92387">
        <ele>965</ele>
        <time>2012-01-03T10:37:50Z</time>
      </trkpt>
      <trkpt lat="44.36176" lon="3.92389">
        <ele>965</ele>
        <time>2012-01-03T10:37:51Z</time>
      </trkpt>
      <trkpt lat="44.36177" lon="3.92391">
        <ele>966</ele>
        <time>2012-01-03T10:37:52Z</time>
      </trkpt>
      <trkpt lat="44.36179" lon="3.92392">
        <ele>966</ele>
        <time>2012-01-03T10:37:53Z</time>
      </trkpt>
      <trkpt lat="44.3618" lon="3.92393">
        <ele>966</ele>
        <time>2012-01-03T10:37:54Z</time>
      </trkpt>
      <trkpt lat="44.36182" lon="3.92394">
        <ele>967</ele>
        <time>2012-01-03T10:37:55Z</time>
      </trkpt>
      <trkpt lat="44.36185" lon="3.92395">
        <ele>967</ele>
        <time>2012-01-03T10:37:56Z</time>
      </trkpt>
      <trkpt lat="44.36187" lon="3.92396">
        <ele>967</ele>
        <time>2012-01-03T10:37:57Z</time>
      </trkpt>
      <trkpt lat="44.36189" lon="3.92397">
        <ele>967</ele>
        <time>2012-01-03T10:37:58Z</time>
      </trkpt>
      <trkpt lat="44.3619" lon="3.92398">
        <ele>967</ele>
        <time>2012-01-03T10:37:59Z</time>
      </trkpt>
      <trkpt lat="44.36192" lon="3.92398">
        <ele>967</ele>
        <time>2012-01-03T10:38:00Z</time>
      </trkpt>
      <trkpt lat="44.36195" lon="3.92398">
        <ele>967</ele>
        <time>2012-01-03T10:38:02Z</time>
      </trkpt>
      <trkpt lat="44.36203" lon="3.92401">
        <ele>967</ele>
        <time>2012-01-03T10:38:07Z</time>
      </trkpt>
      <trkpt lat="44.36206" lon="3.92402">
        <ele>967</ele>
        <time>2012-01-03T10:38:08Z</time>
      </trkpt>
      <trkpt lat="44.36209" lon="3.92402">
        <ele>967</ele>
        <time>2012-01-03T10:38:08Z</time>
      </trkpt>
      <trkpt lat="44.36211" lon="3.92404">
        <ele>968</ele>
        <time>2012-01-03T10:38:09Z</time>
      </trkpt>
      <trkpt lat="44.36216" lon="3.92406">
        <ele>969</ele>
        <time>2012-01-03T10:38:14Z</time>
      </trkpt>
      <trkpt lat="44.36221" lon="3.92409">
        <ele>970</ele>
        <time>2012-01-03T10:38:14Z</time>
      </trkpt>
      <trkpt lat="44.36224" lon="3.9241">
        <ele>971</ele>
        <time>2012-01-03T10:38:15Z</time>
      </trkpt>
      <trkpt lat="44.36227" lon="3.92412">
        <ele>972</ele>
        <time>2012-01-03T10:38:21Z</time>
      </trkpt>
      <trkpt lat="44.36235" lon="3.92416">
        <ele>973</ele>
        <time>2012-01-03T10:38:21Z</time>
      </trkpt>
      <trkpt lat="44.36237" lon="3.92417">
        <ele>974</ele>
        <time>2012-01-03T10:38:22Z</time>
      </trkpt>
      <trkpt lat="44.36243" lon="3.92418">
        <ele>975</ele>
        <time>2012-01-03T10:38:27Z</time>
      </trkpt>
      <trkpt lat="44.36247" lon="3.92419">
        <ele>976</ele>
        <time>2012-01-03T10:38:27Z</time>
      </trkpt>
      <trkpt lat="44.36248" lon="3.92418">
        <ele>977</ele>
        <time>2012-01-03T10:38:28Z</time>
      </trkpt>
      <trkpt lat="44.36251" lon="3.92416">
        <ele>978</ele>
        <time>2012-01-03T10:38:29Z</time>
      </trkpt>
      <trkpt lat="44.36252" lon="3.92414">
        <ele>979</ele>
        <time>2012-01-03T10:38:31Z</time>
      </trkpt>
      <trkpt lat="44.36262" lon="3.92412">
        <ele>980</ele>
        <time>2012-01-03T10:38:36Z</time>
      </trkpt>
      <trkpt lat="44.36264" lon="3.92412">
        <ele>981</ele>
        <time>2012-01-03T10:38:36Z</time>
      </trkpt>
      <trkpt lat="44.36266" lon="3.92413">
        <ele>981</ele>
        <time>2012-01-03T10:38:37Z</time>
      </trkpt>
      <trkpt lat="44.3627" lon="3.92412">
        <ele>981</ele>
        <time>2012-01-03T10:38:42Z</time>
      </trkpt>
      <trkpt lat="44.36278" lon="3.92411">
        <ele>981</ele>
        <time>2012-01-03T10:38:43Z</time>
      </trkpt>
      <trkpt lat="44.3628" lon="3.9241">
        <ele>981</ele>
        <time>2012-01-03T10:38:43Z</time>
      </trkpt>
      <trkpt lat="44.36282" lon="3.92409">
        <ele>981</ele>
        <time>2012-01-03T10:38:44Z</time>
      </trkpt>
      <trkpt lat="44.36288" lon="3.92407">
        <ele>981</ele>
        <time>2012-01-03T10:38:49Z</time>
      </trkpt>
      <trkpt lat="44.36293" lon="3.92405">
        <ele>981</ele>
        <time>2012-01-03T10:38:49Z</time>
      </trkpt>
      <trkpt lat="44.36295" lon="3.92404">
        <ele>981</ele>
        <time>2012-01-03T10:38:51Z</time>
      </trkpt>
      <trkpt lat="44.36298" lon="3.92403">
        <ele>981</ele>
        <time>2012-01-03T10:38:52Z</time>
      </trkpt>
      <trkpt lat="44.363" lon="3.92402">
        <ele>980</ele>
        <time>2012-01-03T10:38:53Z</time>
      </trkpt>
      <trkpt lat="44.36303" lon="3.92401">
        <ele>980</ele>
        <time>2012-01-03T10:38:57Z</time>
      </trkpt>
      <trkpt lat="44.36309" lon="3.92397">
        <ele>980</ele>
        <time>2012-01-03T10:38:57Z</time>
      </trkpt>
      <trkpt lat="44.36311" lon="3.92396">
        <ele>980</ele>
        <time>2012-01-03T10:38:58Z</time>
      </trkpt>
      <trkpt lat="44.36314" lon="3.92395">
        <ele>980</ele>
        <time>2012-01-03T10:39:04Z</time>
      </trkpt>
      <trkpt lat="44.36321" lon="3.92389">
        <ele>980</ele>
        <time>2012-01-03T10:39:04Z</time>
      </trkpt>
      <trkpt lat="44.36323" lon="3.92388">
        <ele>980</ele>
        <time>2012-01-03T10:39:05Z</time>
      </trkpt>
      <trkpt lat="44.36325" lon="3.92387">
        <ele>980</ele>
        <time>2012-01-03T10:39:06Z</time>
      </trkpt>
      <trkpt lat="44.36329" lon="3.92384">
        <ele>980</ele>
        <time>2012-01-03T10:39:11Z</time>
      </trkpt>
      <trkpt lat="44.36333" lon="3.92378">
        <ele>980</ele>
        <time>2012-01-03T10:39:11Z</time>
      </trkpt>
      <trkpt lat="44.36335" lon="3.92376">
        <ele>980</ele>
        <time>2012-01-03T10:39:12Z</time>
      </trkpt>
      <trkpt lat="44.36338" lon="3.92372">
        <ele>980</ele>
        <time>2012-01-03T10:39:18Z</time>
      </trkpt>
      <trkpt lat="44.36343" lon="3.92363">
        <ele>980</ele>
        <time>2012-01-03T10:39:18Z</time>
      </trkpt>
      <trkpt lat="44.36344" lon="3.92361">
        <ele>980</ele>
        <time>2012-01-03T10:39:19Z</time>
      </trkpt>
      <trkpt lat="44.36346" lon="3.92356">
        <ele>980</ele>
        <time>2012-01-03T10:39:24Z</time>
      </trkpt>
      <trkpt lat="44.36349" lon="3.92348">
        <ele>980</ele>
        <time>2012-01-03T10:39:24Z</time>
      </trkpt>
      <trkpt lat="44.3635" lon="3.92346">
        <ele>980</ele>
        <time>2012-01-03T10:39:25Z</time>
      </trkpt>
      <trkpt lat="44.36352" lon="3.9234">
        <ele>980</ele>
        <time>2012-01-03T10:39:31Z</time>
      </trkpt>
      <trkpt lat="44.36355" lon="3.9233">
        <ele>980</ele>
        <time>2012-01-03T10:39:31Z</time>
      </trkpt>
      <trkpt lat="44.36356" lon="3.92327">
        <ele>980</ele>
        <time>2012-01-03T10:39:32Z</time>
      </trkpt>
      <trkpt lat="44.36357" lon="3.92321">
        <ele>980</ele>
        <time>2012-01-03T10:39:37Z</time>
      </trkpt>
      <trkpt lat="44.3636" lon="3.92313">
        <ele>980</ele>
        <time>2012-01-03T10:39:37Z</time>
      </trkpt>
      <trkpt lat="44.36361" lon="3.9231">
        <ele>980</ele>
        <time>2012-01-03T10:39:38Z</time>
      </trkpt>
      <trkpt lat="44.36362" lon="3.92308">
        <ele>980</ele>
        <time>2012-01-03T10:39:40Z</time>
      </trkpt>
      <trkpt lat="44.36364" lon="3.92303">
        <ele>980</ele>
        <time>2012-01-03T10:39:45Z</time>
      </trkpt>
      <trkpt lat="44.36368" lon="3.92293">
        <ele>980</ele>
        <time>2012-01-03T10:39:45Z</time>
      </trkpt>
      <trkpt lat="44.36369" lon="3.92291">
        <ele>980</ele>
        <time>2012-01-03T10:39:46Z</time>
      </trkpt>
      <trkpt lat="44.36371" lon="3.92286">
        <ele>980</ele>
        <time>2012-01-03T10:39:51Z</time>
      </trkpt>
      <trkpt lat="44.36375" lon="3.9228">
        <ele>981</ele>
        <time>2012-01-03T10:39:51Z</time>
      </trkpt>
      <trkpt lat="44.36377" lon="3.92278">
        <ele>982</ele>
        <time>2012-01-03T10:39:52Z</time>
      </trkpt>
      <trkpt lat="44.36379" lon="3.92274">
        <ele>983</ele>
        <time>2012-01-03T10:39:58Z</time>
      </trkpt>
      <trkpt lat="44.36383" lon="3.92264">
        <ele>984</ele>
        <time>2012-01-03T10:39:58Z</time>
      </trkpt>
      <trkpt lat="44.36385" lon="3.92262">
        <ele>985</ele>
        <time>2012-01-03T10:39:59Z</time>
      </trkpt>
      <trkpt lat="44.36386" lon="3.92261">
        <ele>986</ele>
        <time>2012-01-03T10:40:00Z</time>
      </trkpt>
      <trkpt lat="44.36387" lon="3.9226">
        <ele>987</ele>
        <time>2012-01-03T10:40:02Z</time>
      </trkpt>
      <trkpt lat="44.3639" lon="3.9226">
        <ele>988</ele>
        <time>2012-01-03T10:40:07Z</time>
      </trkpt>
      <trkpt lat="44.36395" lon="3.92258">
        <ele>989</ele>
        <time>2012-01-03T10:40:08Z</time>
      </trkpt>
      <trkpt lat="44.36396" lon="3.92259">
        <ele>991</ele>
        <time>2012-01-03T10:40:10Z</time>
      </trkpt>
      <trkpt lat="44.36398" lon="3.92261">
        <ele>992</ele>
        <time>2012-01-03T10:40:16Z</time>
      </trkpt>
      <trkpt lat="44.36407" lon="3.92267">
        <ele>993</ele>
        <time>2012-01-03T10:40:16Z</time>
      </trkpt>
      <trkpt lat="44.36409" lon="3.92268">
        <ele>994</ele>
        <time>2012-01-03T10:40:17Z</time>
      </trkpt>
      <trkpt lat="44.36412" lon="3.92273">
        <ele>995</ele>
        <time>2012-01-03T10:40:22Z</time>
      </trkpt>
      <trkpt lat="44.36417" lon="3.92276">
        <ele>996</ele>
        <time>2012-01-03T10:40:22Z</time>
      </trkpt>
      <trkpt lat="44.36419" lon="3.92276">
        <ele>997</ele>
        <time>2012-01-03T10:40:23Z</time>
      </trkpt>
      <trkpt lat="44.3642" lon="3.92276">
        <ele>998</ele>
        <time>2012-01-03T10:40:24Z</time>
      </trkpt>
      <trkpt lat="44.36424" lon="3.92279">
        <ele>999</ele>
        <time>2012-01-03T10:40:29Z</time>
      </trkpt>
      <trkpt lat="44.36431" lon="3.92281">
        <ele>1000</ele>
        <time>2012-01-03T10:40:30Z</time>
      </trkpt>
      <trkpt lat="44.36433" lon="3.92282">
        <ele>1000</ele>
        <time>2012-01-03T10:40:31Z</time>
      </trkpt>
      <trkpt lat="44.36435" lon="3.92283">
        <ele>1000</ele>
        <time>2012-01-03T10:40:31Z</time>
      </trkpt>
      <trkpt lat="44.36445" lon="3.92283">
        <ele>1000</ele>
        <time>2012-01-03T10:40:37Z</time>
      </trkpt>
      <trkpt lat="44.36447" lon="3.92282">
        <ele>1000</ele>
        <time>2012-01-03T10:40:37Z</time>
      </trkpt>
      <trkpt lat="44.36451" lon="3.92281">
        <ele>1000</ele>
        <time>2012-01-03T10:40:43Z</time>
      </trkpt>
      <trkpt lat="44.36459" lon="3.92281">
        <ele>1000</ele>
        <time>2012-01-03T10:40:43Z</time>
      </trkpt>
      <trkpt lat="44.36461" lon="3.92282">
        <ele>1000</ele>
        <time>2012-01-03T10:40:44Z</time>
      </trkpt>
      <trkpt lat="44.36465" lon="3.92282">
        <ele>1000</ele>
        <time>2012-01-03T10:40:50Z</time>
      </trkpt>
      <trkpt lat="44.36473" lon="3.92285">
        <ele>1000</ele>
        <time>2012-01-03T10:40:50Z</time>
      </trkpt>
      <trkpt lat="44.36475" lon="3.92285">
        <ele>1000</ele>
        <time>2012-01-03T10:40:51Z</time>
      </trkpt>
      <trkpt lat="44.3648" lon="3.92283">
        <ele>1000</ele>
        <time>2012-01-03T10:40:56Z</time>
      </trkpt>
      <trkpt lat="44.36485" lon="3.92281">
        <ele>1000</ele>
        <time>2012-01-03T10:40:56Z</time>
      </trkpt>
      <trkpt lat="44.36488" lon="3.92281">
        <ele>1000</ele>
        <time>2012-01-03T10:40:57Z</time>
      </trkpt>
      <trkpt lat="44.3649" lon="3.92279">
        <ele>1000</ele>
        <time>2012-01-03T10:40:58Z</time>
      </trkpt>
      <trkpt lat="44.36494" lon="3.92276">
        <ele>1000</ele>
        <time>2012-01-03T10:41:03Z</time>
      </trkpt>
      <trkpt lat="44.365" lon="3.92271">
        <ele>1000</ele>
        <time>2012-01-03T10:41:03Z</time>
      </trkpt>
      <trkpt lat="44.36502" lon="3.92269">
        <ele>1000</ele>
        <time>2012-01-03T10:41:04Z</time>
      </trkpt>
      <trkpt lat="44.36506" lon="3.92265">
        <ele>1000</ele>
        <time>2012-01-03T10:41:10Z</time>
      </trkpt>
      <trkpt lat="44.36513" lon="3.92256">
        <ele>1000</ele>
        <time>2012-01-03T10:41:10Z</time>
      </trkpt>
      <trkpt lat="44.36515" lon="3.92254">
        <ele>1000</ele>
        <time>2012-01-03T10:41:11Z</time>
      </trkpt>
      <trkpt lat="44.36526" lon="3.92243">
        <ele>1000</ele>
        <time>2012-01-03T10:41:16Z</time>
      </trkpt>
      <trkpt lat="44.36528" lon="3.92241">
        <ele>1000</ele>
        <time>2012-01-03T10:41:17Z</time>
      </trkpt>
      <trkpt lat="44.36531" lon="3.92236">
        <ele>1000</ele>
        <time>2012-01-03T10:41:23Z</time>
      </trkpt>
      <trkpt lat="44.36538" lon="3.92229">
        <ele>1000</ele>
        <time>2012-01-03T10:41:23Z</time>
      </trkpt>
      <trkpt lat="44.36538" lon="3.92227">
        <ele>1000</ele>
        <time>2012-01-03T10:41:24Z</time>
      </trkpt>
      <trkpt lat="44.36539" lon="3.92225">
        <ele>1000</ele>
        <time>2012-01-03T10:41:26Z</time>
      </trkpt>
      <trkpt lat="44.36542" lon="3.92221">
        <ele>1000</ele>
        <time>2012-01-03T10:41:31Z</time>
      </trkpt>
      <trkpt lat="44.36546" lon="3.92212">
        <ele>1000</ele>
        <time>2012-01-03T10:41:31Z</time>
      </trkpt>
      <trkpt lat="44.36547" lon="3.92209">
        <ele>1000</ele>
        <time>2012-01-03T10:41:32Z</time>
      </trkpt>
      <trkpt lat="44.3655" lon="3.92206">
        <ele>1000</ele>
        <time>2012-01-03T10:41:37Z</time>
      </trkpt>
      <trkpt lat="44.36556" lon="3.92203">
        <ele>1000</ele>
        <time>2012-01-03T10:41:39Z</time>
      </trkpt>
      <trkpt lat="44.36557" lon="3.92204">
        <ele>1000</ele>
        <time>2012-01-03T10:41:39Z</time>
      </trkpt>
      <trkpt lat="44.36559" lon="3.92204">
        <ele>1001</ele>
        <time>2012-01-03T10:41:41Z</time>
      </trkpt>
      <trkpt lat="44.36562" lon="3.92205">
        <ele>1002</ele>
        <time>2012-01-03T10:41:46Z</time>
      </trkpt>
      <trkpt lat="44.36568" lon="3.92208">
        <ele>1003</ele>
        <time>2012-01-03T10:41:46Z</time>
      </trkpt>
      <trkpt lat="44.36569" lon="3.92209">
        <ele>1004</ele>
        <time>2012-01-03T10:41:48Z</time>
      </trkpt>
      <trkpt lat="44.36571" lon="3.92211">
        <ele>1005</ele>
        <time>2012-01-03T10:41:49Z</time>
      </trkpt>
      <trkpt lat="44.36574" lon="3.92212">
        <ele>1006</ele>
        <time>2012-01-03T10:41:54Z</time>
      </trkpt>
      <trkpt lat="44.36582" lon="3.92215">
        <ele>1007</ele>
        <time>2012-01-03T10:41:54Z</time>
      </trkpt>
      <trkpt lat="44.36584" lon="3.92216">
        <ele>1008</ele>
        <time>2012-01-03T10:41:55Z</time>
      </trkpt>
      <trkpt lat="44.36596" lon="3.92216">
        <ele>1009</ele>
        <time>2012-01-03T10:42:01Z</time>
      </trkpt>
      <trkpt lat="44.36598" lon="3.92216">
        <ele>1010</ele>
        <time>2012-01-03T10:42:01Z</time>
      </trkpt>
      <trkpt lat="44.36602" lon="3.92218">
        <ele>1011</ele>
        <time>2012-01-03T10:42:07Z</time>
      </trkpt>
      <trkpt lat="44.36611" lon="3.9222">
        <ele>1012</ele>
        <time>2012-01-03T10:42:07Z</time>
      </trkpt>
      <trkpt lat="44.36613" lon="3.92221">
        <ele>1012</ele>
        <time>2012-01-03T10:42:08Z</time>
      </trkpt>
      <trkpt lat="44.36615" lon="3.92222">
        <ele>1012</ele>
        <time>2012-01-03T10:42:09Z</time>
      </trkpt>
      <trkpt lat="44.3662" lon="3.92226">
        <ele>1012</ele>
        <time>2012-01-03T10:42:14Z</time>
      </trkpt>
      <trkpt lat="44.36626" lon="3.92227">
        <ele>1012</ele>
        <time>2012-01-03T10:42:14Z</time>
      </trkpt>
      <trkpt lat="44.36628" lon="3.92228">
        <ele>1012</ele>
        <time>2012-01-03T10:42:15Z</time>
      </trkpt>
      <trkpt lat="44.36633" lon="3.92231">
        <ele>1012</ele>
        <time>2012-01-03T10:42:21Z</time>
      </trkpt>
      <trkpt lat="44.36641" lon="3.92236">
        <ele>1012</ele>
        <time>2012-01-03T10:42:21Z</time>
      </trkpt>
      <trkpt lat="44.36644" lon="3.92237">
        <ele>1012</ele>
        <time>2012-01-03T10:42:22Z</time>
      </trkpt>
      <trkpt lat="44.36654" lon="3.92244">
        <ele>1012</ele>
        <time>2012-01-03T10:42:28Z</time>
      </trkpt>
      <trkpt lat="44.36656" lon="3.92244">
        <ele>1012</ele>
        <time>2012-01-03T10:42:28Z</time>
      </trkpt>
      <trkpt lat="44.36658" lon="3.92243">
        <ele>1012</ele>
        <time>2012-01-03T10:42:29Z</time>
      </trkpt>
      <trkpt lat="44.36662" lon="3.92244">
        <ele>1012</ele>
        <time>2012-01-03T10:42:34Z</time>
      </trkpt>
      <trkpt lat="44.3667" lon="3.92248">
        <ele>1012</ele>
        <time>2012-01-03T10:42:34Z</time>
      </trkpt>
      <trkpt lat="44.36672" lon="3.9225">
        <ele>1012</ele>
        <time>2012-01-03T10:42:35Z</time>
      </trkpt>
      <trkpt lat="44.36674" lon="3.92251">
        <ele>1012</ele>
        <time>2012-01-03T10:42:36Z</time>
      </trkpt>
      <trkpt lat="44.36679" lon="3.92252">
        <ele>1012</ele>
        <time>2012-01-03T10:42:41Z</time>
      </trkpt>
      <trkpt lat="44.36686" lon="3.92248">
        <ele>1012</ele>
        <time>2012-01-03T10:42:42Z</time>
      </trkpt>
      <trkpt lat="44.36687" lon="3.92244">
        <ele>1012</ele>
        <time>2012-01-03T10:42:43Z</time>
      </trkpt>
      <trkpt lat="44.36687" lon="3.92242">
        <ele>1012</ele>
        <time>2012-01-03T10:42:44Z</time>
      </trkpt>
      <trkpt lat="44.36686" lon="3.92239">
        <ele>1012</ele>
        <time>2012-01-03T10:42:45Z</time>
      </trkpt>
      <trkpt lat="44.36684" lon="3.92236">
        <ele>1012</ele>
        <time>2012-01-03T10:42:46Z</time>
      </trkpt>
      <trkpt lat="44.36672" lon="3.92229">
        <ele>1012</ele>
        <time>2012-01-03T10:42:51Z</time>
      </trkpt>
      <trkpt lat="44.3667" lon="3.92228">
        <ele>1012</ele>
        <time>2012-01-03T10:42:53Z</time>
      </trkpt>
      <trkpt lat="44.36668" lon="3.92226">
        <ele>1012</ele>
        <time>2012-01-03T10:42:54Z</time>
      </trkpt>
      <trkpt lat="44.36663" lon="3.92224">
        <ele>1012</ele>
        <time>2012-01-03T10:42:59Z</time>
      </trkpt>
      <trkpt lat="44.36652" lon="3.9222">
        <ele>1012</ele>
        <time>2012-01-03T10:42:59Z</time>
      </trkpt>
      <trkpt lat="44.3665" lon="3.92219">
        <ele>1012</ele>
        <time>2012-01-03T10:43:01Z</time>
      </trkpt>
      <trkpt lat="44.36644" lon="3.92214">
        <ele>1012</ele>
        <time>2012-01-03T10:43:05Z</time>
      </trkpt>
      <trkpt lat="44.36638" lon="3.92211">
        <ele>1013</ele>
        <time>2012-01-03T10:43:09Z</time>
      </trkpt>
      <trkpt lat="44.36635" lon="3.92208">
        <ele>1014</ele>
        <time>2012-01-03T10:43:11Z</time>
      </trkpt>
      <trkpt lat="44.36634" lon="3.92208">
        <ele>1015</ele>
        <time>2012-01-03T10:43:11Z</time>
      </trkpt>
      <trkpt lat="44.36632" lon="3.92207">
        <ele>1016</ele>
        <time>2012-01-03T10:43:12Z</time>
      </trkpt>
      <trkpt lat="44.36631" lon="3.92207">
        <ele>1017</ele>
        <time>2012-01-03T10:43:13Z</time>
      </trkpt>
      <trkpt lat="44.36629" lon="3.92206">
        <ele>1018</ele>
        <time>2012-01-03T10:43:14Z</time>
      </trkpt>
      <trkpt lat="44.36628" lon="3.92205">
        <ele>1019</ele>
        <time>2012-01-03T10:43:15Z</time>
      </trkpt>
      <trkpt lat="44.36627" lon="3.92203">
        <ele>1020</ele>
        <time>2012-01-03T10:43:16Z</time>
      </trkpt>
      <trkpt lat="44.36624" lon="3.92201">
        <ele>1021</ele>
        <time>2012-01-03T10:43:18Z</time>
      </trkpt>
      <trkpt lat="44.36622" lon="3.92199">
        <ele>1021</ele>
        <time>2012-01-03T10:43:20Z</time>
      </trkpt>
      <trkpt lat="44.36618" lon="3.92194">
        <ele>1021</ele>
        <time>2012-01-03T10:43:26Z</time>
      </trkpt>
      <trkpt lat="44.36609" lon="3.92185">
        <ele>1021</ele>
        <time>2012-01-03T10:43:26Z</time>
      </trkpt>
      <trkpt lat="44.36607" lon="3.92183">
        <ele>1022</ele>
        <time>2012-01-03T10:43:27Z</time>
      </trkpt>
      <trkpt lat="44.36603" lon="3.92179">
        <ele>1023</ele>
        <time>2012-01-03T10:43:33Z</time>
      </trkpt>
      <trkpt lat="44.36595" lon="3.9217">
        <ele>1023</ele>
        <time>2012-01-03T10:43:33Z</time>
      </trkpt>
      <trkpt lat="44.36593" lon="3.92168">
        <ele>1024</ele>
        <time>2012-01-03T10:43:34Z</time>
      </trkpt>
      <trkpt lat="44.36582" lon="3.9216">
        <ele>1024</ele>
        <time>2012-01-03T10:43:39Z</time>
      </trkpt>
      <trkpt lat="44.36579" lon="3.92159">
        <ele>1024</ele>
        <time>2012-01-03T10:43:40Z</time>
      </trkpt>
      <trkpt lat="44.36575" lon="3.92156">
        <ele>1024</ele>
        <time>2012-01-03T10:43:46Z</time>
      </trkpt>
      <trkpt lat="44.36567" lon="3.92149">
        <ele>1024</ele>
        <time>2012-01-03T10:43:46Z</time>
      </trkpt>
      <trkpt lat="44.36565" lon="3.92148">
        <ele>1024</ele>
        <time>2012-01-03T10:43:47Z</time>
      </trkpt>
      <trkpt lat="44.36563" lon="3.92146">
        <ele>1024</ele>
        <time>2012-01-03T10:43:48Z</time>
      </trkpt>
      <trkpt lat="44.36552" lon="3.92144">
        <ele>1025</ele>
        <time>2012-01-03T10:43:53Z</time>
      </trkpt>
      <trkpt lat="44.36549" lon="3.92144">
        <ele>1025</ele>
        <time>2012-01-03T10:43:54Z</time>
      </trkpt>
      <trkpt lat="44.36548" lon="3.92145">
        <ele>1025</ele>
        <time>2012-01-03T10:43:56Z</time>
      </trkpt>
      <trkpt lat="44.36545" lon="3.92147">
        <ele>1025</ele>
        <time>2012-01-03T10:43:57Z</time>
      </trkpt>
      <trkpt lat="44.36541" lon="3.9215">
        <ele>1025</ele>
        <time>2012-01-03T10:44:02Z</time>
      </trkpt>
      <trkpt lat="44.36538" lon="3.92154">
        <ele>1025</ele>
        <time>2012-01-03T10:44:02Z</time>
      </trkpt>
      <trkpt lat="44.36538" lon="3.92156">
        <ele>1027</ele>
        <time>2012-01-03T10:44:04Z</time>
      </trkpt>
      <trkpt lat="44.36537" lon="3.92159">
        <ele>1028</ele>
        <time>2012-01-03T10:44:11Z</time>
      </trkpt>
      <trkpt lat="44.36534" lon="3.9216">
        <ele>1029</ele>
        <time>2012-01-03T10:44:12Z</time>
      </trkpt>
      <trkpt lat="44.36534" lon="3.92161">
        <ele>1033</ele>
        <time>2012-01-03T10:44:20Z</time>
      </trkpt>
      <trkpt lat="44.36536" lon="3.92161">
        <ele>1035</ele>
        <time>2012-01-03T10:44:26Z</time>
      </trkpt>
      <trkpt lat="44.36538" lon="3.9216">
        <ele>1036</ele>
        <time>2012-01-03T10:44:27Z</time>
      </trkpt>
      <trkpt lat="44.36536" lon="3.92161">
        <ele>1039</ele>
        <time>2012-01-03T10:44:31Z</time>
      </trkpt>
      <trkpt lat="44.36537" lon="3.92163">
        <ele>1039</ele>
        <time>2012-01-03T10:44:38Z</time>
      </trkpt>
      <trkpt lat="44.36535" lon="3.92171">
        <ele>1040</ele>
        <time>2012-01-03T10:44:42Z</time>
      </trkpt>
      <trkpt lat="44.36534" lon="3.92171">
        <ele>1042</ele>
        <time>2012-01-03T10:44:49Z</time>
      </trkpt>
      <trkpt lat="44.36534" lon="3.92169">
        <ele>1045</ele>
        <time>2012-01-03T10:44:51Z</time>
      </trkpt>
      <trkpt lat="44.36533" lon="3.92168">
        <ele>1046</ele>
        <time>2012-01-03T10:44:57Z</time>
      </trkpt>
      <trkpt lat="44.36526" lon="3.92174">
        <ele>1047</ele>
        <time>2012-01-03T10:44:58Z</time>
      </trkpt>
      <trkpt lat="44.36525" lon="3.92175">
        <ele>1048</ele>
        <time>2012-01-03T10:44:59Z</time>
      </trkpt>
      <trkpt lat="44.36522" lon="3.92177">
        <ele>1048</ele>
        <time>2012-01-03T10:45:04Z</time>
      </trkpt>
      <trkpt lat="44.36517" lon="3.92182">
        <ele>1048</ele>
        <time>2012-01-03T10:45:04Z</time>
      </trkpt>
      <trkpt lat="44.36515" lon="3.92183">
        <ele>1048</ele>
        <time>2012-01-03T10:45:05Z</time>
      </trkpt>
      <trkpt lat="44.36507" lon="3.92188">
        <ele>1048</ele>
        <time>2012-01-03T10:45:10Z</time>
      </trkpt>
      <trkpt lat="44.36505" lon="3.92189">
        <ele>1048</ele>
        <time>2012-01-03T10:45:11Z</time>
      </trkpt>
      <trkpt lat="44.36501" lon="3.9219">
        <ele>1048</ele>
        <time>2012-01-03T10:45:17Z</time>
      </trkpt>
      <trkpt lat="44.36493" lon="3.92192">
        <ele>1047</ele>
        <time>2012-01-03T10:45:17Z</time>
      </trkpt>
      <trkpt lat="44.3649" lon="3.92193">
        <ele>1046</ele>
        <time>2012-01-03T10:45:19Z</time>
      </trkpt>
      <trkpt lat="44.36488" lon="3.92194">
        <ele>1045</ele>
        <time>2012-01-03T10:45:20Z</time>
      </trkpt>
      <trkpt lat="44.36486" lon="3.92196">
        <ele>1044</ele>
        <time>2012-01-03T10:45:21Z</time>
      </trkpt>
      <trkpt lat="44.36484" lon="3.92196">
        <ele>1043</ele>
        <time>2012-01-03T10:45:22Z</time>
      </trkpt>
      <trkpt lat="44.36473" lon="3.92201">
        <ele>1043</ele>
        <time>2012-01-03T10:45:27Z</time>
      </trkpt>
      <trkpt lat="44.3647" lon="3.92202">
        <ele>1043</ele>
        <time>2012-01-03T10:45:28Z</time>
      </trkpt>
      <trkpt lat="44.36461" lon="3.92205">
        <ele>1042</ele>
        <time>2012-01-03T10:45:34Z</time>
      </trkpt>
      <trkpt lat="44.36459" lon="3.92204">
        <ele>1041</ele>
        <time>2012-01-03T10:45:35Z</time>
      </trkpt>
      <trkpt lat="44.36456" lon="3.92204">
        <ele>1041</ele>
        <time>2012-01-03T10:45:35Z</time>
      </trkpt>
      <trkpt lat="44.3645" lon="3.922">
        <ele>1041</ele>
        <time>2012-01-03T10:45:41Z</time>
      </trkpt>
      <trkpt lat="44.36439" lon="3.92196">
        <ele>1041</ele>
        <time>2012-01-03T10:45:41Z</time>
      </trkpt>
      <trkpt lat="44.36437" lon="3.92194">
        <ele>1041</ele>
        <time>2012-01-03T10:45:42Z</time>
      </trkpt>
      <trkpt lat="44.36435" lon="3.92192">
        <ele>1041</ele>
        <time>2012-01-03T10:45:44Z</time>
      </trkpt>
      <trkpt lat="44.3643" lon="3.92188">
        <ele>1041</ele>
        <time>2012-01-03T10:45:49Z</time>
      </trkpt>
      <trkpt lat="44.36423" lon="3.92179">
        <ele>1041</ele>
        <time>2012-01-03T10:45:49Z</time>
      </trkpt>
      <trkpt lat="44.3642" lon="3.92178">
        <ele>1041</ele>
        <time>2012-01-03T10:45:50Z</time>
      </trkpt>
      <trkpt lat="44.36418" lon="3.92176">
        <ele>1041</ele>
        <time>2012-01-03T10:45:56Z</time>
      </trkpt>
      <trkpt lat="44.36415" lon="3.92172">
        <ele>1041</ele>
        <time>2012-01-03T10:45:56Z</time>
      </trkpt>
      <trkpt lat="44.36413" lon="3.9217">
        <ele>1041</ele>
        <time>2012-01-03T10:45:58Z</time>
      </trkpt>
      <trkpt lat="44.36411" lon="3.92169">
        <ele>1041</ele>
        <time>2012-01-03T10:46:00Z</time>
      </trkpt>
      <trkpt lat="44.36408" lon="3.92167">
        <ele>1041</ele>
        <time>2012-01-03T10:46:05Z</time>
      </trkpt>
      <trkpt lat="44.36401" lon="3.92163">
        <ele>1041</ele>
        <time>2012-01-03T10:46:05Z</time>
      </trkpt>
      <trkpt lat="44.36399" lon="3.92163">
        <ele>1041</ele>
        <time>2012-01-03T10:46:06Z</time>
      </trkpt>
      <trkpt lat="44.36395" lon="3.9216">
        <ele>1041</ele>
        <time>2012-01-03T10:46:12Z</time>
      </trkpt>
      <trkpt lat="44.36388" lon="3.92154">
        <ele>1041</ele>
        <time>2012-01-03T10:46:12Z</time>
      </trkpt>
      <trkpt lat="44.36386" lon="3.92153">
        <ele>1041</ele>
        <time>2012-01-03T10:46:13Z</time>
      </trkpt>
      <trkpt lat="44.3638" lon="3.92149">
        <ele>1041</ele>
        <time>2012-01-03T10:46:19Z</time>
      </trkpt>
      <trkpt lat="44.36373" lon="3.92147">
        <ele>1041</ele>
        <time>2012-01-03T10:46:26Z</time>
      </trkpt>
      <trkpt lat="44.36372" lon="3.92147">
        <ele>1041</ele>
        <time>2012-01-03T10:46:26Z</time>
      </trkpt>
      <trkpt lat="44.3637" lon="3.92147">
        <ele>1041</ele>
        <time>2012-01-03T10:46:27Z</time>
      </trkpt>
      <trkpt lat="44.36362" lon="3.92148">
        <ele>1042</ele>
        <time>2012-01-03T10:46:33Z</time>
      </trkpt>
      <trkpt lat="44.36361" lon="3.92149">
        <ele>1043</ele>
        <time>2012-01-03T10:46:34Z</time>
      </trkpt>
      <trkpt lat="44.36358" lon="3.92151">
        <ele>1045</ele>
        <time>2012-01-03T10:46:35Z</time>
      </trkpt>
      <trkpt lat="44.36355" lon="3.92151">
        <ele>1046</ele>
        <time>2012-01-03T10:46:42Z</time>
      </trkpt>
      <trkpt lat="44.36348" lon="3.92156">
        <ele>1047</ele>
        <time>2012-01-03T10:46:42Z</time>
      </trkpt>
      <trkpt lat="44.36346" lon="3.92158">
        <ele>1047</ele>
        <time>2012-01-03T10:46:43Z</time>
      </trkpt>
      <trkpt lat="44.36344" lon="3.9216">
        <ele>1047</ele>
        <time>2012-01-03T10:46:44Z</time>
      </trkpt>
      <trkpt lat="44.36334" lon="3.92165">
        <ele>1047</ele>
        <time>2012-01-03T10:46:50Z</time>
      </trkpt>
      <trkpt lat="44.36333" lon="3.92165">
        <ele>1047</ele>
        <time>2012-01-03T10:46:50Z</time>
      </trkpt>
      <trkpt lat="44.36331" lon="3.92167">
        <ele>1048</ele>
        <time>2012-01-03T10:46:52Z</time>
      </trkpt>
      <trkpt lat="44.36328" lon="3.92169">
        <ele>1049</ele>
        <time>2012-01-03T10:46:57Z</time>
      </trkpt>
      <trkpt lat="44.3632" lon="3.92173">
        <ele>1049</ele>
        <time>2012-01-03T10:46:58Z</time>
      </trkpt>
      <trkpt lat="44.36317" lon="3.92175">
        <ele>1050</ele>
        <time>2012-01-03T10:46:59Z</time>
      </trkpt>
      <trkpt lat="44.36316" lon="3.92176">
        <ele>1051</ele>
        <time>2012-01-03T10:47:00Z</time>
      </trkpt>
      <trkpt lat="44.36314" lon="3.92177">
        <ele>1051</ele>
        <time>2012-01-03T10:47:01Z</time>
      </trkpt>
      <trkpt lat="44.36312" lon="3.92179">
        <ele>1051</ele>
        <time>2012-01-03T10:47:07Z</time>
      </trkpt>
      <trkpt lat="44.36303" lon="3.92183">
        <ele>1052</ele>
        <time>2012-01-03T10:47:07Z</time>
      </trkpt>
      <trkpt lat="44.36299" lon="3.92186">
        <ele>1052</ele>
        <time>2012-01-03T10:47:13Z</time>
      </trkpt>
      <trkpt lat="44.36292" lon="3.9219">
        <ele>1053</ele>
        <time>2012-01-03T10:47:13Z</time>
      </trkpt>
      <trkpt lat="44.3629" lon="3.9219">
        <ele>1054</ele>
        <time>2012-01-03T10:47:14Z</time>
      </trkpt>
      <trkpt lat="44.36287" lon="3.92192">
        <ele>1055</ele>
        <time>2012-01-03T10:47:20Z</time>
      </trkpt>
      <trkpt lat="44.3628" lon="3.92194">
        <ele>1055</ele>
        <time>2012-01-03T10:47:20Z</time>
      </trkpt>
      <trkpt lat="44.36278" lon="3.92195">
        <ele>1056</ele>
        <time>2012-01-03T10:47:21Z</time>
      </trkpt>
      <trkpt lat="44.36274" lon="3.92196">
        <ele>1056</ele>
        <time>2012-01-03T10:47:27Z</time>
      </trkpt>
      <trkpt lat="44.36267" lon="3.92199">
        <ele>1056</ele>
        <time>2012-01-03T10:47:27Z</time>
      </trkpt>
      <trkpt lat="44.36265" lon="3.92199">
        <ele>1056</ele>
        <time>2012-01-03T10:47:28Z</time>
      </trkpt>
      <trkpt lat="44.36261" lon="3.922">
        <ele>1056</ele>
        <time>2012-01-03T10:47:34Z</time>
      </trkpt>
      <trkpt lat="44.36253" lon="3.92199">
        <ele>1056</ele>
        <time>2012-01-03T10:47:34Z</time>
      </trkpt>
      <trkpt lat="44.36252" lon="3.92199">
        <ele>1056</ele>
        <time>2012-01-03T10:47:35Z</time>
      </trkpt>
      <trkpt lat="44.36248" lon="3.92199">
        <ele>1056</ele>
        <time>2012-01-03T10:47:41Z</time>
      </trkpt>
      <trkpt lat="44.36239" lon="3.922">
        <ele>1056</ele>
        <time>2012-01-03T10:47:41Z</time>
      </trkpt>
      <trkpt lat="44.36238" lon="3.922">
        <ele>1056</ele>
        <time>2012-01-03T10:47:42Z</time>
      </trkpt>
      <trkpt lat="44.36236" lon="3.922">
        <ele>1056</ele>
        <time>2012-01-03T10:47:43Z</time>
      </trkpt>
      <trkpt lat="44.36232" lon="3.92199">
        <ele>1056</ele>
        <time>2012-01-03T10:47:49Z</time>
      </trkpt>
      <trkpt lat="44.36222" lon="3.92197">
        <ele>1056</ele>
        <time>2012-01-03T10:47:50Z</time>
      </trkpt>
      <trkpt lat="44.3622" lon="3.92197">
        <ele>1056</ele>
        <time>2012-01-03T10:47:50Z</time>
      </trkpt>
      <trkpt lat="44.36216" lon="3.92196">
        <ele>1056</ele>
        <time>2012-01-03T10:47:56Z</time>
      </trkpt>
      <trkpt lat="44.36215" lon="3.92189">
        <ele>1056</ele>
        <time>2012-01-03T10:47:56Z</time>
      </trkpt>
      <trkpt lat="44.36213" lon="3.9219">
        <ele>1056</ele>
        <time>2012-01-03T10:47:59Z</time>
      </trkpt>
      <trkpt lat="44.36211" lon="3.92191">
        <ele>1056</ele>
        <time>2012-01-03T10:48:05Z</time>
      </trkpt>
      <trkpt lat="44.36209" lon="3.92193">
        <ele>1056</ele>
        <time>2012-01-03T10:48:06Z</time>
      </trkpt>
      <trkpt lat="44.36208" lon="3.92195">
        <ele>1056</ele>
        <time>2012-01-03T10:48:15Z</time>
      </trkpt>
      <trkpt lat="44.36208" lon="3.92196">
        <ele>1055</ele>
        <time>2012-01-03T10:48:33Z</time>
      </trkpt>
      <trkpt lat="44.36209" lon="3.92198">
        <ele>1055</ele>
        <time>2012-01-03T10:48:46Z</time>
      </trkpt>
      <trkpt lat="44.36209" lon="3.92199">
        <ele>1055</ele>
        <time>2012-01-03T10:49:00Z</time>
      </trkpt>
      <trkpt lat="44.3621" lon="3.92198">
        <ele>1056</ele>
        <time>2012-01-03T10:49:06Z</time>
      </trkpt>
      <trkpt lat="44.36211" lon="3.92197">
        <ele>1055</ele>
        <time>2012-01-03T10:49:12Z</time>
      </trkpt>
      <trkpt lat="44.36212" lon="3.92198">
        <ele>1052</ele>
        <time>2012-01-03T10:49:42Z</time>
      </trkpt>
      <trkpt lat="44.36212" lon="3.92199">
        <ele>1052</ele>
        <time>2012-01-03T10:49:45Z</time>
      </trkpt>
      <trkpt lat="44.36213" lon="3.92201">
        <ele>1052</ele>
        <time>2012-01-03T10:49:49Z</time>
      </trkpt>
      <trkpt lat="44.36211" lon="3.922">
        <ele>1052</ele>
        <time>2012-01-03T10:49:58Z</time>
      </trkpt>
      <trkpt lat="44.36211" lon="3.92198">
        <ele>1052</ele>
        <time>2012-01-03T10:50:02Z</time>
      </trkpt>
      <trkpt lat="44.36211" lon="3.92197">
        <ele>1052</ele>
        <time>2012-01-03T10:50:08Z</time>
      </trkpt>
      <trkpt lat="44.36212" lon="3.92198">
        <ele>1052</ele>
        <time>2012-01-03T10:50:18Z</time>
      </trkpt>
      <trkpt lat="44.36212" lon="3.922">
        <ele>1052</ele>
        <time>2012-01-03T10:50:27Z</time>
      </trkpt>
      <trkpt lat="44.36212" lon="3.92198">
        <ele>1052</ele>
        <time>2012-01-03T10:50:29Z</time>
      </trkpt>
      <trkpt lat="44.36214" lon="3.92196">
        <ele>1052</ele>
        <time>2012-01-03T10:50:36Z</time>
      </trkpt>
      <trkpt lat="44.36215" lon="3.92195">
        <ele>1052</ele>
        <time>2012-01-03T10:50:39Z</time>
      </trkpt>
      <trkpt lat="44.36213" lon="3.92195">
        <ele>1052</ele>
        <time>2012-01-03T10:50:46Z</time>
      </trkpt>
      <trkpt lat="44.36212" lon="3.92195">
        <ele>1053</ele>
        <time>2012-01-03T10:50:55Z</time>
      </trkpt>
      <trkpt lat="44.36214" lon="3.92195">
        <ele>1056</ele>
        <time>2012-01-03T10:51:05Z</time>
      </trkpt>
      <trkpt lat="44.36216" lon="3.92194">
        <ele>1056</ele>
        <time>2012-01-03T10:51:05Z</time>
      </trkpt>
      <trkpt lat="44.36217" lon="3.92194">
        <ele>1056</ele>
        <time>2012-01-03T10:51:07Z</time>
      </trkpt>
      <trkpt lat="44.36219" lon="3.92194">
        <ele>1056</ele>
        <time>2012-01-03T10:51:08Z</time>
      </trkpt>
      <trkpt lat="44.36222" lon="3.92194">
        <ele>1056</ele>
        <time>2012-01-03T10:51:13Z</time>
      </trkpt>
      <trkpt lat="44.3623" lon="3.92195">
        <ele>1057</ele>
        <time>2012-01-03T10:51:13Z</time>
      </trkpt>
      <trkpt lat="44.36232" lon="3.92194">
        <ele>1057</ele>
        <time>2012-01-03T10:51:14Z</time>
      </trkpt>
      <trkpt lat="44.36236" lon="3.92195">
        <ele>1057</ele>
        <time>2012-01-03T10:51:20Z</time>
      </trkpt>
      <trkpt lat="44.36243" lon="3.92194">
        <ele>1058</ele>
        <time>2012-01-03T10:51:20Z</time>
      </trkpt>
      <trkpt lat="44.36246" lon="3.92194">
        <ele>1058</ele>
        <time>2012-01-03T10:51:22Z</time>
      </trkpt>
      <trkpt lat="44.3625" lon="3.92193">
        <ele>1058</ele>
        <time>2012-01-03T10:51:27Z</time>
      </trkpt>
      <trkpt lat="44.36258" lon="3.92189">
        <ele>1058</ele>
        <time>2012-01-03T10:51:27Z</time>
      </trkpt>
      <trkpt lat="44.36259" lon="3.92188">
        <ele>1058</ele>
        <time>2012-01-03T10:51:29Z</time>
      </trkpt>
      <trkpt lat="44.36261" lon="3.92187">
        <ele>1058</ele>
        <time>2012-01-03T10:51:30Z</time>
      </trkpt>
      <trkpt lat="44.36264" lon="3.92184">
        <ele>1058</ele>
        <time>2012-01-03T10:51:35Z</time>
      </trkpt>
      <trkpt lat="44.3627" lon="3.92179">
        <ele>1058</ele>
        <time>2012-01-03T10:51:36Z</time>
      </trkpt>
      <trkpt lat="44.36272" lon="3.92176">
        <ele>1058</ele>
        <time>2012-01-03T10:51:37Z</time>
      </trkpt>
      <trkpt lat="44.36273" lon="3.92174">
        <ele>1058</ele>
        <time>2012-01-03T10:51:38Z</time>
      </trkpt>
      <trkpt lat="44.36275" lon="3.92171">
        <ele>1058</ele>
        <time>2012-01-03T10:51:38Z</time>
      </trkpt>
      <trkpt lat="44.36279" lon="3.92168">
        <ele>1058</ele>
        <time>2012-01-03T10:51:44Z</time>
      </trkpt>
      <trkpt lat="44.36287" lon="3.92161">
        <ele>1058</ele>
        <time>2012-01-03T10:51:44Z</time>
      </trkpt>
      <trkpt lat="44.3629" lon="3.9216">
        <ele>1058</ele>
        <time>2012-01-03T10:51:45Z</time>
      </trkpt>
      <trkpt lat="44.36296" lon="3.92155">
        <ele>1058</ele>
        <time>2012-01-03T10:51:51Z</time>
      </trkpt>
      <trkpt lat="44.36305" lon="3.92146">
        <ele>1058</ele>
        <time>2012-01-03T10:51:51Z</time>
      </trkpt>
      <trkpt lat="44.36307" lon="3.92143">
        <ele>1058</ele>
        <time>2012-01-03T10:51:52Z</time>
      </trkpt>
      <trkpt lat="44.3631" lon="3.92139">
        <ele>1059</ele>
        <time>2012-01-03T10:51:58Z</time>
      </trkpt>
      <trkpt lat="44.36317" lon="3.92129">
        <ele>1060</ele>
        <time>2012-01-03T10:51:59Z</time>
      </trkpt>
      <trkpt lat="44.36319" lon="3.92127">
        <ele>1061</ele>
        <time>2012-01-03T10:51:59Z</time>
      </trkpt>
      <trkpt lat="44.36322" lon="3.92123">
        <ele>1062</ele>
        <time>2012-01-03T10:52:05Z</time>
      </trkpt>
      <trkpt lat="44.36328" lon="3.92114">
        <ele>1063</ele>
        <time>2012-01-03T10:52:05Z</time>
      </trkpt>
      <trkpt lat="44.36328" lon="3.92113">
        <ele>1064</ele>
        <time>2012-01-03T10:52:06Z</time>
      </trkpt>
      <trkpt lat="44.36332" lon="3.9211">
        <ele>1066</ele>
        <time>2012-01-03T10:52:13Z</time>
      </trkpt>
      <trkpt lat="44.36339" lon="3.92104">
        <ele>1067</ele>
        <time>2012-01-03T10:52:13Z</time>
      </trkpt>
      <trkpt lat="44.36341" lon="3.92102">
        <ele>1067</ele>
        <time>2012-01-03T10:52:14Z</time>
      </trkpt>
      <trkpt lat="44.36345" lon="3.92099">
        <ele>1068</ele>
        <time>2012-01-03T10:52:20Z</time>
      </trkpt>
      <trkpt lat="44.36351" lon="3.92095">
        <ele>1069</ele>
        <time>2012-01-03T10:52:20Z</time>
      </trkpt>
      <trkpt lat="44.36353" lon="3.92094">
        <ele>1069</ele>
        <time>2012-01-03T10:52:21Z</time>
      </trkpt>
      <trkpt lat="44.36354" lon="3.92094">
        <ele>1069</ele>
        <time>2012-01-03T10:52:22Z</time>
      </trkpt>
      <trkpt lat="44.36356" lon="3.92095">
        <ele>1070</ele>
        <time>2012-01-03T10:52:23Z</time>
      </trkpt>
      <trkpt lat="44.36358" lon="3.92096">
        <ele>1070</ele>
        <time>2012-01-03T10:52:29Z</time>
      </trkpt>
      <trkpt lat="44.36363" lon="3.92094">
        <ele>1070</ele>
        <time>2012-01-03T10:52:29Z</time>
      </trkpt>
      <trkpt lat="44.36364" lon="3.92093">
        <ele>1070</ele>
        <time>2012-01-03T10:52:31Z</time>
      </trkpt>
      <trkpt lat="44.36365" lon="3.92093">
        <ele>1070</ele>
        <time>2012-01-03T10:52:32Z</time>
      </trkpt>
      <trkpt lat="44.36368" lon="3.92094">
        <ele>1070</ele>
        <time>2012-01-03T10:52:38Z</time>
      </trkpt>
      <trkpt lat="44.36373" lon="3.92094">
        <ele>1070</ele>
        <time>2012-01-03T10:52:39Z</time>
      </trkpt>
      <trkpt lat="44.36375" lon="3.92095">
        <ele>1071</ele>
        <time>2012-01-03T10:52:40Z</time>
      </trkpt>
      <trkpt lat="44.36377" lon="3.92096">
        <ele>1072</ele>
        <time>2012-01-03T10:52:40Z</time>
      </trkpt>
      <trkpt lat="44.36379" lon="3.92096">
        <ele>1073</ele>
        <time>2012-01-03T10:52:46Z</time>
      </trkpt>
      <trkpt lat="44.36388" lon="3.92098">
        <ele>1074</ele>
        <time>2012-01-03T10:52:46Z</time>
      </trkpt>
      <trkpt lat="44.36391" lon="3.92099">
        <ele>1075</ele>
        <time>2012-01-03T10:52:47Z</time>
      </trkpt>
      <trkpt lat="44.36393" lon="3.92102">
        <ele>1075</ele>
        <time>2012-01-03T10:52:53Z</time>
      </trkpt>
      <trkpt lat="44.36401" lon="3.92102">
        <ele>1075</ele>
        <time>2012-01-03T10:52:53Z</time>
      </trkpt>
      <trkpt lat="44.36403" lon="3.92102">
        <ele>1075</ele>
        <time>2012-01-03T10:52:55Z</time>
      </trkpt>
      <trkpt lat="44.36407" lon="3.92102">
        <ele>1075</ele>
        <time>2012-01-03T10:53:00Z</time>
      </trkpt>
      <trkpt lat="44.36415" lon="3.92104">
        <ele>1075</ele>
        <time>2012-01-03T10:53:00Z</time>
      </trkpt>
      <trkpt lat="44.36417" lon="3.92103">
        <ele>1075</ele>
        <time>2012-01-03T10:53:01Z</time>
      </trkpt>
      <trkpt lat="44.3642" lon="3.92106">
        <ele>1075</ele>
        <time>2012-01-03T10:53:07Z</time>
      </trkpt>
      <trkpt lat="44.36427" lon="3.92109">
        <ele>1075</ele>
        <time>2012-01-03T10:53:07Z</time>
      </trkpt>
      <trkpt lat="44.36429" lon="3.9211">
        <ele>1075</ele>
        <time>2012-01-03T10:53:08Z</time>
      </trkpt>
      <trkpt lat="44.36432" lon="3.92108">
        <ele>1075</ele>
        <time>2012-01-03T10:53:14Z</time>
      </trkpt>
      <trkpt lat="44.36438" lon="3.9211">
        <ele>1075</ele>
        <time>2012-01-03T10:53:14Z</time>
      </trkpt>
      <trkpt lat="44.3644" lon="3.92111">
        <ele>1075</ele>
        <time>2012-01-03T10:53:15Z</time>
      </trkpt>
      <trkpt lat="44.36441" lon="3.92113">
        <ele>1075</ele>
        <time>2012-01-03T10:53:17Z</time>
      </trkpt>
      <trkpt lat="44.36446" lon="3.92113">
        <ele>1075</ele>
        <time>2012-01-03T10:53:23Z</time>
      </trkpt>
      <trkpt lat="44.36455" lon="3.9211">
        <ele>1075</ele>
        <time>2012-01-03T10:53:23Z</time>
      </trkpt>
      <trkpt lat="44.36457" lon="3.9211">
        <ele>1075</ele>
        <time>2012-01-03T10:53:24Z</time>
      </trkpt>
      <trkpt lat="44.36461" lon="3.9211">
        <ele>1075</ele>
        <time>2012-01-03T10:53:31Z</time>
      </trkpt>
      <trkpt lat="44.36473" lon="3.92104">
        <ele>1075</ele>
        <time>2012-01-03T10:53:31Z</time>
      </trkpt>
      <trkpt lat="44.36476" lon="3.92101">
        <ele>1075</ele>
        <time>2012-01-03T10:53:37Z</time>
      </trkpt>
      <trkpt lat="44.36483" lon="3.92095">
        <ele>1075</ele>
        <time>2012-01-03T10:53:38Z</time>
      </trkpt>
      <trkpt lat="44.36485" lon="3.92093">
        <ele>1075</ele>
        <time>2012-01-03T10:53:39Z</time>
      </trkpt>
      <trkpt lat="44.36486" lon="3.92091">
        <ele>1075</ele>
        <time>2012-01-03T10:53:40Z</time>
      </trkpt>
      <trkpt lat="44.36496" lon="3.9208">
        <ele>1075</ele>
        <time>2012-01-03T10:53:45Z</time>
      </trkpt>
      <trkpt lat="44.36496" lon="3.92079">
        <ele>1075</ele>
        <time>2012-01-03T10:53:46Z</time>
      </trkpt>
      <trkpt lat="44.36498" lon="3.92075">
        <ele>1075</ele>
        <time>2012-01-03T10:53:52Z</time>
      </trkpt>
      <trkpt lat="44.36502" lon="3.9207">
        <ele>1075</ele>
        <time>2012-01-03T10:53:52Z</time>
      </trkpt>
      <trkpt lat="44.36505" lon="3.92066">
        <ele>1075</ele>
        <time>2012-01-03T10:53:59Z</time>
      </trkpt>
      <trkpt lat="44.3651" lon="3.92058">
        <ele>1075</ele>
        <time>2012-01-03T10:53:59Z</time>
      </trkpt>
      <trkpt lat="44.36511" lon="3.92056">
        <ele>1076</ele>
        <time>2012-01-03T10:54:00Z</time>
      </trkpt>
      <trkpt lat="44.36513" lon="3.92052">
        <ele>1076</ele>
        <time>2012-01-03T10:54:06Z</time>
      </trkpt>
      <trkpt lat="44.36517" lon="3.92045">
        <ele>1076</ele>
        <time>2012-01-03T10:54:06Z</time>
      </trkpt>
      <trkpt lat="44.36519" lon="3.92044">
        <ele>1076</ele>
        <time>2012-01-03T10:54:07Z</time>
      </trkpt>
      <trkpt lat="44.3652" lon="3.92042">
        <ele>1076</ele>
        <time>2012-01-03T10:54:08Z</time>
      </trkpt>
      <trkpt lat="44.36521" lon="3.9204">
        <ele>1076</ele>
        <time>2012-01-03T10:54:10Z</time>
      </trkpt>
      <trkpt lat="44.36528" lon="3.92024">
        <ele>1077</ele>
        <time>2012-01-03T10:54:15Z</time>
      </trkpt>
      <trkpt lat="44.3653" lon="3.92022">
        <ele>1078</ele>
        <time>2012-01-03T10:54:16Z</time>
      </trkpt>
      <trkpt lat="44.36532" lon="3.9202">
        <ele>1079</ele>
        <time>2012-01-03T10:54:17Z</time>
      </trkpt>
      <trkpt lat="44.36535" lon="3.92016">
        <ele>1080</ele>
        <time>2012-01-03T10:54:23Z</time>
      </trkpt>
      <trkpt lat="44.36541" lon="3.92009">
        <ele>1081</ele>
        <time>2012-01-03T10:54:24Z</time>
      </trkpt>
      <trkpt lat="44.36542" lon="3.92007">
        <ele>1082</ele>
        <time>2012-01-03T10:54:25Z</time>
      </trkpt>
      <trkpt lat="44.36544" lon="3.92006">
        <ele>1083</ele>
        <time>2012-01-03T10:54:26Z</time>
      </trkpt>
      <trkpt lat="44.36546" lon="3.92003">
        <ele>1084</ele>
        <time>2012-01-03T10:54:31Z</time>
      </trkpt>
      <trkpt lat="44.36552" lon="3.91998">
        <ele>1085</ele>
        <time>2012-01-03T10:54:31Z</time>
      </trkpt>
      <trkpt lat="44.36553" lon="3.91997">
        <ele>1087</ele>
        <time>2012-01-03T10:54:34Z</time>
      </trkpt>
      <trkpt lat="44.36555" lon="3.91996">
        <ele>1088</ele>
        <time>2012-01-03T10:54:40Z</time>
      </trkpt>
      <trkpt lat="44.36558" lon="3.91993">
        <ele>1089</ele>
        <time>2012-01-03T10:54:40Z</time>
      </trkpt>
      <trkpt lat="44.36558" lon="3.91991">
        <ele>1091</ele>
        <time>2012-01-03T10:54:42Z</time>
      </trkpt>
      <trkpt lat="44.36559" lon="3.91991">
        <ele>1092</ele>
        <time>2012-01-03T10:54:48Z</time>
      </trkpt>
      <trkpt lat="44.36559" lon="3.91993">
        <ele>1094</ele>
        <time>2012-01-03T10:54:50Z</time>
      </trkpt>
      <trkpt lat="44.36559" lon="3.91995">
        <ele>1095</ele>
        <time>2012-01-03T10:54:51Z</time>
      </trkpt>
      <trkpt lat="44.3656" lon="3.91997">
        <ele>1096</ele>
        <time>2012-01-03T10:54:57Z</time>
      </trkpt>
      <trkpt lat="44.3656" lon="3.91998">
        <ele>1097</ele>
        <time>2012-01-03T10:54:59Z</time>
      </trkpt>
      <trkpt lat="44.36561" lon="3.92">
        <ele>1098</ele>
        <time>2012-01-03T10:55:00Z</time>
      </trkpt>
      <trkpt lat="44.3656" lon="3.92003">
        <ele>1099</ele>
        <time>2012-01-03T10:55:06Z</time>
      </trkpt>
      <trkpt lat="44.36557" lon="3.92">
        <ele>1100</ele>
        <time>2012-01-03T10:55:06Z</time>
      </trkpt>
      <trkpt lat="44.36557" lon="3.91998">
        <ele>1101</ele>
        <time>2012-01-03T10:55:08Z</time>
      </trkpt>
      <trkpt lat="44.36557" lon="3.91996">
        <ele>1101</ele>
        <time>2012-01-03T10:55:09Z</time>
      </trkpt>
      <trkpt lat="44.36558" lon="3.91987">
        <ele>1101</ele>
        <time>2012-01-03T10:55:14Z</time>
      </trkpt>
      <trkpt lat="44.36557" lon="3.91985">
        <ele>1098</ele>
        <time>2012-01-03T10:55:17Z</time>
      </trkpt>
      <trkpt lat="44.36561" lon="3.91983">
        <ele>1096</ele>
        <time>2012-01-03T10:55:23Z</time>
      </trkpt>
      <trkpt lat="44.36562" lon="3.91984">
        <ele>1090</ele>
        <time>2012-01-03T10:55:26Z</time>
      </trkpt>
      <trkpt lat="44.36565" lon="3.91984">
        <ele>1087</ele>
        <time>2012-01-03T10:55:32Z</time>
      </trkpt>
      <trkpt lat="44.36574" lon="3.9199">
        <ele>1084</ele>
        <time>2012-01-03T10:55:33Z</time>
      </trkpt>
      <trkpt lat="44.36575" lon="3.91991">
        <ele>1082</ele>
        <time>2012-01-03T10:55:34Z</time>
      </trkpt>
      <trkpt lat="44.36586" lon="3.92005">
        <ele>1080</ele>
        <time>2012-01-03T10:55:39Z</time>
      </trkpt>
      <trkpt lat="44.3659" lon="3.9201">
        <ele>1079</ele>
        <time>2012-01-03T10:55:40Z</time>
      </trkpt>
      <trkpt lat="44.36591" lon="3.92012">
        <ele>1078</ele>
        <time>2012-01-03T10:55:42Z</time>
      </trkpt>
      <trkpt lat="44.36593" lon="3.92014">
        <ele>1078</ele>
        <time>2012-01-03T10:55:43Z</time>
      </trkpt>
      <trkpt lat="44.36597" lon="3.92016">
        <ele>1078</ele>
        <time>2012-01-03T10:55:48Z</time>
      </trkpt>
      <trkpt lat="44.36605" lon="3.92021">
        <ele>1078</ele>
        <time>2012-01-03T10:55:49Z</time>
      </trkpt>
      <trkpt lat="44.36607" lon="3.92022">
        <ele>1078</ele>
        <time>2012-01-03T10:55:49Z</time>
      </trkpt>
      <trkpt lat="44.36612" lon="3.92027">
        <ele>1078</ele>
        <time>2012-01-03T10:55:55Z</time>
      </trkpt>
      <trkpt lat="44.36619" lon="3.92031">
        <ele>1078</ele>
        <time>2012-01-03T10:55:55Z</time>
      </trkpt>
      <trkpt lat="44.36621" lon="3.92032">
        <ele>1079</ele>
        <time>2012-01-03T10:55:56Z</time>
      </trkpt>
      <trkpt lat="44.36624" lon="3.92033">
        <ele>1079</ele>
        <time>2012-01-03T10:55:58Z</time>
      </trkpt>
      <trkpt lat="44.36628" lon="3.92034">
        <ele>1080</ele>
        <time>2012-01-03T10:56:04Z</time>
      </trkpt>
      <trkpt lat="44.36636" lon="3.92039">
        <ele>1081</ele>
        <time>2012-01-03T10:56:04Z</time>
      </trkpt>
      <trkpt lat="44.36638" lon="3.9204">
        <ele>1082</ele>
        <time>2012-01-03T10:56:05Z</time>
      </trkpt>
      <trkpt lat="44.36641" lon="3.92041">
        <ele>1083</ele>
        <time>2012-01-03T10:56:11Z</time>
      </trkpt>
      <trkpt lat="44.36649" lon="3.92044">
        <ele>1084</ele>
        <time>2012-01-03T10:56:11Z</time>
      </trkpt>
      <trkpt lat="44.36652" lon="3.92046">
        <ele>1086</ele>
        <time>2012-01-03T10:56:18Z</time>
      </trkpt>
      <trkpt lat="44.36661" lon="3.92049">
        <ele>1087</ele>
        <time>2012-01-03T10:56:18Z</time>
      </trkpt>
      <trkpt lat="44.36664" lon="3.92051">
        <ele>1088</ele>
        <time>2012-01-03T10:56:19Z</time>
      </trkpt>
      <trkpt lat="44.36676" lon="3.92059">
        <ele>1089</ele>
        <time>2012-01-03T10:56:25Z</time>
      </trkpt>
      <trkpt lat="44.36678" lon="3.92059">
        <ele>1090</ele>
        <time>2012-01-03T10:56:26Z</time>
      </trkpt>
      <trkpt lat="44.36681" lon="3.92059">
        <ele>1090</ele>
        <time>2012-01-03T10:56:27Z</time>
      </trkpt>
      <trkpt lat="44.36687" lon="3.92061">
        <ele>1090</ele>
        <time>2012-01-03T10:56:33Z</time>
      </trkpt>
      <trkpt lat="44.36697" lon="3.92061">
        <ele>1090</ele>
        <time>2012-01-03T10:56:33Z</time>
      </trkpt>
      <trkpt lat="44.36699" lon="3.92062">
        <ele>1090</ele>
        <time>2012-01-03T10:56:34Z</time>
      </trkpt>
      <trkpt lat="44.36701" lon="3.92063">
        <ele>1090</ele>
        <time>2012-01-03T10:56:40Z</time>
      </trkpt>
      <trkpt lat="44.3671" lon="3.92059">
        <ele>1091</ele>
        <time>2012-01-03T10:56:40Z</time>
      </trkpt>
      <trkpt lat="44.36712" lon="3.92058">
        <ele>1091</ele>
        <time>2012-01-03T10:56:41Z</time>
      </trkpt>
      <trkpt lat="44.36714" lon="3.92057">
        <ele>1091</ele>
        <time>2012-01-03T10:56:42Z</time>
      </trkpt>
      <trkpt lat="44.36719" lon="3.92056">
        <ele>1092</ele>
        <time>2012-01-03T10:56:48Z</time>
      </trkpt>
      <trkpt lat="44.36727" lon="3.92053">
        <ele>1092</ele>
        <time>2012-01-03T10:56:48Z</time>
      </trkpt>
      <trkpt lat="44.36729" lon="3.92052">
        <ele>1092</ele>
        <time>2012-01-03T10:56:49Z</time>
      </trkpt>
      <trkpt lat="44.36734" lon="3.92051">
        <ele>1092</ele>
        <time>2012-01-03T10:56:55Z</time>
      </trkpt>
      <trkpt lat="44.36742" lon="3.92047">
        <ele>1092</ele>
        <time>2012-01-03T10:56:55Z</time>
      </trkpt>
      <trkpt lat="44.36744" lon="3.92046">
        <ele>1092</ele>
        <time>2012-01-03T10:56:56Z</time>
      </trkpt>
      <trkpt lat="44.36748" lon="3.92044">
        <ele>1092</ele>
        <time>2012-01-03T10:57:02Z</time>
      </trkpt>
      <trkpt lat="44.36752" lon="3.92041">
        <ele>1092</ele>
        <time>2012-01-03T10:57:02Z</time>
      </trkpt>
      <trkpt lat="44.36753" lon="3.92041">
        <ele>1092</ele>
        <time>2012-01-03T10:57:03Z</time>
      </trkpt>
      <trkpt lat="44.36756" lon="3.92039">
        <ele>1092</ele>
        <time>2012-01-03T10:57:09Z</time>
      </trkpt>
      <trkpt lat="44.36763" lon="3.92035">
        <ele>1092</ele>
        <time>2012-01-03T10:57:09Z</time>
      </trkpt>
      <trkpt lat="44.36764" lon="3.92034">
        <ele>1093</ele>
        <time>2012-01-03T10:57:11Z</time>
      </trkpt>
      <trkpt lat="44.36766" lon="3.92032">
        <ele>1093</ele>
        <time>2012-01-03T10:57:12Z</time>
      </trkpt>
      <trkpt lat="44.36768" lon="3.9203">
        <ele>1094</ele>
        <time>2012-01-03T10:57:17Z</time>
      </trkpt>
      <trkpt lat="44.36774" lon="3.92025">
        <ele>1095</ele>
        <time>2012-01-03T10:57:17Z</time>
      </trkpt>
      <trkpt lat="44.36776" lon="3.92023">
        <ele>1095</ele>
        <time>2012-01-03T10:57:18Z</time>
      </trkpt>
      <trkpt lat="44.36779" lon="3.92021">
        <ele>1096</ele>
        <time>2012-01-03T10:57:24Z</time>
      </trkpt>
      <trkpt lat="44.36785" lon="3.92016">
        <ele>1097</ele>
        <time>2012-01-03T10:57:24Z</time>
      </trkpt>
      <trkpt lat="44.36787" lon="3.92015">
        <ele>1097</ele>
        <time>2012-01-03T10:57:25Z</time>
      </trkpt>
      <trkpt lat="44.3679" lon="3.92012">
        <ele>1098</ele>
        <time>2012-01-03T10:57:31Z</time>
      </trkpt>
      <trkpt lat="44.36797" lon="3.92007">
        <ele>1099</ele>
        <time>2012-01-03T10:57:31Z</time>
      </trkpt>
      <trkpt lat="44.36798" lon="3.92006">
        <ele>1100</ele>
        <time>2012-01-03T10:57:32Z</time>
      </trkpt>
      <trkpt lat="44.36801" lon="3.92003">
        <ele>1101</ele>
        <time>2012-01-03T10:57:38Z</time>
      </trkpt>
      <trkpt lat="44.3681" lon="3.92001">
        <ele>1102</ele>
        <time>2012-01-03T10:57:38Z</time>
      </trkpt>
      <trkpt lat="44.36811" lon="3.92">
        <ele>1102</ele>
        <time>2012-01-03T10:57:40Z</time>
      </trkpt>
      <trkpt lat="44.36813" lon="3.92">
        <ele>1102</ele>
        <time>2012-01-03T10:57:41Z</time>
      </trkpt>
      <trkpt lat="44.36816" lon="3.92">
        <ele>1103</ele>
        <time>2012-01-03T10:57:45Z</time>
      </trkpt>
      <trkpt lat="44.36822" lon="3.92001">
        <ele>1103</ele>
        <time>2012-01-03T10:57:45Z</time>
      </trkpt>
      <trkpt lat="44.36823" lon="3.92002">
        <ele>1103</ele>
        <time>2012-01-03T10:57:47Z</time>
      </trkpt>
      <trkpt lat="44.36826" lon="3.92006">
        <ele>1104</ele>
        <time>2012-01-03T10:57:51Z</time>
      </trkpt>
      <trkpt lat="44.36831" lon="3.9201">
        <ele>1105</ele>
        <time>2012-01-03T10:57:51Z</time>
      </trkpt>
      <trkpt lat="44.36833" lon="3.92011">
        <ele>1106</ele>
        <time>2012-01-03T10:57:52Z</time>
      </trkpt>
      <trkpt lat="44.36836" lon="3.92013">
        <ele>1107</ele>
        <time>2012-01-03T10:57:53Z</time>
      </trkpt>
      <trkpt lat="44.3684" lon="3.92016">
        <ele>1107</ele>
        <time>2012-01-03T10:57:57Z</time>
      </trkpt>
      <trkpt lat="44.36846" lon="3.92019">
        <ele>1107</ele>
        <time>2012-01-03T10:57:58Z</time>
      </trkpt>
      <trkpt lat="44.36848" lon="3.92021">
        <ele>1107</ele>
        <time>2012-01-03T10:57:59Z</time>
      </trkpt>
      <trkpt lat="44.36853" lon="3.92023">
        <ele>1107</ele>
        <time>2012-01-03T10:58:03Z</time>
      </trkpt>
      <trkpt lat="44.36859" lon="3.92027">
        <ele>1107</ele>
        <time>2012-01-03T10:58:04Z</time>
      </trkpt>
      <trkpt lat="44.36861" lon="3.92029">
        <ele>1107</ele>
        <time>2012-01-03T10:58:05Z</time>
      </trkpt>
      <trkpt lat="44.36862" lon="3.92027">
        <ele>1106</ele>
        <time>2012-01-03T10:58:10Z</time>
      </trkpt>
      <trkpt lat="44.36863" lon="3.9203">
        <ele>1106</ele>
        <time>2012-01-03T10:58:10Z</time>
      </trkpt>
      <trkpt lat="44.36863" lon="3.92031">
        <ele>1106</ele>
        <time>2012-01-03T10:58:13Z</time>
      </trkpt>
      <trkpt lat="44.36865" lon="3.92033">
        <ele>1106</ele>
        <time>2012-01-03T10:58:17Z</time>
      </trkpt>
      <trkpt lat="44.36867" lon="3.92034">
        <ele>1106</ele>
        <time>2012-01-03T10:58:17Z</time>
      </trkpt>
      <trkpt lat="44.36868" lon="3.92036">
        <ele>1107</ele>
        <time>2012-01-03T10:58:22Z</time>
      </trkpt>
      <trkpt lat="44.3687" lon="3.92038">
        <ele>1108</ele>
        <time>2012-01-03T10:58:23Z</time>
      </trkpt>
      <trkpt lat="44.36872" lon="3.9204">
        <ele>1110</ele>
        <time>2012-01-03T10:58:29Z</time>
      </trkpt>
      <trkpt lat="44.36874" lon="3.92042">
        <ele>1111</ele>
        <time>2012-01-03T10:58:29Z</time>
      </trkpt>
      <trkpt lat="44.36876" lon="3.92042">
        <ele>1113</ele>
        <time>2012-01-03T10:58:31Z</time>
      </trkpt>
      <trkpt lat="44.36882" lon="3.92046">
        <ele>1113</ele>
        <time>2012-01-03T10:58:35Z</time>
      </trkpt>
      <trkpt lat="44.36882" lon="3.92047">
        <ele>1114</ele>
        <time>2012-01-03T10:58:36Z</time>
      </trkpt>
      <trkpt lat="44.36884" lon="3.92047">
        <ele>1114</ele>
        <time>2012-01-03T10:58:40Z</time>
      </trkpt>
      <trkpt lat="44.36886" lon="3.92048">
        <ele>1114</ele>
        <time>2012-01-03T10:58:44Z</time>
      </trkpt>
      <trkpt lat="44.3689" lon="3.92054">
        <ele>1114</ele>
        <time>2012-01-03T10:58:45Z</time>
      </trkpt>
      <trkpt lat="44.36894" lon="3.92056">
        <ele>1114</ele>
        <time>2012-01-03T10:58:51Z</time>
      </trkpt>
      <trkpt lat="44.36899" lon="3.9206">
        <ele>1114</ele>
        <time>2012-01-03T10:58:51Z</time>
      </trkpt>
      <trkpt lat="44.36901" lon="3.92062">
        <ele>1114</ele>
        <time>2012-01-03T10:58:52Z</time>
      </trkpt>
      <trkpt lat="44.36903" lon="3.92066">
        <ele>1114</ele>
        <time>2012-01-03T10:58:57Z</time>
      </trkpt>
      <trkpt lat="44.36907" lon="3.92071">
        <ele>1114</ele>
        <time>2012-01-03T10:58:57Z</time>
      </trkpt>
      <trkpt lat="44.36909" lon="3.92072">
        <ele>1114</ele>
        <time>2012-01-03T10:58:58Z</time>
      </trkpt>
      <trkpt lat="44.36911" lon="3.92073">
        <ele>1115</ele>
        <time>2012-01-03T10:59:02Z</time>
      </trkpt>
      <trkpt lat="44.36914" lon="3.92075">
        <ele>1115</ele>
        <time>2012-01-03T10:59:04Z</time>
      </trkpt>
      <trkpt lat="44.36916" lon="3.92077">
        <ele>1115</ele>
        <time>2012-01-03T10:59:09Z</time>
      </trkpt>
      <trkpt lat="44.36919" lon="3.92079">
        <ele>1115</ele>
        <time>2012-01-03T10:59:09Z</time>
      </trkpt>
      <trkpt lat="44.36919" lon="3.92083">
        <ele>1115</ele>
        <time>2012-01-03T10:59:15Z</time>
      </trkpt>
      <trkpt lat="44.36919" lon="3.92085">
        <ele>1115</ele>
        <time>2012-01-03T10:59:15Z</time>
      </trkpt>
      <trkpt lat="44.36919" lon="3.92088">
        <ele>1115</ele>
        <time>2012-01-03T10:59:20Z</time>
      </trkpt>
      <trkpt lat="44.36921" lon="3.92092">
        <ele>1115</ele>
        <time>2012-01-03T10:59:21Z</time>
      </trkpt>
      <trkpt lat="44.36921" lon="3.92094">
        <ele>1115</ele>
        <time>2012-01-03T10:59:24Z</time>
      </trkpt>
      <trkpt lat="44.36922" lon="3.92098">
        <ele>1115</ele>
        <time>2012-01-03T10:59:28Z</time>
      </trkpt>
      <trkpt lat="44.36925" lon="3.92103">
        <ele>1115</ele>
        <time>2012-01-03T10:59:28Z</time>
      </trkpt>
      <trkpt lat="44.36927" lon="3.92104">
        <ele>1115</ele>
        <time>2012-01-03T10:59:30Z</time>
      </trkpt>
      <trkpt lat="44.36928" lon="3.92106">
        <ele>1115</ele>
        <time>2012-01-03T10:59:30Z</time>
      </trkpt>
      <trkpt lat="44.3693" lon="3.92107">
        <ele>1115</ele>
        <time>2012-01-03T10:59:35Z</time>
      </trkpt>
      <trkpt lat="44.36934" lon="3.9211">
        <ele>1114</ele>
        <time>2012-01-03T10:59:35Z</time>
      </trkpt>
      <trkpt lat="44.36935" lon="3.92111">
        <ele>1113</ele>
        <time>2012-01-03T10:59:37Z</time>
      </trkpt>
      <trkpt lat="44.36938" lon="3.92114">
        <ele>1112</ele>
        <time>2012-01-03T10:59:41Z</time>
      </trkpt>
      <trkpt lat="44.36942" lon="3.92117">
        <ele>1111</ele>
        <time>2012-01-03T10:59:41Z</time>
      </trkpt>
      <trkpt lat="44.36944" lon="3.9212">
        <ele>1109</ele>
        <time>2012-01-03T10:59:47Z</time>
      </trkpt>
      <trkpt lat="44.36947" lon="3.92122">
        <ele>1108</ele>
        <time>2012-01-03T10:59:47Z</time>
      </trkpt>
      <trkpt lat="44.36951" lon="3.92124">
        <ele>1108</ele>
        <time>2012-01-03T10:59:53Z</time>
      </trkpt>
      <trkpt lat="44.36953" lon="3.92126">
        <ele>1108</ele>
        <time>2012-01-03T10:59:53Z</time>
      </trkpt>
      <trkpt lat="44.36956" lon="3.92129">
        <ele>1108</ele>
        <time>2012-01-03T10:59:59Z</time>
      </trkpt>
      <trkpt lat="44.36958" lon="3.92135">
        <ele>1109</ele>
        <time>2012-01-03T10:59:59Z</time>
      </trkpt>
      <trkpt lat="44.3696" lon="3.92137">
        <ele>1111</ele>
        <time>2012-01-03T11:00:05Z</time>
      </trkpt>
      <trkpt lat="44.3696" lon="3.92139">
        <ele>1117</ele>
        <time>2012-01-03T11:00:20Z</time>
      </trkpt>
      <trkpt lat="44.36959" lon="3.92141">
        <ele>1117</ele>
        <time>2012-01-03T11:00:22Z</time>
      </trkpt>
      <trkpt lat="44.3696" lon="3.92141">
        <ele>1118</ele>
        <time>2012-01-03T11:00:26Z</time>
      </trkpt>
      <trkpt lat="44.3696" lon="3.9214">
        <ele>1118</ele>
        <time>2012-01-03T11:00:29Z</time>
      </trkpt>
      <trkpt lat="44.36959" lon="3.9214">
        <ele>1121</ele>
        <time>2012-01-03T11:00:34Z</time>
      </trkpt>
      <trkpt lat="44.36961" lon="3.92142">
        <ele>1124</ele>
        <time>2012-01-03T11:00:37Z</time>
      </trkpt>
      <trkpt lat="44.36961" lon="3.92144">
        <ele>1125</ele>
        <time>2012-01-03T11:00:38Z</time>
      </trkpt>
      <trkpt lat="44.36963" lon="3.92146">
        <ele>1125</ele>
        <time>2012-01-03T11:00:40Z</time>
      </trkpt>
      <trkpt lat="44.36964" lon="3.92149">
        <ele>1125</ele>
        <time>2012-01-03T11:00:41Z</time>
      </trkpt>
      <trkpt lat="44.36964" lon="3.92151">
        <ele>1125</ele>
        <time>2012-01-03T11:00:42Z</time>
      </trkpt>
      <trkpt lat="44.36964" lon="3.92153">
        <ele>1125</ele>
        <time>2012-01-03T11:00:43Z</time>
      </trkpt>
      <trkpt lat="44.36964" lon="3.92155">
        <ele>1125</ele>
        <time>2012-01-03T11:00:44Z</time>
      </trkpt>
      <trkpt lat="44.36965" lon="3.92156">
        <ele>1125</ele>
        <time>2012-01-03T11:00:45Z</time>
      </trkpt>
      <trkpt lat="44.36965" lon="3.92158">
        <ele>1125</ele>
        <time>2012-01-03T11:00:46Z</time>
      </trkpt>
      <trkpt lat="44.36965" lon="3.9216">
        <ele>1125</ele>
        <time>2012-01-03T11:00:48Z</time>
      </trkpt>
      <trkpt lat="44.36965" lon="3.92162">
        <ele>1125</ele>
        <time>2012-01-03T11:00:49Z</time>
      </trkpt>
      <trkpt lat="44.36965" lon="3.92167">
        <ele>1125</ele>
        <time>2012-01-03T11:00:54Z</time>
      </trkpt>
      <trkpt lat="44.36963" lon="3.92176">
        <ele>1125</ele>
        <time>2012-01-03T11:00:54Z</time>
      </trkpt>
      <trkpt lat="44.36962" lon="3.9218">
        <ele>1125</ele>
        <time>2012-01-03T11:00:59Z</time>
      </trkpt>
      <trkpt lat="44.3696" lon="3.92187">
        <ele>1125</ele>
        <time>2012-01-03T11:01:00Z</time>
      </trkpt>
      <trkpt lat="44.36959" lon="3.92189">
        <ele>1125</ele>
        <time>2012-01-03T11:01:01Z</time>
      </trkpt>
      <trkpt lat="44.36957" lon="3.92193">
        <ele>1125</ele>
        <time>2012-01-03T11:01:05Z</time>
      </trkpt>
      <trkpt lat="44.36954" lon="3.92201">
        <ele>1126</ele>
        <time>2012-01-03T11:01:05Z</time>
      </trkpt>
      <trkpt lat="44.36953" lon="3.92204">
        <ele>1127</ele>
        <time>2012-01-03T11:01:06Z</time>
      </trkpt>
      <trkpt lat="44.36952" lon="3.92208">
        <ele>1128</ele>
        <time>2012-01-03T11:01:11Z</time>
      </trkpt>
      <trkpt lat="44.3695" lon="3.92216">
        <ele>1129</ele>
        <time>2012-01-03T11:01:11Z</time>
      </trkpt>
      <trkpt lat="44.3695" lon="3.92219">
        <ele>1130</ele>
        <time>2012-01-03T11:01:13Z</time>
      </trkpt>
      <trkpt lat="44.36949" lon="3.92221">
        <ele>1131</ele>
        <time>2012-01-03T11:01:13Z</time>
      </trkpt>
      <trkpt lat="44.36948" lon="3.92227">
        <ele>1131</ele>
        <time>2012-01-03T11:01:18Z</time>
      </trkpt>
      <trkpt lat="44.36946" lon="3.92235">
        <ele>1132</ele>
        <time>2012-01-03T11:01:18Z</time>
      </trkpt>
      <trkpt lat="44.36945" lon="3.92238">
        <ele>1133</ele>
        <time>2012-01-03T11:01:19Z</time>
      </trkpt>
      <trkpt lat="44.36945" lon="3.92245">
        <ele>1133</ele>
        <time>2012-01-03T11:01:24Z</time>
      </trkpt>
      <trkpt lat="44.36945" lon="3.92254">
        <ele>1133</ele>
        <time>2012-01-03T11:01:24Z</time>
      </trkpt>
      <trkpt lat="44.36944" lon="3.92257">
        <ele>1134</ele>
        <time>2012-01-03T11:01:25Z</time>
      </trkpt>
      <trkpt lat="44.36944" lon="3.92264">
        <ele>1134</ele>
        <time>2012-01-03T11:01:30Z</time>
      </trkpt>
      <trkpt lat="44.36943" lon="3.92275">
        <ele>1134</ele>
        <time>2012-01-03T11:01:30Z</time>
      </trkpt>
      <trkpt lat="44.36943" lon="3.92279">
        <ele>1134</ele>
        <time>2012-01-03T11:01:31Z</time>
      </trkpt>
      <trkpt lat="44.36943" lon="3.92286">
        <ele>1134</ele>
        <time>2012-01-03T11:01:36Z</time>
      </trkpt>
      <trkpt lat="44.36942" lon="3.92296">
        <ele>1134</ele>
        <time>2012-01-03T11:01:36Z</time>
      </trkpt>
      <trkpt lat="44.36941" lon="3.923">
        <ele>1134</ele>
        <time>2012-01-03T11:01:37Z</time>
      </trkpt>
      <trkpt lat="44.36941" lon="3.92307">
        <ele>1134</ele>
        <time>2012-01-03T11:01:42Z</time>
      </trkpt>
      <trkpt lat="44.36939" lon="3.92317">
        <ele>1133</ele>
        <time>2012-01-03T11:01:42Z</time>
      </trkpt>
      <trkpt lat="44.36939" lon="3.92321">
        <ele>1132</ele>
        <time>2012-01-03T11:01:43Z</time>
      </trkpt>
      <trkpt lat="44.36939" lon="3.92328">
        <ele>1131</ele>
        <time>2012-01-03T11:01:48Z</time>
      </trkpt>
      <trkpt lat="44.36938" lon="3.92338">
        <ele>1130</ele>
        <time>2012-01-03T11:01:48Z</time>
      </trkpt>
      <trkpt lat="44.36938" lon="3.92341">
        <ele>1129</ele>
        <time>2012-01-03T11:01:49Z</time>
      </trkpt>
      <trkpt lat="44.36938" lon="3.92347">
        <ele>1129</ele>
        <time>2012-01-03T11:01:54Z</time>
      </trkpt>
      <trkpt lat="44.36939" lon="3.92355">
        <ele>1128</ele>
        <time>2012-01-03T11:01:54Z</time>
      </trkpt>
      <trkpt lat="44.36939" lon="3.92357">
        <ele>1127</ele>
        <time>2012-01-03T11:01:55Z</time>
      </trkpt>
      <trkpt lat="44.36939" lon="3.92359">
        <ele>1127</ele>
        <time>2012-01-03T11:01:57Z</time>
      </trkpt>
      <trkpt lat="44.36939" lon="3.92361">
        <ele>1127</ele>
        <time>2012-01-03T11:01:58Z</time>
      </trkpt>
      <trkpt lat="44.36939" lon="3.92365">
        <ele>1127</ele>
        <time>2012-01-03T11:02:03Z</time>
      </trkpt>
      <trkpt lat="44.36939" lon="3.92372">
        <ele>1127</ele>
        <time>2012-01-03T11:02:03Z</time>
      </trkpt>
      <trkpt lat="44.3694" lon="3.92375">
        <ele>1127</ele>
        <time>2012-01-03T11:02:10Z</time>
      </trkpt>
      <trkpt lat="44.36942" lon="3.92378">
        <ele>1127</ele>
        <time>2012-01-03T11:02:11Z</time>
      </trkpt>
      <trkpt lat="44.3694" lon="3.92378">
        <ele>1126</ele>
        <time>2012-01-03T11:02:18Z</time>
      </trkpt>
      <trkpt lat="44.36939" lon="3.9238">
        <ele>1126</ele>
        <time>2012-01-03T11:02:20Z</time>
      </trkpt>
      <trkpt lat="44.36939" lon="3.92383">
        <ele>1125</ele>
        <time>2012-01-03T11:02:26Z</time>
      </trkpt>
      <trkpt lat="44.36936" lon="3.92381">
        <ele>1125</ele>
        <time>2012-01-03T11:02:27Z</time>
      </trkpt>
      <trkpt lat="44.36935" lon="3.92379">
        <ele>1125</ele>
        <time>2012-01-03T11:02:29Z</time>
      </trkpt>
      <trkpt lat="44.36932" lon="3.92379">
        <ele>1125</ele>
        <time>2012-01-03T11:02:35Z</time>
      </trkpt>
      <trkpt lat="44.36933" lon="3.92378">
        <ele>1125</ele>
        <time>2012-01-03T11:02:54Z</time>
      </trkpt>
      <trkpt lat="44.36931" lon="3.92378">
        <ele>1125</ele>
        <time>2012-01-03T11:03:09Z</time>
      </trkpt>
      <trkpt lat="44.3693" lon="3.9238">
        <ele>1125</ele>
        <time>2012-01-03T11:03:18Z</time>
      </trkpt>
      <trkpt lat="44.36929" lon="3.92381">
        <ele>1129</ele>
        <time>2012-01-03T11:03:33Z</time>
      </trkpt>
      <trkpt lat="44.36928" lon="3.9238">
        <ele>1133</ele>
        <time>2012-01-03T11:04:00Z</time>
      </trkpt>
      <trkpt lat="44.36928" lon="3.92378">
        <ele>1135</ele>
        <time>2012-01-03T11:04:16Z</time>
      </trkpt>
      <trkpt lat="44.3693" lon="3.92377">
        <ele>1137</ele>
        <time>2012-01-03T11:04:40Z</time>
      </trkpt>
      <trkpt lat="44.36931" lon="3.92375">
        <ele>1137</ele>
        <time>2012-01-03T11:04:47Z</time>
      </trkpt>
      <trkpt lat="44.36933" lon="3.92373">
        <ele>1137</ele>
        <time>2012-01-03T11:04:48Z</time>
      </trkpt>
      <trkpt lat="44.36933" lon="3.92371">
        <ele>1137</ele>
        <time>2012-01-03T11:04:55Z</time>
      </trkpt>
      <trkpt lat="44.36933" lon="3.92369">
        <ele>1137</ele>
        <time>2012-01-03T11:04:57Z</time>
      </trkpt>
      <trkpt lat="44.36931" lon="3.92371">
        <ele>1137</ele>
        <time>2012-01-03T11:05:04Z</time>
      </trkpt>
      <trkpt lat="44.36929" lon="3.92374">
        <ele>1139</ele>
        <time>2012-01-03T11:05:11Z</time>
      </trkpt>
      <trkpt lat="44.36928" lon="3.92376">
        <ele>1139</ele>
        <time>2012-01-03T11:05:14Z</time>
      </trkpt>
      <trkpt lat="44.36928" lon="3.92377">
        <ele>1137</ele>
        <time>2012-01-03T11:05:21Z</time>
      </trkpt>
      <trkpt lat="44.36929" lon="3.92378">
        <ele>1130</ele>
        <time>2012-01-03T11:05:38Z</time>
      </trkpt>
      <trkpt lat="44.36929" lon="3.92376">
        <ele>1130</ele>
        <time>2012-01-03T11:05:53Z</time>
      </trkpt>
      <trkpt lat="44.36929" lon="3.92375">
        <ele>1130</ele>
        <time>2012-01-03T11:06:07Z</time>
      </trkpt>
      <trkpt lat="44.3693" lon="3.92374">
        <ele>1130</ele>
        <time>2012-01-03T11:06:16Z</time>
      </trkpt>
      <trkpt lat="44.36929" lon="3.92373">
        <ele>1130</ele>
        <time>2012-01-03T11:06:32Z</time>
      </trkpt>
      <trkpt lat="44.36927" lon="3.92373">
        <ele>1130</ele>
        <time>2012-01-03T11:06:35Z</time>
      </trkpt>
      <trkpt lat="44.36925" lon="3.92373">
        <ele>1130</ele>
        <time>2012-01-03T11:06:41Z</time>
      </trkpt>
      <trkpt lat="44.36927" lon="3.92371">
        <ele>1130</ele>
        <time>2012-01-03T11:06:42Z</time>
      </trkpt>
      <trkpt lat="44.36928" lon="3.9237">
        <ele>1133</ele>
        <time>2012-01-03T11:06:51Z</time>
      </trkpt>
      <trkpt lat="44.36929" lon="3.9237">
        <ele>1134</ele>
        <time>2012-01-03T11:07:05Z</time>
      </trkpt>
      <trkpt lat="44.3693" lon="3.92371">
        <ele>1134</ele>
        <time>2012-01-03T11:07:13Z</time>
      </trkpt>
      <trkpt lat="44.36932" lon="3.92372">
        <ele>1135</ele>
        <time>2012-01-03T11:07:23Z</time>
      </trkpt>
      <trkpt lat="44.36933" lon="3.92373">
        <ele>1135</ele>
        <time>2012-01-03T11:07:30Z</time>
      </trkpt>
      <trkpt lat="44.36932" lon="3.92371">
        <ele>1135</ele>
        <time>2012-01-03T11:07:37Z</time>
      </trkpt>
      <trkpt lat="44.36935" lon="3.92374">
        <ele>1135</ele>
        <time>2012-01-03T11:07:45Z</time>
      </trkpt>
      <trkpt lat="44.36941" lon="3.92373">
        <ele>1135</ele>
        <time>2012-01-03T11:07:46Z</time>
      </trkpt>
      <trkpt lat="44.36942" lon="3.92372">
        <ele>1135</ele>
        <time>2012-01-03T11:07:47Z</time>
      </trkpt>
      <trkpt lat="44.36944" lon="3.9237">
        <ele>1135</ele>
        <time>2012-01-03T11:07:49Z</time>
      </trkpt>
      <trkpt lat="44.36945" lon="3.92359">
        <ele>1135</ele>
        <time>2012-01-03T11:07:53Z</time>
      </trkpt>
      <trkpt lat="44.36945" lon="3.92356">
        <ele>1135</ele>
        <time>2012-01-03T11:07:54Z</time>
      </trkpt>
      <trkpt lat="44.36945" lon="3.92354">
        <ele>1134</ele>
        <time>2012-01-03T11:07:55Z</time>
      </trkpt>
      <trkpt lat="44.36945" lon="3.92348">
        <ele>1133</ele>
        <time>2012-01-03T11:08:00Z</time>
      </trkpt>
      <trkpt lat="44.36946" lon="3.92339">
        <ele>1132</ele>
        <time>2012-01-03T11:08:00Z</time>
      </trkpt>
      <trkpt lat="44.36946" lon="3.92336">
        <ele>1131</ele>
        <time>2012-01-03T11:08:01Z</time>
      </trkpt>
      <trkpt lat="44.36947" lon="3.92329">
        <ele>1130</ele>
        <time>2012-01-03T11:08:06Z</time>
      </trkpt>
      <trkpt lat="44.36949" lon="3.92321">
        <ele>1129</ele>
        <time>2012-01-03T11:08:06Z</time>
      </trkpt>
      <trkpt lat="44.36949" lon="3.92317">
        <ele>1128</ele>
        <time>2012-01-03T11:08:07Z</time>
      </trkpt>
      <trkpt lat="44.36951" lon="3.92311">
        <ele>1127</ele>
        <time>2012-01-03T11:08:12Z</time>
      </trkpt>
      <trkpt lat="44.36954" lon="3.92301">
        <ele>1126</ele>
        <time>2012-01-03T11:08:12Z</time>
      </trkpt>
      <trkpt lat="44.36956" lon="3.92297">
        <ele>1125</ele>
        <time>2012-01-03T11:08:13Z</time>
      </trkpt>
      <trkpt lat="44.36958" lon="3.9229">
        <ele>1125</ele>
        <time>2012-01-03T11:08:18Z</time>
      </trkpt>
      <trkpt lat="44.36961" lon="3.9228">
        <ele>1124</ele>
        <time>2012-01-03T11:08:18Z</time>
      </trkpt>
      <trkpt lat="44.36963" lon="3.92277">
        <ele>1124</ele>
        <time>2012-01-03T11:08:19Z</time>
      </trkpt>
      <trkpt lat="44.36964" lon="3.9227">
        <ele>1124</ele>
        <time>2012-01-03T11:08:24Z</time>
      </trkpt>
      <trkpt lat="44.36968" lon="3.92259">
        <ele>1123</ele>
        <time>2012-01-03T11:08:24Z</time>
      </trkpt>
      <trkpt lat="44.36968" lon="3.92255">
        <ele>1123</ele>
        <time>2012-01-03T11:08:25Z</time>
      </trkpt>
      <trkpt lat="44.36971" lon="3.92246">
        <ele>1123</ele>
        <time>2012-01-03T11:08:30Z</time>
      </trkpt>
      <trkpt lat="44.36977" lon="3.92233">
        <ele>1123</ele>
        <time>2012-01-03T11:08:30Z</time>
      </trkpt>
      <trkpt lat="44.36979" lon="3.92229">
        <ele>1123</ele>
        <time>2012-01-03T11:08:32Z</time>
      </trkpt>
      <trkpt lat="44.36982" lon="3.92222">
        <ele>1123</ele>
        <time>2012-01-03T11:08:36Z</time>
      </trkpt>
      <trkpt lat="44.36988" lon="3.9221">
        <ele>1122</ele>
        <time>2012-01-03T11:08:36Z</time>
      </trkpt>
      <trkpt lat="44.36989" lon="3.92206">
        <ele>1121</ele>
        <time>2012-01-03T11:08:37Z</time>
      </trkpt>
      <trkpt lat="44.36993" lon="3.92198">
        <ele>1121</ele>
        <time>2012-01-03T11:08:42Z</time>
      </trkpt>
      <trkpt lat="44.36998" lon="3.92185">
        <ele>1121</ele>
        <time>2012-01-03T11:08:42Z</time>
      </trkpt>
      <trkpt lat="44.37" lon="3.92181">
        <ele>1121</ele>
        <time>2012-01-03T11:08:43Z</time>
      </trkpt>
      <trkpt lat="44.37003" lon="3.92174">
        <ele>1121</ele>
        <time>2012-01-03T11:08:48Z</time>
      </trkpt>
      <trkpt lat="44.37008" lon="3.92161">
        <ele>1120</ele>
        <time>2012-01-03T11:08:48Z</time>
      </trkpt>
      <trkpt lat="44.3701" lon="3.92157">
        <ele>1120</ele>
        <time>2012-01-03T11:08:49Z</time>
      </trkpt>
      <trkpt lat="44.37013" lon="3.92149">
        <ele>1120</ele>
        <time>2012-01-03T11:08:54Z</time>
      </trkpt>
      <trkpt lat="44.37013" lon="3.92134">
        <ele>1120</ele>
        <time>2012-01-03T11:08:54Z</time>
      </trkpt>
      <trkpt lat="44.37013" lon="3.92129">
        <ele>1120</ele>
        <time>2012-01-03T11:08:55Z</time>
      </trkpt>
      <trkpt lat="44.37007" lon="3.9212">
        <ele>1120</ele>
        <time>2012-01-03T11:09:01Z</time>
      </trkpt>
      <trkpt lat="44.3699" lon="3.92102">
        <ele>1121</ele>
        <time>2012-01-03T11:09:02Z</time>
      </trkpt>
      <trkpt lat="44.36987" lon="3.921">
        <ele>1122</ele>
        <time>2012-01-03T11:09:03Z</time>
      </trkpt>
      <trkpt lat="44.36983" lon="3.92097">
        <ele>1123</ele>
        <time>2012-01-03T11:09:04Z</time>
      </trkpt>
      <trkpt lat="44.36976" lon="3.92092">
        <ele>1124</ele>
        <time>2012-01-03T11:09:08Z</time>
      </trkpt>
      <trkpt lat="44.36967" lon="3.92085">
        <ele>1126</ele>
        <time>2012-01-03T11:09:08Z</time>
      </trkpt>
      <trkpt lat="44.36966" lon="3.92081">
        <ele>1128</ele>
        <time>2012-01-03T11:09:09Z</time>
      </trkpt>
      <trkpt lat="44.36966" lon="3.92076">
        <ele>1129</ele>
        <time>2012-01-03T11:09:11Z</time>
      </trkpt>
      <trkpt lat="44.36964" lon="3.92072">
        <ele>1130</ele>
        <time>2012-01-03T11:09:12Z</time>
      </trkpt>
      <trkpt lat="44.36961" lon="3.92064">
        <ele>1131</ele>
        <time>2012-01-03T11:09:16Z</time>
      </trkpt>
      <trkpt lat="44.36956" lon="3.92052">
        <ele>1132</ele>
        <time>2012-01-03T11:09:16Z</time>
      </trkpt>
      <trkpt lat="44.36954" lon="3.92048">
        <ele>1134</ele>
        <time>2012-01-03T11:09:17Z</time>
      </trkpt>
      <trkpt lat="44.36949" lon="3.9204">
        <ele>1136</ele>
        <time>2012-01-03T11:09:22Z</time>
      </trkpt>
      <trkpt lat="44.36942" lon="3.92029">
        <ele>1138</ele>
        <time>2012-01-03T11:09:22Z</time>
      </trkpt>
      <trkpt lat="44.3694" lon="3.92025">
        <ele>1140</ele>
        <time>2012-01-03T11:09:23Z</time>
      </trkpt>
      <trkpt lat="44.36935" lon="3.92018">
        <ele>1141</ele>
        <time>2012-01-03T11:09:28Z</time>
      </trkpt>
      <trkpt lat="44.36928" lon="3.92008">
        <ele>1142</ele>
        <time>2012-01-03T11:09:28Z</time>
      </trkpt>
      <trkpt lat="44.36926" lon="3.92004">
        <ele>1143</ele>
        <time>2012-01-03T11:09:29Z</time>
      </trkpt>
      <trkpt lat="44.36922" lon="3.91998">
        <ele>1144</ele>
        <time>2012-01-03T11:09:34Z</time>
      </trkpt>
      <trkpt lat="44.36916" lon="3.91989">
        <ele>1145</ele>
        <time>2012-01-03T11:09:34Z</time>
      </trkpt>
      <trkpt lat="44.36914" lon="3.91986">
        <ele>1146</ele>
        <time>2012-01-03T11:09:35Z</time>
      </trkpt>
      <trkpt lat="44.36909" lon="3.91981">
        <ele>1147</ele>
        <time>2012-01-03T11:09:40Z</time>
      </trkpt>
      <trkpt lat="44.36901" lon="3.91974">
        <ele>1148</ele>
        <time>2012-01-03T11:09:40Z</time>
      </trkpt>
      <trkpt lat="44.36899" lon="3.91972">
        <ele>1148</ele>
        <time>2012-01-03T11:09:41Z</time>
      </trkpt>
      <trkpt lat="44.36893" lon="3.91968">
        <ele>1149</ele>
        <time>2012-01-03T11:09:46Z</time>
      </trkpt>
      <trkpt lat="44.36886" lon="3.91959">
        <ele>1150</ele>
        <time>2012-01-03T11:09:46Z</time>
      </trkpt>
      <trkpt lat="44.36885" lon="3.91955">
        <ele>1150</ele>
        <time>2012-01-03T11:09:47Z</time>
      </trkpt>
      <trkpt lat="44.36883" lon="3.91951">
        <ele>1151</ele>
        <time>2012-01-03T11:09:49Z</time>
      </trkpt>
      <trkpt lat="44.36882" lon="3.91944">
        <ele>1151</ele>
        <time>2012-01-03T11:09:53Z</time>
      </trkpt>
      <trkpt lat="44.36879" lon="3.91938">
        <ele>1151</ele>
        <time>2012-01-03T11:09:53Z</time>
      </trkpt>
      <trkpt lat="44.36877" lon="3.91935">
        <ele>1151</ele>
        <time>2012-01-03T11:09:54Z</time>
      </trkpt>
      <trkpt lat="44.36876" lon="3.91933">
        <ele>1151</ele>
        <time>2012-01-03T11:09:55Z</time>
      </trkpt>
      <trkpt lat="44.36874" lon="3.91927">
        <ele>1151</ele>
        <time>2012-01-03T11:10:00Z</time>
      </trkpt>
      <trkpt lat="44.3687" lon="3.91919">
        <ele>1151</ele>
        <time>2012-01-03T11:10:00Z</time>
      </trkpt>
      <trkpt lat="44.36869" lon="3.91916">
        <ele>1151</ele>
        <time>2012-01-03T11:10:01Z</time>
      </trkpt>
      <trkpt lat="44.36866" lon="3.91914">
        <ele>1151</ele>
        <time>2012-01-03T11:10:03Z</time>
      </trkpt>
      <trkpt lat="44.36863" lon="3.9191">
        <ele>1151</ele>
        <time>2012-01-03T11:10:07Z</time>
      </trkpt>
      <trkpt lat="44.36859" lon="3.91905">
        <ele>1150</ele>
        <time>2012-01-03T11:10:07Z</time>
      </trkpt>
      <trkpt lat="44.36857" lon="3.91904">
        <ele>1149</ele>
        <time>2012-01-03T11:10:08Z</time>
      </trkpt>
      <trkpt lat="44.36855" lon="3.91903">
        <ele>1148</ele>
        <time>2012-01-03T11:10:09Z</time>
      </trkpt>
      <trkpt lat="44.36852" lon="3.91902">
        <ele>1147</ele>
        <time>2012-01-03T11:10:14Z</time>
      </trkpt>
      <trkpt lat="44.36846" lon="3.919">
        <ele>1147</ele>
        <time>2012-01-03T11:10:14Z</time>
      </trkpt>
      <trkpt lat="44.36844" lon="3.919">
        <ele>1147</ele>
        <time>2012-01-03T11:10:15Z</time>
      </trkpt>
      <trkpt lat="44.3684" lon="3.91899">
        <ele>1147</ele>
        <time>2012-01-03T11:10:20Z</time>
      </trkpt>
      <trkpt lat="44.36834" lon="3.91898">
        <ele>1147</ele>
        <time>2012-01-03T11:10:20Z</time>
      </trkpt>
      <trkpt lat="44.36832" lon="3.91899">
        <ele>1147</ele>
        <time>2012-01-03T11:10:21Z</time>
      </trkpt>
      <trkpt lat="44.36827" lon="3.91899">
        <ele>1148</ele>
        <time>2012-01-03T11:10:26Z</time>
      </trkpt>
      <trkpt lat="44.36821" lon="3.91901">
        <ele>1149</ele>
        <time>2012-01-03T11:10:26Z</time>
      </trkpt>
      <trkpt lat="44.36819" lon="3.91902">
        <ele>1150</ele>
        <time>2012-01-03T11:10:27Z</time>
      </trkpt>
      <trkpt lat="44.36815" lon="3.91903">
        <ele>1151</ele>
        <time>2012-01-03T11:10:32Z</time>
      </trkpt>
      <trkpt lat="44.3681" lon="3.91903">
        <ele>1152</ele>
        <time>2012-01-03T11:10:33Z</time>
      </trkpt>
      <trkpt lat="44.36809" lon="3.91904">
        <ele>1153</ele>
        <time>2012-01-03T11:10:34Z</time>
      </trkpt>
      <trkpt lat="44.36806" lon="3.91904">
        <ele>1154</ele>
        <time>2012-01-03T11:10:38Z</time>
      </trkpt>
      <trkpt lat="44.368" lon="3.91905">
        <ele>1155</ele>
        <time>2012-01-03T11:10:39Z</time>
      </trkpt>
      <trkpt lat="44.36798" lon="3.91906">
        <ele>1156</ele>
        <time>2012-01-03T11:10:39Z</time>
      </trkpt>
      <trkpt lat="44.36795" lon="3.91907">
        <ele>1157</ele>
        <time>2012-01-03T11:10:44Z</time>
      </trkpt>
      <trkpt lat="44.3679" lon="3.91909">
        <ele>1158</ele>
        <time>2012-01-03T11:10:44Z</time>
      </trkpt>
      <trkpt lat="44.36788" lon="3.9191">
        <ele>1159</ele>
        <time>2012-01-03T11:10:45Z</time>
      </trkpt>
      <trkpt lat="44.36784" lon="3.91911">
        <ele>1160</ele>
        <time>2012-01-03T11:10:50Z</time>
      </trkpt>
      <trkpt lat="44.36778" lon="3.91913">
        <ele>1161</ele>
        <time>2012-01-03T11:10:50Z</time>
      </trkpt>
      <trkpt lat="44.36776" lon="3.91914">
        <ele>1162</ele>
        <time>2012-01-03T11:10:51Z</time>
      </trkpt>
      <trkpt lat="44.36766" lon="3.91922">
        <ele>1163</ele>
        <time>2012-01-03T11:10:56Z</time>
      </trkpt>
      <trkpt lat="44.36764" lon="3.91922">
        <ele>1164</ele>
        <time>2012-01-03T11:10:57Z</time>
      </trkpt>
      <trkpt lat="44.36762" lon="3.91922">
        <ele>1164</ele>
        <time>2012-01-03T11:10:59Z</time>
      </trkpt>
      <trkpt lat="44.36759" lon="3.91922">
        <ele>1165</ele>
        <time>2012-01-03T11:10:59Z</time>
      </trkpt>
      <trkpt lat="44.36751" lon="3.91922">
        <ele>1165</ele>
        <time>2012-01-03T11:11:04Z</time>
      </trkpt>
      <trkpt lat="44.36748" lon="3.91922">
        <ele>1165</ele>
        <time>2012-01-03T11:11:05Z</time>
      </trkpt>
      <trkpt lat="44.36744" lon="3.91924">
        <ele>1165</ele>
        <time>2012-01-03T11:11:10Z</time>
      </trkpt>
      <trkpt lat="44.36737" lon="3.91927">
        <ele>1165</ele>
        <time>2012-01-03T11:11:10Z</time>
      </trkpt>
      <trkpt lat="44.36735" lon="3.91927">
        <ele>1165</ele>
        <time>2012-01-03T11:11:11Z</time>
      </trkpt>
      <trkpt lat="44.36731" lon="3.91927">
        <ele>1165</ele>
        <time>2012-01-03T11:11:16Z</time>
      </trkpt>
      <trkpt lat="44.36725" lon="3.91925">
        <ele>1165</ele>
        <time>2012-01-03T11:11:16Z</time>
      </trkpt>
      <trkpt lat="44.36723" lon="3.91925">
        <ele>1165</ele>
        <time>2012-01-03T11:11:17Z</time>
      </trkpt>
      <trkpt lat="44.36719" lon="3.91925">
        <ele>1165</ele>
        <time>2012-01-03T11:11:22Z</time>
      </trkpt>
      <trkpt lat="44.36714" lon="3.91924">
        <ele>1165</ele>
        <time>2012-01-03T11:11:22Z</time>
      </trkpt>
      <trkpt lat="44.36712" lon="3.91924">
        <ele>1165</ele>
        <time>2012-01-03T11:11:24Z</time>
      </trkpt>
      <trkpt lat="44.36708" lon="3.91922">
        <ele>1165</ele>
        <time>2012-01-03T11:11:28Z</time>
      </trkpt>
      <trkpt lat="44.36701" lon="3.9192">
        <ele>1165</ele>
        <time>2012-01-03T11:11:28Z</time>
      </trkpt>
      <trkpt lat="44.36699" lon="3.91919">
        <ele>1166</ele>
        <time>2012-01-03T11:11:29Z</time>
      </trkpt>
      <trkpt lat="44.36689" lon="3.91917">
        <ele>1166</ele>
        <time>2012-01-03T11:11:34Z</time>
      </trkpt>
      <trkpt lat="44.36687" lon="3.91915">
        <ele>1168</ele>
        <time>2012-01-03T11:11:36Z</time>
      </trkpt>
      <trkpt lat="44.36683" lon="3.91914">
        <ele>1169</ele>
        <time>2012-01-03T11:11:42Z</time>
      </trkpt>
      <trkpt lat="44.36671" lon="3.91911">
        <ele>1170</ele>
        <time>2012-01-03T11:11:42Z</time>
      </trkpt>
      <trkpt lat="44.3666" lon="3.91899">
        <ele>1170</ele>
        <time>2012-01-03T11:11:47Z</time>
      </trkpt>
      <trkpt lat="44.36658" lon="3.91897">
        <ele>1170</ele>
        <time>2012-01-03T11:11:49Z</time>
      </trkpt>
      <trkpt lat="44.36656" lon="3.91895">
        <ele>1170</ele>
        <time>2012-01-03T11:11:50Z</time>
      </trkpt>
      <trkpt lat="44.36651" lon="3.91891">
        <ele>1170</ele>
        <time>2012-01-03T11:11:54Z</time>
      </trkpt>
      <trkpt lat="44.36645" lon="3.91886">
        <ele>1170</ele>
        <time>2012-01-03T11:11:54Z</time>
      </trkpt>
      <trkpt lat="44.36643" lon="3.91884">
        <ele>1170</ele>
        <time>2012-01-03T11:11:55Z</time>
      </trkpt>
      <trkpt lat="44.3664" lon="3.91878">
        <ele>1170</ele>
        <time>2012-01-03T11:12:00Z</time>
      </trkpt>
      <trkpt lat="44.36636" lon="3.91869">
        <ele>1170</ele>
        <time>2012-01-03T11:12:01Z</time>
      </trkpt>
      <trkpt lat="44.36635" lon="3.91866">
        <ele>1169</ele>
        <time>2012-01-03T11:12:02Z</time>
      </trkpt>
      <trkpt lat="44.36632" lon="3.91851">
        <ele>1169</ele>
        <time>2012-01-03T11:12:06Z</time>
      </trkpt>
      <trkpt lat="44.36631" lon="3.91848">
        <ele>1169</ele>
        <time>2012-01-03T11:12:07Z</time>
      </trkpt>
      <trkpt lat="44.3663" lon="3.91846">
        <ele>1169</ele>
        <time>2012-01-03T11:12:08Z</time>
      </trkpt>
      <trkpt lat="44.36628" lon="3.91841">
        <ele>1169</ele>
        <time>2012-01-03T11:12:13Z</time>
      </trkpt>
      <trkpt lat="44.36624" lon="3.91834">
        <ele>1169</ele>
        <time>2012-01-03T11:12:13Z</time>
      </trkpt>
      <trkpt lat="44.36623" lon="3.91832">
        <ele>1169</ele>
        <time>2012-01-03T11:12:14Z</time>
      </trkpt>
      <trkpt lat="44.36621" lon="3.9183">
        <ele>1169</ele>
        <time>2012-01-03T11:12:19Z</time>
      </trkpt>
      <trkpt lat="44.36618" lon="3.91825">
        <ele>1169</ele>
        <time>2012-01-03T11:12:20Z</time>
      </trkpt>
      <trkpt lat="44.36618" lon="3.91824">
        <ele>1169</ele>
        <time>2012-01-03T11:12:21Z</time>
      </trkpt>
      <trkpt lat="44.36615" lon="3.91818">
        <ele>1170</ele>
        <time>2012-01-03T11:12:25Z</time>
      </trkpt>
      <trkpt lat="44.3661" lon="3.91811">
        <ele>1171</ele>
        <time>2012-01-03T11:12:26Z</time>
      </trkpt>
      <trkpt lat="44.36609" lon="3.9181">
        <ele>1172</ele>
        <time>2012-01-03T11:12:27Z</time>
      </trkpt>
      <trkpt lat="44.36608" lon="3.91807">
        <ele>1173</ele>
        <time>2012-01-03T11:12:32Z</time>
      </trkpt>
      <trkpt lat="44.36604" lon="3.91801">
        <ele>1174</ele>
        <time>2012-01-03T11:12:32Z</time>
      </trkpt>
      <trkpt lat="44.36602" lon="3.91799">
        <ele>1175</ele>
        <time>2012-01-03T11:12:33Z</time>
      </trkpt>
      <trkpt lat="44.36598" lon="3.91795">
        <ele>1176</ele>
        <time>2012-01-03T11:12:38Z</time>
      </trkpt>
      <trkpt lat="44.36592" lon="3.9179">
        <ele>1177</ele>
        <time>2012-01-03T11:12:38Z</time>
      </trkpt>
      <trkpt lat="44.36589" lon="3.91786">
        <ele>1178</ele>
        <time>2012-01-03T11:12:39Z</time>
      </trkpt>
      <trkpt lat="44.36585" lon="3.91783">
        <ele>1179</ele>
        <time>2012-01-03T11:12:44Z</time>
      </trkpt>
      <trkpt lat="44.36581" lon="3.91779">
        <ele>1179</ele>
        <time>2012-01-03T11:12:44Z</time>
      </trkpt>
      <trkpt lat="44.3658" lon="3.91779">
        <ele>1179</ele>
        <time>2012-01-03T11:12:45Z</time>
      </trkpt>
      <trkpt lat="44.36578" lon="3.91778">
        <ele>1179</ele>
        <time>2012-01-03T11:12:46Z</time>
      </trkpt>
      <trkpt lat="44.36575" lon="3.91776">
        <ele>1180</ele>
        <time>2012-01-03T11:12:51Z</time>
      </trkpt>
      <trkpt lat="44.36568" lon="3.91772">
        <ele>1181</ele>
        <time>2012-01-03T11:12:51Z</time>
      </trkpt>
      <trkpt lat="44.36566" lon="3.91772">
        <ele>1182</ele>
        <time>2012-01-03T11:12:52Z</time>
      </trkpt>
      <trkpt lat="44.36564" lon="3.91771">
        <ele>1183</ele>
        <time>2012-01-03T11:12:57Z</time>
      </trkpt>
      <trkpt lat="44.36557" lon="3.91771">
        <ele>1183</ele>
        <time>2012-01-03T11:12:57Z</time>
      </trkpt>
      <trkpt lat="44.36555" lon="3.91772">
        <ele>1183</ele>
        <time>2012-01-03T11:12:58Z</time>
      </trkpt>
      <trkpt lat="44.36553" lon="3.91773">
        <ele>1183</ele>
        <time>2012-01-03T11:12:59Z</time>
      </trkpt>
      <trkpt lat="44.3655" lon="3.91776">
        <ele>1183</ele>
        <time>2012-01-03T11:13:04Z</time>
      </trkpt>
      <trkpt lat="44.36544" lon="3.9178">
        <ele>1183</ele>
        <time>2012-01-03T11:13:04Z</time>
      </trkpt>
      <trkpt lat="44.36543" lon="3.91781">
        <ele>1183</ele>
        <time>2012-01-03T11:13:05Z</time>
      </trkpt>
      <trkpt lat="44.3654" lon="3.91783">
        <ele>1183</ele>
        <time>2012-01-03T11:13:10Z</time>
      </trkpt>
      <trkpt lat="44.36536" lon="3.91782">
        <ele>1183</ele>
        <time>2012-01-03T11:13:10Z</time>
      </trkpt>
      <trkpt lat="44.36535" lon="3.91782">
        <ele>1183</ele>
        <time>2012-01-03T11:13:11Z</time>
      </trkpt>
      <trkpt lat="44.36533" lon="3.91782">
        <ele>1183</ele>
        <time>2012-01-03T11:13:12Z</time>
      </trkpt>
      <trkpt lat="44.3653" lon="3.91785">
        <ele>1183</ele>
        <time>2012-01-03T11:13:17Z</time>
      </trkpt>
      <trkpt lat="44.36524" lon="3.91789">
        <ele>1183</ele>
        <time>2012-01-03T11:13:17Z</time>
      </trkpt>
      <trkpt lat="44.36522" lon="3.9179">
        <ele>1183</ele>
        <time>2012-01-03T11:13:19Z</time>
      </trkpt>
      <trkpt lat="44.3652" lon="3.91792">
        <ele>1183</ele>
        <time>2012-01-03T11:13:19Z</time>
      </trkpt>
      <trkpt lat="44.36517" lon="3.91794">
        <ele>1183</ele>
        <time>2012-01-03T11:13:24Z</time>
      </trkpt>
      <trkpt lat="44.36511" lon="3.91798">
        <ele>1183</ele>
        <time>2012-01-03T11:13:24Z</time>
      </trkpt>
      <trkpt lat="44.36509" lon="3.91798">
        <ele>1183</ele>
        <time>2012-01-03T11:13:25Z</time>
      </trkpt>
      <trkpt lat="44.36506" lon="3.91802">
        <ele>1183</ele>
        <time>2012-01-03T11:13:30Z</time>
      </trkpt>
      <trkpt lat="44.36501" lon="3.91808">
        <ele>1183</ele>
        <time>2012-01-03T11:13:30Z</time>
      </trkpt>
      <trkpt lat="44.36499" lon="3.9181">
        <ele>1183</ele>
        <time>2012-01-03T11:13:31Z</time>
      </trkpt>
      <trkpt lat="44.36496" lon="3.91812">
        <ele>1183</ele>
        <time>2012-01-03T11:13:36Z</time>
      </trkpt>
      <trkpt lat="44.36491" lon="3.91818">
        <ele>1183</ele>
        <time>2012-01-03T11:13:36Z</time>
      </trkpt>
      <trkpt lat="44.3649" lon="3.9182">
        <ele>1184</ele>
        <time>2012-01-03T11:13:37Z</time>
      </trkpt>
      <trkpt lat="44.36489" lon="3.91822">
        <ele>1184</ele>
        <time>2012-01-03T11:13:38Z</time>
      </trkpt>
      <trkpt lat="44.36486" lon="3.91826">
        <ele>1185</ele>
        <time>2012-01-03T11:13:43Z</time>
      </trkpt>
      <trkpt lat="44.36481" lon="3.91831">
        <ele>1186</ele>
        <time>2012-01-03T11:13:43Z</time>
      </trkpt>
      <trkpt lat="44.36479" lon="3.91832">
        <ele>1187</ele>
        <time>2012-01-03T11:13:44Z</time>
      </trkpt>
      <trkpt lat="44.36475" lon="3.91835">
        <ele>1187</ele>
        <time>2012-01-03T11:13:49Z</time>
      </trkpt>
      <trkpt lat="44.36469" lon="3.91839">
        <ele>1187</ele>
        <time>2012-01-03T11:13:49Z</time>
      </trkpt>
      <trkpt lat="44.36467" lon="3.9184">
        <ele>1187</ele>
        <time>2012-01-03T11:13:50Z</time>
      </trkpt>
      <trkpt lat="44.36464" lon="3.91843">
        <ele>1187</ele>
        <time>2012-01-03T11:13:55Z</time>
      </trkpt>
      <trkpt lat="44.36464" lon="3.91844">
        <ele>1187</ele>
        <time>2012-01-03T11:13:55Z</time>
      </trkpt>
      <trkpt lat="44.36465" lon="3.91846">
        <ele>1187</ele>
        <time>2012-01-03T11:14:01Z</time>
      </trkpt>
      <trkpt lat="44.36464" lon="3.91848">
        <ele>1187</ele>
        <time>2012-01-03T11:14:11Z</time>
      </trkpt>
      <trkpt lat="44.36464" lon="3.9185">
        <ele>1187</ele>
        <time>2012-01-03T11:14:14Z</time>
      </trkpt>
      <trkpt lat="44.36464" lon="3.91847">
        <ele>1187</ele>
        <time>2012-01-03T11:14:17Z</time>
      </trkpt>
      <trkpt lat="44.36464" lon="3.91845">
        <ele>1187</ele>
        <time>2012-01-03T11:14:18Z</time>
      </trkpt>
      <trkpt lat="44.36463" lon="3.91843">
        <ele>1187</ele>
        <time>2012-01-03T11:14:25Z</time>
      </trkpt>
      <trkpt lat="44.36463" lon="3.91841">
        <ele>1187</ele>
        <time>2012-01-03T11:14:28Z</time>
      </trkpt>
      <trkpt lat="44.36464" lon="3.9184">
        <ele>1187</ele>
        <time>2012-01-03T11:14:31Z</time>
      </trkpt>
      <trkpt lat="44.36465" lon="3.91842">
        <ele>1187</ele>
        <time>2012-01-03T11:14:41Z</time>
      </trkpt>
      <trkpt lat="44.36463" lon="3.91842">
        <ele>1187</ele>
        <time>2012-01-03T11:14:45Z</time>
      </trkpt>
      <trkpt lat="44.36461" lon="3.91843">
        <ele>1187</ele>
        <time>2012-01-03T11:14:48Z</time>
      </trkpt>
      <trkpt lat="44.3646" lon="3.91845">
        <ele>1187</ele>
        <time>2012-01-03T11:14:52Z</time>
      </trkpt>
      <trkpt lat="44.36458" lon="3.91845">
        <ele>1187</ele>
        <time>2012-01-03T11:15:05Z</time>
      </trkpt>
      <trkpt lat="44.36454" lon="3.91849">
        <ele>1187</ele>
        <time>2012-01-03T11:15:06Z</time>
      </trkpt>
      <trkpt lat="44.36448" lon="3.91851">
        <ele>1189</ele>
        <time>2012-01-03T11:15:10Z</time>
      </trkpt>
      <trkpt lat="44.36445" lon="3.9185">
        <ele>1190</ele>
        <time>2012-01-03T11:15:14Z</time>
      </trkpt>
      <trkpt lat="44.36442" lon="3.9185">
        <ele>1190</ele>
        <time>2012-01-03T11:15:19Z</time>
      </trkpt>
      <trkpt lat="44.36437" lon="3.9185">
        <ele>1190</ele>
        <time>2012-01-03T11:15:24Z</time>
      </trkpt>
      <trkpt lat="44.36432" lon="3.9185">
        <ele>1190</ele>
        <time>2012-01-03T11:15:25Z</time>
      </trkpt>
      <trkpt lat="44.36431" lon="3.9185">
        <ele>1190</ele>
        <time>2012-01-03T11:15:26Z</time>
      </trkpt>
      <trkpt lat="44.36421" lon="3.91847">
        <ele>1190</ele>
        <time>2012-01-03T11:15:30Z</time>
      </trkpt>
      <trkpt lat="44.36419" lon="3.91847">
        <ele>1190</ele>
        <time>2012-01-03T11:15:31Z</time>
      </trkpt>
      <trkpt lat="44.36417" lon="3.91846">
        <ele>1190</ele>
        <time>2012-01-03T11:15:32Z</time>
      </trkpt>
      <trkpt lat="44.36413" lon="3.91846">
        <ele>1191</ele>
        <time>2012-01-03T11:15:37Z</time>
      </trkpt>
      <trkpt lat="44.36407" lon="3.91843">
        <ele>1191</ele>
        <time>2012-01-03T11:15:38Z</time>
      </trkpt>
      <trkpt lat="44.36405" lon="3.91842">
        <ele>1192</ele>
        <time>2012-01-03T11:15:38Z</time>
      </trkpt>
      <trkpt lat="44.36401" lon="3.9184">
        <ele>1193</ele>
        <time>2012-01-03T11:15:43Z</time>
      </trkpt>
      <trkpt lat="44.36396" lon="3.91838">
        <ele>1194</ele>
        <time>2012-01-03T11:15:43Z</time>
      </trkpt>
      <trkpt lat="44.36394" lon="3.91837">
        <ele>1195</ele>
        <time>2012-01-03T11:15:44Z</time>
      </trkpt>
      <trkpt lat="44.3639" lon="3.91836">
        <ele>1196</ele>
        <time>2012-01-03T11:15:49Z</time>
      </trkpt>
      <trkpt lat="44.36384" lon="3.91835">
        <ele>1196</ele>
        <time>2012-01-03T11:15:50Z</time>
      </trkpt>
      <trkpt lat="44.36382" lon="3.91835">
        <ele>1197</ele>
        <time>2012-01-03T11:15:51Z</time>
      </trkpt>
      <trkpt lat="44.36381" lon="3.91834">
        <ele>1197</ele>
        <time>2012-01-03T11:15:51Z</time>
      </trkpt>
      <trkpt lat="44.36377" lon="3.91834">
        <ele>1198</ele>
        <time>2012-01-03T11:15:56Z</time>
      </trkpt>
      <trkpt lat="44.36372" lon="3.91831">
        <ele>1199</ele>
        <time>2012-01-03T11:15:56Z</time>
      </trkpt>
      <trkpt lat="44.36369" lon="3.91831">
        <ele>1200</ele>
        <time>2012-01-03T11:15:57Z</time>
      </trkpt>
      <trkpt lat="44.36367" lon="3.91831">
        <ele>1201</ele>
        <time>2012-01-03T11:15:58Z</time>
      </trkpt>
      <trkpt lat="44.36366" lon="3.91831">
        <ele>1202</ele>
        <time>2012-01-03T11:16:00Z</time>
      </trkpt>
      <trkpt lat="44.36361" lon="3.91829">
        <ele>1202</ele>
        <time>2012-01-03T11:16:04Z</time>
      </trkpt>
      <trkpt lat="44.36355" lon="3.91827">
        <ele>1203</ele>
        <time>2012-01-03T11:16:04Z</time>
      </trkpt>
      <trkpt lat="44.36353" lon="3.91826">
        <ele>1204</ele>
        <time>2012-01-03T11:16:05Z</time>
      </trkpt>
      <trkpt lat="44.36352" lon="3.91826">
        <ele>1205</ele>
        <time>2012-01-03T11:16:06Z</time>
      </trkpt>
      <trkpt lat="44.3635" lon="3.91826">
        <ele>1206</ele>
        <time>2012-01-03T11:16:07Z</time>
      </trkpt>
      <trkpt lat="44.36348" lon="3.91826">
        <ele>1207</ele>
        <time>2012-01-03T11:16:13Z</time>
      </trkpt>
      <trkpt lat="44.3634" lon="3.91826">
        <ele>1208</ele>
        <time>2012-01-03T11:16:14Z</time>
      </trkpt>
      <trkpt lat="44.3633" lon="3.91822">
        <ele>1209</ele>
        <time>2012-01-03T11:16:18Z</time>
      </trkpt>
      <trkpt lat="44.36328" lon="3.91823">
        <ele>1209</ele>
        <time>2012-01-03T11:16:19Z</time>
      </trkpt>
      <trkpt lat="44.36327" lon="3.91822">
        <ele>1209</ele>
        <time>2012-01-03T11:16:20Z</time>
      </trkpt>
      <trkpt lat="44.36323" lon="3.91821">
        <ele>1209</ele>
        <time>2012-01-03T11:16:25Z</time>
      </trkpt>
      <trkpt lat="44.36317" lon="3.9182">
        <ele>1209</ele>
        <time>2012-01-03T11:16:25Z</time>
      </trkpt>
      <trkpt lat="44.36315" lon="3.91819">
        <ele>1209</ele>
        <time>2012-01-03T11:16:26Z</time>
      </trkpt>
      <trkpt lat="44.36312" lon="3.91816">
        <ele>1209</ele>
        <time>2012-01-03T11:16:31Z</time>
      </trkpt>
      <trkpt lat="44.36308" lon="3.91817">
        <ele>1209</ele>
        <time>2012-01-03T11:16:31Z</time>
      </trkpt>
      <trkpt lat="44.36305" lon="3.91816">
        <ele>1209</ele>
        <time>2012-01-03T11:16:32Z</time>
      </trkpt>
      <trkpt lat="44.36303" lon="3.91816">
        <ele>1209</ele>
        <time>2012-01-03T11:16:34Z</time>
      </trkpt>
      <trkpt lat="44.36299" lon="3.91814">
        <ele>1209</ele>
        <time>2012-01-03T11:16:38Z</time>
      </trkpt>
      <trkpt lat="44.36288" lon="3.9181">
        <ele>1209</ele>
        <time>2012-01-03T11:16:40Z</time>
      </trkpt>
      <trkpt lat="44.36285" lon="3.9181">
        <ele>1209</ele>
        <time>2012-01-03T11:16:40Z</time>
      </trkpt>
      <trkpt lat="44.3628" lon="3.9181">
        <ele>1208</ele>
        <time>2012-01-03T11:16:45Z</time>
      </trkpt>
      <trkpt lat="44.36274" lon="3.91813">
        <ele>1207</ele>
        <time>2012-01-03T11:16:46Z</time>
      </trkpt>
      <trkpt lat="44.36271" lon="3.91814">
        <ele>1206</ele>
        <time>2012-01-03T11:16:47Z</time>
      </trkpt>
      <trkpt lat="44.36267" lon="3.91817">
        <ele>1206</ele>
        <time>2012-01-03T11:16:48Z</time>
      </trkpt>
      <trkpt lat="44.36264" lon="3.91819">
        <ele>1206</ele>
        <time>2012-01-03T11:16:53Z</time>
      </trkpt>
      <trkpt lat="44.36255" lon="3.91821">
        <ele>1206</ele>
        <time>2012-01-03T11:16:53Z</time>
      </trkpt>
      <trkpt lat="44.36252" lon="3.91821">
        <ele>1206</ele>
        <time>2012-01-03T11:16:54Z</time>
      </trkpt>
      <trkpt lat="44.36248" lon="3.91823">
        <ele>1206</ele>
        <time>2012-01-03T11:16:59Z</time>
      </trkpt>
      <trkpt lat="44.36243" lon="3.91827">
        <ele>1206</ele>
        <time>2012-01-03T11:17:00Z</time>
      </trkpt>
      <trkpt lat="44.36235" lon="3.91832">
        <ele>1206</ele>
        <time>2012-01-03T11:17:05Z</time>
      </trkpt>
      <trkpt lat="44.36234" lon="3.91833">
        <ele>1206</ele>
        <time>2012-01-03T11:17:06Z</time>
      </trkpt>
      <trkpt lat="44.36232" lon="3.91834">
        <ele>1206</ele>
        <time>2012-01-03T11:17:07Z</time>
      </trkpt>
      <trkpt lat="44.36229" lon="3.91837">
        <ele>1206</ele>
        <time>2012-01-03T11:17:12Z</time>
      </trkpt>
      <trkpt lat="44.36225" lon="3.91842">
        <ele>1206</ele>
        <time>2012-01-03T11:17:12Z</time>
      </trkpt>
      <trkpt lat="44.36223" lon="3.91843">
        <ele>1207</ele>
        <time>2012-01-03T11:17:13Z</time>
      </trkpt>
      <trkpt lat="44.36222" lon="3.91846">
        <ele>1208</ele>
        <time>2012-01-03T11:17:14Z</time>
      </trkpt>
      <trkpt lat="44.36219" lon="3.91849">
        <ele>1209</ele>
        <time>2012-01-03T11:17:19Z</time>
      </trkpt>
      <trkpt lat="44.36214" lon="3.91853">
        <ele>1210</ele>
        <time>2012-01-03T11:17:19Z</time>
      </trkpt>
      <trkpt lat="44.36213" lon="3.91855">
        <ele>1211</ele>
        <time>2012-01-03T11:17:20Z</time>
      </trkpt>
      <trkpt lat="44.36209" lon="3.91858">
        <ele>1212</ele>
        <time>2012-01-03T11:17:25Z</time>
      </trkpt>
      <trkpt lat="44.36205" lon="3.91863">
        <ele>1213</ele>
        <time>2012-01-03T11:17:25Z</time>
      </trkpt>
      <trkpt lat="44.36203" lon="3.91865">
        <ele>1214</ele>
        <time>2012-01-03T11:17:26Z</time>
      </trkpt>
      <trkpt lat="44.36198" lon="3.91868">
        <ele>1215</ele>
        <time>2012-01-03T11:17:31Z</time>
      </trkpt>
      <trkpt lat="44.36192" lon="3.9187">
        <ele>1216</ele>
        <time>2012-01-03T11:17:32Z</time>
      </trkpt>
      <trkpt lat="44.36191" lon="3.9187">
        <ele>1217</ele>
        <time>2012-01-03T11:17:34Z</time>
      </trkpt>
      <trkpt lat="44.36187" lon="3.91871">
        <ele>1218</ele>
        <time>2012-01-03T11:17:38Z</time>
      </trkpt>
      <trkpt lat="44.36181" lon="3.91871">
        <ele>1219</ele>
        <time>2012-01-03T11:17:38Z</time>
      </trkpt>
      <trkpt lat="44.36178" lon="3.91873">
        <ele>1220</ele>
        <time>2012-01-03T11:17:39Z</time>
      </trkpt>
      <trkpt lat="44.36174" lon="3.91873">
        <ele>1220</ele>
        <time>2012-01-03T11:17:44Z</time>
      </trkpt>
      <trkpt lat="44.36169" lon="3.91878">
        <ele>1220</ele>
        <time>2012-01-03T11:17:44Z</time>
      </trkpt>
      <trkpt lat="44.36167" lon="3.91877">
        <ele>1221</ele>
        <time>2012-01-03T11:17:46Z</time>
      </trkpt>
      <trkpt lat="44.36165" lon="3.91877">
        <ele>1222</ele>
        <time>2012-01-03T11:17:53Z</time>
      </trkpt>
      <trkpt lat="44.36163" lon="3.91879">
        <ele>1222</ele>
        <time>2012-01-03T11:17:54Z</time>
      </trkpt>
      <trkpt lat="44.36161" lon="3.9188">
        <ele>1222</ele>
        <time>2012-01-03T11:18:01Z</time>
      </trkpt>
      <trkpt lat="44.36159" lon="3.91882">
        <ele>1222</ele>
        <time>2012-01-03T11:18:02Z</time>
      </trkpt>
      <trkpt lat="44.36158" lon="3.91884">
        <ele>1224</ele>
        <time>2012-01-03T11:18:09Z</time>
      </trkpt>
      <trkpt lat="44.36157" lon="3.91888">
        <ele>1225</ele>
        <time>2012-01-03T11:18:10Z</time>
      </trkpt>
      <trkpt lat="44.36156" lon="3.91891">
        <ele>1227</ele>
        <time>2012-01-03T11:18:11Z</time>
      </trkpt>
      <trkpt lat="44.36155" lon="3.91896">
        <ele>1229</ele>
        <time>2012-01-03T11:18:16Z</time>
      </trkpt>
      <trkpt lat="44.36153" lon="3.91904">
        <ele>1231</ele>
        <time>2012-01-03T11:18:18Z</time>
      </trkpt>
      <trkpt lat="44.36153" lon="3.91906">
        <ele>1237</ele>
        <time>2012-01-03T11:18:24Z</time>
      </trkpt>
      <trkpt lat="44.36153" lon="3.91909">
        <ele>1239</ele>
        <time>2012-01-03T11:18:25Z</time>
      </trkpt>
      <trkpt lat="44.36153" lon="3.91912">
        <ele>1247</ele>
        <time>2012-01-03T11:18:41Z</time>
      </trkpt>
      <trkpt lat="44.36153" lon="3.91908">
        <ele>1247</ele>
        <time>2012-01-03T11:18:50Z</time>
      </trkpt>
      <trkpt lat="44.36153" lon="3.91906">
        <ele>1246</ele>
        <time>2012-01-03T11:18:56Z</time>
      </trkpt>
      <trkpt lat="44.36151" lon="3.91903">
        <ele>1245</ele>
        <time>2012-01-03T11:18:57Z</time>
      </trkpt>
      <trkpt lat="44.3615" lon="3.91901">
        <ele>1244</ele>
        <time>2012-01-03T11:18:58Z</time>
      </trkpt>
      <trkpt lat="44.36145" lon="3.91896">
        <ele>1242</ele>
        <time>2012-01-03T11:19:04Z</time>
      </trkpt>
      <trkpt lat="44.36143" lon="3.91888">
        <ele>1241</ele>
        <time>2012-01-03T11:19:04Z</time>
      </trkpt>
      <trkpt lat="44.36142" lon="3.91886">
        <ele>1240</ele>
        <time>2012-01-03T11:19:05Z</time>
      </trkpt>
      <trkpt lat="44.36139" lon="3.91884">
        <ele>1239</ele>
        <time>2012-01-03T11:19:10Z</time>
      </trkpt>
      <trkpt lat="44.36134" lon="3.9188">
        <ele>1238</ele>
        <time>2012-01-03T11:19:10Z</time>
      </trkpt>
      <trkpt lat="44.36132" lon="3.91879">
        <ele>1237</ele>
        <time>2012-01-03T11:19:11Z</time>
      </trkpt>
      <trkpt lat="44.36129" lon="3.91878">
        <ele>1236</ele>
        <time>2012-01-03T11:19:16Z</time>
      </trkpt>
      <trkpt lat="44.36123" lon="3.91877">
        <ele>1235</ele>
        <time>2012-01-03T11:19:17Z</time>
      </trkpt>
      <trkpt lat="44.36121" lon="3.91877">
        <ele>1235</ele>
        <time>2012-01-03T11:19:18Z</time>
      </trkpt>
      <trkpt lat="44.36112" lon="3.91875">
        <ele>1235</ele>
        <time>2012-01-03T11:19:22Z</time>
      </trkpt>
      <trkpt lat="44.36111" lon="3.91875">
        <ele>1235</ele>
        <time>2012-01-03T11:19:23Z</time>
      </trkpt>
      <trkpt lat="44.36106" lon="3.91876">
        <ele>1235</ele>
        <time>2012-01-03T11:19:28Z</time>
      </trkpt>
      <trkpt lat="44.36099" lon="3.91873">
        <ele>1234</ele>
        <time>2012-01-03T11:19:29Z</time>
      </trkpt>
      <trkpt lat="44.36097" lon="3.91872">
        <ele>1233</ele>
        <time>2012-01-03T11:19:31Z</time>
      </trkpt>
      <trkpt lat="44.36094" lon="3.91872">
        <ele>1232</ele>
        <time>2012-01-03T11:19:32Z</time>
      </trkpt>
      <trkpt lat="44.36092" lon="3.91871">
        <ele>1231</ele>
        <time>2012-01-03T11:19:36Z</time>
      </trkpt>
      <trkpt lat="44.36086" lon="3.9187">
        <ele>1230</ele>
        <time>2012-01-03T11:19:36Z</time>
      </trkpt>
      <trkpt lat="44.36084" lon="3.9187">
        <ele>1230</ele>
        <time>2012-01-03T11:19:37Z</time>
      </trkpt>
      <trkpt lat="44.36079" lon="3.9187">
        <ele>1230</ele>
        <time>2012-01-03T11:19:42Z</time>
      </trkpt>
      <trkpt lat="44.36073" lon="3.91871">
        <ele>1230</ele>
        <time>2012-01-03T11:19:42Z</time>
      </trkpt>
      <trkpt lat="44.36071" lon="3.9187">
        <ele>1230</ele>
        <time>2012-01-03T11:19:43Z</time>
      </trkpt>
      <trkpt lat="44.36069" lon="3.91869">
        <ele>1230</ele>
        <time>2012-01-03T11:19:45Z</time>
      </trkpt>
      <trkpt lat="44.36066" lon="3.91869">
        <ele>1230</ele>
        <time>2012-01-03T11:19:49Z</time>
      </trkpt>
      <trkpt lat="44.36061" lon="3.91871">
        <ele>1230</ele>
        <time>2012-01-03T11:19:49Z</time>
      </trkpt>
      <trkpt lat="44.36059" lon="3.9187">
        <ele>1230</ele>
        <time>2012-01-03T11:19:50Z</time>
      </trkpt>
      <trkpt lat="44.36057" lon="3.91871">
        <ele>1230</ele>
        <time>2012-01-03T11:19:51Z</time>
      </trkpt>
      <trkpt lat="44.36052" lon="3.91871">
        <ele>1230</ele>
        <time>2012-01-03T11:19:56Z</time>
      </trkpt>
      <trkpt lat="44.36045" lon="3.91872">
        <ele>1230</ele>
        <time>2012-01-03T11:19:56Z</time>
      </trkpt>
      <trkpt lat="44.36044" lon="3.91873">
        <ele>1230</ele>
        <time>2012-01-03T11:19:57Z</time>
      </trkpt>
      <trkpt lat="44.36041" lon="3.91873">
        <ele>1230</ele>
        <time>2012-01-03T11:19:58Z</time>
      </trkpt>
      <trkpt lat="44.36039" lon="3.91873">
        <ele>1230</ele>
        <time>2012-01-03T11:19:59Z</time>
      </trkpt>
      <trkpt lat="44.36035" lon="3.91873">
        <ele>1230</ele>
        <time>2012-01-03T11:20:04Z</time>
      </trkpt>
      <trkpt lat="44.36029" lon="3.91873">
        <ele>1230</ele>
        <time>2012-01-03T11:20:04Z</time>
      </trkpt>
      <trkpt lat="44.36026" lon="3.91874">
        <ele>1230</ele>
        <time>2012-01-03T11:20:05Z</time>
      </trkpt>
      <trkpt lat="44.36023" lon="3.91874">
        <ele>1230</ele>
        <time>2012-01-03T11:20:10Z</time>
      </trkpt>
      <trkpt lat="44.36016" lon="3.91875">
        <ele>1230</ele>
        <time>2012-01-03T11:20:10Z</time>
      </trkpt>
      <trkpt lat="44.36014" lon="3.91875">
        <ele>1230</ele>
        <time>2012-01-03T11:20:11Z</time>
      </trkpt>
      <trkpt lat="44.3601" lon="3.91876">
        <ele>1229</ele>
        <time>2012-01-03T11:20:16Z</time>
      </trkpt>
      <trkpt lat="44.36003" lon="3.91877">
        <ele>1229</ele>
        <time>2012-01-03T11:20:16Z</time>
      </trkpt>
      <trkpt lat="44.36001" lon="3.91878">
        <ele>1229</ele>
        <time>2012-01-03T11:20:17Z</time>
      </trkpt>
      <trkpt lat="44.35991" lon="3.91878">
        <ele>1229</ele>
        <time>2012-01-03T11:20:22Z</time>
      </trkpt>
      <trkpt lat="44.35989" lon="3.91877">
        <ele>1229</ele>
        <time>2012-01-03T11:20:23Z</time>
      </trkpt>
      <trkpt lat="44.35987" lon="3.91877">
        <ele>1229</ele>
        <time>2012-01-03T11:20:24Z</time>
      </trkpt>
      <trkpt lat="44.35983" lon="3.91877">
        <ele>1229</ele>
        <time>2012-01-03T11:20:29Z</time>
      </trkpt>
      <trkpt lat="44.35978" lon="3.91877">
        <ele>1229</ele>
        <time>2012-01-03T11:20:29Z</time>
      </trkpt>
      <trkpt lat="44.35976" lon="3.91877">
        <ele>1229</ele>
        <time>2012-01-03T11:20:30Z</time>
      </trkpt>
      <trkpt lat="44.35972" lon="3.91877">
        <ele>1229</ele>
        <time>2012-01-03T11:20:35Z</time>
      </trkpt>
      <trkpt lat="44.35966" lon="3.91876">
        <ele>1229</ele>
        <time>2012-01-03T11:20:35Z</time>
      </trkpt>
      <trkpt lat="44.35964" lon="3.91876">
        <ele>1229</ele>
        <time>2012-01-03T11:20:36Z</time>
      </trkpt>
      <trkpt lat="44.3596" lon="3.91876">
        <ele>1229</ele>
        <time>2012-01-03T11:20:41Z</time>
      </trkpt>
      <trkpt lat="44.35953" lon="3.91874">
        <ele>1229</ele>
        <time>2012-01-03T11:20:41Z</time>
      </trkpt>
      <trkpt lat="44.35951" lon="3.91872">
        <ele>1229</ele>
        <time>2012-01-03T11:20:43Z</time>
      </trkpt>
      <trkpt lat="44.35949" lon="3.91871">
        <ele>1229</ele>
        <time>2012-01-03T11:20:44Z</time>
      </trkpt>
      <trkpt lat="44.35946" lon="3.91868">
        <ele>1229</ele>
        <time>2012-01-03T11:20:49Z</time>
      </trkpt>
      <trkpt lat="44.35938" lon="3.91862">
        <ele>1229</ele>
        <time>2012-01-03T11:20:49Z</time>
      </trkpt>
      <trkpt lat="44.35937" lon="3.9186">
        <ele>1229</ele>
        <time>2012-01-03T11:20:50Z</time>
      </trkpt>
      <trkpt lat="44.35933" lon="3.91857">
        <ele>1229</ele>
        <time>2012-01-03T11:20:55Z</time>
      </trkpt>
      <trkpt lat="44.35928" lon="3.91853">
        <ele>1229</ele>
        <time>2012-01-03T11:20:55Z</time>
      </trkpt>
      <trkpt lat="44.35926" lon="3.91852">
        <ele>1229</ele>
        <time>2012-01-03T11:20:57Z</time>
      </trkpt>
      <trkpt lat="44.35918" lon="3.91847">
        <ele>1229</ele>
        <time>2012-01-03T11:21:01Z</time>
      </trkpt>
      <trkpt lat="44.35916" lon="3.91845">
        <ele>1230</ele>
        <time>2012-01-03T11:21:02Z</time>
      </trkpt>
      <trkpt lat="44.35914" lon="3.91845">
        <ele>1230</ele>
        <time>2012-01-03T11:21:03Z</time>
      </trkpt>
      <trkpt lat="44.3591" lon="3.91842">
        <ele>1230</ele>
        <time>2012-01-03T11:21:08Z</time>
      </trkpt>
      <trkpt lat="44.35905" lon="3.91839">
        <ele>1230</ele>
        <time>2012-01-03T11:21:08Z</time>
      </trkpt>
      <trkpt lat="44.35903" lon="3.91838">
        <ele>1230</ele>
        <time>2012-01-03T11:21:09Z</time>
      </trkpt>
      <trkpt lat="44.359" lon="3.91838">
        <ele>1230</ele>
        <time>2012-01-03T11:21:14Z</time>
      </trkpt>
      <trkpt lat="44.35897" lon="3.91836">
        <ele>1230</ele>
        <time>2012-01-03T11:21:15Z</time>
      </trkpt>
      <trkpt lat="44.35898" lon="3.91838">
        <ele>1231</ele>
        <time>2012-01-03T11:21:40Z</time>
      </trkpt>
      <trkpt lat="44.35898" lon="3.91836">
        <ele>1231</ele>
        <time>2012-01-03T11:22:58Z</time>
      </trkpt>
      <trkpt lat="44.35897" lon="3.91835">
        <ele>1231</ele>
        <time>2012-01-03T11:24:15Z</time>
      </trkpt>
      <trkpt lat="44.35896" lon="3.91832">
        <ele>1228</ele>
        <time>2012-01-03T11:26:28Z</time>
      </trkpt>
      <trkpt lat="44.35896" lon="3.9183">
        <ele>1226</ele>
        <time>2012-01-03T11:26:30Z</time>
      </trkpt>
      <trkpt lat="44.35896" lon="3.91828">
        <ele>1223</ele>
        <time>2012-01-03T11:26:37Z</time>
      </trkpt>
      <trkpt lat="44.35896" lon="3.91827">
        <ele>1219</ele>
        <time>2012-01-03T11:26:55Z</time>
      </trkpt>
      <trkpt lat="44.35896" lon="3.91828">
        <ele>1219</ele>
        <time>2012-01-03T11:27:31Z</time>
      </trkpt>
      <trkpt lat="44.35896" lon="3.91829">
        <ele>1219</ele>
        <time>2012-01-03T11:27:40Z</time>
      </trkpt>
      <trkpt lat="44.35897" lon="3.91831">
        <ele>1220</ele>
        <time>2012-01-03T11:27:54Z</time>
      </trkpt>
      <trkpt lat="44.35897" lon="3.91832">
        <ele>1223</ele>
        <time>2012-01-03T11:28:12Z</time>
      </trkpt>
      <trkpt lat="44.35897" lon="3.91831">
        <ele>1223</ele>
        <time>2012-01-03T11:28:38Z</time>
      </trkpt>
      <trkpt lat="44.35897" lon="3.91829">
        <ele>1223</ele>
        <time>2012-01-03T11:29:22Z</time>
      </trkpt>
      <trkpt lat="44.35897" lon="3.91831">
        <ele>1223</ele>
        <time>2012-01-03T11:29:47Z</time>
      </trkpt>
      <trkpt lat="44.35897" lon="3.91833">
        <ele>1223</ele>
        <time>2012-01-03T11:29:56Z</time>
      </trkpt>
      <trkpt lat="44.35896" lon="3.91835">
        <ele>1224</ele>
        <time>2012-01-03T11:30:03Z</time>
      </trkpt>
      <trkpt lat="44.35894" lon="3.91837">
        <ele>1225</ele>
        <time>2012-01-03T11:30:08Z</time>
      </trkpt>
      <trkpt lat="44.35893" lon="3.91838">
        <ele>1230</ele>
        <time>2012-01-03T11:30:19Z</time>
      </trkpt>
      <trkpt lat="44.35892" lon="3.91838">
        <ele>1234</ele>
        <time>2012-01-03T11:30:24Z</time>
      </trkpt>
      <trkpt lat="44.35893" lon="3.91838">
        <ele>1236</ele>
        <time>2012-01-03T11:30:30Z</time>
      </trkpt>
      <trkpt lat="44.35894" lon="3.91838">
        <ele>1236</ele>
        <time>2012-01-03T11:30:46Z</time>
      </trkpt>
      <trkpt lat="44.35896" lon="3.91837">
        <ele>1236</ele>
        <time>2012-01-03T11:30:57Z</time>
      </trkpt>
      <trkpt lat="44.35898" lon="3.91836">
        <ele>1236</ele>
        <time>2012-01-03T11:31:06Z</time>
      </trkpt>
      <trkpt lat="44.35902" lon="3.91832">
        <ele>1235</ele>
        <time>2012-01-03T11:31:08Z</time>
      </trkpt>
      <trkpt lat="44.35904" lon="3.91831">
        <ele>1235</ele>
        <time>2012-01-03T11:31:10Z</time>
      </trkpt>
      <trkpt lat="44.35909" lon="3.91831">
        <ele>1235</ele>
        <time>2012-01-03T11:31:12Z</time>
      </trkpt>
      <trkpt lat="44.35914" lon="3.91832">
        <ele>1235</ele>
        <time>2012-01-03T11:31:13Z</time>
      </trkpt>
      <trkpt lat="44.35916" lon="3.91834">
        <ele>1235</ele>
        <time>2012-01-03T11:31:15Z</time>
      </trkpt>
      <trkpt lat="44.3592" lon="3.91838">
        <ele>1235</ele>
        <time>2012-01-03T11:31:17Z</time>
      </trkpt>
      <trkpt lat="44.35922" lon="3.9184">
        <ele>1235</ele>
        <time>2012-01-03T11:31:18Z</time>
      </trkpt>
      <trkpt lat="44.35924" lon="3.91842">
        <ele>1235</ele>
        <time>2012-01-03T11:31:18Z</time>
      </trkpt>
      <trkpt lat="44.35926" lon="3.91844">
        <ele>1235</ele>
        <time>2012-01-03T11:31:19Z</time>
      </trkpt>
      <trkpt lat="44.35929" lon="3.91845">
        <ele>1235</ele>
        <time>2012-01-03T11:31:20Z</time>
      </trkpt>
      <trkpt lat="44.35931" lon="3.91847">
        <ele>1235</ele>
        <time>2012-01-03T11:31:21Z</time>
      </trkpt>
      <trkpt lat="44.35934" lon="3.91849">
        <ele>1235</ele>
        <time>2012-01-03T11:31:22Z</time>
      </trkpt>
      <trkpt lat="44.35936" lon="3.9185">
        <ele>1235</ele>
        <time>2012-01-03T11:31:23Z</time>
      </trkpt>
      <trkpt lat="44.35939" lon="3.91852">
        <ele>1235</ele>
        <time>2012-01-03T11:31:24Z</time>
      </trkpt>
      <trkpt lat="44.35941" lon="3.91853">
        <ele>1235</ele>
        <time>2012-01-03T11:31:25Z</time>
      </trkpt>
      <trkpt lat="44.35944" lon="3.91855">
        <ele>1235</ele>
        <time>2012-01-03T11:31:26Z</time>
      </trkpt>
      <trkpt lat="44.35946" lon="3.91856">
        <ele>1235</ele>
        <time>2012-01-03T11:31:27Z</time>
      </trkpt>
      <trkpt lat="44.35949" lon="3.91856">
        <ele>1235</ele>
        <time>2012-01-03T11:31:28Z</time>
      </trkpt>
      <trkpt lat="44.35952" lon="3.91857">
        <ele>1235</ele>
        <time>2012-01-03T11:31:29Z</time>
      </trkpt>
      <trkpt lat="44.35955" lon="3.91857">
        <ele>1235</ele>
        <time>2012-01-03T11:31:30Z</time>
      </trkpt>
      <trkpt lat="44.35957" lon="3.91858">
        <ele>1235</ele>
        <time>2012-01-03T11:31:31Z</time>
      </trkpt>
      <trkpt lat="44.3596" lon="3.91858">
        <ele>1235</ele>
        <time>2012-01-03T11:31:32Z</time>
      </trkpt>
      <trkpt lat="44.35963" lon="3.91858">
        <ele>1235</ele>
        <time>2012-01-03T11:31:33Z</time>
      </trkpt>
      <trkpt lat="44.35966" lon="3.91857">
        <ele>1235</ele>
        <time>2012-01-03T11:31:34Z</time>
      </trkpt>
      <trkpt lat="44.35969" lon="3.91857">
        <ele>1235</ele>
        <time>2012-01-03T11:31:35Z</time>
      </trkpt>
      <trkpt lat="44.35971" lon="3.91855">
        <ele>1235</ele>
        <time>2012-01-03T11:31:36Z</time>
      </trkpt>
      <trkpt lat="44.35974" lon="3.91854">
        <ele>1235</ele>
        <time>2012-01-03T11:31:38Z</time>
      </trkpt>
      <trkpt lat="44.35976" lon="3.91853">
        <ele>1235</ele>
        <time>2012-01-03T11:31:39Z</time>
      </trkpt>
      <trkpt lat="44.35979" lon="3.91852">
        <ele>1235</ele>
        <time>2012-01-03T11:31:39Z</time>
      </trkpt>
      <trkpt lat="44.35982" lon="3.91851">
        <ele>1235</ele>
        <time>2012-01-03T11:31:40Z</time>
      </trkpt>
      <trkpt lat="44.35985" lon="3.9185">
        <ele>1235</ele>
        <time>2012-01-03T11:31:41Z</time>
      </trkpt>
      <trkpt lat="44.35987" lon="3.91849">
        <ele>1235</ele>
        <time>2012-01-03T11:31:42Z</time>
      </trkpt>
      <trkpt lat="44.35989" lon="3.91848">
        <ele>1235</ele>
        <time>2012-01-03T11:31:43Z</time>
      </trkpt>
      <trkpt lat="44.35992" lon="3.91847">
        <ele>1235</ele>
        <time>2012-01-03T11:31:44Z</time>
      </trkpt>
      <trkpt lat="44.35994" lon="3.91845">
        <ele>1235</ele>
        <time>2012-01-03T11:31:45Z</time>
      </trkpt>
      <trkpt lat="44.35997" lon="3.91845">
        <ele>1235</ele>
        <time>2012-01-03T11:31:46Z</time>
      </trkpt>
      <trkpt lat="44.35999" lon="3.91844">
        <ele>1235</ele>
        <time>2012-01-03T11:31:48Z</time>
      </trkpt>
      <trkpt lat="44.36002" lon="3.91843">
        <ele>1235</ele>
        <time>2012-01-03T11:31:49Z</time>
      </trkpt>
      <trkpt lat="44.36004" lon="3.91842">
        <ele>1235</ele>
        <time>2012-01-03T11:31:49Z</time>
      </trkpt>
      <trkpt lat="44.36007" lon="3.91841">
        <ele>1235</ele>
        <time>2012-01-03T11:31:50Z</time>
      </trkpt>
      <trkpt lat="44.36008" lon="3.91839">
        <ele>1235</ele>
        <time>2012-01-03T11:31:51Z</time>
      </trkpt>
      <trkpt lat="44.3601" lon="3.91838">
        <ele>1235</ele>
        <time>2012-01-03T11:31:52Z</time>
      </trkpt>
      <trkpt lat="44.36012" lon="3.91837">
        <ele>1235</ele>
        <time>2012-01-03T11:31:53Z</time>
      </trkpt>
      <trkpt lat="44.36014" lon="3.91835">
        <ele>1235</ele>
        <time>2012-01-03T11:31:54Z</time>
      </trkpt>
      <trkpt lat="44.36015" lon="3.91834">
        <ele>1235</ele>
        <time>2012-01-03T11:31:56Z</time>
      </trkpt>
      <trkpt lat="44.36017" lon="3.91832">
        <ele>1235</ele>
        <time>2012-01-03T11:31:56Z</time>
      </trkpt>
      <trkpt lat="44.36019" lon="3.91831">
        <ele>1235</ele>
        <time>2012-01-03T11:31:57Z</time>
      </trkpt>
      <trkpt lat="44.36021" lon="3.91829">
        <ele>1235</ele>
        <time>2012-01-03T11:31:58Z</time>
      </trkpt>
      <trkpt lat="44.36024" lon="3.91827">
        <ele>1235</ele>
        <time>2012-01-03T11:31:59Z</time>
      </trkpt>
      <trkpt lat="44.36026" lon="3.91825">
        <ele>1235</ele>
        <time>2012-01-03T11:32:00Z</time>
      </trkpt>
      <trkpt lat="44.36028" lon="3.91824">
        <ele>1235</ele>
        <time>2012-01-03T11:32:01Z</time>
      </trkpt>
      <trkpt lat="44.36031" lon="3.91822">
        <ele>1234</ele>
        <time>2012-01-03T11:32:02Z</time>
      </trkpt>
      <trkpt lat="44.36033" lon="3.91821">
        <ele>1234</ele>
        <time>2012-01-03T11:32:03Z</time>
      </trkpt>
      <trkpt lat="44.36036" lon="3.9182">
        <ele>1233</ele>
        <time>2012-01-03T11:32:04Z</time>
      </trkpt>
      <trkpt lat="44.36038" lon="3.91819">
        <ele>1233</ele>
        <time>2012-01-03T11:32:05Z</time>
      </trkpt>
      <trkpt lat="44.3604" lon="3.91818">
        <ele>1233</ele>
        <time>2012-01-03T11:32:06Z</time>
      </trkpt>
      <trkpt lat="44.36042" lon="3.91817">
        <ele>1232</ele>
        <time>2012-01-03T11:32:07Z</time>
      </trkpt>
      <trkpt lat="44.36045" lon="3.91816">
        <ele>1232</ele>
        <time>2012-01-03T11:32:08Z</time>
      </trkpt>
      <trkpt lat="44.36047" lon="3.91815">
        <ele>1232</ele>
        <time>2012-01-03T11:32:09Z</time>
      </trkpt>
      <trkpt lat="44.36049" lon="3.91815">
        <ele>1232</ele>
        <time>2012-01-03T11:32:10Z</time>
      </trkpt>
      <trkpt lat="44.36051" lon="3.91814">
        <ele>1232</ele>
        <time>2012-01-03T11:32:11Z</time>
      </trkpt>
      <trkpt lat="44.36053" lon="3.91813">
        <ele>1232</ele>
        <time>2012-01-03T11:32:12Z</time>
      </trkpt>
      <trkpt lat="44.36055" lon="3.91812">
        <ele>1232</ele>
        <time>2012-01-03T11:32:13Z</time>
      </trkpt>
      <trkpt lat="44.36057" lon="3.91811">
        <ele>1232</ele>
        <time>2012-01-03T11:32:14Z</time>
      </trkpt>
      <trkpt lat="44.36059" lon="3.9181">
        <ele>1232</ele>
        <time>2012-01-03T11:32:15Z</time>
      </trkpt>
      <trkpt lat="44.36062" lon="3.9181">
        <ele>1232</ele>
        <time>2012-01-03T11:32:17Z</time>
      </trkpt>
      <trkpt lat="44.36064" lon="3.91809">
        <ele>1232</ele>
        <time>2012-01-03T11:32:17Z</time>
      </trkpt>
      <trkpt lat="44.36066" lon="3.91808">
        <ele>1232</ele>
        <time>2012-01-03T11:32:18Z</time>
      </trkpt>
      <trkpt lat="44.36068" lon="3.91808">
        <ele>1232</ele>
        <time>2012-01-03T11:32:19Z</time>
      </trkpt>
      <trkpt lat="44.36071" lon="3.91807">
        <ele>1232</ele>
        <time>2012-01-03T11:32:20Z</time>
      </trkpt>
      <trkpt lat="44.36073" lon="3.91807">
        <ele>1232</ele>
        <time>2012-01-03T11:32:22Z</time>
      </trkpt>
      <trkpt lat="44.36075" lon="3.91806">
        <ele>1232</ele>
        <time>2012-01-03T11:32:23Z</time>
      </trkpt>
      <trkpt lat="44.36078" lon="3.91804">
        <ele>1232</ele>
        <time>2012-01-03T11:32:24Z</time>
      </trkpt>
      <trkpt lat="44.3608" lon="3.91804">
        <ele>1232</ele>
        <time>2012-01-03T11:32:24Z</time>
      </trkpt>
      <trkpt lat="44.36083" lon="3.91804">
        <ele>1232</ele>
        <time>2012-01-03T11:32:26Z</time>
      </trkpt>
      <trkpt lat="44.36086" lon="3.91803">
        <ele>1232</ele>
        <time>2012-01-03T11:32:27Z</time>
      </trkpt>
      <trkpt lat="44.36089" lon="3.91803">
        <ele>1232</ele>
        <time>2012-01-03T11:32:27Z</time>
      </trkpt>
      <trkpt lat="44.36091" lon="3.91802">
        <ele>1232</ele>
        <time>2012-01-03T11:32:28Z</time>
      </trkpt>
      <trkpt lat="44.36093" lon="3.91801">
        <ele>1232</ele>
        <time>2012-01-03T11:32:29Z</time>
      </trkpt>
      <trkpt lat="44.36095" lon="3.918">
        <ele>1232</ele>
        <time>2012-01-03T11:32:30Z</time>
      </trkpt>
      <trkpt lat="44.36097" lon="3.918">
        <ele>1232</ele>
        <time>2012-01-03T11:32:31Z</time>
      </trkpt>
      <trkpt lat="44.361" lon="3.91798">
        <ele>1232</ele>
        <time>2012-01-03T11:32:32Z</time>
      </trkpt>
      <trkpt lat="44.36102" lon="3.91796">
        <ele>1232</ele>
        <time>2012-01-03T11:32:33Z</time>
      </trkpt>
      <trkpt lat="44.36105" lon="3.91796">
        <ele>1231</ele>
        <time>2012-01-03T11:32:34Z</time>
      </trkpt>
      <trkpt lat="44.36108" lon="3.91796">
        <ele>1231</ele>
        <time>2012-01-03T11:32:35Z</time>
      </trkpt>
      <trkpt lat="44.36111" lon="3.91796">
        <ele>1231</ele>
        <time>2012-01-03T11:32:37Z</time>
      </trkpt>
      <trkpt lat="44.36114" lon="3.91795">
        <ele>1231</ele>
        <time>2012-01-03T11:32:38Z</time>
      </trkpt>
      <trkpt lat="44.36117" lon="3.91795">
        <ele>1231</ele>
        <time>2012-01-03T11:32:39Z</time>
      </trkpt>
      <trkpt lat="44.3612" lon="3.91794">
        <ele>1231</ele>
        <time>2012-01-03T11:32:40Z</time>
      </trkpt>
      <trkpt lat="44.36123" lon="3.91793">
        <ele>1231</ele>
        <time>2012-01-03T11:32:40Z</time>
      </trkpt>
      <trkpt lat="44.36126" lon="3.91792">
        <ele>1231</ele>
        <time>2012-01-03T11:32:41Z</time>
      </trkpt>
      <trkpt lat="44.36129" lon="3.91792">
        <ele>1231</ele>
        <time>2012-01-03T11:32:42Z</time>
      </trkpt>
      <trkpt lat="44.36131" lon="3.91791">
        <ele>1231</ele>
        <time>2012-01-03T11:32:43Z</time>
      </trkpt>
      <trkpt lat="44.36134" lon="3.91789">
        <ele>1231</ele>
        <time>2012-01-03T11:32:44Z</time>
      </trkpt>
      <trkpt lat="44.36136" lon="3.91788">
        <ele>1231</ele>
        <time>2012-01-03T11:32:45Z</time>
      </trkpt>
      <trkpt lat="44.36139" lon="3.91787">
        <ele>1231</ele>
        <time>2012-01-03T11:32:46Z</time>
      </trkpt>
      <trkpt lat="44.3614" lon="3.91785">
        <ele>1231</ele>
        <time>2012-01-03T11:32:47Z</time>
      </trkpt>
      <trkpt lat="44.36143" lon="3.91784">
        <ele>1231</ele>
        <time>2012-01-03T11:32:49Z</time>
      </trkpt>
      <trkpt lat="44.36147" lon="3.91779">
        <ele>1231</ele>
        <time>2012-01-03T11:32:50Z</time>
      </trkpt>
      <trkpt lat="44.36149" lon="3.91777">
        <ele>1231</ele>
        <time>2012-01-03T11:32:51Z</time>
      </trkpt>
      <trkpt lat="44.36151" lon="3.91775">
        <ele>1231</ele>
        <time>2012-01-03T11:32:52Z</time>
      </trkpt>
      <trkpt lat="44.36153" lon="3.91773">
        <ele>1231</ele>
        <time>2012-01-03T11:32:53Z</time>
      </trkpt>
      <trkpt lat="44.36155" lon="3.9177">
        <ele>1231</ele>
        <time>2012-01-03T11:32:54Z</time>
      </trkpt>
      <trkpt lat="44.36157" lon="3.91768">
        <ele>1232</ele>
        <time>2012-01-03T11:32:55Z</time>
      </trkpt>
      <trkpt lat="44.36159" lon="3.91766">
        <ele>1233</ele>
        <time>2012-01-03T11:32:56Z</time>
      </trkpt>
      <trkpt lat="44.36161" lon="3.91765">
        <ele>1233</ele>
        <time>2012-01-03T11:32:57Z</time>
      </trkpt>
      <trkpt lat="44.36162" lon="3.91763">
        <ele>1234</ele>
        <time>2012-01-03T11:32:58Z</time>
      </trkpt>
      <trkpt lat="44.36163" lon="3.91762">
        <ele>1235</ele>
        <time>2012-01-03T11:32:59Z</time>
      </trkpt>
      <trkpt lat="44.36164" lon="3.9176">
        <ele>1235</ele>
        <time>2012-01-03T11:33:00Z</time>
      </trkpt>
      <trkpt lat="44.36166" lon="3.91759">
        <ele>1236</ele>
        <time>2012-01-03T11:33:01Z</time>
      </trkpt>
      <trkpt lat="44.36168" lon="3.91758">
        <ele>1237</ele>
        <time>2012-01-03T11:33:03Z</time>
      </trkpt>
      <trkpt lat="44.36169" lon="3.91756">
        <ele>1238</ele>
        <time>2012-01-03T11:33:04Z</time>
      </trkpt>
      <trkpt lat="44.36171" lon="3.91755">
        <ele>1238</ele>
        <time>2012-01-03T11:33:04Z</time>
      </trkpt>
      <trkpt lat="44.36173" lon="3.91753">
        <ele>1239</ele>
        <time>2012-01-03T11:33:05Z</time>
      </trkpt>
      <trkpt lat="44.36174" lon="3.91753">
        <ele>1240</ele>
        <time>2012-01-03T11:33:06Z</time>
      </trkpt>
      <trkpt lat="44.36176" lon="3.91751">
        <ele>1241</ele>
        <time>2012-01-03T11:33:07Z</time>
      </trkpt>
      <trkpt lat="44.36178" lon="3.9175">
        <ele>1242</ele>
        <time>2012-01-03T11:33:08Z</time>
      </trkpt>
      <trkpt lat="44.3618" lon="3.91748">
        <ele>1242</ele>
        <time>2012-01-03T11:33:09Z</time>
      </trkpt>
      <trkpt lat="44.36182" lon="3.91746">
        <ele>1243</ele>
        <time>2012-01-03T11:33:10Z</time>
      </trkpt>
      <trkpt lat="44.36184" lon="3.91744">
        <ele>1243</ele>
        <time>2012-01-03T11:33:11Z</time>
      </trkpt>
      <trkpt lat="44.36185" lon="3.91741">
        <ele>1243</ele>
        <time>2012-01-03T11:33:12Z</time>
      </trkpt>
      <trkpt lat="44.36187" lon="3.91739">
        <ele>1243</ele>
        <time>2012-01-03T11:33:13Z</time>
      </trkpt>
      <trkpt lat="44.36188" lon="3.91738">
        <ele>1244</ele>
        <time>2012-01-03T11:33:14Z</time>
      </trkpt>
      <trkpt lat="44.3619" lon="3.91737">
        <ele>1244</ele>
        <time>2012-01-03T11:33:15Z</time>
      </trkpt>
      <trkpt lat="44.36192" lon="3.91735">
        <ele>1245</ele>
        <time>2012-01-03T11:33:16Z</time>
      </trkpt>
      <trkpt lat="44.36194" lon="3.91734">
        <ele>1246</ele>
        <time>2012-01-03T11:33:17Z</time>
      </trkpt>
      <trkpt lat="44.36195" lon="3.91733">
        <ele>1246</ele>
        <time>2012-01-03T11:33:18Z</time>
      </trkpt>
      <trkpt lat="44.36197" lon="3.91731">
        <ele>1247</ele>
        <time>2012-01-03T11:33:19Z</time>
      </trkpt>
      <trkpt lat="44.36199" lon="3.9173">
        <ele>1247</ele>
        <time>2012-01-03T11:33:20Z</time>
      </trkpt>
      <trkpt lat="44.36201" lon="3.91728">
        <ele>1247</ele>
        <time>2012-01-03T11:33:21Z</time>
      </trkpt>
      <trkpt lat="44.36203" lon="3.91727">
        <ele>1247</ele>
        <time>2012-01-03T11:33:22Z</time>
      </trkpt>
      <trkpt lat="44.36205" lon="3.91726">
        <ele>1248</ele>
        <time>2012-01-03T11:33:23Z</time>
      </trkpt>
      <trkpt lat="44.36207" lon="3.91724">
        <ele>1248</ele>
        <time>2012-01-03T11:33:24Z</time>
      </trkpt>
      <trkpt lat="44.36209" lon="3.91723">
        <ele>1248</ele>
        <time>2012-01-03T11:33:25Z</time>
      </trkpt>
      <trkpt lat="44.36211" lon="3.91721">
        <ele>1248</ele>
        <time>2012-01-03T11:33:26Z</time>
      </trkpt>
      <trkpt lat="44.36213" lon="3.9172">
        <ele>1249</ele>
        <time>2012-01-03T11:33:27Z</time>
      </trkpt>
      <trkpt lat="44.36215" lon="3.91719">
        <ele>1249</ele>
        <time>2012-01-03T11:33:28Z</time>
      </trkpt>
      <trkpt lat="44.36217" lon="3.91717">
        <ele>1249</ele>
        <time>2012-01-03T11:33:29Z</time>
      </trkpt>
      <trkpt lat="44.36219" lon="3.91716">
        <ele>1250</ele>
        <time>2012-01-03T11:33:30Z</time>
      </trkpt>
      <trkpt lat="44.36221" lon="3.91715">
        <ele>1251</ele>
        <time>2012-01-03T11:33:31Z</time>
      </trkpt>
      <trkpt lat="44.36222" lon="3.91714">
        <ele>1251</ele>
        <time>2012-01-03T11:33:32Z</time>
      </trkpt>
      <trkpt lat="44.36224" lon="3.91713">
        <ele>1251</ele>
        <time>2012-01-03T11:33:33Z</time>
      </trkpt>
      <trkpt lat="44.36226" lon="3.91712">
        <ele>1252</ele>
        <time>2012-01-03T11:33:34Z</time>
      </trkpt>
      <trkpt lat="44.36227" lon="3.91712">
        <ele>1252</ele>
        <time>2012-01-03T11:33:35Z</time>
      </trkpt>
      <trkpt lat="44.36228" lon="3.91712">
        <ele>1252</ele>
        <time>2012-01-03T11:33:36Z</time>
      </trkpt>
      <trkpt lat="44.36232" lon="3.91711">
        <ele>1253</ele>
        <time>2012-01-03T11:33:40Z</time>
      </trkpt>
      <trkpt lat="44.36235" lon="3.91706">
        <ele>1254</ele>
        <time>2012-01-03T11:33:44Z</time>
      </trkpt>
      <trkpt lat="44.36242" lon="3.91703">
        <ele>1255</ele>
        <time>2012-01-03T11:33:44Z</time>
      </trkpt>
      <trkpt lat="44.36243" lon="3.91702">
        <ele>1256</ele>
        <time>2012-01-03T11:33:45Z</time>
      </trkpt>
      <trkpt lat="44.36244" lon="3.91701">
        <ele>1256</ele>
        <time>2012-01-03T11:33:46Z</time>
      </trkpt>
      <trkpt lat="44.36247" lon="3.91699">
        <ele>1256</ele>
        <time>2012-01-03T11:33:51Z</time>
      </trkpt>
      <trkpt lat="44.36252" lon="3.91698">
        <ele>1257</ele>
        <time>2012-01-03T11:33:51Z</time>
      </trkpt>
      <trkpt lat="44.36254" lon="3.91697">
        <ele>1258</ele>
        <time>2012-01-03T11:33:52Z</time>
      </trkpt>
      <trkpt lat="44.36255" lon="3.91697">
        <ele>1259</ele>
        <time>2012-01-03T11:33:53Z</time>
      </trkpt>
      <trkpt lat="44.36259" lon="3.91696">
        <ele>1259</ele>
        <time>2012-01-03T11:33:58Z</time>
      </trkpt>
      <trkpt lat="44.36264" lon="3.91696">
        <ele>1260</ele>
        <time>2012-01-03T11:33:58Z</time>
      </trkpt>
      <trkpt lat="44.36265" lon="3.91696">
        <ele>1261</ele>
        <time>2012-01-03T11:33:59Z</time>
      </trkpt>
      <trkpt lat="44.36267" lon="3.91696">
        <ele>1262</ele>
        <time>2012-01-03T11:34:04Z</time>
      </trkpt>
      <trkpt lat="44.36271" lon="3.91697">
        <ele>1263</ele>
        <time>2012-01-03T11:34:04Z</time>
      </trkpt>
      <trkpt lat="44.36272" lon="3.91697">
        <ele>1264</ele>
        <time>2012-01-03T11:34:05Z</time>
      </trkpt>
      <trkpt lat="44.36275" lon="3.91697">
        <ele>1265</ele>
        <time>2012-01-03T11:34:10Z</time>
      </trkpt>
      <trkpt lat="44.36278" lon="3.91695">
        <ele>1266</ele>
        <time>2012-01-03T11:34:10Z</time>
      </trkpt>
      <trkpt lat="44.3628" lon="3.91694">
        <ele>1267</ele>
        <time>2012-01-03T11:34:11Z</time>
      </trkpt>
      <trkpt lat="44.36281" lon="3.91693">
        <ele>1268</ele>
        <time>2012-01-03T11:34:13Z</time>
      </trkpt>
      <trkpt lat="44.36288" lon="3.9169">
        <ele>1269</ele>
        <time>2012-01-03T11:34:17Z</time>
      </trkpt>
      <trkpt lat="44.3629" lon="3.9169">
        <ele>1270</ele>
        <time>2012-01-03T11:34:18Z</time>
      </trkpt>
      <trkpt lat="44.36294" lon="3.91688">
        <ele>1271</ele>
        <time>2012-01-03T11:34:23Z</time>
      </trkpt>
      <trkpt lat="44.363" lon="3.91686">
        <ele>1272</ele>
        <time>2012-01-03T11:34:24Z</time>
      </trkpt>
      <trkpt lat="44.36301" lon="3.91684">
        <ele>1272</ele>
        <time>2012-01-03T11:34:26Z</time>
      </trkpt>
      <trkpt lat="44.36303" lon="3.91683">
        <ele>1272</ele>
        <time>2012-01-03T11:34:27Z</time>
      </trkpt>
      <trkpt lat="44.36306" lon="3.91681">
        <ele>1272</ele>
        <time>2012-01-03T11:34:32Z</time>
      </trkpt>
      <trkpt lat="44.36312" lon="3.91675">
        <ele>1272</ele>
        <time>2012-01-03T11:34:33Z</time>
      </trkpt>
      <trkpt lat="44.36314" lon="3.91675">
        <ele>1272</ele>
        <time>2012-01-03T11:34:34Z</time>
      </trkpt>
      <trkpt lat="44.36315" lon="3.91674">
        <ele>1272</ele>
        <time>2012-01-03T11:34:34Z</time>
      </trkpt>
      <trkpt lat="44.36317" lon="3.91671">
        <ele>1271</ele>
        <time>2012-01-03T11:34:39Z</time>
      </trkpt>
      <trkpt lat="44.36322" lon="3.9167">
        <ele>1270</ele>
        <time>2012-01-03T11:34:39Z</time>
      </trkpt>
      <trkpt lat="44.36324" lon="3.9167">
        <ele>1269</ele>
        <time>2012-01-03T11:34:40Z</time>
      </trkpt>
      <trkpt lat="44.36325" lon="3.9167">
        <ele>1268</ele>
        <time>2012-01-03T11:34:41Z</time>
      </trkpt>
      <trkpt lat="44.36326" lon="3.91669">
        <ele>1267</ele>
        <time>2012-01-03T11:34:42Z</time>
      </trkpt>
      <trkpt lat="44.36329" lon="3.91668">
        <ele>1266</ele>
        <time>2012-01-03T11:34:47Z</time>
      </trkpt>
      <trkpt lat="44.36332" lon="3.91668">
        <ele>1266</ele>
        <time>2012-01-03T11:34:47Z</time>
      </trkpt>
      <trkpt lat="44.36334" lon="3.91667">
        <ele>1265</ele>
        <time>2012-01-03T11:34:48Z</time>
      </trkpt>
      <trkpt lat="44.36336" lon="3.91667">
        <ele>1265</ele>
        <time>2012-01-03T11:34:53Z</time>
      </trkpt>
      <trkpt lat="44.36339" lon="3.91666">
        <ele>1265</ele>
        <time>2012-01-03T11:34:53Z</time>
      </trkpt>
      <trkpt lat="44.3634" lon="3.91666">
        <ele>1265</ele>
        <time>2012-01-03T11:34:54Z</time>
      </trkpt>
      <trkpt lat="44.36341" lon="3.91666">
        <ele>1265</ele>
        <time>2012-01-03T11:34:55Z</time>
      </trkpt>
      <trkpt lat="44.36347" lon="3.91666">
        <ele>1265</ele>
        <time>2012-01-03T11:35:01Z</time>
      </trkpt>
      <trkpt lat="44.36349" lon="3.91665">
        <ele>1265</ele>
        <time>2012-01-03T11:35:03Z</time>
      </trkpt>
      <trkpt lat="44.36351" lon="3.91666">
        <ele>1265</ele>
        <time>2012-01-03T11:35:08Z</time>
      </trkpt>
      <trkpt lat="44.36353" lon="3.91664">
        <ele>1265</ele>
        <time>2012-01-03T11:35:09Z</time>
      </trkpt>
      <trkpt lat="44.36354" lon="3.91664">
        <ele>1266</ele>
        <time>2012-01-03T11:35:10Z</time>
      </trkpt>
      <trkpt lat="44.36356" lon="3.91665">
        <ele>1267</ele>
        <time>2012-01-03T11:35:13Z</time>
      </trkpt>
      <trkpt lat="44.36361" lon="3.91662">
        <ele>1268</ele>
        <time>2012-01-03T11:35:17Z</time>
      </trkpt>
      <trkpt lat="44.36362" lon="3.91661">
        <ele>1268</ele>
        <time>2012-01-03T11:35:18Z</time>
      </trkpt>
      <trkpt lat="44.36365" lon="3.91661">
        <ele>1269</ele>
        <time>2012-01-03T11:35:24Z</time>
      </trkpt>
      <trkpt lat="44.36369" lon="3.9166">
        <ele>1269</ele>
        <time>2012-01-03T11:35:24Z</time>
      </trkpt>
      <trkpt lat="44.3637" lon="3.9166">
        <ele>1270</ele>
        <time>2012-01-03T11:35:25Z</time>
      </trkpt>
      <trkpt lat="44.36372" lon="3.9166">
        <ele>1271</ele>
        <time>2012-01-03T11:35:26Z</time>
      </trkpt>
      <trkpt lat="44.36374" lon="3.91662">
        <ele>1272</ele>
        <time>2012-01-03T11:35:31Z</time>
      </trkpt>
      <trkpt lat="44.36379" lon="3.91659">
        <ele>1273</ele>
        <time>2012-01-03T11:35:31Z</time>
      </trkpt>
      <trkpt lat="44.36381" lon="3.91658">
        <ele>1273</ele>
        <time>2012-01-03T11:35:32Z</time>
      </trkpt>
      <trkpt lat="44.36383" lon="3.91658">
        <ele>1273</ele>
        <time>2012-01-03T11:35:38Z</time>
      </trkpt>
      <trkpt lat="44.36387" lon="3.91655">
        <ele>1273</ele>
        <time>2012-01-03T11:35:39Z</time>
      </trkpt>
      <trkpt lat="44.36389" lon="3.91654">
        <ele>1273</ele>
        <time>2012-01-03T11:35:39Z</time>
      </trkpt>
      <trkpt lat="44.3639" lon="3.91654">
        <ele>1273</ele>
        <time>2012-01-03T11:35:41Z</time>
      </trkpt>
      <trkpt lat="44.36393" lon="3.91652">
        <ele>1273</ele>
        <time>2012-01-03T11:35:45Z</time>
      </trkpt>
      <trkpt lat="44.36396" lon="3.91655">
        <ele>1273</ele>
        <time>2012-01-03T11:35:45Z</time>
      </trkpt>
      <trkpt lat="44.36399" lon="3.91655">
        <ele>1274</ele>
        <time>2012-01-03T11:35:47Z</time>
      </trkpt>
      <trkpt lat="44.36403" lon="3.91655">
        <ele>1275</ele>
        <time>2012-01-03T11:35:52Z</time>
      </trkpt>
      <trkpt lat="44.36408" lon="3.91654">
        <ele>1276</ele>
        <time>2012-01-03T11:35:52Z</time>
      </trkpt>
      <trkpt lat="44.36409" lon="3.91654">
        <ele>1276</ele>
        <time>2012-01-03T11:35:53Z</time>
      </trkpt>
      <trkpt lat="44.36413" lon="3.91654">
        <ele>1276</ele>
        <time>2012-01-03T11:35:58Z</time>
      </trkpt>
      <trkpt lat="44.36417" lon="3.91653">
        <ele>1276</ele>
        <time>2012-01-03T11:35:58Z</time>
      </trkpt>
      <trkpt lat="44.36418" lon="3.91653">
        <ele>1276</ele>
        <time>2012-01-03T11:35:59Z</time>
      </trkpt>
      <trkpt lat="44.36422" lon="3.9165">
        <ele>1276</ele>
        <time>2012-01-03T11:36:04Z</time>
      </trkpt>
      <trkpt lat="44.36424" lon="3.9165">
        <ele>1276</ele>
        <time>2012-01-03T11:36:08Z</time>
      </trkpt>
      <trkpt lat="44.36425" lon="3.91649">
        <ele>1276</ele>
        <time>2012-01-03T11:36:09Z</time>
      </trkpt>
      <trkpt lat="44.36434" lon="3.91646">
        <ele>1276</ele>
        <time>2012-01-03T11:36:13Z</time>
      </trkpt>
      <trkpt lat="44.36435" lon="3.91645">
        <ele>1276</ele>
        <time>2012-01-03T11:36:14Z</time>
      </trkpt>
      <trkpt lat="44.36436" lon="3.91643">
        <ele>1276</ele>
        <time>2012-01-03T11:36:15Z</time>
      </trkpt>
      <trkpt lat="44.36438" lon="3.9164">
        <ele>1276</ele>
        <time>2012-01-03T11:36:20Z</time>
      </trkpt>
      <trkpt lat="44.36442" lon="3.91634">
        <ele>1276</ele>
        <time>2012-01-03T11:36:20Z</time>
      </trkpt>
      <trkpt lat="44.36443" lon="3.91632">
        <ele>1276</ele>
        <time>2012-01-03T11:36:21Z</time>
      </trkpt>
      <trkpt lat="44.36446" lon="3.91628">
        <ele>1276</ele>
        <time>2012-01-03T11:36:26Z</time>
      </trkpt>
      <trkpt lat="44.3645" lon="3.91621">
        <ele>1276</ele>
        <time>2012-01-03T11:36:26Z</time>
      </trkpt>
      <trkpt lat="44.36451" lon="3.91619">
        <ele>1277</ele>
        <time>2012-01-03T11:36:27Z</time>
      </trkpt>
      <trkpt lat="44.36454" lon="3.91616">
        <ele>1277</ele>
        <time>2012-01-03T11:36:32Z</time>
      </trkpt>
      <trkpt lat="44.36457" lon="3.91611">
        <ele>1277</ele>
        <time>2012-01-03T11:36:32Z</time>
      </trkpt>
      <trkpt lat="44.36459" lon="3.91609">
        <ele>1277</ele>
        <time>2012-01-03T11:36:34Z</time>
      </trkpt>
      <trkpt lat="44.3646" lon="3.91606">
        <ele>1277</ele>
        <time>2012-01-03T11:36:34Z</time>
      </trkpt>
      <trkpt lat="44.36467" lon="3.91597">
        <ele>1277</ele>
        <time>2012-01-03T11:36:39Z</time>
      </trkpt>
      <trkpt lat="44.36469" lon="3.91595">
        <ele>1277</ele>
        <time>2012-01-03T11:36:40Z</time>
      </trkpt>
      <trkpt lat="44.3647" lon="3.91593">
        <ele>1277</ele>
        <time>2012-01-03T11:36:41Z</time>
      </trkpt>
      <trkpt lat="44.36473" lon="3.91589">
        <ele>1277</ele>
        <time>2012-01-03T11:36:46Z</time>
      </trkpt>
      <trkpt lat="44.36478" lon="3.91582">
        <ele>1277</ele>
        <time>2012-01-03T11:36:46Z</time>
      </trkpt>
      <trkpt lat="44.36479" lon="3.9158">
        <ele>1277</ele>
        <time>2012-01-03T11:36:47Z</time>
      </trkpt>
      <trkpt lat="44.36483" lon="3.91576">
        <ele>1277</ele>
        <time>2012-01-03T11:36:52Z</time>
      </trkpt>
      <trkpt lat="44.36487" lon="3.91569">
        <ele>1277</ele>
        <time>2012-01-03T11:36:52Z</time>
      </trkpt>
      <trkpt lat="44.36488" lon="3.91568">
        <ele>1277</ele>
        <time>2012-01-03T11:36:53Z</time>
      </trkpt>
      <trkpt lat="44.36492" lon="3.91562">
        <ele>1277</ele>
        <time>2012-01-03T11:36:58Z</time>
      </trkpt>
      <trkpt lat="44.36493" lon="3.91561">
        <ele>1277</ele>
        <time>2012-01-03T11:36:59Z</time>
      </trkpt>
      <trkpt lat="44.36495" lon="3.91557">
        <ele>1277</ele>
        <time>2012-01-03T11:37:04Z</time>
      </trkpt>
      <trkpt lat="44.36501" lon="3.9155">
        <ele>1277</ele>
        <time>2012-01-03T11:37:05Z</time>
      </trkpt>
      <trkpt lat="44.36502" lon="3.91549">
        <ele>1277</ele>
        <time>2012-01-03T11:37:06Z</time>
      </trkpt>
      <trkpt lat="44.36506" lon="3.91545">
        <ele>1277</ele>
        <time>2012-01-03T11:37:11Z</time>
      </trkpt>
      <trkpt lat="44.36512" lon="3.91539">
        <ele>1277</ele>
        <time>2012-01-03T11:37:11Z</time>
      </trkpt>
      <trkpt lat="44.36514" lon="3.91537">
        <ele>1277</ele>
        <time>2012-01-03T11:37:12Z</time>
      </trkpt>
      <trkpt lat="44.36516" lon="3.91534">
        <ele>1277</ele>
        <time>2012-01-03T11:37:17Z</time>
      </trkpt>
      <trkpt lat="44.36521" lon="3.91533">
        <ele>1277</ele>
        <time>2012-01-03T11:37:18Z</time>
      </trkpt>
      <trkpt lat="44.36523" lon="3.91532">
        <ele>1277</ele>
        <time>2012-01-03T11:37:19Z</time>
      </trkpt>
      <trkpt lat="44.36525" lon="3.91531">
        <ele>1277</ele>
        <time>2012-01-03T11:37:19Z</time>
      </trkpt>
      <trkpt lat="44.36529" lon="3.91529">
        <ele>1278</ele>
        <time>2012-01-03T11:37:24Z</time>
      </trkpt>
      <trkpt lat="44.36534" lon="3.91527">
        <ele>1279</ele>
        <time>2012-01-03T11:37:24Z</time>
      </trkpt>
      <trkpt lat="44.36536" lon="3.91526">
        <ele>1280</ele>
        <time>2012-01-03T11:37:25Z</time>
      </trkpt>
      <trkpt lat="44.36545" lon="3.91523">
        <ele>1281</ele>
        <time>2012-01-03T11:37:30Z</time>
      </trkpt>
      <trkpt lat="44.36547" lon="3.91523">
        <ele>1282</ele>
        <time>2012-01-03T11:37:31Z</time>
      </trkpt>
      <trkpt lat="44.36551" lon="3.91522">
        <ele>1282</ele>
        <time>2012-01-03T11:37:36Z</time>
      </trkpt>
      <trkpt lat="44.36554" lon="3.91521">
        <ele>1282</ele>
        <time>2012-01-03T11:37:37Z</time>
      </trkpt>
      <trkpt lat="44.36556" lon="3.9152">
        <ele>1290</ele>
        <time>2012-01-03T11:37:54Z</time>
      </trkpt>
      <trkpt lat="44.36557" lon="3.91519">
        <ele>1290</ele>
        <time>2012-01-03T11:37:57Z</time>
      </trkpt>
      <trkpt lat="44.36559" lon="3.91518">
        <ele>1290</ele>
        <time>2012-01-03T11:38:00Z</time>
      </trkpt>
      <trkpt lat="44.3656" lon="3.91518">
        <ele>1290</ele>
        <time>2012-01-03T11:38:03Z</time>
      </trkpt>
      <trkpt lat="44.36562" lon="3.91518">
        <ele>1290</ele>
        <time>2012-01-03T11:38:06Z</time>
      </trkpt>
      <trkpt lat="44.36564" lon="3.91518">
        <ele>1290</ele>
        <time>2012-01-03T11:38:09Z</time>
      </trkpt>
      <trkpt lat="44.36566" lon="3.91517">
        <ele>1289</ele>
        <time>2012-01-03T11:38:10Z</time>
      </trkpt>
      <trkpt lat="44.36567" lon="3.91517">
        <ele>1289</ele>
        <time>2012-01-03T11:38:11Z</time>
      </trkpt>
      <trkpt lat="44.36569" lon="3.91516">
        <ele>1289</ele>
        <time>2012-01-03T11:38:11Z</time>
      </trkpt>
      <trkpt lat="44.3657" lon="3.91515">
        <ele>1289</ele>
        <time>2012-01-03T11:38:12Z</time>
      </trkpt>
      <trkpt lat="44.36572" lon="3.91514">
        <ele>1288</ele>
        <time>2012-01-03T11:38:13Z</time>
      </trkpt>
      <trkpt lat="44.36573" lon="3.91513">
        <ele>1288</ele>
        <time>2012-01-03T11:38:14Z</time>
      </trkpt>
      <trkpt lat="44.36575" lon="3.91512">
        <ele>1288</ele>
        <time>2012-01-03T11:38:15Z</time>
      </trkpt>
      <trkpt lat="44.36576" lon="3.91511">
        <ele>1288</ele>
        <time>2012-01-03T11:38:16Z</time>
      </trkpt>
      <trkpt lat="44.36577" lon="3.91511">
        <ele>1288</ele>
        <time>2012-01-03T11:38:17Z</time>
      </trkpt>
      <trkpt lat="44.36579" lon="3.9151">
        <ele>1288</ele>
        <time>2012-01-03T11:38:18Z</time>
      </trkpt>
      <trkpt lat="44.3658" lon="3.91509">
        <ele>1288</ele>
        <time>2012-01-03T11:38:19Z</time>
      </trkpt>
      <trkpt lat="44.36581" lon="3.91508">
        <ele>1288</ele>
        <time>2012-01-03T11:38:20Z</time>
      </trkpt>
      <trkpt lat="44.36583" lon="3.91506">
        <ele>1288</ele>
        <time>2012-01-03T11:38:21Z</time>
      </trkpt>
      <trkpt lat="44.36584" lon="3.91505">
        <ele>1288</ele>
        <time>2012-01-03T11:38:22Z</time>
      </trkpt>
      <trkpt lat="44.36586" lon="3.91505">
        <ele>1288</ele>
        <time>2012-01-03T11:38:23Z</time>
      </trkpt>
      <trkpt lat="44.36588" lon="3.91504">
        <ele>1288</ele>
        <time>2012-01-03T11:38:24Z</time>
      </trkpt>
      <trkpt lat="44.36589" lon="3.91503">
        <ele>1287</ele>
        <time>2012-01-03T11:38:25Z</time>
      </trkpt>
      <trkpt lat="44.36591" lon="3.91502">
        <ele>1287</ele>
        <time>2012-01-03T11:38:26Z</time>
      </trkpt>
      <trkpt lat="44.36594" lon="3.91501">
        <ele>1287</ele>
        <time>2012-01-03T11:38:27Z</time>
      </trkpt>
      <trkpt lat="44.36596" lon="3.915">
        <ele>1286</ele>
        <time>2012-01-03T11:38:28Z</time>
      </trkpt>
      <trkpt lat="44.36598" lon="3.91499">
        <ele>1286</ele>
        <time>2012-01-03T11:38:29Z</time>
      </trkpt>
      <trkpt lat="44.36601" lon="3.91499">
        <ele>1286</ele>
        <time>2012-01-03T11:38:30Z</time>
      </trkpt>
      <trkpt lat="44.36603" lon="3.91499">
        <ele>1285</ele>
        <time>2012-01-03T11:38:31Z</time>
      </trkpt>
      <trkpt lat="44.36605" lon="3.91498">
        <ele>1285</ele>
        <time>2012-01-03T11:38:32Z</time>
      </trkpt>
      <trkpt lat="44.36607" lon="3.91498">
        <ele>1285</ele>
        <time>2012-01-03T11:38:33Z</time>
      </trkpt>
      <trkpt lat="44.36609" lon="3.91499">
        <ele>1285</ele>
        <time>2012-01-03T11:38:34Z</time>
      </trkpt>
      <trkpt lat="44.3661" lon="3.91499">
        <ele>1285</ele>
        <time>2012-01-03T11:38:35Z</time>
      </trkpt>
      <trkpt lat="44.36612" lon="3.915">
        <ele>1285</ele>
        <time>2012-01-03T11:38:36Z</time>
      </trkpt>
      <trkpt lat="44.36614" lon="3.91501">
        <ele>1285</ele>
        <time>2012-01-03T11:38:37Z</time>
      </trkpt>
      <trkpt lat="44.36616" lon="3.91501">
        <ele>1285</ele>
        <time>2012-01-03T11:38:38Z</time>
      </trkpt>
      <trkpt lat="44.36618" lon="3.915">
        <ele>1285</ele>
        <time>2012-01-03T11:38:40Z</time>
      </trkpt>
      <trkpt lat="44.3662" lon="3.915">
        <ele>1285</ele>
        <time>2012-01-03T11:38:41Z</time>
      </trkpt>
      <trkpt lat="44.36623" lon="3.91499">
        <ele>1285</ele>
        <time>2012-01-03T11:38:42Z</time>
      </trkpt>
      <trkpt lat="44.36625" lon="3.91503">
        <ele>1285</ele>
        <time>2012-01-03T11:38:43Z</time>
      </trkpt>
      <trkpt lat="44.36626" lon="3.91505">
        <ele>1285</ele>
        <time>2012-01-03T11:38:45Z</time>
      </trkpt>
      <trkpt lat="44.36628" lon="3.91507">
        <ele>1285</ele>
        <time>2012-01-03T11:38:45Z</time>
      </trkpt>
      <trkpt lat="44.3663" lon="3.91507">
        <ele>1285</ele>
        <time>2012-01-03T11:38:46Z</time>
      </trkpt>
      <trkpt lat="44.36631" lon="3.91508">
        <ele>1286</ele>
        <time>2012-01-03T11:38:48Z</time>
      </trkpt>
      <trkpt lat="44.36633" lon="3.91508">
        <ele>1287</ele>
        <time>2012-01-03T11:38:49Z</time>
      </trkpt>
      <trkpt lat="44.36634" lon="3.91508">
        <ele>1288</ele>
        <time>2012-01-03T11:38:50Z</time>
      </trkpt>
      <trkpt lat="44.36636" lon="3.91509">
        <ele>1288</ele>
        <time>2012-01-03T11:38:51Z</time>
      </trkpt>
      <trkpt lat="44.36638" lon="3.91509">
        <ele>1288</ele>
        <time>2012-01-03T11:38:51Z</time>
      </trkpt>
      <trkpt lat="44.36639" lon="3.9151">
        <ele>1289</ele>
        <time>2012-01-03T11:38:52Z</time>
      </trkpt>
      <trkpt lat="44.36641" lon="3.91512">
        <ele>1290</ele>
        <time>2012-01-03T11:38:55Z</time>
      </trkpt>
      <trkpt lat="44.36644" lon="3.91517">
        <ele>1291</ele>
        <time>2012-01-03T11:38:57Z</time>
      </trkpt>
      <trkpt lat="44.36645" lon="3.91521">
        <ele>1292</ele>
        <time>2012-01-03T11:38:57Z</time>
      </trkpt>
      <trkpt lat="44.36647" lon="3.91525">
        <ele>1293</ele>
        <time>2012-01-03T11:38:58Z</time>
      </trkpt>
      <trkpt lat="44.36649" lon="3.91527">
        <ele>1294</ele>
        <time>2012-01-03T11:38:59Z</time>
      </trkpt>
      <trkpt lat="44.3665" lon="3.91529">
        <ele>1295</ele>
        <time>2012-01-03T11:39:00Z</time>
      </trkpt>
      <trkpt lat="44.36651" lon="3.91531">
        <ele>1296</ele>
        <time>2012-01-03T11:39:01Z</time>
      </trkpt>
      <trkpt lat="44.36653" lon="3.91533">
        <ele>1298</ele>
        <time>2012-01-03T11:39:03Z</time>
      </trkpt>
      <trkpt lat="44.36656" lon="3.91535">
        <ele>1300</ele>
        <time>2012-01-03T11:39:05Z</time>
      </trkpt>
      <trkpt lat="44.36657" lon="3.91538">
        <ele>1301</ele>
        <time>2012-01-03T11:39:06Z</time>
      </trkpt>
      <trkpt lat="44.36658" lon="3.9154">
        <ele>1302</ele>
        <time>2012-01-03T11:39:07Z</time>
      </trkpt>
      <trkpt lat="44.3666" lon="3.91541">
        <ele>1302</ele>
        <time>2012-01-03T11:39:08Z</time>
      </trkpt>
      <trkpt lat="44.36661" lon="3.91543">
        <ele>1303</ele>
        <time>2012-01-03T11:39:09Z</time>
      </trkpt>
      <trkpt lat="44.36662" lon="3.91545">
        <ele>1303</ele>
        <time>2012-01-03T11:39:10Z</time>
      </trkpt>
      <trkpt lat="44.36664" lon="3.91546">
        <ele>1303</ele>
        <time>2012-01-03T11:39:11Z</time>
      </trkpt>
      <trkpt lat="44.36665" lon="3.91548">
        <ele>1303</ele>
        <time>2012-01-03T11:39:12Z</time>
      </trkpt>
      <trkpt lat="44.36666" lon="3.9155">
        <ele>1304</ele>
        <time>2012-01-03T11:39:13Z</time>
      </trkpt>
      <trkpt lat="44.36668" lon="3.91552">
        <ele>1304</ele>
        <time>2012-01-03T11:39:14Z</time>
      </trkpt>
      <trkpt lat="44.36669" lon="3.91554">
        <ele>1305</ele>
        <time>2012-01-03T11:39:15Z</time>
      </trkpt>
      <trkpt lat="44.36671" lon="3.91557">
        <ele>1306</ele>
        <time>2012-01-03T11:39:16Z</time>
      </trkpt>
      <trkpt lat="44.36673" lon="3.91559">
        <ele>1306</ele>
        <time>2012-01-03T11:39:17Z</time>
      </trkpt>
      <trkpt lat="44.36674" lon="3.9156">
        <ele>1307</ele>
        <time>2012-01-03T11:39:18Z</time>
      </trkpt>
      <trkpt lat="44.36676" lon="3.91561">
        <ele>1307</ele>
        <time>2012-01-03T11:39:19Z</time>
      </trkpt>
      <trkpt lat="44.36678" lon="3.91564">
        <ele>1308</ele>
        <time>2012-01-03T11:39:21Z</time>
      </trkpt>
      <trkpt lat="44.3668" lon="3.91566">
        <ele>1308</ele>
        <time>2012-01-03T11:39:21Z</time>
      </trkpt>
      <trkpt lat="44.36683" lon="3.91567">
        <ele>1308</ele>
        <time>2012-01-03T11:39:22Z</time>
      </trkpt>
      <trkpt lat="44.36685" lon="3.91567">
        <ele>1308</ele>
        <time>2012-01-03T11:39:23Z</time>
      </trkpt>
      <trkpt lat="44.36687" lon="3.91568">
        <ele>1308</ele>
        <time>2012-01-03T11:39:25Z</time>
      </trkpt>
      <trkpt lat="44.36689" lon="3.91568">
        <ele>1308</ele>
        <time>2012-01-03T11:39:25Z</time>
      </trkpt>
      <trkpt lat="44.36691" lon="3.91568">
        <ele>1308</ele>
        <time>2012-01-03T11:39:26Z</time>
      </trkpt>
      <trkpt lat="44.36694" lon="3.91569">
        <ele>1308</ele>
        <time>2012-01-03T11:39:27Z</time>
      </trkpt>
      <trkpt lat="44.36695" lon="3.91569">
        <ele>1308</ele>
        <time>2012-01-03T11:39:28Z</time>
      </trkpt>
      <trkpt lat="44.36698" lon="3.91568">
        <ele>1308</ele>
        <time>2012-01-03T11:39:29Z</time>
      </trkpt>
      <trkpt lat="44.36701" lon="3.9157">
        <ele>1308</ele>
        <time>2012-01-03T11:39:30Z</time>
      </trkpt>
      <trkpt lat="44.36705" lon="3.91572">
        <ele>1308</ele>
        <time>2012-01-03T11:39:31Z</time>
      </trkpt>
      <trkpt lat="44.36708" lon="3.91574">
        <ele>1308</ele>
        <time>2012-01-03T11:39:33Z</time>
      </trkpt>
      <trkpt lat="44.36711" lon="3.91575">
        <ele>1308</ele>
        <time>2012-01-03T11:39:34Z</time>
      </trkpt>
      <trkpt lat="44.36713" lon="3.91575">
        <ele>1308</ele>
        <time>2012-01-03T11:39:35Z</time>
      </trkpt>
      <trkpt lat="44.36716" lon="3.91574">
        <ele>1307</ele>
        <time>2012-01-03T11:39:36Z</time>
      </trkpt>
      <trkpt lat="44.36718" lon="3.91574">
        <ele>1307</ele>
        <time>2012-01-03T11:39:36Z</time>
      </trkpt>
      <trkpt lat="44.3672" lon="3.91574">
        <ele>1306</ele>
        <time>2012-01-03T11:39:37Z</time>
      </trkpt>
      <trkpt lat="44.36723" lon="3.91574">
        <ele>1306</ele>
        <time>2012-01-03T11:39:38Z</time>
      </trkpt>
      <trkpt lat="44.36725" lon="3.91574">
        <ele>1305</ele>
        <time>2012-01-03T11:39:39Z</time>
      </trkpt>
      <trkpt lat="44.36728" lon="3.91574">
        <ele>1305</ele>
        <time>2012-01-03T11:39:40Z</time>
      </trkpt>
      <trkpt lat="44.36731" lon="3.91574">
        <ele>1305</ele>
        <time>2012-01-03T11:39:41Z</time>
      </trkpt>
      <trkpt lat="44.36733" lon="3.91573">
        <ele>1304</ele>
        <time>2012-01-03T11:39:42Z</time>
      </trkpt>
      <trkpt lat="44.36735" lon="3.91573">
        <ele>1304</ele>
        <time>2012-01-03T11:39:43Z</time>
      </trkpt>
      <trkpt lat="44.36737" lon="3.91572">
        <ele>1303</ele>
        <time>2012-01-03T11:39:44Z</time>
      </trkpt>
      <trkpt lat="44.3674" lon="3.91571">
        <ele>1303</ele>
        <time>2012-01-03T11:39:45Z</time>
      </trkpt>
      <trkpt lat="44.36742" lon="3.91571">
        <ele>1302</ele>
        <time>2012-01-03T11:39:46Z</time>
      </trkpt>
      <trkpt lat="44.36744" lon="3.91571">
        <ele>1301</ele>
        <time>2012-01-03T11:39:47Z</time>
      </trkpt>
      <trkpt lat="44.36746" lon="3.9157">
        <ele>1300</ele>
        <time>2012-01-03T11:39:48Z</time>
      </trkpt>
      <trkpt lat="44.36748" lon="3.91569">
        <ele>1300</ele>
        <time>2012-01-03T11:39:49Z</time>
      </trkpt>
      <trkpt lat="44.3675" lon="3.91568">
        <ele>1300</ele>
        <time>2012-01-03T11:39:50Z</time>
      </trkpt>
      <trkpt lat="44.36752" lon="3.91568">
        <ele>1300</ele>
        <time>2012-01-03T11:39:51Z</time>
      </trkpt>
      <trkpt lat="44.36754" lon="3.91567">
        <ele>1300</ele>
        <time>2012-01-03T11:39:52Z</time>
      </trkpt>
      <trkpt lat="44.36757" lon="3.91566">
        <ele>1300</ele>
        <time>2012-01-03T11:39:53Z</time>
      </trkpt>
      <trkpt lat="44.36758" lon="3.91565">
        <ele>1300</ele>
        <time>2012-01-03T11:39:54Z</time>
      </trkpt>
      <trkpt lat="44.3676" lon="3.91565">
        <ele>1300</ele>
        <time>2012-01-03T11:39:56Z</time>
      </trkpt>
      <trkpt lat="44.36763" lon="3.91564">
        <ele>1300</ele>
        <time>2012-01-03T11:39:56Z</time>
      </trkpt>
      <trkpt lat="44.36765" lon="3.91564">
        <ele>1300</ele>
        <time>2012-01-03T11:39:58Z</time>
      </trkpt>
      <trkpt lat="44.36767" lon="3.91563">
        <ele>1300</ele>
        <time>2012-01-03T11:39:59Z</time>
      </trkpt>
      <trkpt lat="44.36769" lon="3.91562">
        <ele>1300</ele>
        <time>2012-01-03T11:39:59Z</time>
      </trkpt>
      <trkpt lat="44.36772" lon="3.91561">
        <ele>1300</ele>
        <time>2012-01-03T11:40:00Z</time>
      </trkpt>
      <trkpt lat="44.36774" lon="3.91561">
        <ele>1300</ele>
        <time>2012-01-03T11:40:01Z</time>
      </trkpt>
      <trkpt lat="44.36777" lon="3.9156">
        <ele>1300</ele>
        <time>2012-01-03T11:40:02Z</time>
      </trkpt>
      <trkpt lat="44.36779" lon="3.9156">
        <ele>1300</ele>
        <time>2012-01-03T11:40:03Z</time>
      </trkpt>
      <trkpt lat="44.36781" lon="3.91559">
        <ele>1300</ele>
        <time>2012-01-03T11:40:04Z</time>
      </trkpt>
      <trkpt lat="44.36783" lon="3.91558">
        <ele>1300</ele>
        <time>2012-01-03T11:40:05Z</time>
      </trkpt>
      <trkpt lat="44.36785" lon="3.91557">
        <ele>1300</ele>
        <time>2012-01-03T11:40:06Z</time>
      </trkpt>
      <trkpt lat="44.36787" lon="3.91557">
        <ele>1300</ele>
        <time>2012-01-03T11:40:07Z</time>
      </trkpt>
      <trkpt lat="44.36789" lon="3.91556">
        <ele>1300</ele>
        <time>2012-01-03T11:40:08Z</time>
      </trkpt>
      <trkpt lat="44.36792" lon="3.91556">
        <ele>1300</ele>
        <time>2012-01-03T11:40:09Z</time>
      </trkpt>
      <trkpt lat="44.36794" lon="3.91556">
        <ele>1300</ele>
        <time>2012-01-03T11:40:10Z</time>
      </trkpt>
      <trkpt lat="44.36796" lon="3.91556">
        <ele>1300</ele>
        <time>2012-01-03T11:40:11Z</time>
      </trkpt>
      <trkpt lat="44.36798" lon="3.91556">
        <ele>1300</ele>
        <time>2012-01-03T11:40:12Z</time>
      </trkpt>
      <trkpt lat="44.368" lon="3.91556">
        <ele>1300</ele>
        <time>2012-01-03T11:40:14Z</time>
      </trkpt>
      <trkpt lat="44.36802" lon="3.91556">
        <ele>1300</ele>
        <time>2012-01-03T11:40:14Z</time>
      </trkpt>
      <trkpt lat="44.36804" lon="3.91555">
        <ele>1300</ele>
        <time>2012-01-03T11:40:15Z</time>
      </trkpt>
      <trkpt lat="44.36806" lon="3.91555">
        <ele>1300</ele>
        <time>2012-01-03T11:40:16Z</time>
      </trkpt>
      <trkpt lat="44.36808" lon="3.91555">
        <ele>1300</ele>
        <time>2012-01-03T11:40:17Z</time>
      </trkpt>
      <trkpt lat="44.36809" lon="3.91554">
        <ele>1300</ele>
        <time>2012-01-03T11:40:18Z</time>
      </trkpt>
      <trkpt lat="44.3681" lon="3.91554">
        <ele>1300</ele>
        <time>2012-01-03T11:40:19Z</time>
      </trkpt>
      <trkpt lat="44.36812" lon="3.91554">
        <ele>1300</ele>
        <time>2012-01-03T11:40:21Z</time>
      </trkpt>
      <trkpt lat="44.36814" lon="3.91554">
        <ele>1300</ele>
        <time>2012-01-03T11:40:21Z</time>
      </trkpt>
      <trkpt lat="44.36817" lon="3.91554">
        <ele>1300</ele>
        <time>2012-01-03T11:40:22Z</time>
      </trkpt>
      <trkpt lat="44.36819" lon="3.91554">
        <ele>1300</ele>
        <time>2012-01-03T11:40:23Z</time>
      </trkpt>
      <trkpt lat="44.36822" lon="3.91554">
        <ele>1300</ele>
        <time>2012-01-03T11:40:24Z</time>
      </trkpt>
      <trkpt lat="44.36824" lon="3.91554">
        <ele>1300</ele>
        <time>2012-01-03T11:40:25Z</time>
      </trkpt>
      <trkpt lat="44.36826" lon="3.91553">
        <ele>1300</ele>
        <time>2012-01-03T11:40:26Z</time>
      </trkpt>
      <trkpt lat="44.36829" lon="3.91553">
        <ele>1301</ele>
        <time>2012-01-03T11:40:27Z</time>
      </trkpt>
      <trkpt lat="44.36831" lon="3.91553">
        <ele>1301</ele>
        <time>2012-01-03T11:40:28Z</time>
      </trkpt>
      <trkpt lat="44.36833" lon="3.91553">
        <ele>1302</ele>
        <time>2012-01-03T11:40:29Z</time>
      </trkpt>
      <trkpt lat="44.36836" lon="3.91553">
        <ele>1302</ele>
        <time>2012-01-03T11:40:30Z</time>
      </trkpt>
      <trkpt lat="44.36837" lon="3.91553">
        <ele>1303</ele>
        <time>2012-01-03T11:40:31Z</time>
      </trkpt>
      <trkpt lat="44.36839" lon="3.91552">
        <ele>1303</ele>
        <time>2012-01-03T11:40:32Z</time>
      </trkpt>
      <trkpt lat="44.3684" lon="3.91553">
        <ele>1303</ele>
        <time>2012-01-03T11:40:35Z</time>
      </trkpt>
      <trkpt lat="44.36842" lon="3.91553">
        <ele>1304</ele>
        <time>2012-01-03T11:40:35Z</time>
      </trkpt>
      <trkpt lat="44.36843" lon="3.91553">
        <ele>1304</ele>
        <time>2012-01-03T11:40:36Z</time>
      </trkpt>
      <trkpt lat="44.36845" lon="3.91553">
        <ele>1304</ele>
        <time>2012-01-03T11:40:37Z</time>
      </trkpt>
      <trkpt lat="44.36847" lon="3.91553">
        <ele>1304</ele>
        <time>2012-01-03T11:40:38Z</time>
      </trkpt>
      <trkpt lat="44.36849" lon="3.91553">
        <ele>1304</ele>
        <time>2012-01-03T11:40:39Z</time>
      </trkpt>
      <trkpt lat="44.3685" lon="3.91552">
        <ele>1304</ele>
        <time>2012-01-03T11:40:40Z</time>
      </trkpt>
      <trkpt lat="44.36852" lon="3.91552">
        <ele>1304</ele>
        <time>2012-01-03T11:40:41Z</time>
      </trkpt>
      <trkpt lat="44.36854" lon="3.91552">
        <ele>1304</ele>
        <time>2012-01-03T11:40:42Z</time>
      </trkpt>
      <trkpt lat="44.36856" lon="3.91552">
        <ele>1304</ele>
        <time>2012-01-03T11:40:43Z</time>
      </trkpt>
      <trkpt lat="44.36858" lon="3.91552">
        <ele>1304</ele>
        <time>2012-01-03T11:40:44Z</time>
      </trkpt>
      <trkpt lat="44.36861" lon="3.91551">
        <ele>1305</ele>
        <time>2012-01-03T11:40:45Z</time>
      </trkpt>
      <trkpt lat="44.36863" lon="3.91551">
        <ele>1305</ele>
        <time>2012-01-03T11:40:46Z</time>
      </trkpt>
      <trkpt lat="44.36864" lon="3.91551">
        <ele>1305</ele>
        <time>2012-01-03T11:40:47Z</time>
      </trkpt>
      <trkpt lat="44.36866" lon="3.91551">
        <ele>1305</ele>
        <time>2012-01-03T11:40:48Z</time>
      </trkpt>
      <trkpt lat="44.36868" lon="3.9155">
        <ele>1305</ele>
        <time>2012-01-03T11:40:49Z</time>
      </trkpt>
      <trkpt lat="44.3687" lon="3.9155">
        <ele>1305</ele>
        <time>2012-01-03T11:40:50Z</time>
      </trkpt>
      <trkpt lat="44.36872" lon="3.9155">
        <ele>1305</ele>
        <time>2012-01-03T11:40:51Z</time>
      </trkpt>
      <trkpt lat="44.36874" lon="3.91549">
        <ele>1305</ele>
        <time>2012-01-03T11:40:52Z</time>
      </trkpt>
      <trkpt lat="44.36876" lon="3.91549">
        <ele>1305</ele>
        <time>2012-01-03T11:40:53Z</time>
      </trkpt>
      <trkpt lat="44.36878" lon="3.9155">
        <ele>1305</ele>
        <time>2012-01-03T11:40:54Z</time>
      </trkpt>
      <trkpt lat="44.3688" lon="3.91549">
        <ele>1305</ele>
        <time>2012-01-03T11:40:55Z</time>
      </trkpt>
      <trkpt lat="44.36882" lon="3.91549">
        <ele>1305</ele>
        <time>2012-01-03T11:40:56Z</time>
      </trkpt>
      <trkpt lat="44.36884" lon="3.91549">
        <ele>1305</ele>
        <time>2012-01-03T11:40:57Z</time>
      </trkpt>
      <trkpt lat="44.36886" lon="3.91548">
        <ele>1305</ele>
        <time>2012-01-03T11:40:58Z</time>
      </trkpt>
      <trkpt lat="44.36888" lon="3.91548">
        <ele>1305</ele>
        <time>2012-01-03T11:40:59Z</time>
      </trkpt>
      <trkpt lat="44.3689" lon="3.91547">
        <ele>1305</ele>
        <time>2012-01-03T11:41:00Z</time>
      </trkpt>
      <trkpt lat="44.36892" lon="3.91546">
        <ele>1305</ele>
        <time>2012-01-03T11:41:01Z</time>
      </trkpt>
      <trkpt lat="44.36894" lon="3.91545">
        <ele>1305</ele>
        <time>2012-01-03T11:41:02Z</time>
      </trkpt>
      <trkpt lat="44.36896" lon="3.91545">
        <ele>1305</ele>
        <time>2012-01-03T11:41:03Z</time>
      </trkpt>
      <trkpt lat="44.36899" lon="3.91545">
        <ele>1305</ele>
        <time>2012-01-03T11:41:04Z</time>
      </trkpt>
      <trkpt lat="44.36901" lon="3.91544">
        <ele>1305</ele>
        <time>2012-01-03T11:41:05Z</time>
      </trkpt>
      <trkpt lat="44.36903" lon="3.91544">
        <ele>1306</ele>
        <time>2012-01-03T11:41:06Z</time>
      </trkpt>
      <trkpt lat="44.36905" lon="3.91543">
        <ele>1307</ele>
        <time>2012-01-03T11:41:08Z</time>
      </trkpt>
      <trkpt lat="44.36907" lon="3.91542">
        <ele>1308</ele>
        <time>2012-01-03T11:41:08Z</time>
      </trkpt>
      <trkpt lat="44.36909" lon="3.91541">
        <ele>1309</ele>
        <time>2012-01-03T11:41:09Z</time>
      </trkpt>
      <trkpt lat="44.36911" lon="3.9154">
        <ele>1310</ele>
        <time>2012-01-03T11:41:10Z</time>
      </trkpt>
      <trkpt lat="44.36913" lon="3.91539">
        <ele>1310</ele>
        <time>2012-01-03T11:41:11Z</time>
      </trkpt>
      <trkpt lat="44.36916" lon="3.91538">
        <ele>1311</ele>
        <time>2012-01-03T11:41:12Z</time>
      </trkpt>
      <trkpt lat="44.36917" lon="3.91537">
        <ele>1311</ele>
        <time>2012-01-03T11:41:13Z</time>
      </trkpt>
      <trkpt lat="44.36919" lon="3.91536">
        <ele>1312</ele>
        <time>2012-01-03T11:41:14Z</time>
      </trkpt>
      <trkpt lat="44.36921" lon="3.91535">
        <ele>1312</ele>
        <time>2012-01-03T11:41:15Z</time>
      </trkpt>
      <trkpt lat="44.36923" lon="3.91533">
        <ele>1312</ele>
        <time>2012-01-03T11:41:16Z</time>
      </trkpt>
      <trkpt lat="44.36925" lon="3.91532">
        <ele>1313</ele>
        <time>2012-01-03T11:41:18Z</time>
      </trkpt>
      <trkpt lat="44.36927" lon="3.91531">
        <ele>1313</ele>
        <time>2012-01-03T11:41:18Z</time>
      </trkpt>
      <trkpt lat="44.3693" lon="3.91529">
        <ele>1314</ele>
        <time>2012-01-03T11:41:20Z</time>
      </trkpt>
      <trkpt lat="44.36932" lon="3.9153">
        <ele>1314</ele>
        <time>2012-01-03T11:41:21Z</time>
      </trkpt>
      <trkpt lat="44.36933" lon="3.9153">
        <ele>1314</ele>
        <time>2012-01-03T11:41:22Z</time>
      </trkpt>
      <trkpt lat="44.36935" lon="3.9153">
        <ele>1315</ele>
        <time>2012-01-03T11:41:23Z</time>
      </trkpt>
      <trkpt lat="44.36936" lon="3.91529">
        <ele>1315</ele>
        <time>2012-01-03T11:41:24Z</time>
      </trkpt>
      <trkpt lat="44.36937" lon="3.91528">
        <ele>1315</ele>
        <time>2012-01-03T11:41:25Z</time>
      </trkpt>
      <trkpt lat="44.36939" lon="3.91528">
        <ele>1315</ele>
        <time>2012-01-03T11:41:26Z</time>
      </trkpt>
      <trkpt lat="44.36941" lon="3.91527">
        <ele>1315</ele>
        <time>2012-01-03T11:41:27Z</time>
      </trkpt>
      <trkpt lat="44.36942" lon="3.91526">
        <ele>1315</ele>
        <time>2012-01-03T11:41:28Z</time>
      </trkpt>
      <trkpt lat="44.36943" lon="3.91524">
        <ele>1315</ele>
        <time>2012-01-03T11:41:29Z</time>
      </trkpt>
      <trkpt lat="44.36945" lon="3.91523">
        <ele>1315</ele>
        <time>2012-01-03T11:41:30Z</time>
      </trkpt>
      <trkpt lat="44.36947" lon="3.91522">
        <ele>1315</ele>
        <time>2012-01-03T11:41:31Z</time>
      </trkpt>
      <trkpt lat="44.36948" lon="3.91521">
        <ele>1316</ele>
        <time>2012-01-03T11:41:32Z</time>
      </trkpt>
      <trkpt lat="44.3695" lon="3.9152">
        <ele>1316</ele>
        <time>2012-01-03T11:41:33Z</time>
      </trkpt>
      <trkpt lat="44.36951" lon="3.91518">
        <ele>1316</ele>
        <time>2012-01-03T11:41:34Z</time>
      </trkpt>
      <trkpt lat="44.36954" lon="3.91517">
        <ele>1316</ele>
        <time>2012-01-03T11:41:35Z</time>
      </trkpt>
      <trkpt lat="44.36956" lon="3.91517">
        <ele>1316</ele>
        <time>2012-01-03T11:41:36Z</time>
      </trkpt>
      <trkpt lat="44.36958" lon="3.91516">
        <ele>1317</ele>
        <time>2012-01-03T11:41:37Z</time>
      </trkpt>
      <trkpt lat="44.36959" lon="3.91516">
        <ele>1317</ele>
        <time>2012-01-03T11:41:38Z</time>
      </trkpt>
      <trkpt lat="44.36961" lon="3.91515">
        <ele>1317</ele>
        <time>2012-01-03T11:41:39Z</time>
      </trkpt>
      <trkpt lat="44.36963" lon="3.91515">
        <ele>1318</ele>
        <time>2012-01-03T11:41:40Z</time>
      </trkpt>
      <trkpt lat="44.36965" lon="3.91515">
        <ele>1319</ele>
        <time>2012-01-03T11:41:41Z</time>
      </trkpt>
      <trkpt lat="44.36966" lon="3.91515">
        <ele>1320</ele>
        <time>2012-01-03T11:41:42Z</time>
      </trkpt>
      <trkpt lat="44.36968" lon="3.91514">
        <ele>1321</ele>
        <time>2012-01-03T11:41:43Z</time>
      </trkpt>
      <trkpt lat="44.3697" lon="3.91514">
        <ele>1322</ele>
        <time>2012-01-03T11:41:44Z</time>
      </trkpt>
      <trkpt lat="44.36972" lon="3.91513">
        <ele>1323</ele>
        <time>2012-01-03T11:41:45Z</time>
      </trkpt>
      <trkpt lat="44.36973" lon="3.91512">
        <ele>1323</ele>
        <time>2012-01-03T11:41:46Z</time>
      </trkpt>
      <trkpt lat="44.36975" lon="3.91512">
        <ele>1324</ele>
        <time>2012-01-03T11:41:47Z</time>
      </trkpt>
      <trkpt lat="44.36977" lon="3.91512">
        <ele>1324</ele>
        <time>2012-01-03T11:41:48Z</time>
      </trkpt>
      <trkpt lat="44.36979" lon="3.91511">
        <ele>1324</ele>
        <time>2012-01-03T11:41:49Z</time>
      </trkpt>
      <trkpt lat="44.36981" lon="3.9151">
        <ele>1324</ele>
        <time>2012-01-03T11:41:50Z</time>
      </trkpt>
      <trkpt lat="44.36983" lon="3.91509">
        <ele>1325</ele>
        <time>2012-01-03T11:41:51Z</time>
      </trkpt>
      <trkpt lat="44.36985" lon="3.91508">
        <ele>1325</ele>
        <time>2012-01-03T11:41:52Z</time>
      </trkpt>
      <trkpt lat="44.36987" lon="3.91508">
        <ele>1325</ele>
        <time>2012-01-03T11:41:53Z</time>
      </trkpt>
      <trkpt lat="44.36989" lon="3.91507">
        <ele>1326</ele>
        <time>2012-01-03T11:41:54Z</time>
      </trkpt>
      <trkpt lat="44.36991" lon="3.91506">
        <ele>1326</ele>
        <time>2012-01-03T11:41:55Z</time>
      </trkpt>
      <trkpt lat="44.36992" lon="3.91504">
        <ele>1326</ele>
        <time>2012-01-03T11:41:56Z</time>
      </trkpt>
      <trkpt lat="44.36995" lon="3.91503">
        <ele>1327</ele>
        <time>2012-01-03T11:41:57Z</time>
      </trkpt>
      <trkpt lat="44.36996" lon="3.91502">
        <ele>1327</ele>
        <time>2012-01-03T11:41:58Z</time>
      </trkpt>
      <trkpt lat="44.36998" lon="3.91501">
        <ele>1327</ele>
        <time>2012-01-03T11:41:59Z</time>
      </trkpt>
      <trkpt lat="44.37" lon="3.915">
        <ele>1327</ele>
        <time>2012-01-03T11:42:00Z</time>
      </trkpt>
      <trkpt lat="44.37002" lon="3.91499">
        <ele>1327</ele>
        <time>2012-01-03T11:42:01Z</time>
      </trkpt>
      <trkpt lat="44.37004" lon="3.91498">
        <ele>1327</ele>
        <time>2012-01-03T11:42:02Z</time>
      </trkpt>
      <trkpt lat="44.37006" lon="3.91496">
        <ele>1328</ele>
        <time>2012-01-03T11:42:03Z</time>
      </trkpt>
      <trkpt lat="44.37007" lon="3.91496">
        <ele>1328</ele>
        <time>2012-01-03T11:42:04Z</time>
      </trkpt>
      <trkpt lat="44.37009" lon="3.91495">
        <ele>1328</ele>
        <time>2012-01-03T11:42:05Z</time>
      </trkpt>
      <trkpt lat="44.37013" lon="3.91493">
        <ele>1328</ele>
        <time>2012-01-03T11:42:10Z</time>
      </trkpt>
      <trkpt lat="44.37019" lon="3.91491">
        <ele>1328</ele>
        <time>2012-01-03T11:42:10Z</time>
      </trkpt>
      <trkpt lat="44.37022" lon="3.91491">
        <ele>1329</ele>
        <time>2012-01-03T11:42:11Z</time>
      </trkpt>
      <trkpt lat="44.37032" lon="3.91486">
        <ele>1329</ele>
        <time>2012-01-03T11:42:16Z</time>
      </trkpt>
      <trkpt lat="44.37034" lon="3.91484">
        <ele>1330</ele>
        <time>2012-01-03T11:42:17Z</time>
      </trkpt>
      <trkpt lat="44.37035" lon="3.91483">
        <ele>1330</ele>
        <time>2012-01-03T11:42:18Z</time>
      </trkpt>
      <trkpt lat="44.3704" lon="3.91481">
        <ele>1330</ele>
        <time>2012-01-03T11:42:23Z</time>
      </trkpt>
      <trkpt lat="44.37047" lon="3.91478">
        <ele>1330</ele>
        <time>2012-01-03T11:42:23Z</time>
      </trkpt>
      <trkpt lat="44.37049" lon="3.91476">
        <ele>1330</ele>
        <time>2012-01-03T11:42:24Z</time>
      </trkpt>
      <trkpt lat="44.37059" lon="3.91469">
        <ele>1330</ele>
        <time>2012-01-03T11:42:29Z</time>
      </trkpt>
      <trkpt lat="44.37061" lon="3.91468">
        <ele>1330</ele>
        <time>2012-01-03T11:42:30Z</time>
      </trkpt>
      <trkpt lat="44.37063" lon="3.91467">
        <ele>1330</ele>
        <time>2012-01-03T11:42:36Z</time>
      </trkpt>
      <trkpt lat="44.37067" lon="3.91463">
        <ele>1330</ele>
        <time>2012-01-03T11:42:36Z</time>
      </trkpt>
      <trkpt lat="44.37069" lon="3.91462">
        <ele>1330</ele>
        <time>2012-01-03T11:42:37Z</time>
      </trkpt>
      <trkpt lat="44.37072" lon="3.91458">
        <ele>1330</ele>
        <time>2012-01-03T11:42:42Z</time>
      </trkpt>
      <trkpt lat="44.37077" lon="3.91454">
        <ele>1330</ele>
        <time>2012-01-03T11:42:42Z</time>
      </trkpt>
      <trkpt lat="44.37079" lon="3.91454">
        <ele>1330</ele>
        <time>2012-01-03T11:42:43Z</time>
      </trkpt>
      <trkpt lat="44.37087" lon="3.91449">
        <ele>1330</ele>
        <time>2012-01-03T11:42:48Z</time>
      </trkpt>
      <trkpt lat="44.3709" lon="3.91448">
        <ele>1330</ele>
        <time>2012-01-03T11:42:49Z</time>
      </trkpt>
      <trkpt lat="44.37094" lon="3.91446">
        <ele>1330</ele>
        <time>2012-01-03T11:42:55Z</time>
      </trkpt>
      <trkpt lat="44.37103" lon="3.91441">
        <ele>1330</ele>
        <time>2012-01-03T11:42:55Z</time>
      </trkpt>
      <trkpt lat="44.37106" lon="3.9144">
        <ele>1330</ele>
        <time>2012-01-03T11:42:56Z</time>
      </trkpt>
      <trkpt lat="44.3711" lon="3.91437">
        <ele>1330</ele>
        <time>2012-01-03T11:43:01Z</time>
      </trkpt>
      <trkpt lat="44.37115" lon="3.91436">
        <ele>1330</ele>
        <time>2012-01-03T11:43:01Z</time>
      </trkpt>
      <trkpt lat="44.37117" lon="3.91435">
        <ele>1331</ele>
        <time>2012-01-03T11:43:04Z</time>
      </trkpt>
      <trkpt lat="44.37118" lon="3.91434">
        <ele>1331</ele>
        <time>2012-01-03T11:43:05Z</time>
      </trkpt>
      <trkpt lat="44.37128" lon="3.91431">
        <ele>1332</ele>
        <time>2012-01-03T11:43:09Z</time>
      </trkpt>
      <trkpt lat="44.3713" lon="3.9143">
        <ele>1333</ele>
        <time>2012-01-03T11:43:10Z</time>
      </trkpt>
      <trkpt lat="44.37132" lon="3.9143">
        <ele>1333</ele>
        <time>2012-01-03T11:43:11Z</time>
      </trkpt>
      <trkpt lat="44.37136" lon="3.91428">
        <ele>1334</ele>
        <time>2012-01-03T11:43:16Z</time>
      </trkpt>
      <trkpt lat="44.37143" lon="3.91424">
        <ele>1335</ele>
        <time>2012-01-03T11:43:17Z</time>
      </trkpt>
      <trkpt lat="44.37148" lon="3.91424">
        <ele>1336</ele>
        <time>2012-01-03T11:43:18Z</time>
      </trkpt>
      <trkpt lat="44.37152" lon="3.91424">
        <ele>1336</ele>
        <time>2012-01-03T11:43:23Z</time>
      </trkpt>
      <trkpt lat="44.37159" lon="3.91423">
        <ele>1337</ele>
        <time>2012-01-03T11:43:23Z</time>
      </trkpt>
      <trkpt lat="44.37161" lon="3.91422">
        <ele>1338</ele>
        <time>2012-01-03T11:43:24Z</time>
      </trkpt>
      <trkpt lat="44.37172" lon="3.9142">
        <ele>1338</ele>
        <time>2012-01-03T11:43:29Z</time>
      </trkpt>
      <trkpt lat="44.37174" lon="3.91419">
        <ele>1339</ele>
        <time>2012-01-03T11:43:30Z</time>
      </trkpt>
      <trkpt lat="44.37176" lon="3.91418">
        <ele>1339</ele>
        <time>2012-01-03T11:43:31Z</time>
      </trkpt>
      <trkpt lat="44.3718" lon="3.91417">
        <ele>1339</ele>
        <time>2012-01-03T11:43:36Z</time>
      </trkpt>
      <trkpt lat="44.37185" lon="3.91416">
        <ele>1339</ele>
        <time>2012-01-03T11:43:36Z</time>
      </trkpt>
      <trkpt lat="44.37186" lon="3.91416">
        <ele>1339</ele>
        <time>2012-01-03T11:43:37Z</time>
      </trkpt>
      <trkpt lat="44.37196" lon="3.91413">
        <ele>1339</ele>
        <time>2012-01-03T11:43:42Z</time>
      </trkpt>
      <trkpt lat="44.37198" lon="3.91412">
        <ele>1339</ele>
        <time>2012-01-03T11:43:43Z</time>
      </trkpt>
      <trkpt lat="44.37202" lon="3.9141">
        <ele>1339</ele>
        <time>2012-01-03T11:43:49Z</time>
      </trkpt>
      <trkpt lat="44.3721" lon="3.91407">
        <ele>1339</ele>
        <time>2012-01-03T11:43:49Z</time>
      </trkpt>
      <trkpt lat="44.37212" lon="3.91406">
        <ele>1339</ele>
        <time>2012-01-03T11:43:50Z</time>
      </trkpt>
      <trkpt lat="44.37215" lon="3.91405">
        <ele>1339</ele>
        <time>2012-01-03T11:43:55Z</time>
      </trkpt>
      <trkpt lat="44.37221" lon="3.914">
        <ele>1339</ele>
        <time>2012-01-03T11:43:55Z</time>
      </trkpt>
      <trkpt lat="44.37223" lon="3.91399">
        <ele>1339</ele>
        <time>2012-01-03T11:43:56Z</time>
      </trkpt>
      <trkpt lat="44.37225" lon="3.91397">
        <ele>1339</ele>
        <time>2012-01-03T11:43:57Z</time>
      </trkpt>
      <trkpt lat="44.37228" lon="3.91394">
        <ele>1339</ele>
        <time>2012-01-03T11:44:02Z</time>
      </trkpt>
      <trkpt lat="44.37233" lon="3.91391">
        <ele>1339</ele>
        <time>2012-01-03T11:44:02Z</time>
      </trkpt>
      <trkpt lat="44.37234" lon="3.91391">
        <ele>1339</ele>
        <time>2012-01-03T11:44:04Z</time>
      </trkpt>
      <trkpt lat="44.37237" lon="3.91389">
        <ele>1339</ele>
        <time>2012-01-03T11:44:08Z</time>
      </trkpt>
      <trkpt lat="44.3724" lon="3.91386">
        <ele>1339</ele>
        <time>2012-01-03T11:44:09Z</time>
      </trkpt>
      <trkpt lat="44.37241" lon="3.91386">
        <ele>1339</ele>
        <time>2012-01-03T11:44:12Z</time>
      </trkpt>
      <trkpt lat="44.37238" lon="3.91386">
        <ele>1339</ele>
        <time>2012-01-03T11:44:18Z</time>
      </trkpt>
      <trkpt lat="44.37237" lon="3.9139">
        <ele>1339</ele>
        <time>2012-01-03T11:44:19Z</time>
      </trkpt>
      <trkpt lat="44.37235" lon="3.9139">
        <ele>1340</ele>
        <time>2012-01-03T11:44:26Z</time>
      </trkpt>
      <trkpt lat="44.37234" lon="3.91389">
        <ele>1340</ele>
        <time>2012-01-03T11:44:28Z</time>
      </trkpt>
      <trkpt lat="44.37233" lon="3.91391">
        <ele>1340</ele>
        <time>2012-01-03T11:44:42Z</time>
      </trkpt>
      <trkpt lat="44.37233" lon="3.91393">
        <ele>1340</ele>
        <time>2012-01-03T11:44:43Z</time>
      </trkpt>
      <trkpt lat="44.37233" lon="3.91395">
        <ele>1340</ele>
        <time>2012-01-03T11:44:49Z</time>
      </trkpt>
      <trkpt lat="44.37234" lon="3.91397">
        <ele>1340</ele>
        <time>2012-01-03T11:44:50Z</time>
      </trkpt>
      <trkpt lat="44.37234" lon="3.91394">
        <ele>1343</ele>
        <time>2012-01-03T11:44:58Z</time>
      </trkpt>
      <trkpt lat="44.37237" lon="3.91393">
        <ele>1345</ele>
        <time>2012-01-03T11:45:03Z</time>
      </trkpt>
      <trkpt lat="44.37236" lon="3.91397">
        <ele>1347</ele>
        <time>2012-01-03T11:45:10Z</time>
      </trkpt>
      <trkpt lat="44.37241" lon="3.91395">
        <ele>1349</ele>
        <time>2012-01-03T11:45:16Z</time>
      </trkpt>
      <trkpt lat="44.37241" lon="3.91394">
        <ele>1352</ele>
        <time>2012-01-03T11:45:19Z</time>
      </trkpt>
      <trkpt lat="44.37242" lon="3.9139">
        <ele>1352</ele>
        <time>2012-01-03T11:45:26Z</time>
      </trkpt>
      <trkpt lat="44.37242" lon="3.91387">
        <ele>1352</ele>
        <time>2012-01-03T11:45:34Z</time>
      </trkpt>
      <trkpt lat="44.37248" lon="3.91379">
        <ele>1352</ele>
        <time>2012-01-03T11:45:36Z</time>
      </trkpt>
      <trkpt lat="44.37249" lon="3.91377">
        <ele>1351</ele>
        <time>2012-01-03T11:45:37Z</time>
      </trkpt>
      <trkpt lat="44.37257" lon="3.91365">
        <ele>1350</ele>
        <time>2012-01-03T11:45:42Z</time>
      </trkpt>
      <trkpt lat="44.37258" lon="3.91363">
        <ele>1349</ele>
        <time>2012-01-03T11:45:43Z</time>
      </trkpt>
      <trkpt lat="44.37261" lon="3.91359">
        <ele>1348</ele>
        <time>2012-01-03T11:45:48Z</time>
      </trkpt>
      <trkpt lat="44.37265" lon="3.91353">
        <ele>1347</ele>
        <time>2012-01-03T11:45:48Z</time>
      </trkpt>
      <trkpt lat="44.37266" lon="3.91351">
        <ele>1346</ele>
        <time>2012-01-03T11:45:49Z</time>
      </trkpt>
      <trkpt lat="44.37269" lon="3.91347">
        <ele>1346</ele>
        <time>2012-01-03T11:45:54Z</time>
      </trkpt>
      <trkpt lat="44.37273" lon="3.91335">
        <ele>1346</ele>
        <time>2012-01-03T11:45:55Z</time>
      </trkpt>
      <trkpt lat="44.37274" lon="3.91333">
        <ele>1345</ele>
        <time>2012-01-03T11:45:56Z</time>
      </trkpt>
      <trkpt lat="44.37276" lon="3.91327">
        <ele>1344</ele>
        <time>2012-01-03T11:46:01Z</time>
      </trkpt>
      <trkpt lat="44.37278" lon="3.91319">
        <ele>1343</ele>
        <time>2012-01-03T11:46:01Z</time>
      </trkpt>
      <trkpt lat="44.37279" lon="3.91316">
        <ele>1342</ele>
        <time>2012-01-03T11:46:03Z</time>
      </trkpt>
      <trkpt lat="44.3728" lon="3.9131">
        <ele>1341</ele>
        <time>2012-01-03T11:46:07Z</time>
      </trkpt>
      <trkpt lat="44.37283" lon="3.91298">
        <ele>1340</ele>
        <time>2012-01-03T11:46:08Z</time>
      </trkpt>
      <trkpt lat="44.37283" lon="3.91295">
        <ele>1339</ele>
        <time>2012-01-03T11:46:09Z</time>
      </trkpt>
      <trkpt lat="44.37283" lon="3.91289">
        <ele>1339</ele>
        <time>2012-01-03T11:46:14Z</time>
      </trkpt>
      <trkpt lat="44.37285" lon="3.91279">
        <ele>1339</ele>
        <time>2012-01-03T11:46:14Z</time>
      </trkpt>
      <trkpt lat="44.37285" lon="3.91276">
        <ele>1339</ele>
        <time>2012-01-03T11:46:15Z</time>
      </trkpt>
      <trkpt lat="44.37291" lon="3.91264">
        <ele>1339</ele>
        <time>2012-01-03T11:46:20Z</time>
      </trkpt>
      <trkpt lat="44.37292" lon="3.91261">
        <ele>1339</ele>
        <time>2012-01-03T11:46:21Z</time>
      </trkpt>
      <trkpt lat="44.37293" lon="3.91259">
        <ele>1339</ele>
        <time>2012-01-03T11:46:22Z</time>
      </trkpt>
      <trkpt lat="44.37297" lon="3.91256">
        <ele>1339</ele>
        <time>2012-01-03T11:46:27Z</time>
      </trkpt>
      <trkpt lat="44.37302" lon="3.91252">
        <ele>1340</ele>
        <time>2012-01-03T11:46:28Z</time>
      </trkpt>
      <trkpt lat="44.37304" lon="3.91251">
        <ele>1341</ele>
        <time>2012-01-03T11:46:29Z</time>
      </trkpt>
      <trkpt lat="44.37306" lon="3.9125">
        <ele>1342</ele>
        <time>2012-01-03T11:46:29Z</time>
      </trkpt>
      <trkpt lat="44.37313" lon="3.91249">
        <ele>1343</ele>
        <time>2012-01-03T11:46:34Z</time>
      </trkpt>
      <trkpt lat="44.37315" lon="3.91248">
        <ele>1345</ele>
        <time>2012-01-03T11:46:36Z</time>
      </trkpt>
      <trkpt lat="44.37323" lon="3.91248">
        <ele>1346</ele>
        <time>2012-01-03T11:46:41Z</time>
      </trkpt>
      <trkpt lat="44.37325" lon="3.91249">
        <ele>1347</ele>
        <time>2012-01-03T11:46:42Z</time>
      </trkpt>
      <trkpt lat="44.37326" lon="3.91248">
        <ele>1348</ele>
        <time>2012-01-03T11:46:43Z</time>
      </trkpt>
      <trkpt lat="44.37329" lon="3.91247">
        <ele>1349</ele>
        <time>2012-01-03T11:46:48Z</time>
      </trkpt>
      <trkpt lat="44.37335" lon="3.91247">
        <ele>1350</ele>
        <time>2012-01-03T11:46:48Z</time>
      </trkpt>
      <trkpt lat="44.37337" lon="3.91247">
        <ele>1351</ele>
        <time>2012-01-03T11:46:49Z</time>
      </trkpt>
      <trkpt lat="44.37345" lon="3.91247">
        <ele>1352</ele>
        <time>2012-01-03T11:46:54Z</time>
      </trkpt>
      <trkpt lat="44.37346" lon="3.91248">
        <ele>1352</ele>
        <time>2012-01-03T11:46:56Z</time>
      </trkpt>
      <trkpt lat="44.37348" lon="3.91248">
        <ele>1353</ele>
        <time>2012-01-03T11:46:56Z</time>
      </trkpt>
      <trkpt lat="44.3735" lon="3.91249">
        <ele>1353</ele>
        <time>2012-01-03T11:47:01Z</time>
      </trkpt>
      <trkpt lat="44.37356" lon="3.91251">
        <ele>1354</ele>
        <time>2012-01-03T11:47:02Z</time>
      </trkpt>
      <trkpt lat="44.37358" lon="3.91251">
        <ele>1354</ele>
        <time>2012-01-03T11:47:03Z</time>
      </trkpt>
      <trkpt lat="44.3736" lon="3.91252">
        <ele>1355</ele>
        <time>2012-01-03T11:47:08Z</time>
      </trkpt>
      <trkpt lat="44.37365" lon="3.91252">
        <ele>1355</ele>
        <time>2012-01-03T11:47:08Z</time>
      </trkpt>
      <trkpt lat="44.37366" lon="3.91253">
        <ele>1356</ele>
        <time>2012-01-03T11:47:09Z</time>
      </trkpt>
      <trkpt lat="44.37373" lon="3.91255">
        <ele>1356</ele>
        <time>2012-01-03T11:47:14Z</time>
      </trkpt>
      <trkpt lat="44.37375" lon="3.91256">
        <ele>1356</ele>
        <time>2012-01-03T11:47:15Z</time>
      </trkpt>
      <trkpt lat="44.37376" lon="3.91257">
        <ele>1356</ele>
        <time>2012-01-03T11:47:16Z</time>
      </trkpt>
      <trkpt lat="44.37379" lon="3.91258">
        <ele>1356</ele>
        <time>2012-01-03T11:47:21Z</time>
      </trkpt>
      <trkpt lat="44.37384" lon="3.91259">
        <ele>1356</ele>
        <time>2012-01-03T11:47:21Z</time>
      </trkpt>
      <trkpt lat="44.37386" lon="3.91259">
        <ele>1357</ele>
        <time>2012-01-03T11:47:22Z</time>
      </trkpt>
      <trkpt lat="44.37394" lon="3.91259">
        <ele>1357</ele>
        <time>2012-01-03T11:47:27Z</time>
      </trkpt>
      <trkpt lat="44.37397" lon="3.91259">
        <ele>1357</ele>
        <time>2012-01-03T11:47:28Z</time>
      </trkpt>
      <trkpt lat="44.37399" lon="3.91259">
        <ele>1358</ele>
        <time>2012-01-03T11:47:29Z</time>
      </trkpt>
      <trkpt lat="44.37403" lon="3.9126">
        <ele>1358</ele>
        <time>2012-01-03T11:47:34Z</time>
      </trkpt>
      <trkpt lat="44.37408" lon="3.91259">
        <ele>1358</ele>
        <time>2012-01-03T11:47:34Z</time>
      </trkpt>
      <trkpt lat="44.3741" lon="3.91259">
        <ele>1358</ele>
        <time>2012-01-03T11:47:35Z</time>
      </trkpt>
      <trkpt lat="44.37414" lon="3.91259">
        <ele>1358</ele>
        <time>2012-01-03T11:47:40Z</time>
      </trkpt>
      <trkpt lat="44.37422" lon="3.9126">
        <ele>1359</ele>
        <time>2012-01-03T11:47:41Z</time>
      </trkpt>
      <trkpt lat="44.37424" lon="3.91259">
        <ele>1359</ele>
        <time>2012-01-03T11:47:42Z</time>
      </trkpt>
      <trkpt lat="44.37427" lon="3.91259">
        <ele>1360</ele>
        <time>2012-01-03T11:47:47Z</time>
      </trkpt>
      <trkpt lat="44.37432" lon="3.91259">
        <ele>1360</ele>
        <time>2012-01-03T11:47:47Z</time>
      </trkpt>
      <trkpt lat="44.37434" lon="3.91259">
        <ele>1361</ele>
        <time>2012-01-03T11:47:48Z</time>
      </trkpt>
      <trkpt lat="44.37441" lon="3.91259">
        <ele>1362</ele>
        <time>2012-01-03T11:47:53Z</time>
      </trkpt>
      <trkpt lat="44.37442" lon="3.91259">
        <ele>1362</ele>
        <time>2012-01-03T11:47:54Z</time>
      </trkpt>
      <trkpt lat="44.37444" lon="3.91259">
        <ele>1363</ele>
        <time>2012-01-03T11:47:55Z</time>
      </trkpt>
      <trkpt lat="44.37447" lon="3.91259">
        <ele>1363</ele>
        <time>2012-01-03T11:48:00Z</time>
      </trkpt>
      <trkpt lat="44.37452" lon="3.91258">
        <ele>1363</ele>
        <time>2012-01-03T11:48:00Z</time>
      </trkpt>
      <trkpt lat="44.37453" lon="3.91258">
        <ele>1364</ele>
        <time>2012-01-03T11:48:01Z</time>
      </trkpt>
      <trkpt lat="44.37461" lon="3.91259">
        <ele>1364</ele>
        <time>2012-01-03T11:48:06Z</time>
      </trkpt>
      <trkpt lat="44.37462" lon="3.9126">
        <ele>1364</ele>
        <time>2012-01-03T11:48:07Z</time>
      </trkpt>
      <trkpt lat="44.37464" lon="3.9126">
        <ele>1365</ele>
        <time>2012-01-03T11:48:08Z</time>
      </trkpt>
      <trkpt lat="44.37467" lon="3.9126">
        <ele>1365</ele>
        <time>2012-01-03T11:48:13Z</time>
      </trkpt>
      <trkpt lat="44.37472" lon="3.9126">
        <ele>1366</ele>
        <time>2012-01-03T11:48:13Z</time>
      </trkpt>
      <trkpt lat="44.37474" lon="3.9126">
        <ele>1366</ele>
        <time>2012-01-03T11:48:14Z</time>
      </trkpt>
      <trkpt lat="44.37482" lon="3.9126">
        <ele>1367</ele>
        <time>2012-01-03T11:48:19Z</time>
      </trkpt>
      <trkpt lat="44.37484" lon="3.9126">
        <ele>1367</ele>
        <time>2012-01-03T11:48:20Z</time>
      </trkpt>
      <trkpt lat="44.37485" lon="3.91259">
        <ele>1367</ele>
        <time>2012-01-03T11:48:21Z</time>
      </trkpt>
      <trkpt lat="44.37489" lon="3.91258">
        <ele>1367</ele>
        <time>2012-01-03T11:48:26Z</time>
      </trkpt>
      <trkpt lat="44.37494" lon="3.91256">
        <ele>1367</ele>
        <time>2012-01-03T11:48:26Z</time>
      </trkpt>
      <trkpt lat="44.37495" lon="3.91256">
        <ele>1367</ele>
        <time>2012-01-03T11:48:27Z</time>
      </trkpt>
      <trkpt lat="44.37499" lon="3.91255">
        <ele>1368</ele>
        <time>2012-01-03T11:48:32Z</time>
      </trkpt>
      <trkpt lat="44.37505" lon="3.91252">
        <ele>1368</ele>
        <time>2012-01-03T11:48:33Z</time>
      </trkpt>
      <trkpt lat="44.37507" lon="3.91251">
        <ele>1368</ele>
        <time>2012-01-03T11:48:34Z</time>
      </trkpt>
      <trkpt lat="44.37511" lon="3.9125">
        <ele>1368</ele>
        <time>2012-01-03T11:48:39Z</time>
      </trkpt>
      <trkpt lat="44.37516" lon="3.91247">
        <ele>1369</ele>
        <time>2012-01-03T11:48:39Z</time>
      </trkpt>
      <trkpt lat="44.37517" lon="3.91247">
        <ele>1369</ele>
        <time>2012-01-03T11:48:40Z</time>
      </trkpt>
      <trkpt lat="44.37519" lon="3.91246">
        <ele>1369</ele>
        <time>2012-01-03T11:48:41Z</time>
      </trkpt>
      <trkpt lat="44.37522" lon="3.91244">
        <ele>1370</ele>
        <time>2012-01-03T11:48:47Z</time>
      </trkpt>
      <trkpt lat="44.37527" lon="3.91238">
        <ele>1370</ele>
        <time>2012-01-03T11:48:47Z</time>
      </trkpt>
      <trkpt lat="44.37529" lon="3.91237">
        <ele>1371</ele>
        <time>2012-01-03T11:48:48Z</time>
      </trkpt>
      <trkpt lat="44.3753" lon="3.91236">
        <ele>1371</ele>
        <time>2012-01-03T11:48:49Z</time>
      </trkpt>
      <trkpt lat="44.37532" lon="3.91234">
        <ele>1371</ele>
        <time>2012-01-03T11:48:55Z</time>
      </trkpt>
      <trkpt lat="44.37538" lon="3.91231">
        <ele>1372</ele>
        <time>2012-01-03T11:48:56Z</time>
      </trkpt>
      <trkpt lat="44.37539" lon="3.9123">
        <ele>1372</ele>
        <time>2012-01-03T11:48:56Z</time>
      </trkpt>
      <trkpt lat="44.37547" lon="3.91224">
        <ele>1372</ele>
        <time>2012-01-03T11:49:01Z</time>
      </trkpt>
      <trkpt lat="44.37548" lon="3.91223">
        <ele>1372</ele>
        <time>2012-01-03T11:49:02Z</time>
      </trkpt>
      <trkpt lat="44.37549" lon="3.91222">
        <ele>1373</ele>
        <time>2012-01-03T11:49:03Z</time>
      </trkpt>
      <trkpt lat="44.37556" lon="3.91217">
        <ele>1373</ele>
        <time>2012-01-03T11:49:08Z</time>
      </trkpt>
      <trkpt lat="44.37557" lon="3.91216">
        <ele>1373</ele>
        <time>2012-01-03T11:49:09Z</time>
      </trkpt>
      <trkpt lat="44.3756" lon="3.91214">
        <ele>1374</ele>
        <time>2012-01-03T11:49:15Z</time>
      </trkpt>
      <trkpt lat="44.37566" lon="3.91209">
        <ele>1374</ele>
        <time>2012-01-03T11:49:15Z</time>
      </trkpt>
      <trkpt lat="44.37567" lon="3.91208">
        <ele>1374</ele>
        <time>2012-01-03T11:49:16Z</time>
      </trkpt>
      <trkpt lat="44.3757" lon="3.91206">
        <ele>1374</ele>
        <time>2012-01-03T11:49:21Z</time>
      </trkpt>
      <trkpt lat="44.37574" lon="3.91203">
        <ele>1375</ele>
        <time>2012-01-03T11:49:21Z</time>
      </trkpt>
      <trkpt lat="44.37576" lon="3.91202">
        <ele>1375</ele>
        <time>2012-01-03T11:49:22Z</time>
      </trkpt>
      <trkpt lat="44.37579" lon="3.91199">
        <ele>1375</ele>
        <time>2012-01-03T11:49:27Z</time>
      </trkpt>
      <trkpt lat="44.37585" lon="3.91197">
        <ele>1375</ele>
        <time>2012-01-03T11:49:28Z</time>
      </trkpt>
      <trkpt lat="44.37587" lon="3.91196">
        <ele>1375</ele>
        <time>2012-01-03T11:49:29Z</time>
      </trkpt>
      <trkpt lat="44.37589" lon="3.91194">
        <ele>1375</ele>
        <time>2012-01-03T11:49:34Z</time>
      </trkpt>
      <trkpt lat="44.37594" lon="3.91191">
        <ele>1375</ele>
        <time>2012-01-03T11:49:34Z</time>
      </trkpt>
      <trkpt lat="44.37595" lon="3.91191">
        <ele>1375</ele>
        <time>2012-01-03T11:49:35Z</time>
      </trkpt>
      <trkpt lat="44.37598" lon="3.91188">
        <ele>1375</ele>
        <time>2012-01-03T11:49:42Z</time>
      </trkpt>
      <trkpt lat="44.37597" lon="3.91188">
        <ele>1375</ele>
        <time>2012-01-03T11:49:51Z</time>
      </trkpt>
      <trkpt lat="44.37598" lon="3.91185">
        <ele>1375</ele>
        <time>2012-01-03T11:49:56Z</time>
      </trkpt>
      <trkpt lat="44.376" lon="3.91183">
        <ele>1375</ele>
        <time>2012-01-03T11:49:58Z</time>
      </trkpt>
      <trkpt lat="44.37601" lon="3.91182">
        <ele>1373</ele>
        <time>2012-01-03T11:50:05Z</time>
      </trkpt>
      <trkpt lat="44.37599" lon="3.91183">
        <ele>1372</ele>
        <time>2012-01-03T11:50:11Z</time>
      </trkpt>
      <trkpt lat="44.37598" lon="3.91184">
        <ele>1372</ele>
        <time>2012-01-03T11:50:13Z</time>
      </trkpt>
      <trkpt lat="44.37596" lon="3.91185">
        <ele>1372</ele>
        <time>2012-01-03T11:50:16Z</time>
      </trkpt>
      <trkpt lat="44.37598" lon="3.91184">
        <ele>1375</ele>
        <time>2012-01-03T11:50:28Z</time>
      </trkpt>
      <trkpt lat="44.37599" lon="3.91184">
        <ele>1375</ele>
        <time>2012-01-03T11:50:29Z</time>
      </trkpt>
      <trkpt lat="44.376" lon="3.91184">
        <ele>1375</ele>
        <time>2012-01-03T11:50:30Z</time>
      </trkpt>
      <trkpt lat="44.37602" lon="3.91183">
        <ele>1375</ele>
        <time>2012-01-03T11:50:31Z</time>
      </trkpt>
      <trkpt lat="44.37604" lon="3.91183">
        <ele>1375</ele>
        <time>2012-01-03T11:50:32Z</time>
      </trkpt>
      <trkpt lat="44.37605" lon="3.91182">
        <ele>1375</ele>
        <time>2012-01-03T11:50:33Z</time>
      </trkpt>
      <trkpt lat="44.37607" lon="3.91182">
        <ele>1375</ele>
        <time>2012-01-03T11:50:34Z</time>
      </trkpt>
      <trkpt lat="44.37608" lon="3.91181">
        <ele>1375</ele>
        <time>2012-01-03T11:50:35Z</time>
      </trkpt>
      <trkpt lat="44.37609" lon="3.91179">
        <ele>1375</ele>
        <time>2012-01-03T11:50:36Z</time>
      </trkpt>
      <trkpt lat="44.37611" lon="3.91179">
        <ele>1375</ele>
        <time>2012-01-03T11:50:37Z</time>
      </trkpt>
      <trkpt lat="44.37612" lon="3.91178">
        <ele>1375</ele>
        <time>2012-01-03T11:50:38Z</time>
      </trkpt>
      <trkpt lat="44.37614" lon="3.91178">
        <ele>1375</ele>
        <time>2012-01-03T11:50:39Z</time>
      </trkpt>
      <trkpt lat="44.37615" lon="3.91177">
        <ele>1375</ele>
        <time>2012-01-03T11:50:41Z</time>
      </trkpt>
      <trkpt lat="44.37619" lon="3.91177">
        <ele>1375</ele>
        <time>2012-01-03T11:50:45Z</time>
      </trkpt>
      <trkpt lat="44.37624" lon="3.91176">
        <ele>1376</ele>
        <time>2012-01-03T11:50:46Z</time>
      </trkpt>
      <trkpt lat="44.37626" lon="3.91175">
        <ele>1377</ele>
        <time>2012-01-03T11:50:48Z</time>
      </trkpt>
      <trkpt lat="44.37629" lon="3.91174">
        <ele>1378</ele>
        <time>2012-01-03T11:50:53Z</time>
      </trkpt>
      <trkpt lat="44.37635" lon="3.91173">
        <ele>1379</ele>
        <time>2012-01-03T11:50:53Z</time>
      </trkpt>
      <trkpt lat="44.37637" lon="3.91173">
        <ele>1380</ele>
        <time>2012-01-03T11:50:54Z</time>
      </trkpt>
      <trkpt lat="44.37641" lon="3.91173">
        <ele>1380</ele>
        <time>2012-01-03T11:50:59Z</time>
      </trkpt>
      <trkpt lat="44.37645" lon="3.91173">
        <ele>1380</ele>
        <time>2012-01-03T11:50:59Z</time>
      </trkpt>
      <trkpt lat="44.37647" lon="3.91172">
        <ele>1380</ele>
        <time>2012-01-03T11:51:00Z</time>
      </trkpt>
      <trkpt lat="44.37649" lon="3.91173">
        <ele>1381</ele>
        <time>2012-01-03T11:51:05Z</time>
      </trkpt>
      <trkpt lat="44.37654" lon="3.91171">
        <ele>1381</ele>
        <time>2012-01-03T11:51:06Z</time>
      </trkpt>
      <trkpt lat="44.37656" lon="3.9117">
        <ele>1381</ele>
        <time>2012-01-03T11:51:07Z</time>
      </trkpt>
      <trkpt lat="44.37658" lon="3.9117">
        <ele>1382</ele>
        <time>2012-01-03T11:51:12Z</time>
      </trkpt>
      <trkpt lat="44.37664" lon="3.9117">
        <ele>1383</ele>
        <time>2012-01-03T11:51:12Z</time>
      </trkpt>
      <trkpt lat="44.37665" lon="3.91171">
        <ele>1384</ele>
        <time>2012-01-03T11:51:13Z</time>
      </trkpt>
      <trkpt lat="44.37667" lon="3.9117">
        <ele>1384</ele>
        <time>2012-01-03T11:51:18Z</time>
      </trkpt>
      <trkpt lat="44.37672" lon="3.91169">
        <ele>1385</ele>
        <time>2012-01-03T11:51:19Z</time>
      </trkpt>
      <trkpt lat="44.37673" lon="3.91169">
        <ele>1385</ele>
        <time>2012-01-03T11:51:20Z</time>
      </trkpt>
      <trkpt lat="44.37676" lon="3.9117">
        <ele>1385</ele>
        <time>2012-01-03T11:51:25Z</time>
      </trkpt>
      <trkpt lat="44.3768" lon="3.91171">
        <ele>1385</ele>
        <time>2012-01-03T11:51:25Z</time>
      </trkpt>
      <trkpt lat="44.37682" lon="3.91171">
        <ele>1385</ele>
        <time>2012-01-03T11:51:26Z</time>
      </trkpt>
      <trkpt lat="44.37684" lon="3.91172">
        <ele>1385</ele>
        <time>2012-01-03T11:51:31Z</time>
      </trkpt>
      <trkpt lat="44.37689" lon="3.91174">
        <ele>1385</ele>
        <time>2012-01-03T11:51:32Z</time>
      </trkpt>
      <trkpt lat="44.3769" lon="3.91174">
        <ele>1385</ele>
        <time>2012-01-03T11:51:33Z</time>
      </trkpt>
      <trkpt lat="44.37692" lon="3.91175">
        <ele>1385</ele>
        <time>2012-01-03T11:51:34Z</time>
      </trkpt>
      <trkpt lat="44.37695" lon="3.91177">
        <ele>1385</ele>
        <time>2012-01-03T11:51:39Z</time>
      </trkpt>
      <trkpt lat="44.37698" lon="3.9118">
        <ele>1385</ele>
        <time>2012-01-03T11:51:39Z</time>
      </trkpt>
      <trkpt lat="44.37701" lon="3.91183">
        <ele>1385</ele>
        <time>2012-01-03T11:51:45Z</time>
      </trkpt>
      <trkpt lat="44.37706" lon="3.9119">
        <ele>1385</ele>
        <time>2012-01-03T11:51:46Z</time>
      </trkpt>
      <trkpt lat="44.37707" lon="3.91192">
        <ele>1385</ele>
        <time>2012-01-03T11:51:48Z</time>
      </trkpt>
      <trkpt lat="44.37709" lon="3.91195">
        <ele>1385</ele>
        <time>2012-01-03T11:51:52Z</time>
      </trkpt>
      <trkpt lat="44.37714" lon="3.91201">
        <ele>1385</ele>
        <time>2012-01-03T11:51:53Z</time>
      </trkpt>
      <trkpt lat="44.37716" lon="3.91203">
        <ele>1385</ele>
        <time>2012-01-03T11:51:54Z</time>
      </trkpt>
      <trkpt lat="44.37718" lon="3.91206">
        <ele>1385</ele>
        <time>2012-01-03T11:51:59Z</time>
      </trkpt>
      <trkpt lat="44.37722" lon="3.9121">
        <ele>1385</ele>
        <time>2012-01-03T11:51:59Z</time>
      </trkpt>
      <trkpt lat="44.37724" lon="3.91212">
        <ele>1385</ele>
        <time>2012-01-03T11:52:00Z</time>
      </trkpt>
      <trkpt lat="44.37726" lon="3.91216">
        <ele>1385</ele>
        <time>2012-01-03T11:52:05Z</time>
      </trkpt>
      <trkpt lat="44.37731" lon="3.91223">
        <ele>1385</ele>
        <time>2012-01-03T11:52:06Z</time>
      </trkpt>
      <trkpt lat="44.37732" lon="3.91224">
        <ele>1385</ele>
        <time>2012-01-03T11:52:07Z</time>
      </trkpt>
      <trkpt lat="44.37735" lon="3.91228">
        <ele>1385</ele>
        <time>2012-01-03T11:52:12Z</time>
      </trkpt>
      <trkpt lat="44.37738" lon="3.91233">
        <ele>1385</ele>
        <time>2012-01-03T11:52:12Z</time>
      </trkpt>
      <trkpt lat="44.3774" lon="3.91235">
        <ele>1385</ele>
        <time>2012-01-03T11:52:13Z</time>
      </trkpt>
      <trkpt lat="44.37742" lon="3.91239">
        <ele>1385</ele>
        <time>2012-01-03T11:52:18Z</time>
      </trkpt>
      <trkpt lat="44.37747" lon="3.91247">
        <ele>1385</ele>
        <time>2012-01-03T11:52:19Z</time>
      </trkpt>
      <trkpt lat="44.37748" lon="3.91249">
        <ele>1385</ele>
        <time>2012-01-03T11:52:20Z</time>
      </trkpt>
      <trkpt lat="44.37749" lon="3.91253">
        <ele>1385</ele>
        <time>2012-01-03T11:52:25Z</time>
      </trkpt>
      <trkpt lat="44.37751" lon="3.91257">
        <ele>1385</ele>
        <time>2012-01-03T11:52:25Z</time>
      </trkpt>
      <trkpt lat="44.37753" lon="3.91259">
        <ele>1385</ele>
        <time>2012-01-03T11:52:26Z</time>
      </trkpt>
      <trkpt lat="44.37755" lon="3.91262">
        <ele>1385</ele>
        <time>2012-01-03T11:52:31Z</time>
      </trkpt>
      <trkpt lat="44.37759" lon="3.91268">
        <ele>1385</ele>
        <time>2012-01-03T11:52:32Z</time>
      </trkpt>
      <trkpt lat="44.37761" lon="3.9127">
        <ele>1385</ele>
        <time>2012-01-03T11:52:33Z</time>
      </trkpt>
      <trkpt lat="44.37763" lon="3.91271">
        <ele>1385</ele>
        <time>2012-01-03T11:52:38Z</time>
      </trkpt>
      <trkpt lat="44.37766" lon="3.91277">
        <ele>1385</ele>
        <time>2012-01-03T11:52:38Z</time>
      </trkpt>
      <trkpt lat="44.37769" lon="3.9128">
        <ele>1385</ele>
        <time>2012-01-03T11:52:44Z</time>
      </trkpt>
      <trkpt lat="44.37775" lon="3.91286">
        <ele>1385</ele>
        <time>2012-01-03T11:52:45Z</time>
      </trkpt>
      <trkpt lat="44.37777" lon="3.91287">
        <ele>1385</ele>
        <time>2012-01-03T11:52:46Z</time>
      </trkpt>
      <trkpt lat="44.37779" lon="3.91288">
        <ele>1385</ele>
        <time>2012-01-03T11:52:51Z</time>
      </trkpt>
      <trkpt lat="44.37784" lon="3.91291">
        <ele>1385</ele>
        <time>2012-01-03T11:52:51Z</time>
      </trkpt>
      <trkpt lat="44.37785" lon="3.91291">
        <ele>1385</ele>
        <time>2012-01-03T11:52:52Z</time>
      </trkpt>
      <trkpt lat="44.37787" lon="3.91293">
        <ele>1385</ele>
        <time>2012-01-03T11:52:57Z</time>
      </trkpt>
      <trkpt lat="44.37793" lon="3.91297">
        <ele>1386</ele>
        <time>2012-01-03T11:52:58Z</time>
      </trkpt>
      <trkpt lat="44.37794" lon="3.91298">
        <ele>1387</ele>
        <time>2012-01-03T11:52:59Z</time>
      </trkpt>
      <trkpt lat="44.37797" lon="3.91298">
        <ele>1388</ele>
        <time>2012-01-03T11:53:04Z</time>
      </trkpt>
      <trkpt lat="44.378" lon="3.913">
        <ele>1388</ele>
        <time>2012-01-03T11:53:04Z</time>
      </trkpt>
      <trkpt lat="44.37801" lon="3.913">
        <ele>1389</ele>
        <time>2012-01-03T11:53:05Z</time>
      </trkpt>
      <trkpt lat="44.37802" lon="3.913">
        <ele>1389</ele>
        <time>2012-01-03T11:53:07Z</time>
      </trkpt>
      <trkpt lat="44.37805" lon="3.91299">
        <ele>1389</ele>
        <time>2012-01-03T11:53:11Z</time>
      </trkpt>
      <trkpt lat="44.3781" lon="3.913">
        <ele>1390</ele>
        <time>2012-01-03T11:53:12Z</time>
      </trkpt>
      <trkpt lat="44.37812" lon="3.913">
        <ele>1390</ele>
        <time>2012-01-03T11:53:13Z</time>
      </trkpt>
      <trkpt lat="44.37815" lon="3.913">
        <ele>1391</ele>
        <time>2012-01-03T11:53:18Z</time>
      </trkpt>
      <trkpt lat="44.3782" lon="3.913">
        <ele>1392</ele>
        <time>2012-01-03T11:53:18Z</time>
      </trkpt>
      <trkpt lat="44.37821" lon="3.91301">
        <ele>1393</ele>
        <time>2012-01-03T11:53:19Z</time>
      </trkpt>
      <trkpt lat="44.37825" lon="3.91301">
        <ele>1394</ele>
        <time>2012-01-03T11:53:24Z</time>
      </trkpt>
      <trkpt lat="44.37831" lon="3.913">
        <ele>1394</ele>
        <time>2012-01-03T11:53:25Z</time>
      </trkpt>
      <trkpt lat="44.37833" lon="3.91301">
        <ele>1394</ele>
        <time>2012-01-03T11:53:26Z</time>
      </trkpt>
      <trkpt lat="44.37837" lon="3.91301">
        <ele>1394</ele>
        <time>2012-01-03T11:53:31Z</time>
      </trkpt>
      <trkpt lat="44.37842" lon="3.913">
        <ele>1394</ele>
        <time>2012-01-03T11:53:31Z</time>
      </trkpt>
      <trkpt lat="44.37843" lon="3.91299">
        <ele>1394</ele>
        <time>2012-01-03T11:53:32Z</time>
      </trkpt>
      <trkpt lat="44.37845" lon="3.91299">
        <ele>1394</ele>
        <time>2012-01-03T11:53:33Z</time>
      </trkpt>
      <trkpt lat="44.37849" lon="3.91297">
        <ele>1394</ele>
        <time>2012-01-03T11:53:38Z</time>
      </trkpt>
      <trkpt lat="44.37853" lon="3.91295">
        <ele>1394</ele>
        <time>2012-01-03T11:53:38Z</time>
      </trkpt>
      <trkpt lat="44.37854" lon="3.91294">
        <ele>1394</ele>
        <time>2012-01-03T11:53:39Z</time>
      </trkpt>
      <trkpt lat="44.37856" lon="3.91293">
        <ele>1394</ele>
        <time>2012-01-03T11:53:40Z</time>
      </trkpt>
      <trkpt lat="44.37859" lon="3.9129">
        <ele>1394</ele>
        <time>2012-01-03T11:53:45Z</time>
      </trkpt>
      <trkpt lat="44.37863" lon="3.91285">
        <ele>1394</ele>
        <time>2012-01-03T11:53:45Z</time>
      </trkpt>
      <trkpt lat="44.37864" lon="3.91284">
        <ele>1394</ele>
        <time>2012-01-03T11:53:46Z</time>
      </trkpt>
      <trkpt lat="44.37866" lon="3.91282">
        <ele>1394</ele>
        <time>2012-01-03T11:53:47Z</time>
      </trkpt>
      <trkpt lat="44.37868" lon="3.91279">
        <ele>1394</ele>
        <time>2012-01-03T11:53:52Z</time>
      </trkpt>
      <trkpt lat="44.37871" lon="3.91274">
        <ele>1394</ele>
        <time>2012-01-03T11:53:52Z</time>
      </trkpt>
      <trkpt lat="44.37872" lon="3.91273">
        <ele>1394</ele>
        <time>2012-01-03T11:53:53Z</time>
      </trkpt>
      <trkpt lat="44.37875" lon="3.9127">
        <ele>1394</ele>
        <time>2012-01-03T11:53:58Z</time>
      </trkpt>
      <trkpt lat="44.37878" lon="3.91263">
        <ele>1394</ele>
        <time>2012-01-03T11:53:59Z</time>
      </trkpt>
      <trkpt lat="44.37879" lon="3.91261">
        <ele>1395</ele>
        <time>2012-01-03T11:54:00Z</time>
      </trkpt>
      <trkpt lat="44.37881" lon="3.91257">
        <ele>1395</ele>
        <time>2012-01-03T11:54:05Z</time>
      </trkpt>
      <trkpt lat="44.37883" lon="3.91251">
        <ele>1396</ele>
        <time>2012-01-03T11:54:05Z</time>
      </trkpt>
      <trkpt lat="44.37884" lon="3.91249">
        <ele>1396</ele>
        <time>2012-01-03T11:54:06Z</time>
      </trkpt>
      <trkpt lat="44.37886" lon="3.91246">
        <ele>1396</ele>
        <time>2012-01-03T11:54:12Z</time>
      </trkpt>
      <trkpt lat="44.37893" lon="3.9124">
        <ele>1396</ele>
        <time>2012-01-03T11:54:12Z</time>
      </trkpt>
      <trkpt lat="44.37894" lon="3.91238">
        <ele>1396</ele>
        <time>2012-01-03T11:54:13Z</time>
      </trkpt>
      <trkpt lat="44.37895" lon="3.91237">
        <ele>1397</ele>
        <time>2012-01-03T11:54:14Z</time>
      </trkpt>
      <trkpt lat="44.37898" lon="3.91236">
        <ele>1398</ele>
        <time>2012-01-03T11:54:19Z</time>
      </trkpt>
      <trkpt lat="44.37903" lon="3.91231">
        <ele>1399</ele>
        <time>2012-01-03T11:54:20Z</time>
      </trkpt>
      <trkpt lat="44.37905" lon="3.9123">
        <ele>1400</ele>
        <time>2012-01-03T11:54:21Z</time>
      </trkpt>
      <trkpt lat="44.37908" lon="3.91228">
        <ele>1400</ele>
        <time>2012-01-03T11:54:26Z</time>
      </trkpt>
      <trkpt lat="44.37912" lon="3.91226">
        <ele>1401</ele>
        <time>2012-01-03T11:54:26Z</time>
      </trkpt>
      <trkpt lat="44.37913" lon="3.91226">
        <ele>1405</ele>
        <time>2012-01-03T11:54:35Z</time>
      </trkpt>
      <trkpt lat="44.37914" lon="3.91226">
        <ele>1406</ele>
        <time>2012-01-03T11:54:37Z</time>
      </trkpt>
      <trkpt lat="44.37916" lon="3.91221">
        <ele>1406</ele>
        <time>2012-01-03T11:54:50Z</time>
      </trkpt>
      <trkpt lat="44.37917" lon="3.91213">
        <ele>1406</ele>
        <time>2012-01-03T11:54:56Z</time>
      </trkpt>
      <trkpt lat="44.37918" lon="3.91213">
        <ele>1406</ele>
        <time>2012-01-03T11:54:58Z</time>
      </trkpt>
      <trkpt lat="44.37919" lon="3.91212">
        <ele>1406</ele>
        <time>2012-01-03T11:54:59Z</time>
      </trkpt>
      <trkpt lat="44.37923" lon="3.9121">
        <ele>1406</ele>
        <time>2012-01-03T11:55:06Z</time>
      </trkpt>
      <trkpt lat="44.37927" lon="3.91207">
        <ele>1406</ele>
        <time>2012-01-03T11:55:06Z</time>
      </trkpt>
      <trkpt lat="44.3793" lon="3.91207">
        <ele>1406</ele>
        <time>2012-01-03T11:55:12Z</time>
      </trkpt>
      <trkpt lat="44.37936" lon="3.91205">
        <ele>1406</ele>
        <time>2012-01-03T11:55:13Z</time>
      </trkpt>
      <trkpt lat="44.37938" lon="3.91203">
        <ele>1406</ele>
        <time>2012-01-03T11:55:13Z</time>
      </trkpt>
      <trkpt lat="44.3794" lon="3.91202">
        <ele>1406</ele>
        <time>2012-01-03T11:55:18Z</time>
      </trkpt>
      <trkpt lat="44.37946" lon="3.91198">
        <ele>1406</ele>
        <time>2012-01-03T11:55:19Z</time>
      </trkpt>
      <trkpt lat="44.37947" lon="3.91197">
        <ele>1407</ele>
        <time>2012-01-03T11:55:20Z</time>
      </trkpt>
      <trkpt lat="44.3795" lon="3.91197">
        <ele>1407</ele>
        <time>2012-01-03T11:55:25Z</time>
      </trkpt>
      <trkpt lat="44.37954" lon="3.91196">
        <ele>1407</ele>
        <time>2012-01-03T11:55:25Z</time>
      </trkpt>
      <trkpt lat="44.37956" lon="3.91195">
        <ele>1407</ele>
        <time>2012-01-03T11:55:26Z</time>
      </trkpt>
      <trkpt lat="44.37959" lon="3.91194">
        <ele>1408</ele>
        <time>2012-01-03T11:55:31Z</time>
      </trkpt>
      <trkpt lat="44.37965" lon="3.91191">
        <ele>1408</ele>
        <time>2012-01-03T11:55:32Z</time>
      </trkpt>
      <trkpt lat="44.37967" lon="3.9119">
        <ele>1409</ele>
        <time>2012-01-03T11:55:33Z</time>
      </trkpt>
      <trkpt lat="44.37968" lon="3.91189">
        <ele>1409</ele>
        <time>2012-01-03T11:55:34Z</time>
      </trkpt>
      <trkpt lat="44.3797" lon="3.91188">
        <ele>1410</ele>
        <time>2012-01-03T11:55:35Z</time>
      </trkpt>
      <trkpt lat="44.37973" lon="3.91186">
        <ele>1410</ele>
        <time>2012-01-03T11:55:40Z</time>
      </trkpt>
      <trkpt lat="44.37978" lon="3.91183">
        <ele>1411</ele>
        <time>2012-01-03T11:55:40Z</time>
      </trkpt>
      <trkpt lat="44.3798" lon="3.91182">
        <ele>1411</ele>
        <time>2012-01-03T11:55:41Z</time>
      </trkpt>
      <trkpt lat="44.37983" lon="3.9118">
        <ele>1411</ele>
        <time>2012-01-03T11:55:46Z</time>
      </trkpt>
      <trkpt lat="44.37988" lon="3.91177">
        <ele>1411</ele>
        <time>2012-01-03T11:55:47Z</time>
      </trkpt>
      <trkpt lat="44.37989" lon="3.91176">
        <ele>1411</ele>
        <time>2012-01-03T11:55:48Z</time>
      </trkpt>
      <trkpt lat="44.37992" lon="3.91175">
        <ele>1411</ele>
        <time>2012-01-03T11:55:53Z</time>
      </trkpt>
      <trkpt lat="44.37998" lon="3.91173">
        <ele>1411</ele>
        <time>2012-01-03T11:55:53Z</time>
      </trkpt>
      <trkpt lat="44.38" lon="3.91172">
        <ele>1411</ele>
        <time>2012-01-03T11:55:54Z</time>
      </trkpt>
      <trkpt lat="44.38002" lon="3.91171">
        <ele>1411</ele>
        <time>2012-01-03T11:56:00Z</time>
      </trkpt>
      <trkpt lat="44.38007" lon="3.91169">
        <ele>1411</ele>
        <time>2012-01-03T11:56:00Z</time>
      </trkpt>
      <trkpt lat="44.38015" lon="3.91167">
        <ele>1411</ele>
        <time>2012-01-03T11:56:06Z</time>
      </trkpt>
      <trkpt lat="44.38017" lon="3.91167">
        <ele>1411</ele>
        <time>2012-01-03T11:56:07Z</time>
      </trkpt>
      <trkpt lat="44.3802" lon="3.91167">
        <ele>1411</ele>
        <time>2012-01-03T11:56:13Z</time>
      </trkpt>
      <trkpt lat="44.38026" lon="3.91164">
        <ele>1411</ele>
        <time>2012-01-03T11:56:13Z</time>
      </trkpt>
      <trkpt lat="44.38028" lon="3.91163">
        <ele>1411</ele>
        <time>2012-01-03T11:56:14Z</time>
      </trkpt>
      <trkpt lat="44.38035" lon="3.91161">
        <ele>1411</ele>
        <time>2012-01-03T11:56:19Z</time>
      </trkpt>
      <trkpt lat="44.38037" lon="3.91161">
        <ele>1411</ele>
        <time>2012-01-03T11:56:20Z</time>
      </trkpt>
      <trkpt lat="44.38039" lon="3.91161">
        <ele>1412</ele>
        <time>2012-01-03T11:56:21Z</time>
      </trkpt>
      <trkpt lat="44.38041" lon="3.9116">
        <ele>1413</ele>
        <time>2012-01-03T11:56:26Z</time>
      </trkpt>
      <trkpt lat="44.38046" lon="3.91159">
        <ele>1413</ele>
        <time>2012-01-03T11:56:26Z</time>
      </trkpt>
      <trkpt lat="44.38047" lon="3.91159">
        <ele>1413</ele>
        <time>2012-01-03T11:56:27Z</time>
      </trkpt>
      <trkpt lat="44.3805" lon="3.91159">
        <ele>1413</ele>
        <time>2012-01-03T11:56:33Z</time>
      </trkpt>
      <trkpt lat="44.38056" lon="3.91157">
        <ele>1414</ele>
        <time>2012-01-03T11:56:33Z</time>
      </trkpt>
      <trkpt lat="44.38057" lon="3.91157">
        <ele>1414</ele>
        <time>2012-01-03T11:56:34Z</time>
      </trkpt>
      <trkpt lat="44.3806" lon="3.91156">
        <ele>1415</ele>
        <time>2012-01-03T11:56:39Z</time>
      </trkpt>
      <trkpt lat="44.38066" lon="3.91158">
        <ele>1416</ele>
        <time>2012-01-03T11:56:39Z</time>
      </trkpt>
      <trkpt lat="44.38068" lon="3.91157">
        <ele>1417</ele>
        <time>2012-01-03T11:56:40Z</time>
      </trkpt>
      <trkpt lat="44.38072" lon="3.91156">
        <ele>1418</ele>
        <time>2012-01-03T11:56:46Z</time>
      </trkpt>
      <trkpt lat="44.38078" lon="3.91155">
        <ele>1419</ele>
        <time>2012-01-03T11:56:46Z</time>
      </trkpt>
      <trkpt lat="44.38079" lon="3.91154">
        <ele>1420</ele>
        <time>2012-01-03T11:56:47Z</time>
      </trkpt>
      <trkpt lat="44.3808" lon="3.91153">
        <ele>1421</ele>
        <time>2012-01-03T11:56:48Z</time>
      </trkpt>
      <trkpt lat="44.38084" lon="3.91152">
        <ele>1422</ele>
        <time>2012-01-03T11:56:55Z</time>
      </trkpt>
      <trkpt lat="44.38088" lon="3.9115">
        <ele>1422</ele>
        <time>2012-01-03T11:56:55Z</time>
      </trkpt>
      <trkpt lat="44.38089" lon="3.91149">
        <ele>1422</ele>
        <time>2012-01-03T11:56:56Z</time>
      </trkpt>
      <trkpt lat="44.38092" lon="3.91148">
        <ele>1422</ele>
        <time>2012-01-03T11:57:01Z</time>
      </trkpt>
      <trkpt lat="44.38096" lon="3.91146">
        <ele>1422</ele>
        <time>2012-01-03T11:57:01Z</time>
      </trkpt>
      <trkpt lat="44.38097" lon="3.91144">
        <ele>1422</ele>
        <time>2012-01-03T11:57:02Z</time>
      </trkpt>
      <trkpt lat="44.38099" lon="3.91143">
        <ele>1422</ele>
        <time>2012-01-03T11:57:03Z</time>
      </trkpt>
      <trkpt lat="44.381" lon="3.91143">
        <ele>1422</ele>
        <time>2012-01-03T11:57:04Z</time>
      </trkpt>
      <trkpt lat="44.38103" lon="3.91142">
        <ele>1422</ele>
        <time>2012-01-03T11:57:10Z</time>
      </trkpt>
      <trkpt lat="44.38105" lon="3.9114">
        <ele>1422</ele>
        <time>2012-01-03T11:57:10Z</time>
      </trkpt>
      <trkpt lat="44.38105" lon="3.91142">
        <ele>1422</ele>
        <time>2012-01-03T11:57:18Z</time>
      </trkpt>
      <trkpt lat="44.38106" lon="3.9114">
        <ele>1422</ele>
        <time>2012-01-03T11:57:21Z</time>
      </trkpt>
      <trkpt lat="44.38107" lon="3.91139">
        <ele>1422</ele>
        <time>2012-01-03T11:57:26Z</time>
      </trkpt>
      <trkpt lat="44.38108" lon="3.91138">
        <ele>1422</ele>
        <time>2012-01-03T11:57:35Z</time>
      </trkpt>
      <trkpt lat="44.38109" lon="3.91137">
        <ele>1422</ele>
        <time>2012-01-03T11:57:43Z</time>
      </trkpt>
      <trkpt lat="44.38111" lon="3.91135">
        <ele>1422</ele>
        <time>2012-01-03T11:57:46Z</time>
      </trkpt>
      <trkpt lat="44.38114" lon="3.91134">
        <ele>1422</ele>
        <time>2012-01-03T11:57:47Z</time>
      </trkpt>
      <trkpt lat="44.38115" lon="3.91133">
        <ele>1422</ele>
        <time>2012-01-03T11:57:48Z</time>
      </trkpt>
      <trkpt lat="44.38117" lon="3.91133">
        <ele>1422</ele>
        <time>2012-01-03T11:57:49Z</time>
      </trkpt>
      <trkpt lat="44.38118" lon="3.91132">
        <ele>1422</ele>
        <time>2012-01-03T11:57:50Z</time>
      </trkpt>
      <trkpt lat="44.3812" lon="3.91132">
        <ele>1422</ele>
        <time>2012-01-03T11:57:52Z</time>
      </trkpt>
      <trkpt lat="44.38121" lon="3.91132">
        <ele>1422</ele>
        <time>2012-01-03T11:57:52Z</time>
      </trkpt>
      <trkpt lat="44.38122" lon="3.91131">
        <ele>1422</ele>
        <time>2012-01-03T11:57:53Z</time>
      </trkpt>
      <trkpt lat="44.38123" lon="3.9113">
        <ele>1422</ele>
        <time>2012-01-03T11:57:54Z</time>
      </trkpt>
      <trkpt lat="44.38125" lon="3.9113">
        <ele>1422</ele>
        <time>2012-01-03T11:57:55Z</time>
      </trkpt>
      <trkpt lat="44.38126" lon="3.91129">
        <ele>1422</ele>
        <time>2012-01-03T11:57:56Z</time>
      </trkpt>
      <trkpt lat="44.38128" lon="3.91128">
        <ele>1422</ele>
        <time>2012-01-03T11:57:57Z</time>
      </trkpt>
      <trkpt lat="44.38129" lon="3.91128">
        <ele>1422</ele>
        <time>2012-01-03T11:57:58Z</time>
      </trkpt>
      <trkpt lat="44.38131" lon="3.91127">
        <ele>1422</ele>
        <time>2012-01-03T11:57:59Z</time>
      </trkpt>
      <trkpt lat="44.38132" lon="3.91127">
        <ele>1422</ele>
        <time>2012-01-03T11:58:00Z</time>
      </trkpt>
      <trkpt lat="44.38134" lon="3.91126">
        <ele>1422</ele>
        <time>2012-01-03T11:58:01Z</time>
      </trkpt>
      <trkpt lat="44.38135" lon="3.91125">
        <ele>1422</ele>
        <time>2012-01-03T11:58:02Z</time>
      </trkpt>
      <trkpt lat="44.38136" lon="3.91125">
        <ele>1422</ele>
        <time>2012-01-03T11:58:03Z</time>
      </trkpt>
      <trkpt lat="44.38137" lon="3.91125">
        <ele>1422</ele>
        <time>2012-01-03T11:58:04Z</time>
      </trkpt>
      <trkpt lat="44.38139" lon="3.91125">
        <ele>1422</ele>
        <time>2012-01-03T11:58:06Z</time>
      </trkpt>
      <trkpt lat="44.38141" lon="3.91124">
        <ele>1422</ele>
        <time>2012-01-03T11:58:07Z</time>
      </trkpt>
      <trkpt lat="44.38143" lon="3.91124">
        <ele>1422</ele>
        <time>2012-01-03T11:58:08Z</time>
      </trkpt>
      <trkpt lat="44.38145" lon="3.91123">
        <ele>1422</ele>
        <time>2012-01-03T11:58:09Z</time>
      </trkpt>
      <trkpt lat="44.38146" lon="3.91123">
        <ele>1422</ele>
        <time>2012-01-03T11:58:10Z</time>
      </trkpt>
      <trkpt lat="44.38148" lon="3.91122">
        <ele>1422</ele>
        <time>2012-01-03T11:58:11Z</time>
      </trkpt>
      <trkpt lat="44.3815" lon="3.91121">
        <ele>1422</ele>
        <time>2012-01-03T11:58:12Z</time>
      </trkpt>
      <trkpt lat="44.38151" lon="3.91121">
        <ele>1422</ele>
        <time>2012-01-03T11:58:13Z</time>
      </trkpt>
      <trkpt lat="44.38152" lon="3.91119">
        <ele>1422</ele>
        <time>2012-01-03T11:58:14Z</time>
      </trkpt>
      <trkpt lat="44.38154" lon="3.91118">
        <ele>1422</ele>
        <time>2012-01-03T11:58:15Z</time>
      </trkpt>
      <trkpt lat="44.38155" lon="3.91117">
        <ele>1422</ele>
        <time>2012-01-03T11:58:16Z</time>
      </trkpt>
      <trkpt lat="44.38157" lon="3.91116">
        <ele>1422</ele>
        <time>2012-01-03T11:58:17Z</time>
      </trkpt>
      <trkpt lat="44.38158" lon="3.91115">
        <ele>1422</ele>
        <time>2012-01-03T11:58:18Z</time>
      </trkpt>
      <trkpt lat="44.3816" lon="3.91114">
        <ele>1422</ele>
        <time>2012-01-03T11:58:19Z</time>
      </trkpt>
      <trkpt lat="44.38161" lon="3.91114">
        <ele>1422</ele>
        <time>2012-01-03T11:58:20Z</time>
      </trkpt>
      <trkpt lat="44.38163" lon="3.91112">
        <ele>1422</ele>
        <time>2012-01-03T11:58:21Z</time>
      </trkpt>
      <trkpt lat="44.38165" lon="3.91112">
        <ele>1422</ele>
        <time>2012-01-03T11:58:22Z</time>
      </trkpt>
      <trkpt lat="44.38166" lon="3.91111">
        <ele>1422</ele>
        <time>2012-01-03T11:58:23Z</time>
      </trkpt>
      <trkpt lat="44.38167" lon="3.9111">
        <ele>1422</ele>
        <time>2012-01-03T11:58:24Z</time>
      </trkpt>
      <trkpt lat="44.38169" lon="3.91109">
        <ele>1422</ele>
        <time>2012-01-03T11:58:25Z</time>
      </trkpt>
      <trkpt lat="44.3817" lon="3.91108">
        <ele>1422</ele>
        <time>2012-01-03T11:58:26Z</time>
      </trkpt>
      <trkpt lat="44.38172" lon="3.91109">
        <ele>1422</ele>
        <time>2012-01-03T11:58:27Z</time>
      </trkpt>
      <trkpt lat="44.38173" lon="3.91109">
        <ele>1422</ele>
        <time>2012-01-03T11:58:28Z</time>
      </trkpt>
      <trkpt lat="44.38175" lon="3.91108">
        <ele>1422</ele>
        <time>2012-01-03T11:58:29Z</time>
      </trkpt>
      <trkpt lat="44.38176" lon="3.91108">
        <ele>1422</ele>
        <time>2012-01-03T11:58:30Z</time>
      </trkpt>
      <trkpt lat="44.38178" lon="3.91107">
        <ele>1422</ele>
        <time>2012-01-03T11:58:31Z</time>
      </trkpt>
      <trkpt lat="44.38179" lon="3.91107">
        <ele>1422</ele>
        <time>2012-01-03T11:58:32Z</time>
      </trkpt>
      <trkpt lat="44.38181" lon="3.91106">
        <ele>1422</ele>
        <time>2012-01-03T11:58:33Z</time>
      </trkpt>
      <trkpt lat="44.38183" lon="3.91105">
        <ele>1422</ele>
        <time>2012-01-03T11:58:35Z</time>
      </trkpt>
      <trkpt lat="44.38184" lon="3.91104">
        <ele>1423</ele>
        <time>2012-01-03T11:58:35Z</time>
      </trkpt>
      <trkpt lat="44.38186" lon="3.91103">
        <ele>1423</ele>
        <time>2012-01-03T11:58:37Z</time>
      </trkpt>
      <trkpt lat="44.38189" lon="3.91102">
        <ele>1423</ele>
        <time>2012-01-03T11:58:38Z</time>
      </trkpt>
      <trkpt lat="44.38191" lon="3.91101">
        <ele>1423</ele>
        <time>2012-01-03T11:58:40Z</time>
      </trkpt>
      <trkpt lat="44.38192" lon="3.911">
        <ele>1423</ele>
        <time>2012-01-03T11:58:40Z</time>
      </trkpt>
      <trkpt lat="44.38193" lon="3.911">
        <ele>1423</ele>
        <time>2012-01-03T11:58:46Z</time>
      </trkpt>
      <trkpt lat="44.38194" lon="3.91099">
        <ele>1423</ele>
        <time>2012-01-03T11:58:48Z</time>
      </trkpt>
      <trkpt lat="44.38195" lon="3.91099">
        <ele>1423</ele>
        <time>2012-01-03T11:58:50Z</time>
      </trkpt>
      <trkpt lat="44.38197" lon="3.91098">
        <ele>1423</ele>
        <time>2012-01-03T11:58:52Z</time>
      </trkpt>
      <trkpt lat="44.38202" lon="3.91095">
        <ele>1423</ele>
        <time>2012-01-03T11:58:57Z</time>
      </trkpt>
      <trkpt lat="44.38205" lon="3.91095">
        <ele>1424</ele>
        <time>2012-01-03T11:59:04Z</time>
      </trkpt>
      <trkpt lat="44.38209" lon="3.91093">
        <ele>1424</ele>
        <time>2012-01-03T11:59:04Z</time>
      </trkpt>
      <trkpt lat="44.3821" lon="3.91093">
        <ele>1424</ele>
        <time>2012-01-03T11:59:05Z</time>
      </trkpt>
      <trkpt lat="44.38215" lon="3.91088">
        <ele>1425</ele>
        <time>2012-01-03T11:59:10Z</time>
      </trkpt>
      <trkpt lat="44.38217" lon="3.91086">
        <ele>1425</ele>
        <time>2012-01-03T11:59:12Z</time>
      </trkpt>
      <trkpt lat="44.38219" lon="3.91087">
        <ele>1427</ele>
        <time>2012-01-03T11:59:14Z</time>
      </trkpt>
      <trkpt lat="44.38221" lon="3.91087">
        <ele>1428</ele>
        <time>2012-01-03T11:59:20Z</time>
      </trkpt>
      <trkpt lat="44.38225" lon="3.91087">
        <ele>1429</ele>
        <time>2012-01-03T11:59:21Z</time>
      </trkpt>
      <trkpt lat="44.38226" lon="3.91087">
        <ele>1430</ele>
        <time>2012-01-03T11:59:22Z</time>
      </trkpt>
      <trkpt lat="44.38229" lon="3.91086">
        <ele>1431</ele>
        <time>2012-01-03T11:59:27Z</time>
      </trkpt>
      <trkpt lat="44.38233" lon="3.91083">
        <ele>1432</ele>
        <time>2012-01-03T11:59:27Z</time>
      </trkpt>
      <trkpt lat="44.38234" lon="3.91082">
        <ele>1433</ele>
        <time>2012-01-03T11:59:28Z</time>
      </trkpt>
      <trkpt lat="44.38236" lon="3.9108">
        <ele>1435</ele>
        <time>2012-01-03T11:59:30Z</time>
      </trkpt>
      <trkpt lat="44.38238" lon="3.91077">
        <ele>1436</ele>
        <time>2012-01-03T11:59:35Z</time>
      </trkpt>
      <trkpt lat="44.38241" lon="3.91073">
        <ele>1437</ele>
        <time>2012-01-03T11:59:35Z</time>
      </trkpt>
      <trkpt lat="44.38242" lon="3.91071">
        <ele>1437</ele>
        <time>2012-01-03T11:59:36Z</time>
      </trkpt>
      <trkpt lat="44.38245" lon="3.91068">
        <ele>1437</ele>
        <time>2012-01-03T11:59:42Z</time>
      </trkpt>
      <trkpt lat="44.3825" lon="3.91065">
        <ele>1437</ele>
        <time>2012-01-03T11:59:42Z</time>
      </trkpt>
      <trkpt lat="44.38252" lon="3.91063">
        <ele>1437</ele>
        <time>2012-01-03T11:59:44Z</time>
      </trkpt>
      <trkpt lat="44.38253" lon="3.91061">
        <ele>1437</ele>
        <time>2012-01-03T11:59:45Z</time>
      </trkpt>
      <trkpt lat="44.38256" lon="3.91059">
        <ele>1437</ele>
        <time>2012-01-03T11:59:50Z</time>
      </trkpt>
      <trkpt lat="44.38259" lon="3.91056">
        <ele>1437</ele>
        <time>2012-01-03T11:59:50Z</time>
      </trkpt>
      <trkpt lat="44.3826" lon="3.91054">
        <ele>1437</ele>
        <time>2012-01-03T11:59:51Z</time>
      </trkpt>
      <trkpt lat="44.38262" lon="3.91052">
        <ele>1437</ele>
        <time>2012-01-03T11:59:57Z</time>
      </trkpt>
      <trkpt lat="44.38267" lon="3.91048">
        <ele>1437</ele>
        <time>2012-01-03T11:59:57Z</time>
      </trkpt>
      <trkpt lat="44.38268" lon="3.91047">
        <ele>1437</ele>
        <time>2012-01-03T11:59:58Z</time>
      </trkpt>
      <trkpt lat="44.38273" lon="3.9104">
        <ele>1437</ele>
        <time>2012-01-03T12:00:03Z</time>
      </trkpt>
      <trkpt lat="44.38274" lon="3.91038">
        <ele>1437</ele>
        <time>2012-01-03T12:00:05Z</time>
      </trkpt>
      <trkpt lat="44.38276" lon="3.91037">
        <ele>1437</ele>
        <time>2012-01-03T12:00:10Z</time>
      </trkpt>
      <trkpt lat="44.3828" lon="3.91034">
        <ele>1437</ele>
        <time>2012-01-03T12:00:10Z</time>
      </trkpt>
      <trkpt lat="44.38281" lon="3.91033">
        <ele>1437</ele>
        <time>2012-01-03T12:00:11Z</time>
      </trkpt>
      <trkpt lat="44.38283" lon="3.9103">
        <ele>1437</ele>
        <time>2012-01-03T12:00:17Z</time>
      </trkpt>
      <trkpt lat="44.38287" lon="3.91024">
        <ele>1437</ele>
        <time>2012-01-03T12:00:17Z</time>
      </trkpt>
      <trkpt lat="44.38287" lon="3.91022">
        <ele>1437</ele>
        <time>2012-01-03T12:00:18Z</time>
      </trkpt>
      <trkpt lat="44.38292" lon="3.91015">
        <ele>1437</ele>
        <time>2012-01-03T12:00:23Z</time>
      </trkpt>
      <trkpt lat="44.38294" lon="3.91014">
        <ele>1437</ele>
        <time>2012-01-03T12:00:25Z</time>
      </trkpt>
      <trkpt lat="44.38295" lon="3.91012">
        <ele>1437</ele>
        <time>2012-01-03T12:00:26Z</time>
      </trkpt>
      <trkpt lat="44.38297" lon="3.91008">
        <ele>1437</ele>
        <time>2012-01-03T12:00:32Z</time>
      </trkpt>
      <trkpt lat="44.38302" lon="3.91001">
        <ele>1437</ele>
        <time>2012-01-03T12:00:32Z</time>
      </trkpt>
      <trkpt lat="44.38303" lon="3.90999">
        <ele>1437</ele>
        <time>2012-01-03T12:00:34Z</time>
      </trkpt>
      <trkpt lat="44.38305" lon="3.90996">
        <ele>1437</ele>
        <time>2012-01-03T12:00:39Z</time>
      </trkpt>
      <trkpt lat="44.3831" lon="3.90988">
        <ele>1437</ele>
        <time>2012-01-03T12:00:39Z</time>
      </trkpt>
      <trkpt lat="44.38311" lon="3.90987">
        <ele>1437</ele>
        <time>2012-01-03T12:00:40Z</time>
      </trkpt>
      <trkpt lat="44.38318" lon="3.90979">
        <ele>1437</ele>
        <time>2012-01-03T12:00:45Z</time>
      </trkpt>
      <trkpt lat="44.38319" lon="3.90978">
        <ele>1437</ele>
        <time>2012-01-03T12:00:46Z</time>
      </trkpt>
      <trkpt lat="44.38322" lon="3.90974">
        <ele>1438</ele>
        <time>2012-01-03T12:00:50Z</time>
      </trkpt>
      <trkpt lat="44.38326" lon="3.9097">
        <ele>1439</ele>
        <time>2012-01-03T12:00:54Z</time>
      </trkpt>
      <trkpt lat="44.38331" lon="3.90966">
        <ele>1440</ele>
        <time>2012-01-03T12:00:55Z</time>
      </trkpt>
      <trkpt lat="44.38332" lon="3.90965">
        <ele>1441</ele>
        <time>2012-01-03T12:00:56Z</time>
      </trkpt>
      <trkpt lat="44.38335" lon="3.90964">
        <ele>1442</ele>
        <time>2012-01-03T12:01:01Z</time>
      </trkpt>
      <trkpt lat="44.38339" lon="3.90962">
        <ele>1443</ele>
        <time>2012-01-03T12:01:01Z</time>
      </trkpt>
      <trkpt lat="44.3834" lon="3.90961">
        <ele>1444</ele>
        <time>2012-01-03T12:01:02Z</time>
      </trkpt>
      <trkpt lat="44.38343" lon="3.90959">
        <ele>1445</ele>
        <time>2012-01-03T12:01:08Z</time>
      </trkpt>
      <trkpt lat="44.38348" lon="3.90956">
        <ele>1446</ele>
        <time>2012-01-03T12:01:08Z</time>
      </trkpt>
      <trkpt lat="44.3835" lon="3.90955">
        <ele>1446</ele>
        <time>2012-01-03T12:01:09Z</time>
      </trkpt>
      <trkpt lat="44.38353" lon="3.90954">
        <ele>1447</ele>
        <time>2012-01-03T12:01:14Z</time>
      </trkpt>
      <trkpt lat="44.38358" lon="3.90951">
        <ele>1448</ele>
        <time>2012-01-03T12:01:15Z</time>
      </trkpt>
      <trkpt lat="44.3836" lon="3.90949">
        <ele>1449</ele>
        <time>2012-01-03T12:01:16Z</time>
      </trkpt>
      <trkpt lat="44.38367" lon="3.90942">
        <ele>1450</ele>
        <time>2012-01-03T12:01:21Z</time>
      </trkpt>
      <trkpt lat="44.38369" lon="3.9094">
        <ele>1451</ele>
        <time>2012-01-03T12:01:22Z</time>
      </trkpt>
      <trkpt lat="44.38372" lon="3.90937">
        <ele>1451</ele>
        <time>2012-01-03T12:01:28Z</time>
      </trkpt>
      <trkpt lat="44.3838" lon="3.90932">
        <ele>1451</ele>
        <time>2012-01-03T12:01:28Z</time>
      </trkpt>
      <trkpt lat="44.38381" lon="3.90931">
        <ele>1451</ele>
        <time>2012-01-03T12:01:29Z</time>
      </trkpt>
      <trkpt lat="44.38383" lon="3.90928">
        <ele>1451</ele>
        <time>2012-01-03T12:01:34Z</time>
      </trkpt>
      <trkpt lat="44.38387" lon="3.90923">
        <ele>1451</ele>
        <time>2012-01-03T12:01:35Z</time>
      </trkpt>
      <trkpt lat="44.38388" lon="3.90921">
        <ele>1451</ele>
        <time>2012-01-03T12:01:36Z</time>
      </trkpt>
      <trkpt lat="44.38391" lon="3.90918">
        <ele>1451</ele>
        <time>2012-01-03T12:01:41Z</time>
      </trkpt>
      <trkpt lat="44.38395" lon="3.90915">
        <ele>1451</ele>
        <time>2012-01-03T12:01:41Z</time>
      </trkpt>
      <trkpt lat="44.38397" lon="3.90915">
        <ele>1451</ele>
        <time>2012-01-03T12:01:42Z</time>
      </trkpt>
      <trkpt lat="44.384" lon="3.90912">
        <ele>1451</ele>
        <time>2012-01-03T12:01:48Z</time>
      </trkpt>
      <trkpt lat="44.38406" lon="3.90908">
        <ele>1451</ele>
        <time>2012-01-03T12:01:48Z</time>
      </trkpt>
      <trkpt lat="44.38408" lon="3.90907">
        <ele>1451</ele>
        <time>2012-01-03T12:01:49Z</time>
      </trkpt>
      <trkpt lat="44.38411" lon="3.90905">
        <ele>1451</ele>
        <time>2012-01-03T12:01:54Z</time>
      </trkpt>
      <trkpt lat="44.38417" lon="3.909">
        <ele>1451</ele>
        <time>2012-01-03T12:01:55Z</time>
      </trkpt>
      <trkpt lat="44.38419" lon="3.90899">
        <ele>1451</ele>
        <time>2012-01-03T12:01:56Z</time>
      </trkpt>
      <trkpt lat="44.38422" lon="3.90897">
        <ele>1451</ele>
        <time>2012-01-03T12:02:01Z</time>
      </trkpt>
      <trkpt lat="44.38427" lon="3.90894">
        <ele>1451</ele>
        <time>2012-01-03T12:02:01Z</time>
      </trkpt>
      <trkpt lat="44.38428" lon="3.90893">
        <ele>1451</ele>
        <time>2012-01-03T12:02:02Z</time>
      </trkpt>
      <trkpt lat="44.38431" lon="3.90892">
        <ele>1451</ele>
        <time>2012-01-03T12:02:08Z</time>
      </trkpt>
      <trkpt lat="44.38434" lon="3.90891">
        <ele>1451</ele>
        <time>2012-01-03T12:02:08Z</time>
      </trkpt>
      <trkpt lat="44.38435" lon="3.9089">
        <ele>1451</ele>
        <time>2012-01-03T12:02:09Z</time>
      </trkpt>
      <trkpt lat="44.38438" lon="3.90887">
        <ele>1451</ele>
        <time>2012-01-03T12:02:14Z</time>
      </trkpt>
      <trkpt lat="44.38443" lon="3.90884">
        <ele>1451</ele>
        <time>2012-01-03T12:02:15Z</time>
      </trkpt>
      <trkpt lat="44.38444" lon="3.90883">
        <ele>1451</ele>
        <time>2012-01-03T12:02:16Z</time>
      </trkpt>
      <trkpt lat="44.38447" lon="3.90881">
        <ele>1451</ele>
        <time>2012-01-03T12:02:21Z</time>
      </trkpt>
      <trkpt lat="44.38451" lon="3.90876">
        <ele>1451</ele>
        <time>2012-01-03T12:02:21Z</time>
      </trkpt>
      <trkpt lat="44.38453" lon="3.90875">
        <ele>1451</ele>
        <time>2012-01-03T12:02:23Z</time>
      </trkpt>
      <trkpt lat="44.38454" lon="3.90873">
        <ele>1451</ele>
        <time>2012-01-03T12:02:23Z</time>
      </trkpt>
      <trkpt lat="44.38457" lon="3.90871">
        <ele>1451</ele>
        <time>2012-01-03T12:02:29Z</time>
      </trkpt>
      <trkpt lat="44.38462" lon="3.90867">
        <ele>1451</ele>
        <time>2012-01-03T12:02:29Z</time>
      </trkpt>
      <trkpt lat="44.38464" lon="3.90866">
        <ele>1451</ele>
        <time>2012-01-03T12:02:30Z</time>
      </trkpt>
      <trkpt lat="44.38467" lon="3.90865">
        <ele>1451</ele>
        <time>2012-01-03T12:02:35Z</time>
      </trkpt>
      <trkpt lat="44.38472" lon="3.90862">
        <ele>1451</ele>
        <time>2012-01-03T12:02:36Z</time>
      </trkpt>
      <trkpt lat="44.38474" lon="3.90861">
        <ele>1451</ele>
        <time>2012-01-03T12:02:37Z</time>
      </trkpt>
      <trkpt lat="44.38477" lon="3.90861">
        <ele>1451</ele>
        <time>2012-01-03T12:02:42Z</time>
      </trkpt>
      <trkpt lat="44.38481" lon="3.9086">
        <ele>1452</ele>
        <time>2012-01-03T12:02:42Z</time>
      </trkpt>
      <trkpt lat="44.38483" lon="3.9086">
        <ele>1453</ele>
        <time>2012-01-03T12:02:43Z</time>
      </trkpt>
      <trkpt lat="44.38485" lon="3.90859">
        <ele>1454</ele>
        <time>2012-01-03T12:02:49Z</time>
      </trkpt>
      <trkpt lat="44.38491" lon="3.90857">
        <ele>1455</ele>
        <time>2012-01-03T12:02:49Z</time>
      </trkpt>
      <trkpt lat="44.38492" lon="3.90856">
        <ele>1456</ele>
        <time>2012-01-03T12:02:50Z</time>
      </trkpt>
      <trkpt lat="44.38495" lon="3.90856">
        <ele>1457</ele>
        <time>2012-01-03T12:02:55Z</time>
      </trkpt>
      <trkpt lat="44.38501" lon="3.90852">
        <ele>1458</ele>
        <time>2012-01-03T12:02:56Z</time>
      </trkpt>
      <trkpt lat="44.38503" lon="3.90852">
        <ele>1459</ele>
        <time>2012-01-03T12:02:57Z</time>
      </trkpt>
      <trkpt lat="44.38506" lon="3.90849">
        <ele>1460</ele>
        <time>2012-01-03T12:03:02Z</time>
      </trkpt>
      <trkpt lat="44.38511" lon="3.90848">
        <ele>1461</ele>
        <time>2012-01-03T12:03:02Z</time>
      </trkpt>
      <trkpt lat="44.38513" lon="3.90847">
        <ele>1462</ele>
        <time>2012-01-03T12:03:03Z</time>
      </trkpt>
      <trkpt lat="44.38516" lon="3.90845">
        <ele>1463</ele>
        <time>2012-01-03T12:03:09Z</time>
      </trkpt>
      <trkpt lat="44.38522" lon="3.90841">
        <ele>1464</ele>
        <time>2012-01-03T12:03:09Z</time>
      </trkpt>
      <trkpt lat="44.38523" lon="3.90838">
        <ele>1465</ele>
        <time>2012-01-03T12:03:10Z</time>
      </trkpt>
      <trkpt lat="44.38525" lon="3.90835">
        <ele>1466</ele>
        <time>2012-01-03T12:03:11Z</time>
      </trkpt>
      <trkpt lat="44.38528" lon="3.90832">
        <ele>1466</ele>
        <time>2012-01-03T12:03:16Z</time>
      </trkpt>
      <trkpt lat="44.38532" lon="3.90826">
        <ele>1466</ele>
        <time>2012-01-03T12:03:17Z</time>
      </trkpt>
      <trkpt lat="44.38533" lon="3.90825">
        <ele>1466</ele>
        <time>2012-01-03T12:03:18Z</time>
      </trkpt>
      <trkpt lat="44.3854" lon="3.9082">
        <ele>1466</ele>
        <time>2012-01-03T12:03:23Z</time>
      </trkpt>
      <trkpt lat="44.38541" lon="3.90818">
        <ele>1466</ele>
        <time>2012-01-03T12:03:24Z</time>
      </trkpt>
      <trkpt lat="44.38544" lon="3.90816">
        <ele>1465</ele>
        <time>2012-01-03T12:03:30Z</time>
      </trkpt>
      <trkpt lat="44.38549" lon="3.90809">
        <ele>1464</ele>
        <time>2012-01-03T12:03:30Z</time>
      </trkpt>
      <trkpt lat="44.38551" lon="3.90808">
        <ele>1463</ele>
        <time>2012-01-03T12:03:32Z</time>
      </trkpt>
      <trkpt lat="44.38553" lon="3.90804">
        <ele>1463</ele>
        <time>2012-01-03T12:03:37Z</time>
      </trkpt>
      <trkpt lat="44.38557" lon="3.90795">
        <ele>1462</ele>
        <time>2012-01-03T12:03:37Z</time>
      </trkpt>
      <trkpt lat="44.38559" lon="3.90793">
        <ele>1462</ele>
        <time>2012-01-03T12:03:38Z</time>
      </trkpt>
      <trkpt lat="44.38561" lon="3.90789">
        <ele>1461</ele>
        <time>2012-01-03T12:03:43Z</time>
      </trkpt>
      <trkpt lat="44.38566" lon="3.9078">
        <ele>1460</ele>
        <time>2012-01-03T12:03:44Z</time>
      </trkpt>
      <trkpt lat="44.38567" lon="3.90778">
        <ele>1459</ele>
        <time>2012-01-03T12:03:45Z</time>
      </trkpt>
      <trkpt lat="44.38569" lon="3.90774">
        <ele>1458</ele>
        <time>2012-01-03T12:03:50Z</time>
      </trkpt>
      <trkpt lat="44.38572" lon="3.90768">
        <ele>1457</ele>
        <time>2012-01-03T12:03:50Z</time>
      </trkpt>
      <trkpt lat="44.38573" lon="3.90766">
        <ele>1457</ele>
        <time>2012-01-03T12:03:51Z</time>
      </trkpt>
      <trkpt lat="44.38575" lon="3.90763">
        <ele>1457</ele>
        <time>2012-01-03T12:03:57Z</time>
      </trkpt>
      <trkpt lat="44.38579" lon="3.90754">
        <ele>1457</ele>
        <time>2012-01-03T12:03:57Z</time>
      </trkpt>
      <trkpt lat="44.3858" lon="3.90752">
        <ele>1457</ele>
        <time>2012-01-03T12:03:58Z</time>
      </trkpt>
      <trkpt lat="44.38581" lon="3.90748">
        <ele>1457</ele>
        <time>2012-01-03T12:04:03Z</time>
      </trkpt>
      <trkpt lat="44.38585" lon="3.9074">
        <ele>1457</ele>
        <time>2012-01-03T12:04:04Z</time>
      </trkpt>
      <trkpt lat="44.38586" lon="3.90738">
        <ele>1457</ele>
        <time>2012-01-03T12:04:05Z</time>
      </trkpt>
      <trkpt lat="44.38591" lon="3.90728">
        <ele>1457</ele>
        <time>2012-01-03T12:04:10Z</time>
      </trkpt>
      <trkpt lat="44.38592" lon="3.90726">
        <ele>1457</ele>
        <time>2012-01-03T12:04:11Z</time>
      </trkpt>
      <trkpt lat="44.38593" lon="3.90722">
        <ele>1457</ele>
        <time>2012-01-03T12:04:17Z</time>
      </trkpt>
      <trkpt lat="44.38596" lon="3.90713">
        <ele>1457</ele>
        <time>2012-01-03T12:04:17Z</time>
      </trkpt>
      <trkpt lat="44.38597" lon="3.90711">
        <ele>1457</ele>
        <time>2012-01-03T12:04:18Z</time>
      </trkpt>
      <trkpt lat="44.38598" lon="3.90706">
        <ele>1457</ele>
        <time>2012-01-03T12:04:23Z</time>
      </trkpt>
      <trkpt lat="44.38601" lon="3.90696">
        <ele>1457</ele>
        <time>2012-01-03T12:04:24Z</time>
      </trkpt>
      <trkpt lat="44.38601" lon="3.90693">
        <ele>1457</ele>
        <time>2012-01-03T12:04:25Z</time>
      </trkpt>
      <trkpt lat="44.38604" lon="3.90681">
        <ele>1457</ele>
        <time>2012-01-03T12:04:30Z</time>
      </trkpt>
      <trkpt lat="44.38605" lon="3.90678">
        <ele>1457</ele>
        <time>2012-01-03T12:04:31Z</time>
      </trkpt>
      <trkpt lat="44.38606" lon="3.90672">
        <ele>1457</ele>
        <time>2012-01-03T12:04:37Z</time>
      </trkpt>
      <trkpt lat="44.38607" lon="3.90662">
        <ele>1457</ele>
        <time>2012-01-03T12:04:37Z</time>
      </trkpt>
      <trkpt lat="44.38608" lon="3.9066">
        <ele>1457</ele>
        <time>2012-01-03T12:04:38Z</time>
      </trkpt>
      <trkpt lat="44.38609" lon="3.90655">
        <ele>1457</ele>
        <time>2012-01-03T12:04:43Z</time>
      </trkpt>
      <trkpt lat="44.3861" lon="3.90645">
        <ele>1457</ele>
        <time>2012-01-03T12:04:44Z</time>
      </trkpt>
      <trkpt lat="44.3861" lon="3.90642">
        <ele>1457</ele>
        <time>2012-01-03T12:04:45Z</time>
      </trkpt>
      <trkpt lat="44.38611" lon="3.90629">
        <ele>1457</ele>
        <time>2012-01-03T12:04:50Z</time>
      </trkpt>
      <trkpt lat="44.38611" lon="3.90626">
        <ele>1457</ele>
        <time>2012-01-03T12:04:51Z</time>
      </trkpt>
      <trkpt lat="44.38611" lon="3.9062">
        <ele>1457</ele>
        <time>2012-01-03T12:04:57Z</time>
      </trkpt>
      <trkpt lat="44.38612" lon="3.90609">
        <ele>1457</ele>
        <time>2012-01-03T12:04:57Z</time>
      </trkpt>
      <trkpt lat="44.38612" lon="3.90606">
        <ele>1457</ele>
        <time>2012-01-03T12:04:58Z</time>
      </trkpt>
      <trkpt lat="44.38611" lon="3.906">
        <ele>1457</ele>
        <time>2012-01-03T12:05:04Z</time>
      </trkpt>
      <trkpt lat="44.38609" lon="3.9059">
        <ele>1457</ele>
        <time>2012-01-03T12:05:04Z</time>
      </trkpt>
      <trkpt lat="44.38609" lon="3.90588">
        <ele>1457</ele>
        <time>2012-01-03T12:05:05Z</time>
      </trkpt>
      <trkpt lat="44.38606" lon="3.90576">
        <ele>1457</ele>
        <time>2012-01-03T12:05:10Z</time>
      </trkpt>
      <trkpt lat="44.38606" lon="3.90573">
        <ele>1458</ele>
        <time>2012-01-03T12:05:11Z</time>
      </trkpt>
      <trkpt lat="44.38605" lon="3.9057">
        <ele>1459</ele>
        <time>2012-01-03T12:05:12Z</time>
      </trkpt>
      <trkpt lat="44.38602" lon="3.90557">
        <ele>1460</ele>
        <time>2012-01-03T12:05:17Z</time>
      </trkpt>
      <trkpt lat="44.38602" lon="3.90555">
        <ele>1461</ele>
        <time>2012-01-03T12:05:18Z</time>
      </trkpt>
      <trkpt lat="44.38601" lon="3.90549">
        <ele>1462</ele>
        <time>2012-01-03T12:05:24Z</time>
      </trkpt>
      <trkpt lat="44.38599" lon="3.90538">
        <ele>1463</ele>
        <time>2012-01-03T12:05:24Z</time>
      </trkpt>
      <trkpt lat="44.38598" lon="3.90535">
        <ele>1463</ele>
        <time>2012-01-03T12:05:25Z</time>
      </trkpt>
      <trkpt lat="44.38597" lon="3.90529">
        <ele>1464</ele>
        <time>2012-01-03T12:05:30Z</time>
      </trkpt>
      <trkpt lat="44.38594" lon="3.90518">
        <ele>1464</ele>
        <time>2012-01-03T12:05:31Z</time>
      </trkpt>
      <trkpt lat="44.38592" lon="3.90517">
        <ele>1464</ele>
        <time>2012-01-03T12:05:32Z</time>
      </trkpt>
      <trkpt lat="44.38591" lon="3.90517">
        <ele>1464</ele>
        <time>2012-01-03T12:05:33Z</time>
      </trkpt>
      <trkpt lat="44.38589" lon="3.90517">
        <ele>1465</ele>
        <time>2012-01-03T12:05:40Z</time>
      </trkpt>
      <trkpt lat="44.38589" lon="3.90519">
        <ele>1465</ele>
        <time>2012-01-03T12:05:48Z</time>
      </trkpt>
      <trkpt lat="44.3859" lon="3.90518">
        <ele>1465</ele>
        <time>2012-01-03T12:05:59Z</time>
      </trkpt>
      <trkpt lat="44.38591" lon="3.90517">
        <ele>1465</ele>
        <time>2012-01-03T12:06:24Z</time>
      </trkpt>
      <trkpt lat="44.38593" lon="3.90516">
        <ele>1464</ele>
        <time>2012-01-03T12:06:41Z</time>
      </trkpt>
      <trkpt lat="44.38593" lon="3.90502">
        <ele>1464</ele>
        <time>2012-01-03T12:06:47Z</time>
      </trkpt>
      <trkpt lat="44.38593" lon="3.90499">
        <ele>1464</ele>
        <time>2012-01-03T12:06:48Z</time>
      </trkpt>
      <trkpt lat="44.38593" lon="3.90495">
        <ele>1464</ele>
        <time>2012-01-03T12:06:49Z</time>
      </trkpt>
      <trkpt lat="44.38592" lon="3.90489">
        <ele>1464</ele>
        <time>2012-01-03T12:06:54Z</time>
      </trkpt>
      <trkpt lat="44.3859" lon="3.90475">
        <ele>1464</ele>
        <time>2012-01-03T12:06:55Z</time>
      </trkpt>
      <trkpt lat="44.3859" lon="3.90471">
        <ele>1464</ele>
        <time>2012-01-03T12:06:56Z</time>
      </trkpt>
      <trkpt lat="44.38588" lon="3.90451">
        <ele>1464</ele>
        <time>2012-01-03T12:07:01Z</time>
      </trkpt>
      <trkpt lat="44.38588" lon="3.90446">
        <ele>1464</ele>
        <time>2012-01-03T12:07:02Z</time>
      </trkpt>
      <trkpt lat="44.38587" lon="3.90438">
        <ele>1464</ele>
        <time>2012-01-03T12:07:08Z</time>
      </trkpt>
      <trkpt lat="44.38586" lon="3.90422">
        <ele>1464</ele>
        <time>2012-01-03T12:07:08Z</time>
      </trkpt>
      <trkpt lat="44.38586" lon="3.90419">
        <ele>1464</ele>
        <time>2012-01-03T12:07:09Z</time>
      </trkpt>
      <trkpt lat="44.38585" lon="3.90411">
        <ele>1464</ele>
        <time>2012-01-03T12:07:14Z</time>
      </trkpt>
      <trkpt lat="44.38584" lon="3.90394">
        <ele>1464</ele>
        <time>2012-01-03T12:07:15Z</time>
      </trkpt>
      <trkpt lat="44.38584" lon="3.90389">
        <ele>1464</ele>
        <time>2012-01-03T12:07:16Z</time>
      </trkpt>
      <trkpt lat="44.38584" lon="3.90365">
        <ele>1464</ele>
        <time>2012-01-03T12:07:21Z</time>
      </trkpt>
      <trkpt lat="44.38584" lon="3.9036">
        <ele>1464</ele>
        <time>2012-01-03T12:07:22Z</time>
      </trkpt>
      <trkpt lat="44.38584" lon="3.90355">
        <ele>1464</ele>
        <time>2012-01-03T12:07:23Z</time>
      </trkpt>
      <trkpt lat="44.38583" lon="3.90329">
        <ele>1464</ele>
        <time>2012-01-03T12:07:28Z</time>
      </trkpt>
      <trkpt lat="44.38583" lon="3.90323">
        <ele>1464</ele>
        <time>2012-01-03T12:07:29Z</time>
      </trkpt>
      <trkpt lat="44.38583" lon="3.90313">
        <ele>1464</ele>
        <time>2012-01-03T12:07:35Z</time>
      </trkpt>
      <trkpt lat="44.38583" lon="3.90297">
        <ele>1464</ele>
        <time>2012-01-03T12:07:35Z</time>
      </trkpt>
      <trkpt lat="44.38583" lon="3.90292">
        <ele>1464</ele>
        <time>2012-01-03T12:07:36Z</time>
      </trkpt>
      <trkpt lat="44.38583" lon="3.90282">
        <ele>1464</ele>
        <time>2012-01-03T12:07:41Z</time>
      </trkpt>
      <trkpt lat="44.38582" lon="3.90261">
        <ele>1464</ele>
        <time>2012-01-03T12:07:42Z</time>
      </trkpt>
      <trkpt lat="44.38582" lon="3.90256">
        <ele>1464</ele>
        <time>2012-01-03T12:07:43Z</time>
      </trkpt>
      <trkpt lat="44.38582" lon="3.90246">
        <ele>1464</ele>
        <time>2012-01-03T12:07:48Z</time>
      </trkpt>
      <trkpt lat="44.38582" lon="3.90227">
        <ele>1464</ele>
        <time>2012-01-03T12:07:49Z</time>
      </trkpt>
      <trkpt lat="44.38582" lon="3.90223">
        <ele>1465</ele>
        <time>2012-01-03T12:07:50Z</time>
      </trkpt>
      <trkpt lat="44.38577" lon="3.90212">
        <ele>1465</ele>
        <time>2012-01-03T12:07:55Z</time>
      </trkpt>
      <trkpt lat="44.38577" lon="3.90211">
        <ele>1465</ele>
        <time>2012-01-03T12:07:56Z</time>
      </trkpt>
      <trkpt lat="44.38576" lon="3.90209">
        <ele>1465</ele>
        <time>2012-01-03T12:07:57Z</time>
      </trkpt>
      <trkpt lat="44.38576" lon="3.90206">
        <ele>1465</ele>
        <time>2012-01-03T12:08:02Z</time>
      </trkpt>
      <trkpt lat="44.38575" lon="3.90205">
        <ele>1466</ele>
        <time>2012-01-03T12:08:04Z</time>
      </trkpt>
      <trkpt lat="44.38577" lon="3.90206">
        <ele>1466</ele>
        <time>2012-01-03T12:08:14Z</time>
      </trkpt>
      <trkpt lat="44.38577" lon="3.90207">
        <ele>1467</ele>
        <time>2012-01-03T12:08:21Z</time>
      </trkpt>
      <trkpt lat="44.38578" lon="3.90209">
        <ele>1467</ele>
        <time>2012-01-03T12:08:36Z</time>
      </trkpt>
      <trkpt lat="44.3858" lon="3.90206">
        <ele>1467</ele>
        <time>2012-01-03T12:09:10Z</time>
      </trkpt>
      <trkpt lat="44.3858" lon="3.90205">
        <ele>1467</ele>
        <time>2012-01-03T12:09:21Z</time>
      </trkpt>
      <trkpt lat="44.3858" lon="3.90201">
        <ele>1467</ele>
        <time>2012-01-03T12:09:22Z</time>
      </trkpt>
      <trkpt lat="44.3858" lon="3.90199">
        <ele>1467</ele>
        <time>2012-01-03T12:09:24Z</time>
      </trkpt>
      <trkpt lat="44.38582" lon="3.90189">
        <ele>1468</ele>
        <time>2012-01-03T12:09:30Z</time>
      </trkpt>
      <trkpt lat="44.38584" lon="3.9017">
        <ele>1468</ele>
        <time>2012-01-03T12:09:30Z</time>
      </trkpt>
      <trkpt lat="44.38585" lon="3.9016">
        <ele>1469</ele>
        <time>2012-01-03T12:09:36Z</time>
      </trkpt>
      <trkpt lat="44.3859" lon="3.90142">
        <ele>1469</ele>
        <time>2012-01-03T12:09:36Z</time>
      </trkpt>
      <trkpt lat="44.38591" lon="3.90138">
        <ele>1469</ele>
        <time>2012-01-03T12:09:37Z</time>
      </trkpt>
      <trkpt lat="44.38593" lon="3.90133">
        <ele>1469</ele>
        <time>2012-01-03T12:09:38Z</time>
      </trkpt>
      <trkpt lat="44.38596" lon="3.90123">
        <ele>1469</ele>
        <time>2012-01-03T12:09:43Z</time>
      </trkpt>
      <trkpt lat="44.38605" lon="3.90103">
        <ele>1469</ele>
        <time>2012-01-03T12:09:44Z</time>
      </trkpt>
      <trkpt lat="44.38608" lon="3.90098">
        <ele>1469</ele>
        <time>2012-01-03T12:09:45Z</time>
      </trkpt>
      <trkpt lat="44.38621" lon="3.90074">
        <ele>1469</ele>
        <time>2012-01-03T12:09:50Z</time>
      </trkpt>
      <trkpt lat="44.38624" lon="3.9007">
        <ele>1469</ele>
        <time>2012-01-03T12:09:51Z</time>
      </trkpt>
      <trkpt lat="44.3863" lon="3.90062">
        <ele>1469</ele>
        <time>2012-01-03T12:09:57Z</time>
      </trkpt>
      <trkpt lat="44.38643" lon="3.90048">
        <ele>1469</ele>
        <time>2012-01-03T12:09:57Z</time>
      </trkpt>
      <trkpt lat="44.38646" lon="3.90045">
        <ele>1469</ele>
        <time>2012-01-03T12:09:58Z</time>
      </trkpt>
      <trkpt lat="44.38653" lon="3.90038">
        <ele>1469</ele>
        <time>2012-01-03T12:10:04Z</time>
      </trkpt>
      <trkpt lat="44.38666" lon="3.90023">
        <ele>1469</ele>
        <time>2012-01-03T12:10:04Z</time>
      </trkpt>
      <trkpt lat="44.3867" lon="3.9002">
        <ele>1469</ele>
        <time>2012-01-03T12:10:05Z</time>
      </trkpt>
      <trkpt lat="44.38676" lon="3.90012">
        <ele>1469</ele>
        <time>2012-01-03T12:10:10Z</time>
      </trkpt>
      <trkpt lat="44.38689" lon="3.89997">
        <ele>1469</ele>
        <time>2012-01-03T12:10:11Z</time>
      </trkpt>
      <trkpt lat="44.38692" lon="3.89993">
        <ele>1469</ele>
        <time>2012-01-03T12:10:12Z</time>
      </trkpt>
      <trkpt lat="44.38707" lon="3.89973">
        <ele>1469</ele>
        <time>2012-01-03T12:10:17Z</time>
      </trkpt>
      <trkpt lat="44.3871" lon="3.8997">
        <ele>1469</ele>
        <time>2012-01-03T12:10:18Z</time>
      </trkpt>
      <trkpt lat="44.38715" lon="3.89964">
        <ele>1469</ele>
        <time>2012-01-03T12:10:24Z</time>
      </trkpt>
      <trkpt lat="44.38728" lon="3.89952">
        <ele>1469</ele>
        <time>2012-01-03T12:10:24Z</time>
      </trkpt>
      <trkpt lat="44.38731" lon="3.89948">
        <ele>1469</ele>
        <time>2012-01-03T12:10:25Z</time>
      </trkpt>
      <trkpt lat="44.38739" lon="3.89937">
        <ele>1469</ele>
        <time>2012-01-03T12:10:31Z</time>
      </trkpt>
      <trkpt lat="44.38755" lon="3.89916">
        <ele>1469</ele>
        <time>2012-01-03T12:10:31Z</time>
      </trkpt>
      <trkpt lat="44.3876" lon="3.89911">
        <ele>1469</ele>
        <time>2012-01-03T12:10:32Z</time>
      </trkpt>
      <trkpt lat="44.38768" lon="3.899">
        <ele>1469</ele>
        <time>2012-01-03T12:10:37Z</time>
      </trkpt>
      <trkpt lat="44.38784" lon="3.89882">
        <ele>1469</ele>
        <time>2012-01-03T12:10:38Z</time>
      </trkpt>
      <trkpt lat="44.38787" lon="3.89877">
        <ele>1469</ele>
        <time>2012-01-03T12:10:39Z</time>
      </trkpt>
      <trkpt lat="44.38805" lon="3.89852">
        <ele>1469</ele>
        <time>2012-01-03T12:10:44Z</time>
      </trkpt>
      <trkpt lat="44.38808" lon="3.89847">
        <ele>1469</ele>
        <time>2012-01-03T12:10:45Z</time>
      </trkpt>
      <trkpt lat="44.38814" lon="3.89837">
        <ele>1469</ele>
        <time>2012-01-03T12:10:51Z</time>
      </trkpt>
      <trkpt lat="44.38826" lon="3.89815">
        <ele>1469</ele>
        <time>2012-01-03T12:10:51Z</time>
      </trkpt>
      <trkpt lat="44.38829" lon="3.8981">
        <ele>1469</ele>
        <time>2012-01-03T12:10:52Z</time>
      </trkpt>
      <trkpt lat="44.38835" lon="3.89799">
        <ele>1469</ele>
        <time>2012-01-03T12:10:58Z</time>
      </trkpt>
      <trkpt lat="44.38847" lon="3.89774">
        <ele>1469</ele>
        <time>2012-01-03T12:10:58Z</time>
      </trkpt>
      <trkpt lat="44.38849" lon="3.89768">
        <ele>1469</ele>
        <time>2012-01-03T12:10:59Z</time>
      </trkpt>
      <trkpt lat="44.38855" lon="3.89757">
        <ele>1469</ele>
        <time>2012-01-03T12:11:04Z</time>
      </trkpt>
      <trkpt lat="44.38866" lon="3.89736">
        <ele>1469</ele>
        <time>2012-01-03T12:11:05Z</time>
      </trkpt>
      <trkpt lat="44.38869" lon="3.89731">
        <ele>1469</ele>
        <time>2012-01-03T12:11:06Z</time>
      </trkpt>
      <trkpt lat="44.38876" lon="3.89715">
        <ele>1469</ele>
        <time>2012-01-03T12:11:09Z</time>
      </trkpt>
      <trkpt lat="44.38879" lon="3.89709">
        <ele>1469</ele>
        <time>2012-01-03T12:11:10Z</time>
      </trkpt>
      <trkpt lat="44.38882" lon="3.89704">
        <ele>1469</ele>
        <time>2012-01-03T12:11:11Z</time>
      </trkpt>
      <trkpt lat="44.38884" lon="3.89698">
        <ele>1469</ele>
        <time>2012-01-03T12:11:12Z</time>
      </trkpt>
      <trkpt lat="44.38887" lon="3.89692">
        <ele>1469</ele>
        <time>2012-01-03T12:11:13Z</time>
      </trkpt>
      <trkpt lat="44.3889" lon="3.89686">
        <ele>1468</ele>
        <time>2012-01-03T12:11:14Z</time>
      </trkpt>
      <trkpt lat="44.38894" lon="3.89681">
        <ele>1468</ele>
        <time>2012-01-03T12:11:15Z</time>
      </trkpt>
      <trkpt lat="44.38897" lon="3.89674">
        <ele>1467</ele>
        <time>2012-01-03T12:11:16Z</time>
      </trkpt>
      <trkpt lat="44.389" lon="3.89668">
        <ele>1467</ele>
        <time>2012-01-03T12:11:17Z</time>
      </trkpt>
      <trkpt lat="44.38903" lon="3.89662">
        <ele>1466</ele>
        <time>2012-01-03T12:11:18Z</time>
      </trkpt>
      <trkpt lat="44.38906" lon="3.89656">
        <ele>1466</ele>
        <time>2012-01-03T12:11:19Z</time>
      </trkpt>
      <trkpt lat="44.38909" lon="3.89651">
        <ele>1465</ele>
        <time>2012-01-03T12:11:20Z</time>
      </trkpt>
      <trkpt lat="44.38912" lon="3.89645">
        <ele>1465</ele>
        <time>2012-01-03T12:11:21Z</time>
      </trkpt>
      <trkpt lat="44.38916" lon="3.89639">
        <ele>1465</ele>
        <time>2012-01-03T12:11:22Z</time>
      </trkpt>
      <trkpt lat="44.38919" lon="3.89634">
        <ele>1465</ele>
        <time>2012-01-03T12:11:23Z</time>
      </trkpt>
      <trkpt lat="44.38922" lon="3.89629">
        <ele>1465</ele>
        <time>2012-01-03T12:11:24Z</time>
      </trkpt>
      <trkpt lat="44.38938" lon="3.89603">
        <ele>1465</ele>
        <time>2012-01-03T12:11:29Z</time>
      </trkpt>
      <trkpt lat="44.38941" lon="3.89598">
        <ele>1465</ele>
        <time>2012-01-03T12:11:30Z</time>
      </trkpt>
      <trkpt lat="44.38944" lon="3.89593">
        <ele>1465</ele>
        <time>2012-01-03T12:11:31Z</time>
      </trkpt>
      <trkpt lat="44.3896" lon="3.89567">
        <ele>1465</ele>
        <time>2012-01-03T12:11:36Z</time>
      </trkpt>
      <trkpt lat="44.38963" lon="3.89562">
        <ele>1465</ele>
        <time>2012-01-03T12:11:37Z</time>
      </trkpt>
      <trkpt lat="44.38967" lon="3.89556">
        <ele>1465</ele>
        <time>2012-01-03T12:11:38Z</time>
      </trkpt>
      <trkpt lat="44.38985" lon="3.89527">
        <ele>1465</ele>
        <time>2012-01-03T12:11:43Z</time>
      </trkpt>
      <trkpt lat="44.38988" lon="3.89521">
        <ele>1465</ele>
        <time>2012-01-03T12:11:44Z</time>
      </trkpt>
      <trkpt lat="44.38992" lon="3.89515">
        <ele>1465</ele>
        <time>2012-01-03T12:11:45Z</time>
      </trkpt>
      <trkpt lat="44.39014" lon="3.89483">
        <ele>1465</ele>
        <time>2012-01-03T12:11:50Z</time>
      </trkpt>
      <trkpt lat="44.39018" lon="3.89477">
        <ele>1465</ele>
        <time>2012-01-03T12:11:51Z</time>
      </trkpt>
      <trkpt lat="44.39023" lon="3.89471">
        <ele>1464</ele>
        <time>2012-01-03T12:11:52Z</time>
      </trkpt>
      <trkpt lat="44.39045" lon="3.89438">
        <ele>1464</ele>
        <time>2012-01-03T12:11:57Z</time>
      </trkpt>
      <trkpt lat="44.39049" lon="3.89431">
        <ele>1463</ele>
        <time>2012-01-03T12:11:58Z</time>
      </trkpt>
      <trkpt lat="44.39053" lon="3.89424">
        <ele>1462</ele>
        <time>2012-01-03T12:11:59Z</time>
      </trkpt>
      <trkpt lat="44.39076" lon="3.89392">
        <ele>1462</ele>
        <time>2012-01-03T12:12:04Z</time>
      </trkpt>
      <trkpt lat="44.3908" lon="3.89387">
        <ele>1461</ele>
        <time>2012-01-03T12:12:05Z</time>
      </trkpt>
      <trkpt lat="44.39085" lon="3.89381">
        <ele>1460</ele>
        <time>2012-01-03T12:12:06Z</time>
      </trkpt>
      <trkpt lat="44.39108" lon="3.89355">
        <ele>1460</ele>
        <time>2012-01-03T12:12:11Z</time>
      </trkpt>
      <trkpt lat="44.39112" lon="3.8935">
        <ele>1459</ele>
        <time>2012-01-03T12:12:12Z</time>
      </trkpt>
      <trkpt lat="44.39117" lon="3.89346">
        <ele>1459</ele>
        <time>2012-01-03T12:12:13Z</time>
      </trkpt>
      <trkpt lat="44.3914" lon="3.89325">
        <ele>1459</ele>
        <time>2012-01-03T12:12:18Z</time>
      </trkpt>
      <trkpt lat="44.39145" lon="3.89321">
        <ele>1458</ele>
        <time>2012-01-03T12:12:19Z</time>
      </trkpt>
      <trkpt lat="44.39149" lon="3.89318">
        <ele>1458</ele>
        <time>2012-01-03T12:12:20Z</time>
      </trkpt>
      <trkpt lat="44.39157" lon="3.89311">
        <ele>1458</ele>
        <time>2012-01-03T12:12:25Z</time>
      </trkpt>
      <trkpt lat="44.39172" lon="3.893">
        <ele>1458</ele>
        <time>2012-01-03T12:12:26Z</time>
      </trkpt>
      <trkpt lat="44.39176" lon="3.89297">
        <ele>1457</ele>
        <time>2012-01-03T12:12:27Z</time>
      </trkpt>
      <trkpt lat="44.39183" lon="3.89292">
        <ele>1457</ele>
        <time>2012-01-03T12:12:32Z</time>
      </trkpt>
      <trkpt lat="44.39196" lon="3.89281">
        <ele>1457</ele>
        <time>2012-01-03T12:12:33Z</time>
      </trkpt>
      <trkpt lat="44.39199" lon="3.89278">
        <ele>1456</ele>
        <time>2012-01-03T12:12:34Z</time>
      </trkpt>
      <trkpt lat="44.39205" lon="3.89272">
        <ele>1456</ele>
        <time>2012-01-03T12:12:39Z</time>
      </trkpt>
      <trkpt lat="44.39216" lon="3.89259">
        <ele>1455</ele>
        <time>2012-01-03T12:12:40Z</time>
      </trkpt>
      <trkpt lat="44.39218" lon="3.89254">
        <ele>1454</ele>
        <time>2012-01-03T12:12:41Z</time>
      </trkpt>
      <trkpt lat="44.39222" lon="3.89245">
        <ele>1454</ele>
        <time>2012-01-03T12:12:48Z</time>
      </trkpt>
      <trkpt lat="44.3923" lon="3.89215">
        <ele>1453</ele>
        <time>2012-01-03T12:12:48Z</time>
      </trkpt>
      <trkpt lat="44.39231" lon="3.89209">
        <ele>1452</ele>
        <time>2012-01-03T12:12:49Z</time>
      </trkpt>
      <trkpt lat="44.39235" lon="3.89195">
        <ele>1452</ele>
        <time>2012-01-03T12:12:54Z</time>
      </trkpt>
      <trkpt lat="44.39242" lon="3.89164">
        <ele>1451</ele>
        <time>2012-01-03T12:12:55Z</time>
      </trkpt>
      <trkpt lat="44.39244" lon="3.89156">
        <ele>1450</ele>
        <time>2012-01-03T12:12:56Z</time>
      </trkpt>
      <trkpt lat="44.39248" lon="3.8914">
        <ele>1450</ele>
        <time>2012-01-03T12:13:01Z</time>
      </trkpt>
      <trkpt lat="44.39255" lon="3.89107">
        <ele>1449</ele>
        <time>2012-01-03T12:13:02Z</time>
      </trkpt>
      <trkpt lat="44.39257" lon="3.89099">
        <ele>1448</ele>
        <time>2012-01-03T12:13:03Z</time>
      </trkpt>
      <trkpt lat="44.39259" lon="3.89084">
        <ele>1448</ele>
        <time>2012-01-03T12:13:08Z</time>
      </trkpt>
      <trkpt lat="44.39263" lon="3.89057">
        <ele>1447</ele>
        <time>2012-01-03T12:13:09Z</time>
      </trkpt>
      <trkpt lat="44.39264" lon="3.89052">
        <ele>1447</ele>
        <time>2012-01-03T12:13:10Z</time>
      </trkpt>
      <trkpt lat="44.39266" lon="3.89042">
        <ele>1446</ele>
        <time>2012-01-03T12:13:15Z</time>
      </trkpt>
      <trkpt lat="44.39269" lon="3.89026">
        <ele>1446</ele>
        <time>2012-01-03T12:13:16Z</time>
      </trkpt>
      <trkpt lat="44.39267" lon="3.89025">
        <ele>1446</ele>
        <time>2012-01-03T12:13:17Z</time>
      </trkpt>
      <trkpt lat="44.39265" lon="3.89026">
        <ele>1446</ele>
        <time>2012-01-03T12:13:18Z</time>
      </trkpt>
      <trkpt lat="44.39263" lon="3.89034">
        <ele>1446</ele>
        <time>2012-01-03T12:13:23Z</time>
      </trkpt>
      <trkpt lat="44.39259" lon="3.89054">
        <ele>1446</ele>
        <time>2012-01-03T12:13:28Z</time>
      </trkpt>
      <trkpt lat="44.39251" lon="3.89093">
        <ele>1446</ele>
        <time>2012-01-03T12:13:34Z</time>
      </trkpt>
      <trkpt lat="44.39249" lon="3.89102">
        <ele>1446</ele>
        <time>2012-01-03T12:13:39Z</time>
      </trkpt>
      <trkpt lat="44.39243" lon="3.89119">
        <ele>1446</ele>
        <time>2012-01-03T12:13:44Z</time>
      </trkpt>
      <trkpt lat="44.39241" lon="3.89133">
        <ele>1446</ele>
        <time>2012-01-03T12:13:50Z</time>
      </trkpt>
      <trkpt lat="44.3924" lon="3.8915">
        <ele>1446</ele>
        <time>2012-01-03T12:13:50Z</time>
      </trkpt>
      <trkpt lat="44.39238" lon="3.89153">
        <ele>1446</ele>
        <time>2012-01-03T12:13:51Z</time>
      </trkpt>
      <trkpt lat="44.39237" lon="3.89161">
        <ele>1446</ele>
        <time>2012-01-03T12:13:57Z</time>
      </trkpt>
      <trkpt lat="44.39231" lon="3.89181">
        <ele>1446</ele>
        <time>2012-01-03T12:13:59Z</time>
      </trkpt>
      <trkpt lat="44.3923" lon="3.89186">
        <ele>1446</ele>
        <time>2012-01-03T12:14:03Z</time>
      </trkpt>
      <trkpt lat="44.39227" lon="3.89194">
        <ele>1446</ele>
        <time>2012-01-03T12:14:05Z</time>
      </trkpt>
      <trkpt lat="44.39226" lon="3.89202">
        <ele>1446</ele>
        <time>2012-01-03T12:14:10Z</time>
      </trkpt>
      <trkpt lat="44.39224" lon="3.89212">
        <ele>1446</ele>
        <time>2012-01-03T12:14:11Z</time>
      </trkpt>
      <trkpt lat="44.39223" lon="3.89216">
        <ele>1446</ele>
        <time>2012-01-03T12:14:16Z</time>
      </trkpt>
      <trkpt lat="44.39219" lon="3.89234">
        <ele>1446</ele>
        <time>2012-01-03T12:14:21Z</time>
      </trkpt>
      <trkpt lat="44.39219" lon="3.89237">
        <ele>1446</ele>
        <time>2012-01-03T12:14:26Z</time>
      </trkpt>
      <trkpt lat="44.39217" lon="3.89239">
        <ele>1446</ele>
        <time>2012-01-03T12:14:27Z</time>
      </trkpt>
      <trkpt lat="44.39217" lon="3.89241">
        <ele>1446</ele>
        <time>2012-01-03T12:14:37Z</time>
      </trkpt>
      <trkpt lat="44.39217" lon="3.89243">
        <ele>1447</ele>
        <time>2012-01-03T12:14:50Z</time>
      </trkpt>
      <trkpt lat="44.39219" lon="3.89242">
        <ele>1447</ele>
        <time>2012-01-03T12:15:03Z</time>
      </trkpt>
      <trkpt lat="44.39219" lon="3.89243">
        <ele>1447</ele>
        <time>2012-01-03T12:15:05Z</time>
      </trkpt>
      <trkpt lat="44.3922" lon="3.89245">
        <ele>1447</ele>
        <time>2012-01-03T12:15:11Z</time>
      </trkpt>
      <trkpt lat="44.39223" lon="3.89236">
        <ele>1447</ele>
        <time>2012-01-03T12:15:12Z</time>
      </trkpt>
      <trkpt lat="44.39224" lon="3.89232">
        <ele>1447</ele>
        <time>2012-01-03T12:15:13Z</time>
      </trkpt>
      <trkpt lat="44.39225" lon="3.89227">
        <ele>1447</ele>
        <time>2012-01-03T12:15:13Z</time>
      </trkpt>
      <trkpt lat="44.39228" lon="3.89216">
        <ele>1447</ele>
        <time>2012-01-03T12:15:19Z</time>
      </trkpt>
      <trkpt lat="44.39234" lon="3.89188">
        <ele>1447</ele>
        <time>2012-01-03T12:15:19Z</time>
      </trkpt>
      <trkpt lat="44.39236" lon="3.89181">
        <ele>1447</ele>
        <time>2012-01-03T12:15:20Z</time>
      </trkpt>
      <trkpt lat="44.3924" lon="3.89166">
        <ele>1447</ele>
        <time>2012-01-03T12:15:26Z</time>
      </trkpt>
      <trkpt lat="44.39246" lon="3.89136">
        <ele>1447</ele>
        <time>2012-01-03T12:15:26Z</time>
      </trkpt>
      <trkpt lat="44.39248" lon="3.89129">
        <ele>1446</ele>
        <time>2012-01-03T12:15:27Z</time>
      </trkpt>
      <trkpt lat="44.39251" lon="3.89116">
        <ele>1445</ele>
        <time>2012-01-03T12:15:33Z</time>
      </trkpt>
      <trkpt lat="44.39256" lon="3.8909">
        <ele>1444</ele>
        <time>2012-01-03T12:15:33Z</time>
      </trkpt>
      <trkpt lat="44.39257" lon="3.89085">
        <ele>1443</ele>
        <time>2012-01-03T12:15:34Z</time>
      </trkpt>
      <trkpt lat="44.39259" lon="3.89073">
        <ele>1442</ele>
        <time>2012-01-03T12:15:40Z</time>
      </trkpt>
      <trkpt lat="44.39263" lon="3.89049">
        <ele>1442</ele>
        <time>2012-01-03T12:15:40Z</time>
      </trkpt>
      <trkpt lat="44.39265" lon="3.89043">
        <ele>1442</ele>
        <time>2012-01-03T12:15:41Z</time>
      </trkpt>
      <trkpt lat="44.39267" lon="3.89032">
        <ele>1442</ele>
        <time>2012-01-03T12:15:47Z</time>
      </trkpt>
      <trkpt lat="44.39272" lon="3.89011">
        <ele>1442</ele>
        <time>2012-01-03T12:15:47Z</time>
      </trkpt>
      <trkpt lat="44.39273" lon="3.89005">
        <ele>1442</ele>
        <time>2012-01-03T12:15:48Z</time>
      </trkpt>
      <trkpt lat="44.39276" lon="3.88994">
        <ele>1442</ele>
        <time>2012-01-03T12:15:54Z</time>
      </trkpt>
      <trkpt lat="44.39282" lon="3.88971">
        <ele>1442</ele>
        <time>2012-01-03T12:15:54Z</time>
      </trkpt>
      <trkpt lat="44.39283" lon="3.88966">
        <ele>1442</ele>
        <time>2012-01-03T12:15:55Z</time>
      </trkpt>
      <trkpt lat="44.39286" lon="3.88957">
        <ele>1442</ele>
        <time>2012-01-03T12:16:01Z</time>
      </trkpt>
      <trkpt lat="44.3929" lon="3.88937">
        <ele>1442</ele>
        <time>2012-01-03T12:16:01Z</time>
      </trkpt>
      <trkpt lat="44.39291" lon="3.88932">
        <ele>1443</ele>
        <time>2012-01-03T12:16:02Z</time>
      </trkpt>
      <trkpt lat="44.39293" lon="3.88922">
        <ele>1443</ele>
        <time>2012-01-03T12:16:08Z</time>
      </trkpt>
      <trkpt lat="44.39297" lon="3.88906">
        <ele>1444</ele>
        <time>2012-01-03T12:16:08Z</time>
      </trkpt>
      <trkpt lat="44.39297" lon="3.88902">
        <ele>1444</ele>
        <time>2012-01-03T12:16:09Z</time>
      </trkpt>
      <trkpt lat="44.39297" lon="3.88898">
        <ele>1445</ele>
        <time>2012-01-03T12:16:15Z</time>
      </trkpt>
      <trkpt lat="44.39298" lon="3.88895">
        <ele>1445</ele>
        <time>2012-01-03T12:16:15Z</time>
      </trkpt>
      <trkpt lat="44.39305" lon="3.88903">
        <ele>1446</ele>
        <time>2012-01-03T12:16:33Z</time>
      </trkpt>
      <trkpt lat="44.39306" lon="3.88906">
        <ele>1446</ele>
        <time>2012-01-03T12:16:34Z</time>
      </trkpt>
      <trkpt lat="44.39307" lon="3.88909">
        <ele>1446</ele>
        <time>2012-01-03T12:16:35Z</time>
      </trkpt>
      <trkpt lat="44.39311" lon="3.88914">
        <ele>1446</ele>
        <time>2012-01-03T12:16:41Z</time>
      </trkpt>
      <trkpt lat="44.39314" lon="3.88921">
        <ele>1446</ele>
        <time>2012-01-03T12:16:42Z</time>
      </trkpt>
      <trkpt lat="44.39315" lon="3.88925">
        <ele>1444</ele>
        <time>2012-01-03T12:16:48Z</time>
      </trkpt>
      <trkpt lat="44.39315" lon="3.88927">
        <ele>1443</ele>
        <time>2012-01-03T12:16:49Z</time>
      </trkpt>
      <trkpt lat="44.39314" lon="3.88929">
        <ele>1443</ele>
        <time>2012-01-03T12:16:52Z</time>
      </trkpt>
      <trkpt lat="44.39313" lon="3.88932">
        <ele>1443</ele>
        <time>2012-01-03T12:16:58Z</time>
      </trkpt>
      <trkpt lat="44.39312" lon="3.88933">
        <ele>1443</ele>
        <time>2012-01-03T12:17:07Z</time>
      </trkpt>
      <trkpt lat="44.39311" lon="3.88934">
        <ele>1443</ele>
        <time>2012-01-03T12:17:08Z</time>
      </trkpt>
      <trkpt lat="44.3931" lon="3.88936">
        <ele>1443</ele>
        <time>2012-01-03T12:17:16Z</time>
      </trkpt>
      <trkpt lat="44.39309" lon="3.88938">
        <ele>1443</ele>
        <time>2012-01-03T12:17:18Z</time>
      </trkpt>
      <trkpt lat="44.39309" lon="3.88941">
        <ele>1443</ele>
        <time>2012-01-03T12:17:27Z</time>
      </trkpt>
      <trkpt lat="44.39309" lon="3.88943">
        <ele>1445</ele>
        <time>2012-01-03T12:17:43Z</time>
      </trkpt>
      <trkpt lat="44.39311" lon="3.88941">
        <ele>1446</ele>
        <time>2012-01-03T12:17:51Z</time>
      </trkpt>
      <trkpt lat="44.39312" lon="3.88941">
        <ele>1446</ele>
        <time>2012-01-03T12:17:54Z</time>
      </trkpt>
      <trkpt lat="44.39314" lon="3.88941">
        <ele>1447</ele>
        <time>2012-01-03T12:18:01Z</time>
      </trkpt>
      <trkpt lat="44.39313" lon="3.88936">
        <ele>1447</ele>
        <time>2012-01-03T12:18:10Z</time>
      </trkpt>
      <trkpt lat="44.39314" lon="3.88934">
        <ele>1447</ele>
        <time>2012-01-03T12:18:12Z</time>
      </trkpt>
      <trkpt lat="44.39314" lon="3.88932">
        <ele>1447</ele>
        <time>2012-01-03T12:18:19Z</time>
      </trkpt>
      <trkpt lat="44.39314" lon="3.8893">
        <ele>1447</ele>
        <time>2012-01-03T12:18:20Z</time>
      </trkpt>
      <trkpt lat="44.39316" lon="3.88931">
        <ele>1447</ele>
        <time>2012-01-03T12:18:27Z</time>
      </trkpt>
      <trkpt lat="44.39315" lon="3.88932">
        <ele>1447</ele>
        <time>2012-01-03T12:18:29Z</time>
      </trkpt>
      <trkpt lat="44.39313" lon="3.88933">
        <ele>1445</ele>
        <time>2012-01-03T12:18:36Z</time>
      </trkpt>
      <trkpt lat="44.39312" lon="3.88933">
        <ele>1445</ele>
        <time>2012-01-03T12:18:45Z</time>
      </trkpt>
      <trkpt lat="44.39312" lon="3.88935">
        <ele>1445</ele>
        <time>2012-01-03T12:18:55Z</time>
      </trkpt>
      <trkpt lat="44.39313" lon="3.88937">
        <ele>1445</ele>
        <time>2012-01-03T12:19:03Z</time>
      </trkpt>
      <trkpt lat="44.39313" lon="3.88939">
        <ele>1445</ele>
        <time>2012-01-03T12:19:12Z</time>
      </trkpt>
      <trkpt lat="44.39315" lon="3.88938">
        <ele>1445</ele>
        <time>2012-01-03T12:20:03Z</time>
      </trkpt>
      <trkpt lat="44.39314" lon="3.88936">
        <ele>1445</ele>
        <time>2012-01-03T12:20:14Z</time>
      </trkpt>
      <trkpt lat="44.39311" lon="3.88934">
        <ele>1446</ele>
        <time>2012-01-03T12:20:22Z</time>
      </trkpt>
      <trkpt lat="44.39309" lon="3.88933">
        <ele>1448</ele>
        <time>2012-01-03T12:20:29Z</time>
      </trkpt>
      <trkpt lat="44.39307" lon="3.88931">
        <ele>1449</ele>
        <time>2012-01-03T12:20:31Z</time>
      </trkpt>
      <trkpt lat="44.39307" lon="3.88929">
        <ele>1451</ele>
        <time>2012-01-03T12:20:38Z</time>
      </trkpt>
      <trkpt lat="44.39309" lon="3.88929">
        <ele>1455</ele>
        <time>2012-01-03T12:20:48Z</time>
      </trkpt>
      <trkpt lat="44.39312" lon="3.88929">
        <ele>1457</ele>
        <time>2012-01-03T12:20:56Z</time>
      </trkpt>
      <trkpt lat="44.39315" lon="3.88931">
        <ele>1455</ele>
        <time>2012-01-03T12:21:06Z</time>
      </trkpt>
      <trkpt lat="44.39315" lon="3.88929">
        <ele>1449</ele>
        <time>2012-01-03T12:21:24Z</time>
      </trkpt>
      <trkpt lat="44.39314" lon="3.88928">
        <ele>1449</ele>
        <time>2012-01-03T12:21:53Z</time>
      </trkpt>
      <trkpt lat="44.39313" lon="3.88928">
        <ele>1449</ele>
        <time>2012-01-03T12:22:13Z</time>
      </trkpt>
      <trkpt lat="44.39312" lon="3.88929">
        <ele>1449</ele>
        <time>2012-01-03T12:22:31Z</time>
      </trkpt>
      <trkpt lat="44.39311" lon="3.88927">
        <ele>1447</ele>
        <time>2012-01-03T12:23:51Z</time>
      </trkpt>
      <trkpt lat="44.39311" lon="3.88926">
        <ele>1447</ele>
        <time>2012-01-03T12:24:09Z</time>
      </trkpt>
      <trkpt lat="44.39311" lon="3.88924">
        <ele>1447</ele>
        <time>2012-01-03T12:24:27Z</time>
      </trkpt>
      <trkpt lat="44.39314" lon="3.88929">
        <ele>1447</ele>
        <time>2012-01-03T12:24:41Z</time>
      </trkpt>
      <trkpt lat="44.39314" lon="3.8893">
        <ele>1447</ele>
        <time>2012-01-03T12:24:43Z</time>
      </trkpt>
      <trkpt lat="44.39347" lon="3.88977">
        <ele>1442</ele>
        <time>2012-01-03T12:24:52Z</time>
      </trkpt>
      <trkpt lat="44.39347" lon="3.88978">
        <ele>1442</ele>
        <time>2012-01-03T12:24:54Z</time>
      </trkpt>
      <trkpt lat="44.39348" lon="3.8898">
        <ele>1442</ele>
        <time>2012-01-03T12:24:56Z</time>
      </trkpt>
      <trkpt lat="44.39349" lon="3.88981">
        <ele>1445</ele>
        <time>2012-01-03T12:25:09Z</time>
      </trkpt>
      <trkpt lat="44.39354" lon="3.88984">
        <ele>1446</ele>
        <time>2012-01-03T12:25:15Z</time>
      </trkpt>
      <trkpt lat="44.39357" lon="3.88987">
        <ele>1446</ele>
        <time>2012-01-03T12:25:24Z</time>
      </trkpt>
      <trkpt lat="44.39359" lon="3.88986">
        <ele>1446</ele>
        <time>2012-01-03T12:25:32Z</time>
      </trkpt>
      <trkpt lat="44.39362" lon="3.88986">
        <ele>1446</ele>
        <time>2012-01-03T12:25:33Z</time>
      </trkpt>
      <trkpt lat="44.39365" lon="3.88985">
        <ele>1446</ele>
        <time>2012-01-03T12:25:35Z</time>
      </trkpt>
      <trkpt lat="44.39369" lon="3.88987">
        <ele>1446</ele>
        <time>2012-01-03T12:25:40Z</time>
      </trkpt>
      <trkpt lat="44.39371" lon="3.88988">
        <ele>1446</ele>
        <time>2012-01-03T12:25:42Z</time>
      </trkpt>
      <trkpt lat="44.39372" lon="3.8899">
        <ele>1446</ele>
        <time>2012-01-03T12:25:50Z</time>
      </trkpt>
      <trkpt lat="44.39371" lon="3.88993">
        <ele>1446</ele>
        <time>2012-01-03T12:25:57Z</time>
      </trkpt>
      <trkpt lat="44.39375" lon="3.88997">
        <ele>1446</ele>
        <time>2012-01-03T12:25:59Z</time>
      </trkpt>
      <trkpt lat="44.39377" lon="3.88998">
        <ele>1446</ele>
        <time>2012-01-03T12:25:59Z</time>
      </trkpt>
      <trkpt lat="44.3938" lon="3.89">
        <ele>1446</ele>
        <time>2012-01-03T12:26:00Z</time>
      </trkpt>
      <trkpt lat="44.39388" lon="3.89005">
        <ele>1445</ele>
        <time>2012-01-03T12:26:06Z</time>
      </trkpt>
      <trkpt lat="44.3939" lon="3.89007">
        <ele>1443</ele>
        <time>2012-01-03T12:26:09Z</time>
      </trkpt>
      <trkpt lat="44.39399" lon="3.89007">
        <ele>1442</ele>
        <time>2012-01-03T12:26:14Z</time>
      </trkpt>
      <trkpt lat="44.39401" lon="3.89007">
        <ele>1441</ele>
        <time>2012-01-03T12:26:15Z</time>
      </trkpt>
      <trkpt lat="44.39402" lon="3.89006">
        <ele>1440</ele>
        <time>2012-01-03T12:26:17Z</time>
      </trkpt>
      <trkpt lat="44.39404" lon="3.89007">
        <ele>1439</ele>
        <time>2012-01-03T12:26:22Z</time>
      </trkpt>
      <trkpt lat="44.39409" lon="3.89011">
        <ele>1438</ele>
        <time>2012-01-03T12:26:23Z</time>
      </trkpt>
      <trkpt lat="44.39411" lon="3.8901">
        <ele>1437</ele>
        <time>2012-01-03T12:26:24Z</time>
      </trkpt>
      <trkpt lat="44.39412" lon="3.89009">
        <ele>1437</ele>
        <time>2012-01-03T12:26:24Z</time>
      </trkpt>
      <trkpt lat="44.39416" lon="3.8901">
        <ele>1436</ele>
        <time>2012-01-03T12:26:30Z</time>
      </trkpt>
      <trkpt lat="44.39426" lon="3.8901">
        <ele>1435</ele>
        <time>2012-01-03T12:26:31Z</time>
      </trkpt>
      <trkpt lat="44.39429" lon="3.89011">
        <ele>1434</ele>
        <time>2012-01-03T12:26:31Z</time>
      </trkpt>
      <trkpt lat="44.39434" lon="3.89009">
        <ele>1433</ele>
        <time>2012-01-03T12:26:37Z</time>
      </trkpt>
      <trkpt lat="44.39442" lon="3.89005">
        <ele>1432</ele>
        <time>2012-01-03T12:26:38Z</time>
      </trkpt>
      <trkpt lat="44.39444" lon="3.89005">
        <ele>1431</ele>
        <time>2012-01-03T12:26:38Z</time>
      </trkpt>
      <trkpt lat="44.39445" lon="3.89005">
        <ele>1430</ele>
        <time>2012-01-03T12:26:40Z</time>
      </trkpt>
      <trkpt lat="44.39448" lon="3.89005">
        <ele>1428</ele>
        <time>2012-01-03T12:26:46Z</time>
      </trkpt>
      <trkpt lat="44.39449" lon="3.89006">
        <ele>1428</ele>
        <time>2012-01-03T12:26:48Z</time>
      </trkpt>
      <trkpt lat="44.39454" lon="3.89007">
        <ele>1428</ele>
        <time>2012-01-03T12:26:55Z</time>
      </trkpt>
      <trkpt lat="44.39456" lon="3.89006">
        <ele>1428</ele>
        <time>2012-01-03T12:27:03Z</time>
      </trkpt>
      <trkpt lat="44.39461" lon="3.89007">
        <ele>1428</ele>
        <time>2012-01-03T12:27:03Z</time>
      </trkpt>
      <trkpt lat="44.39463" lon="3.89006">
        <ele>1428</ele>
        <time>2012-01-03T12:27:06Z</time>
      </trkpt>
      <trkpt lat="44.39465" lon="3.89003">
        <ele>1428</ele>
        <time>2012-01-03T12:27:12Z</time>
      </trkpt>
      <trkpt lat="44.3947" lon="3.88991">
        <ele>1428</ele>
        <time>2012-01-03T12:27:13Z</time>
      </trkpt>
      <trkpt lat="44.39471" lon="3.88989">
        <ele>1428</ele>
        <time>2012-01-03T12:27:13Z</time>
      </trkpt>
      <trkpt lat="44.39474" lon="3.88985">
        <ele>1427</ele>
        <time>2012-01-03T12:27:20Z</time>
      </trkpt>
      <trkpt lat="44.39475" lon="3.8898">
        <ele>1426</ele>
        <time>2012-01-03T12:27:20Z</time>
      </trkpt>
      <trkpt lat="44.39476" lon="3.88976">
        <ele>1425</ele>
        <time>2012-01-03T12:27:28Z</time>
      </trkpt>
      <trkpt lat="44.3948" lon="3.88975">
        <ele>1425</ele>
        <time>2012-01-03T12:27:29Z</time>
      </trkpt>
      <trkpt lat="44.39485" lon="3.88979">
        <ele>1425</ele>
        <time>2012-01-03T12:27:37Z</time>
      </trkpt>
      <trkpt lat="44.39486" lon="3.88979">
        <ele>1425</ele>
        <time>2012-01-03T12:27:38Z</time>
      </trkpt>
      <trkpt lat="44.39489" lon="3.88978">
        <ele>1425</ele>
        <time>2012-01-03T12:27:45Z</time>
      </trkpt>
      <trkpt lat="44.39491" lon="3.88978">
        <ele>1425</ele>
        <time>2012-01-03T12:27:46Z</time>
      </trkpt>
      <trkpt lat="44.39493" lon="3.88977">
        <ele>1422</ele>
        <time>2012-01-03T12:27:54Z</time>
      </trkpt>
      <trkpt lat="44.39493" lon="3.88974">
        <ele>1421</ele>
        <time>2012-01-03T12:27:55Z</time>
      </trkpt>
      <trkpt lat="44.39495" lon="3.88974">
        <ele>1420</ele>
        <time>2012-01-03T12:27:59Z</time>
      </trkpt>
      <trkpt lat="44.39496" lon="3.88974">
        <ele>1420</ele>
        <time>2012-01-03T12:28:02Z</time>
      </trkpt>
      <trkpt lat="44.39498" lon="3.88973">
        <ele>1420</ele>
        <time>2012-01-03T12:28:09Z</time>
      </trkpt>
      <trkpt lat="44.395" lon="3.88976">
        <ele>1420</ele>
        <time>2012-01-03T12:28:09Z</time>
      </trkpt>
      <trkpt lat="44.39501" lon="3.88976">
        <ele>1420</ele>
        <time>2012-01-03T12:28:10Z</time>
      </trkpt>
      <trkpt lat="44.39502" lon="3.88974">
        <ele>1420</ele>
        <time>2012-01-03T12:28:12Z</time>
      </trkpt>
      <trkpt lat="44.39505" lon="3.88973">
        <ele>1420</ele>
        <time>2012-01-03T12:28:16Z</time>
      </trkpt>
      <trkpt lat="44.39509" lon="3.88968">
        <ele>1420</ele>
        <time>2012-01-03T12:28:18Z</time>
      </trkpt>
      <trkpt lat="44.39511" lon="3.88966">
        <ele>1420</ele>
        <time>2012-01-03T12:28:18Z</time>
      </trkpt>
      <trkpt lat="44.39512" lon="3.88966">
        <ele>1419</ele>
        <time>2012-01-03T12:28:24Z</time>
      </trkpt>
      <trkpt lat="44.39514" lon="3.88967">
        <ele>1417</ele>
        <time>2012-01-03T12:28:30Z</time>
      </trkpt>
      <trkpt lat="44.39518" lon="3.88967">
        <ele>1417</ele>
        <time>2012-01-03T12:28:31Z</time>
      </trkpt>
      <trkpt lat="44.39519" lon="3.88967">
        <ele>1417</ele>
        <time>2012-01-03T12:28:33Z</time>
      </trkpt>
      <trkpt lat="44.3952" lon="3.88968">
        <ele>1417</ele>
        <time>2012-01-03T12:28:37Z</time>
      </trkpt>
      <trkpt lat="44.39523" lon="3.88969">
        <ele>1417</ele>
        <time>2012-01-03T12:28:39Z</time>
      </trkpt>
      <trkpt lat="44.39523" lon="3.88973">
        <ele>1417</ele>
        <time>2012-01-03T12:28:44Z</time>
      </trkpt>
      <trkpt lat="44.39526" lon="3.88973">
        <ele>1417</ele>
        <time>2012-01-03T12:28:46Z</time>
      </trkpt>
      <trkpt lat="44.39528" lon="3.88972">
        <ele>1417</ele>
        <time>2012-01-03T12:28:52Z</time>
      </trkpt>
      <trkpt lat="44.39529" lon="3.8897">
        <ele>1417</ele>
        <time>2012-01-03T12:28:53Z</time>
      </trkpt>
      <trkpt lat="44.39531" lon="3.8897">
        <ele>1416</ele>
        <time>2012-01-03T12:28:54Z</time>
      </trkpt>
      <trkpt lat="44.39534" lon="3.88968">
        <ele>1415</ele>
        <time>2012-01-03T12:28:59Z</time>
      </trkpt>
      <trkpt lat="44.39537" lon="3.88966">
        <ele>1414</ele>
        <time>2012-01-03T12:29:00Z</time>
      </trkpt>
      <trkpt lat="44.39539" lon="3.88969">
        <ele>1412</ele>
        <time>2012-01-03T12:29:05Z</time>
      </trkpt>
      <trkpt lat="44.3954" lon="3.88971">
        <ele>1412</ele>
        <time>2012-01-03T12:29:06Z</time>
      </trkpt>
      <trkpt lat="44.39542" lon="3.88972">
        <ele>1410</ele>
        <time>2012-01-03T12:29:09Z</time>
      </trkpt>
      <trkpt lat="44.39543" lon="3.88971">
        <ele>1409</ele>
        <time>2012-01-03T12:29:13Z</time>
      </trkpt>
      <trkpt lat="44.39545" lon="3.88972">
        <ele>1409</ele>
        <time>2012-01-03T12:29:15Z</time>
      </trkpt>
      <trkpt lat="44.39544" lon="3.88971">
        <ele>1408</ele>
        <time>2012-01-03T12:29:16Z</time>
      </trkpt>
      <trkpt lat="44.39549" lon="3.8897">
        <ele>1408</ele>
        <time>2012-01-03T12:29:20Z</time>
      </trkpt>
      <trkpt lat="44.3955" lon="3.88969">
        <ele>1407</ele>
        <time>2012-01-03T12:29:23Z</time>
      </trkpt>
      <trkpt lat="44.39557" lon="3.88972">
        <ele>1406</ele>
        <time>2012-01-03T12:29:28Z</time>
      </trkpt>
      <trkpt lat="44.39559" lon="3.88973">
        <ele>1406</ele>
        <time>2012-01-03T12:29:31Z</time>
      </trkpt>
      <trkpt lat="44.39561" lon="3.88974">
        <ele>1406</ele>
        <time>2012-01-03T12:29:35Z</time>
      </trkpt>
      <trkpt lat="44.39563" lon="3.88974">
        <ele>1405</ele>
        <time>2012-01-03T12:29:35Z</time>
      </trkpt>
      <trkpt lat="44.39564" lon="3.88972">
        <ele>1403</ele>
        <time>2012-01-03T12:29:43Z</time>
      </trkpt>
      <trkpt lat="44.39566" lon="3.88971">
        <ele>1402</ele>
        <time>2012-01-03T12:29:44Z</time>
      </trkpt>
      <trkpt lat="44.3957" lon="3.88966">
        <ele>1400</ele>
        <time>2012-01-03T12:29:50Z</time>
      </trkpt>
      <trkpt lat="44.3958" lon="3.88958">
        <ele>1399</ele>
        <time>2012-01-03T12:29:51Z</time>
      </trkpt>
      <trkpt lat="44.39582" lon="3.88956">
        <ele>1399</ele>
        <time>2012-01-03T12:29:52Z</time>
      </trkpt>
      <trkpt lat="44.39583" lon="3.88955">
        <ele>1398</ele>
        <time>2012-01-03T12:29:53Z</time>
      </trkpt>
      <trkpt lat="44.39585" lon="3.88953">
        <ele>1398</ele>
        <time>2012-01-03T12:29:58Z</time>
      </trkpt>
      <trkpt lat="44.39589" lon="3.88951">
        <ele>1397</ele>
        <time>2012-01-03T12:29:58Z</time>
      </trkpt>
      <trkpt lat="44.39591" lon="3.88952">
        <ele>1395</ele>
        <time>2012-01-03T12:30:05Z</time>
      </trkpt>
      <trkpt lat="44.39595" lon="3.88954">
        <ele>1395</ele>
        <time>2012-01-03T12:30:06Z</time>
      </trkpt>
      <trkpt lat="44.39596" lon="3.88955">
        <ele>1395</ele>
        <time>2012-01-03T12:30:07Z</time>
      </trkpt>
      <trkpt lat="44.39598" lon="3.88956">
        <ele>1395</ele>
        <time>2012-01-03T12:30:12Z</time>
      </trkpt>
      <trkpt lat="44.39599" lon="3.88954">
        <ele>1395</ele>
        <time>2012-01-03T12:30:14Z</time>
      </trkpt>
      <trkpt lat="44.396" lon="3.88949">
        <ele>1395</ele>
        <time>2012-01-03T12:30:19Z</time>
      </trkpt>
      <trkpt lat="44.39601" lon="3.88946">
        <ele>1395</ele>
        <time>2012-01-03T12:30:19Z</time>
      </trkpt>
      <trkpt lat="44.396" lon="3.88944">
        <ele>1395</ele>
        <time>2012-01-03T12:30:27Z</time>
      </trkpt>
      <trkpt lat="44.396" lon="3.88941">
        <ele>1395</ele>
        <time>2012-01-03T12:30:27Z</time>
      </trkpt>
      <trkpt lat="44.39598" lon="3.88938">
        <ele>1395</ele>
        <time>2012-01-03T12:30:34Z</time>
      </trkpt>
      <trkpt lat="44.39597" lon="3.88935">
        <ele>1395</ele>
        <time>2012-01-03T12:30:34Z</time>
      </trkpt>
      <trkpt lat="44.39597" lon="3.88933">
        <ele>1395</ele>
        <time>2012-01-03T12:30:36Z</time>
      </trkpt>
      <trkpt lat="44.39601" lon="3.88923">
        <ele>1395</ele>
        <time>2012-01-03T12:30:41Z</time>
      </trkpt>
      <trkpt lat="44.39602" lon="3.88921">
        <ele>1395</ele>
        <time>2012-01-03T12:30:42Z</time>
      </trkpt>
      <trkpt lat="44.39603" lon="3.8892">
        <ele>1395</ele>
        <time>2012-01-03T12:30:43Z</time>
      </trkpt>
      <trkpt lat="44.39604" lon="3.88918">
        <ele>1395</ele>
        <time>2012-01-03T12:30:48Z</time>
      </trkpt>
      <trkpt lat="44.39608" lon="3.88917">
        <ele>1395</ele>
        <time>2012-01-03T12:30:49Z</time>
      </trkpt>
      <trkpt lat="44.3961" lon="3.88916">
        <ele>1395</ele>
        <time>2012-01-03T12:30:56Z</time>
      </trkpt>
      <trkpt lat="44.39613" lon="3.88911">
        <ele>1395</ele>
        <time>2012-01-03T12:31:02Z</time>
      </trkpt>
      <trkpt lat="44.39614" lon="3.8891">
        <ele>1394</ele>
        <time>2012-01-03T12:31:09Z</time>
      </trkpt>
      <trkpt lat="44.39615" lon="3.88907">
        <ele>1393</ele>
        <time>2012-01-03T12:31:10Z</time>
      </trkpt>
      <trkpt lat="44.39618" lon="3.88905">
        <ele>1391</ele>
        <time>2012-01-03T12:31:13Z</time>
      </trkpt>
      <trkpt lat="44.3962" lon="3.88903">
        <ele>1391</ele>
        <time>2012-01-03T12:31:17Z</time>
      </trkpt>
      <trkpt lat="44.39623" lon="3.88901">
        <ele>1390</ele>
        <time>2012-01-03T12:31:18Z</time>
      </trkpt>
      <trkpt lat="44.39626" lon="3.88899">
        <ele>1390</ele>
        <time>2012-01-03T12:31:25Z</time>
      </trkpt>
      <trkpt lat="44.39629" lon="3.88898">
        <ele>1389</ele>
        <time>2012-01-03T12:31:25Z</time>
      </trkpt>
      <trkpt lat="44.3963" lon="3.88896">
        <ele>1388</ele>
        <time>2012-01-03T12:31:32Z</time>
      </trkpt>
      <trkpt lat="44.39634" lon="3.88893">
        <ele>1387</ele>
        <time>2012-01-03T12:31:34Z</time>
      </trkpt>
      <trkpt lat="44.39635" lon="3.88892">
        <ele>1386</ele>
        <time>2012-01-03T12:31:35Z</time>
      </trkpt>
      <trkpt lat="44.39636" lon="3.88889">
        <ele>1385</ele>
        <time>2012-01-03T12:31:40Z</time>
      </trkpt>
      <trkpt lat="44.39637" lon="3.88885">
        <ele>1384</ele>
        <time>2012-01-03T12:31:42Z</time>
      </trkpt>
      <trkpt lat="44.39638" lon="3.88883">
        <ele>1384</ele>
        <time>2012-01-03T12:31:43Z</time>
      </trkpt>
      <trkpt lat="44.39638" lon="3.88879">
        <ele>1384</ele>
        <time>2012-01-03T12:31:48Z</time>
      </trkpt>
      <trkpt lat="44.39638" lon="3.88878">
        <ele>1383</ele>
        <time>2012-01-03T12:31:50Z</time>
      </trkpt>
      <trkpt lat="44.39639" lon="3.88875">
        <ele>1382</ele>
        <time>2012-01-03T12:31:55Z</time>
      </trkpt>
      <trkpt lat="44.3964" lon="3.88873">
        <ele>1381</ele>
        <time>2012-01-03T12:31:55Z</time>
      </trkpt>
      <trkpt lat="44.39641" lon="3.8887">
        <ele>1380</ele>
        <time>2012-01-03T12:31:56Z</time>
      </trkpt>
      <trkpt lat="44.39642" lon="3.88866">
        <ele>1380</ele>
        <time>2012-01-03T12:31:58Z</time>
      </trkpt>
      <trkpt lat="44.39644" lon="3.8886">
        <ele>1379</ele>
        <time>2012-01-03T12:32:02Z</time>
      </trkpt>
      <trkpt lat="44.39645" lon="3.88857">
        <ele>1379</ele>
        <time>2012-01-03T12:32:02Z</time>
      </trkpt>
      <trkpt lat="44.39647" lon="3.88852">
        <ele>1378</ele>
        <time>2012-01-03T12:32:09Z</time>
      </trkpt>
      <trkpt lat="44.3965" lon="3.88848">
        <ele>1378</ele>
        <time>2012-01-03T12:32:11Z</time>
      </trkpt>
      <trkpt lat="44.3965" lon="3.88851">
        <ele>1378</ele>
        <time>2012-01-03T12:32:17Z</time>
      </trkpt>
      <trkpt lat="44.39651" lon="3.88855">
        <ele>1378</ele>
        <time>2012-01-03T12:32:18Z</time>
      </trkpt>
      <trkpt lat="44.39651" lon="3.88857">
        <ele>1378</ele>
        <time>2012-01-03T12:32:19Z</time>
      </trkpt>
      <trkpt lat="44.39654" lon="3.88861">
        <ele>1378</ele>
        <time>2012-01-03T12:32:23Z</time>
      </trkpt>
      <trkpt lat="44.3966" lon="3.88858">
        <ele>1378</ele>
        <time>2012-01-03T12:32:24Z</time>
      </trkpt>
      <trkpt lat="44.3966" lon="3.88853">
        <ele>1378</ele>
        <time>2012-01-03T12:32:25Z</time>
      </trkpt>
      <trkpt lat="44.39661" lon="3.88848">
        <ele>1378</ele>
        <time>2012-01-03T12:32:25Z</time>
      </trkpt>
      <trkpt lat="44.39663" lon="3.88838">
        <ele>1378</ele>
        <time>2012-01-03T12:32:29Z</time>
      </trkpt>
      <trkpt lat="44.39666" lon="3.88818">
        <ele>1378</ele>
        <time>2012-01-03T12:32:30Z</time>
      </trkpt>
      <trkpt lat="44.39667" lon="3.8881">
        <ele>1378</ele>
        <time>2012-01-03T12:32:31Z</time>
      </trkpt>
      <trkpt lat="44.39673" lon="3.88776">
        <ele>1377</ele>
        <time>2012-01-03T12:32:35Z</time>
      </trkpt>
      <trkpt lat="44.39674" lon="3.88766">
        <ele>1376</ele>
        <time>2012-01-03T12:32:36Z</time>
      </trkpt>
      <trkpt lat="44.39676" lon="3.88757">
        <ele>1375</ele>
        <time>2012-01-03T12:32:37Z</time>
      </trkpt>
      <trkpt lat="44.39679" lon="3.88736">
        <ele>1374</ele>
        <time>2012-01-03T12:32:41Z</time>
      </trkpt>
      <trkpt lat="44.39685" lon="3.88705">
        <ele>1373</ele>
        <time>2012-01-03T12:32:42Z</time>
      </trkpt>
      <trkpt lat="44.39686" lon="3.88695">
        <ele>1372</ele>
        <time>2012-01-03T12:32:43Z</time>
      </trkpt>
      <trkpt lat="44.39688" lon="3.88671">
        <ele>1371</ele>
        <time>2012-01-03T12:32:47Z</time>
      </trkpt>
      <trkpt lat="44.39688" lon="3.88636">
        <ele>1370</ele>
        <time>2012-01-03T12:32:48Z</time>
      </trkpt>
      <trkpt lat="44.39688" lon="3.88625">
        <ele>1369</ele>
        <time>2012-01-03T12:32:49Z</time>
      </trkpt>
      <trkpt lat="44.39689" lon="3.88603">
        <ele>1368</ele>
        <time>2012-01-03T12:32:53Z</time>
      </trkpt>
      <trkpt lat="44.39699" lon="3.88574">
        <ele>1366</ele>
        <time>2012-01-03T12:32:54Z</time>
      </trkpt>
      <trkpt lat="44.39703" lon="3.88566">
        <ele>1364</ele>
        <time>2012-01-03T12:32:56Z</time>
      </trkpt>
      <trkpt lat="44.39708" lon="3.8856">
        <ele>1363</ele>
        <time>2012-01-03T12:32:57Z</time>
      </trkpt>
      <trkpt lat="44.39717" lon="3.8855">
        <ele>1361</ele>
        <time>2012-01-03T12:33:01Z</time>
      </trkpt>
      <trkpt lat="44.39726" lon="3.88539">
        <ele>1360</ele>
        <time>2012-01-03T12:33:01Z</time>
      </trkpt>
      <trkpt lat="44.39728" lon="3.88537">
        <ele>1359</ele>
        <time>2012-01-03T12:33:02Z</time>
      </trkpt>
      <trkpt lat="44.39729" lon="3.88537">
        <ele>1356</ele>
        <time>2012-01-03T12:33:12Z</time>
      </trkpt>
      <trkpt lat="44.3973" lon="3.8853">
        <ele>1354</ele>
        <time>2012-01-03T12:33:18Z</time>
      </trkpt>
      <trkpt lat="44.39731" lon="3.88531">
        <ele>1354</ele>
        <time>2012-01-03T12:33:25Z</time>
      </trkpt>
      <trkpt lat="44.39732" lon="3.88531">
        <ele>1354</ele>
        <time>2012-01-03T12:33:26Z</time>
      </trkpt>
      <trkpt lat="44.39737" lon="3.88527">
        <ele>1354</ele>
        <time>2012-01-03T12:33:33Z</time>
      </trkpt>
      <trkpt lat="44.39743" lon="3.88517">
        <ele>1354</ele>
        <time>2012-01-03T12:33:33Z</time>
      </trkpt>
      <trkpt lat="44.39746" lon="3.88514">
        <ele>1354</ele>
        <time>2012-01-03T12:33:34Z</time>
      </trkpt>
      <trkpt lat="44.39753" lon="3.88507">
        <ele>1354</ele>
        <time>2012-01-03T12:33:38Z</time>
      </trkpt>
      <trkpt lat="44.39766" lon="3.88495">
        <ele>1354</ele>
        <time>2012-01-03T12:33:39Z</time>
      </trkpt>
      <trkpt lat="44.3977" lon="3.8849">
        <ele>1353</ele>
        <time>2012-01-03T12:33:40Z</time>
      </trkpt>
      <trkpt lat="44.39779" lon="3.88482">
        <ele>1352</ele>
        <time>2012-01-03T12:33:44Z</time>
      </trkpt>
      <trkpt lat="44.39795" lon="3.8847">
        <ele>1351</ele>
        <time>2012-01-03T12:33:45Z</time>
      </trkpt>
      <trkpt lat="44.39799" lon="3.88467">
        <ele>1350</ele>
        <time>2012-01-03T12:33:46Z</time>
      </trkpt>
      <trkpt lat="44.39807" lon="3.8846">
        <ele>1349</ele>
        <time>2012-01-03T12:33:50Z</time>
      </trkpt>
      <trkpt lat="44.3982" lon="3.88448">
        <ele>1348</ele>
        <time>2012-01-03T12:33:51Z</time>
      </trkpt>
      <trkpt lat="44.39824" lon="3.88446">
        <ele>1347</ele>
        <time>2012-01-03T12:33:52Z</time>
      </trkpt>
      <trkpt lat="44.39828" lon="3.88448">
        <ele>1346</ele>
        <time>2012-01-03T12:33:56Z</time>
      </trkpt>
      <trkpt lat="44.39825" lon="3.88455">
        <ele>1345</ele>
        <time>2012-01-03T12:33:57Z</time>
      </trkpt>
      <trkpt lat="44.39823" lon="3.88457">
        <ele>1344</ele>
        <time>2012-01-03T12:33:58Z</time>
      </trkpt>
      <trkpt lat="44.39822" lon="3.88459">
        <ele>1343</ele>
        <time>2012-01-03T12:33:59Z</time>
      </trkpt>
      <trkpt lat="44.39817" lon="3.88465">
        <ele>1342</ele>
        <time>2012-01-03T12:34:03Z</time>
      </trkpt>
      <trkpt lat="44.39805" lon="3.88477">
        <ele>1341</ele>
        <time>2012-01-03T12:34:04Z</time>
      </trkpt>
      <trkpt lat="44.39801" lon="3.88481">
        <ele>1340</ele>
        <time>2012-01-03T12:34:05Z</time>
      </trkpt>
      <trkpt lat="44.39792" lon="3.88491">
        <ele>1339</ele>
        <time>2012-01-03T12:34:09Z</time>
      </trkpt>
      <trkpt lat="44.39779" lon="3.88509">
        <ele>1339</ele>
        <time>2012-01-03T12:34:10Z</time>
      </trkpt>
      <trkpt lat="44.39774" lon="3.88516">
        <ele>1339</ele>
        <time>2012-01-03T12:34:12Z</time>
      </trkpt>
      <trkpt lat="44.39768" lon="3.8853">
        <ele>1339</ele>
        <time>2012-01-03T12:34:16Z</time>
      </trkpt>
      <trkpt lat="44.39762" lon="3.88554">
        <ele>1339</ele>
        <time>2012-01-03T12:34:16Z</time>
      </trkpt>
      <trkpt lat="44.39759" lon="3.88561">
        <ele>1339</ele>
        <time>2012-01-03T12:34:18Z</time>
      </trkpt>
      <trkpt lat="44.39752" lon="3.88573">
        <ele>1339</ele>
        <time>2012-01-03T12:34:22Z</time>
      </trkpt>
      <trkpt lat="44.39744" lon="3.88596">
        <ele>1339</ele>
        <time>2012-01-03T12:34:22Z</time>
      </trkpt>
      <trkpt lat="44.39743" lon="3.88604">
        <ele>1339</ele>
        <time>2012-01-03T12:34:23Z</time>
      </trkpt>
      <trkpt lat="44.39743" lon="3.88609">
        <ele>1339</ele>
        <time>2012-01-03T12:34:25Z</time>
      </trkpt>
      <trkpt lat="44.39745" lon="3.88619">
        <ele>1339</ele>
        <time>2012-01-03T12:34:29Z</time>
      </trkpt>
      <trkpt lat="44.39749" lon="3.88635">
        <ele>1339</ele>
        <time>2012-01-03T12:34:29Z</time>
      </trkpt>
      <trkpt lat="44.39751" lon="3.88642">
        <ele>1339</ele>
        <time>2012-01-03T12:34:30Z</time>
      </trkpt>
      <trkpt lat="44.39751" lon="3.88655">
        <ele>1338</ele>
        <time>2012-01-03T12:34:35Z</time>
      </trkpt>
      <trkpt lat="44.39751" lon="3.88676">
        <ele>1337</ele>
        <time>2012-01-03T12:34:35Z</time>
      </trkpt>
      <trkpt lat="44.3975" lon="3.88683">
        <ele>1337</ele>
        <time>2012-01-03T12:34:36Z</time>
      </trkpt>
      <trkpt lat="44.3975" lon="3.88695">
        <ele>1336</ele>
        <time>2012-01-03T12:34:41Z</time>
      </trkpt>
      <trkpt lat="44.39754" lon="3.88714">
        <ele>1336</ele>
        <time>2012-01-03T12:34:41Z</time>
      </trkpt>
      <trkpt lat="44.39757" lon="3.88719">
        <ele>1335</ele>
        <time>2012-01-03T12:34:43Z</time>
      </trkpt>
      <trkpt lat="44.39759" lon="3.88725">
        <ele>1334</ele>
        <time>2012-01-03T12:34:44Z</time>
      </trkpt>
      <trkpt lat="44.39764" lon="3.88738">
        <ele>1334</ele>
        <time>2012-01-03T12:34:48Z</time>
      </trkpt>
      <trkpt lat="44.39769" lon="3.88765">
        <ele>1333</ele>
        <time>2012-01-03T12:34:48Z</time>
      </trkpt>
      <trkpt lat="44.3977" lon="3.88773">
        <ele>1333</ele>
        <time>2012-01-03T12:34:49Z</time>
      </trkpt>
      <trkpt lat="44.39776" lon="3.88791">
        <ele>1332</ele>
        <time>2012-01-03T12:34:54Z</time>
      </trkpt>
      <trkpt lat="44.39785" lon="3.88816">
        <ele>1331</ele>
        <time>2012-01-03T12:34:54Z</time>
      </trkpt>
      <trkpt lat="44.39787" lon="3.88826">
        <ele>1330</ele>
        <time>2012-01-03T12:34:55Z</time>
      </trkpt>
      <trkpt lat="44.39787" lon="3.88836">
        <ele>1329</ele>
        <time>2012-01-03T12:34:56Z</time>
      </trkpt>
      <trkpt lat="44.39786" lon="3.88854">
        <ele>1329</ele>
        <time>2012-01-03T12:35:00Z</time>
      </trkpt>
      <trkpt lat="44.39791" lon="3.88881">
        <ele>1328</ele>
        <time>2012-01-03T12:35:01Z</time>
      </trkpt>
      <trkpt lat="44.39793" lon="3.8889">
        <ele>1327</ele>
        <time>2012-01-03T12:35:02Z</time>
      </trkpt>
      <trkpt lat="44.39795" lon="3.88897">
        <ele>1326</ele>
        <time>2012-01-03T12:35:04Z</time>
      </trkpt>
      <trkpt lat="44.398" lon="3.88914">
        <ele>1325</ele>
        <time>2012-01-03T12:35:08Z</time>
      </trkpt>
      <trkpt lat="44.39807" lon="3.88939">
        <ele>1324</ele>
        <time>2012-01-03T12:35:08Z</time>
      </trkpt>
      <trkpt lat="44.39809" lon="3.88947">
        <ele>1323</ele>
        <time>2012-01-03T12:35:09Z</time>
      </trkpt>
      <trkpt lat="44.39811" lon="3.88964">
        <ele>1322</ele>
        <time>2012-01-03T12:35:14Z</time>
      </trkpt>
      <trkpt lat="44.39809" lon="3.88992">
        <ele>1321</ele>
        <time>2012-01-03T12:35:14Z</time>
      </trkpt>
      <trkpt lat="44.39809" lon="3.89">
        <ele>1320</ele>
        <time>2012-01-03T12:35:15Z</time>
      </trkpt>
      <trkpt lat="44.39808" lon="3.89008">
        <ele>1319</ele>
        <time>2012-01-03T12:35:17Z</time>
      </trkpt>
      <trkpt lat="44.39803" lon="3.89025">
        <ele>1318</ele>
        <time>2012-01-03T12:35:21Z</time>
      </trkpt>
      <trkpt lat="44.39792" lon="3.89048">
        <ele>1317</ele>
        <time>2012-01-03T12:35:21Z</time>
      </trkpt>
      <trkpt lat="44.39787" lon="3.89057">
        <ele>1316</ele>
        <time>2012-01-03T12:35:23Z</time>
      </trkpt>
      <trkpt lat="44.39783" lon="3.89065">
        <ele>1315</ele>
        <time>2012-01-03T12:35:23Z</time>
      </trkpt>
      <trkpt lat="44.39775" lon="3.89081">
        <ele>1314</ele>
        <time>2012-01-03T12:35:27Z</time>
      </trkpt>
      <trkpt lat="44.39764" lon="3.89103">
        <ele>1313</ele>
        <time>2012-01-03T12:35:28Z</time>
      </trkpt>
      <trkpt lat="44.3976" lon="3.89111">
        <ele>1312</ele>
        <time>2012-01-03T12:35:29Z</time>
      </trkpt>
      <trkpt lat="44.39751" lon="3.89125">
        <ele>1312</ele>
        <time>2012-01-03T12:35:33Z</time>
      </trkpt>
      <trkpt lat="44.39738" lon="3.89147">
        <ele>1312</ele>
        <time>2012-01-03T12:35:34Z</time>
      </trkpt>
      <trkpt lat="44.39735" lon="3.89154">
        <ele>1312</ele>
        <time>2012-01-03T12:35:35Z</time>
      </trkpt>
      <trkpt lat="44.39727" lon="3.89167">
        <ele>1312</ele>
        <time>2012-01-03T12:35:39Z</time>
      </trkpt>
      <trkpt lat="44.39713" lon="3.89184">
        <ele>1312</ele>
        <time>2012-01-03T12:35:40Z</time>
      </trkpt>
      <trkpt lat="44.39708" lon="3.8919">
        <ele>1312</ele>
        <time>2012-01-03T12:35:41Z</time>
      </trkpt>
      <trkpt lat="44.39705" lon="3.89205">
        <ele>1312</ele>
        <time>2012-01-03T12:35:45Z</time>
      </trkpt>
      <trkpt lat="44.39703" lon="3.89229">
        <ele>1312</ele>
        <time>2012-01-03T12:35:47Z</time>
      </trkpt>
      <trkpt lat="44.39702" lon="3.89237">
        <ele>1312</ele>
        <time>2012-01-03T12:35:47Z</time>
      </trkpt>
      <trkpt lat="44.39701" lon="3.89246">
        <ele>1312</ele>
        <time>2012-01-03T12:35:49Z</time>
      </trkpt>
      <trkpt lat="44.39697" lon="3.8926">
        <ele>1312</ele>
        <time>2012-01-03T12:35:53Z</time>
      </trkpt>
      <trkpt lat="44.39685" lon="3.89285">
        <ele>1312</ele>
        <time>2012-01-03T12:35:53Z</time>
      </trkpt>
      <trkpt lat="44.39682" lon="3.89296">
        <ele>1312</ele>
        <time>2012-01-03T12:35:55Z</time>
      </trkpt>
      <trkpt lat="44.39676" lon="3.89313">
        <ele>1312</ele>
        <time>2012-01-03T12:35:59Z</time>
      </trkpt>
      <trkpt lat="44.39666" lon="3.89333">
        <ele>1311</ele>
        <time>2012-01-03T12:35:59Z</time>
      </trkpt>
      <trkpt lat="44.39661" lon="3.8934">
        <ele>1310</ele>
        <time>2012-01-03T12:36:00Z</time>
      </trkpt>
      <trkpt lat="44.39656" lon="3.89346">
        <ele>1309</ele>
        <time>2012-01-03T12:36:01Z</time>
      </trkpt>
      <trkpt lat="44.39648" lon="3.8936">
        <ele>1308</ele>
        <time>2012-01-03T12:36:06Z</time>
      </trkpt>
      <trkpt lat="44.39636" lon="3.89381">
        <ele>1306</ele>
        <time>2012-01-03T12:36:06Z</time>
      </trkpt>
      <trkpt lat="44.39632" lon="3.89388">
        <ele>1304</ele>
        <time>2012-01-03T12:36:07Z</time>
      </trkpt>
      <trkpt lat="44.39621" lon="3.89402">
        <ele>1302</ele>
        <time>2012-01-03T12:36:12Z</time>
      </trkpt>
      <trkpt lat="44.39609" lon="3.8942">
        <ele>1300</ele>
        <time>2012-01-03T12:36:12Z</time>
      </trkpt>
      <trkpt lat="44.39606" lon="3.89423">
        <ele>1298</ele>
        <time>2012-01-03T12:36:13Z</time>
      </trkpt>
      <trkpt lat="44.39603" lon="3.89429">
        <ele>1297</ele>
        <time>2012-01-03T12:36:17Z</time>
      </trkpt>
      <trkpt lat="44.39599" lon="3.89439">
        <ele>1295</ele>
        <time>2012-01-03T12:36:18Z</time>
      </trkpt>
      <trkpt lat="44.39597" lon="3.89441">
        <ele>1293</ele>
        <time>2012-01-03T12:36:19Z</time>
      </trkpt>
      <trkpt lat="44.39593" lon="3.89449">
        <ele>1292</ele>
        <time>2012-01-03T12:36:23Z</time>
      </trkpt>
      <trkpt lat="44.39588" lon="3.89467">
        <ele>1290</ele>
        <time>2012-01-03T12:36:24Z</time>
      </trkpt>
      <trkpt lat="44.39586" lon="3.89473">
        <ele>1289</ele>
        <time>2012-01-03T12:36:25Z</time>
      </trkpt>
      <trkpt lat="44.39582" lon="3.89486">
        <ele>1288</ele>
        <time>2012-01-03T12:36:30Z</time>
      </trkpt>
      <trkpt lat="44.39573" lon="3.895">
        <ele>1287</ele>
        <time>2012-01-03T12:36:30Z</time>
      </trkpt>
      <trkpt lat="44.39569" lon="3.89505">
        <ele>1286</ele>
        <time>2012-01-03T12:36:31Z</time>
      </trkpt>
      <trkpt lat="44.39566" lon="3.89511">
        <ele>1285</ele>
        <time>2012-01-03T12:36:33Z</time>
      </trkpt>
      <trkpt lat="44.39559" lon="3.89524">
        <ele>1284</ele>
        <time>2012-01-03T12:36:37Z</time>
      </trkpt>
      <trkpt lat="44.39546" lon="3.89538">
        <ele>1283</ele>
        <time>2012-01-03T12:36:37Z</time>
      </trkpt>
      <trkpt lat="44.39542" lon="3.89541">
        <ele>1282</ele>
        <time>2012-01-03T12:36:38Z</time>
      </trkpt>
      <trkpt lat="44.39536" lon="3.89548">
        <ele>1281</ele>
        <time>2012-01-03T12:36:43Z</time>
      </trkpt>
      <trkpt lat="44.39526" lon="3.89561">
        <ele>1280</ele>
        <time>2012-01-03T12:36:43Z</time>
      </trkpt>
      <trkpt lat="44.39523" lon="3.89564">
        <ele>1280</ele>
        <time>2012-01-03T12:36:44Z</time>
      </trkpt>
      <trkpt lat="44.39518" lon="3.89574">
        <ele>1279</ele>
        <time>2012-01-03T12:36:49Z</time>
      </trkpt>
      <trkpt lat="44.3951" lon="3.89585">
        <ele>1278</ele>
        <time>2012-01-03T12:36:49Z</time>
      </trkpt>
      <trkpt lat="44.39509" lon="3.89588">
        <ele>1277</ele>
        <time>2012-01-03T12:36:50Z</time>
      </trkpt>
      <trkpt lat="44.39508" lon="3.89593">
        <ele>1276</ele>
        <time>2012-01-03T12:36:52Z</time>
      </trkpt>
      <trkpt lat="44.39506" lon="3.89598">
        <ele>1275</ele>
        <time>2012-01-03T12:36:56Z</time>
      </trkpt>
      <trkpt lat="44.39503" lon="3.89608">
        <ele>1274</ele>
        <time>2012-01-03T12:36:57Z</time>
      </trkpt>
      <trkpt lat="44.39501" lon="3.89613">
        <ele>1273</ele>
        <time>2012-01-03T12:37:02Z</time>
      </trkpt>
      <trkpt lat="44.39501" lon="3.8962">
        <ele>1272</ele>
        <time>2012-01-03T12:37:03Z</time>
      </trkpt>
      <trkpt lat="44.39502" lon="3.89619">
        <ele>1269</ele>
        <time>2012-01-03T12:37:04Z</time>
      </trkpt>
      <trkpt lat="44.39505" lon="3.89619">
        <ele>1265</ele>
        <time>2012-01-03T12:37:11Z</time>
      </trkpt>
      <trkpt lat="44.39506" lon="3.89621">
        <ele>1260</ele>
        <time>2012-01-03T12:37:14Z</time>
      </trkpt>
      <trkpt lat="44.39507" lon="3.89622">
        <ele>1258</ele>
        <time>2012-01-03T12:37:17Z</time>
      </trkpt>
      <trkpt lat="44.39508" lon="3.89624">
        <ele>1258</ele>
        <time>2012-01-03T12:37:20Z</time>
      </trkpt>
      <trkpt lat="44.39509" lon="3.89627">
        <ele>1258</ele>
        <time>2012-01-03T12:37:27Z</time>
      </trkpt>
      <trkpt lat="44.39509" lon="3.89632">
        <ele>1258</ele>
        <time>2012-01-03T12:37:28Z</time>
      </trkpt>
      <trkpt lat="44.39509" lon="3.89634">
        <ele>1258</ele>
        <time>2012-01-03T12:37:30Z</time>
      </trkpt>
      <trkpt lat="44.3951" lon="3.89637">
        <ele>1258</ele>
        <time>2012-01-03T12:37:31Z</time>
      </trkpt>
      <trkpt lat="44.39514" lon="3.89652">
        <ele>1258</ele>
        <time>2012-01-03T12:37:32Z</time>
      </trkpt>
      <trkpt lat="44.39517" lon="3.89661">
        <ele>1258</ele>
        <time>2012-01-03T12:37:33Z</time>
      </trkpt>
      <trkpt lat="44.39519" lon="3.89668">
        <ele>1258</ele>
        <time>2012-01-03T12:37:34Z</time>
      </trkpt>
      <trkpt lat="44.39521" lon="3.89675">
        <ele>1258</ele>
        <time>2012-01-03T12:37:35Z</time>
      </trkpt>
      <trkpt lat="44.39522" lon="3.8968">
        <ele>1258</ele>
        <time>2012-01-03T12:37:36Z</time>
      </trkpt>
      <trkpt lat="44.39523" lon="3.89684">
        <ele>1258</ele>
        <time>2012-01-03T12:37:37Z</time>
      </trkpt>
      <trkpt lat="44.39524" lon="3.89686">
        <ele>1258</ele>
        <time>2012-01-03T12:37:38Z</time>
      </trkpt>
      <trkpt lat="44.39527" lon="3.89689">
        <ele>1258</ele>
        <time>2012-01-03T12:37:39Z</time>
      </trkpt>
      <trkpt lat="44.3953" lon="3.89692">
        <ele>1258</ele>
        <time>2012-01-03T12:37:41Z</time>
      </trkpt>
      <trkpt lat="44.39533" lon="3.89696">
        <ele>1258</ele>
        <time>2012-01-03T12:37:41Z</time>
      </trkpt>
      <trkpt lat="44.39537" lon="3.897">
        <ele>1258</ele>
        <time>2012-01-03T12:37:42Z</time>
      </trkpt>
      <trkpt lat="44.39541" lon="3.89704">
        <ele>1258</ele>
        <time>2012-01-03T12:37:43Z</time>
      </trkpt>
      <trkpt lat="44.39545" lon="3.89707">
        <ele>1258</ele>
        <time>2012-01-03T12:37:44Z</time>
      </trkpt>
      <trkpt lat="44.39548" lon="3.89709">
        <ele>1258</ele>
        <time>2012-01-03T12:37:45Z</time>
      </trkpt>
      <trkpt lat="44.39551" lon="3.89709">
        <ele>1258</ele>
        <time>2012-01-03T12:37:46Z</time>
      </trkpt>
      <trkpt lat="44.39552" lon="3.89708">
        <ele>1258</ele>
        <time>2012-01-03T12:37:47Z</time>
      </trkpt>
      <trkpt lat="44.39555" lon="3.89708">
        <ele>1258</ele>
        <time>2012-01-03T12:37:50Z</time>
      </trkpt>
      <trkpt lat="44.39556" lon="3.8971">
        <ele>1258</ele>
        <time>2012-01-03T12:37:52Z</time>
      </trkpt>
      <trkpt lat="44.39557" lon="3.89711">
        <ele>1258</ele>
        <time>2012-01-03T12:37:54Z</time>
      </trkpt>
      <trkpt lat="44.39556" lon="3.8971">
        <ele>1258</ele>
        <time>2012-01-03T12:37:58Z</time>
      </trkpt>
      <trkpt lat="44.39557" lon="3.89709">
        <ele>1258</ele>
        <time>2012-01-03T12:38:01Z</time>
      </trkpt>
      <trkpt lat="44.39558" lon="3.89709">
        <ele>1258</ele>
        <time>2012-01-03T12:38:02Z</time>
      </trkpt>
      <trkpt lat="44.3956" lon="3.89711">
        <ele>1258</ele>
        <time>2012-01-03T12:38:04Z</time>
      </trkpt>
      <trkpt lat="44.39562" lon="3.89713">
        <ele>1258</ele>
        <time>2012-01-03T12:38:05Z</time>
      </trkpt>
      <trkpt lat="44.39565" lon="3.89714">
        <ele>1258</ele>
        <time>2012-01-03T12:38:06Z</time>
      </trkpt>
      <trkpt lat="44.39567" lon="3.89714">
        <ele>1258</ele>
        <time>2012-01-03T12:38:07Z</time>
      </trkpt>
      <trkpt lat="44.39572" lon="3.89715">
        <ele>1258</ele>
        <time>2012-01-03T12:38:08Z</time>
      </trkpt>
      <trkpt lat="44.39576" lon="3.89716">
        <ele>1258</ele>
        <time>2012-01-03T12:38:09Z</time>
      </trkpt>
      <trkpt lat="44.3958" lon="3.89716">
        <ele>1258</ele>
        <time>2012-01-03T12:38:10Z</time>
      </trkpt>
      <trkpt lat="44.39585" lon="3.89716">
        <ele>1258</ele>
        <time>2012-01-03T12:38:11Z</time>
      </trkpt>
      <trkpt lat="44.39588" lon="3.89716">
        <ele>1258</ele>
        <time>2012-01-03T12:38:12Z</time>
      </trkpt>
      <trkpt lat="44.39591" lon="3.89716">
        <ele>1258</ele>
        <time>2012-01-03T12:38:13Z</time>
      </trkpt>
      <trkpt lat="44.39594" lon="3.89716">
        <ele>1258</ele>
        <time>2012-01-03T12:38:14Z</time>
      </trkpt>
      <trkpt lat="44.39598" lon="3.89715">
        <ele>1258</ele>
        <time>2012-01-03T12:38:15Z</time>
      </trkpt>
      <trkpt lat="44.39602" lon="3.89716">
        <ele>1258</ele>
        <time>2012-01-03T12:38:16Z</time>
      </trkpt>
      <trkpt lat="44.39607" lon="3.89716">
        <ele>1258</ele>
        <time>2012-01-03T12:38:17Z</time>
      </trkpt>
      <trkpt lat="44.3961" lon="3.89717">
        <ele>1258</ele>
        <time>2012-01-03T12:38:18Z</time>
      </trkpt>
      <trkpt lat="44.39614" lon="3.89718">
        <ele>1257</ele>
        <time>2012-01-03T12:38:19Z</time>
      </trkpt>
      <trkpt lat="44.39619" lon="3.8972">
        <ele>1256</ele>
        <time>2012-01-03T12:38:20Z</time>
      </trkpt>
      <trkpt lat="44.39623" lon="3.89721">
        <ele>1255</ele>
        <time>2012-01-03T12:38:21Z</time>
      </trkpt>
      <trkpt lat="44.39627" lon="3.89721">
        <ele>1254</ele>
        <time>2012-01-03T12:38:22Z</time>
      </trkpt>
      <trkpt lat="44.39631" lon="3.89722">
        <ele>1254</ele>
        <time>2012-01-03T12:38:23Z</time>
      </trkpt>
      <trkpt lat="44.39635" lon="3.89723">
        <ele>1253</ele>
        <time>2012-01-03T12:38:24Z</time>
      </trkpt>
      <trkpt lat="44.39638" lon="3.89723">
        <ele>1253</ele>
        <time>2012-01-03T12:38:25Z</time>
      </trkpt>
      <trkpt lat="44.39642" lon="3.89725">
        <ele>1252</ele>
        <time>2012-01-03T12:38:26Z</time>
      </trkpt>
      <trkpt lat="44.39646" lon="3.89728">
        <ele>1251</ele>
        <time>2012-01-03T12:38:27Z</time>
      </trkpt>
      <trkpt lat="44.3965" lon="3.8973">
        <ele>1250</ele>
        <time>2012-01-03T12:38:28Z</time>
      </trkpt>
      <trkpt lat="44.39653" lon="3.89733">
        <ele>1249</ele>
        <time>2012-01-03T12:38:29Z</time>
      </trkpt>
      <trkpt lat="44.39657" lon="3.89734">
        <ele>1249</ele>
        <time>2012-01-03T12:38:30Z</time>
      </trkpt>
      <trkpt lat="44.39661" lon="3.89735">
        <ele>1248</ele>
        <time>2012-01-03T12:38:31Z</time>
      </trkpt>
      <trkpt lat="44.39665" lon="3.89735">
        <ele>1247</ele>
        <time>2012-01-03T12:38:32Z</time>
      </trkpt>
      <trkpt lat="44.39669" lon="3.89735">
        <ele>1247</ele>
        <time>2012-01-03T12:38:33Z</time>
      </trkpt>
      <trkpt lat="44.39674" lon="3.89736">
        <ele>1247</ele>
        <time>2012-01-03T12:38:34Z</time>
      </trkpt>
      <trkpt lat="44.39679" lon="3.89736">
        <ele>1247</ele>
        <time>2012-01-03T12:38:35Z</time>
      </trkpt>
      <trkpt lat="44.39684" lon="3.89738">
        <ele>1247</ele>
        <time>2012-01-03T12:38:36Z</time>
      </trkpt>
      <trkpt lat="44.39688" lon="3.89739">
        <ele>1247</ele>
        <time>2012-01-03T12:38:37Z</time>
      </trkpt>
      <trkpt lat="44.39693" lon="3.8974">
        <ele>1247</ele>
        <time>2012-01-03T12:38:38Z</time>
      </trkpt>
      <trkpt lat="44.39696" lon="3.89741">
        <ele>1247</ele>
        <time>2012-01-03T12:38:39Z</time>
      </trkpt>
      <trkpt lat="44.397" lon="3.89742">
        <ele>1247</ele>
        <time>2012-01-03T12:38:40Z</time>
      </trkpt>
      <trkpt lat="44.39705" lon="3.89744">
        <ele>1247</ele>
        <time>2012-01-03T12:38:41Z</time>
      </trkpt>
      <trkpt lat="44.3971" lon="3.89746">
        <ele>1247</ele>
        <time>2012-01-03T12:38:42Z</time>
      </trkpt>
      <trkpt lat="44.39714" lon="3.89748">
        <ele>1246</ele>
        <time>2012-01-03T12:38:43Z</time>
      </trkpt>
      <trkpt lat="44.39719" lon="3.8975">
        <ele>1246</ele>
        <time>2012-01-03T12:38:44Z</time>
      </trkpt>
      <trkpt lat="44.39724" lon="3.89753">
        <ele>1245</ele>
        <time>2012-01-03T12:38:45Z</time>
      </trkpt>
      <trkpt lat="44.39729" lon="3.89755">
        <ele>1244</ele>
        <time>2012-01-03T12:38:46Z</time>
      </trkpt>
      <trkpt lat="44.39735" lon="3.89757">
        <ele>1243</ele>
        <time>2012-01-03T12:38:47Z</time>
      </trkpt>
      <trkpt lat="44.3974" lon="3.8976">
        <ele>1243</ele>
        <time>2012-01-03T12:38:48Z</time>
      </trkpt>
      <trkpt lat="44.39744" lon="3.89763">
        <ele>1242</ele>
        <time>2012-01-03T12:38:49Z</time>
      </trkpt>
      <trkpt lat="44.39749" lon="3.89764">
        <ele>1241</ele>
        <time>2012-01-03T12:38:50Z</time>
      </trkpt>
      <trkpt lat="44.39753" lon="3.89767">
        <ele>1240</ele>
        <time>2012-01-03T12:38:51Z</time>
      </trkpt>
      <trkpt lat="44.39758" lon="3.89769">
        <ele>1239</ele>
        <time>2012-01-03T12:38:52Z</time>
      </trkpt>
      <trkpt lat="44.39763" lon="3.89771">
        <ele>1238</ele>
        <time>2012-01-03T12:38:53Z</time>
      </trkpt>
      <trkpt lat="44.39769" lon="3.89773">
        <ele>1237</ele>
        <time>2012-01-03T12:38:54Z</time>
      </trkpt>
      <trkpt lat="44.39774" lon="3.89774">
        <ele>1236</ele>
        <time>2012-01-03T12:38:55Z</time>
      </trkpt>
      <trkpt lat="44.39778" lon="3.89775">
        <ele>1235</ele>
        <time>2012-01-03T12:38:56Z</time>
      </trkpt>
      <trkpt lat="44.39782" lon="3.89778">
        <ele>1234</ele>
        <time>2012-01-03T12:38:57Z</time>
      </trkpt>
      <trkpt lat="44.39786" lon="3.8978">
        <ele>1233</ele>
        <time>2012-01-03T12:38:58Z</time>
      </trkpt>
      <trkpt lat="44.3979" lon="3.89782">
        <ele>1233</ele>
        <time>2012-01-03T12:38:59Z</time>
      </trkpt>
      <trkpt lat="44.39795" lon="3.89784">
        <ele>1232</ele>
        <time>2012-01-03T12:39:00Z</time>
      </trkpt>
      <trkpt lat="44.398" lon="3.89786">
        <ele>1232</ele>
        <time>2012-01-03T12:39:01Z</time>
      </trkpt>
      <trkpt lat="44.39805" lon="3.89789">
        <ele>1232</ele>
        <time>2012-01-03T12:39:02Z</time>
      </trkpt>
      <trkpt lat="44.3981" lon="3.89791">
        <ele>1232</ele>
        <time>2012-01-03T12:39:03Z</time>
      </trkpt>
      <trkpt lat="44.39814" lon="3.89794">
        <ele>1232</ele>
        <time>2012-01-03T12:39:04Z</time>
      </trkpt>
      <trkpt lat="44.39819" lon="3.89796">
        <ele>1232</ele>
        <time>2012-01-03T12:39:05Z</time>
      </trkpt>
      <trkpt lat="44.39824" lon="3.89797">
        <ele>1232</ele>
        <time>2012-01-03T12:39:06Z</time>
      </trkpt>
      <trkpt lat="44.39829" lon="3.89798">
        <ele>1232</ele>
        <time>2012-01-03T12:39:07Z</time>
      </trkpt>
      <trkpt lat="44.39834" lon="3.898">
        <ele>1232</ele>
        <time>2012-01-03T12:39:08Z</time>
      </trkpt>
      <trkpt lat="44.39838" lon="3.89802">
        <ele>1232</ele>
        <time>2012-01-03T12:39:09Z</time>
      </trkpt>
      <trkpt lat="44.39843" lon="3.89805">
        <ele>1232</ele>
        <time>2012-01-03T12:39:10Z</time>
      </trkpt>
      <trkpt lat="44.39848" lon="3.89808">
        <ele>1232</ele>
        <time>2012-01-03T12:39:11Z</time>
      </trkpt>
      <trkpt lat="44.39854" lon="3.89811">
        <ele>1232</ele>
        <time>2012-01-03T12:39:12Z</time>
      </trkpt>
      <trkpt lat="44.39858" lon="3.89813">
        <ele>1232</ele>
        <time>2012-01-03T12:39:13Z</time>
      </trkpt>
      <trkpt lat="44.39864" lon="3.89815">
        <ele>1232</ele>
        <time>2012-01-03T12:39:14Z</time>
      </trkpt>
      <trkpt lat="44.39867" lon="3.89817">
        <ele>1232</ele>
        <time>2012-01-03T12:39:15Z</time>
      </trkpt>
      <trkpt lat="44.39871" lon="3.89819">
        <ele>1232</ele>
        <time>2012-01-03T12:39:16Z</time>
      </trkpt>
      <trkpt lat="44.39874" lon="3.89821">
        <ele>1232</ele>
        <time>2012-01-03T12:39:17Z</time>
      </trkpt>
      <trkpt lat="44.39878" lon="3.89824">
        <ele>1232</ele>
        <time>2012-01-03T12:39:18Z</time>
      </trkpt>
      <trkpt lat="44.39881" lon="3.89828">
        <ele>1232</ele>
        <time>2012-01-03T12:39:19Z</time>
      </trkpt>
      <trkpt lat="44.39885" lon="3.89831">
        <ele>1231</ele>
        <time>2012-01-03T12:39:20Z</time>
      </trkpt>
      <trkpt lat="44.39888" lon="3.89835">
        <ele>1231</ele>
        <time>2012-01-03T12:39:21Z</time>
      </trkpt>
      <trkpt lat="44.3989" lon="3.89839">
        <ele>1230</ele>
        <time>2012-01-03T12:39:22Z</time>
      </trkpt>
      <trkpt lat="44.39893" lon="3.89844">
        <ele>1230</ele>
        <time>2012-01-03T12:39:23Z</time>
      </trkpt>
      <trkpt lat="44.39895" lon="3.89848">
        <ele>1230</ele>
        <time>2012-01-03T12:39:24Z</time>
      </trkpt>
      <trkpt lat="44.39898" lon="3.89852">
        <ele>1229</ele>
        <time>2012-01-03T12:39:25Z</time>
      </trkpt>
      <trkpt lat="44.39901" lon="3.89857">
        <ele>1229</ele>
        <time>2012-01-03T12:39:26Z</time>
      </trkpt>
      <trkpt lat="44.39904" lon="3.89862">
        <ele>1228</ele>
        <time>2012-01-03T12:39:27Z</time>
      </trkpt>
      <trkpt lat="44.39907" lon="3.89868">
        <ele>1228</ele>
        <time>2012-01-03T12:39:28Z</time>
      </trkpt>
      <trkpt lat="44.39909" lon="3.89873">
        <ele>1228</ele>
        <time>2012-01-03T12:39:29Z</time>
      </trkpt>
      <trkpt lat="44.39909" lon="3.89879">
        <ele>1228</ele>
        <time>2012-01-03T12:39:30Z</time>
      </trkpt>
      <trkpt lat="44.39909" lon="3.89886">
        <ele>1228</ele>
        <time>2012-01-03T12:39:32Z</time>
      </trkpt>
      <trkpt lat="44.39907" lon="3.89892">
        <ele>1228</ele>
        <time>2012-01-03T12:39:33Z</time>
      </trkpt>
      <trkpt lat="44.39905" lon="3.89904">
        <ele>1228</ele>
        <time>2012-01-03T12:39:34Z</time>
      </trkpt>
      <trkpt lat="44.39904" lon="3.89912">
        <ele>1228</ele>
        <time>2012-01-03T12:39:35Z</time>
      </trkpt>
      <trkpt lat="44.39903" lon="3.89918">
        <ele>1228</ele>
        <time>2012-01-03T12:39:36Z</time>
      </trkpt>
      <trkpt lat="44.39902" lon="3.89925">
        <ele>1228</ele>
        <time>2012-01-03T12:39:37Z</time>
      </trkpt>
      <trkpt lat="44.399" lon="3.89931">
        <ele>1227</ele>
        <time>2012-01-03T12:39:38Z</time>
      </trkpt>
      <trkpt lat="44.39898" lon="3.89937">
        <ele>1226</ele>
        <time>2012-01-03T12:39:39Z</time>
      </trkpt>
      <trkpt lat="44.39894" lon="3.89944">
        <ele>1226</ele>
        <time>2012-01-03T12:39:40Z</time>
      </trkpt>
      <trkpt lat="44.39891" lon="3.8995">
        <ele>1226</ele>
        <time>2012-01-03T12:39:41Z</time>
      </trkpt>
      <trkpt lat="44.3989" lon="3.89955">
        <ele>1226</ele>
        <time>2012-01-03T12:39:42Z</time>
      </trkpt>
      <trkpt lat="44.39888" lon="3.89962">
        <ele>1226</ele>
        <time>2012-01-03T12:39:43Z</time>
      </trkpt>
      <trkpt lat="44.39887" lon="3.89968">
        <ele>1226</ele>
        <time>2012-01-03T12:39:44Z</time>
      </trkpt>
      <trkpt lat="44.39885" lon="3.89974">
        <ele>1226</ele>
        <time>2012-01-03T12:39:45Z</time>
      </trkpt>
      <trkpt lat="44.39883" lon="3.8998">
        <ele>1226</ele>
        <time>2012-01-03T12:39:46Z</time>
      </trkpt>
      <trkpt lat="44.39883" lon="3.89985">
        <ele>1226</ele>
        <time>2012-01-03T12:39:47Z</time>
      </trkpt>
      <trkpt lat="44.39882" lon="3.89991">
        <ele>1226</ele>
        <time>2012-01-03T12:39:48Z</time>
      </trkpt>
      <trkpt lat="44.39881" lon="3.89996">
        <ele>1226</ele>
        <time>2012-01-03T12:39:49Z</time>
      </trkpt>
      <trkpt lat="44.3988" lon="3.90002">
        <ele>1226</ele>
        <time>2012-01-03T12:39:50Z</time>
      </trkpt>
      <trkpt lat="44.39879" lon="3.90009">
        <ele>1226</ele>
        <time>2012-01-03T12:39:51Z</time>
      </trkpt>
      <trkpt lat="44.39878" lon="3.90016">
        <ele>1227</ele>
        <time>2012-01-03T12:39:52Z</time>
      </trkpt>
      <trkpt lat="44.39877" lon="3.90021">
        <ele>1228</ele>
        <time>2012-01-03T12:39:53Z</time>
      </trkpt>
      <trkpt lat="44.39875" lon="3.90027">
        <ele>1228</ele>
        <time>2012-01-03T12:39:54Z</time>
      </trkpt>
      <trkpt lat="44.39874" lon="3.90033">
        <ele>1228</ele>
        <time>2012-01-03T12:39:55Z</time>
      </trkpt>
      <trkpt lat="44.39873" lon="3.90038">
        <ele>1228</ele>
        <time>2012-01-03T12:39:56Z</time>
      </trkpt>
      <trkpt lat="44.39873" lon="3.90045">
        <ele>1229</ele>
        <time>2012-01-03T12:39:57Z</time>
      </trkpt>
      <trkpt lat="44.39872" lon="3.90052">
        <ele>1229</ele>
        <time>2012-01-03T12:39:58Z</time>
      </trkpt>
      <trkpt lat="44.39872" lon="3.90058">
        <ele>1229</ele>
        <time>2012-01-03T12:39:59Z</time>
      </trkpt>
      <trkpt lat="44.39871" lon="3.90065">
        <ele>1229</ele>
        <time>2012-01-03T12:40:00Z</time>
      </trkpt>
      <trkpt lat="44.3987" lon="3.90072">
        <ele>1230</ele>
        <time>2012-01-03T12:40:01Z</time>
      </trkpt>
      <trkpt lat="44.39869" lon="3.90076">
        <ele>1230</ele>
        <time>2012-01-03T12:40:02Z</time>
      </trkpt>
      <trkpt lat="44.39867" lon="3.90081">
        <ele>1231</ele>
        <time>2012-01-03T12:40:03Z</time>
      </trkpt>
      <trkpt lat="44.39867" lon="3.90086">
        <ele>1231</ele>
        <time>2012-01-03T12:40:04Z</time>
      </trkpt>
      <trkpt lat="44.39866" lon="3.90092">
        <ele>1231</ele>
        <time>2012-01-03T12:40:05Z</time>
      </trkpt>
      <trkpt lat="44.39864" lon="3.90097">
        <ele>1231</ele>
        <time>2012-01-03T12:40:06Z</time>
      </trkpt>
      <trkpt lat="44.39864" lon="3.90104">
        <ele>1231</ele>
        <time>2012-01-03T12:40:07Z</time>
      </trkpt>
      <trkpt lat="44.39865" lon="3.9011">
        <ele>1231</ele>
        <time>2012-01-03T12:40:08Z</time>
      </trkpt>
      <trkpt lat="44.39864" lon="3.90115">
        <ele>1231</ele>
        <time>2012-01-03T12:40:09Z</time>
      </trkpt>
      <trkpt lat="44.39865" lon="3.9012">
        <ele>1231</ele>
        <time>2012-01-03T12:40:10Z</time>
      </trkpt>
      <trkpt lat="44.39864" lon="3.90124">
        <ele>1231</ele>
        <time>2012-01-03T12:40:11Z</time>
      </trkpt>
      <trkpt lat="44.39864" lon="3.90128">
        <ele>1231</ele>
        <time>2012-01-03T12:40:12Z</time>
      </trkpt>
      <trkpt lat="44.39864" lon="3.90132">
        <ele>1231</ele>
        <time>2012-01-03T12:40:14Z</time>
      </trkpt>
      <trkpt lat="44.39866" lon="3.90141">
        <ele>1231</ele>
        <time>2012-01-03T12:40:15Z</time>
      </trkpt>
      <trkpt lat="44.39867" lon="3.90145">
        <ele>1231</ele>
        <time>2012-01-03T12:40:17Z</time>
      </trkpt>
      <trkpt lat="44.39869" lon="3.9015">
        <ele>1231</ele>
        <time>2012-01-03T12:40:17Z</time>
      </trkpt>
      <trkpt lat="44.3987" lon="3.90157">
        <ele>1231</ele>
        <time>2012-01-03T12:40:18Z</time>
      </trkpt>
      <trkpt lat="44.3987" lon="3.90163">
        <ele>1231</ele>
        <time>2012-01-03T12:40:19Z</time>
      </trkpt>
      <trkpt lat="44.39871" lon="3.9017">
        <ele>1231</ele>
        <time>2012-01-03T12:40:20Z</time>
      </trkpt>
      <trkpt lat="44.39872" lon="3.90176">
        <ele>1231</ele>
        <time>2012-01-03T12:40:21Z</time>
      </trkpt>
      <trkpt lat="44.39874" lon="3.90181">
        <ele>1231</ele>
        <time>2012-01-03T12:40:22Z</time>
      </trkpt>
      <trkpt lat="44.39874" lon="3.90184">
        <ele>1231</ele>
        <time>2012-01-03T12:40:23Z</time>
      </trkpt>
      <trkpt lat="44.39876" lon="3.90185">
        <ele>1231</ele>
        <time>2012-01-03T12:40:35Z</time>
      </trkpt>
      <trkpt lat="44.39877" lon="3.90187">
        <ele>1231</ele>
        <time>2012-01-03T12:40:38Z</time>
      </trkpt>
      <trkpt lat="44.39878" lon="3.90188">
        <ele>1231</ele>
        <time>2012-01-03T12:40:40Z</time>
      </trkpt>
      <trkpt lat="44.39878" lon="3.90191">
        <ele>1231</ele>
        <time>2012-01-03T12:40:41Z</time>
      </trkpt>
      <trkpt lat="44.39878" lon="3.90192">
        <ele>1231</ele>
        <time>2012-01-03T12:40:45Z</time>
      </trkpt>
      <trkpt lat="44.39878" lon="3.90194">
        <ele>1231</ele>
        <time>2012-01-03T12:40:47Z</time>
      </trkpt>
      <trkpt lat="44.39879" lon="3.902">
        <ele>1231</ele>
        <time>2012-01-03T12:40:48Z</time>
      </trkpt>
      <trkpt lat="44.39879" lon="3.90204">
        <ele>1231</ele>
        <time>2012-01-03T12:40:49Z</time>
      </trkpt>
      <trkpt lat="44.39879" lon="3.90208">
        <ele>1231</ele>
        <time>2012-01-03T12:40:50Z</time>
      </trkpt>
      <trkpt lat="44.39878" lon="3.90211">
        <ele>1231</ele>
        <time>2012-01-03T12:40:51Z</time>
      </trkpt>
      <trkpt lat="44.39879" lon="3.90215">
        <ele>1231</ele>
        <time>2012-01-03T12:40:52Z</time>
      </trkpt>
      <trkpt lat="44.39879" lon="3.90218">
        <ele>1231</ele>
        <time>2012-01-03T12:40:53Z</time>
      </trkpt>
      <trkpt lat="44.39879" lon="3.90221">
        <ele>1231</ele>
        <time>2012-01-03T12:40:54Z</time>
      </trkpt>
      <trkpt lat="44.39879" lon="3.90223">
        <ele>1231</ele>
        <time>2012-01-03T12:40:57Z</time>
      </trkpt>
      <trkpt lat="44.39879" lon="3.90225">
        <ele>1230</ele>
        <time>2012-01-03T12:40:58Z</time>
      </trkpt>
      <trkpt lat="44.39879" lon="3.90227">
        <ele>1229</ele>
        <time>2012-01-03T12:41:01Z</time>
      </trkpt>
      <trkpt lat="44.39878" lon="3.90228">
        <ele>1228</ele>
        <time>2012-01-03T12:41:04Z</time>
      </trkpt>
      <trkpt lat="44.39877" lon="3.90229">
        <ele>1226</ele>
        <time>2012-01-03T12:41:10Z</time>
      </trkpt>
      <trkpt lat="44.39877" lon="3.9023">
        <ele>1225</ele>
        <time>2012-01-03T12:41:11Z</time>
      </trkpt>
      <trkpt lat="44.39877" lon="3.90233">
        <ele>1224</ele>
        <time>2012-01-03T12:41:13Z</time>
      </trkpt>
      <trkpt lat="44.39878" lon="3.90237">
        <ele>1224</ele>
        <time>2012-01-03T12:41:13Z</time>
      </trkpt>
      <trkpt lat="44.39878" lon="3.90241">
        <ele>1224</ele>
        <time>2012-01-03T12:41:14Z</time>
      </trkpt>
      <trkpt lat="44.3988" lon="3.90245">
        <ele>1224</ele>
        <time>2012-01-03T12:41:16Z</time>
      </trkpt>
      <trkpt lat="44.39882" lon="3.90257">
        <ele>1224</ele>
        <time>2012-01-03T12:41:17Z</time>
      </trkpt>
      <trkpt lat="44.39882" lon="3.90263">
        <ele>1224</ele>
        <time>2012-01-03T12:41:18Z</time>
      </trkpt>
      <trkpt lat="44.39883" lon="3.90269">
        <ele>1224</ele>
        <time>2012-01-03T12:41:20Z</time>
      </trkpt>
      <trkpt lat="44.39883" lon="3.90276">
        <ele>1224</ele>
        <time>2012-01-03T12:41:21Z</time>
      </trkpt>
      <trkpt lat="44.39882" lon="3.90283">
        <ele>1224</ele>
        <time>2012-01-03T12:41:21Z</time>
      </trkpt>
      <trkpt lat="44.39883" lon="3.90289">
        <ele>1224</ele>
        <time>2012-01-03T12:41:22Z</time>
      </trkpt>
      <trkpt lat="44.39883" lon="3.90296">
        <ele>1224</ele>
        <time>2012-01-03T12:41:23Z</time>
      </trkpt>
      <trkpt lat="44.39882" lon="3.90303">
        <ele>1224</ele>
        <time>2012-01-03T12:41:24Z</time>
      </trkpt>
      <trkpt lat="44.39882" lon="3.90311">
        <ele>1224</ele>
        <time>2012-01-03T12:41:25Z</time>
      </trkpt>
      <trkpt lat="44.3988" lon="3.90318">
        <ele>1224</ele>
        <time>2012-01-03T12:41:26Z</time>
      </trkpt>
      <trkpt lat="44.39879" lon="3.90325">
        <ele>1224</ele>
        <time>2012-01-03T12:41:27Z</time>
      </trkpt>
      <trkpt lat="44.39877" lon="3.90332">
        <ele>1224</ele>
        <time>2012-01-03T12:41:28Z</time>
      </trkpt>
      <trkpt lat="44.39876" lon="3.90339">
        <ele>1224</ele>
        <time>2012-01-03T12:41:29Z</time>
      </trkpt>
      <trkpt lat="44.39874" lon="3.90346">
        <ele>1224</ele>
        <time>2012-01-03T12:41:30Z</time>
      </trkpt>
      <trkpt lat="44.39872" lon="3.90353">
        <ele>1224</ele>
        <time>2012-01-03T12:41:31Z</time>
      </trkpt>
      <trkpt lat="44.39869" lon="3.90359">
        <ele>1224</ele>
        <time>2012-01-03T12:41:32Z</time>
      </trkpt>
      <trkpt lat="44.39866" lon="3.90364">
        <ele>1224</ele>
        <time>2012-01-03T12:41:33Z</time>
      </trkpt>
      <trkpt lat="44.39863" lon="3.90369">
        <ele>1224</ele>
        <time>2012-01-03T12:41:35Z</time>
      </trkpt>
      <trkpt lat="44.39858" lon="3.90376">
        <ele>1223</ele>
        <time>2012-01-03T12:41:36Z</time>
      </trkpt>
      <trkpt lat="44.39857" lon="3.90379">
        <ele>1223</ele>
        <time>2012-01-03T12:41:37Z</time>
      </trkpt>
      <trkpt lat="44.39857" lon="3.90381">
        <ele>1223</ele>
        <time>2012-01-03T12:41:38Z</time>
      </trkpt>
      <trkpt lat="44.39857" lon="3.90378">
        <ele>1223</ele>
        <time>2012-01-03T12:41:42Z</time>
      </trkpt>
      <trkpt lat="44.39859" lon="3.90377">
        <ele>1223</ele>
        <time>2012-01-03T12:41:46Z</time>
      </trkpt>
      <trkpt lat="44.3986" lon="3.90376">
        <ele>1223</ele>
        <time>2012-01-03T12:41:48Z</time>
      </trkpt>
      <trkpt lat="44.39861" lon="3.90373">
        <ele>1223</ele>
        <time>2012-01-03T12:41:51Z</time>
      </trkpt>
      <trkpt lat="44.3986" lon="3.90371">
        <ele>1223</ele>
        <time>2012-01-03T12:41:54Z</time>
      </trkpt>
      <trkpt lat="44.39859" lon="3.90372">
        <ele>1223</ele>
        <time>2012-01-03T12:41:57Z</time>
      </trkpt>
      <trkpt lat="44.39859" lon="3.90374">
        <ele>1223</ele>
        <time>2012-01-03T12:42:00Z</time>
      </trkpt>
      <trkpt lat="44.39858" lon="3.90376">
        <ele>1223</ele>
        <time>2012-01-03T12:42:01Z</time>
      </trkpt>
      <trkpt lat="44.39857" lon="3.90378">
        <ele>1223</ele>
        <time>2012-01-03T12:42:04Z</time>
      </trkpt>
      <trkpt lat="44.39857" lon="3.9038">
        <ele>1223</ele>
        <time>2012-01-03T12:42:05Z</time>
      </trkpt>
      <trkpt lat="44.39858" lon="3.90382">
        <ele>1223</ele>
        <time>2012-01-03T12:42:08Z</time>
      </trkpt>
      <trkpt lat="44.39859" lon="3.90384">
        <ele>1223</ele>
        <time>2012-01-03T12:42:11Z</time>
      </trkpt>
      <trkpt lat="44.39861" lon="3.90386">
        <ele>1223</ele>
        <time>2012-01-03T12:42:13Z</time>
      </trkpt>
      <trkpt lat="44.39861" lon="3.90388">
        <ele>1223</ele>
        <time>2012-01-03T12:42:15Z</time>
      </trkpt>
      <trkpt lat="44.3986" lon="3.9039">
        <ele>1223</ele>
        <time>2012-01-03T12:42:18Z</time>
      </trkpt>
      <trkpt lat="44.39859" lon="3.90391">
        <ele>1223</ele>
        <time>2012-01-03T12:42:19Z</time>
      </trkpt>
      <trkpt lat="44.39858" lon="3.90393">
        <ele>1223</ele>
        <time>2012-01-03T12:42:22Z</time>
      </trkpt>
      <trkpt lat="44.39858" lon="3.90395">
        <ele>1223</ele>
        <time>2012-01-03T12:42:26Z</time>
      </trkpt>
      <trkpt lat="44.39859" lon="3.90394">
        <ele>1223</ele>
        <time>2012-01-03T12:42:31Z</time>
      </trkpt>
      <trkpt lat="44.39859" lon="3.90397">
        <ele>1223</ele>
        <time>2012-01-03T12:42:34Z</time>
      </trkpt>
      <trkpt lat="44.3986" lon="3.90399">
        <ele>1222</ele>
        <time>2012-01-03T12:42:35Z</time>
      </trkpt>
      <trkpt lat="44.39861" lon="3.904">
        <ele>1222</ele>
        <time>2012-01-03T12:42:36Z</time>
      </trkpt>
      <trkpt lat="44.39861" lon="3.90402">
        <ele>1222</ele>
        <time>2012-01-03T12:42:39Z</time>
      </trkpt>
      <trkpt lat="44.39862" lon="3.90402">
        <ele>1222</ele>
        <time>2012-01-03T12:42:42Z</time>
      </trkpt>
      <trkpt lat="44.3986" lon="3.90402">
        <ele>1222</ele>
        <time>2012-01-03T12:42:45Z</time>
      </trkpt>
      <trkpt lat="44.39858" lon="3.90401">
        <ele>1222</ele>
        <time>2012-01-03T12:42:46Z</time>
      </trkpt>
      <trkpt lat="44.39856" lon="3.90403">
        <ele>1222</ele>
        <time>2012-01-03T12:42:49Z</time>
      </trkpt>
      <trkpt lat="44.39856" lon="3.90406">
        <ele>1222</ele>
        <time>2012-01-03T12:42:53Z</time>
      </trkpt>
      <trkpt lat="44.39855" lon="3.9041">
        <ele>1222</ele>
        <time>2012-01-03T12:42:56Z</time>
      </trkpt>
      <trkpt lat="44.39854" lon="3.90412">
        <ele>1222</ele>
        <time>2012-01-03T12:42:59Z</time>
      </trkpt>
      <trkpt lat="44.39855" lon="3.90414">
        <ele>1222</ele>
        <time>2012-01-03T12:43:00Z</time>
      </trkpt>
      <trkpt lat="44.39854" lon="3.90415">
        <ele>1222</ele>
        <time>2012-01-03T12:43:02Z</time>
      </trkpt>
      <trkpt lat="44.39853" lon="3.90416">
        <ele>1219</ele>
        <time>2012-01-03T12:43:06Z</time>
      </trkpt>
      <trkpt lat="44.39852" lon="3.90418">
        <ele>1217</ele>
        <time>2012-01-03T12:43:11Z</time>
      </trkpt>
      <trkpt lat="44.39851" lon="3.90419">
        <ele>1217</ele>
        <time>2012-01-03T12:43:14Z</time>
      </trkpt>
      <trkpt lat="44.39851" lon="3.90421">
        <ele>1217</ele>
        <time>2012-01-03T12:43:17Z</time>
      </trkpt>
      <trkpt lat="44.39851" lon="3.90422">
        <ele>1217</ele>
        <time>2012-01-03T12:43:20Z</time>
      </trkpt>
      <trkpt lat="44.39851" lon="3.90424">
        <ele>1217</ele>
        <time>2012-01-03T12:43:25Z</time>
      </trkpt>
      <trkpt lat="44.39853" lon="3.90424">
        <ele>1217</ele>
        <time>2012-01-03T12:43:30Z</time>
      </trkpt>
      <trkpt lat="44.39854" lon="3.90426">
        <ele>1216</ele>
        <time>2012-01-03T12:43:32Z</time>
      </trkpt>
      <trkpt lat="44.39854" lon="3.90427">
        <ele>1216</ele>
        <time>2012-01-03T12:43:34Z</time>
      </trkpt>
      <trkpt lat="44.39855" lon="3.90432">
        <ele>1215</ele>
        <time>2012-01-03T12:43:35Z</time>
      </trkpt>
      <trkpt lat="44.39855" lon="3.90434">
        <ele>1215</ele>
        <time>2012-01-03T12:43:36Z</time>
      </trkpt>
      <trkpt lat="44.39855" lon="3.90435">
        <ele>1215</ele>
        <time>2012-01-03T12:43:37Z</time>
      </trkpt>
      <trkpt lat="44.39855" lon="3.90437">
        <ele>1214</ele>
        <time>2012-01-03T12:43:38Z</time>
      </trkpt>
      <trkpt lat="44.39856" lon="3.90438">
        <ele>1214</ele>
        <time>2012-01-03T12:43:41Z</time>
      </trkpt>
      <trkpt lat="44.39858" lon="3.90437">
        <ele>1214</ele>
        <time>2012-01-03T12:43:43Z</time>
      </trkpt>
      <trkpt lat="44.39859" lon="3.90437">
        <ele>1214</ele>
        <time>2012-01-03T12:43:44Z</time>
      </trkpt>
      <trkpt lat="44.3986" lon="3.90438">
        <ele>1213</ele>
        <time>2012-01-03T12:43:45Z</time>
      </trkpt>
      <trkpt lat="44.39862" lon="3.90437">
        <ele>1212</ele>
        <time>2012-01-03T12:43:46Z</time>
      </trkpt>
      <trkpt lat="44.39863" lon="3.90436">
        <ele>1212</ele>
        <time>2012-01-03T12:43:47Z</time>
      </trkpt>
      <trkpt lat="44.39863" lon="3.90434">
        <ele>1211</ele>
        <time>2012-01-03T12:43:49Z</time>
      </trkpt>
      <trkpt lat="44.39865" lon="3.90431">
        <ele>1210</ele>
        <time>2012-01-03T12:43:51Z</time>
      </trkpt>
      <trkpt lat="44.39867" lon="3.9043">
        <ele>1209</ele>
        <time>2012-01-03T12:43:52Z</time>
      </trkpt>
      <trkpt lat="44.39869" lon="3.90427">
        <ele>1208</ele>
        <time>2012-01-03T12:43:53Z</time>
      </trkpt>
      <trkpt lat="44.39871" lon="3.90425">
        <ele>1207</ele>
        <time>2012-01-03T12:43:54Z</time>
      </trkpt>
      <trkpt lat="44.39873" lon="3.90424">
        <ele>1206</ele>
        <time>2012-01-03T12:43:56Z</time>
      </trkpt>
      <trkpt lat="44.39875" lon="3.90423">
        <ele>1205</ele>
        <time>2012-01-03T12:43:56Z</time>
      </trkpt>
      <trkpt lat="44.39876" lon="3.90422">
        <ele>1204</ele>
        <time>2012-01-03T12:43:58Z</time>
      </trkpt>
      <trkpt lat="44.39877" lon="3.90422">
        <ele>1203</ele>
        <time>2012-01-03T12:43:59Z</time>
      </trkpt>
      <trkpt lat="44.39879" lon="3.90422">
        <ele>1202</ele>
        <time>2012-01-03T12:44:00Z</time>
      </trkpt>
      <trkpt lat="44.3988" lon="3.90422">
        <ele>1201</ele>
        <time>2012-01-03T12:44:01Z</time>
      </trkpt>
      <trkpt lat="44.39882" lon="3.90423">
        <ele>1200</ele>
        <time>2012-01-03T12:44:02Z</time>
      </trkpt>
      <trkpt lat="44.39883" lon="3.90422">
        <ele>1199</ele>
        <time>2012-01-03T12:44:04Z</time>
      </trkpt>
      <trkpt lat="44.39885" lon="3.90422">
        <ele>1198</ele>
        <time>2012-01-03T12:44:05Z</time>
      </trkpt>
      <trkpt lat="44.39887" lon="3.90424">
        <ele>1196</ele>
        <time>2012-01-03T12:44:07Z</time>
      </trkpt>
      <trkpt lat="44.39889" lon="3.90425">
        <ele>1196</ele>
        <time>2012-01-03T12:44:13Z</time>
      </trkpt>
      <trkpt lat="44.39889" lon="3.90427">
        <ele>1196</ele>
        <time>2012-01-03T12:44:16Z</time>
      </trkpt>
      <trkpt lat="44.39889" lon="3.90429">
        <ele>1196</ele>
        <time>2012-01-03T12:44:17Z</time>
      </trkpt>
      <trkpt lat="44.39888" lon="3.90432">
        <ele>1195</ele>
        <time>2012-01-03T12:44:19Z</time>
      </trkpt>
      <trkpt lat="44.39888" lon="3.90436">
        <ele>1195</ele>
        <time>2012-01-03T12:44:20Z</time>
      </trkpt>
      <trkpt lat="44.39889" lon="3.90438">
        <ele>1195</ele>
        <time>2012-01-03T12:44:22Z</time>
      </trkpt>
      <trkpt lat="44.39891" lon="3.9044">
        <ele>1194</ele>
        <time>2012-01-03T12:44:24Z</time>
      </trkpt>
      <trkpt lat="44.39891" lon="3.90442">
        <ele>1193</ele>
        <time>2012-01-03T12:44:25Z</time>
      </trkpt>
      <trkpt lat="44.39892" lon="3.90445">
        <ele>1191</ele>
        <time>2012-01-03T12:44:28Z</time>
      </trkpt>
      <trkpt lat="44.39892" lon="3.90448">
        <ele>1189</ele>
        <time>2012-01-03T12:44:30Z</time>
      </trkpt>
      <trkpt lat="44.39891" lon="3.90451">
        <ele>1188</ele>
        <time>2012-01-03T12:44:33Z</time>
      </trkpt>
      <trkpt lat="44.39889" lon="3.90457">
        <ele>1188</ele>
        <time>2012-01-03T12:44:34Z</time>
      </trkpt>
      <trkpt lat="44.39889" lon="3.90459">
        <ele>1188</ele>
        <time>2012-01-03T12:44:36Z</time>
      </trkpt>
      <trkpt lat="44.39888" lon="3.90462">
        <ele>1188</ele>
        <time>2012-01-03T12:44:36Z</time>
      </trkpt>
      <trkpt lat="44.39888" lon="3.90464">
        <ele>1188</ele>
        <time>2012-01-03T12:44:37Z</time>
      </trkpt>
      <trkpt lat="44.39888" lon="3.90466">
        <ele>1188</ele>
        <time>2012-01-03T12:44:38Z</time>
      </trkpt>
      <trkpt lat="44.39888" lon="3.90469">
        <ele>1188</ele>
        <time>2012-01-03T12:44:40Z</time>
      </trkpt>
      <trkpt lat="44.39885" lon="3.90476">
        <ele>1188</ele>
        <time>2012-01-03T12:44:41Z</time>
      </trkpt>
      <trkpt lat="44.39884" lon="3.9048">
        <ele>1188</ele>
        <time>2012-01-03T12:44:42Z</time>
      </trkpt>
      <trkpt lat="44.39883" lon="3.90483">
        <ele>1188</ele>
        <time>2012-01-03T12:44:43Z</time>
      </trkpt>
      <trkpt lat="44.39882" lon="3.90485">
        <ele>1188</ele>
        <time>2012-01-03T12:44:44Z</time>
      </trkpt>
      <trkpt lat="44.39881" lon="3.90485">
        <ele>1188</ele>
        <time>2012-01-03T12:44:46Z</time>
      </trkpt>
      <trkpt lat="44.39881" lon="3.90487">
        <ele>1188</ele>
        <time>2012-01-03T12:44:48Z</time>
      </trkpt>
      <trkpt lat="44.3988" lon="3.9049">
        <ele>1188</ele>
        <time>2012-01-03T12:44:49Z</time>
      </trkpt>
      <trkpt lat="44.3988" lon="3.90492">
        <ele>1188</ele>
        <time>2012-01-03T12:44:53Z</time>
      </trkpt>
      <trkpt lat="44.39882" lon="3.90495">
        <ele>1188</ele>
        <time>2012-01-03T12:44:56Z</time>
      </trkpt>
      <trkpt lat="44.3988" lon="3.90498">
        <ele>1188</ele>
        <time>2012-01-03T12:45:01Z</time>
      </trkpt>
      <trkpt lat="44.3988" lon="3.905">
        <ele>1188</ele>
        <time>2012-01-03T12:45:04Z</time>
      </trkpt>
      <trkpt lat="44.3988" lon="3.90501">
        <ele>1188</ele>
        <time>2012-01-03T12:45:06Z</time>
      </trkpt>
      <trkpt lat="44.39879" lon="3.90504">
        <ele>1188</ele>
        <time>2012-01-03T12:45:08Z</time>
      </trkpt>
      <trkpt lat="44.3988" lon="3.90506">
        <ele>1188</ele>
        <time>2012-01-03T12:45:13Z</time>
      </trkpt>
      <trkpt lat="44.39881" lon="3.90508">
        <ele>1188</ele>
        <time>2012-01-03T12:45:16Z</time>
      </trkpt>
      <trkpt lat="44.39881" lon="3.9051">
        <ele>1188</ele>
        <time>2012-01-03T12:45:17Z</time>
      </trkpt>
      <trkpt lat="44.39882" lon="3.90509">
        <ele>1188</ele>
        <time>2012-01-03T12:45:18Z</time>
      </trkpt>
      <trkpt lat="44.39884" lon="3.9051">
        <ele>1188</ele>
        <time>2012-01-03T12:45:21Z</time>
      </trkpt>
      <trkpt lat="44.39885" lon="3.90511">
        <ele>1188</ele>
        <time>2012-01-03T12:45:26Z</time>
      </trkpt>
      <trkpt lat="44.39885" lon="3.90512">
        <ele>1188</ele>
        <time>2012-01-03T12:45:27Z</time>
      </trkpt>
      <trkpt lat="44.39887" lon="3.90511">
        <ele>1188</ele>
        <time>2012-01-03T12:45:29Z</time>
      </trkpt>
      <trkpt lat="44.39888" lon="3.90511">
        <ele>1188</ele>
        <time>2012-01-03T12:45:32Z</time>
      </trkpt>
      <trkpt lat="44.39888" lon="3.90513">
        <ele>1187</ele>
        <time>2012-01-03T12:45:34Z</time>
      </trkpt>
      <trkpt lat="44.39891" lon="3.90516">
        <ele>1187</ele>
        <time>2012-01-03T12:45:37Z</time>
      </trkpt>
      <trkpt lat="44.39894" lon="3.90514">
        <ele>1186</ele>
        <time>2012-01-03T12:45:40Z</time>
      </trkpt>
      <trkpt lat="44.39895" lon="3.90516">
        <ele>1184</ele>
        <time>2012-01-03T12:45:43Z</time>
      </trkpt>
      <trkpt lat="44.39896" lon="3.90517">
        <ele>1182</ele>
        <time>2012-01-03T12:45:45Z</time>
      </trkpt>
      <trkpt lat="44.399" lon="3.90518">
        <ele>1181</ele>
        <time>2012-01-03T12:45:46Z</time>
      </trkpt>
      <trkpt lat="44.39901" lon="3.90518">
        <ele>1180</ele>
        <time>2012-01-03T12:45:48Z</time>
      </trkpt>
      <trkpt lat="44.39902" lon="3.90518">
        <ele>1179</ele>
        <time>2012-01-03T12:45:49Z</time>
      </trkpt>
      <trkpt lat="44.39904" lon="3.90517">
        <ele>1178</ele>
        <time>2012-01-03T12:45:50Z</time>
      </trkpt>
      <trkpt lat="44.39906" lon="3.90519">
        <ele>1176</ele>
        <time>2012-01-03T12:45:52Z</time>
      </trkpt>
      <trkpt lat="44.39907" lon="3.90519">
        <ele>1175</ele>
        <time>2012-01-03T12:45:54Z</time>
      </trkpt>
      <trkpt lat="44.39908" lon="3.9052">
        <ele>1173</ele>
        <time>2012-01-03T12:45:56Z</time>
      </trkpt>
      <trkpt lat="44.39909" lon="3.9052">
        <ele>1172</ele>
        <time>2012-01-03T12:45:58Z</time>
      </trkpt>
      <trkpt lat="44.39912" lon="3.90522">
        <ele>1171</ele>
        <time>2012-01-03T12:45:59Z</time>
      </trkpt>
      <trkpt lat="44.39914" lon="3.90521">
        <ele>1170</ele>
        <time>2012-01-03T12:46:00Z</time>
      </trkpt>
      <trkpt lat="44.39916" lon="3.9052">
        <ele>1170</ele>
        <time>2012-01-03T12:46:01Z</time>
      </trkpt>
      <trkpt lat="44.39919" lon="3.9052">
        <ele>1169</ele>
        <time>2012-01-03T12:46:02Z</time>
      </trkpt>
      <trkpt lat="44.39921" lon="3.9052">
        <ele>1169</ele>
        <time>2012-01-03T12:46:03Z</time>
      </trkpt>
      <trkpt lat="44.39922" lon="3.90519">
        <ele>1168</ele>
        <time>2012-01-03T12:46:04Z</time>
      </trkpt>
      <trkpt lat="44.39924" lon="3.90518">
        <ele>1167</ele>
        <time>2012-01-03T12:46:05Z</time>
      </trkpt>
      <trkpt lat="44.39926" lon="3.90517">
        <ele>1166</ele>
        <time>2012-01-03T12:46:06Z</time>
      </trkpt>
      <trkpt lat="44.39928" lon="3.90516">
        <ele>1165</ele>
        <time>2012-01-03T12:46:08Z</time>
      </trkpt>
      <trkpt lat="44.3993" lon="3.90515">
        <ele>1164</ele>
        <time>2012-01-03T12:46:10Z</time>
      </trkpt>
      <trkpt lat="44.39931" lon="3.90514">
        <ele>1164</ele>
        <time>2012-01-03T12:46:12Z</time>
      </trkpt>
      <trkpt lat="44.39934" lon="3.90514">
        <ele>1162</ele>
        <time>2012-01-03T12:46:16Z</time>
      </trkpt>
      <trkpt lat="44.39935" lon="3.90514">
        <ele>1162</ele>
        <time>2012-01-03T12:46:16Z</time>
      </trkpt>
      <trkpt lat="44.39937" lon="3.90515">
        <ele>1161</ele>
        <time>2012-01-03T12:46:18Z</time>
      </trkpt>
      <trkpt lat="44.39938" lon="3.90515">
        <ele>1160</ele>
        <time>2012-01-03T12:46:19Z</time>
      </trkpt>
      <trkpt lat="44.3994" lon="3.90518">
        <ele>1160</ele>
        <time>2012-01-03T12:46:22Z</time>
      </trkpt>
      <trkpt lat="44.39941" lon="3.9052">
        <ele>1160</ele>
        <time>2012-01-03T12:46:24Z</time>
      </trkpt>
      <trkpt lat="44.39941" lon="3.90523">
        <ele>1160</ele>
        <time>2012-01-03T12:46:26Z</time>
      </trkpt>
      <trkpt lat="44.39943" lon="3.90526">
        <ele>1160</ele>
        <time>2012-01-03T12:46:29Z</time>
      </trkpt>
      <trkpt lat="44.39945" lon="3.90527">
        <ele>1160</ele>
        <time>2012-01-03T12:46:33Z</time>
      </trkpt>
      <trkpt lat="44.39946" lon="3.90527">
        <ele>1160</ele>
        <time>2012-01-03T12:46:35Z</time>
      </trkpt>
      <trkpt lat="44.39945" lon="3.90528">
        <ele>1158</ele>
        <time>2012-01-03T12:46:39Z</time>
      </trkpt>
      <trkpt lat="44.39944" lon="3.90531">
        <ele>1158</ele>
        <time>2012-01-03T12:46:41Z</time>
      </trkpt>
      <trkpt lat="44.39943" lon="3.90533">
        <ele>1158</ele>
        <time>2012-01-03T12:46:42Z</time>
      </trkpt>
      <trkpt lat="44.39942" lon="3.90536">
        <ele>1158</ele>
        <time>2012-01-03T12:46:42Z</time>
      </trkpt>
      <trkpt lat="44.39939" lon="3.9054">
        <ele>1158</ele>
        <time>2012-01-03T12:46:44Z</time>
      </trkpt>
      <trkpt lat="44.39938" lon="3.90543">
        <ele>1158</ele>
        <time>2012-01-03T12:46:45Z</time>
      </trkpt>
      <trkpt lat="44.39936" lon="3.90545">
        <ele>1158</ele>
        <time>2012-01-03T12:46:46Z</time>
      </trkpt>
      <trkpt lat="44.39933" lon="3.90546">
        <ele>1158</ele>
        <time>2012-01-03T12:46:47Z</time>
      </trkpt>
      <trkpt lat="44.39933" lon="3.90548">
        <ele>1158</ele>
        <time>2012-01-03T12:46:48Z</time>
      </trkpt>
      <trkpt lat="44.39932" lon="3.9055">
        <ele>1158</ele>
        <time>2012-01-03T12:46:50Z</time>
      </trkpt>
      <trkpt lat="44.39932" lon="3.90551">
        <ele>1158</ele>
        <time>2012-01-03T12:46:51Z</time>
      </trkpt>
      <trkpt lat="44.3993" lon="3.90553">
        <ele>1158</ele>
        <time>2012-01-03T12:46:52Z</time>
      </trkpt>
      <trkpt lat="44.3993" lon="3.90557">
        <ele>1158</ele>
        <time>2012-01-03T12:46:53Z</time>
      </trkpt>
      <trkpt lat="44.3993" lon="3.90559">
        <ele>1158</ele>
        <time>2012-01-03T12:46:54Z</time>
      </trkpt>
      <trkpt lat="44.39928" lon="3.90562">
        <ele>1158</ele>
        <time>2012-01-03T12:46:57Z</time>
      </trkpt>
      <trkpt lat="44.39927" lon="3.90564">
        <ele>1158</ele>
        <time>2012-01-03T12:46:59Z</time>
      </trkpt>
      <trkpt lat="44.39927" lon="3.90565">
        <ele>1158</ele>
        <time>2012-01-03T12:46:59Z</time>
      </trkpt>
      <trkpt lat="44.39926" lon="3.90567">
        <ele>1158</ele>
        <time>2012-01-03T12:47:00Z</time>
      </trkpt>
      <trkpt lat="44.39924" lon="3.90569">
        <ele>1158</ele>
        <time>2012-01-03T12:47:02Z</time>
      </trkpt>
      <trkpt lat="44.39922" lon="3.90569">
        <ele>1158</ele>
        <time>2012-01-03T12:47:04Z</time>
      </trkpt>
      <trkpt lat="44.39921" lon="3.9057">
        <ele>1158</ele>
        <time>2012-01-03T12:47:07Z</time>
      </trkpt>
      <trkpt lat="44.3992" lon="3.90572">
        <ele>1158</ele>
        <time>2012-01-03T12:47:09Z</time>
      </trkpt>
      <trkpt lat="44.39918" lon="3.90573">
        <ele>1156</ele>
        <time>2012-01-03T12:47:11Z</time>
      </trkpt>
      <trkpt lat="44.39917" lon="3.90574">
        <ele>1155</ele>
        <time>2012-01-03T12:47:12Z</time>
      </trkpt>
      <trkpt lat="44.39915" lon="3.90575">
        <ele>1154</ele>
        <time>2012-01-03T12:47:15Z</time>
      </trkpt>
      <trkpt lat="44.39913" lon="3.90575">
        <ele>1154</ele>
        <time>2012-01-03T12:47:17Z</time>
      </trkpt>
      <trkpt lat="44.39912" lon="3.90575">
        <ele>1154</ele>
        <time>2012-01-03T12:47:18Z</time>
      </trkpt>
      <trkpt lat="44.3991" lon="3.90577">
        <ele>1154</ele>
        <time>2012-01-03T12:47:19Z</time>
      </trkpt>
      <trkpt lat="44.39909" lon="3.90578">
        <ele>1154</ele>
        <time>2012-01-03T12:47:20Z</time>
      </trkpt>
      <trkpt lat="44.39907" lon="3.90579">
        <ele>1154</ele>
        <time>2012-01-03T12:47:21Z</time>
      </trkpt>
      <trkpt lat="44.39906" lon="3.90581">
        <ele>1154</ele>
        <time>2012-01-03T12:47:24Z</time>
      </trkpt>
      <trkpt lat="44.39904" lon="3.90581">
        <ele>1154</ele>
        <time>2012-01-03T12:47:27Z</time>
      </trkpt>
      <trkpt lat="44.39902" lon="3.90582">
        <ele>1154</ele>
        <time>2012-01-03T12:47:31Z</time>
      </trkpt>
      <trkpt lat="44.399" lon="3.90584">
        <ele>1154</ele>
        <time>2012-01-03T12:47:34Z</time>
      </trkpt>
      <trkpt lat="44.399" lon="3.90586">
        <ele>1154</ele>
        <time>2012-01-03T12:47:35Z</time>
      </trkpt>
      <trkpt lat="44.399" lon="3.90587">
        <ele>1154</ele>
        <time>2012-01-03T12:47:38Z</time>
      </trkpt>
      <trkpt lat="44.399" lon="3.90586">
        <ele>1154</ele>
        <time>2012-01-03T12:47:40Z</time>
      </trkpt>
      <trkpt lat="44.39899" lon="3.90584">
        <ele>1154</ele>
        <time>2012-01-03T12:47:50Z</time>
      </trkpt>
      <trkpt lat="44.39898" lon="3.90585">
        <ele>1154</ele>
        <time>2012-01-03T12:47:51Z</time>
      </trkpt>
      <trkpt lat="44.39898" lon="3.90587">
        <ele>1154</ele>
        <time>2012-01-03T12:47:52Z</time>
      </trkpt>
      <trkpt lat="44.39909" lon="3.90592">
        <ele>1154</ele>
        <time>2012-01-03T12:47:58Z</time>
      </trkpt>
      <trkpt lat="44.39913" lon="3.90593">
        <ele>1154</ele>
        <time>2012-01-03T12:47:59Z</time>
      </trkpt>
      <trkpt lat="44.39922" lon="3.90595">
        <ele>1154</ele>
        <time>2012-01-03T12:48:04Z</time>
      </trkpt>
      <trkpt lat="44.39936" lon="3.90594">
        <ele>1154</ele>
        <time>2012-01-03T12:48:04Z</time>
      </trkpt>
      <trkpt lat="44.39942" lon="3.90591">
        <ele>1153</ele>
        <time>2012-01-03T12:48:05Z</time>
      </trkpt>
      <trkpt lat="44.39947" lon="3.90589">
        <ele>1152</ele>
        <time>2012-01-03T12:48:06Z</time>
      </trkpt>
      <trkpt lat="44.39958" lon="3.90582">
        <ele>1151</ele>
        <time>2012-01-03T12:48:11Z</time>
      </trkpt>
      <trkpt lat="44.3997" lon="3.90576">
        <ele>1150</ele>
        <time>2012-01-03T12:48:11Z</time>
      </trkpt>
      <trkpt lat="44.39974" lon="3.90573">
        <ele>1149</ele>
        <time>2012-01-03T12:48:12Z</time>
      </trkpt>
      <trkpt lat="44.3998" lon="3.90566">
        <ele>1148</ele>
        <time>2012-01-03T12:48:17Z</time>
      </trkpt>
      <trkpt lat="44.39989" lon="3.90555">
        <ele>1146</ele>
        <time>2012-01-03T12:48:17Z</time>
      </trkpt>
      <trkpt lat="44.39992" lon="3.90551">
        <ele>1145</ele>
        <time>2012-01-03T12:48:18Z</time>
      </trkpt>
      <trkpt lat="44.39998" lon="3.90542">
        <ele>1144</ele>
        <time>2012-01-03T12:48:23Z</time>
      </trkpt>
      <trkpt lat="44.40007" lon="3.90525">
        <ele>1142</ele>
        <time>2012-01-03T12:48:23Z</time>
      </trkpt>
      <trkpt lat="44.4001" lon="3.90517">
        <ele>1140</ele>
        <time>2012-01-03T12:48:25Z</time>
      </trkpt>
      <trkpt lat="44.40013" lon="3.9051">
        <ele>1138</ele>
        <time>2012-01-03T12:48:25Z</time>
      </trkpt>
      <trkpt lat="44.40019" lon="3.90493">
        <ele>1136</ele>
        <time>2012-01-03T12:48:30Z</time>
      </trkpt>
      <trkpt lat="44.40029" lon="3.90466">
        <ele>1134</ele>
        <time>2012-01-03T12:48:30Z</time>
      </trkpt>
      <trkpt lat="44.40032" lon="3.90457">
        <ele>1133</ele>
        <time>2012-01-03T12:48:31Z</time>
      </trkpt>
      <trkpt lat="44.4004" lon="3.90437">
        <ele>1132</ele>
        <time>2012-01-03T12:48:36Z</time>
      </trkpt>
      <trkpt lat="44.40055" lon="3.90407">
        <ele>1130</ele>
        <time>2012-01-03T12:48:36Z</time>
      </trkpt>
      <trkpt lat="44.4006" lon="3.90397">
        <ele>1129</ele>
        <time>2012-01-03T12:48:37Z</time>
      </trkpt>
      <trkpt lat="44.40088" lon="3.90351">
        <ele>1128</ele>
        <time>2012-01-03T12:48:42Z</time>
      </trkpt>
      <trkpt lat="44.40091" lon="3.90341">
        <ele>1126</ele>
        <time>2012-01-03T12:48:43Z</time>
      </trkpt>
      <trkpt lat="44.40105" lon="3.90296">
        <ele>1124</ele>
        <time>2012-01-03T12:48:48Z</time>
      </trkpt>
      <trkpt lat="44.40107" lon="3.90286">
        <ele>1123</ele>
        <time>2012-01-03T12:48:49Z</time>
      </trkpt>
      <trkpt lat="44.40107" lon="3.90277">
        <ele>1122</ele>
        <time>2012-01-03T12:48:50Z</time>
      </trkpt>
      <trkpt lat="44.40103" lon="3.90261">
        <ele>1121</ele>
        <time>2012-01-03T12:48:55Z</time>
      </trkpt>
      <trkpt lat="44.401" lon="3.90245">
        <ele>1120</ele>
        <time>2012-01-03T12:48:56Z</time>
      </trkpt>
      <trkpt lat="44.40101" lon="3.90242">
        <ele>1120</ele>
        <time>2012-01-03T12:48:56Z</time>
      </trkpt>
      <trkpt lat="44.40103" lon="3.9024">
        <ele>1120</ele>
        <time>2012-01-03T12:48:57Z</time>
      </trkpt>
      <trkpt lat="44.40105" lon="3.9024">
        <ele>1120</ele>
        <time>2012-01-03T12:48:58Z</time>
      </trkpt>
      <trkpt lat="44.40108" lon="3.90246">
        <ele>1120</ele>
        <time>2012-01-03T12:49:03Z</time>
      </trkpt>
      <trkpt lat="44.40112" lon="3.90268">
        <ele>1120</ele>
        <time>2012-01-03T12:49:03Z</time>
      </trkpt>
      <trkpt lat="44.40114" lon="3.90277">
        <ele>1119</ele>
        <time>2012-01-03T12:49:04Z</time>
      </trkpt>
      <trkpt lat="44.40116" lon="3.90287">
        <ele>1119</ele>
        <time>2012-01-03T12:49:05Z</time>
      </trkpt>
      <trkpt lat="44.40121" lon="3.90307">
        <ele>1118</ele>
        <time>2012-01-03T12:49:10Z</time>
      </trkpt>
      <trkpt lat="44.40123" lon="3.90339">
        <ele>1118</ele>
        <time>2012-01-03T12:49:10Z</time>
      </trkpt>
      <trkpt lat="44.40123" lon="3.90351">
        <ele>1117</ele>
        <time>2012-01-03T12:49:11Z</time>
      </trkpt>
      <trkpt lat="44.4012" lon="3.90362">
        <ele>1117</ele>
        <time>2012-01-03T12:49:13Z</time>
      </trkpt>
      <trkpt lat="44.40114" lon="3.90383">
        <ele>1117</ele>
        <time>2012-01-03T12:49:17Z</time>
      </trkpt>
      <trkpt lat="44.40101" lon="3.90411">
        <ele>1116</ele>
        <time>2012-01-03T12:49:17Z</time>
      </trkpt>
      <trkpt lat="44.40097" lon="3.90421">
        <ele>1115</ele>
        <time>2012-01-03T12:49:18Z</time>
      </trkpt>
      <trkpt lat="44.40093" lon="3.90431">
        <ele>1114</ele>
        <time>2012-01-03T12:49:19Z</time>
      </trkpt>
      <trkpt lat="44.40087" lon="3.90452">
        <ele>1113</ele>
        <time>2012-01-03T12:49:23Z</time>
      </trkpt>
      <trkpt lat="44.40083" lon="3.90486">
        <ele>1112</ele>
        <time>2012-01-03T12:49:24Z</time>
      </trkpt>
      <trkpt lat="44.40083" lon="3.90496">
        <ele>1111</ele>
        <time>2012-01-03T12:49:26Z</time>
      </trkpt>
      <trkpt lat="44.40085" lon="3.90508">
        <ele>1110</ele>
        <time>2012-01-03T12:49:27Z</time>
      </trkpt>
      <trkpt lat="44.40089" lon="3.90532">
        <ele>1109</ele>
        <time>2012-01-03T12:49:31Z</time>
      </trkpt>
      <trkpt lat="44.40094" lon="3.90569">
        <ele>1108</ele>
        <time>2012-01-03T12:49:31Z</time>
      </trkpt>
      <trkpt lat="44.40095" lon="3.90581">
        <ele>1107</ele>
        <time>2012-01-03T12:49:32Z</time>
      </trkpt>
      <trkpt lat="44.40104" lon="3.90644">
        <ele>1106</ele>
        <time>2012-01-03T12:49:37Z</time>
      </trkpt>
      <trkpt lat="44.40105" lon="3.90654">
        <ele>1104</ele>
        <time>2012-01-03T12:49:38Z</time>
      </trkpt>
      <trkpt lat="44.40107" lon="3.9067">
        <ele>1102</ele>
        <time>2012-01-03T12:49:43Z</time>
      </trkpt>
      <trkpt lat="44.40107" lon="3.90682">
        <ele>1100</ele>
        <time>2012-01-03T12:49:44Z</time>
      </trkpt>
      <trkpt lat="44.40108" lon="3.90684">
        <ele>1096</ele>
        <time>2012-01-03T12:49:51Z</time>
      </trkpt>
      <trkpt lat="44.40111" lon="3.90689">
        <ele>1095</ele>
        <time>2012-01-03T12:49:52Z</time>
      </trkpt>
      <trkpt lat="44.40109" lon="3.90694">
        <ele>1092</ele>
        <time>2012-01-03T12:49:59Z</time>
      </trkpt>
      <trkpt lat="44.40107" lon="3.90695">
        <ele>1091</ele>
        <time>2012-01-03T12:50:00Z</time>
      </trkpt>
      <trkpt lat="44.40103" lon="3.90697">
        <ele>1090</ele>
        <time>2012-01-03T12:50:01Z</time>
      </trkpt>
      <trkpt lat="44.40094" lon="3.90704">
        <ele>1089</ele>
        <time>2012-01-03T12:50:06Z</time>
      </trkpt>
      <trkpt lat="44.40078" lon="3.90711">
        <ele>1088</ele>
        <time>2012-01-03T12:50:06Z</time>
      </trkpt>
      <trkpt lat="44.40072" lon="3.90712">
        <ele>1088</ele>
        <time>2012-01-03T12:50:07Z</time>
      </trkpt>
      <trkpt lat="44.40066" lon="3.90712">
        <ele>1088</ele>
        <time>2012-01-03T12:50:09Z</time>
      </trkpt>
      <trkpt lat="44.40033" lon="3.90716">
        <ele>1087</ele>
        <time>2012-01-03T12:50:13Z</time>
      </trkpt>
      <trkpt lat="44.40026" lon="3.90717">
        <ele>1087</ele>
        <time>2012-01-03T12:50:14Z</time>
      </trkpt>
      <trkpt lat="44.39989" lon="3.90722">
        <ele>1087</ele>
        <time>2012-01-03T12:50:19Z</time>
      </trkpt>
      <trkpt lat="44.39982" lon="3.90725">
        <ele>1086</ele>
        <time>2012-01-03T12:50:20Z</time>
      </trkpt>
      <trkpt lat="44.39967" lon="3.90726">
        <ele>1085</ele>
        <time>2012-01-03T12:50:25Z</time>
      </trkpt>
      <trkpt lat="44.39936" lon="3.90721">
        <ele>1084</ele>
        <time>2012-01-03T12:50:26Z</time>
      </trkpt>
      <trkpt lat="44.39928" lon="3.90721">
        <ele>1084</ele>
        <time>2012-01-03T12:50:27Z</time>
      </trkpt>
      <trkpt lat="44.39911" lon="3.90722">
        <ele>1083</ele>
        <time>2012-01-03T12:50:32Z</time>
      </trkpt>
      <trkpt lat="44.39885" lon="3.90729">
        <ele>1082</ele>
        <time>2012-01-03T12:50:32Z</time>
      </trkpt>
      <trkpt lat="44.39876" lon="3.90734">
        <ele>1081</ele>
        <time>2012-01-03T12:50:33Z</time>
      </trkpt>
      <trkpt lat="44.39867" lon="3.90739">
        <ele>1081</ele>
        <time>2012-01-03T12:50:34Z</time>
      </trkpt>
      <trkpt lat="44.39851" lon="3.90747">
        <ele>1081</ele>
        <time>2012-01-03T12:50:39Z</time>
      </trkpt>
      <trkpt lat="44.39826" lon="3.90751">
        <ele>1080</ele>
        <time>2012-01-03T12:50:39Z</time>
      </trkpt>
      <trkpt lat="44.39819" lon="3.90752">
        <ele>1080</ele>
        <time>2012-01-03T12:50:41Z</time>
      </trkpt>
      <trkpt lat="44.39811" lon="3.90752">
        <ele>1079</ele>
        <time>2012-01-03T12:50:41Z</time>
      </trkpt>
      <trkpt lat="44.39795" lon="3.90755">
        <ele>1079</ele>
        <time>2012-01-03T12:50:46Z</time>
      </trkpt>
      <trkpt lat="44.39773" lon="3.90767">
        <ele>1078</ele>
        <time>2012-01-03T12:50:46Z</time>
      </trkpt>
      <trkpt lat="44.39768" lon="3.90778">
        <ele>1078</ele>
        <time>2012-01-03T12:50:47Z</time>
      </trkpt>
      <trkpt lat="44.39763" lon="3.90789">
        <ele>1078</ele>
        <time>2012-01-03T12:50:49Z</time>
      </trkpt>
      <trkpt lat="44.39757" lon="3.90797">
        <ele>1077</ele>
        <time>2012-01-03T12:50:49Z</time>
      </trkpt>
      <trkpt lat="44.39746" lon="3.90811">
        <ele>1076</ele>
        <time>2012-01-03T12:50:54Z</time>
      </trkpt>
      <trkpt lat="44.39725" lon="3.9083">
        <ele>1075</ele>
        <time>2012-01-03T12:50:54Z</time>
      </trkpt>
      <trkpt lat="44.39718" lon="3.90833">
        <ele>1074</ele>
        <time>2012-01-03T12:50:55Z</time>
      </trkpt>
      <trkpt lat="44.39702" lon="3.90842">
        <ele>1073</ele>
        <time>2012-01-03T12:51:00Z</time>
      </trkpt>
      <trkpt lat="44.39679" lon="3.90854">
        <ele>1072</ele>
        <time>2012-01-03T12:51:00Z</time>
      </trkpt>
      <trkpt lat="44.39671" lon="3.90856">
        <ele>1071</ele>
        <time>2012-01-03T12:51:01Z</time>
      </trkpt>
      <trkpt lat="44.3963" lon="3.90865">
        <ele>1070</ele>
        <time>2012-01-03T12:51:06Z</time>
      </trkpt>
      <trkpt lat="44.39623" lon="3.9087">
        <ele>1069</ele>
        <time>2012-01-03T12:51:07Z</time>
      </trkpt>
      <trkpt lat="44.39616" lon="3.90876">
        <ele>1068</ele>
        <time>2012-01-03T12:51:08Z</time>
      </trkpt>
      <trkpt lat="44.39602" lon="3.90893">
        <ele>1067</ele>
        <time>2012-01-03T12:51:13Z</time>
      </trkpt>
      <trkpt lat="44.39583" lon="3.90918">
        <ele>1066</ele>
        <time>2012-01-03T12:51:13Z</time>
      </trkpt>
      <trkpt lat="44.39577" lon="3.90927">
        <ele>1065</ele>
        <time>2012-01-03T12:51:14Z</time>
      </trkpt>
      <trkpt lat="44.39563" lon="3.90941">
        <ele>1064</ele>
        <time>2012-01-03T12:51:19Z</time>
      </trkpt>
      <trkpt lat="44.39542" lon="3.90957">
        <ele>1063</ele>
        <time>2012-01-03T12:51:19Z</time>
      </trkpt>
      <trkpt lat="44.39534" lon="3.90962">
        <ele>1062</ele>
        <time>2012-01-03T12:51:20Z</time>
      </trkpt>
      <trkpt lat="44.39526" lon="3.90967">
        <ele>1061</ele>
        <time>2012-01-03T12:51:21Z</time>
      </trkpt>
      <trkpt lat="44.39512" lon="3.90977">
        <ele>1060</ele>
        <time>2012-01-03T12:51:26Z</time>
      </trkpt>
      <trkpt lat="44.39485" lon="3.90983">
        <ele>1058</ele>
        <time>2012-01-03T12:51:26Z</time>
      </trkpt>
      <trkpt lat="44.39476" lon="3.90984">
        <ele>1056</ele>
        <time>2012-01-03T12:51:28Z</time>
      </trkpt>
      <trkpt lat="44.39467" lon="3.90983">
        <ele>1054</ele>
        <time>2012-01-03T12:51:29Z</time>
      </trkpt>
      <trkpt lat="44.39449" lon="3.9098">
        <ele>1052</ele>
        <time>2012-01-03T12:51:33Z</time>
      </trkpt>
      <trkpt lat="44.39429" lon="3.90967">
        <ele>1050</ele>
        <time>2012-01-03T12:51:33Z</time>
      </trkpt>
      <trkpt lat="44.39423" lon="3.90963">
        <ele>1048</ele>
        <time>2012-01-03T12:51:35Z</time>
      </trkpt>
      <trkpt lat="44.39393" lon="3.90971">
        <ele>1046</ele>
        <time>2012-01-03T12:51:39Z</time>
      </trkpt>
      <trkpt lat="44.39387" lon="3.90975">
        <ele>1044</ele>
        <time>2012-01-03T12:51:40Z</time>
      </trkpt>
      <trkpt lat="44.39381" lon="3.90978">
        <ele>1043</ele>
        <time>2012-01-03T12:51:41Z</time>
      </trkpt>
      <trkpt lat="44.39368" lon="3.90979">
        <ele>1042</ele>
        <time>2012-01-03T12:51:46Z</time>
      </trkpt>
      <trkpt lat="44.39347" lon="3.90976">
        <ele>1041</ele>
        <time>2012-01-03T12:51:46Z</time>
      </trkpt>
      <trkpt lat="44.39342" lon="3.90976">
        <ele>1041</ele>
        <time>2012-01-03T12:51:47Z</time>
      </trkpt>
      <trkpt lat="44.39336" lon="3.90985">
        <ele>1041</ele>
        <time>2012-01-03T12:51:52Z</time>
      </trkpt>
      <trkpt lat="44.39339" lon="3.91009">
        <ele>1041</ele>
        <time>2012-01-03T12:51:52Z</time>
      </trkpt>
      <trkpt lat="44.39339" lon="3.91017">
        <ele>1040</ele>
        <time>2012-01-03T12:51:53Z</time>
      </trkpt>
      <trkpt lat="44.39338" lon="3.91026">
        <ele>1039</ele>
        <time>2012-01-03T12:51:54Z</time>
      </trkpt>
      <trkpt lat="44.39333" lon="3.91047">
        <ele>1038</ele>
        <time>2012-01-03T12:51:59Z</time>
      </trkpt>
      <trkpt lat="44.39318" lon="3.91064">
        <ele>1037</ele>
        <time>2012-01-03T12:51:59Z</time>
      </trkpt>
      <trkpt lat="44.39312" lon="3.91067">
        <ele>1036</ele>
        <time>2012-01-03T12:52:01Z</time>
      </trkpt>
      <trkpt lat="44.39305" lon="3.91069">
        <ele>1035</ele>
        <time>2012-01-03T12:52:02Z</time>
      </trkpt>
      <trkpt lat="44.39276" lon="3.9108">
        <ele>1034</ele>
        <time>2012-01-03T12:52:06Z</time>
      </trkpt>
      <trkpt lat="44.39273" lon="3.91085">
        <ele>1032</ele>
        <time>2012-01-03T12:52:07Z</time>
      </trkpt>
      <trkpt lat="44.39273" lon="3.91092">
        <ele>1030</ele>
        <time>2012-01-03T12:52:08Z</time>
      </trkpt>
      <trkpt lat="44.39278" lon="3.91103">
        <ele>1028</ele>
        <time>2012-01-03T12:52:09Z</time>
      </trkpt>
      <trkpt lat="44.39287" lon="3.9112">
        <ele>1027</ele>
        <time>2012-01-03T12:52:15Z</time>
      </trkpt>
      <trkpt lat="44.3929" lon="3.91155">
        <ele>1025</ele>
        <time>2012-01-03T12:52:15Z</time>
      </trkpt>
      <trkpt lat="44.3929" lon="3.91164">
        <ele>1024</ele>
        <time>2012-01-03T12:52:16Z</time>
      </trkpt>
      <trkpt lat="44.3929" lon="3.91174">
        <ele>1023</ele>
        <time>2012-01-03T12:52:17Z</time>
      </trkpt>
      <trkpt lat="44.39292" lon="3.91193">
        <ele>1022</ele>
        <time>2012-01-03T12:52:22Z</time>
      </trkpt>
      <trkpt lat="44.39295" lon="3.91222">
        <ele>1021</ele>
        <time>2012-01-03T12:52:22Z</time>
      </trkpt>
      <trkpt lat="44.39296" lon="3.91232">
        <ele>1020</ele>
        <time>2012-01-03T12:52:23Z</time>
      </trkpt>
      <trkpt lat="44.39303" lon="3.9129">
        <ele>1019</ele>
        <time>2012-01-03T12:52:28Z</time>
      </trkpt>
      <trkpt lat="44.39303" lon="3.91301">
        <ele>1018</ele>
        <time>2012-01-03T12:52:29Z</time>
      </trkpt>
      <trkpt lat="44.39301" lon="3.91323">
        <ele>1017</ele>
        <time>2012-01-03T12:52:34Z</time>
      </trkpt>
      <trkpt lat="44.39293" lon="3.91365">
        <ele>1016</ele>
        <time>2012-01-03T12:52:35Z</time>
      </trkpt>
      <trkpt lat="44.39291" lon="3.91373">
        <ele>1015</ele>
        <time>2012-01-03T12:52:36Z</time>
      </trkpt>
      <trkpt lat="44.39287" lon="3.91379">
        <ele>1014</ele>
        <time>2012-01-03T12:52:37Z</time>
      </trkpt>
      <trkpt lat="44.39281" lon="3.91389">
        <ele>1013</ele>
        <time>2012-01-03T12:52:42Z</time>
      </trkpt>
      <trkpt lat="44.39275" lon="3.91398">
        <ele>1013</ele>
        <time>2012-01-03T12:52:42Z</time>
      </trkpt>
      <trkpt lat="44.39273" lon="3.91401">
        <ele>1013</ele>
        <time>2012-01-03T12:52:43Z</time>
      </trkpt>
      <trkpt lat="44.39271" lon="3.91404">
        <ele>1013</ele>
        <time>2012-01-03T12:52:44Z</time>
      </trkpt>
      <trkpt lat="44.39268" lon="3.91411">
        <ele>1013</ele>
        <time>2012-01-03T12:52:49Z</time>
      </trkpt>
      <trkpt lat="44.39263" lon="3.9142">
        <ele>1013</ele>
        <time>2012-01-03T12:52:49Z</time>
      </trkpt>
      <trkpt lat="44.39261" lon="3.91422">
        <ele>1013</ele>
        <time>2012-01-03T12:52:50Z</time>
      </trkpt>
      <trkpt lat="44.39257" lon="3.91426">
        <ele>1013</ele>
        <time>2012-01-03T12:52:55Z</time>
      </trkpt>
      <trkpt lat="44.39254" lon="3.9143">
        <ele>1013</ele>
        <time>2012-01-03T12:52:55Z</time>
      </trkpt>
      <trkpt lat="44.39255" lon="3.91431">
        <ele>1013</ele>
        <time>2012-01-03T12:52:59Z</time>
      </trkpt>
      <trkpt lat="44.39254" lon="3.91431">
        <ele>1013</ele>
        <time>2012-01-03T12:53:06Z</time>
      </trkpt>
      <trkpt lat="44.39255" lon="3.91431">
        <ele>1013</ele>
        <time>2012-01-03T12:53:24Z</time>
      </trkpt>
      <trkpt lat="44.39255" lon="3.91432">
        <ele>1014</ele>
        <time>2012-01-03T12:53:39Z</time>
      </trkpt>
      <trkpt lat="44.39255" lon="3.91434">
        <ele>1014</ele>
        <time>2012-01-03T12:53:43Z</time>
      </trkpt>
      <trkpt lat="44.39256" lon="3.91436">
        <ele>1013</ele>
        <time>2012-01-03T12:53:46Z</time>
      </trkpt>
      <trkpt lat="44.39256" lon="3.91437">
        <ele>1007</ele>
        <time>2012-01-03T12:53:54Z</time>
      </trkpt>
      <trkpt lat="44.39254" lon="3.91437">
        <ele>1004</ele>
        <time>2012-01-03T12:54:00Z</time>
      </trkpt>
      <trkpt lat="44.3925" lon="3.91441">
        <ele>1004</ele>
        <time>2012-01-03T12:54:03Z</time>
      </trkpt>
      <trkpt lat="44.39248" lon="3.91443">
        <ele>1004</ele>
        <time>2012-01-03T12:54:04Z</time>
      </trkpt>
      <trkpt lat="44.39247" lon="3.91445">
        <ele>1004</ele>
        <time>2012-01-03T12:54:05Z</time>
      </trkpt>
      <trkpt lat="44.39245" lon="3.91448">
        <ele>1004</ele>
        <time>2012-01-03T12:54:06Z</time>
      </trkpt>
      <trkpt lat="44.39243" lon="3.91449">
        <ele>1004</ele>
        <time>2012-01-03T12:54:07Z</time>
      </trkpt>
      <trkpt lat="44.39241" lon="3.91449">
        <ele>1004</ele>
        <time>2012-01-03T12:54:08Z</time>
      </trkpt>
      <trkpt lat="44.39239" lon="3.91451">
        <ele>1004</ele>
        <time>2012-01-03T12:54:09Z</time>
      </trkpt>
      <trkpt lat="44.39237" lon="3.91452">
        <ele>1004</ele>
        <time>2012-01-03T12:54:10Z</time>
      </trkpt>
      <trkpt lat="44.39234" lon="3.91454">
        <ele>1004</ele>
        <time>2012-01-03T12:54:11Z</time>
      </trkpt>
      <trkpt lat="44.39232" lon="3.91457">
        <ele>1004</ele>
        <time>2012-01-03T12:54:12Z</time>
      </trkpt>
      <trkpt lat="44.3923" lon="3.91459">
        <ele>1005</ele>
        <time>2012-01-03T12:54:13Z</time>
      </trkpt>
      <trkpt lat="44.39229" lon="3.91461">
        <ele>1006</ele>
        <time>2012-01-03T12:54:14Z</time>
      </trkpt>
      <trkpt lat="44.39227" lon="3.91463">
        <ele>1007</ele>
        <time>2012-01-03T12:54:15Z</time>
      </trkpt>
      <trkpt lat="44.39225" lon="3.91465">
        <ele>1008</ele>
        <time>2012-01-03T12:54:16Z</time>
      </trkpt>
      <trkpt lat="44.39223" lon="3.91467">
        <ele>1009</ele>
        <time>2012-01-03T12:54:17Z</time>
      </trkpt>
      <trkpt lat="44.39222" lon="3.91469">
        <ele>1009</ele>
        <time>2012-01-03T12:54:18Z</time>
      </trkpt>
      <trkpt lat="44.39221" lon="3.9147">
        <ele>1010</ele>
        <time>2012-01-03T12:54:19Z</time>
      </trkpt>
      <trkpt lat="44.39221" lon="3.91471">
        <ele>1011</ele>
        <time>2012-01-03T12:54:20Z</time>
      </trkpt>
      <trkpt lat="44.39219" lon="3.91473">
        <ele>1012</ele>
        <time>2012-01-03T12:54:22Z</time>
      </trkpt>
      <trkpt lat="44.39216" lon="3.91475">
        <ele>1013</ele>
        <time>2012-01-03T12:54:23Z</time>
      </trkpt>
      <trkpt lat="44.39213" lon="3.91476">
        <ele>1013</ele>
        <time>2012-01-03T12:54:25Z</time>
      </trkpt>
      <trkpt lat="44.39209" lon="3.91477">
        <ele>1013</ele>
        <time>2012-01-03T12:54:27Z</time>
      </trkpt>
      <trkpt lat="44.39206" lon="3.91478">
        <ele>1013</ele>
        <time>2012-01-03T12:54:28Z</time>
      </trkpt>
      <trkpt lat="44.39203" lon="3.91479">
        <ele>1013</ele>
        <time>2012-01-03T12:54:30Z</time>
      </trkpt>
      <trkpt lat="44.39201" lon="3.9148">
        <ele>1013</ele>
        <time>2012-01-03T12:54:32Z</time>
      </trkpt>
      <trkpt lat="44.39199" lon="3.91482">
        <ele>1013</ele>
        <time>2012-01-03T12:54:32Z</time>
      </trkpt>
      <trkpt lat="44.39196" lon="3.91485">
        <ele>1013</ele>
        <time>2012-01-03T12:54:34Z</time>
      </trkpt>
      <trkpt lat="44.39194" lon="3.91486">
        <ele>1013</ele>
        <time>2012-01-03T12:54:35Z</time>
      </trkpt>
      <trkpt lat="44.39192" lon="3.91489">
        <ele>1013</ele>
        <time>2012-01-03T12:54:36Z</time>
      </trkpt>
      <trkpt lat="44.39191" lon="3.91491">
        <ele>1013</ele>
        <time>2012-01-03T12:54:38Z</time>
      </trkpt>
      <trkpt lat="44.3919" lon="3.91494">
        <ele>1014</ele>
        <time>2012-01-03T12:54:38Z</time>
      </trkpt>
      <trkpt lat="44.39189" lon="3.91496">
        <ele>1014</ele>
        <time>2012-01-03T12:54:39Z</time>
      </trkpt>
      <trkpt lat="44.39189" lon="3.91498">
        <ele>1015</ele>
        <time>2012-01-03T12:54:40Z</time>
      </trkpt>
      <trkpt lat="44.39188" lon="3.91499">
        <ele>1019</ele>
        <time>2012-01-03T12:54:47Z</time>
      </trkpt>
      <trkpt lat="44.39187" lon="3.91501">
        <ele>1019</ele>
        <time>2012-01-03T12:54:48Z</time>
      </trkpt>
      <trkpt lat="44.39185" lon="3.91503">
        <ele>1021</ele>
        <time>2012-01-03T12:54:50Z</time>
      </trkpt>
      <trkpt lat="44.39184" lon="3.91504">
        <ele>1022</ele>
        <time>2012-01-03T12:54:52Z</time>
      </trkpt>
      <trkpt lat="44.39184" lon="3.91506">
        <ele>1023</ele>
        <time>2012-01-03T12:54:54Z</time>
      </trkpt>
      <trkpt lat="44.39184" lon="3.91508">
        <ele>1023</ele>
        <time>2012-01-03T12:54:56Z</time>
      </trkpt>
      <trkpt lat="44.39182" lon="3.9151">
        <ele>1024</ele>
        <time>2012-01-03T12:54:58Z</time>
      </trkpt>
      <trkpt lat="44.39182" lon="3.91512">
        <ele>1024</ele>
        <time>2012-01-03T12:54:59Z</time>
      </trkpt>
      <trkpt lat="44.39182" lon="3.91514">
        <ele>1024</ele>
        <time>2012-01-03T12:55:00Z</time>
      </trkpt>
      <trkpt lat="44.39181" lon="3.91516">
        <ele>1024</ele>
        <time>2012-01-03T12:55:01Z</time>
      </trkpt>
      <trkpt lat="44.3918" lon="3.91518">
        <ele>1025</ele>
        <time>2012-01-03T12:55:02Z</time>
      </trkpt>
      <trkpt lat="44.3918" lon="3.9152">
        <ele>1025</ele>
        <time>2012-01-03T12:55:03Z</time>
      </trkpt>
      <trkpt lat="44.39178" lon="3.91522">
        <ele>1025</ele>
        <time>2012-01-03T12:55:04Z</time>
      </trkpt>
      <trkpt lat="44.39177" lon="3.91523">
        <ele>1025</ele>
        <time>2012-01-03T12:55:05Z</time>
      </trkpt>
      <trkpt lat="44.39176" lon="3.91525">
        <ele>1025</ele>
        <time>2012-01-03T12:55:06Z</time>
      </trkpt>
      <trkpt lat="44.39175" lon="3.91527">
        <ele>1025</ele>
        <time>2012-01-03T12:55:07Z</time>
      </trkpt>
      <trkpt lat="44.39174" lon="3.91529">
        <ele>1025</ele>
        <time>2012-01-03T12:55:08Z</time>
      </trkpt>
      <trkpt lat="44.39173" lon="3.9153">
        <ele>1025</ele>
        <time>2012-01-03T12:55:09Z</time>
      </trkpt>
      <trkpt lat="44.39172" lon="3.91532">
        <ele>1025</ele>
        <time>2012-01-03T12:55:10Z</time>
      </trkpt>
      <trkpt lat="44.39171" lon="3.91533">
        <ele>1025</ele>
        <time>2012-01-03T12:55:11Z</time>
      </trkpt>
      <trkpt lat="44.39169" lon="3.91536">
        <ele>1025</ele>
        <time>2012-01-03T12:55:13Z</time>
      </trkpt>
      <trkpt lat="44.39169" lon="3.91537">
        <ele>1025</ele>
        <time>2012-01-03T12:55:14Z</time>
      </trkpt>
      <trkpt lat="44.39168" lon="3.91539">
        <ele>1025</ele>
        <time>2012-01-03T12:55:15Z</time>
      </trkpt>
      <trkpt lat="44.39167" lon="3.91541">
        <ele>1025</ele>
        <time>2012-01-03T12:55:16Z</time>
      </trkpt>
      <trkpt lat="44.39166" lon="3.91543">
        <ele>1025</ele>
        <time>2012-01-03T12:55:18Z</time>
      </trkpt>
      <trkpt lat="44.39165" lon="3.91544">
        <ele>1025</ele>
        <time>2012-01-03T12:55:19Z</time>
      </trkpt>
      <trkpt lat="44.39164" lon="3.91545">
        <ele>1025</ele>
        <time>2012-01-03T12:55:20Z</time>
      </trkpt>
      <trkpt lat="44.39163" lon="3.91547">
        <ele>1025</ele>
        <time>2012-01-03T12:55:21Z</time>
      </trkpt>
      <trkpt lat="44.39163" lon="3.91549">
        <ele>1025</ele>
        <time>2012-01-03T12:55:22Z</time>
      </trkpt>
      <trkpt lat="44.39162" lon="3.9155">
        <ele>1025</ele>
        <time>2012-01-03T12:55:23Z</time>
      </trkpt>
      <trkpt lat="44.39163" lon="3.91553">
        <ele>1025</ele>
        <time>2012-01-03T12:55:25Z</time>
      </trkpt>
      <trkpt lat="44.39162" lon="3.91555">
        <ele>1025</ele>
        <time>2012-01-03T12:55:27Z</time>
      </trkpt>
      <trkpt lat="44.39162" lon="3.91557">
        <ele>1025</ele>
        <time>2012-01-03T12:55:29Z</time>
      </trkpt>
      <trkpt lat="44.3916" lon="3.9156">
        <ele>1026</ele>
        <time>2012-01-03T12:55:31Z</time>
      </trkpt>
      <trkpt lat="44.39159" lon="3.91562">
        <ele>1027</ele>
        <time>2012-01-03T12:55:33Z</time>
      </trkpt>
      <trkpt lat="44.39158" lon="3.91563">
        <ele>1027</ele>
        <time>2012-01-03T12:55:34Z</time>
      </trkpt>
      <trkpt lat="44.39157" lon="3.91564">
        <ele>1027</ele>
        <time>2012-01-03T12:55:35Z</time>
      </trkpt>
      <trkpt lat="44.39156" lon="3.91566">
        <ele>1027</ele>
        <time>2012-01-03T12:55:37Z</time>
      </trkpt>
      <trkpt lat="44.39154" lon="3.91567">
        <ele>1027</ele>
        <time>2012-01-03T12:55:39Z</time>
      </trkpt>
      <trkpt lat="44.39153" lon="3.91568">
        <ele>1027</ele>
        <time>2012-01-03T12:55:40Z</time>
      </trkpt>
      <trkpt lat="44.39153" lon="3.9157">
        <ele>1027</ele>
        <time>2012-01-03T12:55:41Z</time>
      </trkpt>
      <trkpt lat="44.39153" lon="3.91572">
        <ele>1027</ele>
        <time>2012-01-03T12:55:42Z</time>
      </trkpt>
      <trkpt lat="44.39152" lon="3.91574">
        <ele>1027</ele>
        <time>2012-01-03T12:55:43Z</time>
      </trkpt>
      <trkpt lat="44.3915" lon="3.91576">
        <ele>1027</ele>
        <time>2012-01-03T12:55:44Z</time>
      </trkpt>
      <trkpt lat="44.39149" lon="3.91578">
        <ele>1027</ele>
        <time>2012-01-03T12:55:45Z</time>
      </trkpt>
      <trkpt lat="44.39147" lon="3.91581">
        <ele>1027</ele>
        <time>2012-01-03T12:55:46Z</time>
      </trkpt>
      <trkpt lat="44.39146" lon="3.91583">
        <ele>1027</ele>
        <time>2012-01-03T12:55:47Z</time>
      </trkpt>
      <trkpt lat="44.39144" lon="3.91586">
        <ele>1027</ele>
        <time>2012-01-03T12:55:48Z</time>
      </trkpt>
      <trkpt lat="44.39144" lon="3.91588">
        <ele>1027</ele>
        <time>2012-01-03T12:55:49Z</time>
      </trkpt>
      <trkpt lat="44.39143" lon="3.91589">
        <ele>1028</ele>
        <time>2012-01-03T12:55:50Z</time>
      </trkpt>
      <trkpt lat="44.39143" lon="3.91592">
        <ele>1029</ele>
        <time>2012-01-03T12:55:51Z</time>
      </trkpt>
      <trkpt lat="44.39142" lon="3.91593">
        <ele>1029</ele>
        <time>2012-01-03T12:55:52Z</time>
      </trkpt>
      <trkpt lat="44.39142" lon="3.91596">
        <ele>1029</ele>
        <time>2012-01-03T12:55:53Z</time>
      </trkpt>
      <trkpt lat="44.39141" lon="3.91598">
        <ele>1029</ele>
        <time>2012-01-03T12:55:54Z</time>
      </trkpt>
      <trkpt lat="44.39141" lon="3.916">
        <ele>1029</ele>
        <time>2012-01-03T12:55:55Z</time>
      </trkpt>
      <trkpt lat="44.39141" lon="3.91603">
        <ele>1029</ele>
        <time>2012-01-03T12:55:56Z</time>
      </trkpt>
      <trkpt lat="44.3914" lon="3.91605">
        <ele>1029</ele>
        <time>2012-01-03T12:55:57Z</time>
      </trkpt>
      <trkpt lat="44.3914" lon="3.91607">
        <ele>1029</ele>
        <time>2012-01-03T12:55:58Z</time>
      </trkpt>
      <trkpt lat="44.3914" lon="3.91609">
        <ele>1029</ele>
        <time>2012-01-03T12:55:59Z</time>
      </trkpt>
      <trkpt lat="44.3914" lon="3.91611">
        <ele>1029</ele>
        <time>2012-01-03T12:56:00Z</time>
      </trkpt>
      <trkpt lat="44.3914" lon="3.91613">
        <ele>1030</ele>
        <time>2012-01-03T12:56:01Z</time>
      </trkpt>
      <trkpt lat="44.3914" lon="3.91615">
        <ele>1030</ele>
        <time>2012-01-03T12:56:02Z</time>
      </trkpt>
      <trkpt lat="44.3914" lon="3.91617">
        <ele>1030</ele>
        <time>2012-01-03T12:56:03Z</time>
      </trkpt>
      <trkpt lat="44.3914" lon="3.91619">
        <ele>1031</ele>
        <time>2012-01-03T12:56:04Z</time>
      </trkpt>
      <trkpt lat="44.39141" lon="3.91621">
        <ele>1031</ele>
        <time>2012-01-03T12:56:05Z</time>
      </trkpt>
      <trkpt lat="44.39141" lon="3.91623">
        <ele>1032</ele>
        <time>2012-01-03T12:56:06Z</time>
      </trkpt>
      <trkpt lat="44.39141" lon="3.91625">
        <ele>1032</ele>
        <time>2012-01-03T12:56:07Z</time>
      </trkpt>
      <trkpt lat="44.39141" lon="3.91628">
        <ele>1033</ele>
        <time>2012-01-03T12:56:08Z</time>
      </trkpt>
      <trkpt lat="44.39142" lon="3.91631">
        <ele>1033</ele>
        <time>2012-01-03T12:56:09Z</time>
      </trkpt>
      <trkpt lat="44.39143" lon="3.91633">
        <ele>1033</ele>
        <time>2012-01-03T12:56:10Z</time>
      </trkpt>
      <trkpt lat="44.39143" lon="3.91634">
        <ele>1034</ele>
        <time>2012-01-03T12:56:11Z</time>
      </trkpt>
      <trkpt lat="44.39144" lon="3.91636">
        <ele>1034</ele>
        <time>2012-01-03T12:56:12Z</time>
      </trkpt>
      <trkpt lat="44.39145" lon="3.91638">
        <ele>1034</ele>
        <time>2012-01-03T12:56:13Z</time>
      </trkpt>
      <trkpt lat="44.39146" lon="3.9164">
        <ele>1035</ele>
        <time>2012-01-03T12:56:14Z</time>
      </trkpt>
      <trkpt lat="44.39147" lon="3.91642">
        <ele>1035</ele>
        <time>2012-01-03T12:56:15Z</time>
      </trkpt>
      <trkpt lat="44.39148" lon="3.91645">
        <ele>1035</ele>
        <time>2012-01-03T12:56:16Z</time>
      </trkpt>
      <trkpt lat="44.39148" lon="3.91646">
        <ele>1035</ele>
        <time>2012-01-03T12:56:17Z</time>
      </trkpt>
      <trkpt lat="44.39148" lon="3.91649">
        <ele>1035</ele>
        <time>2012-01-03T12:56:18Z</time>
      </trkpt>
      <trkpt lat="44.39149" lon="3.91651">
        <ele>1035</ele>
        <time>2012-01-03T12:56:19Z</time>
      </trkpt>
      <trkpt lat="44.3915" lon="3.91653">
        <ele>1035</ele>
        <time>2012-01-03T12:56:20Z</time>
      </trkpt>
      <trkpt lat="44.3915" lon="3.91655">
        <ele>1035</ele>
        <time>2012-01-03T12:56:21Z</time>
      </trkpt>
      <trkpt lat="44.39151" lon="3.91659">
        <ele>1035</ele>
        <time>2012-01-03T12:56:22Z</time>
      </trkpt>
      <trkpt lat="44.39151" lon="3.91662">
        <ele>1035</ele>
        <time>2012-01-03T12:56:23Z</time>
      </trkpt>
      <trkpt lat="44.39152" lon="3.91664">
        <ele>1035</ele>
        <time>2012-01-03T12:56:24Z</time>
      </trkpt>
      <trkpt lat="44.39154" lon="3.91666">
        <ele>1035</ele>
        <time>2012-01-03T12:56:25Z</time>
      </trkpt>
      <trkpt lat="44.39154" lon="3.91668">
        <ele>1035</ele>
        <time>2012-01-03T12:56:26Z</time>
      </trkpt>
      <trkpt lat="44.39156" lon="3.91671">
        <ele>1035</ele>
        <time>2012-01-03T12:56:27Z</time>
      </trkpt>
      <trkpt lat="44.39158" lon="3.91674">
        <ele>1035</ele>
        <time>2012-01-03T12:56:28Z</time>
      </trkpt>
      <trkpt lat="44.39159" lon="3.91676">
        <ele>1035</ele>
        <time>2012-01-03T12:56:29Z</time>
      </trkpt>
      <trkpt lat="44.3916" lon="3.91679">
        <ele>1035</ele>
        <time>2012-01-03T12:56:30Z</time>
      </trkpt>
      <trkpt lat="44.39161" lon="3.91681">
        <ele>1035</ele>
        <time>2012-01-03T12:56:31Z</time>
      </trkpt>
      <trkpt lat="44.39161" lon="3.91683">
        <ele>1035</ele>
        <time>2012-01-03T12:56:32Z</time>
      </trkpt>
      <trkpt lat="44.39162" lon="3.91685">
        <ele>1035</ele>
        <time>2012-01-03T12:56:33Z</time>
      </trkpt>
      <trkpt lat="44.39163" lon="3.9169">
        <ele>1035</ele>
        <time>2012-01-03T12:56:39Z</time>
      </trkpt>
      <trkpt lat="44.39165" lon="3.91695">
        <ele>1035</ele>
        <time>2012-01-03T12:56:39Z</time>
      </trkpt>
      <trkpt lat="44.39169" lon="3.917">
        <ele>1035</ele>
        <time>2012-01-03T12:56:45Z</time>
      </trkpt>
      <trkpt lat="44.39168" lon="3.91706">
        <ele>1035</ele>
        <time>2012-01-03T12:56:45Z</time>
      </trkpt>
      <trkpt lat="44.39168" lon="3.91708">
        <ele>1035</ele>
        <time>2012-01-03T12:56:46Z</time>
      </trkpt>
      <trkpt lat="44.3917" lon="3.91713">
        <ele>1036</ele>
        <time>2012-01-03T12:56:51Z</time>
      </trkpt>
      <trkpt lat="44.39171" lon="3.91718">
        <ele>1036</ele>
        <time>2012-01-03T12:56:51Z</time>
      </trkpt>
      <trkpt lat="44.39171" lon="3.91721">
        <ele>1036</ele>
        <time>2012-01-03T12:56:52Z</time>
      </trkpt>
      <trkpt lat="44.3917" lon="3.91725">
        <ele>1036</ele>
        <time>2012-01-03T12:56:57Z</time>
      </trkpt>
      <trkpt lat="44.3917" lon="3.91732">
        <ele>1036</ele>
        <time>2012-01-03T12:56:57Z</time>
      </trkpt>
      <trkpt lat="44.3917" lon="3.91734">
        <ele>1036</ele>
        <time>2012-01-03T12:56:58Z</time>
      </trkpt>
      <trkpt lat="44.3917" lon="3.91739">
        <ele>1036</ele>
        <time>2012-01-03T12:57:03Z</time>
      </trkpt>
      <trkpt lat="44.39168" lon="3.91748">
        <ele>1036</ele>
        <time>2012-01-03T12:57:04Z</time>
      </trkpt>
      <trkpt lat="44.39168" lon="3.9175">
        <ele>1036</ele>
        <time>2012-01-03T12:57:05Z</time>
      </trkpt>
      <trkpt lat="44.39167" lon="3.91752">
        <ele>1036</ele>
        <time>2012-01-03T12:57:06Z</time>
      </trkpt>
      <trkpt lat="44.39166" lon="3.91757">
        <ele>1036</ele>
        <time>2012-01-03T12:57:11Z</time>
      </trkpt>
      <trkpt lat="44.39165" lon="3.91762">
        <ele>1036</ele>
        <time>2012-01-03T12:57:11Z</time>
      </trkpt>
      <trkpt lat="44.39164" lon="3.91764">
        <ele>1036</ele>
        <time>2012-01-03T12:57:12Z</time>
      </trkpt>
      <trkpt lat="44.39164" lon="3.91768">
        <ele>1036</ele>
        <time>2012-01-03T12:57:17Z</time>
      </trkpt>
      <trkpt lat="44.39162" lon="3.91774">
        <ele>1037</ele>
        <time>2012-01-03T12:57:17Z</time>
      </trkpt>
      <trkpt lat="44.39162" lon="3.91776">
        <ele>1037</ele>
        <time>2012-01-03T12:57:18Z</time>
      </trkpt>
      <trkpt lat="44.39162" lon="3.91779">
        <ele>1038</ele>
        <time>2012-01-03T12:57:23Z</time>
      </trkpt>
      <trkpt lat="44.39161" lon="3.91781">
        <ele>1038</ele>
        <time>2012-01-03T12:57:25Z</time>
      </trkpt>
      <trkpt lat="44.39161" lon="3.91782">
        <ele>1039</ele>
        <time>2012-01-03T12:57:25Z</time>
      </trkpt>
      <trkpt lat="44.39161" lon="3.91784">
        <ele>1040</ele>
        <time>2012-01-03T12:57:27Z</time>
      </trkpt>
      <trkpt lat="44.3916" lon="3.91788">
        <ele>1041</ele>
        <time>2012-01-03T12:57:31Z</time>
      </trkpt>
      <trkpt lat="44.39158" lon="3.91797">
        <ele>1042</ele>
        <time>2012-01-03T12:57:32Z</time>
      </trkpt>
      <trkpt lat="44.39158" lon="3.91799">
        <ele>1043</ele>
        <time>2012-01-03T12:57:33Z</time>
      </trkpt>
      <trkpt lat="44.39158" lon="3.91803">
        <ele>1044</ele>
        <time>2012-01-03T12:57:38Z</time>
      </trkpt>
      <trkpt lat="44.39156" lon="3.91807">
        <ele>1045</ele>
        <time>2012-01-03T12:57:39Z</time>
      </trkpt>
      <trkpt lat="44.39155" lon="3.9181">
        <ele>1047</ele>
        <time>2012-01-03T12:57:41Z</time>
      </trkpt>
      <trkpt lat="44.39152" lon="3.91819">
        <ele>1047</ele>
        <time>2012-01-03T12:57:45Z</time>
      </trkpt>
      <trkpt lat="44.39152" lon="3.91821">
        <ele>1047</ele>
        <time>2012-01-03T12:57:46Z</time>
      </trkpt>
      <trkpt lat="44.39151" lon="3.91823">
        <ele>1047</ele>
        <time>2012-01-03T12:57:47Z</time>
      </trkpt>
      <trkpt lat="44.39149" lon="3.91828">
        <ele>1047</ele>
        <time>2012-01-03T12:57:54Z</time>
      </trkpt>
      <trkpt lat="44.39147" lon="3.91834">
        <ele>1047</ele>
        <time>2012-01-03T12:57:54Z</time>
      </trkpt>
      <trkpt lat="44.39146" lon="3.91837">
        <ele>1047</ele>
        <time>2012-01-03T12:57:59Z</time>
      </trkpt>
      <trkpt lat="44.39145" lon="3.91844">
        <ele>1047</ele>
        <time>2012-01-03T12:58:00Z</time>
      </trkpt>
      <trkpt lat="44.39143" lon="3.91848">
        <ele>1047</ele>
        <time>2012-01-03T12:58:06Z</time>
      </trkpt>
      <trkpt lat="44.39142" lon="3.91851">
        <ele>1047</ele>
        <time>2012-01-03T12:58:06Z</time>
      </trkpt>
      <trkpt lat="44.39141" lon="3.91853">
        <ele>1047</ele>
        <time>2012-01-03T12:58:07Z</time>
      </trkpt>
      <trkpt lat="44.39141" lon="3.91855">
        <ele>1047</ele>
        <time>2012-01-03T12:58:08Z</time>
      </trkpt>
      <trkpt lat="44.39142" lon="3.91859">
        <ele>1047</ele>
        <time>2012-01-03T12:58:13Z</time>
      </trkpt>
      <trkpt lat="44.39139" lon="3.91863">
        <ele>1047</ele>
        <time>2012-01-03T12:58:13Z</time>
      </trkpt>
      <trkpt lat="44.39138" lon="3.91865">
        <ele>1047</ele>
        <time>2012-01-03T12:58:14Z</time>
      </trkpt>
      <trkpt lat="44.39137" lon="3.91867">
        <ele>1047</ele>
        <time>2012-01-03T12:58:19Z</time>
      </trkpt>
      <trkpt lat="44.39134" lon="3.91871">
        <ele>1047</ele>
        <time>2012-01-03T12:58:19Z</time>
      </trkpt>
      <trkpt lat="44.39133" lon="3.91873">
        <ele>1047</ele>
        <time>2012-01-03T12:58:20Z</time>
      </trkpt>
      <trkpt lat="44.3913" lon="3.9188">
        <ele>1047</ele>
        <time>2012-01-03T12:58:25Z</time>
      </trkpt>
      <trkpt lat="44.39128" lon="3.91883">
        <ele>1047</ele>
        <time>2012-01-03T12:58:27Z</time>
      </trkpt>
      <trkpt lat="44.39128" lon="3.91887">
        <ele>1047</ele>
        <time>2012-01-03T12:58:32Z</time>
      </trkpt>
      <trkpt lat="44.39127" lon="3.91892">
        <ele>1047</ele>
        <time>2012-01-03T12:58:32Z</time>
      </trkpt>
      <trkpt lat="44.39126" lon="3.91894">
        <ele>1047</ele>
        <time>2012-01-03T12:58:33Z</time>
      </trkpt>
      <trkpt lat="44.39125" lon="3.91898">
        <ele>1047</ele>
        <time>2012-01-03T12:58:38Z</time>
      </trkpt>
      <trkpt lat="44.39125" lon="3.91903">
        <ele>1047</ele>
        <time>2012-01-03T12:58:38Z</time>
      </trkpt>
      <trkpt lat="44.39124" lon="3.91905">
        <ele>1047</ele>
        <time>2012-01-03T12:58:39Z</time>
      </trkpt>
      <trkpt lat="44.3912" lon="3.91914">
        <ele>1047</ele>
        <time>2012-01-03T12:58:44Z</time>
      </trkpt>
      <trkpt lat="44.39119" lon="3.91916">
        <ele>1048</ele>
        <time>2012-01-03T12:58:45Z</time>
      </trkpt>
      <trkpt lat="44.39119" lon="3.91918">
        <ele>1049</ele>
        <time>2012-01-03T12:58:46Z</time>
      </trkpt>
      <trkpt lat="44.39117" lon="3.91921">
        <ele>1050</ele>
        <time>2012-01-03T12:58:51Z</time>
      </trkpt>
      <trkpt lat="44.39114" lon="3.91925">
        <ele>1051</ele>
        <time>2012-01-03T12:58:51Z</time>
      </trkpt>
      <trkpt lat="44.39112" lon="3.91927">
        <ele>1051</ele>
        <time>2012-01-03T12:58:53Z</time>
      </trkpt>
      <trkpt lat="44.39111" lon="3.91928">
        <ele>1051</ele>
        <time>2012-01-03T12:58:54Z</time>
      </trkpt>
      <trkpt lat="44.39108" lon="3.91929">
        <ele>1051</ele>
        <time>2012-01-03T12:58:59Z</time>
      </trkpt>
      <trkpt lat="44.39104" lon="3.91931">
        <ele>1051</ele>
        <time>2012-01-03T12:58:59Z</time>
      </trkpt>
      <trkpt lat="44.39103" lon="3.91934">
        <ele>1051</ele>
        <time>2012-01-03T12:59:01Z</time>
      </trkpt>
      <trkpt lat="44.391" lon="3.91935">
        <ele>1051</ele>
        <time>2012-01-03T12:59:07Z</time>
      </trkpt>
      <trkpt lat="44.39095" lon="3.91936">
        <ele>1051</ele>
        <time>2012-01-03T12:59:08Z</time>
      </trkpt>
      <trkpt lat="44.39093" lon="3.91936">
        <ele>1051</ele>
        <time>2012-01-03T12:59:13Z</time>
      </trkpt>
      <trkpt lat="44.39087" lon="3.91935">
        <ele>1051</ele>
        <time>2012-01-03T12:59:14Z</time>
      </trkpt>
      <trkpt lat="44.39086" lon="3.91935">
        <ele>1051</ele>
        <time>2012-01-03T12:59:16Z</time>
      </trkpt>
      <trkpt lat="44.39084" lon="3.91933">
        <ele>1051</ele>
        <time>2012-01-03T12:59:23Z</time>
      </trkpt>
      <trkpt lat="44.39083" lon="3.91935">
        <ele>1051</ele>
        <time>2012-01-03T12:59:30Z</time>
      </trkpt>
      <trkpt lat="44.39084" lon="3.91939">
        <ele>1051</ele>
        <time>2012-01-03T12:59:31Z</time>
      </trkpt>
      <trkpt lat="44.39083" lon="3.9194">
        <ele>1051</ele>
        <time>2012-01-03T12:59:38Z</time>
      </trkpt>
      <trkpt lat="44.39081" lon="3.91941">
        <ele>1051</ele>
        <time>2012-01-03T12:59:39Z</time>
      </trkpt>
      <trkpt lat="44.39079" lon="3.9194">
        <ele>1049</ele>
        <time>2012-01-03T12:59:41Z</time>
      </trkpt>
      <trkpt lat="44.39076" lon="3.91938">
        <ele>1048</ele>
        <time>2012-01-03T12:59:46Z</time>
      </trkpt>
      <trkpt lat="44.39068" lon="3.91935">
        <ele>1047</ele>
        <time>2012-01-03T12:59:47Z</time>
      </trkpt>
      <trkpt lat="44.39066" lon="3.91936">
        <ele>1047</ele>
        <time>2012-01-03T12:59:48Z</time>
      </trkpt>
      <trkpt lat="44.39063" lon="3.91936">
        <ele>1047</ele>
        <time>2012-01-03T12:59:54Z</time>
      </trkpt>
      <trkpt lat="44.39057" lon="3.9193">
        <ele>1047</ele>
        <time>2012-01-03T12:59:54Z</time>
      </trkpt>
      <trkpt lat="44.39055" lon="3.91929">
        <ele>1047</ele>
        <time>2012-01-03T12:59:55Z</time>
      </trkpt>
      <trkpt lat="44.39053" lon="3.91927">
        <ele>1047</ele>
        <time>2012-01-03T12:59:56Z</time>
      </trkpt>
      <trkpt lat="44.39046" lon="3.91921">
        <ele>1047</ele>
        <time>2012-01-03T13:00:01Z</time>
      </trkpt>
      <trkpt lat="44.39044" lon="3.9192">
        <ele>1048</ele>
        <time>2012-01-03T13:00:02Z</time>
      </trkpt>
      <trkpt lat="44.3904" lon="3.91917">
        <ele>1048</ele>
        <time>2012-01-03T13:00:08Z</time>
      </trkpt>
      <trkpt lat="44.39035" lon="3.91914">
        <ele>1049</ele>
        <time>2012-01-03T13:00:08Z</time>
      </trkpt>
      <trkpt lat="44.39034" lon="3.91913">
        <ele>1050</ele>
        <time>2012-01-03T13:00:09Z</time>
      </trkpt>
      <trkpt lat="44.39032" lon="3.9191">
        <ele>1051</ele>
        <time>2012-01-03T13:00:14Z</time>
      </trkpt>
      <trkpt lat="44.39025" lon="3.91903">
        <ele>1051</ele>
        <time>2012-01-03T13:00:15Z</time>
      </trkpt>
      <trkpt lat="44.39024" lon="3.91901">
        <ele>1052</ele>
        <time>2012-01-03T13:00:17Z</time>
      </trkpt>
      <trkpt lat="44.39022" lon="3.91899">
        <ele>1052</ele>
        <time>2012-01-03T13:00:21Z</time>
      </trkpt>
      <trkpt lat="44.39019" lon="3.91896">
        <ele>1053</ele>
        <time>2012-01-03T13:00:22Z</time>
      </trkpt>
      <trkpt lat="44.39017" lon="3.91898">
        <ele>1053</ele>
        <time>2012-01-03T13:00:25Z</time>
      </trkpt>
      <trkpt lat="44.39014" lon="3.91898">
        <ele>1054</ele>
        <time>2012-01-03T13:00:30Z</time>
      </trkpt>
      <trkpt lat="44.39011" lon="3.91898">
        <ele>1055</ele>
        <time>2012-01-03T13:00:31Z</time>
      </trkpt>
      <trkpt lat="44.39008" lon="3.91897">
        <ele>1055</ele>
        <time>2012-01-03T13:00:38Z</time>
      </trkpt>
      <trkpt lat="44.39003" lon="3.91893">
        <ele>1055</ele>
        <time>2012-01-03T13:00:38Z</time>
      </trkpt>
      <trkpt lat="44.38999" lon="3.9189">
        <ele>1055</ele>
        <time>2012-01-03T13:00:43Z</time>
      </trkpt>
      <trkpt lat="44.38995" lon="3.91886">
        <ele>1055</ele>
        <time>2012-01-03T13:00:43Z</time>
      </trkpt>
      <trkpt lat="44.38993" lon="3.91885">
        <ele>1055</ele>
        <time>2012-01-03T13:00:44Z</time>
      </trkpt>
      <trkpt lat="44.3899" lon="3.91883">
        <ele>1055</ele>
        <time>2012-01-03T13:00:49Z</time>
      </trkpt>
      <trkpt lat="44.38983" lon="3.9188">
        <ele>1055</ele>
        <time>2012-01-03T13:00:50Z</time>
      </trkpt>
      <trkpt lat="44.38982" lon="3.9188">
        <ele>1055</ele>
        <time>2012-01-03T13:00:51Z</time>
      </trkpt>
      <trkpt lat="44.38979" lon="3.91879">
        <ele>1055</ele>
        <time>2012-01-03T13:00:56Z</time>
      </trkpt>
      <trkpt lat="44.38974" lon="3.91875">
        <ele>1055</ele>
        <time>2012-01-03T13:00:56Z</time>
      </trkpt>
      <trkpt lat="44.38972" lon="3.91874">
        <ele>1055</ele>
        <time>2012-01-03T13:00:57Z</time>
      </trkpt>
      <trkpt lat="44.38971" lon="3.91873">
        <ele>1055</ele>
        <time>2012-01-03T13:00:58Z</time>
      </trkpt>
      <trkpt lat="44.3897" lon="3.91873">
        <ele>1055</ele>
        <time>2012-01-03T13:00:59Z</time>
      </trkpt>
      <trkpt lat="44.38967" lon="3.91873">
        <ele>1055</ele>
        <time>2012-01-03T13:01:04Z</time>
      </trkpt>
      <trkpt lat="44.38962" lon="3.91872">
        <ele>1055</ele>
        <time>2012-01-03T13:01:05Z</time>
      </trkpt>
      <trkpt lat="44.3896" lon="3.9187">
        <ele>1055</ele>
        <time>2012-01-03T13:01:06Z</time>
      </trkpt>
      <trkpt lat="44.38958" lon="3.91868">
        <ele>1055</ele>
        <time>2012-01-03T13:01:07Z</time>
      </trkpt>
      <trkpt lat="44.38956" lon="3.91866">
        <ele>1055</ele>
        <time>2012-01-03T13:01:13Z</time>
      </trkpt>
      <trkpt lat="44.38949" lon="3.91864">
        <ele>1055</ele>
        <time>2012-01-03T13:01:13Z</time>
      </trkpt>
      <trkpt lat="44.38947" lon="3.91865">
        <ele>1055</ele>
        <time>2012-01-03T13:01:14Z</time>
      </trkpt>
      <trkpt lat="44.38945" lon="3.91866">
        <ele>1055</ele>
        <time>2012-01-03T13:01:15Z</time>
      </trkpt>
      <trkpt lat="44.38943" lon="3.91867">
        <ele>1056</ele>
        <time>2012-01-03T13:01:20Z</time>
      </trkpt>
      <trkpt lat="44.38938" lon="3.91866">
        <ele>1057</ele>
        <time>2012-01-03T13:01:20Z</time>
      </trkpt>
      <trkpt lat="44.38936" lon="3.91866">
        <ele>1058</ele>
        <time>2012-01-03T13:01:21Z</time>
      </trkpt>
      <trkpt lat="44.38935" lon="3.91868">
        <ele>1059</ele>
        <time>2012-01-03T13:01:22Z</time>
      </trkpt>
      <trkpt lat="44.38933" lon="3.91872">
        <ele>1061</ele>
        <time>2012-01-03T13:01:29Z</time>
      </trkpt>
      <trkpt lat="44.38927" lon="3.91872">
        <ele>1062</ele>
        <time>2012-01-03T13:01:30Z</time>
      </trkpt>
      <trkpt lat="44.38921" lon="3.91872">
        <ele>1062</ele>
        <time>2012-01-03T13:01:34Z</time>
      </trkpt>
      <trkpt lat="44.38919" lon="3.91872">
        <ele>1062</ele>
        <time>2012-01-03T13:01:35Z</time>
      </trkpt>
      <trkpt lat="44.38915" lon="3.9187">
        <ele>1062</ele>
        <time>2012-01-03T13:01:36Z</time>
      </trkpt>
      <trkpt lat="44.38913" lon="3.9187">
        <ele>1062</ele>
        <time>2012-01-03T13:01:38Z</time>
      </trkpt>
      <trkpt lat="44.38911" lon="3.9187">
        <ele>1062</ele>
        <time>2012-01-03T13:01:39Z</time>
      </trkpt>
      <trkpt lat="44.3891" lon="3.91871">
        <ele>1062</ele>
        <time>2012-01-03T13:01:40Z</time>
      </trkpt>
      <trkpt lat="44.38907" lon="3.91872">
        <ele>1062</ele>
        <time>2012-01-03T13:01:40Z</time>
      </trkpt>
      <trkpt lat="44.38905" lon="3.91873">
        <ele>1062</ele>
        <time>2012-01-03T13:01:41Z</time>
      </trkpt>
      <trkpt lat="44.38903" lon="3.91873">
        <ele>1062</ele>
        <time>2012-01-03T13:01:42Z</time>
      </trkpt>
      <trkpt lat="44.38901" lon="3.91874">
        <ele>1062</ele>
        <time>2012-01-03T13:01:43Z</time>
      </trkpt>
      <trkpt lat="44.38899" lon="3.91875">
        <ele>1062</ele>
        <time>2012-01-03T13:01:44Z</time>
      </trkpt>
      <trkpt lat="44.38897" lon="3.91875">
        <ele>1062</ele>
        <time>2012-01-03T13:01:45Z</time>
      </trkpt>
      <trkpt lat="44.38895" lon="3.91876">
        <ele>1062</ele>
        <time>2012-01-03T13:01:46Z</time>
      </trkpt>
      <trkpt lat="44.38893" lon="3.91877">
        <ele>1062</ele>
        <time>2012-01-03T13:01:47Z</time>
      </trkpt>
      <trkpt lat="44.38891" lon="3.91878">
        <ele>1062</ele>
        <time>2012-01-03T13:01:48Z</time>
      </trkpt>
      <trkpt lat="44.38889" lon="3.91879">
        <ele>1062</ele>
        <time>2012-01-03T13:01:49Z</time>
      </trkpt>
      <trkpt lat="44.38888" lon="3.91881">
        <ele>1062</ele>
        <time>2012-01-03T13:01:50Z</time>
      </trkpt>
      <trkpt lat="44.38885" lon="3.91882">
        <ele>1062</ele>
        <time>2012-01-03T13:01:51Z</time>
      </trkpt>
      <trkpt lat="44.38884" lon="3.91883">
        <ele>1062</ele>
        <time>2012-01-03T13:01:52Z</time>
      </trkpt>
      <trkpt lat="44.38882" lon="3.91884">
        <ele>1062</ele>
        <time>2012-01-03T13:01:53Z</time>
      </trkpt>
      <trkpt lat="44.3888" lon="3.91885">
        <ele>1062</ele>
        <time>2012-01-03T13:01:54Z</time>
      </trkpt>
      <trkpt lat="44.38878" lon="3.91885">
        <ele>1062</ele>
        <time>2012-01-03T13:01:55Z</time>
      </trkpt>
      <trkpt lat="44.38876" lon="3.91885">
        <ele>1062</ele>
        <time>2012-01-03T13:01:56Z</time>
      </trkpt>
      <trkpt lat="44.38875" lon="3.91885">
        <ele>1062</ele>
        <time>2012-01-03T13:01:57Z</time>
      </trkpt>
      <trkpt lat="44.38873" lon="3.91885">
        <ele>1062</ele>
        <time>2012-01-03T13:01:58Z</time>
      </trkpt>
      <trkpt lat="44.38871" lon="3.91886">
        <ele>1062</ele>
        <time>2012-01-03T13:01:59Z</time>
      </trkpt>
      <trkpt lat="44.38869" lon="3.91887">
        <ele>1062</ele>
        <time>2012-01-03T13:02:00Z</time>
      </trkpt>
      <trkpt lat="44.38868" lon="3.91888">
        <ele>1062</ele>
        <time>2012-01-03T13:02:02Z</time>
      </trkpt>
      <trkpt lat="44.38866" lon="3.91888">
        <ele>1062</ele>
        <time>2012-01-03T13:02:02Z</time>
      </trkpt>
      <trkpt lat="44.38865" lon="3.91888">
        <ele>1062</ele>
        <time>2012-01-03T13:02:03Z</time>
      </trkpt>
      <trkpt lat="44.38863" lon="3.91888">
        <ele>1062</ele>
        <time>2012-01-03T13:02:04Z</time>
      </trkpt>
      <trkpt lat="44.38861" lon="3.91887">
        <ele>1062</ele>
        <time>2012-01-03T13:02:05Z</time>
      </trkpt>
      <trkpt lat="44.3886" lon="3.91887">
        <ele>1062</ele>
        <time>2012-01-03T13:02:06Z</time>
      </trkpt>
      <trkpt lat="44.38859" lon="3.91887">
        <ele>1062</ele>
        <time>2012-01-03T13:02:07Z</time>
      </trkpt>
      <trkpt lat="44.38857" lon="3.91886">
        <ele>1062</ele>
        <time>2012-01-03T13:02:08Z</time>
      </trkpt>
      <trkpt lat="44.38855" lon="3.91886">
        <ele>1062</ele>
        <time>2012-01-03T13:02:09Z</time>
      </trkpt>
      <trkpt lat="44.38849" lon="3.91888">
        <ele>1062</ele>
        <time>2012-01-03T13:02:17Z</time>
      </trkpt>
      <trkpt lat="44.38843" lon="3.91891">
        <ele>1062</ele>
        <time>2012-01-03T13:02:17Z</time>
      </trkpt>
      <trkpt lat="44.38835" lon="3.91894">
        <ele>1063</ele>
        <time>2012-01-03T13:02:22Z</time>
      </trkpt>
      <trkpt lat="44.38834" lon="3.91894">
        <ele>1064</ele>
        <time>2012-01-03T13:02:23Z</time>
      </trkpt>
      <trkpt lat="44.38832" lon="3.91894">
        <ele>1065</ele>
        <time>2012-01-03T13:02:24Z</time>
      </trkpt>
      <trkpt lat="44.38829" lon="3.91894">
        <ele>1065</ele>
        <time>2012-01-03T13:02:29Z</time>
      </trkpt>
      <trkpt lat="44.38824" lon="3.91892">
        <ele>1066</ele>
        <time>2012-01-03T13:02:29Z</time>
      </trkpt>
      <trkpt lat="44.38823" lon="3.91892">
        <ele>1066</ele>
        <time>2012-01-03T13:02:30Z</time>
      </trkpt>
      <trkpt lat="44.38821" lon="3.91892">
        <ele>1066</ele>
        <time>2012-01-03T13:02:31Z</time>
      </trkpt>
      <trkpt lat="44.38819" lon="3.91891">
        <ele>1066</ele>
        <time>2012-01-03T13:02:32Z</time>
      </trkpt>
      <trkpt lat="44.38815" lon="3.9189">
        <ele>1066</ele>
        <time>2012-01-03T13:02:37Z</time>
      </trkpt>
      <trkpt lat="44.38808" lon="3.91884">
        <ele>1066</ele>
        <time>2012-01-03T13:02:38Z</time>
      </trkpt>
      <trkpt lat="44.38807" lon="3.91883">
        <ele>1066</ele>
        <time>2012-01-03T13:02:39Z</time>
      </trkpt>
      <trkpt lat="44.38805" lon="3.91881">
        <ele>1066</ele>
        <time>2012-01-03T13:02:40Z</time>
      </trkpt>
      <trkpt lat="44.38804" lon="3.91879">
        <ele>1066</ele>
        <time>2012-01-03T13:02:45Z</time>
      </trkpt>
      <trkpt lat="44.388" lon="3.91875">
        <ele>1066</ele>
        <time>2012-01-03T13:02:45Z</time>
      </trkpt>
      <trkpt lat="44.38799" lon="3.91874">
        <ele>1066</ele>
        <time>2012-01-03T13:02:46Z</time>
      </trkpt>
      <trkpt lat="44.38794" lon="3.91867">
        <ele>1066</ele>
        <time>2012-01-03T13:02:51Z</time>
      </trkpt>
      <trkpt lat="44.38793" lon="3.91865">
        <ele>1066</ele>
        <time>2012-01-03T13:02:52Z</time>
      </trkpt>
      <trkpt lat="44.38792" lon="3.91863">
        <ele>1066</ele>
        <time>2012-01-03T13:02:53Z</time>
      </trkpt>
      <trkpt lat="44.38791" lon="3.91861">
        <ele>1066</ele>
        <time>2012-01-03T13:02:58Z</time>
      </trkpt>
      <trkpt lat="44.38789" lon="3.91857">
        <ele>1066</ele>
        <time>2012-01-03T13:02:58Z</time>
      </trkpt>
      <trkpt lat="44.38789" lon="3.91855">
        <ele>1067</ele>
        <time>2012-01-03T13:02:59Z</time>
      </trkpt>
      <trkpt lat="44.38786" lon="3.91853">
        <ele>1068</ele>
        <time>2012-01-03T13:03:05Z</time>
      </trkpt>
      <trkpt lat="44.38784" lon="3.91851">
        <ele>1068</ele>
        <time>2012-01-03T13:03:05Z</time>
      </trkpt>
      <trkpt lat="44.38781" lon="3.91849">
        <ele>1069</ele>
        <time>2012-01-03T13:03:14Z</time>
      </trkpt>
      <trkpt lat="44.38779" lon="3.91848">
        <ele>1069</ele>
        <time>2012-01-03T13:03:15Z</time>
      </trkpt>
      <trkpt lat="44.38779" lon="3.91847">
        <ele>1069</ele>
        <time>2012-01-03T13:03:16Z</time>
      </trkpt>
      <trkpt lat="44.38777" lon="3.91842">
        <ele>1069</ele>
        <time>2012-01-03T13:03:21Z</time>
      </trkpt>
      <trkpt lat="44.38774" lon="3.91837">
        <ele>1069</ele>
        <time>2012-01-03T13:03:21Z</time>
      </trkpt>
      <trkpt lat="44.38773" lon="3.91835">
        <ele>1069</ele>
        <time>2012-01-03T13:03:22Z</time>
      </trkpt>
      <trkpt lat="44.38771" lon="3.91831">
        <ele>1069</ele>
        <time>2012-01-03T13:03:28Z</time>
      </trkpt>
      <trkpt lat="44.38769" lon="3.91828">
        <ele>1069</ele>
        <time>2012-01-03T13:03:28Z</time>
      </trkpt>
      <trkpt lat="44.38768" lon="3.91828">
        <ele>1069</ele>
        <time>2012-01-03T13:03:32Z</time>
      </trkpt>
      <trkpt lat="44.38765" lon="3.91827">
        <ele>1069</ele>
        <time>2012-01-03T13:03:37Z</time>
      </trkpt>
      <trkpt lat="44.3876" lon="3.91821">
        <ele>1069</ele>
        <time>2012-01-03T13:03:37Z</time>
      </trkpt>
      <trkpt lat="44.38758" lon="3.91819">
        <ele>1069</ele>
        <time>2012-01-03T13:03:38Z</time>
      </trkpt>
      <trkpt lat="44.38755" lon="3.91816">
        <ele>1069</ele>
        <time>2012-01-03T13:03:43Z</time>
      </trkpt>
      <trkpt lat="44.3875" lon="3.91812">
        <ele>1069</ele>
        <time>2012-01-03T13:03:43Z</time>
      </trkpt>
      <trkpt lat="44.38747" lon="3.91809">
        <ele>1069</ele>
        <time>2012-01-03T13:03:49Z</time>
      </trkpt>
      <trkpt lat="44.38744" lon="3.91807">
        <ele>1069</ele>
        <time>2012-01-03T13:03:49Z</time>
      </trkpt>
      <trkpt lat="44.38743" lon="3.91807">
        <ele>1069</ele>
        <time>2012-01-03T13:03:50Z</time>
      </trkpt>
      <trkpt lat="44.38741" lon="3.91807">
        <ele>1069</ele>
        <time>2012-01-03T13:03:51Z</time>
      </trkpt>
      <trkpt lat="44.38737" lon="3.91808">
        <ele>1070</ele>
        <time>2012-01-03T13:03:57Z</time>
      </trkpt>
      <trkpt lat="44.38727" lon="3.91809">
        <ele>1071</ele>
        <time>2012-01-03T13:03:59Z</time>
      </trkpt>
      <trkpt lat="44.38725" lon="3.9181">
        <ele>1072</ele>
        <time>2012-01-03T13:04:00Z</time>
      </trkpt>
      <trkpt lat="44.38721" lon="3.91813">
        <ele>1073</ele>
        <time>2012-01-03T13:04:05Z</time>
      </trkpt>
      <trkpt lat="44.38716" lon="3.91822">
        <ele>1074</ele>
        <time>2012-01-03T13:04:05Z</time>
      </trkpt>
      <trkpt lat="44.38715" lon="3.91824">
        <ele>1075</ele>
        <time>2012-01-03T13:04:06Z</time>
      </trkpt>
      <trkpt lat="44.38714" lon="3.91826">
        <ele>1076</ele>
        <time>2012-01-03T13:04:07Z</time>
      </trkpt>
      <trkpt lat="44.38711" lon="3.91831">
        <ele>1077</ele>
        <time>2012-01-03T13:04:12Z</time>
      </trkpt>
      <trkpt lat="44.3871" lon="3.91833">
        <ele>1079</ele>
        <time>2012-01-03T13:04:12Z</time>
      </trkpt>
      <trkpt lat="44.38709" lon="3.91833">
        <ele>1080</ele>
        <time>2012-01-03T13:04:14Z</time>
      </trkpt>
      <trkpt lat="44.38707" lon="3.91834">
        <ele>1081</ele>
        <time>2012-01-03T13:04:15Z</time>
      </trkpt>
      <trkpt lat="44.38705" lon="3.91838">
        <ele>1082</ele>
        <time>2012-01-03T13:04:20Z</time>
      </trkpt>
      <trkpt lat="44.38703" lon="3.91842">
        <ele>1083</ele>
        <time>2012-01-03T13:04:20Z</time>
      </trkpt>
      <trkpt lat="44.387" lon="3.9185">
        <ele>1084</ele>
        <time>2012-01-03T13:04:26Z</time>
      </trkpt>
      <trkpt lat="44.38698" lon="3.91851">
        <ele>1084</ele>
        <time>2012-01-03T13:04:32Z</time>
      </trkpt>
      <trkpt lat="44.38695" lon="3.91855">
        <ele>1084</ele>
        <time>2012-01-03T13:04:33Z</time>
      </trkpt>
      <trkpt lat="44.38693" lon="3.91856">
        <ele>1084</ele>
        <time>2012-01-03T13:04:36Z</time>
      </trkpt>
      <trkpt lat="44.38691" lon="3.91858">
        <ele>1084</ele>
        <time>2012-01-03T13:04:40Z</time>
      </trkpt>
      <trkpt lat="44.38686" lon="3.91861">
        <ele>1084</ele>
        <time>2012-01-03T13:04:41Z</time>
      </trkpt>
      <trkpt lat="44.38683" lon="3.91863">
        <ele>1084</ele>
        <time>2012-01-03T13:04:48Z</time>
      </trkpt>
      <trkpt lat="44.38676" lon="3.91865">
        <ele>1084</ele>
        <time>2012-01-03T13:04:49Z</time>
      </trkpt>
      <trkpt lat="44.38675" lon="3.91866">
        <ele>1084</ele>
        <time>2012-01-03T13:04:50Z</time>
      </trkpt>
      <trkpt lat="44.38673" lon="3.91866">
        <ele>1084</ele>
        <time>2012-01-03T13:04:51Z</time>
      </trkpt>
      <trkpt lat="44.38671" lon="3.91866">
        <ele>1084</ele>
        <time>2012-01-03T13:04:57Z</time>
      </trkpt>
      <trkpt lat="44.38667" lon="3.91866">
        <ele>1084</ele>
        <time>2012-01-03T13:04:57Z</time>
      </trkpt>
      <trkpt lat="44.38665" lon="3.91866">
        <ele>1084</ele>
        <time>2012-01-03T13:05:02Z</time>
      </trkpt>
      <trkpt lat="44.3866" lon="3.91864">
        <ele>1084</ele>
        <time>2012-01-03T13:05:03Z</time>
      </trkpt>
      <trkpt lat="44.38659" lon="3.91863">
        <ele>1084</ele>
        <time>2012-01-03T13:05:04Z</time>
      </trkpt>
      <trkpt lat="44.38657" lon="3.91863">
        <ele>1084</ele>
        <time>2012-01-03T13:05:10Z</time>
      </trkpt>
      <trkpt lat="44.38652" lon="3.9186">
        <ele>1084</ele>
        <time>2012-01-03T13:05:11Z</time>
      </trkpt>
      <trkpt lat="44.3865" lon="3.91857">
        <ele>1084</ele>
        <time>2012-01-03T13:05:16Z</time>
      </trkpt>
      <trkpt lat="44.38649" lon="3.91858">
        <ele>1084</ele>
        <time>2012-01-03T13:05:19Z</time>
      </trkpt>
      <trkpt lat="44.38648" lon="3.91856">
        <ele>1084</ele>
        <time>2012-01-03T13:05:30Z</time>
      </trkpt>
      <trkpt lat="44.38646" lon="3.91848">
        <ele>1086</ele>
        <time>2012-01-03T13:05:37Z</time>
      </trkpt>
      <trkpt lat="44.38645" lon="3.91846">
        <ele>1086</ele>
        <time>2012-01-03T13:05:39Z</time>
      </trkpt>
      <trkpt lat="44.38644" lon="3.91843">
        <ele>1086</ele>
        <time>2012-01-03T13:05:46Z</time>
      </trkpt>
      <trkpt lat="44.38643" lon="3.91834">
        <ele>1086</ele>
        <time>2012-01-03T13:05:47Z</time>
      </trkpt>
      <trkpt lat="44.38643" lon="3.91832">
        <ele>1086</ele>
        <time>2012-01-03T13:05:48Z</time>
      </trkpt>
      <trkpt lat="44.38643" lon="3.91822">
        <ele>1086</ele>
        <time>2012-01-03T13:05:54Z</time>
      </trkpt>
      <trkpt lat="44.38643" lon="3.91821">
        <ele>1086</ele>
        <time>2012-01-03T13:05:55Z</time>
      </trkpt>
      <trkpt lat="44.38642" lon="3.91817">
        <ele>1086</ele>
        <time>2012-01-03T13:06:00Z</time>
      </trkpt>
      <trkpt lat="44.38643" lon="3.91812">
        <ele>1086</ele>
        <time>2012-01-03T13:06:00Z</time>
      </trkpt>
      <trkpt lat="44.38643" lon="3.9181">
        <ele>1086</ele>
        <time>2012-01-03T13:06:01Z</time>
      </trkpt>
      <trkpt lat="44.38643" lon="3.91806">
        <ele>1086</ele>
        <time>2012-01-03T13:06:06Z</time>
      </trkpt>
      <trkpt lat="44.38643" lon="3.91801">
        <ele>1086</ele>
        <time>2012-01-03T13:06:06Z</time>
      </trkpt>
      <trkpt lat="44.38643" lon="3.91799">
        <ele>1086</ele>
        <time>2012-01-03T13:06:07Z</time>
      </trkpt>
      <trkpt lat="44.38643" lon="3.91797">
        <ele>1086</ele>
        <time>2012-01-03T13:06:12Z</time>
      </trkpt>
      <trkpt lat="44.38641" lon="3.91792">
        <ele>1086</ele>
        <time>2012-01-03T13:06:13Z</time>
      </trkpt>
      <trkpt lat="44.38639" lon="3.91789">
        <ele>1086</ele>
        <time>2012-01-03T13:06:20Z</time>
      </trkpt>
      <trkpt lat="44.38637" lon="3.91781">
        <ele>1086</ele>
        <time>2012-01-03T13:06:21Z</time>
      </trkpt>
      <trkpt lat="44.38634" lon="3.91777">
        <ele>1086</ele>
        <time>2012-01-03T13:06:26Z</time>
      </trkpt>
      <trkpt lat="44.38629" lon="3.91772">
        <ele>1086</ele>
        <time>2012-01-03T13:06:26Z</time>
      </trkpt>
      <trkpt lat="44.38628" lon="3.91771">
        <ele>1087</ele>
        <time>2012-01-03T13:06:27Z</time>
      </trkpt>
      <trkpt lat="44.38625" lon="3.91767">
        <ele>1087</ele>
        <time>2012-01-03T13:06:32Z</time>
      </trkpt>
      <trkpt lat="44.38619" lon="3.91759">
        <ele>1087</ele>
        <time>2012-01-03T13:06:33Z</time>
      </trkpt>
      <trkpt lat="44.38617" lon="3.91757">
        <ele>1087</ele>
        <time>2012-01-03T13:06:34Z</time>
      </trkpt>
      <trkpt lat="44.38615" lon="3.91752">
        <ele>1087</ele>
        <time>2012-01-03T13:06:39Z</time>
      </trkpt>
      <trkpt lat="44.3861" lon="3.91746">
        <ele>1087</ele>
        <time>2012-01-03T13:06:39Z</time>
      </trkpt>
      <trkpt lat="44.38608" lon="3.91744">
        <ele>1087</ele>
        <time>2012-01-03T13:06:40Z</time>
      </trkpt>
      <trkpt lat="44.38605" lon="3.91741">
        <ele>1087</ele>
        <time>2012-01-03T13:06:45Z</time>
      </trkpt>
      <trkpt lat="44.38602" lon="3.91738">
        <ele>1087</ele>
        <time>2012-01-03T13:06:45Z</time>
      </trkpt>
      <trkpt lat="44.38601" lon="3.91737">
        <ele>1087</ele>
        <time>2012-01-03T13:06:46Z</time>
      </trkpt>
      <trkpt lat="44.38597" lon="3.91735">
        <ele>1087</ele>
        <time>2012-01-03T13:06:51Z</time>
      </trkpt>
      <trkpt lat="44.38589" lon="3.91733">
        <ele>1087</ele>
        <time>2012-01-03T13:06:52Z</time>
      </trkpt>
      <trkpt lat="44.38586" lon="3.91733">
        <ele>1087</ele>
        <time>2012-01-03T13:06:53Z</time>
      </trkpt>
      <trkpt lat="44.38583" lon="3.91733">
        <ele>1087</ele>
        <time>2012-01-03T13:06:55Z</time>
      </trkpt>
      <trkpt lat="44.38572" lon="3.91734">
        <ele>1088</ele>
        <time>2012-01-03T13:07:00Z</time>
      </trkpt>
      <trkpt lat="44.3857" lon="3.91734">
        <ele>1089</ele>
        <time>2012-01-03T13:07:01Z</time>
      </trkpt>
      <trkpt lat="44.38568" lon="3.91734">
        <ele>1090</ele>
        <time>2012-01-03T13:07:03Z</time>
      </trkpt>
      <trkpt lat="44.38565" lon="3.91737">
        <ele>1091</ele>
        <time>2012-01-03T13:07:08Z</time>
      </trkpt>
      <trkpt lat="44.38558" lon="3.91742">
        <ele>1092</ele>
        <time>2012-01-03T13:07:08Z</time>
      </trkpt>
      <trkpt lat="44.38557" lon="3.91744">
        <ele>1093</ele>
        <time>2012-01-03T13:07:09Z</time>
      </trkpt>
      <trkpt lat="44.38555" lon="3.91746">
        <ele>1094</ele>
        <time>2012-01-03T13:07:10Z</time>
      </trkpt>
      <trkpt lat="44.38552" lon="3.9175">
        <ele>1095</ele>
        <time>2012-01-03T13:07:15Z</time>
      </trkpt>
      <trkpt lat="44.38549" lon="3.91757">
        <ele>1096</ele>
        <time>2012-01-03T13:07:15Z</time>
      </trkpt>
      <trkpt lat="44.38547" lon="3.91759">
        <ele>1097</ele>
        <time>2012-01-03T13:07:16Z</time>
      </trkpt>
      <trkpt lat="44.38545" lon="3.9176">
        <ele>1098</ele>
        <time>2012-01-03T13:07:21Z</time>
      </trkpt>
      <trkpt lat="44.38542" lon="3.91763">
        <ele>1099</ele>
        <time>2012-01-03T13:07:21Z</time>
      </trkpt>
      <trkpt lat="44.38541" lon="3.91764">
        <ele>1100</ele>
        <time>2012-01-03T13:07:22Z</time>
      </trkpt>
      <trkpt lat="44.38534" lon="3.91773">
        <ele>1101</ele>
        <time>2012-01-03T13:07:27Z</time>
      </trkpt>
      <trkpt lat="44.38532" lon="3.91775">
        <ele>1101</ele>
        <time>2012-01-03T13:07:28Z</time>
      </trkpt>
      <trkpt lat="44.38531" lon="3.91776">
        <ele>1101</ele>
        <time>2012-01-03T13:07:29Z</time>
      </trkpt>
      <trkpt lat="44.38528" lon="3.9178">
        <ele>1101</ele>
        <time>2012-01-03T13:07:34Z</time>
      </trkpt>
      <trkpt lat="44.38524" lon="3.91787">
        <ele>1101</ele>
        <time>2012-01-03T13:07:34Z</time>
      </trkpt>
      <trkpt lat="44.38522" lon="3.91789">
        <ele>1101</ele>
        <time>2012-01-03T13:07:35Z</time>
      </trkpt>
      <trkpt lat="44.3852" lon="3.91793">
        <ele>1101</ele>
        <time>2012-01-03T13:07:40Z</time>
      </trkpt>
      <trkpt lat="44.38517" lon="3.91799">
        <ele>1101</ele>
        <time>2012-01-03T13:07:40Z</time>
      </trkpt>
      <trkpt lat="44.38516" lon="3.918">
        <ele>1101</ele>
        <time>2012-01-03T13:07:42Z</time>
      </trkpt>
      <trkpt lat="44.38515" lon="3.91801">
        <ele>1101</ele>
        <time>2012-01-03T13:07:43Z</time>
      </trkpt>
      <trkpt lat="44.38512" lon="3.91805">
        <ele>1101</ele>
        <time>2012-01-03T13:07:49Z</time>
      </trkpt>
      <trkpt lat="44.38507" lon="3.91813">
        <ele>1101</ele>
        <time>2012-01-03T13:07:49Z</time>
      </trkpt>
      <trkpt lat="44.38499" lon="3.91823">
        <ele>1101</ele>
        <time>2012-01-03T13:07:54Z</time>
      </trkpt>
      <trkpt lat="44.38497" lon="3.91825">
        <ele>1101</ele>
        <time>2012-01-03T13:07:55Z</time>
      </trkpt>
      <trkpt lat="44.38494" lon="3.9183">
        <ele>1101</ele>
        <time>2012-01-03T13:08:00Z</time>
      </trkpt>
      <trkpt lat="44.38488" lon="3.9184">
        <ele>1101</ele>
        <time>2012-01-03T13:08:01Z</time>
      </trkpt>
      <trkpt lat="44.38486" lon="3.91842">
        <ele>1101</ele>
        <time>2012-01-03T13:08:02Z</time>
      </trkpt>
      <trkpt lat="44.38483" lon="3.91847">
        <ele>1101</ele>
        <time>2012-01-03T13:08:07Z</time>
      </trkpt>
      <trkpt lat="44.38478" lon="3.91852">
        <ele>1101</ele>
        <time>2012-01-03T13:08:07Z</time>
      </trkpt>
      <trkpt lat="44.38477" lon="3.91854">
        <ele>1101</ele>
        <time>2012-01-03T13:08:08Z</time>
      </trkpt>
      <trkpt lat="44.38475" lon="3.91855">
        <ele>1101</ele>
        <time>2012-01-03T13:08:09Z</time>
      </trkpt>
      <trkpt lat="44.38471" lon="3.91858">
        <ele>1101</ele>
        <time>2012-01-03T13:08:14Z</time>
      </trkpt>
      <trkpt lat="44.38465" lon="3.91866">
        <ele>1101</ele>
        <time>2012-01-03T13:08:14Z</time>
      </trkpt>
      <trkpt lat="44.38464" lon="3.91868">
        <ele>1101</ele>
        <time>2012-01-03T13:08:15Z</time>
      </trkpt>
      <trkpt lat="44.38461" lon="3.91872">
        <ele>1101</ele>
        <time>2012-01-03T13:08:20Z</time>
      </trkpt>
      <trkpt lat="44.38457" lon="3.91877">
        <ele>1101</ele>
        <time>2012-01-03T13:08:20Z</time>
      </trkpt>
      <trkpt lat="44.38456" lon="3.91879">
        <ele>1101</ele>
        <time>2012-01-03T13:08:21Z</time>
      </trkpt>
      <trkpt lat="44.38453" lon="3.91883">
        <ele>1101</ele>
        <time>2012-01-03T13:08:26Z</time>
      </trkpt>
      <trkpt lat="44.38446" lon="3.9189">
        <ele>1101</ele>
        <time>2012-01-03T13:08:27Z</time>
      </trkpt>
      <trkpt lat="44.38444" lon="3.91892">
        <ele>1101</ele>
        <time>2012-01-03T13:08:28Z</time>
      </trkpt>
      <trkpt lat="44.38442" lon="3.91893">
        <ele>1101</ele>
        <time>2012-01-03T13:08:29Z</time>
      </trkpt>
      <trkpt lat="44.38438" lon="3.91894">
        <ele>1101</ele>
        <time>2012-01-03T13:08:34Z</time>
      </trkpt>
      <trkpt lat="44.3843" lon="3.91898">
        <ele>1101</ele>
        <time>2012-01-03T13:08:34Z</time>
      </trkpt>
      <trkpt lat="44.38428" lon="3.91898">
        <ele>1100</ele>
        <time>2012-01-03T13:08:35Z</time>
      </trkpt>
      <trkpt lat="44.38422" lon="3.91898">
        <ele>1100</ele>
        <time>2012-01-03T13:08:40Z</time>
      </trkpt>
      <trkpt lat="44.38415" lon="3.91899">
        <ele>1099</ele>
        <time>2012-01-03T13:08:40Z</time>
      </trkpt>
      <trkpt lat="44.38412" lon="3.919">
        <ele>1099</ele>
        <time>2012-01-03T13:08:41Z</time>
      </trkpt>
      <trkpt lat="44.38408" lon="3.91901">
        <ele>1099</ele>
        <time>2012-01-03T13:08:46Z</time>
      </trkpt>
      <trkpt lat="44.38399" lon="3.91904">
        <ele>1099</ele>
        <time>2012-01-03T13:08:47Z</time>
      </trkpt>
      <trkpt lat="44.38397" lon="3.91906">
        <ele>1099</ele>
        <time>2012-01-03T13:08:48Z</time>
      </trkpt>
      <trkpt lat="44.38395" lon="3.9191">
        <ele>1099</ele>
        <time>2012-01-03T13:08:50Z</time>
      </trkpt>
      <trkpt lat="44.38385" lon="3.91929">
        <ele>1099</ele>
        <time>2012-01-03T13:08:54Z</time>
      </trkpt>
      <trkpt lat="44.38384" lon="3.91933">
        <ele>1100</ele>
        <time>2012-01-03T13:08:56Z</time>
      </trkpt>
      <trkpt lat="44.38382" lon="3.91935">
        <ele>1101</ele>
        <time>2012-01-03T13:08:56Z</time>
      </trkpt>
      <trkpt lat="44.3838" lon="3.91938">
        <ele>1102</ele>
        <time>2012-01-03T13:08:57Z</time>
      </trkpt>
      <trkpt lat="44.38377" lon="3.91944">
        <ele>1103</ele>
        <time>2012-01-03T13:09:02Z</time>
      </trkpt>
      <trkpt lat="44.38372" lon="3.91954">
        <ele>1104</ele>
        <time>2012-01-03T13:09:02Z</time>
      </trkpt>
      <trkpt lat="44.3837" lon="3.91957">
        <ele>1104</ele>
        <time>2012-01-03T13:09:03Z</time>
      </trkpt>
      <trkpt lat="44.38367" lon="3.91967">
        <ele>1105</ele>
        <time>2012-01-03T13:09:08Z</time>
      </trkpt>
      <trkpt lat="44.38365" lon="3.91981">
        <ele>1106</ele>
        <time>2012-01-03T13:09:08Z</time>
      </trkpt>
      <trkpt lat="44.38364" lon="3.91985">
        <ele>1106</ele>
        <time>2012-01-03T13:09:09Z</time>
      </trkpt>
      <trkpt lat="44.38364" lon="3.91989">
        <ele>1106</ele>
        <time>2012-01-03T13:09:10Z</time>
      </trkpt>
      <trkpt lat="44.38364" lon="3.91998">
        <ele>1106</ele>
        <time>2012-01-03T13:09:15Z</time>
      </trkpt>
      <trkpt lat="44.38362" lon="3.9201">
        <ele>1106</ele>
        <time>2012-01-03T13:09:15Z</time>
      </trkpt>
      <trkpt lat="44.38362" lon="3.92016">
        <ele>1106</ele>
        <time>2012-01-03T13:09:16Z</time>
      </trkpt>
      <trkpt lat="44.38359" lon="3.92035">
        <ele>1106</ele>
        <time>2012-01-03T13:09:21Z</time>
      </trkpt>
      <trkpt lat="44.38358" lon="3.92039">
        <ele>1106</ele>
        <time>2012-01-03T13:09:22Z</time>
      </trkpt>
      <trkpt lat="44.38357" lon="3.92044">
        <ele>1105</ele>
        <time>2012-01-03T13:09:23Z</time>
      </trkpt>
      <trkpt lat="44.38356" lon="3.92054">
        <ele>1104</ele>
        <time>2012-01-03T13:09:28Z</time>
      </trkpt>
      <trkpt lat="44.38353" lon="3.92066">
        <ele>1103</ele>
        <time>2012-01-03T13:09:28Z</time>
      </trkpt>
      <trkpt lat="44.38353" lon="3.9207">
        <ele>1102</ele>
        <time>2012-01-03T13:09:29Z</time>
      </trkpt>
      <trkpt lat="44.38351" lon="3.92079">
        <ele>1101</ele>
        <time>2012-01-03T13:09:34Z</time>
      </trkpt>
      <trkpt lat="44.38348" lon="3.92091">
        <ele>1100</ele>
        <time>2012-01-03T13:09:34Z</time>
      </trkpt>
      <trkpt lat="44.38347" lon="3.92094">
        <ele>1099</ele>
        <time>2012-01-03T13:09:35Z</time>
      </trkpt>
      <trkpt lat="44.38345" lon="3.92097">
        <ele>1099</ele>
        <time>2012-01-03T13:09:36Z</time>
      </trkpt>
      <trkpt lat="44.38344" lon="3.92099">
        <ele>1099</ele>
        <time>2012-01-03T13:09:37Z</time>
      </trkpt>
      <trkpt lat="44.38339" lon="3.921">
        <ele>1098</ele>
        <time>2012-01-03T13:09:42Z</time>
      </trkpt>
      <trkpt lat="44.38331" lon="3.921">
        <ele>1098</ele>
        <time>2012-01-03T13:09:43Z</time>
      </trkpt>
      <trkpt lat="44.38329" lon="3.921">
        <ele>1098</ele>
        <time>2012-01-03T13:09:44Z</time>
      </trkpt>
      <trkpt lat="44.38325" lon="3.921">
        <ele>1098</ele>
        <time>2012-01-03T13:09:50Z</time>
      </trkpt>
      <trkpt lat="44.38311" lon="3.92099">
        <ele>1098</ele>
        <time>2012-01-03T13:09:51Z</time>
      </trkpt>
      <trkpt lat="44.38308" lon="3.92097">
        <ele>1098</ele>
        <time>2012-01-03T13:09:56Z</time>
      </trkpt>
      <trkpt lat="44.38307" lon="3.92097">
        <ele>1096</ele>
        <time>2012-01-03T13:10:05Z</time>
      </trkpt>
      <trkpt lat="44.38308" lon="3.92101">
        <ele>1095</ele>
        <time>2012-01-03T13:10:13Z</time>
      </trkpt>
      <trkpt lat="44.38306" lon="3.92107">
        <ele>1095</ele>
        <time>2012-01-03T13:10:15Z</time>
      </trkpt>
      <trkpt lat="44.38306" lon="3.92108">
        <ele>1095</ele>
        <time>2012-01-03T13:10:22Z</time>
      </trkpt>
      <trkpt lat="44.38307" lon="3.92106">
        <ele>1095</ele>
        <time>2012-01-03T13:10:40Z</time>
      </trkpt>
      <trkpt lat="44.38304" lon="3.92099">
        <ele>1095</ele>
        <time>2012-01-03T13:10:40Z</time>
      </trkpt>
      <trkpt lat="44.38301" lon="3.92096">
        <ele>1095</ele>
        <time>2012-01-03T13:10:41Z</time>
      </trkpt>
      <trkpt lat="44.38298" lon="3.92091">
        <ele>1095</ele>
        <time>2012-01-03T13:10:46Z</time>
      </trkpt>
      <trkpt lat="44.38296" lon="3.92088">
        <ele>1095</ele>
        <time>2012-01-03T13:10:46Z</time>
      </trkpt>
      <trkpt lat="44.38297" lon="3.92089">
        <ele>1095</ele>
        <time>2012-01-03T13:10:51Z</time>
      </trkpt>
      <trkpt lat="44.38298" lon="3.9209">
        <ele>1095</ele>
        <time>2012-01-03T13:10:57Z</time>
      </trkpt>
      <trkpt lat="44.38296" lon="3.92087">
        <ele>1095</ele>
        <time>2012-01-03T13:11:05Z</time>
      </trkpt>
      <trkpt lat="44.38285" lon="3.92076">
        <ele>1095</ele>
        <time>2012-01-03T13:11:06Z</time>
      </trkpt>
      <trkpt lat="44.38277" lon="3.92069">
        <ele>1095</ele>
        <time>2012-01-03T13:11:10Z</time>
      </trkpt>
      <trkpt lat="44.38258" lon="3.92046">
        <ele>1095</ele>
        <time>2012-01-03T13:11:11Z</time>
      </trkpt>
      <trkpt lat="44.38253" lon="3.92041">
        <ele>1095</ele>
        <time>2012-01-03T13:11:12Z</time>
      </trkpt>
      <trkpt lat="44.38241" lon="3.9203">
        <ele>1095</ele>
        <time>2012-01-03T13:11:17Z</time>
      </trkpt>
      <trkpt lat="44.38218" lon="3.92013">
        <ele>1094</ele>
        <time>2012-01-03T13:11:17Z</time>
      </trkpt>
      <trkpt lat="44.38209" lon="3.92008">
        <ele>1093</ele>
        <time>2012-01-03T13:11:18Z</time>
      </trkpt>
      <trkpt lat="44.38164" lon="3.91986">
        <ele>1092</ele>
        <time>2012-01-03T13:11:23Z</time>
      </trkpt>
      <trkpt lat="44.38155" lon="3.91979">
        <ele>1091</ele>
        <time>2012-01-03T13:11:24Z</time>
      </trkpt>
      <trkpt lat="44.38146" lon="3.91974">
        <ele>1090</ele>
        <time>2012-01-03T13:11:25Z</time>
      </trkpt>
      <trkpt lat="44.38128" lon="3.91966">
        <ele>1088</ele>
        <time>2012-01-03T13:11:30Z</time>
      </trkpt>
      <trkpt lat="44.38103" lon="3.91962">
        <ele>1086</ele>
        <time>2012-01-03T13:11:30Z</time>
      </trkpt>
      <trkpt lat="44.38095" lon="3.91961">
        <ele>1084</ele>
        <time>2012-01-03T13:11:31Z</time>
      </trkpt>
      <trkpt lat="44.38086" lon="3.91961">
        <ele>1082</ele>
        <time>2012-01-03T13:11:32Z</time>
      </trkpt>
      <trkpt lat="44.38067" lon="3.91962">
        <ele>1080</ele>
        <time>2012-01-03T13:11:37Z</time>
      </trkpt>
      <trkpt lat="44.38047" lon="3.91968">
        <ele>1078</ele>
        <time>2012-01-03T13:11:37Z</time>
      </trkpt>
      <trkpt lat="44.3804" lon="3.91972">
        <ele>1077</ele>
        <time>2012-01-03T13:11:38Z</time>
      </trkpt>
      <trkpt lat="44.38025" lon="3.91979">
        <ele>1076</ele>
        <time>2012-01-03T13:11:43Z</time>
      </trkpt>
      <trkpt lat="44.38002" lon="3.91997">
        <ele>1075</ele>
        <time>2012-01-03T13:11:44Z</time>
      </trkpt>
      <trkpt lat="44.38" lon="3.92003">
        <ele>1074</ele>
        <time>2012-01-03T13:11:45Z</time>
      </trkpt>
      <trkpt lat="44.37999" lon="3.92023">
        <ele>1073</ele>
        <time>2012-01-03T13:11:51Z</time>
      </trkpt>
      <trkpt lat="44.37999" lon="3.92105">
        <ele>1072</ele>
        <time>2012-01-03T13:11:53Z</time>
      </trkpt>
      <trkpt lat="44.38007" lon="3.92182">
        <ele>1070</ele>
        <time>2012-01-03T13:11:59Z</time>
      </trkpt>
      <trkpt lat="44.38009" lon="3.92193">
        <ele>1068</ele>
        <time>2012-01-03T13:12:00Z</time>
      </trkpt>
      <trkpt lat="44.38008" lon="3.92214">
        <ele>1066</ele>
        <time>2012-01-03T13:12:05Z</time>
      </trkpt>
      <trkpt lat="44.38008" lon="3.92243">
        <ele>1064</ele>
        <time>2012-01-03T13:12:05Z</time>
      </trkpt>
      <trkpt lat="44.38009" lon="3.92252">
        <ele>1061</ele>
        <time>2012-01-03T13:12:06Z</time>
      </trkpt>
      <trkpt lat="44.38008" lon="3.92296">
        <ele>1059</ele>
        <time>2012-01-03T13:12:11Z</time>
      </trkpt>
      <trkpt lat="44.3801" lon="3.92305">
        <ele>1057</ele>
        <time>2012-01-03T13:12:13Z</time>
      </trkpt>
      <trkpt lat="44.38011" lon="3.92315">
        <ele>1055</ele>
        <time>2012-01-03T13:12:13Z</time>
      </trkpt>
      <trkpt lat="44.38011" lon="3.92324">
        <ele>1053</ele>
        <time>2012-01-03T13:12:14Z</time>
      </trkpt>
      <trkpt lat="44.3801" lon="3.92333">
        <ele>1051</ele>
        <time>2012-01-03T13:12:16Z</time>
      </trkpt>
      <trkpt lat="44.38008" lon="3.9235">
        <ele>1050</ele>
        <time>2012-01-03T13:12:20Z</time>
      </trkpt>
      <trkpt lat="44.38001" lon="3.92367">
        <ele>1049</ele>
        <time>2012-01-03T13:12:21Z</time>
      </trkpt>
      <trkpt lat="44.38" lon="3.92369">
        <ele>1047</ele>
        <time>2012-01-03T13:12:28Z</time>
      </trkpt>
      <trkpt lat="44.38001" lon="3.92369">
        <ele>1045</ele>
        <time>2012-01-03T13:12:37Z</time>
      </trkpt>
      <trkpt lat="44.38002" lon="3.92367">
        <ele>1045</ele>
        <time>2012-01-03T13:12:44Z</time>
      </trkpt>
      <trkpt lat="44.38001" lon="3.92363">
        <ele>1045</ele>
        <time>2012-01-03T13:12:53Z</time>
      </trkpt>
      <trkpt lat="44.38001" lon="3.9236">
        <ele>1043</ele>
        <time>2012-01-03T13:12:55Z</time>
      </trkpt>
      <trkpt lat="44.38002" lon="3.92359">
        <ele>1042</ele>
        <time>2012-01-03T13:12:56Z</time>
      </trkpt>
      <trkpt lat="44.38003" lon="3.92358">
        <ele>1041</ele>
        <time>2012-01-03T13:13:02Z</time>
      </trkpt>
      <trkpt lat="44.38002" lon="3.92368">
        <ele>1040</ele>
        <time>2012-01-03T13:13:03Z</time>
      </trkpt>
      <trkpt lat="44.37999" lon="3.92371">
        <ele>1039</ele>
        <time>2012-01-03T13:13:04Z</time>
      </trkpt>
      <trkpt lat="44.37996" lon="3.92374">
        <ele>1038</ele>
        <time>2012-01-03T13:13:05Z</time>
      </trkpt>
      <trkpt lat="44.37988" lon="3.9238">
        <ele>1037</ele>
        <time>2012-01-03T13:13:09Z</time>
      </trkpt>
      <trkpt lat="44.37975" lon="3.92392">
        <ele>1037</ele>
        <time>2012-01-03T13:13:10Z</time>
      </trkpt>
      <trkpt lat="44.37971" lon="3.92394">
        <ele>1037</ele>
        <time>2012-01-03T13:13:11Z</time>
      </trkpt>
      <trkpt lat="44.37962" lon="3.92396">
        <ele>1037</ele>
        <time>2012-01-03T13:13:16Z</time>
      </trkpt>
      <trkpt lat="44.37949" lon="3.92396">
        <ele>1037</ele>
        <time>2012-01-03T13:13:17Z</time>
      </trkpt>
      <trkpt lat="44.37944" lon="3.92397">
        <ele>1037</ele>
        <time>2012-01-03T13:13:18Z</time>
      </trkpt>
      <trkpt lat="44.37934" lon="3.92398">
        <ele>1037</ele>
        <time>2012-01-03T13:13:22Z</time>
      </trkpt>
      <trkpt lat="44.37913" lon="3.92399">
        <ele>1037</ele>
        <time>2012-01-03T13:13:23Z</time>
      </trkpt>
      <trkpt lat="44.37907" lon="3.924">
        <ele>1036</ele>
        <time>2012-01-03T13:13:24Z</time>
      </trkpt>
      <trkpt lat="44.37894" lon="3.92403">
        <ele>1036</ele>
        <time>2012-01-03T13:13:29Z</time>
      </trkpt>
      <trkpt lat="44.37874" lon="3.92405">
        <ele>1035</ele>
        <time>2012-01-03T13:13:29Z</time>
      </trkpt>
      <trkpt lat="44.37868" lon="3.92405">
        <ele>1035</ele>
        <time>2012-01-03T13:13:30Z</time>
      </trkpt>
      <trkpt lat="44.37855" lon="3.924">
        <ele>1034</ele>
        <time>2012-01-03T13:13:35Z</time>
      </trkpt>
      <trkpt lat="44.37827" lon="3.92396">
        <ele>1034</ele>
        <time>2012-01-03T13:13:36Z</time>
      </trkpt>
      <trkpt lat="44.3782" lon="3.92395">
        <ele>1034</ele>
        <time>2012-01-03T13:13:37Z</time>
      </trkpt>
      <trkpt lat="44.37803" lon="3.92394">
        <ele>1034</ele>
        <time>2012-01-03T13:13:42Z</time>
      </trkpt>
      <trkpt lat="44.3778" lon="3.924">
        <ele>1033</ele>
        <time>2012-01-03T13:13:42Z</time>
      </trkpt>
      <trkpt lat="44.37773" lon="3.92403">
        <ele>1033</ele>
        <time>2012-01-03T13:13:43Z</time>
      </trkpt>
      <trkpt lat="44.37765" lon="3.92407">
        <ele>1032</ele>
        <time>2012-01-03T13:13:44Z</time>
      </trkpt>
      <trkpt lat="44.37753" lon="3.92418">
        <ele>1031</ele>
        <time>2012-01-03T13:13:49Z</time>
      </trkpt>
      <trkpt lat="44.37738" lon="3.9245">
        <ele>1030</ele>
        <time>2012-01-03T13:13:49Z</time>
      </trkpt>
      <trkpt lat="44.37733" lon="3.92461">
        <ele>1029</ele>
        <time>2012-01-03T13:13:50Z</time>
      </trkpt>
      <trkpt lat="44.37728" lon="3.92471">
        <ele>1028</ele>
        <time>2012-01-03T13:13:51Z</time>
      </trkpt>
      <trkpt lat="44.37717" lon="3.92491">
        <ele>1027</ele>
        <time>2012-01-03T13:13:56Z</time>
      </trkpt>
      <trkpt lat="44.37704" lon="3.92517">
        <ele>1026</ele>
        <time>2012-01-03T13:13:56Z</time>
      </trkpt>
      <trkpt lat="44.37698" lon="3.92523">
        <ele>1025</ele>
        <time>2012-01-03T13:13:57Z</time>
      </trkpt>
      <trkpt lat="44.3766" lon="3.92529">
        <ele>1024</ele>
        <time>2012-01-03T13:14:02Z</time>
      </trkpt>
      <trkpt lat="44.37652" lon="3.9253">
        <ele>1023</ele>
        <time>2012-01-03T13:14:03Z</time>
      </trkpt>
      <trkpt lat="44.37645" lon="3.9253">
        <ele>1022</ele>
        <time>2012-01-03T13:14:04Z</time>
      </trkpt>
      <trkpt lat="44.37618" lon="3.92508">
        <ele>1020</ele>
        <time>2012-01-03T13:14:09Z</time>
      </trkpt>
      <trkpt lat="44.37614" lon="3.92501">
        <ele>1018</ele>
        <time>2012-01-03T13:14:10Z</time>
      </trkpt>
      <trkpt lat="44.37608" lon="3.92494">
        <ele>1016</ele>
        <time>2012-01-03T13:14:12Z</time>
      </trkpt>
      <trkpt lat="44.37603" lon="3.9249">
        <ele>1015</ele>
        <time>2012-01-03T13:14:12Z</time>
      </trkpt>
      <trkpt lat="44.37588" lon="3.92483">
        <ele>1014</ele>
        <time>2012-01-03T13:14:18Z</time>
      </trkpt>
      <trkpt lat="44.37574" lon="3.92474">
        <ele>1013</ele>
        <time>2012-01-03T13:14:18Z</time>
      </trkpt>
      <trkpt lat="44.37574" lon="3.92476">
        <ele>1009</ele>
        <time>2012-01-03T13:14:27Z</time>
      </trkpt>
      <trkpt lat="44.37573" lon="3.92477">
        <ele>1009</ele>
        <time>2012-01-03T13:14:28Z</time>
      </trkpt>
      <trkpt lat="44.37572" lon="3.92476">
        <ele>1009</ele>
        <time>2012-01-03T13:14:29Z</time>
      </trkpt>
      <trkpt lat="44.37567" lon="3.92474">
        <ele>1009</ele>
        <time>2012-01-03T13:14:34Z</time>
      </trkpt>
      <trkpt lat="44.37553" lon="3.92482">
        <ele>1009</ele>
        <time>2012-01-03T13:14:35Z</time>
      </trkpt>
      <trkpt lat="44.37551" lon="3.92488">
        <ele>1009</ele>
        <time>2012-01-03T13:14:37Z</time>
      </trkpt>
      <trkpt lat="44.37531" lon="3.92529">
        <ele>1009</ele>
        <time>2012-01-03T13:14:42Z</time>
      </trkpt>
      <trkpt lat="44.37528" lon="3.92537">
        <ele>1009</ele>
        <time>2012-01-03T13:14:43Z</time>
      </trkpt>
      <trkpt lat="44.37525" lon="3.92553">
        <ele>1009</ele>
        <time>2012-01-03T13:14:48Z</time>
      </trkpt>
      <trkpt lat="44.37521" lon="3.9258">
        <ele>1009</ele>
        <time>2012-01-03T13:14:48Z</time>
      </trkpt>
      <trkpt lat="44.37519" lon="3.9259">
        <ele>1009</ele>
        <time>2012-01-03T13:14:49Z</time>
      </trkpt>
      <trkpt lat="44.37515" lon="3.92612">
        <ele>1008</ele>
        <time>2012-01-03T13:14:54Z</time>
      </trkpt>
      <trkpt lat="44.37502" lon="3.92653">
        <ele>1007</ele>
        <time>2012-01-03T13:14:55Z</time>
      </trkpt>
      <trkpt lat="44.37497" lon="3.92664">
        <ele>1006</ele>
        <time>2012-01-03T13:14:57Z</time>
      </trkpt>
      <trkpt lat="44.37493" lon="3.92674">
        <ele>1005</ele>
        <time>2012-01-03T13:14:58Z</time>
      </trkpt>
      <trkpt lat="44.37483" lon="3.92694">
        <ele>1004</ele>
        <time>2012-01-03T13:15:02Z</time>
      </trkpt>
      <trkpt lat="44.3746" lon="3.92733">
        <ele>1003</ele>
        <time>2012-01-03T13:15:03Z</time>
      </trkpt>
      <trkpt lat="44.37455" lon="3.92743">
        <ele>1002</ele>
        <time>2012-01-03T13:15:04Z</time>
      </trkpt>
      <trkpt lat="44.37443" lon="3.92763">
        <ele>1001</ele>
        <time>2012-01-03T13:15:09Z</time>
      </trkpt>
      <trkpt lat="44.37423" lon="3.92793">
        <ele>1000</ele>
        <time>2012-01-03T13:15:09Z</time>
      </trkpt>
      <trkpt lat="44.37417" lon="3.92803">
        <ele>998</ele>
        <time>2012-01-03T13:15:10Z</time>
      </trkpt>
      <trkpt lat="44.37381" lon="3.92844">
        <ele>996</ele>
        <time>2012-01-03T13:15:15Z</time>
      </trkpt>
      <trkpt lat="44.37372" lon="3.92849">
        <ele>994</ele>
        <time>2012-01-03T13:15:16Z</time>
      </trkpt>
      <trkpt lat="44.37364" lon="3.92854">
        <ele>992</ele>
        <time>2012-01-03T13:15:18Z</time>
      </trkpt>
      <trkpt lat="44.37348" lon="3.92863">
        <ele>990</ele>
        <time>2012-01-03T13:15:22Z</time>
      </trkpt>
      <trkpt lat="44.3731" lon="3.92864">
        <ele>988</ele>
        <time>2012-01-03T13:15:23Z</time>
      </trkpt>
      <trkpt lat="44.373" lon="3.92862">
        <ele>986</ele>
        <time>2012-01-03T13:15:24Z</time>
      </trkpt>
      <trkpt lat="44.37292" lon="3.9286">
        <ele>984</ele>
        <time>2012-01-03T13:15:25Z</time>
      </trkpt>
      <trkpt lat="44.37274" lon="3.92856">
        <ele>982</ele>
        <time>2012-01-03T13:15:30Z</time>
      </trkpt>
      <trkpt lat="44.37246" lon="3.92848">
        <ele>979</ele>
        <time>2012-01-03T13:15:30Z</time>
      </trkpt>
      <trkpt lat="44.37238" lon="3.92845">
        <ele>976</ele>
        <time>2012-01-03T13:15:31Z</time>
      </trkpt>
      <trkpt lat="44.37231" lon="3.9284">
        <ele>973</ele>
        <time>2012-01-03T13:15:32Z</time>
      </trkpt>
      <trkpt lat="44.37198" lon="3.92807">
        <ele>971</ele>
        <time>2012-01-03T13:15:37Z</time>
      </trkpt>
      <trkpt lat="44.37192" lon="3.92799">
        <ele>969</ele>
        <time>2012-01-03T13:15:38Z</time>
      </trkpt>
      <trkpt lat="44.37186" lon="3.92795">
        <ele>967</ele>
        <time>2012-01-03T13:15:39Z</time>
      </trkpt>
      <trkpt lat="44.37182" lon="3.92795">
        <ele>965</ele>
        <time>2012-01-03T13:15:40Z</time>
      </trkpt>
      <trkpt lat="44.37178" lon="3.92798">
        <ele>963</ele>
        <time>2012-01-03T13:15:41Z</time>
      </trkpt>
      <trkpt lat="44.37167" lon="3.92805">
        <ele>961</ele>
        <time>2012-01-03T13:15:46Z</time>
      </trkpt>
      <trkpt lat="44.37151" lon="3.92832">
        <ele>960</ele>
        <time>2012-01-03T13:15:47Z</time>
      </trkpt>
      <trkpt lat="44.37148" lon="3.92843">
        <ele>959</ele>
        <time>2012-01-03T13:15:49Z</time>
      </trkpt>
      <trkpt lat="44.37144" lon="3.92853">
        <ele>958</ele>
        <time>2012-01-03T13:15:50Z</time>
      </trkpt>
      <trkpt lat="44.37138" lon="3.92874">
        <ele>958</ele>
        <time>2012-01-03T13:15:54Z</time>
      </trkpt>
      <trkpt lat="44.3712" lon="3.92912">
        <ele>958</ele>
        <time>2012-01-03T13:15:55Z</time>
      </trkpt>
      <trkpt lat="44.37115" lon="3.9292">
        <ele>958</ele>
        <time>2012-01-03T13:15:56Z</time>
      </trkpt>
      <trkpt lat="44.37105" lon="3.92939">
        <ele>958</ele>
        <time>2012-01-03T13:16:01Z</time>
      </trkpt>
      <trkpt lat="44.37092" lon="3.9297">
        <ele>957</ele>
        <time>2012-01-03T13:16:01Z</time>
      </trkpt>
      <trkpt lat="44.37088" lon="3.9298">
        <ele>956</ele>
        <time>2012-01-03T13:16:02Z</time>
      </trkpt>
      <trkpt lat="44.37081" lon="3.93001">
        <ele>955</ele>
        <time>2012-01-03T13:16:07Z</time>
      </trkpt>
      <trkpt lat="44.37064" lon="3.93041">
        <ele>954</ele>
        <time>2012-01-03T13:16:08Z</time>
      </trkpt>
      <trkpt lat="44.37059" lon="3.9305">
        <ele>953</ele>
        <time>2012-01-03T13:16:09Z</time>
      </trkpt>
      <trkpt lat="44.3705" lon="3.93068">
        <ele>952</ele>
        <time>2012-01-03T13:16:14Z</time>
      </trkpt>
      <trkpt lat="44.37036" lon="3.93095">
        <ele>951</ele>
        <time>2012-01-03T13:16:14Z</time>
      </trkpt>
      <trkpt lat="44.37032" lon="3.93104">
        <ele>950</ele>
        <time>2012-01-03T13:16:15Z</time>
      </trkpt>
      <trkpt lat="44.37022" lon="3.93121">
        <ele>949</ele>
        <time>2012-01-03T13:16:20Z</time>
      </trkpt>
      <trkpt lat="44.37" lon="3.93149">
        <ele>948</ele>
        <time>2012-01-03T13:16:21Z</time>
      </trkpt>
      <trkpt lat="44.36994" lon="3.93155">
        <ele>947</ele>
        <time>2012-01-03T13:16:22Z</time>
      </trkpt>
      <trkpt lat="44.36988" lon="3.93159">
        <ele>946</ele>
        <time>2012-01-03T13:16:23Z</time>
      </trkpt>
      <trkpt lat="44.36976" lon="3.93166">
        <ele>945</ele>
        <time>2012-01-03T13:16:28Z</time>
      </trkpt>
      <trkpt lat="44.36954" lon="3.93176">
        <ele>944</ele>
        <time>2012-01-03T13:16:29Z</time>
      </trkpt>
      <trkpt lat="44.36948" lon="3.93179">
        <ele>943</ele>
        <time>2012-01-03T13:16:30Z</time>
      </trkpt>
      <trkpt lat="44.36936" lon="3.93187">
        <ele>942</ele>
        <time>2012-01-03T13:16:35Z</time>
      </trkpt>
      <trkpt lat="44.36914" lon="3.93199">
        <ele>941</ele>
        <time>2012-01-03T13:16:35Z</time>
      </trkpt>
      <trkpt lat="44.36905" lon="3.93202">
        <ele>940</ele>
        <time>2012-01-03T13:16:36Z</time>
      </trkpt>
      <trkpt lat="44.36889" lon="3.93209">
        <ele>939</ele>
        <time>2012-01-03T13:16:41Z</time>
      </trkpt>
      <trkpt lat="44.36852" lon="3.93219">
        <ele>938</ele>
        <time>2012-01-03T13:16:42Z</time>
      </trkpt>
      <trkpt lat="44.36844" lon="3.93221">
        <ele>937</ele>
        <time>2012-01-03T13:16:43Z</time>
      </trkpt>
      <trkpt lat="44.36827" lon="3.93222">
        <ele>936</ele>
        <time>2012-01-03T13:16:48Z</time>
      </trkpt>
      <trkpt lat="44.36806" lon="3.93215">
        <ele>935</ele>
        <time>2012-01-03T13:16:48Z</time>
      </trkpt>
      <trkpt lat="44.36799" lon="3.9321">
        <ele>934</ele>
        <time>2012-01-03T13:16:49Z</time>
      </trkpt>
      <trkpt lat="44.36792" lon="3.93205">
        <ele>933</ele>
        <time>2012-01-03T13:16:50Z</time>
      </trkpt>
      <trkpt lat="44.36754" lon="3.9319">
        <ele>932</ele>
        <time>2012-01-03T13:16:55Z</time>
      </trkpt>
      <trkpt lat="44.36746" lon="3.93191">
        <ele>931</ele>
        <time>2012-01-03T13:16:56Z</time>
      </trkpt>
      <trkpt lat="44.36738" lon="3.93191">
        <ele>930</ele>
        <time>2012-01-03T13:16:57Z</time>
      </trkpt>
      <trkpt lat="44.36702" lon="3.93211">
        <ele>929</ele>
        <time>2012-01-03T13:17:02Z</time>
      </trkpt>
      <trkpt lat="44.36695" lon="3.93215">
        <ele>928</ele>
        <time>2012-01-03T13:17:03Z</time>
      </trkpt>
      <trkpt lat="44.36687" lon="3.93217">
        <ele>927</ele>
        <time>2012-01-03T13:17:04Z</time>
      </trkpt>
      <trkpt lat="44.36646" lon="3.93226">
        <ele>926</ele>
        <time>2012-01-03T13:17:09Z</time>
      </trkpt>
      <trkpt lat="44.36638" lon="3.93227">
        <ele>925</ele>
        <time>2012-01-03T13:17:10Z</time>
      </trkpt>
      <trkpt lat="44.36622" lon="3.93229">
        <ele>924</ele>
        <time>2012-01-03T13:17:16Z</time>
      </trkpt>
      <trkpt lat="44.36595" lon="3.93222">
        <ele>923</ele>
        <time>2012-01-03T13:17:16Z</time>
      </trkpt>
      <trkpt lat="44.36589" lon="3.93219">
        <ele>922</ele>
        <time>2012-01-03T13:17:17Z</time>
      </trkpt>
      <trkpt lat="44.36583" lon="3.93218">
        <ele>921</ele>
        <time>2012-01-03T13:17:18Z</time>
      </trkpt>
      <trkpt lat="44.36571" lon="3.93218">
        <ele>920</ele>
        <time>2012-01-03T13:17:23Z</time>
      </trkpt>
      <trkpt lat="44.36557" lon="3.93219">
        <ele>919</ele>
        <time>2012-01-03T13:17:23Z</time>
      </trkpt>
      <trkpt lat="44.36552" lon="3.93217">
        <ele>919</ele>
        <time>2012-01-03T13:17:24Z</time>
      </trkpt>
      <trkpt lat="44.36542" lon="3.93211">
        <ele>918</ele>
        <time>2012-01-03T13:17:29Z</time>
      </trkpt>
      <trkpt lat="44.36527" lon="3.93193">
        <ele>918</ele>
        <time>2012-01-03T13:17:30Z</time>
      </trkpt>
      <trkpt lat="44.36524" lon="3.93186">
        <ele>917</ele>
        <time>2012-01-03T13:17:31Z</time>
      </trkpt>
      <trkpt lat="44.36522" lon="3.93179">
        <ele>916</ele>
        <time>2012-01-03T13:17:32Z</time>
      </trkpt>
      <trkpt lat="44.36517" lon="3.93165">
        <ele>916</ele>
        <time>2012-01-03T13:17:37Z</time>
      </trkpt>
      <trkpt lat="44.36504" lon="3.93155">
        <ele>915</ele>
        <time>2012-01-03T13:17:37Z</time>
      </trkpt>
      <trkpt lat="44.36499" lon="3.93152">
        <ele>914</ele>
        <time>2012-01-03T13:17:38Z</time>
      </trkpt>
      <trkpt lat="44.36494" lon="3.9315">
        <ele>914</ele>
        <time>2012-01-03T13:17:39Z</time>
      </trkpt>
      <trkpt lat="44.36471" lon="3.93131">
        <ele>914</ele>
        <time>2012-01-03T13:17:44Z</time>
      </trkpt>
      <trkpt lat="44.36465" lon="3.93126">
        <ele>913</ele>
        <time>2012-01-03T13:17:45Z</time>
      </trkpt>
      <trkpt lat="44.36454" lon="3.93114">
        <ele>912</ele>
        <time>2012-01-03T13:17:51Z</time>
      </trkpt>
      <trkpt lat="44.36445" lon="3.93083">
        <ele>911</ele>
        <time>2012-01-03T13:17:51Z</time>
      </trkpt>
      <trkpt lat="44.36444" lon="3.93074">
        <ele>910</ele>
        <time>2012-01-03T13:17:52Z</time>
      </trkpt>
      <trkpt lat="44.36443" lon="3.93065">
        <ele>909</ele>
        <time>2012-01-03T13:17:53Z</time>
      </trkpt>
      <trkpt lat="44.36441" lon="3.93048">
        <ele>908</ele>
        <time>2012-01-03T13:17:58Z</time>
      </trkpt>
      <trkpt lat="44.36438" lon="3.93022">
        <ele>907</ele>
        <time>2012-01-03T13:17:58Z</time>
      </trkpt>
      <trkpt lat="44.36438" lon="3.93012">
        <ele>906</ele>
        <time>2012-01-03T13:17:59Z</time>
      </trkpt>
      <trkpt lat="44.36436" lon="3.92995">
        <ele>906</ele>
        <time>2012-01-03T13:18:04Z</time>
      </trkpt>
      <trkpt lat="44.36433" lon="3.92958">
        <ele>905</ele>
        <time>2012-01-03T13:18:05Z</time>
      </trkpt>
      <trkpt lat="44.36432" lon="3.92949">
        <ele>905</ele>
        <time>2012-01-03T13:18:06Z</time>
      </trkpt>
      <trkpt lat="44.36432" lon="3.92908">
        <ele>904</ele>
        <time>2012-01-03T13:18:11Z</time>
      </trkpt>
      <trkpt lat="44.36435" lon="3.92901">
        <ele>903</ele>
        <time>2012-01-03T13:18:13Z</time>
      </trkpt>
      <trkpt lat="44.36439" lon="3.92895">
        <ele>903</ele>
        <time>2012-01-03T13:18:13Z</time>
      </trkpt>
      <trkpt lat="44.36447" lon="3.92882">
        <ele>902</ele>
        <time>2012-01-03T13:18:18Z</time>
      </trkpt>
      <trkpt lat="44.3646" lon="3.9286">
        <ele>901</ele>
        <time>2012-01-03T13:18:19Z</time>
      </trkpt>
      <trkpt lat="44.36463" lon="3.92853">
        <ele>900</ele>
        <time>2012-01-03T13:18:20Z</time>
      </trkpt>
      <trkpt lat="44.36465" lon="3.92847">
        <ele>899</ele>
        <time>2012-01-03T13:18:21Z</time>
      </trkpt>
      <trkpt lat="44.36476" lon="3.92811">
        <ele>898</ele>
        <time>2012-01-03T13:18:27Z</time>
      </trkpt>
      <trkpt lat="44.36479" lon="3.92805">
        <ele>897</ele>
        <time>2012-01-03T13:18:28Z</time>
      </trkpt>
      <trkpt lat="44.36482" lon="3.92799">
        <ele>896</ele>
        <time>2012-01-03T13:18:29Z</time>
      </trkpt>
      <trkpt lat="44.36485" lon="3.92793">
        <ele>895</ele>
        <time>2012-01-03T13:18:30Z</time>
      </trkpt>
      <trkpt lat="44.36488" lon="3.92786">
        <ele>894</ele>
        <time>2012-01-03T13:18:31Z</time>
      </trkpt>
      <trkpt lat="44.3649" lon="3.92778">
        <ele>893</ele>
        <time>2012-01-03T13:18:32Z</time>
      </trkpt>
      <trkpt lat="44.36492" lon="3.9277">
        <ele>892</ele>
        <time>2012-01-03T13:18:33Z</time>
      </trkpt>
      <trkpt lat="44.36494" lon="3.92762">
        <ele>891</ele>
        <time>2012-01-03T13:18:34Z</time>
      </trkpt>
      <trkpt lat="44.36495" lon="3.92754">
        <ele>891</ele>
        <time>2012-01-03T13:18:35Z</time>
      </trkpt>
      <trkpt lat="44.36497" lon="3.92746">
        <ele>890</ele>
        <time>2012-01-03T13:18:36Z</time>
      </trkpt>
      <trkpt lat="44.36498" lon="3.9274">
        <ele>890</ele>
        <time>2012-01-03T13:18:37Z</time>
      </trkpt>
      <trkpt lat="44.36499" lon="3.9273">
        <ele>889</ele>
        <time>2012-01-03T13:18:38Z</time>
      </trkpt>
      <trkpt lat="44.365" lon="3.92721">
        <ele>889</ele>
        <time>2012-01-03T13:18:39Z</time>
      </trkpt>
      <trkpt lat="44.36501" lon="3.92712">
        <ele>889</ele>
        <time>2012-01-03T13:18:40Z</time>
      </trkpt>
      <trkpt lat="44.36501" lon="3.92702">
        <ele>889</ele>
        <time>2012-01-03T13:18:41Z</time>
      </trkpt>
      <trkpt lat="44.36503" lon="3.92693">
        <ele>889</ele>
        <time>2012-01-03T13:18:42Z</time>
      </trkpt>
      <trkpt lat="44.36504" lon="3.92684">
        <ele>889</ele>
        <time>2012-01-03T13:18:43Z</time>
      </trkpt>
      <trkpt lat="44.36504" lon="3.92675">
        <ele>889</ele>
        <time>2012-01-03T13:18:44Z</time>
      </trkpt>
      <trkpt lat="44.36504" lon="3.92667">
        <ele>889</ele>
        <time>2012-01-03T13:18:45Z</time>
      </trkpt>
      <trkpt lat="44.36505" lon="3.92658">
        <ele>889</ele>
        <time>2012-01-03T13:18:46Z</time>
      </trkpt>
      <trkpt lat="44.36505" lon="3.9265">
        <ele>889</ele>
        <time>2012-01-03T13:18:47Z</time>
      </trkpt>
      <trkpt lat="44.36506" lon="3.92641">
        <ele>888</ele>
        <time>2012-01-03T13:18:48Z</time>
      </trkpt>
      <trkpt lat="44.36507" lon="3.92632">
        <ele>888</ele>
        <time>2012-01-03T13:18:49Z</time>
      </trkpt>
      <trkpt lat="44.36507" lon="3.92623">
        <ele>887</ele>
        <time>2012-01-03T13:18:50Z</time>
      </trkpt>
      <trkpt lat="44.36506" lon="3.92615">
        <ele>887</ele>
        <time>2012-01-03T13:18:51Z</time>
      </trkpt>
      <trkpt lat="44.36505" lon="3.92607">
        <ele>887</ele>
        <time>2012-01-03T13:18:52Z</time>
      </trkpt>
      <trkpt lat="44.36503" lon="3.926">
        <ele>887</ele>
        <time>2012-01-03T13:18:53Z</time>
      </trkpt>
      <trkpt lat="44.365" lon="3.92592">
        <ele>887</ele>
        <time>2012-01-03T13:18:54Z</time>
      </trkpt>
      <trkpt lat="44.36498" lon="3.92584">
        <ele>887</ele>
        <time>2012-01-03T13:18:55Z</time>
      </trkpt>
      <trkpt lat="44.36495" lon="3.92577">
        <ele>887</ele>
        <time>2012-01-03T13:18:56Z</time>
      </trkpt>
      <trkpt lat="44.36494" lon="3.92569">
        <ele>887</ele>
        <time>2012-01-03T13:18:57Z</time>
      </trkpt>
      <trkpt lat="44.36493" lon="3.92561">
        <ele>887</ele>
        <time>2012-01-03T13:18:58Z</time>
      </trkpt>
      <trkpt lat="44.36494" lon="3.92555">
        <ele>887</ele>
        <time>2012-01-03T13:18:59Z</time>
      </trkpt>
      <trkpt lat="44.36493" lon="3.92549">
        <ele>887</ele>
        <time>2012-01-03T13:19:00Z</time>
      </trkpt>
      <trkpt lat="44.36491" lon="3.92544">
        <ele>887</ele>
        <time>2012-01-03T13:19:01Z</time>
      </trkpt>
      <trkpt lat="44.36487" lon="3.9254">
        <ele>887</ele>
        <time>2012-01-03T13:19:02Z</time>
      </trkpt>
      <trkpt lat="44.36483" lon="3.92538">
        <ele>887</ele>
        <time>2012-01-03T13:19:04Z</time>
      </trkpt>
      <trkpt lat="44.36475" lon="3.92536">
        <ele>887</ele>
        <time>2012-01-03T13:19:05Z</time>
      </trkpt>
      <trkpt lat="44.36471" lon="3.92535">
        <ele>887</ele>
        <time>2012-01-03T13:19:07Z</time>
      </trkpt>
      <trkpt lat="44.36469" lon="3.92535">
        <ele>887</ele>
        <time>2012-01-03T13:19:08Z</time>
      </trkpt>
      <trkpt lat="44.36466" lon="3.92535">
        <ele>887</ele>
        <time>2012-01-03T13:19:09Z</time>
      </trkpt>
      <trkpt lat="44.36465" lon="3.92534">
        <ele>887</ele>
        <time>2012-01-03T13:19:11Z</time>
      </trkpt>
      <trkpt lat="44.36463" lon="3.92533">
        <ele>887</ele>
        <time>2012-01-03T13:19:12Z</time>
      </trkpt>
      <trkpt lat="44.36462" lon="3.92532">
        <ele>887</ele>
        <time>2012-01-03T13:19:13Z</time>
      </trkpt>
      <trkpt lat="44.36461" lon="3.9253">
        <ele>888</ele>
        <time>2012-01-03T13:19:14Z</time>
      </trkpt>
      <trkpt lat="44.3646" lon="3.92529">
        <ele>888</ele>
        <time>2012-01-03T13:19:15Z</time>
      </trkpt>
      <trkpt lat="44.36458" lon="3.92527">
        <ele>889</ele>
        <time>2012-01-03T13:19:16Z</time>
      </trkpt>
      <trkpt lat="44.36457" lon="3.92526">
        <ele>889</ele>
        <time>2012-01-03T13:19:17Z</time>
      </trkpt>
      <trkpt lat="44.36455" lon="3.92524">
        <ele>891</ele>
        <time>2012-01-03T13:19:19Z</time>
      </trkpt>
      <trkpt lat="44.36454" lon="3.92523">
        <ele>892</ele>
        <time>2012-01-03T13:19:20Z</time>
      </trkpt>
      <trkpt lat="44.36453" lon="3.92521">
        <ele>893</ele>
        <time>2012-01-03T13:19:21Z</time>
      </trkpt>
      <trkpt lat="44.36451" lon="3.92519">
        <ele>895</ele>
        <time>2012-01-03T13:19:23Z</time>
      </trkpt>
      <trkpt lat="44.3645" lon="3.9252">
        <ele>897</ele>
        <time>2012-01-03T13:19:35Z</time>
      </trkpt>
      <trkpt lat="44.3645" lon="3.92518">
        <ele>897</ele>
        <time>2012-01-03T13:19:37Z</time>
      </trkpt>
      <trkpt lat="44.36451" lon="3.92517">
        <ele>897</ele>
        <time>2012-01-03T13:19:43Z</time>
      </trkpt>
      <trkpt lat="44.36449" lon="3.9252">
        <ele>897</ele>
        <time>2012-01-03T13:19:48Z</time>
      </trkpt>
      <trkpt lat="44.36447" lon="3.92523">
        <ele>897</ele>
        <time>2012-01-03T13:19:53Z</time>
      </trkpt>
      <trkpt lat="44.36445" lon="3.92524">
        <ele>898</ele>
        <time>2012-01-03T13:19:59Z</time>
      </trkpt>
      <trkpt lat="44.36443" lon="3.92524">
        <ele>899</ele>
        <time>2012-01-03T13:19:59Z</time>
      </trkpt>
      <trkpt lat="44.36443" lon="3.92522">
        <ele>900</ele>
        <time>2012-01-03T13:20:00Z</time>
      </trkpt>
      <trkpt lat="44.36443" lon="3.92521">
        <ele>902</ele>
        <time>2012-01-03T13:20:01Z</time>
      </trkpt>
      <trkpt lat="44.36439" lon="3.92515">
        <ele>904</ele>
        <time>2012-01-03T13:20:07Z</time>
      </trkpt>
      <trkpt lat="44.36438" lon="3.92514">
        <ele>906</ele>
        <time>2012-01-03T13:20:08Z</time>
      </trkpt>
      <trkpt lat="44.36433" lon="3.92516">
        <ele>908</ele>
        <time>2012-01-03T13:20:14Z</time>
      </trkpt>
      <trkpt lat="44.36431" lon="3.92518">
        <ele>909</ele>
        <time>2012-01-03T13:20:15Z</time>
      </trkpt>
      <trkpt lat="44.3643" lon="3.92519">
        <ele>910</ele>
        <time>2012-01-03T13:20:16Z</time>
      </trkpt>
      <trkpt lat="44.36428" lon="3.92524">
        <ele>910</ele>
        <time>2012-01-03T13:20:22Z</time>
      </trkpt>
      <trkpt lat="44.36423" lon="3.9253">
        <ele>910</ele>
        <time>2012-01-03T13:20:23Z</time>
      </trkpt>
      <trkpt lat="44.36421" lon="3.92531">
        <ele>910</ele>
        <time>2012-01-03T13:20:24Z</time>
      </trkpt>
      <trkpt lat="44.36419" lon="3.92532">
        <ele>910</ele>
        <time>2012-01-03T13:20:25Z</time>
      </trkpt>
      <trkpt lat="44.36409" lon="3.92537">
        <ele>910</ele>
        <time>2012-01-03T13:20:31Z</time>
      </trkpt>
      <trkpt lat="44.36407" lon="3.92538">
        <ele>909</ele>
        <time>2012-01-03T13:20:32Z</time>
      </trkpt>
      <trkpt lat="44.36399" lon="3.92545">
        <ele>909</ele>
        <time>2012-01-03T13:20:37Z</time>
      </trkpt>
      <trkpt lat="44.36397" lon="3.92547">
        <ele>909</ele>
        <time>2012-01-03T13:20:38Z</time>
      </trkpt>
      <trkpt lat="44.36396" lon="3.92549">
        <ele>909</ele>
        <time>2012-01-03T13:20:40Z</time>
      </trkpt>
      <trkpt lat="44.36393" lon="3.92554">
        <ele>909</ele>
        <time>2012-01-03T13:20:45Z</time>
      </trkpt>
      <trkpt lat="44.36387" lon="3.92563">
        <ele>909</ele>
        <time>2012-01-03T13:20:45Z</time>
      </trkpt>
      <trkpt lat="44.36386" lon="3.92565">
        <ele>909</ele>
        <time>2012-01-03T13:20:46Z</time>
      </trkpt>
      <trkpt lat="44.36383" lon="3.92568">
        <ele>909</ele>
        <time>2012-01-03T13:20:51Z</time>
      </trkpt>
      <trkpt lat="44.36376" lon="3.92572">
        <ele>909</ele>
        <time>2012-01-03T13:20:52Z</time>
      </trkpt>
      <trkpt lat="44.36373" lon="3.92572">
        <ele>909</ele>
        <time>2012-01-03T13:20:53Z</time>
      </trkpt>
      <trkpt lat="44.36369" lon="3.92573">
        <ele>909</ele>
        <time>2012-01-03T13:20:58Z</time>
      </trkpt>
      <trkpt lat="44.36365" lon="3.92577">
        <ele>909</ele>
        <time>2012-01-03T13:20:58Z</time>
      </trkpt>
      <trkpt lat="44.36363" lon="3.92577">
        <ele>908</ele>
        <time>2012-01-03T13:20:59Z</time>
      </trkpt>
      <trkpt lat="44.36361" lon="3.92578">
        <ele>907</ele>
        <time>2012-01-03T13:21:01Z</time>
      </trkpt>
      <trkpt lat="44.36358" lon="3.92579">
        <ele>907</ele>
        <time>2012-01-03T13:21:06Z</time>
      </trkpt>
      <trkpt lat="44.36349" lon="3.92578">
        <ele>906</ele>
        <time>2012-01-03T13:21:06Z</time>
      </trkpt>
      <trkpt lat="44.36347" lon="3.92578">
        <ele>905</ele>
        <time>2012-01-03T13:21:07Z</time>
      </trkpt>
      <trkpt lat="44.36344" lon="3.92578">
        <ele>904</ele>
        <time>2012-01-03T13:21:12Z</time>
      </trkpt>
      <trkpt lat="44.36336" lon="3.92576">
        <ele>903</ele>
        <time>2012-01-03T13:21:13Z</time>
      </trkpt>
      <trkpt lat="44.36334" lon="3.92575">
        <ele>902</ele>
        <time>2012-01-03T13:21:14Z</time>
      </trkpt>
      <trkpt lat="44.36332" lon="3.92574">
        <ele>901</ele>
        <time>2012-01-03T13:21:15Z</time>
      </trkpt>
      <trkpt lat="44.3632" lon="3.92575">
        <ele>900</ele>
        <time>2012-01-03T13:21:20Z</time>
      </trkpt>
      <trkpt lat="44.36318" lon="3.92575">
        <ele>899</ele>
        <time>2012-01-03T13:21:21Z</time>
      </trkpt>
      <trkpt lat="44.36316" lon="3.92574">
        <ele>898</ele>
        <time>2012-01-03T13:21:22Z</time>
      </trkpt>
      <trkpt lat="44.36306" lon="3.92574">
        <ele>897</ele>
        <time>2012-01-03T13:21:27Z</time>
      </trkpt>
      <trkpt lat="44.36304" lon="3.92574">
        <ele>896</ele>
        <time>2012-01-03T13:21:28Z</time>
      </trkpt>
      <trkpt lat="44.36301" lon="3.92574">
        <ele>895</ele>
        <time>2012-01-03T13:21:34Z</time>
      </trkpt>
      <trkpt lat="44.36296" lon="3.92575">
        <ele>894</ele>
        <time>2012-01-03T13:21:34Z</time>
      </trkpt>
      <trkpt lat="44.36295" lon="3.92574">
        <ele>894</ele>
        <time>2012-01-03T13:21:35Z</time>
      </trkpt>
      <trkpt lat="44.36291" lon="3.92576">
        <ele>894</ele>
        <time>2012-01-03T13:21:40Z</time>
      </trkpt>
      <trkpt lat="44.36286" lon="3.92575">
        <ele>894</ele>
        <time>2012-01-03T13:21:41Z</time>
      </trkpt>
      <trkpt lat="44.36284" lon="3.92575">
        <ele>894</ele>
        <time>2012-01-03T13:21:42Z</time>
      </trkpt>
      <trkpt lat="44.36277" lon="3.9257">
        <ele>894</ele>
        <time>2012-01-03T13:21:47Z</time>
      </trkpt>
      <trkpt lat="44.36276" lon="3.92569">
        <ele>895</ele>
        <time>2012-01-03T13:21:50Z</time>
      </trkpt>
      <trkpt lat="44.36273" lon="3.92568">
        <ele>895</ele>
        <time>2012-01-03T13:21:55Z</time>
      </trkpt>
      <trkpt lat="44.36267" lon="3.92565">
        <ele>895</ele>
        <time>2012-01-03T13:21:55Z</time>
      </trkpt>
      <trkpt lat="44.36265" lon="3.92566">
        <ele>896</ele>
        <time>2012-01-03T13:21:56Z</time>
      </trkpt>
      <trkpt lat="44.36262" lon="3.92566">
        <ele>896</ele>
        <time>2012-01-03T13:22:01Z</time>
      </trkpt>
      <trkpt lat="44.36256" lon="3.92566">
        <ele>897</ele>
        <time>2012-01-03T13:22:02Z</time>
      </trkpt>
      <trkpt lat="44.36254" lon="3.92565">
        <ele>898</ele>
        <time>2012-01-03T13:22:03Z</time>
      </trkpt>
      <trkpt lat="44.36247" lon="3.92566">
        <ele>899</ele>
        <time>2012-01-03T13:22:08Z</time>
      </trkpt>
      <trkpt lat="44.36245" lon="3.92566">
        <ele>899</ele>
        <time>2012-01-03T13:22:09Z</time>
      </trkpt>
      <trkpt lat="44.36243" lon="3.92566">
        <ele>900</ele>
        <time>2012-01-03T13:22:10Z</time>
      </trkpt>
      <trkpt lat="44.36235" lon="3.92567">
        <ele>900</ele>
        <time>2012-01-03T13:22:15Z</time>
      </trkpt>
      <trkpt lat="44.36234" lon="3.92567">
        <ele>900</ele>
        <time>2012-01-03T13:22:16Z</time>
      </trkpt>
      <trkpt lat="44.36232" lon="3.92567">
        <ele>900</ele>
        <time>2012-01-03T13:22:17Z</time>
      </trkpt>
      <trkpt lat="44.36224" lon="3.92565">
        <ele>900</ele>
        <time>2012-01-03T13:22:22Z</time>
      </trkpt>
      <trkpt lat="44.36223" lon="3.92564">
        <ele>900</ele>
        <time>2012-01-03T13:22:23Z</time>
      </trkpt>
      <trkpt lat="44.36222" lon="3.92563">
        <ele>900</ele>
        <time>2012-01-03T13:22:24Z</time>
      </trkpt>
      <trkpt lat="44.36214" lon="3.92561">
        <ele>900</ele>
        <time>2012-01-03T13:22:29Z</time>
      </trkpt>
      <trkpt lat="44.36213" lon="3.92559">
        <ele>900</ele>
        <time>2012-01-03T13:22:30Z</time>
      </trkpt>
      <trkpt lat="44.36212" lon="3.92557">
        <ele>900</ele>
        <time>2012-01-03T13:22:31Z</time>
      </trkpt>
      <trkpt lat="44.36211" lon="3.92556">
        <ele>900</ele>
        <time>2012-01-03T13:22:32Z</time>
      </trkpt>
      <trkpt lat="44.36203" lon="3.92551">
        <ele>900</ele>
        <time>2012-01-03T13:22:37Z</time>
      </trkpt>
      <trkpt lat="44.36202" lon="3.9255">
        <ele>900</ele>
        <time>2012-01-03T13:22:38Z</time>
      </trkpt>
      <trkpt lat="44.36201" lon="3.92549">
        <ele>900</ele>
        <time>2012-01-03T13:22:39Z</time>
      </trkpt>
      <trkpt lat="44.36198" lon="3.92547">
        <ele>901</ele>
        <time>2012-01-03T13:22:44Z</time>
      </trkpt>
      <trkpt lat="44.36192" lon="3.92541">
        <ele>901</ele>
        <time>2012-01-03T13:22:45Z</time>
      </trkpt>
      <trkpt lat="44.36191" lon="3.9254">
        <ele>902</ele>
        <time>2012-01-03T13:22:46Z</time>
      </trkpt>
      <trkpt lat="44.36186" lon="3.92532">
        <ele>903</ele>
        <time>2012-01-03T13:22:51Z</time>
      </trkpt>
      <trkpt lat="44.36185" lon="3.92531">
        <ele>904</ele>
        <time>2012-01-03T13:22:52Z</time>
      </trkpt>
      <trkpt lat="44.36182" lon="3.92523">
        <ele>906</ele>
        <time>2012-01-03T13:22:58Z</time>
      </trkpt>
      <trkpt lat="44.36181" lon="3.92521">
        <ele>906</ele>
        <time>2012-01-03T13:22:59Z</time>
      </trkpt>
      <trkpt lat="44.36181" lon="3.9252">
        <ele>906</ele>
        <time>2012-01-03T13:23:00Z</time>
      </trkpt>
      <trkpt lat="44.36179" lon="3.92516">
        <ele>907</ele>
        <time>2012-01-03T13:23:07Z</time>
      </trkpt>
      <trkpt lat="44.36177" lon="3.92511">
        <ele>907</ele>
        <time>2012-01-03T13:23:08Z</time>
      </trkpt>
      <trkpt lat="44.36176" lon="3.92509">
        <ele>908</ele>
        <time>2012-01-03T13:23:09Z</time>
      </trkpt>
      <trkpt lat="44.36173" lon="3.92507">
        <ele>908</ele>
        <time>2012-01-03T13:23:15Z</time>
      </trkpt>
      <trkpt lat="44.3617" lon="3.92506">
        <ele>909</ele>
        <time>2012-01-03T13:23:16Z</time>
      </trkpt>
      <trkpt lat="44.36169" lon="3.92505">
        <ele>911</ele>
        <time>2012-01-03T13:23:18Z</time>
      </trkpt>
      <trkpt lat="44.3616" lon="3.92506">
        <ele>912</ele>
        <time>2012-01-03T13:23:24Z</time>
      </trkpt>
      <trkpt lat="44.36158" lon="3.92509">
        <ele>913</ele>
        <time>2012-01-03T13:23:25Z</time>
      </trkpt>
      <trkpt lat="44.36157" lon="3.92509">
        <ele>914</ele>
        <time>2012-01-03T13:23:27Z</time>
      </trkpt>
      <trkpt lat="44.36156" lon="3.92508">
        <ele>915</ele>
        <time>2012-01-03T13:23:33Z</time>
      </trkpt>
      <trkpt lat="44.36152" lon="3.9251">
        <ele>916</ele>
        <time>2012-01-03T13:23:34Z</time>
      </trkpt>
      <trkpt lat="44.36149" lon="3.92512">
        <ele>917</ele>
        <time>2012-01-03T13:23:39Z</time>
      </trkpt>
      <trkpt lat="44.36145" lon="3.92514">
        <ele>917</ele>
        <time>2012-01-03T13:23:39Z</time>
      </trkpt>
      <trkpt lat="44.36144" lon="3.92516">
        <ele>917</ele>
        <time>2012-01-03T13:23:40Z</time>
      </trkpt>
      <trkpt lat="44.36143" lon="3.92517">
        <ele>917</ele>
        <time>2012-01-03T13:23:41Z</time>
      </trkpt>
      <trkpt lat="44.36142" lon="3.92518">
        <ele>917</ele>
        <time>2012-01-03T13:23:42Z</time>
      </trkpt>
      <trkpt lat="44.36137" lon="3.92522">
        <ele>917</ele>
        <time>2012-01-03T13:23:48Z</time>
      </trkpt>
      <trkpt lat="44.36135" lon="3.92523">
        <ele>917</ele>
        <time>2012-01-03T13:23:49Z</time>
      </trkpt>
      <trkpt lat="44.36129" lon="3.92528">
        <ele>917</ele>
        <time>2012-01-03T13:23:54Z</time>
      </trkpt>
      <trkpt lat="44.36128" lon="3.92529">
        <ele>917</ele>
        <time>2012-01-03T13:23:55Z</time>
      </trkpt>
      <trkpt lat="44.36126" lon="3.92532">
        <ele>917</ele>
        <time>2012-01-03T13:23:57Z</time>
      </trkpt>
      <trkpt lat="44.36125" lon="3.92534">
        <ele>917</ele>
        <time>2012-01-03T13:24:03Z</time>
      </trkpt>
      <trkpt lat="44.36121" lon="3.9254">
        <ele>917</ele>
        <time>2012-01-03T13:24:03Z</time>
      </trkpt>
      <trkpt lat="44.36119" lon="3.92544">
        <ele>917</ele>
        <time>2012-01-03T13:24:09Z</time>
      </trkpt>
      <trkpt lat="44.36116" lon="3.92548">
        <ele>917</ele>
        <time>2012-01-03T13:24:09Z</time>
      </trkpt>
      <trkpt lat="44.36112" lon="3.92551">
        <ele>918</ele>
        <time>2012-01-03T13:24:15Z</time>
      </trkpt>
      <trkpt lat="44.36106" lon="3.92553">
        <ele>919</ele>
        <time>2012-01-03T13:24:16Z</time>
      </trkpt>
      <trkpt lat="44.36105" lon="3.92553">
        <ele>919</ele>
        <time>2012-01-03T13:24:17Z</time>
      </trkpt>
      <trkpt lat="44.36096" lon="3.92556">
        <ele>919</ele>
        <time>2012-01-03T13:24:22Z</time>
      </trkpt>
      <trkpt lat="44.36095" lon="3.92556">
        <ele>919</ele>
        <time>2012-01-03T13:24:23Z</time>
      </trkpt>
      <trkpt lat="44.36093" lon="3.92556">
        <ele>919</ele>
        <time>2012-01-03T13:24:24Z</time>
      </trkpt>
      <trkpt lat="44.36087" lon="3.9256">
        <ele>919</ele>
        <time>2012-01-03T13:24:29Z</time>
      </trkpt>
      <trkpt lat="44.36086" lon="3.9256">
        <ele>919</ele>
        <time>2012-01-03T13:24:30Z</time>
      </trkpt>
      <trkpt lat="44.36083" lon="3.92561">
        <ele>919</ele>
        <time>2012-01-03T13:24:36Z</time>
      </trkpt>
      <trkpt lat="44.36078" lon="3.92563">
        <ele>919</ele>
        <time>2012-01-03T13:24:36Z</time>
      </trkpt>
      <trkpt lat="44.36076" lon="3.92563">
        <ele>919</ele>
        <time>2012-01-03T13:24:37Z</time>
      </trkpt>
      <trkpt lat="44.36073" lon="3.92564">
        <ele>919</ele>
        <time>2012-01-03T13:24:42Z</time>
      </trkpt>
      <trkpt lat="44.36068" lon="3.92567">
        <ele>919</ele>
        <time>2012-01-03T13:24:43Z</time>
      </trkpt>
      <trkpt lat="44.36067" lon="3.92567">
        <ele>919</ele>
        <time>2012-01-03T13:24:44Z</time>
      </trkpt>
      <trkpt lat="44.36058" lon="3.92569">
        <ele>919</ele>
        <time>2012-01-03T13:24:49Z</time>
      </trkpt>
      <trkpt lat="44.36057" lon="3.92569">
        <ele>919</ele>
        <time>2012-01-03T13:24:50Z</time>
      </trkpt>
      <trkpt lat="44.36055" lon="3.92568">
        <ele>919</ele>
        <time>2012-01-03T13:24:51Z</time>
      </trkpt>
      <trkpt lat="44.36052" lon="3.92573">
        <ele>919</ele>
        <time>2012-01-03T13:24:56Z</time>
      </trkpt>
      <trkpt lat="44.36053" lon="3.92575">
        <ele>919</ele>
        <time>2012-01-03T13:24:58Z</time>
      </trkpt>
      <trkpt lat="44.36055" lon="3.92577">
        <ele>919</ele>
        <time>2012-01-03T13:25:05Z</time>
      </trkpt>
      <trkpt lat="44.36056" lon="3.92581">
        <ele>920</ele>
        <time>2012-01-03T13:25:06Z</time>
      </trkpt>
      <trkpt lat="44.36056" lon="3.92583">
        <ele>923</ele>
        <time>2012-01-03T13:25:15Z</time>
      </trkpt>
      <trkpt lat="44.36055" lon="3.92586">
        <ele>924</ele>
        <time>2012-01-03T13:25:16Z</time>
      </trkpt>
      <trkpt lat="44.3605" lon="3.92583">
        <ele>926</ele>
        <time>2012-01-03T13:25:23Z</time>
      </trkpt>
      <trkpt lat="44.36049" lon="3.92581">
        <ele>926</ele>
        <time>2012-01-03T13:25:31Z</time>
      </trkpt>
      <trkpt lat="44.36048" lon="3.92579">
        <ele>926</ele>
        <time>2012-01-03T13:25:33Z</time>
      </trkpt>
      <trkpt lat="44.36047" lon="3.92578">
        <ele>926</ele>
        <time>2012-01-03T13:25:40Z</time>
      </trkpt>
      <trkpt lat="44.36047" lon="3.92575">
        <ele>925</ele>
        <time>2012-01-03T13:25:41Z</time>
      </trkpt>
      <trkpt lat="44.36047" lon="3.92573">
        <ele>924</ele>
        <time>2012-01-03T13:25:58Z</time>
      </trkpt>
      <trkpt lat="44.36047" lon="3.92571">
        <ele>924</ele>
        <time>2012-01-03T13:26:06Z</time>
      </trkpt>
      <trkpt lat="44.36047" lon="3.92569">
        <ele>923</ele>
        <time>2012-01-03T13:26:15Z</time>
      </trkpt>
      <trkpt lat="44.36049" lon="3.92569">
        <ele>922</ele>
        <time>2012-01-03T13:26:24Z</time>
      </trkpt>
      <trkpt lat="44.3605" lon="3.92572">
        <ele>922</ele>
        <time>2012-01-03T13:26:30Z</time>
      </trkpt>
      <trkpt lat="44.36051" lon="3.92573">
        <ele>923</ele>
        <time>2012-01-03T13:26:41Z</time>
      </trkpt>
      <trkpt lat="44.36052" lon="3.92574">
        <ele>923</ele>
        <time>2012-01-03T13:26:45Z</time>
      </trkpt>
      <trkpt lat="44.36053" lon="3.92577">
        <ele>924</ele>
        <time>2012-01-03T13:26:48Z</time>
      </trkpt>
      <trkpt lat="44.36054" lon="3.9258">
        <ele>925</ele>
        <time>2012-01-03T13:26:50Z</time>
      </trkpt>
      <trkpt lat="44.36055" lon="3.92581">
        <ele>926</ele>
        <time>2012-01-03T13:26:51Z</time>
      </trkpt>
      <trkpt lat="44.36055" lon="3.92584">
        <ele>928</ele>
        <time>2012-01-03T13:26:54Z</time>
      </trkpt>
      <trkpt lat="44.36054" lon="3.92582">
        <ele>930</ele>
        <time>2012-01-03T13:26:57Z</time>
      </trkpt>
      <trkpt lat="44.36053" lon="3.9258">
        <ele>932</ele>
        <time>2012-01-03T13:27:02Z</time>
      </trkpt>
      <trkpt lat="44.36053" lon="3.92582">
        <ele>932</ele>
        <time>2012-01-03T13:27:03Z</time>
      </trkpt>
      <trkpt lat="44.36052" lon="3.92584">
        <ele>932</ele>
        <time>2012-01-03T13:27:05Z</time>
      </trkpt>
      <trkpt lat="44.36052" lon="3.92586">
        <ele>932</ele>
        <time>2012-01-03T13:27:06Z</time>
      </trkpt>
      <trkpt lat="44.36052" lon="3.92588">
        <ele>934</ele>
        <time>2012-01-03T13:27:09Z</time>
      </trkpt>
      <trkpt lat="44.36054" lon="3.92588">
        <ele>936</ele>
        <time>2012-01-03T13:27:12Z</time>
      </trkpt>
      <trkpt lat="44.36056" lon="3.92588">
        <ele>937</ele>
        <time>2012-01-03T13:27:14Z</time>
      </trkpt>
      <trkpt lat="44.36057" lon="3.92587">
        <ele>939</ele>
        <time>2012-01-03T13:27:17Z</time>
      </trkpt>
      <trkpt lat="44.36059" lon="3.92584">
        <ele>939</ele>
        <time>2012-01-03T13:27:21Z</time>
      </trkpt>
      <trkpt lat="44.36058" lon="3.92583">
        <ele>939</ele>
        <time>2012-01-03T13:27:24Z</time>
      </trkpt>
      <trkpt lat="44.36053" lon="3.92583">
        <ele>939</ele>
        <time>2012-01-03T13:27:26Z</time>
      </trkpt>
      <trkpt lat="44.36046" lon="3.92582">
        <ele>939</ele>
        <time>2012-01-03T13:27:27Z</time>
      </trkpt>
      <trkpt lat="44.36041" lon="3.92582">
        <ele>939</ele>
        <time>2012-01-03T13:27:28Z</time>
      </trkpt>
      <trkpt lat="44.36037" lon="3.92582">
        <ele>939</ele>
        <time>2012-01-03T13:27:29Z</time>
      </trkpt>
      <trkpt lat="44.36031" lon="3.92582">
        <ele>938</ele>
        <time>2012-01-03T13:27:30Z</time>
      </trkpt>
      <trkpt lat="44.36026" lon="3.92582">
        <ele>937</ele>
        <time>2012-01-03T13:27:31Z</time>
      </trkpt>
      <trkpt lat="44.3602" lon="3.92583">
        <ele>936</ele>
        <time>2012-01-03T13:27:32Z</time>
      </trkpt>
      <trkpt lat="44.36013" lon="3.92582">
        <ele>935</ele>
        <time>2012-01-03T13:27:33Z</time>
      </trkpt>
      <trkpt lat="44.36006" lon="3.92583">
        <ele>934</ele>
        <time>2012-01-03T13:27:34Z</time>
      </trkpt>
      <trkpt lat="44.36" lon="3.92583">
        <ele>933</ele>
        <time>2012-01-03T13:27:35Z</time>
      </trkpt>
      <trkpt lat="44.35993" lon="3.92583">
        <ele>932</ele>
        <time>2012-01-03T13:27:36Z</time>
      </trkpt>
      <trkpt lat="44.35985" lon="3.92584">
        <ele>931</ele>
        <time>2012-01-03T13:27:37Z</time>
      </trkpt>
      <trkpt lat="44.35977" lon="3.92583">
        <ele>930</ele>
        <time>2012-01-03T13:27:38Z</time>
      </trkpt>
      <trkpt lat="44.35969" lon="3.92582">
        <ele>929</ele>
        <time>2012-01-03T13:27:39Z</time>
      </trkpt>
      <trkpt lat="44.35961" lon="3.92581">
        <ele>928</ele>
        <time>2012-01-03T13:27:40Z</time>
      </trkpt>
      <trkpt lat="44.35952" lon="3.9258">
        <ele>927</ele>
        <time>2012-01-03T13:27:41Z</time>
      </trkpt>
      <trkpt lat="44.35944" lon="3.92579">
        <ele>926</ele>
        <time>2012-01-03T13:27:42Z</time>
      </trkpt>
      <trkpt lat="44.35936" lon="3.92577">
        <ele>925</ele>
        <time>2012-01-03T13:27:43Z</time>
      </trkpt>
      <trkpt lat="44.35929" lon="3.92573">
        <ele>924</ele>
        <time>2012-01-03T13:27:44Z</time>
      </trkpt>
      <trkpt lat="44.35923" lon="3.92568">
        <ele>922</ele>
        <time>2012-01-03T13:27:45Z</time>
      </trkpt>
      <trkpt lat="44.35917" lon="3.92561">
        <ele>921</ele>
        <time>2012-01-03T13:27:46Z</time>
      </trkpt>
      <trkpt lat="44.35911" lon="3.92553">
        <ele>920</ele>
        <time>2012-01-03T13:27:47Z</time>
      </trkpt>
      <trkpt lat="44.35904" lon="3.92548">
        <ele>919</ele>
        <time>2012-01-03T13:27:48Z</time>
      </trkpt>
      <trkpt lat="44.35897" lon="3.92543">
        <ele>918</ele>
        <time>2012-01-03T13:27:49Z</time>
      </trkpt>
      <trkpt lat="44.3589" lon="3.9254">
        <ele>917</ele>
        <time>2012-01-03T13:27:51Z</time>
      </trkpt>
      <trkpt lat="44.35883" lon="3.92537">
        <ele>916</ele>
        <time>2012-01-03T13:27:51Z</time>
      </trkpt>
      <trkpt lat="44.35875" lon="3.92533">
        <ele>915</ele>
        <time>2012-01-03T13:27:52Z</time>
      </trkpt>
      <trkpt lat="44.35869" lon="3.92528">
        <ele>914</ele>
        <time>2012-01-03T13:27:53Z</time>
      </trkpt>
      <trkpt lat="44.35862" lon="3.92523">
        <ele>913</ele>
        <time>2012-01-03T13:27:55Z</time>
      </trkpt>
      <trkpt lat="44.35856" lon="3.92519">
        <ele>912</ele>
        <time>2012-01-03T13:27:55Z</time>
      </trkpt>
      <trkpt lat="44.35849" lon="3.92517">
        <ele>911</ele>
        <time>2012-01-03T13:27:56Z</time>
      </trkpt>
      <trkpt lat="44.35843" lon="3.92519">
        <ele>910</ele>
        <time>2012-01-03T13:27:58Z</time>
      </trkpt>
      <trkpt lat="44.35832" lon="3.92529">
        <ele>909</ele>
        <time>2012-01-03T13:27:59Z</time>
      </trkpt>
      <trkpt lat="44.35828" lon="3.92538">
        <ele>908</ele>
        <time>2012-01-03T13:28:01Z</time>
      </trkpt>
      <trkpt lat="44.35815" lon="3.92558">
        <ele>907</ele>
        <time>2012-01-03T13:28:03Z</time>
      </trkpt>
      <trkpt lat="44.35801" lon="3.92579">
        <ele>907</ele>
        <time>2012-01-03T13:28:04Z</time>
      </trkpt>
      <trkpt lat="44.35793" lon="3.92589">
        <ele>906</ele>
        <time>2012-01-03T13:28:05Z</time>
      </trkpt>
      <trkpt lat="44.35784" lon="3.92598">
        <ele>906</ele>
        <time>2012-01-03T13:28:06Z</time>
      </trkpt>
      <trkpt lat="44.35774" lon="3.92605">
        <ele>905</ele>
        <time>2012-01-03T13:28:07Z</time>
      </trkpt>
      <trkpt lat="44.35765" lon="3.92608">
        <ele>904</ele>
        <time>2012-01-03T13:28:08Z</time>
      </trkpt>
      <trkpt lat="44.35754" lon="3.92613">
        <ele>903</ele>
        <time>2012-01-03T13:28:09Z</time>
      </trkpt>
      <trkpt lat="44.35744" lon="3.92618">
        <ele>902</ele>
        <time>2012-01-03T13:28:10Z</time>
      </trkpt>
      <trkpt lat="44.35733" lon="3.92625">
        <ele>901</ele>
        <time>2012-01-03T13:28:11Z</time>
      </trkpt>
      <trkpt lat="44.35723" lon="3.92632">
        <ele>900</ele>
        <time>2012-01-03T13:28:12Z</time>
      </trkpt>
      <trkpt lat="44.35713" lon="3.92641">
        <ele>899</ele>
        <time>2012-01-03T13:28:13Z</time>
      </trkpt>
      <trkpt lat="44.35703" lon="3.9265">
        <ele>898</ele>
        <time>2012-01-03T13:28:14Z</time>
      </trkpt>
      <trkpt lat="44.35693" lon="3.9266">
        <ele>897</ele>
        <time>2012-01-03T13:28:15Z</time>
      </trkpt>
      <trkpt lat="44.35683" lon="3.92672">
        <ele>896</ele>
        <time>2012-01-03T13:28:16Z</time>
      </trkpt>
      <trkpt lat="44.35673" lon="3.92683">
        <ele>895</ele>
        <time>2012-01-03T13:28:17Z</time>
      </trkpt>
      <trkpt lat="44.35663" lon="3.92692">
        <ele>894</ele>
        <time>2012-01-03T13:28:18Z</time>
      </trkpt>
      <trkpt lat="44.35653" lon="3.92701">
        <ele>893</ele>
        <time>2012-01-03T13:28:19Z</time>
      </trkpt>
      <trkpt lat="44.35644" lon="3.92709">
        <ele>892</ele>
        <time>2012-01-03T13:28:20Z</time>
      </trkpt>
      <trkpt lat="44.35635" lon="3.92713">
        <ele>891</ele>
        <time>2012-01-03T13:28:21Z</time>
      </trkpt>
      <trkpt lat="44.35627" lon="3.92713">
        <ele>890</ele>
        <time>2012-01-03T13:28:22Z</time>
      </trkpt>
      <trkpt lat="44.35619" lon="3.92717">
        <ele>889</ele>
        <time>2012-01-03T13:28:24Z</time>
      </trkpt>
      <trkpt lat="44.35609" lon="3.92716">
        <ele>888</ele>
        <time>2012-01-03T13:28:24Z</time>
      </trkpt>
      <trkpt lat="44.3559" lon="3.92711">
        <ele>887</ele>
        <time>2012-01-03T13:28:26Z</time>
      </trkpt>
      <trkpt lat="44.35579" lon="3.92708">
        <ele>886</ele>
        <time>2012-01-03T13:28:28Z</time>
      </trkpt>
      <trkpt lat="44.35569" lon="3.92707">
        <ele>885</ele>
        <time>2012-01-03T13:28:28Z</time>
      </trkpt>
      <trkpt lat="44.35559" lon="3.92706">
        <ele>884</ele>
        <time>2012-01-03T13:28:29Z</time>
      </trkpt>
      <trkpt lat="44.3555" lon="3.92706">
        <ele>883</ele>
        <time>2012-01-03T13:28:30Z</time>
      </trkpt>
      <trkpt lat="44.35539" lon="3.92705">
        <ele>882</ele>
        <time>2012-01-03T13:28:31Z</time>
      </trkpt>
      <trkpt lat="44.35529" lon="3.92705">
        <ele>881</ele>
        <time>2012-01-03T13:28:32Z</time>
      </trkpt>
      <trkpt lat="44.35519" lon="3.92704">
        <ele>880</ele>
        <time>2012-01-03T13:28:33Z</time>
      </trkpt>
      <trkpt lat="44.35508" lon="3.92703">
        <ele>879</ele>
        <time>2012-01-03T13:28:34Z</time>
      </trkpt>
      <trkpt lat="44.35498" lon="3.92702">
        <ele>878</ele>
        <time>2012-01-03T13:28:35Z</time>
      </trkpt>
      <trkpt lat="44.35487" lon="3.92702">
        <ele>877</ele>
        <time>2012-01-03T13:28:36Z</time>
      </trkpt>
      <trkpt lat="44.35476" lon="3.92702">
        <ele>876</ele>
        <time>2012-01-03T13:28:37Z</time>
      </trkpt>
      <trkpt lat="44.35465" lon="3.92701">
        <ele>875</ele>
        <time>2012-01-03T13:28:38Z</time>
      </trkpt>
      <trkpt lat="44.35455" lon="3.92698">
        <ele>874</ele>
        <time>2012-01-03T13:28:39Z</time>
      </trkpt>
      <trkpt lat="44.35445" lon="3.92691">
        <ele>873</ele>
        <time>2012-01-03T13:28:40Z</time>
      </trkpt>
      <trkpt lat="44.35436" lon="3.92684">
        <ele>872</ele>
        <time>2012-01-03T13:28:41Z</time>
      </trkpt>
      <trkpt lat="44.35427" lon="3.92678">
        <ele>871</ele>
        <time>2012-01-03T13:28:42Z</time>
      </trkpt>
      <trkpt lat="44.35418" lon="3.92674">
        <ele>870</ele>
        <time>2012-01-03T13:28:43Z</time>
      </trkpt>
      <trkpt lat="44.35406" lon="3.92673">
        <ele>869</ele>
        <time>2012-01-03T13:28:45Z</time>
      </trkpt>
      <trkpt lat="44.35385" lon="3.92672">
        <ele>867</ele>
        <time>2012-01-03T13:28:46Z</time>
      </trkpt>
      <trkpt lat="44.35374" lon="3.92671">
        <ele>865</ele>
        <time>2012-01-03T13:28:47Z</time>
      </trkpt>
      <trkpt lat="44.35364" lon="3.92668">
        <ele>864</ele>
        <time>2012-01-03T13:28:48Z</time>
      </trkpt>
      <trkpt lat="44.35354" lon="3.92663">
        <ele>863</ele>
        <time>2012-01-03T13:28:50Z</time>
      </trkpt>
      <trkpt lat="44.35337" lon="3.92647">
        <ele>862</ele>
        <time>2012-01-03T13:28:51Z</time>
      </trkpt>
      <trkpt lat="44.3533" lon="3.92641">
        <ele>861</ele>
        <time>2012-01-03T13:28:52Z</time>
      </trkpt>
      <trkpt lat="44.35315" lon="3.92638">
        <ele>860</ele>
        <time>2012-01-03T13:28:54Z</time>
      </trkpt>
      <trkpt lat="44.35305" lon="3.92643">
        <ele>859</ele>
        <time>2012-01-03T13:28:56Z</time>
      </trkpt>
      <trkpt lat="44.353" lon="3.92647">
        <ele>858</ele>
        <time>2012-01-03T13:28:58Z</time>
      </trkpt>
      <trkpt lat="44.35298" lon="3.92656">
        <ele>857</ele>
        <time>2012-01-03T13:28:59Z</time>
      </trkpt>
      <trkpt lat="44.353" lon="3.92658">
        <ele>856</ele>
        <time>2012-01-03T13:29:01Z</time>
      </trkpt>
      <trkpt lat="44.35302" lon="3.92657">
        <ele>856</ele>
        <time>2012-01-03T13:29:03Z</time>
      </trkpt>
      <trkpt lat="44.35303" lon="3.92658">
        <ele>856</ele>
        <time>2012-01-03T13:29:08Z</time>
      </trkpt>
      <trkpt lat="44.35303" lon="3.92662">
        <ele>857</ele>
        <time>2012-01-03T13:29:14Z</time>
      </trkpt>
      <trkpt lat="44.35302" lon="3.92666">
        <ele>858</ele>
        <time>2012-01-03T13:29:15Z</time>
      </trkpt>
      <trkpt lat="44.35303" lon="3.92668">
        <ele>860</ele>
        <time>2012-01-03T13:29:17Z</time>
      </trkpt>
      <trkpt lat="44.35304" lon="3.92669">
        <ele>861</ele>
        <time>2012-01-03T13:29:23Z</time>
      </trkpt>
      <trkpt lat="44.35305" lon="3.92675">
        <ele>862</ele>
        <time>2012-01-03T13:29:24Z</time>
      </trkpt>
      <trkpt lat="44.35305" lon="3.92677">
        <ele>863</ele>
        <time>2012-01-03T13:29:25Z</time>
      </trkpt>
      <trkpt lat="44.35304" lon="3.92687">
        <ele>864</ele>
        <time>2012-01-03T13:29:30Z</time>
      </trkpt>
      <trkpt lat="44.35285" lon="3.92723">
        <ele>864</ele>
        <time>2012-01-03T13:29:31Z</time>
      </trkpt>
      <trkpt lat="44.35279" lon="3.9273">
        <ele>864</ele>
        <time>2012-01-03T13:29:32Z</time>
      </trkpt>
      <trkpt lat="44.35267" lon="3.92744">
        <ele>864</ele>
        <time>2012-01-03T13:29:38Z</time>
      </trkpt>
      <trkpt lat="44.3521" lon="3.92789">
        <ele>863</ele>
        <time>2012-01-03T13:29:43Z</time>
      </trkpt>
      <trkpt lat="44.35204" lon="3.92793">
        <ele>862</ele>
        <time>2012-01-03T13:29:44Z</time>
      </trkpt>
      <trkpt lat="44.35197" lon="3.92796">
        <ele>861</ele>
        <time>2012-01-03T13:29:45Z</time>
      </trkpt>
      <trkpt lat="44.35183" lon="3.928">
        <ele>860</ele>
        <time>2012-01-03T13:29:50Z</time>
      </trkpt>
      <trkpt lat="44.35155" lon="3.92809">
        <ele>858</ele>
        <time>2012-01-03T13:29:51Z</time>
      </trkpt>
      <trkpt lat="44.35149" lon="3.92816">
        <ele>856</ele>
        <time>2012-01-03T13:29:52Z</time>
      </trkpt>
      <trkpt lat="44.35144" lon="3.92825">
        <ele>854</ele>
        <time>2012-01-03T13:29:53Z</time>
      </trkpt>
      <trkpt lat="44.35137" lon="3.92846">
        <ele>852</ele>
        <time>2012-01-03T13:29:59Z</time>
      </trkpt>
      <trkpt lat="44.35114" lon="3.92901">
        <ele>851</ele>
        <time>2012-01-03T13:30:00Z</time>
      </trkpt>
      <trkpt lat="44.3511" lon="3.92913">
        <ele>849</ele>
        <time>2012-01-03T13:30:02Z</time>
      </trkpt>
      <trkpt lat="44.35104" lon="3.92932">
        <ele>848</ele>
        <time>2012-01-03T13:30:07Z</time>
      </trkpt>
      <trkpt lat="44.35081" lon="3.9296">
        <ele>846</ele>
        <time>2012-01-03T13:30:07Z</time>
      </trkpt>
      <trkpt lat="44.35075" lon="3.92963">
        <ele>844</ele>
        <time>2012-01-03T13:30:08Z</time>
      </trkpt>
      <trkpt lat="44.3507" lon="3.92965">
        <ele>842</ele>
        <time>2012-01-03T13:30:09Z</time>
      </trkpt>
      <trkpt lat="44.35048" lon="3.92974">
        <ele>841</ele>
        <time>2012-01-03T13:30:14Z</time>
      </trkpt>
      <trkpt lat="44.35044" lon="3.92974">
        <ele>839</ele>
        <time>2012-01-03T13:30:15Z</time>
      </trkpt>
      <trkpt lat="44.35041" lon="3.92976">
        <ele>838</ele>
        <time>2012-01-03T13:30:16Z</time>
      </trkpt>
      <trkpt lat="44.35037" lon="3.92978">
        <ele>837</ele>
        <time>2012-01-03T13:30:19Z</time>
      </trkpt>
      <trkpt lat="44.35035" lon="3.92977">
        <ele>836</ele>
        <time>2012-01-03T13:30:24Z</time>
      </trkpt>
      <trkpt lat="44.35035" lon="3.92981">
        <ele>835</ele>
        <time>2012-01-03T13:30:26Z</time>
      </trkpt>
      <trkpt lat="44.35034" lon="3.92979">
        <ele>833</ele>
        <time>2012-01-03T13:30:28Z</time>
      </trkpt>
      <trkpt lat="44.35032" lon="3.92977">
        <ele>831</ele>
        <time>2012-01-03T13:30:35Z</time>
      </trkpt>
      <trkpt lat="44.35029" lon="3.92977">
        <ele>830</ele>
        <time>2012-01-03T13:30:36Z</time>
      </trkpt>
      <trkpt lat="44.35023" lon="3.92979">
        <ele>829</ele>
        <time>2012-01-03T13:30:42Z</time>
      </trkpt>
      <trkpt lat="44.3501" lon="3.9298">
        <ele>828</ele>
        <time>2012-01-03T13:30:43Z</time>
      </trkpt>
      <trkpt lat="44.35007" lon="3.92979">
        <ele>827</ele>
        <time>2012-01-03T13:30:45Z</time>
      </trkpt>
      <trkpt lat="44.35004" lon="3.92977">
        <ele>826</ele>
        <time>2012-01-03T13:30:51Z</time>
      </trkpt>
      <trkpt lat="44.34996" lon="3.92976">
        <ele>825</ele>
        <time>2012-01-03T13:30:51Z</time>
      </trkpt>
      <trkpt lat="44.34995" lon="3.92976">
        <ele>824</ele>
        <time>2012-01-03T13:30:58Z</time>
      </trkpt>
      <trkpt lat="44.34986" lon="3.92977">
        <ele>824</ele>
        <time>2012-01-03T13:31:08Z</time>
      </trkpt>
      <trkpt lat="44.34984" lon="3.92977">
        <ele>824</ele>
        <time>2012-01-03T13:31:09Z</time>
      </trkpt>
      <trkpt lat="44.34981" lon="3.92976">
        <ele>824</ele>
        <time>2012-01-03T13:31:10Z</time>
      </trkpt>
      <trkpt lat="44.34979" lon="3.92975">
        <ele>824</ele>
        <time>2012-01-03T13:31:15Z</time>
      </trkpt>
      <trkpt lat="44.34981" lon="3.92976">
        <ele>824</ele>
        <time>2012-01-03T13:31:16Z</time>
      </trkpt>
      <trkpt lat="44.34983" lon="3.92976">
        <ele>824</ele>
        <time>2012-01-03T13:31:20Z</time>
      </trkpt>
      <trkpt lat="44.3497" lon="3.92974">
        <ele>824</ele>
        <time>2012-01-03T13:31:27Z</time>
      </trkpt>
      <trkpt lat="44.34968" lon="3.92974">
        <ele>823</ele>
        <time>2012-01-03T13:31:28Z</time>
      </trkpt>
      <trkpt lat="44.34963" lon="3.92973">
        <ele>823</ele>
        <time>2012-01-03T13:31:33Z</time>
      </trkpt>
      <trkpt lat="44.34954" lon="3.9297">
        <ele>822</ele>
        <time>2012-01-03T13:31:34Z</time>
      </trkpt>
      <trkpt lat="44.34952" lon="3.9297">
        <ele>821</ele>
        <time>2012-01-03T13:31:35Z</time>
      </trkpt>
      <trkpt lat="44.34947" lon="3.92969">
        <ele>820</ele>
        <time>2012-01-03T13:31:40Z</time>
      </trkpt>
      <trkpt lat="44.34939" lon="3.92968">
        <ele>819</ele>
        <time>2012-01-03T13:31:41Z</time>
      </trkpt>
      <trkpt lat="44.34937" lon="3.92966">
        <ele>815</ele>
        <time>2012-01-03T13:31:50Z</time>
      </trkpt>
      <trkpt lat="44.34933" lon="3.92967">
        <ele>814</ele>
        <time>2012-01-03T13:31:58Z</time>
      </trkpt>
      <trkpt lat="44.3492" lon="3.92968">
        <ele>814</ele>
        <time>2012-01-03T13:31:59Z</time>
      </trkpt>
      <trkpt lat="44.34917" lon="3.92968">
        <ele>814</ele>
        <time>2012-01-03T13:31:59Z</time>
      </trkpt>
      <trkpt lat="44.34912" lon="3.92967">
        <ele>814</ele>
        <time>2012-01-03T13:32:05Z</time>
      </trkpt>
      <trkpt lat="44.34902" lon="3.92965">
        <ele>813</ele>
        <time>2012-01-03T13:32:05Z</time>
      </trkpt>
      <trkpt lat="44.34901" lon="3.92966">
        <ele>813</ele>
        <time>2012-01-03T13:32:06Z</time>
      </trkpt>
      <trkpt lat="44.349" lon="3.92968">
        <ele>812</ele>
        <time>2012-01-03T13:32:07Z</time>
      </trkpt>
      <trkpt lat="44.349" lon="3.92969">
        <ele>812</ele>
        <time>2012-01-03T13:32:08Z</time>
      </trkpt>
      <trkpt lat="44.34901" lon="3.92972">
        <ele>812</ele>
        <time>2012-01-03T13:32:09Z</time>
      </trkpt>
      <trkpt lat="44.34903" lon="3.92977">
        <ele>812</ele>
        <time>2012-01-03T13:32:15Z</time>
      </trkpt>
      <trkpt lat="44.34912" lon="3.92991">
        <ele>811</ele>
        <time>2012-01-03T13:32:16Z</time>
      </trkpt>
      <trkpt lat="44.34916" lon="3.92998">
        <ele>811</ele>
        <time>2012-01-03T13:32:21Z</time>
      </trkpt>
      <trkpt lat="44.34922" lon="3.93012">
        <ele>810</ele>
        <time>2012-01-03T13:32:22Z</time>
      </trkpt>
      <trkpt lat="44.34924" lon="3.93016">
        <ele>809</ele>
        <time>2012-01-03T13:32:23Z</time>
      </trkpt>
      <trkpt lat="44.34931" lon="3.93029">
        <ele>808</ele>
        <time>2012-01-03T13:32:28Z</time>
      </trkpt>
      <trkpt lat="44.34932" lon="3.93032">
        <ele>807</ele>
        <time>2012-01-03T13:32:29Z</time>
      </trkpt>
      <trkpt lat="44.34933" lon="3.93035">
        <ele>806</ele>
        <time>2012-01-03T13:32:31Z</time>
      </trkpt>
      <trkpt lat="44.34933" lon="3.93037">
        <ele>806</ele>
        <time>2012-01-03T13:32:32Z</time>
      </trkpt>
      <trkpt lat="44.34933" lon="3.93042">
        <ele>806</ele>
        <time>2012-01-03T13:32:37Z</time>
      </trkpt>
      <trkpt lat="44.34942" lon="3.93057">
        <ele>806</ele>
        <time>2012-01-03T13:32:38Z</time>
      </trkpt>
      <trkpt lat="44.34944" lon="3.93061">
        <ele>805</ele>
        <time>2012-01-03T13:32:39Z</time>
      </trkpt>
      <trkpt lat="44.34946" lon="3.93066">
        <ele>805</ele>
        <time>2012-01-03T13:32:40Z</time>
      </trkpt>
      <trkpt lat="44.34953" lon="3.93077">
        <ele>805</ele>
        <time>2012-01-03T13:32:45Z</time>
      </trkpt>
      <trkpt lat="44.34965" lon="3.93093">
        <ele>805</ele>
        <time>2012-01-03T13:32:46Z</time>
      </trkpt>
      <trkpt lat="44.34968" lon="3.93097">
        <ele>805</ele>
        <time>2012-01-03T13:32:47Z</time>
      </trkpt>
      <trkpt lat="44.34974" lon="3.93106">
        <ele>804</ele>
        <time>2012-01-03T13:32:52Z</time>
      </trkpt>
      <trkpt lat="44.34983" lon="3.93124">
        <ele>804</ele>
        <time>2012-01-03T13:32:53Z</time>
      </trkpt>
      <trkpt lat="44.34985" lon="3.93128">
        <ele>803</ele>
        <time>2012-01-03T13:32:54Z</time>
      </trkpt>
      <trkpt lat="44.34987" lon="3.93131">
        <ele>802</ele>
        <time>2012-01-03T13:32:55Z</time>
      </trkpt>
      <trkpt lat="44.34991" lon="3.93136">
        <ele>801</ele>
        <time>2012-01-03T13:33:00Z</time>
      </trkpt>
      <trkpt lat="44.34999" lon="3.9315">
        <ele>800</ele>
        <time>2012-01-03T13:33:01Z</time>
      </trkpt>
      <trkpt lat="44.35001" lon="3.93154">
        <ele>799</ele>
        <time>2012-01-03T13:33:02Z</time>
      </trkpt>
      <trkpt lat="44.35004" lon="3.93161">
        <ele>798</ele>
        <time>2012-01-03T13:33:07Z</time>
      </trkpt>
      <trkpt lat="44.35012" lon="3.93178">
        <ele>797</ele>
        <time>2012-01-03T13:33:08Z</time>
      </trkpt>
      <trkpt lat="44.35013" lon="3.93182">
        <ele>796</ele>
        <time>2012-01-03T13:33:10Z</time>
      </trkpt>
      <trkpt lat="44.35013" lon="3.93185">
        <ele>796</ele>
        <time>2012-01-03T13:33:10Z</time>
      </trkpt>
      <trkpt lat="44.35014" lon="3.9319">
        <ele>796</ele>
        <time>2012-01-03T13:33:15Z</time>
      </trkpt>
      <trkpt lat="44.35013" lon="3.93201">
        <ele>796</ele>
        <time>2012-01-03T13:33:16Z</time>
      </trkpt>
      <trkpt lat="44.35013" lon="3.93203">
        <ele>795</ele>
        <time>2012-01-03T13:33:17Z</time>
      </trkpt>
      <trkpt lat="44.35012" lon="3.93206">
        <ele>794</ele>
        <time>2012-01-03T13:33:18Z</time>
      </trkpt>
      <trkpt lat="44.35011" lon="3.9321">
        <ele>791</ele>
        <time>2012-01-03T13:33:26Z</time>
      </trkpt>
      <trkpt lat="44.3501" lon="3.93213">
        <ele>790</ele>
        <time>2012-01-03T13:33:28Z</time>
      </trkpt>
      <trkpt lat="44.35009" lon="3.93216">
        <ele>790</ele>
        <time>2012-01-03T13:33:34Z</time>
      </trkpt>
      <trkpt lat="44.35007" lon="3.93229">
        <ele>790</ele>
        <time>2012-01-03T13:33:35Z</time>
      </trkpt>
      <trkpt lat="44.35007" lon="3.93233">
        <ele>790</ele>
        <time>2012-01-03T13:33:35Z</time>
      </trkpt>
      <trkpt lat="44.35006" lon="3.93238">
        <ele>790</ele>
        <time>2012-01-03T13:33:41Z</time>
      </trkpt>
      <trkpt lat="44.35003" lon="3.93248">
        <ele>790</ele>
        <time>2012-01-03T13:33:41Z</time>
      </trkpt>
      <trkpt lat="44.35003" lon="3.93251">
        <ele>790</ele>
        <time>2012-01-03T13:33:42Z</time>
      </trkpt>
      <trkpt lat="44.35004" lon="3.93258">
        <ele>790</ele>
        <time>2012-01-03T13:33:48Z</time>
      </trkpt>
      <trkpt lat="44.35007" lon="3.93273">
        <ele>789</ele>
        <time>2012-01-03T13:33:48Z</time>
      </trkpt>
      <trkpt lat="44.35009" lon="3.93276">
        <ele>788</ele>
        <time>2012-01-03T13:33:50Z</time>
      </trkpt>
      <trkpt lat="44.35011" lon="3.93278">
        <ele>787</ele>
        <time>2012-01-03T13:33:50Z</time>
      </trkpt>
      <trkpt lat="44.35012" lon="3.93285">
        <ele>786</ele>
        <time>2012-01-03T13:33:56Z</time>
      </trkpt>
      <trkpt lat="44.35017" lon="3.93292">
        <ele>785</ele>
        <time>2012-01-03T13:33:57Z</time>
      </trkpt>
      <trkpt lat="44.35017" lon="3.93294">
        <ele>783</ele>
        <time>2012-01-03T13:33:59Z</time>
      </trkpt>
      <trkpt lat="44.35016" lon="3.93296">
        <ele>781</ele>
        <time>2012-01-03T13:34:06Z</time>
      </trkpt>
      <trkpt lat="44.35015" lon="3.93298">
        <ele>780</ele>
        <time>2012-01-03T13:34:11Z</time>
      </trkpt>
      <trkpt lat="44.35017" lon="3.93301">
        <ele>778</ele>
        <time>2012-01-03T13:34:18Z</time>
      </trkpt>
      <trkpt lat="44.35019" lon="3.93302">
        <ele>777</ele>
        <time>2012-01-03T13:34:19Z</time>
      </trkpt>
      <trkpt lat="44.3502" lon="3.93304">
        <ele>777</ele>
        <time>2012-01-03T13:34:19Z</time>
      </trkpt>
      <trkpt lat="44.35022" lon="3.93306">
        <ele>777</ele>
        <time>2012-01-03T13:34:20Z</time>
      </trkpt>
      <trkpt lat="44.35025" lon="3.93309">
        <ele>777</ele>
        <time>2012-01-03T13:34:25Z</time>
      </trkpt>
      <trkpt lat="44.35031" lon="3.93316">
        <ele>777</ele>
        <time>2012-01-03T13:34:26Z</time>
      </trkpt>
      <trkpt lat="44.35033" lon="3.93319">
        <ele>777</ele>
        <time>2012-01-03T13:34:28Z</time>
      </trkpt>
      <trkpt lat="44.35035" lon="3.9332">
        <ele>777</ele>
        <time>2012-01-03T13:34:29Z</time>
      </trkpt>
      <trkpt lat="44.35037" lon="3.93323">
        <ele>777</ele>
        <time>2012-01-03T13:34:34Z</time>
      </trkpt>
      <trkpt lat="44.35038" lon="3.93324">
        <ele>777</ele>
        <time>2012-01-03T13:34:35Z</time>
      </trkpt>
      <trkpt lat="44.3504" lon="3.93326">
        <ele>777</ele>
        <time>2012-01-03T13:34:37Z</time>
      </trkpt>
      <trkpt lat="44.35044" lon="3.93328">
        <ele>777</ele>
        <time>2012-01-03T13:34:42Z</time>
      </trkpt>
      <trkpt lat="44.35053" lon="3.93332">
        <ele>776</ele>
        <time>2012-01-03T13:34:43Z</time>
      </trkpt>
      <trkpt lat="44.35054" lon="3.93334">
        <ele>776</ele>
        <time>2012-01-03T13:34:44Z</time>
      </trkpt>
      <trkpt lat="44.35055" lon="3.93336">
        <ele>775</ele>
        <time>2012-01-03T13:34:46Z</time>
      </trkpt>
      <trkpt lat="44.35069" lon="3.93346">
        <ele>774</ele>
        <time>2012-01-03T13:34:52Z</time>
      </trkpt>
      <trkpt lat="44.35072" lon="3.93348">
        <ele>773</ele>
        <time>2012-01-03T13:34:54Z</time>
      </trkpt>
      <trkpt lat="44.35077" lon="3.9335">
        <ele>772</ele>
        <time>2012-01-03T13:34:55Z</time>
      </trkpt>
      <trkpt lat="44.35084" lon="3.93354">
        <ele>772</ele>
        <time>2012-01-03T13:35:00Z</time>
      </trkpt>
      <trkpt lat="44.351" lon="3.93359">
        <ele>771</ele>
        <time>2012-01-03T13:35:00Z</time>
      </trkpt>
      <trkpt lat="44.35102" lon="3.9336">
        <ele>771</ele>
        <time>2012-01-03T13:35:01Z</time>
      </trkpt>
      <trkpt lat="44.35109" lon="3.9336">
        <ele>771</ele>
        <time>2012-01-03T13:35:07Z</time>
      </trkpt>
      <trkpt lat="44.35125" lon="3.93364">
        <ele>771</ele>
        <time>2012-01-03T13:35:07Z</time>
      </trkpt>
      <trkpt lat="44.3513" lon="3.93363">
        <ele>771</ele>
        <time>2012-01-03T13:35:08Z</time>
      </trkpt>
      <trkpt lat="44.35138" lon="3.93365">
        <ele>771</ele>
        <time>2012-01-03T13:35:13Z</time>
      </trkpt>
      <trkpt lat="44.35151" lon="3.93365">
        <ele>771</ele>
        <time>2012-01-03T13:35:14Z</time>
      </trkpt>
      <trkpt lat="44.35154" lon="3.93365">
        <ele>770</ele>
        <time>2012-01-03T13:35:15Z</time>
      </trkpt>
      <trkpt lat="44.35157" lon="3.93368">
        <ele>769</ele>
        <time>2012-01-03T13:35:20Z</time>
      </trkpt>
      <trkpt lat="44.35156" lon="3.93374">
        <ele>768</ele>
        <time>2012-01-03T13:35:21Z</time>
      </trkpt>
      <trkpt lat="44.35157" lon="3.93372">
        <ele>767</ele>
        <time>2012-01-03T13:35:22Z</time>
      </trkpt>
      <trkpt lat="44.35158" lon="3.93371">
        <ele>766</ele>
        <time>2012-01-03T13:35:24Z</time>
      </trkpt>
      <trkpt lat="44.35159" lon="3.93369">
        <ele>765</ele>
        <time>2012-01-03T13:35:24Z</time>
      </trkpt>
      <trkpt lat="44.35162" lon="3.9337">
        <ele>764</ele>
        <time>2012-01-03T13:35:28Z</time>
      </trkpt>
      <trkpt lat="44.35165" lon="3.93374">
        <ele>758</ele>
        <time>2012-01-03T13:35:38Z</time>
      </trkpt>
      <trkpt lat="44.35167" lon="3.93375">
        <ele>756</ele>
        <time>2012-01-03T13:35:42Z</time>
      </trkpt>
      <trkpt lat="44.35168" lon="3.93377">
        <ele>755</ele>
        <time>2012-01-03T13:35:43Z</time>
      </trkpt>
      <trkpt lat="44.35168" lon="3.93378">
        <ele>755</ele>
        <time>2012-01-03T13:35:50Z</time>
      </trkpt>
      <trkpt lat="44.35167" lon="3.93379">
        <ele>755</ele>
        <time>2012-01-03T13:35:54Z</time>
      </trkpt>
      <trkpt lat="44.35165" lon="3.93379">
        <ele>755</ele>
        <time>2012-01-03T13:36:04Z</time>
      </trkpt>
      <trkpt lat="44.35163" lon="3.93377">
        <ele>755</ele>
        <time>2012-01-03T13:36:15Z</time>
      </trkpt>
      <trkpt lat="44.35162" lon="3.93376">
        <ele>755</ele>
        <time>2012-01-03T13:36:21Z</time>
      </trkpt>
      <trkpt lat="44.35159" lon="3.93377">
        <ele>755</ele>
        <time>2012-01-03T13:36:21Z</time>
      </trkpt>
      <trkpt lat="44.35157" lon="3.93378">
        <ele>755</ele>
        <time>2012-01-03T13:36:22Z</time>
      </trkpt>
      <trkpt lat="44.35155" lon="3.93379">
        <ele>755</ele>
        <time>2012-01-03T13:36:23Z</time>
      </trkpt>
      <trkpt lat="44.35149" lon="3.93383">
        <ele>754</ele>
        <time>2012-01-03T13:36:33Z</time>
      </trkpt>
      <trkpt lat="44.35142" lon="3.93388">
        <ele>753</ele>
        <time>2012-01-03T13:36:39Z</time>
      </trkpt>
      <trkpt lat="44.35128" lon="3.93397">
        <ele>753</ele>
        <time>2012-01-03T13:36:39Z</time>
      </trkpt>
      <trkpt lat="44.35124" lon="3.93399">
        <ele>752</ele>
        <time>2012-01-03T13:36:40Z</time>
      </trkpt>
      <trkpt lat="44.35117" lon="3.93403">
        <ele>751</ele>
        <time>2012-01-03T13:36:45Z</time>
      </trkpt>
      <trkpt lat="44.35104" lon="3.93407">
        <ele>751</ele>
        <time>2012-01-03T13:36:46Z</time>
      </trkpt>
      <trkpt lat="44.35102" lon="3.93408">
        <ele>750</ele>
        <time>2012-01-03T13:36:47Z</time>
      </trkpt>
      <trkpt lat="44.35098" lon="3.93409">
        <ele>749</ele>
        <time>2012-01-03T13:36:52Z</time>
      </trkpt>
      <trkpt lat="44.35086" lon="3.93412">
        <ele>748</ele>
        <time>2012-01-03T13:36:53Z</time>
      </trkpt>
      <trkpt lat="44.35083" lon="3.93413">
        <ele>747</ele>
        <time>2012-01-03T13:36:54Z</time>
      </trkpt>
      <trkpt lat="44.35077" lon="3.93416">
        <ele>747</ele>
        <time>2012-01-03T13:36:59Z</time>
      </trkpt>
      <trkpt lat="44.35063" lon="3.93421">
        <ele>746</ele>
        <time>2012-01-03T13:37:00Z</time>
      </trkpt>
      <trkpt lat="44.35059" lon="3.93422">
        <ele>745</ele>
        <time>2012-01-03T13:37:01Z</time>
      </trkpt>
      <trkpt lat="44.35052" lon="3.93424">
        <ele>744</ele>
        <time>2012-01-03T13:37:06Z</time>
      </trkpt>
      <trkpt lat="44.35039" lon="3.93426">
        <ele>743</ele>
        <time>2012-01-03T13:37:07Z</time>
      </trkpt>
      <trkpt lat="44.35037" lon="3.93425">
        <ele>742</ele>
        <time>2012-01-03T13:37:08Z</time>
      </trkpt>
      <trkpt lat="44.35031" lon="3.93424">
        <ele>741</ele>
        <time>2012-01-03T13:37:14Z</time>
      </trkpt>
      <trkpt lat="44.35015" lon="3.93421">
        <ele>740</ele>
        <time>2012-01-03T13:37:15Z</time>
      </trkpt>
      <trkpt lat="44.3501" lon="3.93418">
        <ele>739</ele>
        <time>2012-01-03T13:37:21Z</time>
      </trkpt>
      <trkpt lat="44.35001" lon="3.93414">
        <ele>738</ele>
        <time>2012-01-03T13:37:21Z</time>
      </trkpt>
      <trkpt lat="44.34998" lon="3.93414">
        <ele>737</ele>
        <time>2012-01-03T13:37:22Z</time>
      </trkpt>
      <trkpt lat="44.34996" lon="3.93413">
        <ele>736</ele>
        <time>2012-01-03T13:37:27Z</time>
      </trkpt>
      <trkpt lat="44.34995" lon="3.93411">
        <ele>735</ele>
        <time>2012-01-03T13:37:28Z</time>
      </trkpt>
      <trkpt lat="44.34993" lon="3.93411">
        <ele>734</ele>
        <time>2012-01-03T13:37:29Z</time>
      </trkpt>
      <trkpt lat="44.3499" lon="3.93411">
        <ele>733</ele>
        <time>2012-01-03T13:37:34Z</time>
      </trkpt>
      <trkpt lat="44.34983" lon="3.93409">
        <ele>733</ele>
        <time>2012-01-03T13:37:35Z</time>
      </trkpt>
      <trkpt lat="44.34981" lon="3.93408">
        <ele>733</ele>
        <time>2012-01-03T13:37:36Z</time>
      </trkpt>
      <trkpt lat="44.34979" lon="3.93408">
        <ele>733</ele>
        <time>2012-01-03T13:37:37Z</time>
      </trkpt>
      <trkpt lat="44.34974" lon="3.93407">
        <ele>733</ele>
        <time>2012-01-03T13:37:42Z</time>
      </trkpt>
      <trkpt lat="44.34965" lon="3.93406">
        <ele>733</ele>
        <time>2012-01-03T13:37:43Z</time>
      </trkpt>
      <trkpt lat="44.34964" lon="3.93407">
        <ele>732</ele>
        <time>2012-01-03T13:37:44Z</time>
      </trkpt>
      <trkpt lat="44.34962" lon="3.93409">
        <ele>731</ele>
        <time>2012-01-03T13:37:51Z</time>
      </trkpt>
      <trkpt lat="44.34959" lon="3.93409">
        <ele>731</ele>
        <time>2012-01-03T13:37:52Z</time>
      </trkpt>
      <trkpt lat="44.34958" lon="3.93409">
        <ele>731</ele>
        <time>2012-01-03T13:38:00Z</time>
      </trkpt>
      <trkpt lat="44.34961" lon="3.93413">
        <ele>731</ele>
        <time>2012-01-03T13:38:01Z</time>
      </trkpt>
      <trkpt lat="44.34965" lon="3.93417">
        <ele>731</ele>
        <time>2012-01-03T13:38:02Z</time>
      </trkpt>
      <trkpt lat="44.34976" lon="3.93432">
        <ele>731</ele>
        <time>2012-01-03T13:38:08Z</time>
      </trkpt>
      <trkpt lat="44.34978" lon="3.93434">
        <ele>731</ele>
        <time>2012-01-03T13:38:09Z</time>
      </trkpt>
      <trkpt lat="44.34981" lon="3.93438">
        <ele>731</ele>
        <time>2012-01-03T13:38:14Z</time>
      </trkpt>
      <trkpt lat="44.34985" lon="3.93445">
        <ele>731</ele>
        <time>2012-01-03T13:38:15Z</time>
      </trkpt>
      <trkpt lat="44.34987" lon="3.93447">
        <ele>731</ele>
        <time>2012-01-03T13:38:17Z</time>
      </trkpt>
      <trkpt lat="44.34987" lon="3.93453">
        <ele>731</ele>
        <time>2012-01-03T13:38:18Z</time>
      </trkpt>
      <trkpt lat="44.3499" lon="3.93457">
        <ele>731</ele>
        <time>2012-01-03T13:38:23Z</time>
      </trkpt>
      <trkpt lat="44.34995" lon="3.93468">
        <ele>731</ele>
        <time>2012-01-03T13:38:24Z</time>
      </trkpt>
      <trkpt lat="44.34996" lon="3.93471">
        <ele>731</ele>
        <time>2012-01-03T13:38:32Z</time>
      </trkpt>
      <trkpt lat="44.34998" lon="3.93472">
        <ele>731</ele>
        <time>2012-01-03T13:38:33Z</time>
      </trkpt>
      <trkpt lat="44.34997" lon="3.9347">
        <ele>730</ele>
        <time>2012-01-03T13:38:35Z</time>
      </trkpt>
      <trkpt lat="44.34996" lon="3.9347">
        <ele>727</ele>
        <time>2012-01-03T13:38:45Z</time>
      </trkpt>
      <trkpt lat="44.34993" lon="3.9347">
        <ele>726</ele>
        <time>2012-01-03T13:38:45Z</time>
      </trkpt>
      <trkpt lat="44.34989" lon="3.93469">
        <ele>725</ele>
        <time>2012-01-03T13:38:51Z</time>
      </trkpt>
      <trkpt lat="44.34976" lon="3.93466">
        <ele>724</ele>
        <time>2012-01-03T13:38:53Z</time>
      </trkpt>
      <trkpt lat="44.34973" lon="3.93467">
        <ele>723</ele>
        <time>2012-01-03T13:38:53Z</time>
      </trkpt>
      <trkpt lat="44.34968" lon="3.93467">
        <ele>722</ele>
        <time>2012-01-03T13:38:58Z</time>
      </trkpt>
      <trkpt lat="44.34961" lon="3.93467">
        <ele>721</ele>
        <time>2012-01-03T13:38:59Z</time>
      </trkpt>
      <trkpt lat="44.3496" lon="3.93467">
        <ele>718</ele>
        <time>2012-01-03T13:39:03Z</time>
      </trkpt>
      <trkpt lat="44.34952" lon="3.93464">
        <ele>716</ele>
        <time>2012-01-03T13:39:10Z</time>
      </trkpt>
      <trkpt lat="44.3495" lon="3.93465">
        <ele>715</ele>
        <time>2012-01-03T13:39:10Z</time>
      </trkpt>
      <trkpt lat="44.34949" lon="3.93468">
        <ele>714</ele>
        <time>2012-01-03T13:39:13Z</time>
      </trkpt>
      <trkpt lat="44.34949" lon="3.9347">
        <ele>712</ele>
        <time>2012-01-03T13:39:18Z</time>
      </trkpt>
      <trkpt lat="44.34948" lon="3.93471">
        <ele>712</ele>
        <time>2012-01-03T13:39:23Z</time>
      </trkpt>
      <trkpt lat="44.34946" lon="3.93473">
        <ele>712</ele>
        <time>2012-01-03T13:39:34Z</time>
      </trkpt>
      <trkpt lat="44.34949" lon="3.93474">
        <ele>712</ele>
        <time>2012-01-03T13:39:38Z</time>
      </trkpt>
      <trkpt lat="44.34951" lon="3.93475">
        <ele>712</ele>
        <time>2012-01-03T13:39:39Z</time>
      </trkpt>
      <trkpt lat="44.34951" lon="3.93473">
        <ele>712</ele>
        <time>2012-01-03T13:39:44Z</time>
      </trkpt>
      <trkpt lat="44.34953" lon="3.93477">
        <ele>712</ele>
        <time>2012-01-03T13:39:49Z</time>
      </trkpt>
      <trkpt lat="44.34955" lon="3.93479">
        <ele>712</ele>
        <time>2012-01-03T13:39:50Z</time>
      </trkpt>
      <trkpt lat="44.34957" lon="3.93482">
        <ele>712</ele>
        <time>2012-01-03T13:39:51Z</time>
      </trkpt>
      <trkpt lat="44.34959" lon="3.93485">
        <ele>712</ele>
        <time>2012-01-03T13:39:52Z</time>
      </trkpt>
      <trkpt lat="44.34962" lon="3.93489">
        <ele>711</ele>
        <time>2012-01-03T13:39:53Z</time>
      </trkpt>
      <trkpt lat="44.34965" lon="3.93492">
        <ele>711</ele>
        <time>2012-01-03T13:39:54Z</time>
      </trkpt>
      <trkpt lat="44.34969" lon="3.93496">
        <ele>710</ele>
        <time>2012-01-03T13:39:55Z</time>
      </trkpt>
      <trkpt lat="44.34972" lon="3.93501">
        <ele>709</ele>
        <time>2012-01-03T13:39:56Z</time>
      </trkpt>
      <trkpt lat="44.34977" lon="3.93505">
        <ele>708</ele>
        <time>2012-01-03T13:39:57Z</time>
      </trkpt>
      <trkpt lat="44.34981" lon="3.9351">
        <ele>708</ele>
        <time>2012-01-03T13:39:58Z</time>
      </trkpt>
      <trkpt lat="44.34986" lon="3.93513">
        <ele>707</ele>
        <time>2012-01-03T13:39:59Z</time>
      </trkpt>
      <trkpt lat="44.34991" lon="3.93517">
        <ele>707</ele>
        <time>2012-01-03T13:40:00Z</time>
      </trkpt>
      <trkpt lat="44.34997" lon="3.9352">
        <ele>706</ele>
        <time>2012-01-03T13:40:01Z</time>
      </trkpt>
      <trkpt lat="44.35003" lon="3.93522">
        <ele>706</ele>
        <time>2012-01-03T13:40:02Z</time>
      </trkpt>
      <trkpt lat="44.35009" lon="3.93524">
        <ele>706</ele>
        <time>2012-01-03T13:40:03Z</time>
      </trkpt>
      <trkpt lat="44.35016" lon="3.93524">
        <ele>706</ele>
        <time>2012-01-03T13:40:04Z</time>
      </trkpt>
      <trkpt lat="44.35023" lon="3.93526">
        <ele>706</ele>
        <time>2012-01-03T13:40:05Z</time>
      </trkpt>
      <trkpt lat="44.3503" lon="3.9353">
        <ele>706</ele>
        <time>2012-01-03T13:40:06Z</time>
      </trkpt>
      <trkpt lat="44.35037" lon="3.93536">
        <ele>706</ele>
        <time>2012-01-03T13:40:07Z</time>
      </trkpt>
      <trkpt lat="44.35043" lon="3.93543">
        <ele>706</ele>
        <time>2012-01-03T13:40:08Z</time>
      </trkpt>
      <trkpt lat="44.35049" lon="3.93552">
        <ele>706</ele>
        <time>2012-01-03T13:40:09Z</time>
      </trkpt>
      <trkpt lat="44.35054" lon="3.93561">
        <ele>706</ele>
        <time>2012-01-03T13:40:10Z</time>
      </trkpt>
      <trkpt lat="44.3506" lon="3.9357">
        <ele>706</ele>
        <time>2012-01-03T13:40:11Z</time>
      </trkpt>
      <trkpt lat="44.35066" lon="3.9358">
        <ele>705</ele>
        <time>2012-01-03T13:40:12Z</time>
      </trkpt>
      <trkpt lat="44.35073" lon="3.93588">
        <ele>705</ele>
        <time>2012-01-03T13:40:13Z</time>
      </trkpt>
      <trkpt lat="44.3508" lon="3.93596">
        <ele>704</ele>
        <time>2012-01-03T13:40:14Z</time>
      </trkpt>
      <trkpt lat="44.35088" lon="3.93603">
        <ele>704</ele>
        <time>2012-01-03T13:40:15Z</time>
      </trkpt>
      <trkpt lat="44.35096" lon="3.9361">
        <ele>703</ele>
        <time>2012-01-03T13:40:16Z</time>
      </trkpt>
      <trkpt lat="44.35105" lon="3.93616">
        <ele>703</ele>
        <time>2012-01-03T13:40:17Z</time>
      </trkpt>
      <trkpt lat="44.35114" lon="3.93622">
        <ele>703</ele>
        <time>2012-01-03T13:40:18Z</time>
      </trkpt>
      <trkpt lat="44.35123" lon="3.93628">
        <ele>702</ele>
        <time>2012-01-03T13:40:19Z</time>
      </trkpt>
      <trkpt lat="44.35132" lon="3.93634">
        <ele>701</ele>
        <time>2012-01-03T13:40:20Z</time>
      </trkpt>
      <trkpt lat="44.35141" lon="3.93641">
        <ele>700</ele>
        <time>2012-01-03T13:40:21Z</time>
      </trkpt>
      <trkpt lat="44.3515" lon="3.93647">
        <ele>699</ele>
        <time>2012-01-03T13:40:22Z</time>
      </trkpt>
      <trkpt lat="44.3516" lon="3.93653">
        <ele>698</ele>
        <time>2012-01-03T13:40:23Z</time>
      </trkpt>
      <trkpt lat="44.35169" lon="3.93659">
        <ele>697</ele>
        <time>2012-01-03T13:40:24Z</time>
      </trkpt>
      <trkpt lat="44.35179" lon="3.93665">
        <ele>697</ele>
        <time>2012-01-03T13:40:25Z</time>
      </trkpt>
      <trkpt lat="44.3519" lon="3.9367">
        <ele>696</ele>
        <time>2012-01-03T13:40:26Z</time>
      </trkpt>
      <trkpt lat="44.352" lon="3.93674">
        <ele>695</ele>
        <time>2012-01-03T13:40:27Z</time>
      </trkpt>
      <trkpt lat="44.35211" lon="3.93676">
        <ele>694</ele>
        <time>2012-01-03T13:40:28Z</time>
      </trkpt>
      <trkpt lat="44.35223" lon="3.93677">
        <ele>693</ele>
        <time>2012-01-03T13:40:29Z</time>
      </trkpt>
      <trkpt lat="44.35234" lon="3.93678">
        <ele>692</ele>
        <time>2012-01-03T13:40:30Z</time>
      </trkpt>
      <trkpt lat="44.35245" lon="3.93679">
        <ele>691</ele>
        <time>2012-01-03T13:40:31Z</time>
      </trkpt>
      <trkpt lat="44.35256" lon="3.93679">
        <ele>690</ele>
        <time>2012-01-03T13:40:32Z</time>
      </trkpt>
      <trkpt lat="44.35267" lon="3.93679">
        <ele>689</ele>
        <time>2012-01-03T13:40:33Z</time>
      </trkpt>
      <trkpt lat="44.35278" lon="3.93679">
        <ele>688</ele>
        <time>2012-01-03T13:40:34Z</time>
      </trkpt>
      <trkpt lat="44.35289" lon="3.93678">
        <ele>687</ele>
        <time>2012-01-03T13:40:35Z</time>
      </trkpt>
      <trkpt lat="44.35301" lon="3.93677">
        <ele>687</ele>
        <time>2012-01-03T13:40:36Z</time>
      </trkpt>
      <trkpt lat="44.35312" lon="3.93673">
        <ele>686</ele>
        <time>2012-01-03T13:40:37Z</time>
      </trkpt>
      <trkpt lat="44.35322" lon="3.93668">
        <ele>685</ele>
        <time>2012-01-03T13:40:38Z</time>
      </trkpt>
      <trkpt lat="44.35334" lon="3.93664">
        <ele>684</ele>
        <time>2012-01-03T13:40:39Z</time>
      </trkpt>
      <trkpt lat="44.35345" lon="3.93658">
        <ele>683</ele>
        <time>2012-01-03T13:40:40Z</time>
      </trkpt>
      <trkpt lat="44.35354" lon="3.93653">
        <ele>682</ele>
        <time>2012-01-03T13:40:41Z</time>
      </trkpt>
      <trkpt lat="44.35363" lon="3.93646">
        <ele>681</ele>
        <time>2012-01-03T13:40:42Z</time>
      </trkpt>
      <trkpt lat="44.35371" lon="3.93637">
        <ele>680</ele>
        <time>2012-01-03T13:40:43Z</time>
      </trkpt>
      <trkpt lat="44.35378" lon="3.93628">
        <ele>679</ele>
        <time>2012-01-03T13:40:44Z</time>
      </trkpt>
      <trkpt lat="44.35381" lon="3.93616">
        <ele>678</ele>
        <time>2012-01-03T13:40:45Z</time>
      </trkpt>
      <trkpt lat="44.35383" lon="3.93604">
        <ele>677</ele>
        <time>2012-01-03T13:40:46Z</time>
      </trkpt>
      <trkpt lat="44.35385" lon="3.93592">
        <ele>676</ele>
        <time>2012-01-03T13:40:47Z</time>
      </trkpt>
      <trkpt lat="44.35384" lon="3.9358">
        <ele>675</ele>
        <time>2012-01-03T13:40:48Z</time>
      </trkpt>
      <trkpt lat="44.35382" lon="3.93569">
        <ele>674</ele>
        <time>2012-01-03T13:40:49Z</time>
      </trkpt>
      <trkpt lat="44.35379" lon="3.93558">
        <ele>674</ele>
        <time>2012-01-03T13:40:50Z</time>
      </trkpt>
      <trkpt lat="44.35376" lon="3.93546">
        <ele>674</ele>
        <time>2012-01-03T13:40:51Z</time>
      </trkpt>
      <trkpt lat="44.35373" lon="3.93532">
        <ele>674</ele>
        <time>2012-01-03T13:40:52Z</time>
      </trkpt>
      <trkpt lat="44.35371" lon="3.9352">
        <ele>674</ele>
        <time>2012-01-03T13:40:53Z</time>
      </trkpt>
      <trkpt lat="44.35371" lon="3.93508">
        <ele>673</ele>
        <time>2012-01-03T13:40:54Z</time>
      </trkpt>
      <trkpt lat="44.35371" lon="3.93494">
        <ele>672</ele>
        <time>2012-01-03T13:40:55Z</time>
      </trkpt>
      <trkpt lat="44.35371" lon="3.93481">
        <ele>671</ele>
        <time>2012-01-03T13:40:56Z</time>
      </trkpt>
      <trkpt lat="44.35372" lon="3.93468">
        <ele>671</ele>
        <time>2012-01-03T13:40:57Z</time>
      </trkpt>
      <trkpt lat="44.35372" lon="3.93455">
        <ele>670</ele>
        <time>2012-01-03T13:40:58Z</time>
      </trkpt>
      <trkpt lat="44.35372" lon="3.93442">
        <ele>670</ele>
        <time>2012-01-03T13:40:59Z</time>
      </trkpt>
      <trkpt lat="44.35373" lon="3.93428">
        <ele>670</ele>
        <time>2012-01-03T13:41:00Z</time>
      </trkpt>
      <trkpt lat="44.35374" lon="3.93414">
        <ele>670</ele>
        <time>2012-01-03T13:41:01Z</time>
      </trkpt>
      <trkpt lat="44.35373" lon="3.93402">
        <ele>670</ele>
        <time>2012-01-03T13:41:02Z</time>
      </trkpt>
      <trkpt lat="44.35373" lon="3.9339">
        <ele>670</ele>
        <time>2012-01-03T13:41:03Z</time>
      </trkpt>
      <trkpt lat="44.35371" lon="3.93378">
        <ele>669</ele>
        <time>2012-01-03T13:41:04Z</time>
      </trkpt>
      <trkpt lat="44.35369" lon="3.93367">
        <ele>669</ele>
        <time>2012-01-03T13:41:05Z</time>
      </trkpt>
      <trkpt lat="44.3537" lon="3.93357">
        <ele>668</ele>
        <time>2012-01-03T13:41:06Z</time>
      </trkpt>
      <trkpt lat="44.35371" lon="3.93351">
        <ele>667</ele>
        <time>2012-01-03T13:41:07Z</time>
      </trkpt>
      <trkpt lat="44.35376" lon="3.93351">
        <ele>666</ele>
        <time>2012-01-03T13:41:08Z</time>
      </trkpt>
      <trkpt lat="44.35378" lon="3.93358">
        <ele>665</ele>
        <time>2012-01-03T13:41:09Z</time>
      </trkpt>
      <trkpt lat="44.35378" lon="3.93366">
        <ele>664</ele>
        <time>2012-01-03T13:41:10Z</time>
      </trkpt>
      <trkpt lat="44.35378" lon="3.93376">
        <ele>663</ele>
        <time>2012-01-03T13:41:11Z</time>
      </trkpt>
      <trkpt lat="44.35379" lon="3.93385">
        <ele>662</ele>
        <time>2012-01-03T13:41:12Z</time>
      </trkpt>
      <trkpt lat="44.35379" lon="3.93394">
        <ele>662</ele>
        <time>2012-01-03T13:41:13Z</time>
      </trkpt>
      <trkpt lat="44.35378" lon="3.93404">
        <ele>661</ele>
        <time>2012-01-03T13:41:14Z</time>
      </trkpt>
      <trkpt lat="44.35378" lon="3.93414">
        <ele>660</ele>
        <time>2012-01-03T13:41:15Z</time>
      </trkpt>
      <trkpt lat="44.35377" lon="3.93425">
        <ele>660</ele>
        <time>2012-01-03T13:41:16Z</time>
      </trkpt>
      <trkpt lat="44.35377" lon="3.93435">
        <ele>659</ele>
        <time>2012-01-03T13:41:17Z</time>
      </trkpt>
      <trkpt lat="44.35377" lon="3.93446">
        <ele>659</ele>
        <time>2012-01-03T13:41:18Z</time>
      </trkpt>
      <trkpt lat="44.35379" lon="3.93456">
        <ele>658</ele>
        <time>2012-01-03T13:41:19Z</time>
      </trkpt>
      <trkpt lat="44.35381" lon="3.93466">
        <ele>657</ele>
        <time>2012-01-03T13:41:20Z</time>
      </trkpt>
      <trkpt lat="44.35382" lon="3.93476">
        <ele>656</ele>
        <time>2012-01-03T13:41:21Z</time>
      </trkpt>
      <trkpt lat="44.35384" lon="3.93488">
        <ele>655</ele>
        <time>2012-01-03T13:41:22Z</time>
      </trkpt>
      <trkpt lat="44.35387" lon="3.935">
        <ele>654</ele>
        <time>2012-01-03T13:41:23Z</time>
      </trkpt>
      <trkpt lat="44.35389" lon="3.93513">
        <ele>654</ele>
        <time>2012-01-03T13:41:24Z</time>
      </trkpt>
      <trkpt lat="44.35392" lon="3.93526">
        <ele>653</ele>
        <time>2012-01-03T13:41:25Z</time>
      </trkpt>
      <trkpt lat="44.35397" lon="3.93539">
        <ele>653</ele>
        <time>2012-01-03T13:41:26Z</time>
      </trkpt>
      <trkpt lat="44.35401" lon="3.93552">
        <ele>653</ele>
        <time>2012-01-03T13:41:27Z</time>
      </trkpt>
      <trkpt lat="44.35406" lon="3.93564">
        <ele>653</ele>
        <time>2012-01-03T13:41:28Z</time>
      </trkpt>
      <trkpt lat="44.35411" lon="3.93577">
        <ele>653</ele>
        <time>2012-01-03T13:41:29Z</time>
      </trkpt>
      <trkpt lat="44.35415" lon="3.9359">
        <ele>653</ele>
        <time>2012-01-03T13:41:30Z</time>
      </trkpt>
      <trkpt lat="44.35418" lon="3.93603">
        <ele>653</ele>
        <time>2012-01-03T13:41:31Z</time>
      </trkpt>
      <trkpt lat="44.35421" lon="3.93616">
        <ele>653</ele>
        <time>2012-01-03T13:41:32Z</time>
      </trkpt>
      <trkpt lat="44.35422" lon="3.93628">
        <ele>652</ele>
        <time>2012-01-03T13:41:33Z</time>
      </trkpt>
      <trkpt lat="44.35419" lon="3.9364">
        <ele>652</ele>
        <time>2012-01-03T13:41:34Z</time>
      </trkpt>
      <trkpt lat="44.35415" lon="3.93652">
        <ele>651</ele>
        <time>2012-01-03T13:41:35Z</time>
      </trkpt>
      <trkpt lat="44.35409" lon="3.93662">
        <ele>650</ele>
        <time>2012-01-03T13:41:36Z</time>
      </trkpt>
      <trkpt lat="44.35403" lon="3.93671">
        <ele>649</ele>
        <time>2012-01-03T13:41:37Z</time>
      </trkpt>
      <trkpt lat="44.35397" lon="3.93681">
        <ele>649</ele>
        <time>2012-01-03T13:41:38Z</time>
      </trkpt>
      <trkpt lat="44.35391" lon="3.9369">
        <ele>648</ele>
        <time>2012-01-03T13:41:39Z</time>
      </trkpt>
      <trkpt lat="44.35385" lon="3.93701">
        <ele>647</ele>
        <time>2012-01-03T13:41:40Z</time>
      </trkpt>
      <trkpt lat="44.35379" lon="3.9371">
        <ele>647</ele>
        <time>2012-01-03T13:41:41Z</time>
      </trkpt>
      <trkpt lat="44.35372" lon="3.93718">
        <ele>646</ele>
        <time>2012-01-03T13:41:42Z</time>
      </trkpt>
      <trkpt lat="44.35363" lon="3.93726">
        <ele>646</ele>
        <time>2012-01-03T13:41:43Z</time>
      </trkpt>
      <trkpt lat="44.35354" lon="3.93734">
        <ele>646</ele>
        <time>2012-01-03T13:41:44Z</time>
      </trkpt>
      <trkpt lat="44.35344" lon="3.9374">
        <ele>646</ele>
        <time>2012-01-03T13:41:45Z</time>
      </trkpt>
      <trkpt lat="44.35335" lon="3.93746">
        <ele>646</ele>
        <time>2012-01-03T13:41:46Z</time>
      </trkpt>
      <trkpt lat="44.35325" lon="3.93751">
        <ele>646</ele>
        <time>2012-01-03T13:41:47Z</time>
      </trkpt>
      <trkpt lat="44.35315" lon="3.93758">
        <ele>646</ele>
        <time>2012-01-03T13:41:48Z</time>
      </trkpt>
      <trkpt lat="44.35305" lon="3.93763">
        <ele>646</ele>
        <time>2012-01-03T13:41:49Z</time>
      </trkpt>
      <trkpt lat="44.35294" lon="3.93769">
        <ele>646</ele>
        <time>2012-01-03T13:41:50Z</time>
      </trkpt>
      <trkpt lat="44.35284" lon="3.93774">
        <ele>646</ele>
        <time>2012-01-03T13:41:51Z</time>
      </trkpt>
      <trkpt lat="44.35273" lon="3.93778">
        <ele>645</ele>
        <time>2012-01-03T13:41:52Z</time>
      </trkpt>
      <trkpt lat="44.35262" lon="3.93783">
        <ele>645</ele>
        <time>2012-01-03T13:41:53Z</time>
      </trkpt>
      <trkpt lat="44.35252" lon="3.93789">
        <ele>645</ele>
        <time>2012-01-03T13:41:54Z</time>
      </trkpt>
      <trkpt lat="44.35241" lon="3.93795">
        <ele>645</ele>
        <time>2012-01-03T13:41:55Z</time>
      </trkpt>
      <trkpt lat="44.35231" lon="3.93798">
        <ele>645</ele>
        <time>2012-01-03T13:41:56Z</time>
      </trkpt>
      <trkpt lat="44.35219" lon="3.938">
        <ele>645</ele>
        <time>2012-01-03T13:41:57Z</time>
      </trkpt>
      <trkpt lat="44.35207" lon="3.93803">
        <ele>645</ele>
        <time>2012-01-03T13:41:58Z</time>
      </trkpt>
      <trkpt lat="44.35196" lon="3.93805">
        <ele>644</ele>
        <time>2012-01-03T13:41:59Z</time>
      </trkpt>
      <trkpt lat="44.35185" lon="3.93808">
        <ele>644</ele>
        <time>2012-01-03T13:42:00Z</time>
      </trkpt>
      <trkpt lat="44.35175" lon="3.93809">
        <ele>643</ele>
        <time>2012-01-03T13:42:01Z</time>
      </trkpt>
      <trkpt lat="44.35164" lon="3.93809">
        <ele>642</ele>
        <time>2012-01-03T13:42:02Z</time>
      </trkpt>
      <trkpt lat="44.35153" lon="3.93804">
        <ele>641</ele>
        <time>2012-01-03T13:42:03Z</time>
      </trkpt>
      <trkpt lat="44.35143" lon="3.938">
        <ele>640</ele>
        <time>2012-01-03T13:42:04Z</time>
      </trkpt>
      <trkpt lat="44.35132" lon="3.93796">
        <ele>639</ele>
        <time>2012-01-03T13:42:05Z</time>
      </trkpt>
      <trkpt lat="44.35122" lon="3.93792">
        <ele>638</ele>
        <time>2012-01-03T13:42:06Z</time>
      </trkpt>
      <trkpt lat="44.35111" lon="3.93787">
        <ele>637</ele>
        <time>2012-01-03T13:42:07Z</time>
      </trkpt>
      <trkpt lat="44.35101" lon="3.93783">
        <ele>636</ele>
        <time>2012-01-03T13:42:08Z</time>
      </trkpt>
      <trkpt lat="44.35091" lon="3.93779">
        <ele>635</ele>
        <time>2012-01-03T13:42:09Z</time>
      </trkpt>
      <trkpt lat="44.35082" lon="3.93774">
        <ele>634</ele>
        <time>2012-01-03T13:42:10Z</time>
      </trkpt>
      <trkpt lat="44.35074" lon="3.9377">
        <ele>633</ele>
        <time>2012-01-03T13:42:11Z</time>
      </trkpt>
      <trkpt lat="44.35066" lon="3.93767">
        <ele>632</ele>
        <time>2012-01-03T13:42:12Z</time>
      </trkpt>
      <trkpt lat="44.35057" lon="3.93765">
        <ele>632</ele>
        <time>2012-01-03T13:42:13Z</time>
      </trkpt>
      <trkpt lat="44.35048" lon="3.93764">
        <ele>632</ele>
        <time>2012-01-03T13:42:14Z</time>
      </trkpt>
      <trkpt lat="44.35043" lon="3.93768">
        <ele>631</ele>
        <time>2012-01-03T13:42:15Z</time>
      </trkpt>
      <trkpt lat="44.35045" lon="3.93778">
        <ele>630</ele>
        <time>2012-01-03T13:42:16Z</time>
      </trkpt>
      <trkpt lat="44.35045" lon="3.93787">
        <ele>629</ele>
        <time>2012-01-03T13:42:17Z</time>
      </trkpt>
      <trkpt lat="44.35051" lon="3.93798">
        <ele>629</ele>
        <time>2012-01-03T13:42:18Z</time>
      </trkpt>
      <trkpt lat="44.35058" lon="3.93808">
        <ele>628</ele>
        <time>2012-01-03T13:42:19Z</time>
      </trkpt>
      <trkpt lat="44.35064" lon="3.93817">
        <ele>628</ele>
        <time>2012-01-03T13:42:20Z</time>
      </trkpt>
      <trkpt lat="44.3507" lon="3.93825">
        <ele>628</ele>
        <time>2012-01-03T13:42:21Z</time>
      </trkpt>
      <trkpt lat="44.35073" lon="3.93834">
        <ele>628</ele>
        <time>2012-01-03T13:42:22Z</time>
      </trkpt>
      <trkpt lat="44.35077" lon="3.93844">
        <ele>627</ele>
        <time>2012-01-03T13:42:23Z</time>
      </trkpt>
      <trkpt lat="44.35078" lon="3.93854">
        <ele>627</ele>
        <time>2012-01-03T13:42:24Z</time>
      </trkpt>
      <trkpt lat="44.35077" lon="3.93865">
        <ele>627</ele>
        <time>2012-01-03T13:42:25Z</time>
      </trkpt>
      <trkpt lat="44.35075" lon="3.93877">
        <ele>627</ele>
        <time>2012-01-03T13:42:26Z</time>
      </trkpt>
      <trkpt lat="44.3507" lon="3.93886">
        <ele>627</ele>
        <time>2012-01-03T13:42:27Z</time>
      </trkpt>
      <trkpt lat="44.35061" lon="3.93891">
        <ele>627</ele>
        <time>2012-01-03T13:42:28Z</time>
      </trkpt>
      <trkpt lat="44.35053" lon="3.93897">
        <ele>627</ele>
        <time>2012-01-03T13:42:29Z</time>
      </trkpt>
      <trkpt lat="44.35046" lon="3.93902">
        <ele>626</ele>
        <time>2012-01-03T13:42:30Z</time>
      </trkpt>
      <trkpt lat="44.35042" lon="3.9391">
        <ele>626</ele>
        <time>2012-01-03T13:42:31Z</time>
      </trkpt>
      <trkpt lat="44.35038" lon="3.93916">
        <ele>626</ele>
        <time>2012-01-03T13:42:32Z</time>
      </trkpt>
      <trkpt lat="44.35038" lon="3.93922">
        <ele>626</ele>
        <time>2012-01-03T13:42:33Z</time>
      </trkpt>
      <trkpt lat="44.35045" lon="3.93925">
        <ele>626</ele>
        <time>2012-01-03T13:42:34Z</time>
      </trkpt>
      <trkpt lat="44.35051" lon="3.93926">
        <ele>626</ele>
        <time>2012-01-03T13:42:35Z</time>
      </trkpt>
      <trkpt lat="44.35059" lon="3.93923">
        <ele>625</ele>
        <time>2012-01-03T13:42:36Z</time>
      </trkpt>
      <trkpt lat="44.35067" lon="3.93921">
        <ele>625</ele>
        <time>2012-01-03T13:42:37Z</time>
      </trkpt>
      <trkpt lat="44.35075" lon="3.93919">
        <ele>624</ele>
        <time>2012-01-03T13:42:38Z</time>
      </trkpt>
      <trkpt lat="44.35083" lon="3.93919">
        <ele>623</ele>
        <time>2012-01-03T13:42:39Z</time>
      </trkpt>
      <trkpt lat="44.35091" lon="3.93917">
        <ele>622</ele>
        <time>2012-01-03T13:42:40Z</time>
      </trkpt>
      <trkpt lat="44.35098" lon="3.93912">
        <ele>621</ele>
        <time>2012-01-03T13:42:41Z</time>
      </trkpt>
      <trkpt lat="44.35104" lon="3.93904">
        <ele>620</ele>
        <time>2012-01-03T13:42:42Z</time>
      </trkpt>
      <trkpt lat="44.35108" lon="3.93895">
        <ele>619</ele>
        <time>2012-01-03T13:42:43Z</time>
      </trkpt>
      <trkpt lat="44.35109" lon="3.93886">
        <ele>618</ele>
        <time>2012-01-03T13:42:44Z</time>
      </trkpt>
      <trkpt lat="44.35108" lon="3.93878">
        <ele>617</ele>
        <time>2012-01-03T13:42:45Z</time>
      </trkpt>
      <trkpt lat="44.35106" lon="3.93867">
        <ele>616</ele>
        <time>2012-01-03T13:42:46Z</time>
      </trkpt>
      <trkpt lat="44.35104" lon="3.93856">
        <ele>616</ele>
        <time>2012-01-03T13:42:47Z</time>
      </trkpt>
      <trkpt lat="44.35102" lon="3.93847">
        <ele>616</ele>
        <time>2012-01-03T13:42:48Z</time>
      </trkpt>
      <trkpt lat="44.35103" lon="3.93838">
        <ele>616</ele>
        <time>2012-01-03T13:42:49Z</time>
      </trkpt>
      <trkpt lat="44.35106" lon="3.93835">
        <ele>615</ele>
        <time>2012-01-03T13:42:50Z</time>
      </trkpt>
      <trkpt lat="44.35111" lon="3.93836">
        <ele>615</ele>
        <time>2012-01-03T13:42:51Z</time>
      </trkpt>
      <trkpt lat="44.35117" lon="3.9384">
        <ele>615</ele>
        <time>2012-01-03T13:42:52Z</time>
      </trkpt>
      <trkpt lat="44.35124" lon="3.93845">
        <ele>614</ele>
        <time>2012-01-03T13:42:53Z</time>
      </trkpt>
      <trkpt lat="44.35131" lon="3.9385">
        <ele>613</ele>
        <time>2012-01-03T13:42:54Z</time>
      </trkpt>
      <trkpt lat="44.35139" lon="3.93855">
        <ele>613</ele>
        <time>2012-01-03T13:42:55Z</time>
      </trkpt>
      <trkpt lat="44.35146" lon="3.93861">
        <ele>612</ele>
        <time>2012-01-03T13:42:56Z</time>
      </trkpt>
      <trkpt lat="44.35152" lon="3.93868">
        <ele>612</ele>
        <time>2012-01-03T13:42:57Z</time>
      </trkpt>
      <trkpt lat="44.35159" lon="3.93873">
        <ele>612</ele>
        <time>2012-01-03T13:42:58Z</time>
      </trkpt>
      <trkpt lat="44.35167" lon="3.9388">
        <ele>612</ele>
        <time>2012-01-03T13:42:59Z</time>
      </trkpt>
      <trkpt lat="44.35174" lon="3.93884">
        <ele>612</ele>
        <time>2012-01-03T13:43:00Z</time>
      </trkpt>
      <trkpt lat="44.35181" lon="3.93887">
        <ele>612</ele>
        <time>2012-01-03T13:43:01Z</time>
      </trkpt>
      <trkpt lat="44.3519" lon="3.9389">
        <ele>612</ele>
        <time>2012-01-03T13:43:02Z</time>
      </trkpt>
      <trkpt lat="44.35199" lon="3.93895">
        <ele>612</ele>
        <time>2012-01-03T13:43:03Z</time>
      </trkpt>
      <trkpt lat="44.35207" lon="3.939">
        <ele>612</ele>
        <time>2012-01-03T13:43:04Z</time>
      </trkpt>
      <trkpt lat="44.35215" lon="3.93905">
        <ele>612</ele>
        <time>2012-01-03T13:43:05Z</time>
      </trkpt>
      <trkpt lat="44.35224" lon="3.93911">
        <ele>611</ele>
        <time>2012-01-03T13:43:06Z</time>
      </trkpt>
      <trkpt lat="44.35234" lon="3.93913">
        <ele>610</ele>
        <time>2012-01-03T13:43:07Z</time>
      </trkpt>
      <trkpt lat="44.35245" lon="3.93911">
        <ele>609</ele>
        <time>2012-01-03T13:43:08Z</time>
      </trkpt>
      <trkpt lat="44.35255" lon="3.93909">
        <ele>608</ele>
        <time>2012-01-03T13:43:09Z</time>
      </trkpt>
      <trkpt lat="44.35266" lon="3.93907">
        <ele>607</ele>
        <time>2012-01-03T13:43:10Z</time>
      </trkpt>
      <trkpt lat="44.35277" lon="3.93907">
        <ele>606</ele>
        <time>2012-01-03T13:43:11Z</time>
      </trkpt>
      <trkpt lat="44.35288" lon="3.93907">
        <ele>605</ele>
        <time>2012-01-03T13:43:12Z</time>
      </trkpt>
      <trkpt lat="44.35299" lon="3.93906">
        <ele>604</ele>
        <time>2012-01-03T13:43:13Z</time>
      </trkpt>
      <trkpt lat="44.3531" lon="3.93905">
        <ele>603</ele>
        <time>2012-01-03T13:43:14Z</time>
      </trkpt>
      <trkpt lat="44.35321" lon="3.93903">
        <ele>602</ele>
        <time>2012-01-03T13:43:15Z</time>
      </trkpt>
      <trkpt lat="44.35331" lon="3.93898">
        <ele>601</ele>
        <time>2012-01-03T13:43:16Z</time>
      </trkpt>
      <trkpt lat="44.35342" lon="3.9389">
        <ele>600</ele>
        <time>2012-01-03T13:43:17Z</time>
      </trkpt>
      <trkpt lat="44.35353" lon="3.93884">
        <ele>599</ele>
        <time>2012-01-03T13:43:18Z</time>
      </trkpt>
      <trkpt lat="44.35363" lon="3.93878">
        <ele>598</ele>
        <time>2012-01-03T13:43:19Z</time>
      </trkpt>
      <trkpt lat="44.35373" lon="3.93873">
        <ele>596</ele>
        <time>2012-01-03T13:43:20Z</time>
      </trkpt>
      <trkpt lat="44.35383" lon="3.93867">
        <ele>595</ele>
        <time>2012-01-03T13:43:21Z</time>
      </trkpt>
      <trkpt lat="44.35392" lon="3.93859">
        <ele>594</ele>
        <time>2012-01-03T13:43:22Z</time>
      </trkpt>
      <trkpt lat="44.35399" lon="3.93852">
        <ele>593</ele>
        <time>2012-01-03T13:43:23Z</time>
      </trkpt>
      <trkpt lat="44.35405" lon="3.93847">
        <ele>592</ele>
        <time>2012-01-03T13:43:24Z</time>
      </trkpt>
      <trkpt lat="44.35411" lon="3.93842">
        <ele>591</ele>
        <time>2012-01-03T13:43:25Z</time>
      </trkpt>
      <trkpt lat="44.35415" lon="3.9384">
        <ele>590</ele>
        <time>2012-01-03T13:43:26Z</time>
      </trkpt>
      <trkpt lat="44.3542" lon="3.9384">
        <ele>589</ele>
        <time>2012-01-03T13:43:27Z</time>
      </trkpt>
      <trkpt lat="44.35423" lon="3.93843">
        <ele>588</ele>
        <time>2012-01-03T13:43:28Z</time>
      </trkpt>
      <trkpt lat="44.3542" lon="3.93853">
        <ele>587</ele>
        <time>2012-01-03T13:43:29Z</time>
      </trkpt>
      <trkpt lat="44.35413" lon="3.93862">
        <ele>586</ele>
        <time>2012-01-03T13:43:30Z</time>
      </trkpt>
      <trkpt lat="44.35406" lon="3.93871">
        <ele>586</ele>
        <time>2012-01-03T13:43:31Z</time>
      </trkpt>
      <trkpt lat="44.354" lon="3.93878">
        <ele>586</ele>
        <time>2012-01-03T13:43:32Z</time>
      </trkpt>
      <trkpt lat="44.35393" lon="3.93886">
        <ele>586</ele>
        <time>2012-01-03T13:43:33Z</time>
      </trkpt>
      <trkpt lat="44.35386" lon="3.93897">
        <ele>586</ele>
        <time>2012-01-03T13:43:34Z</time>
      </trkpt>
      <trkpt lat="44.35379" lon="3.93908">
        <ele>586</ele>
        <time>2012-01-03T13:43:35Z</time>
      </trkpt>
      <trkpt lat="44.35373" lon="3.93921">
        <ele>586</ele>
        <time>2012-01-03T13:43:36Z</time>
      </trkpt>
      <trkpt lat="44.35367" lon="3.93935">
        <ele>585</ele>
        <time>2012-01-03T13:43:37Z</time>
      </trkpt>
      <trkpt lat="44.3536" lon="3.93948">
        <ele>584</ele>
        <time>2012-01-03T13:43:38Z</time>
      </trkpt>
      <trkpt lat="44.35352" lon="3.93961">
        <ele>583</ele>
        <time>2012-01-03T13:43:39Z</time>
      </trkpt>
      <trkpt lat="44.35342" lon="3.93973">
        <ele>582</ele>
        <time>2012-01-03T13:43:40Z</time>
      </trkpt>
      <trkpt lat="44.35332" lon="3.93983">
        <ele>581</ele>
        <time>2012-01-03T13:43:41Z</time>
      </trkpt>
      <trkpt lat="44.35321" lon="3.93993">
        <ele>580</ele>
        <time>2012-01-03T13:43:42Z</time>
      </trkpt>
      <trkpt lat="44.35311" lon="3.94004">
        <ele>579</ele>
        <time>2012-01-03T13:43:43Z</time>
      </trkpt>
      <trkpt lat="44.35302" lon="3.94017">
        <ele>578</ele>
        <time>2012-01-03T13:43:44Z</time>
      </trkpt>
      <trkpt lat="44.35294" lon="3.94031">
        <ele>577</ele>
        <time>2012-01-03T13:43:45Z</time>
      </trkpt>
      <trkpt lat="44.35287" lon="3.94047">
        <ele>576</ele>
        <time>2012-01-03T13:43:46Z</time>
      </trkpt>
      <trkpt lat="44.35282" lon="3.94064">
        <ele>575</ele>
        <time>2012-01-03T13:43:47Z</time>
      </trkpt>
      <trkpt lat="44.35277" lon="3.94081">
        <ele>574</ele>
        <time>2012-01-03T13:43:48Z</time>
      </trkpt>
      <trkpt lat="44.35272" lon="3.941">
        <ele>573</ele>
        <time>2012-01-03T13:43:49Z</time>
      </trkpt>
      <trkpt lat="44.35268" lon="3.94118">
        <ele>572</ele>
        <time>2012-01-03T13:43:50Z</time>
      </trkpt>
      <trkpt lat="44.35263" lon="3.94136">
        <ele>570</ele>
        <time>2012-01-03T13:43:51Z</time>
      </trkpt>
      <trkpt lat="44.35259" lon="3.94153">
        <ele>569</ele>
        <time>2012-01-03T13:43:52Z</time>
      </trkpt>
      <trkpt lat="44.35255" lon="3.94169">
        <ele>568</ele>
        <time>2012-01-03T13:43:53Z</time>
      </trkpt>
      <trkpt lat="44.35253" lon="3.94185">
        <ele>567</ele>
        <time>2012-01-03T13:43:54Z</time>
      </trkpt>
      <trkpt lat="44.35252" lon="3.94202">
        <ele>565</ele>
        <time>2012-01-03T13:43:55Z</time>
      </trkpt>
      <trkpt lat="44.35253" lon="3.94219">
        <ele>564</ele>
        <time>2012-01-03T13:43:56Z</time>
      </trkpt>
      <trkpt lat="44.35257" lon="3.94235">
        <ele>563</ele>
        <time>2012-01-03T13:43:57Z</time>
      </trkpt>
      <trkpt lat="44.35262" lon="3.94251">
        <ele>561</ele>
        <time>2012-01-03T13:43:58Z</time>
      </trkpt>
      <trkpt lat="44.35267" lon="3.94267">
        <ele>560</ele>
        <time>2012-01-03T13:43:59Z</time>
      </trkpt>
      <trkpt lat="44.35273" lon="3.94282">
        <ele>559</ele>
        <time>2012-01-03T13:44:00Z</time>
      </trkpt>
      <trkpt lat="44.3528" lon="3.94298">
        <ele>558</ele>
        <time>2012-01-03T13:44:01Z</time>
      </trkpt>
      <trkpt lat="44.35286" lon="3.94314">
        <ele>557</ele>
        <time>2012-01-03T13:44:02Z</time>
      </trkpt>
      <trkpt lat="44.35293" lon="3.94329">
        <ele>556</ele>
        <time>2012-01-03T13:44:03Z</time>
      </trkpt>
      <trkpt lat="44.353" lon="3.94344">
        <ele>555</ele>
        <time>2012-01-03T13:44:04Z</time>
      </trkpt>
      <trkpt lat="44.35307" lon="3.94359">
        <ele>554</ele>
        <time>2012-01-03T13:44:05Z</time>
      </trkpt>
      <trkpt lat="44.35314" lon="3.94374">
        <ele>553</ele>
        <time>2012-01-03T13:44:06Z</time>
      </trkpt>
      <trkpt lat="44.35321" lon="3.94389">
        <ele>553</ele>
        <time>2012-01-03T13:44:07Z</time>
      </trkpt>
      <trkpt lat="44.35327" lon="3.94402">
        <ele>552</ele>
        <time>2012-01-03T13:44:08Z</time>
      </trkpt>
      <trkpt lat="44.35333" lon="3.94414">
        <ele>551</ele>
        <time>2012-01-03T13:44:09Z</time>
      </trkpt>
      <trkpt lat="44.35338" lon="3.94427">
        <ele>550</ele>
        <time>2012-01-03T13:44:10Z</time>
      </trkpt>
      <trkpt lat="44.35342" lon="3.9444">
        <ele>549</ele>
        <time>2012-01-03T13:44:11Z</time>
      </trkpt>
      <trkpt lat="44.35344" lon="3.94454">
        <ele>548</ele>
        <time>2012-01-03T13:44:12Z</time>
      </trkpt>
      <trkpt lat="44.35345" lon="3.94468">
        <ele>547</ele>
        <time>2012-01-03T13:44:13Z</time>
      </trkpt>
      <trkpt lat="44.35344" lon="3.94483">
        <ele>546</ele>
        <time>2012-01-03T13:44:14Z</time>
      </trkpt>
      <trkpt lat="44.35342" lon="3.94498">
        <ele>545</ele>
        <time>2012-01-03T13:44:15Z</time>
      </trkpt>
      <trkpt lat="44.3534" lon="3.94511">
        <ele>544</ele>
        <time>2012-01-03T13:44:16Z</time>
      </trkpt>
      <trkpt lat="44.35339" lon="3.94522">
        <ele>543</ele>
        <time>2012-01-03T13:44:17Z</time>
      </trkpt>
      <trkpt lat="44.35336" lon="3.94531">
        <ele>542</ele>
        <time>2012-01-03T13:44:18Z</time>
      </trkpt>
      <trkpt lat="44.35333" lon="3.94537">
        <ele>541</ele>
        <time>2012-01-03T13:44:19Z</time>
      </trkpt>
      <trkpt lat="44.3533" lon="3.94542">
        <ele>540</ele>
        <time>2012-01-03T13:44:20Z</time>
      </trkpt>
      <trkpt lat="44.35328" lon="3.94547">
        <ele>539</ele>
        <time>2012-01-03T13:44:21Z</time>
      </trkpt>
      <trkpt lat="44.35327" lon="3.9455">
        <ele>538</ele>
        <time>2012-01-03T13:44:22Z</time>
      </trkpt>
      <trkpt lat="44.35328" lon="3.94552">
        <ele>537</ele>
        <time>2012-01-03T13:44:23Z</time>
      </trkpt>
      <trkpt lat="44.3533" lon="3.94554">
        <ele>535</ele>
        <time>2012-01-03T13:44:25Z</time>
      </trkpt>
      <trkpt lat="44.35332" lon="3.94553">
        <ele>533</ele>
        <time>2012-01-03T13:44:27Z</time>
      </trkpt>
      <trkpt lat="44.35332" lon="3.94551">
        <ele>532</ele>
        <time>2012-01-03T13:44:28Z</time>
      </trkpt>
      <trkpt lat="44.35333" lon="3.94552">
        <ele>532</ele>
        <time>2012-01-03T13:44:30Z</time>
      </trkpt>
      <trkpt lat="44.35332" lon="3.94553">
        <ele>535</ele>
        <time>2012-01-03T13:44:33Z</time>
      </trkpt>
      <trkpt lat="44.35332" lon="3.94551">
        <ele>535</ele>
        <time>2012-01-03T13:44:38Z</time>
      </trkpt>
      <trkpt lat="44.35331" lon="3.94551">
        <ele>535</ele>
        <time>2012-01-03T13:44:42Z</time>
      </trkpt>
    </trkseg>
  </trk>
</gpx>